<?xml version='1.0' encoding='UTF-8'?><gpx version="1.1" creator="JPX - https://github.com/jenetics/jpx" xmlns="http://www.topografix.com/GPX/1/1"><trk><trkseg><trkpt lat="41.05693505077179" lon="8.950347272096131"><ele>62.00000000000001</ele><time>2026-05-03T06:45:59Z</time></trkpt><trkpt lat="41.05686041477365" lon="8.950341077766108"><ele>62.0</ele><time>2026-05-03T06:46:01Z</time></trkpt><trkpt lat="41.056742771815394" lon="8.950313728341376"><ele>62.0</ele><time>2026-05-03T06:46:03Z</time></trkpt><trkpt lat="41.05667747685206" lon="8.950293539819993"><ele>62.0</ele><time>2026-05-03T06:46:04Z</time></trkpt><trkpt lat="41.05658521125039" lon="8.950266306764599"><ele>62.00000000000001</ele><time>2026-05-03T06:46:06Z</time></trkpt><trkpt lat="41.056497349411316" lon="8.950252206263533"><ele>62.0</ele><time>2026-05-03T06:46:08Z</time></trkpt><trkpt lat="41.05640229931417" lon="8.95023009326374"><ele>62.333333333333336</ele><time>2026-05-03T06:46:10Z</time></trkpt><trkpt lat="41.05627691225949" lon="8.95023803981803"><ele>62.66666666666667</ele><time>2026-05-03T06:46:12Z</time></trkpt><trkpt lat="41.05620164056698" lon="8.950255683951534"><ele>63.0</ele><time>2026-05-03T06:46:13Z</time></trkpt><trkpt lat="41.05612777225418" lon="8.95027991778624"><ele>63.33333333333333</ele><time>2026-05-03T06:46:14Z</time></trkpt><trkpt lat="41.05605793962373" lon="8.95033969829959"><ele>63.666666666666664</ele><time>2026-05-03T06:46:15Z</time></trkpt><trkpt lat="41.055986422237225" lon="8.950375637675673"><ele>64.0</ele><time>2026-05-03T06:46:16Z</time></trkpt><trkpt lat="41.05589390969647" lon="8.950459837325413"><ele>63.99999999999999</ele><time>2026-05-03T06:46:18Z</time></trkpt><trkpt lat="41.055812042103746" lon="8.950582670600197"><ele>64.0</ele><time>2026-05-03T06:46:20Z</time></trkpt><trkpt lat="41.055753432400415" lon="8.950638968591248"><ele>64.0</ele><time>2026-05-03T06:46:21Z</time></trkpt><trkpt lat="41.05570140134776" lon="8.95070179443477"><ele>64.0</ele><time>2026-05-03T06:46:22Z</time></trkpt><trkpt lat="41.0556188713339" lon="8.950760168086202"><ele>63.99999999999999</ele><time>2026-05-03T06:46:24Z</time></trkpt><trkpt lat="41.05554083240773" lon="8.95072229826329"><ele>64.0</ele><time>2026-05-03T06:46:26Z</time></trkpt><trkpt lat="41.05550536026049" lon="8.950632149377595"><ele>63.33333333333333</ele><time>2026-05-03T06:46:28Z</time></trkpt><trkpt lat="41.055521310929954" lon="8.95048014816104"><ele>62.666666666666664</ele><time>2026-05-03T06:46:30Z</time></trkpt><trkpt lat="41.05554300684121" lon="8.950399178747343"><ele>62.0</ele><time>2026-05-03T06:46:31Z</time></trkpt><trkpt lat="41.055573686528454" lon="8.950312797387177"><ele>61.33333333333333</ele><time>2026-05-03T06:46:32Z</time></trkpt><trkpt lat="41.05559305192631" lon="8.950212747957053"><ele>60.666666666666664</ele><time>2026-05-03T06:46:33Z</time></trkpt><trkpt lat="41.055615587650735" lon="8.950106550959354"><ele>60.0</ele><time>2026-05-03T06:46:34Z</time></trkpt><trkpt lat="41.055637094478364" lon="8.949993975658428"><ele>60.0</ele><time>2026-05-03T06:46:35Z</time></trkpt><trkpt lat="41.05566472051559" lon="8.94987608299419"><ele>60.0</ele><time>2026-05-03T06:46:36Z</time></trkpt><trkpt lat="41.05568329074767" lon="8.949746939130968"><ele>60.0</ele><time>2026-05-03T06:46:37Z</time></trkpt><trkpt lat="41.055699690598146" lon="8.949613454033859"><ele>60.0</ele><time>2026-05-03T06:46:38Z</time></trkpt><trkpt lat="41.05570030054594" lon="8.949490736123888"><ele>60.0</ele><time>2026-05-03T06:46:39Z</time></trkpt><trkpt lat="41.05570370122033" lon="8.949395659362759"><ele>60.0</ele><time>2026-05-03T06:46:40Z</time></trkpt><trkpt lat="41.05570438484993" lon="8.949302773600868"><ele>60.0</ele><time>2026-05-03T06:46:41Z</time></trkpt><trkpt lat="41.0557044532584" lon="8.949217600592851"><ele>60.0</ele><time>2026-05-03T06:46:42Z</time></trkpt><trkpt lat="41.05569665339837" lon="8.94905324359252"><ele>60.0</ele><time>2026-05-03T06:46:44Z</time></trkpt><trkpt lat="41.055679122684246" lon="8.94889657503563"><ele>60.0</ele><time>2026-05-03T06:46:46Z</time></trkpt><trkpt lat="41.05563454128124" lon="8.948764180301996"><ele>58.2</ele><time>2026-05-03T06:46:48Z</time></trkpt><trkpt lat="41.05556107695907" lon="8.948664011355914"><ele>56.4</ele><time>2026-05-03T06:46:50Z</time></trkpt><trkpt lat="41.05550189875284" lon="8.948621738816042"><ele>54.599999999999994</ele><time>2026-05-03T06:46:51Z</time></trkpt><trkpt lat="41.05536458924552" lon="8.948587316454622"><ele>52.8</ele><time>2026-05-03T06:46:53Z</time></trkpt><trkpt lat="41.05529195564978" lon="8.948575640769489"><ele>51.0</ele><time>2026-05-03T06:46:54Z</time></trkpt><trkpt lat="41.055212857340976" lon="8.94854464272655"><ele>51.0</ele><time>2026-05-03T06:46:55Z</time></trkpt><trkpt lat="41.05514091236116" lon="8.948497442295826"><ele>51.0</ele><time>2026-05-03T06:46:56Z</time></trkpt><trkpt lat="41.055077762558945" lon="8.948427787857488"><ele>51.0</ele><time>2026-05-03T06:46:57Z</time></trkpt><trkpt lat="41.05502743812483" lon="8.94834390951422"><ele>51.0</ele><time>2026-05-03T06:46:58Z</time></trkpt><trkpt lat="41.05498210384805" lon="8.948259032418502"><ele>51.0</ele><time>2026-05-03T06:46:59Z</time></trkpt><trkpt lat="41.054931235430324" lon="8.948162812033702"><ele>51.0</ele><time>2026-05-03T06:47:00Z</time></trkpt><trkpt lat="41.054877876127875" lon="8.948093260090301"><ele>51.666666666666664</ele><time>2026-05-03T06:47:01Z</time></trkpt><trkpt lat="41.054848967489576" lon="8.947997367327574"><ele>52.33333333333333</ele><time>2026-05-03T06:47:02Z</time></trkpt><trkpt lat="41.054800278531964" lon="8.947898056448611"><ele>53.0</ele><time>2026-05-03T06:47:04Z</time></trkpt><trkpt lat="41.05475058359467" lon="8.947797665353992"><ele>53.666666666666664</ele><time>2026-05-03T06:47:07Z</time></trkpt><trkpt lat="41.05469664729688" lon="8.947690746791578"><ele>54.33333333333333</ele><time>2026-05-03T06:47:09Z</time></trkpt><trkpt lat="41.054657960815696" lon="8.947616401182232"><ele>55.0</ele><time>2026-05-03T06:47:10Z</time></trkpt><trkpt lat="41.05461452898076" lon="8.947532936222707"><ele>53.49999999999999</ele><time>2026-05-03T06:47:11Z</time></trkpt><trkpt lat="41.05454984195716" lon="8.947463952943382"><ele>52.0</ele><time>2026-05-03T06:47:12Z</time></trkpt><trkpt lat="41.05450219583475" lon="8.947377269871653"><ele>50.5</ele><time>2026-05-03T06:47:13Z</time></trkpt><trkpt lat="41.05445424349964" lon="8.947284679443278"><ele>49.0</ele><time>2026-05-03T06:47:14Z</time></trkpt><trkpt lat="41.054408620274245" lon="8.947187215927654"><ele>47.5</ele><time>2026-05-03T06:47:15Z</time></trkpt><trkpt lat="41.054361545297446" lon="8.947089185361422"><ele>46.0</ele><time>2026-05-03T06:47:16Z</time></trkpt><trkpt lat="41.05432041616797" lon="8.946996266660774"><ele>46.0</ele><time>2026-05-03T06:47:17Z</time></trkpt><trkpt lat="41.05430025039344" lon="8.946909146644614"><ele>46.0</ele><time>2026-05-03T06:47:18Z</time></trkpt><trkpt lat="41.05422100162861" lon="8.946815723298926"><ele>46.0</ele><time>2026-05-03T06:47:20Z</time></trkpt><trkpt lat="41.054188941174544" lon="8.946717196043018"><ele>46.0</ele><time>2026-05-03T06:47:23Z</time></trkpt><trkpt lat="41.05423935584817" lon="8.94664174734831"><ele>46.0</ele><time>2026-05-03T06:47:26Z</time></trkpt><trkpt lat="41.054333169724934" lon="8.946643980176628"><ele>46.0</ele><time>2026-05-03T06:47:28Z</time></trkpt><trkpt lat="41.0544512271592" lon="8.946663113230269"><ele>46.0</ele><time>2026-05-03T06:47:30Z</time></trkpt><trkpt lat="41.05451893831167" lon="8.946674822004697"><ele>46.0</ele><time>2026-05-03T06:47:31Z</time></trkpt><trkpt lat="41.054628511497704" lon="8.946698327232559"><ele>46.0</ele><time>2026-05-03T06:47:33Z</time></trkpt><trkpt lat="41.05469771259379" lon="8.946723709197043"><ele>46.0</ele><time>2026-05-03T06:47:36Z</time></trkpt><trkpt lat="41.054770607952506" lon="8.946743094510818"><ele>46.0</ele><time>2026-05-03T06:47:40Z</time></trkpt><trkpt lat="41.05482019815805" lon="8.946660150754106"><ele>46.0</ele><time>2026-05-03T06:47:44Z</time></trkpt><trkpt lat="41.05477803484937" lon="8.94654463316154"><ele>44.66666666666667</ele><time>2026-05-03T06:47:46Z</time></trkpt><trkpt lat="41.05475998412598" lon="8.94642551691601"><ele>43.333333333333336</ele><time>2026-05-03T06:47:48Z</time></trkpt><trkpt lat="41.054753486340545" lon="8.946315459157043"><ele>42.0</ele><time>2026-05-03T06:47:50Z</time></trkpt><trkpt lat="41.05486545547125" lon="8.946294506849357"><ele>40.666666666666664</ele><time>2026-05-03T06:49:26Z</time></trkpt><trkpt lat="41.05491367998313" lon="8.94623129272349"><ele>39.33333333333333</ele><time>2026-05-03T06:49:33Z</time></trkpt><trkpt lat="41.054965666849306" lon="8.946175287478361"><ele>38.0</ele><time>2026-05-03T06:49:41Z</time></trkpt><trkpt lat="41.05503270658952" lon="8.946171067627658"><ele>36.14285714285714</ele><time>2026-05-03T06:49:50Z</time></trkpt><trkpt lat="41.05510818970152" lon="8.946209041715585"><ele>34.28571428571429</ele><time>2026-05-03T06:49:57Z</time></trkpt><trkpt lat="41.055170599229314" lon="8.946240173770988"><ele>32.42857142857143</ele><time>2026-05-03T06:50:03Z</time></trkpt><trkpt lat="41.0552226999745" lon="8.946296483597179"><ele>30.57142857142857</ele><time>2026-05-03T06:50:08Z</time></trkpt><trkpt lat="41.05527166945217" lon="8.946357830911047"><ele>28.714285714285715</ele><time>2026-05-03T06:50:15Z</time></trkpt><trkpt lat="41.05520318989673" lon="8.946339732734966"><ele>26.85714285714286</ele><time>2026-05-03T07:14:12Z</time></trkpt><trkpt lat="41.05516093824464" lon="8.946270945240592"><ele>25.0</ele><time>2026-05-03T07:14:20Z</time></trkpt><trkpt lat="41.05510071381729" lon="8.946240923910622"><ele>25.000000000000004</ele><time>2026-05-03T07:14:29Z</time></trkpt><trkpt lat="41.055033155358736" lon="8.946206493523146"><ele>25.0</ele><time>2026-05-03T07:14:40Z</time></trkpt><trkpt lat="41.05497091785584" lon="8.946235184305946"><ele>25.0</ele><time>2026-05-03T07:14:51Z</time></trkpt><trkpt lat="41.054917465745206" lon="8.946288230638384"><ele>25.0</ele><time>2026-05-03T07:15:00Z</time></trkpt><trkpt lat="41.05484762132475" lon="8.94628659266468"><ele>25.0</ele><time>2026-05-03T07:15:08Z</time></trkpt><trkpt lat="41.05477777159832" lon="8.94629263866317"><ele>25.000000000000004</ele><time>2026-05-03T07:15:18Z</time></trkpt><trkpt lat="41.0547087769965" lon="8.946336641821048"><ele>25.0</ele><time>2026-05-03T07:16:36Z</time></trkpt><trkpt lat="41.054710505096466" lon="8.946428158836218"><ele>27.166666666666668</ele><time>2026-05-03T07:23:11Z</time></trkpt><trkpt lat="41.054739798187356" lon="8.94651991779482"><ele>29.333333333333336</ele><time>2026-05-03T07:23:14Z</time></trkpt><trkpt lat="41.05477757181197" lon="8.946622939935956"><ele>31.5</ele><time>2026-05-03T07:23:21Z</time></trkpt><trkpt lat="41.054747928485504" lon="8.946726208850846"><ele>33.666666666666664</ele><time>2026-05-03T07:23:24Z</time></trkpt><trkpt lat="41.05467054444198" lon="8.94673512473205"><ele>35.83333333333333</ele><time>2026-05-03T07:23:26Z</time></trkpt><trkpt lat="41.05458840071452" lon="8.946684620219091"><ele>38.0</ele><time>2026-05-03T07:23:28Z</time></trkpt><trkpt lat="41.05448876278464" lon="8.946667692179524"><ele>38.0</ele><time>2026-05-03T07:23:30Z</time></trkpt><trkpt lat="41.054390029804296" lon="8.946641244392026"><ele>38.0</ele><time>2026-05-03T07:23:32Z</time></trkpt><trkpt lat="41.05429883691589" lon="8.946638100570802"><ele>38.0</ele><time>2026-05-03T07:23:34Z</time></trkpt><trkpt lat="41.05422303135673" lon="8.946626352223296"><ele>38.0</ele><time>2026-05-03T07:23:36Z</time></trkpt><trkpt lat="41.05416838103694" lon="8.946692129247756"><ele>38.0</ele><time>2026-05-03T07:23:40Z</time></trkpt><trkpt lat="41.05420932783359" lon="8.946819067455891"><ele>38.0</ele><time>2026-05-03T07:23:42Z</time></trkpt><trkpt lat="41.054288457397604" lon="8.946950280640994"><ele>39.33333333333333</ele><time>2026-05-03T07:23:44Z</time></trkpt><trkpt lat="41.05432220957789" lon="8.94702194520203"><ele>40.666666666666664</ele><time>2026-05-03T07:23:45Z</time></trkpt><trkpt lat="41.054388758053925" lon="8.947164181059435"><ele>42.0</ele><time>2026-05-03T07:23:47Z</time></trkpt><trkpt lat="41.05442563910343" lon="8.947233715744604"><ele>43.333333333333336</ele><time>2026-05-03T07:23:48Z</time></trkpt><trkpt lat="41.05446320284879" lon="8.947300720093438"><ele>44.66666666666667</ele><time>2026-05-03T07:23:49Z</time></trkpt><trkpt lat="41.05452806226249" lon="8.947434436830752"><ele>46.0</ele><time>2026-05-03T07:23:51Z</time></trkpt><trkpt lat="41.05460139241441" lon="8.947566122192507"><ele>47.8</ele><time>2026-05-03T07:23:53Z</time></trkpt><trkpt lat="41.05466636263026" lon="8.947696341430099"><ele>49.599999999999994</ele><time>2026-05-03T07:23:55Z</time></trkpt><trkpt lat="41.05470828504088" lon="8.947804860494944"><ele>51.4</ele><time>2026-05-03T07:23:57Z</time></trkpt><trkpt lat="41.05471428740907" lon="8.947934162635311"><ele>53.2</ele><time>2026-05-03T07:24:00Z</time></trkpt><trkpt lat="41.05460827432194" lon="8.947953454273513"><ele>55.0</ele><time>2026-05-03T07:24:02Z</time></trkpt><trkpt lat="41.054495744600125" lon="8.947951826998471"><ele>54.99999999999999</ele><time>2026-05-03T07:24:04Z</time></trkpt><trkpt lat="41.05444115492866" lon="8.947899721817489"><ele>55.0</ele><time>2026-05-03T07:24:05Z</time></trkpt><trkpt lat="41.05438767638606" lon="8.947835024247151"><ele>55.0</ele><time>2026-05-03T07:24:06Z</time></trkpt><trkpt lat="41.054330529263815" lon="8.947761970319483"><ele>55.0</ele><time>2026-05-03T07:24:07Z</time></trkpt><trkpt lat="41.054272298549655" lon="8.947687305660262"><ele>54.99999999999999</ele><time>2026-05-03T07:24:08Z</time></trkpt><trkpt lat="41.054209006890225" lon="8.947614595727647"><ele>55.0</ele><time>2026-05-03T07:24:09Z</time></trkpt><trkpt lat="41.05414681100628" lon="8.94754261699563"><ele>56.33333333333333</ele><time>2026-05-03T07:24:10Z</time></trkpt><trkpt lat="41.05408744661759" lon="8.947473802522639"><ele>57.666666666666664</ele><time>2026-05-03T07:24:11Z</time></trkpt><trkpt lat="41.0540304614431" lon="8.947406744581938"><ele>59.0</ele><time>2026-05-03T07:24:12Z</time></trkpt><trkpt lat="41.05397720623753" lon="8.947343525998468"><ele>60.33333333333333</ele><time>2026-05-03T07:24:13Z</time></trkpt><trkpt lat="41.05392063797923" lon="8.947302053231494"><ele>61.666666666666664</ele><time>2026-05-03T07:24:14Z</time></trkpt><trkpt lat="41.053833171600324" lon="8.947208999994645"><ele>63.0</ele><time>2026-05-03T07:24:16Z</time></trkpt><trkpt lat="41.05372972838813" lon="8.947190501247988"><ele>63.0</ele><time>2026-05-03T07:24:18Z</time></trkpt><trkpt lat="41.053622553067775" lon="8.947246029230033"><ele>63.0</ele><time>2026-05-03T07:24:20Z</time></trkpt><trkpt lat="41.053565470576864" lon="8.9473198564013"><ele>63.0</ele><time>2026-05-03T07:24:25Z</time></trkpt><trkpt lat="41.053651918217085" lon="8.947494752779528"><ele>63.0</ele><time>2026-05-03T07:24:28Z</time></trkpt><trkpt lat="41.053706733791344" lon="8.947550912342754"><ele>63.0</ele><time>2026-05-03T07:24:29Z</time></trkpt><trkpt lat="41.05375541945987" lon="8.947614023312624"><ele>65.16666666666667</ele><time>2026-05-03T07:24:30Z</time></trkpt><trkpt lat="41.053814468071785" lon="8.947677219892162"><ele>67.33333333333333</ele><time>2026-05-03T07:24:31Z</time></trkpt><trkpt lat="41.05387225334298" lon="8.947750401484663"><ele>69.5</ele><time>2026-05-03T07:24:32Z</time></trkpt><trkpt lat="41.0539314164507" lon="8.947829358618284"><ele>71.66666666666666</ele><time>2026-05-03T07:24:33Z</time></trkpt><trkpt lat="41.05398645017583" lon="8.947914856256563"><ele>73.83333333333333</ele><time>2026-05-03T07:24:34Z</time></trkpt><trkpt lat="41.05403999098125" lon="8.948007877120974"><ele>76.0</ele><time>2026-05-03T07:24:35Z</time></trkpt><trkpt lat="41.05409198208043" lon="8.948101319519507"><ele>74.0</ele><time>2026-05-03T07:24:36Z</time></trkpt><trkpt lat="41.05414224863074" lon="8.948193784145184"><ele>72.0</ele><time>2026-05-03T07:24:37Z</time></trkpt><trkpt lat="41.05419187718032" lon="8.948286018558441"><ele>70.0</ele><time>2026-05-03T07:24:38Z</time></trkpt><trkpt lat="41.05423771744024" lon="8.948377680879739"><ele>68.0</ele><time>2026-05-03T07:24:39Z</time></trkpt><trkpt lat="41.05427252395122" lon="8.94846853448193"><ele>66.0</ele><time>2026-05-03T07:24:40Z</time></trkpt><trkpt lat="41.05430010044315" lon="8.948556969598817"><ele>64.0</ele><time>2026-05-03T07:24:41Z</time></trkpt><trkpt lat="41.05432327111804" lon="8.94864076967309"><ele>64.0</ele><time>2026-05-03T07:24:42Z</time></trkpt><trkpt lat="41.05435552310261" lon="8.948799199618835"><ele>64.0</ele><time>2026-05-03T07:24:44Z</time></trkpt><trkpt lat="41.0543886191221" lon="8.948954510395984"><ele>64.0</ele><time>2026-05-03T07:24:46Z</time></trkpt><trkpt lat="41.054409972375915" lon="8.949057024978408"><ele>64.0</ele><time>2026-05-03T07:24:48Z</time></trkpt><trkpt lat="41.05442925762351" lon="8.949179131046273"><ele>64.0</ele><time>2026-05-03T07:24:51Z</time></trkpt><trkpt lat="41.05444387508941" lon="8.949310963987452"><ele>65.28571428571428</ele><time>2026-05-03T07:24:53Z</time></trkpt><trkpt lat="41.05445780983134" lon="8.949394064714387"><ele>66.57142857142857</ele><time>2026-05-03T07:24:54Z</time></trkpt><trkpt lat="41.054484038984086" lon="8.949472622350997"><ele>67.85714285714286</ele><time>2026-05-03T07:24:55Z</time></trkpt><trkpt lat="41.05450560523907" lon="8.949560135203031"><ele>69.14285714285714</ele><time>2026-05-03T07:24:56Z</time></trkpt><trkpt lat="41.05452366708313" lon="8.94965225550743"><ele>70.42857142857143</ele><time>2026-05-03T07:24:57Z</time></trkpt><trkpt lat="41.05453613699479" lon="8.949740024837784"><ele>71.71428571428571</ele><time>2026-05-03T07:24:58Z</time></trkpt><trkpt lat="41.05454623435266" lon="8.949825702313843"><ele>73.0</ele><time>2026-05-03T07:24:59Z</time></trkpt><trkpt lat="41.05455455868192" lon="8.949911661186729"><ele>73.0</ele><time>2026-05-03T07:25:00Z</time></trkpt><trkpt lat="41.05455957166691" lon="8.949997631634835"><ele>73.0</ele><time>2026-05-03T07:25:01Z</time></trkpt><trkpt lat="41.05461557362938" lon="8.95013161006672"><ele>73.0</ele><time>2026-05-03T07:25:03Z</time></trkpt><trkpt lat="41.05463912780332" lon="8.950227089006724"><ele>73.0</ele><time>2026-05-03T07:25:04Z</time></trkpt><trkpt lat="41.05466022420518" lon="8.950326808989004"><ele>73.0</ele><time>2026-05-03T07:25:05Z</time></trkpt><trkpt lat="41.054674355134765" lon="8.950427184050424"><ele>73.0</ele><time>2026-05-03T07:25:06Z</time></trkpt><trkpt lat="41.05467815418384" lon="8.950531077291522"><ele>74.5</ele><time>2026-05-03T07:25:07Z</time></trkpt><trkpt lat="41.05467181091141" lon="8.950636285224846"><ele>76.0</ele><time>2026-05-03T07:25:08Z</time></trkpt><trkpt lat="41.05465155573553" lon="8.950737150437936"><ele>77.5</ele><time>2026-05-03T07:25:09Z</time></trkpt><trkpt lat="41.05460675017675" lon="8.950825272415207"><ele>79.0</ele><time>2026-05-03T07:25:10Z</time></trkpt><trkpt lat="41.054569472537786" lon="8.95091431602236"><ele>80.5</ele><time>2026-05-03T07:25:11Z</time></trkpt><trkpt lat="41.05452824181895" lon="8.951006585313003"><ele>82.0</ele><time>2026-05-03T07:25:12Z</time></trkpt><trkpt lat="41.054487536877645" lon="8.95109958047048"><ele>83.57142857142857</ele><time>2026-05-03T07:25:13Z</time></trkpt><trkpt lat="41.05444748167425" lon="8.95119066599568"><ele>85.14285714285714</ele><time>2026-05-03T07:25:14Z</time></trkpt><trkpt lat="41.05442119845789" lon="8.951286687091043"><ele>86.71428571428572</ele><time>2026-05-03T07:25:15Z</time></trkpt><trkpt lat="41.05439631233357" lon="8.951371835535438"><ele>88.28571428571428</ele><time>2026-05-03T07:25:16Z</time></trkpt><trkpt lat="41.054366913348375" lon="8.951451667575837"><ele>89.85714285714286</ele><time>2026-05-03T07:25:17Z</time></trkpt><trkpt lat="41.05438578166898" lon="8.951539789143846"><ele>91.42857142857143</ele><time>2026-05-03T07:25:18Z</time></trkpt><trkpt lat="41.05440666717121" lon="8.951619692042518"><ele>93.0</ele><time>2026-05-03T07:25:19Z</time></trkpt><trkpt lat="41.054496335833065" lon="8.95172794063169"><ele>94.16666666666667</ele><time>2026-05-03T07:25:21Z</time></trkpt><trkpt lat="41.054557551608234" lon="8.951756051853248"><ele>95.33333333333334</ele><time>2026-05-03T07:25:22Z</time></trkpt><trkpt lat="41.05468315681565" lon="8.951782813500234"><ele>96.5</ele><time>2026-05-03T07:25:24Z</time></trkpt><trkpt lat="41.05475234407114" lon="8.951797607017344"><ele>97.66666666666667</ele><time>2026-05-03T07:25:25Z</time></trkpt><trkpt lat="41.054824034771016" lon="8.951816208925154"><ele>98.83333333333334</ele><time>2026-05-03T07:25:26Z</time></trkpt><trkpt lat="41.05489647760149" lon="8.951842245228956"><ele>100.0</ele><time>2026-05-03T07:25:27Z</time></trkpt><trkpt lat="41.05496888869193" lon="8.951879381840667"><ele>100.00000000000001</ele><time>2026-05-03T07:25:28Z</time></trkpt><trkpt lat="41.05504049257308" lon="8.95192675715461"><ele>100.0</ele><time>2026-05-03T07:25:29Z</time></trkpt><trkpt lat="41.05510861587766" lon="8.951985577370033"><ele>100.0</ele><time>2026-05-03T07:25:30Z</time></trkpt><trkpt lat="41.055175290926854" lon="8.952055859177214"><ele>100.0</ele><time>2026-05-03T07:25:31Z</time></trkpt><trkpt lat="41.05523998049985" lon="8.952118050676383"><ele>100.00000000000001</ele><time>2026-05-03T07:25:32Z</time></trkpt><trkpt lat="41.05530814036387" lon="8.952189637732225"><ele>100.0</ele><time>2026-05-03T07:25:33Z</time></trkpt><trkpt lat="41.05537255966507" lon="8.952254192572227"><ele>100.00000000000001</ele><time>2026-05-03T07:25:34Z</time></trkpt><trkpt lat="41.05544108272459" lon="8.952315915422693"><ele>100.0</ele><time>2026-05-03T07:25:35Z</time></trkpt><trkpt lat="41.05550830591318" lon="8.952377373011029"><ele>100.0</ele><time>2026-05-03T07:25:36Z</time></trkpt><trkpt lat="41.05557356756302" lon="8.952440640448788"><ele>100.0</ele><time>2026-05-03T07:25:37Z</time></trkpt><trkpt lat="41.05563522574962" lon="8.952505455697377"><ele>100.00000000000001</ele><time>2026-05-03T07:25:38Z</time></trkpt><trkpt lat="41.055693707522664" lon="8.952565854132146"><ele>100.0</ele><time>2026-05-03T07:25:39Z</time></trkpt><trkpt lat="41.05574983583099" lon="8.952623558227613"><ele>99.66666666666667</ele><time>2026-05-03T07:25:40Z</time></trkpt><trkpt lat="41.0558019717712" lon="8.952688579758302"><ele>99.33333333333334</ele><time>2026-05-03T07:25:41Z</time></trkpt><trkpt lat="41.055846133214125" lon="8.95276364917524"><ele>99.0</ele><time>2026-05-03T07:25:42Z</time></trkpt><trkpt lat="41.05588300411485" lon="8.95285167112387"><ele>98.66666666666666</ele><time>2026-05-03T07:25:43Z</time></trkpt><trkpt lat="41.055911036096575" lon="8.95294839363462"><ele>98.33333333333333</ele><time>2026-05-03T07:25:44Z</time></trkpt><trkpt lat="41.05593436717812" lon="8.95305462984996"><ele>98.0</ele><time>2026-05-03T07:25:45Z</time></trkpt><trkpt lat="41.055956374878264" lon="8.95316425701991"><ele>97.99999999999999</ele><time>2026-05-03T07:25:46Z</time></trkpt><trkpt lat="41.05598032667111" lon="8.953279727448493"><ele>98.0</ele><time>2026-05-03T07:25:47Z</time></trkpt><trkpt lat="41.05598319506303" lon="8.953400674294194"><ele>98.0</ele><time>2026-05-03T07:25:48Z</time></trkpt><trkpt lat="41.056001557271294" lon="8.953516779071453"><ele>98.0</ele><time>2026-05-03T07:25:49Z</time></trkpt><trkpt lat="41.056019860775024" lon="8.953632512654202"><ele>97.99999999999999</ele><time>2026-05-03T07:25:50Z</time></trkpt><trkpt lat="41.05603968809106" lon="8.953745513840353"><ele>98.0</ele><time>2026-05-03T07:25:51Z</time></trkpt><trkpt lat="41.056070244782056" lon="8.953838218880794"><ele>99.16666666666666</ele><time>2026-05-03T07:25:52Z</time></trkpt><trkpt lat="41.05609122114378" lon="8.953980496529201"><ele>100.33333333333333</ele><time>2026-05-03T07:25:54Z</time></trkpt><trkpt lat="41.05610717531561" lon="8.954077514214175"><ele>101.5</ele><time>2026-05-03T07:25:56Z</time></trkpt><trkpt lat="41.05613316560798" lon="8.954162919634573"><ele>102.66666666666666</ele><time>2026-05-03T07:25:58Z</time></trkpt><trkpt lat="41.05617703519875" lon="8.954274508445248"><ele>103.83333333333333</ele><time>2026-05-03T07:26:00Z</time></trkpt><trkpt lat="41.05626727919476" lon="8.954302562041356"><ele>105.0</ele><time>2026-05-03T07:26:01Z</time></trkpt><trkpt lat="41.056328070473924" lon="8.954349349225346"><ele>104.66666666666667</ele><time>2026-05-03T07:26:02Z</time></trkpt><trkpt lat="41.056393151446976" lon="8.954378573753282"><ele>104.33333333333334</ele><time>2026-05-03T07:26:03Z</time></trkpt><trkpt lat="41.05646629744547" lon="8.954427891318012"><ele>104.0</ele><time>2026-05-03T07:26:04Z</time></trkpt><trkpt lat="41.05652085195626" lon="8.954500679681288"><ele>103.66666666666667</ele><time>2026-05-03T07:26:05Z</time></trkpt><trkpt lat="41.05656672203505" lon="8.954586273269062"><ele>103.33333333333334</ele><time>2026-05-03T07:26:06Z</time></trkpt><trkpt lat="41.05661382766981" lon="8.954674384714723"><ele>103.0</ele><time>2026-05-03T07:26:07Z</time></trkpt><trkpt lat="41.05665847717284" lon="8.954765045407038"><ele>103.00000000000001</ele><time>2026-05-03T07:26:08Z</time></trkpt><trkpt lat="41.05671849098054" lon="8.954844643754445"><ele>103.0</ele><time>2026-05-03T07:26:09Z</time></trkpt><trkpt lat="41.05678677179816" lon="8.95491874506176"><ele>103.0</ele><time>2026-05-03T07:26:10Z</time></trkpt><trkpt lat="41.05686023552865" lon="8.954989096400093"><ele>103.0</ele><time>2026-05-03T07:26:11Z</time></trkpt><trkpt lat="41.056938010537166" lon="8.955053164592348"><ele>103.00000000000001</ele><time>2026-05-03T07:26:12Z</time></trkpt><trkpt lat="41.05701304156377" lon="8.955114833875669"><ele>103.0</ele><time>2026-05-03T07:26:13Z</time></trkpt><trkpt lat="41.0570724042961" lon="8.955169391363038"><ele>105.0</ele><time>2026-05-03T07:26:14Z</time></trkpt><trkpt lat="41.057159738133215" lon="8.95526326517302"><ele>107.0</ele><time>2026-05-03T07:26:16Z</time></trkpt><trkpt lat="41.05721169149013" lon="8.955379840368169"><ele>109.00000000000001</ele><time>2026-05-03T07:26:18Z</time></trkpt><trkpt lat="41.05723034946398" lon="8.955463651622965"><ele>111.0</ele><time>2026-05-03T07:26:19Z</time></trkpt><trkpt lat="41.05723628477241" lon="8.955571166134794"><ele>113.0</ele><time>2026-05-03T07:26:20Z</time></trkpt><trkpt lat="41.05724262877074" lon="8.955688952003314"><ele>113.0</ele><time>2026-05-03T07:26:21Z</time></trkpt><trkpt lat="41.057245200175856" lon="8.955815339474364"><ele>113.00000000000001</ele><time>2026-05-03T07:26:22Z</time></trkpt><trkpt lat="41.057244582277534" lon="8.95594996973152"><ele>113.00000000000001</ele><time>2026-05-03T07:26:23Z</time></trkpt><trkpt lat="41.057243775303995" lon="8.956086540550288"><ele>113.0</ele><time>2026-05-03T07:26:24Z</time></trkpt><trkpt lat="41.05724276916396" lon="8.956224862890434"><ele>113.0</ele><time>2026-05-03T07:26:25Z</time></trkpt><trkpt lat="41.05724182107832" lon="8.956368489279459"><ele>114.60000000000001</ele><time>2026-05-03T07:26:26Z</time></trkpt><trkpt lat="41.05723913180247" lon="8.956504197460838"><ele>116.20000000000002</ele><time>2026-05-03T07:26:27Z</time></trkpt><trkpt lat="41.057221651086365" lon="8.95663530318069"><ele>117.8</ele><time>2026-05-03T07:26:28Z</time></trkpt><trkpt lat="41.05721821873354" lon="8.956769192048744"><ele>119.4</ele><time>2026-05-03T07:26:29Z</time></trkpt><trkpt lat="41.05721630966834" lon="8.956900730389426"><ele>121.0</ele><time>2026-05-03T07:26:30Z</time></trkpt><trkpt lat="41.05723093981072" lon="8.95702668509954"><ele>121.83333333333334</ele><time>2026-05-03T07:26:31Z</time></trkpt><trkpt lat="41.057227321461696" lon="8.957144163678274"><ele>122.66666666666667</ele><time>2026-05-03T07:26:32Z</time></trkpt><trkpt lat="41.05722794810676" lon="8.957253349157508"><ele>123.5</ele><time>2026-05-03T07:26:33Z</time></trkpt><trkpt lat="41.0572353782542" lon="8.957348490925634"><ele>124.33333333333334</ele><time>2026-05-03T07:26:34Z</time></trkpt><trkpt lat="41.05729730181969" lon="8.957486329045157"><ele>125.16666666666667</ele><time>2026-05-03T07:26:36Z</time></trkpt><trkpt lat="41.057357296246046" lon="8.95752357421284"><ele>126.0</ele><time>2026-05-03T07:26:37Z</time></trkpt><trkpt lat="41.057424995266445" lon="8.957524798961375"><ele>123.16666666666667</ele><time>2026-05-03T07:26:38Z</time></trkpt><trkpt lat="41.057490073633275" lon="8.95749288486031"><ele>120.33333333333334</ele><time>2026-05-03T07:26:39Z</time></trkpt><trkpt lat="41.057546179875885" lon="8.95742051325873"><ele>117.5</ele><time>2026-05-03T07:26:40Z</time></trkpt><trkpt lat="41.057595116885224" lon="8.957343088474234"><ele>114.66666666666667</ele><time>2026-05-03T07:26:41Z</time></trkpt><trkpt lat="41.05764135347969" lon="8.957259208605283"><ele>111.83333333333334</ele><time>2026-05-03T07:26:42Z</time></trkpt><trkpt lat="41.05768878444991" lon="8.957174577631305"><ele>109.0</ele><time>2026-05-03T07:26:43Z</time></trkpt><trkpt lat="41.057737448918324" lon="8.957091734555792"><ele>109.00000000000001</ele><time>2026-05-03T07:26:44Z</time></trkpt><trkpt lat="41.05778926981898" lon="8.957007528175675"><ele>109.0</ele><time>2026-05-03T07:26:45Z</time></trkpt><trkpt lat="41.057840422017755" lon="8.956925596176124"><ele>109.0</ele><time>2026-05-03T07:26:46Z</time></trkpt><trkpt lat="41.05789012929423" lon="8.956843799149027"><ele>109.0</ele><time>2026-05-03T07:26:47Z</time></trkpt><trkpt lat="41.05794453522445" lon="8.956765055429836"><ele>109.00000000000001</ele><time>2026-05-03T07:26:48Z</time></trkpt><trkpt lat="41.0580062876601" lon="8.956708996005977"><ele>109.0</ele><time>2026-05-03T07:26:49Z</time></trkpt><trkpt lat="41.05807549803281" lon="8.9566708145734"><ele>108.66666666666667</ele><time>2026-05-03T07:26:50Z</time></trkpt><trkpt lat="41.058146793812135" lon="8.956635667896474"><ele>108.33333333333334</ele><time>2026-05-03T07:26:51Z</time></trkpt><trkpt lat="41.0582201973621" lon="8.956606378154511"><ele>108.0</ele><time>2026-05-03T07:26:52Z</time></trkpt><trkpt lat="41.05828334332462" lon="8.956580872198483"><ele>107.66666666666666</ele><time>2026-05-03T07:26:53Z</time></trkpt><trkpt lat="41.05836722264983" lon="8.95658058599864"><ele>107.33333333333333</ele><time>2026-05-03T07:26:55Z</time></trkpt><trkpt lat="41.0583789022815" lon="8.956454519616475"><ele>107.0</ele><time>2026-05-03T07:26:56Z</time></trkpt><trkpt lat="41.05843092331799" lon="8.95631040638916"><ele>106.99999999999999</ele><time>2026-05-03T07:26:58Z</time></trkpt><trkpt lat="41.05846530540467" lon="8.956228028971251"><ele>107.0</ele><time>2026-05-03T07:26:59Z</time></trkpt><trkpt lat="41.05851018087754" lon="8.956140617149256"><ele>107.0</ele><time>2026-05-03T07:27:00Z</time></trkpt><trkpt lat="41.05856496474099" lon="8.956052814853583"><ele>107.0</ele><time>2026-05-03T07:27:01Z</time></trkpt><trkpt lat="41.05862359525547" lon="8.955971963873822"><ele>106.99999999999999</ele><time>2026-05-03T07:27:02Z</time></trkpt><trkpt lat="41.05868224734955" lon="8.955888100829334"><ele>107.0</ele><time>2026-05-03T07:27:03Z</time></trkpt><trkpt lat="41.05874067243005" lon="8.955805895351519"><ele>105.85714285714286</ele><time>2026-05-03T07:27:04Z</time></trkpt><trkpt lat="41.05878971988943" lon="8.955738055268228"><ele>104.71428571428572</ele><time>2026-05-03T07:27:05Z</time></trkpt><trkpt lat="41.058836930072324" lon="8.955668406046826"><ele>103.57142857142858</ele><time>2026-05-03T07:27:06Z</time></trkpt><trkpt lat="41.058886432200694" lon="8.95559930930528"><ele>102.42857142857143</ele><time>2026-05-03T07:27:07Z</time></trkpt><trkpt lat="41.058935861224946" lon="8.955530013474322"><ele>101.28571428571428</ele><time>2026-05-03T07:27:08Z</time></trkpt><trkpt lat="41.05898822270261" lon="8.95546194821692"><ele>100.14285714285715</ele><time>2026-05-03T07:27:09Z</time></trkpt><trkpt lat="41.05904557342625" lon="8.955394761343413"><ele>99.0</ele><time>2026-05-03T07:27:10Z</time></trkpt><trkpt lat="41.05910866172695" lon="8.955329315641112"><ele>99.33333333333333</ele><time>2026-05-03T07:27:11Z</time></trkpt><trkpt lat="41.059173344044765" lon="8.955257799187667"><ele>99.66666666666666</ele><time>2026-05-03T07:27:12Z</time></trkpt><trkpt lat="41.05924439928187" lon="8.955199802377106"><ele>100.0</ele><time>2026-05-03T07:27:13Z</time></trkpt><trkpt lat="41.05931462661863" lon="8.955138976009636"><ele>100.33333333333333</ele><time>2026-05-03T07:27:14Z</time></trkpt><trkpt lat="41.059383439575434" lon="8.95508041667373"><ele>100.66666666666666</ele><time>2026-05-03T07:27:15Z</time></trkpt><trkpt lat="41.05944834486579" lon="8.955018983211604"><ele>101.0</ele><time>2026-05-03T07:27:16Z</time></trkpt><trkpt lat="41.05951336926554" lon="8.954951399604852"><ele>99.66666666666666</ele><time>2026-05-03T07:27:17Z</time></trkpt><trkpt lat="41.05957050745139" lon="8.95487145520474"><ele>98.33333333333333</ele><time>2026-05-03T07:27:18Z</time></trkpt><trkpt lat="41.05962301065725" lon="8.95478665996965"><ele>97.0</ele><time>2026-05-03T07:27:19Z</time></trkpt><trkpt lat="41.059675654937884" lon="8.954694252620973"><ele>95.66666666666666</ele><time>2026-05-03T07:27:20Z</time></trkpt><trkpt lat="41.05973114885012" lon="8.954600058588897"><ele>94.33333333333333</ele><time>2026-05-03T07:27:21Z</time></trkpt><trkpt lat="41.059787398340106" lon="8.954504561798908"><ele>93.0</ele><time>2026-05-03T07:27:22Z</time></trkpt><trkpt lat="41.05983574558456" lon="8.954429794955486"><ele>93.0</ele><time>2026-05-03T07:27:23Z</time></trkpt><trkpt lat="41.059878414505874" lon="8.954356024848785"><ele>93.0</ele><time>2026-05-03T07:27:24Z</time></trkpt><trkpt lat="41.059935576261964" lon="8.95421152162709"><ele>93.0</ele><time>2026-05-03T07:27:26Z</time></trkpt><trkpt lat="41.05996695818438" lon="8.954055609426815"><ele>93.0</ele><time>2026-05-03T07:27:28Z</time></trkpt><trkpt lat="41.059930956105134" lon="8.953978952477753"><ele>93.0</ele><time>2026-05-03T07:27:29Z</time></trkpt><trkpt lat="41.05992976614587" lon="8.953845032455753"><ele>92.33333333333333</ele><time>2026-05-03T07:27:31Z</time></trkpt><trkpt lat="41.06001100505419" lon="8.9538199950252"><ele>91.66666666666667</ele><time>2026-05-03T07:27:33Z</time></trkpt><trkpt lat="41.06007828028413" lon="8.953921569288559"><ele>91.0</ele><time>2026-05-03T07:27:35Z</time></trkpt><trkpt lat="41.06009150963159" lon="8.954028865710853"><ele>90.33333333333334</ele><time>2026-05-03T07:27:37Z</time></trkpt><trkpt lat="41.06012242022584" lon="8.954137156841282"><ele>89.66666666666667</ele><time>2026-05-03T07:27:39Z</time></trkpt><trkpt lat="41.06020997213782" lon="8.95417158488491"><ele>89.0</ele><time>2026-05-03T07:27:41Z</time></trkpt><trkpt lat="41.060303421966736" lon="8.954141201220569"><ele>89.0</ele><time>2026-05-03T07:27:43Z</time></trkpt><trkpt lat="41.06040757877668" lon="8.95410265429251"><ele>89.0</ele><time>2026-05-03T07:27:45Z</time></trkpt><trkpt lat="41.06052134675556" lon="8.954134263504601"><ele>89.0</ele><time>2026-05-03T07:27:47Z</time></trkpt><trkpt lat="41.06063125061546" lon="8.95419470547752"><ele>89.0</ele><time>2026-05-03T07:27:49Z</time></trkpt><trkpt lat="41.06072216473408" lon="8.954264083270091"><ele>89.0</ele><time>2026-05-03T07:27:51Z</time></trkpt><trkpt lat="41.060791400830254" lon="8.954394218697662"><ele>89.16666666666667</ele><time>2026-05-03T07:27:53Z</time></trkpt><trkpt lat="41.06082301435057" lon="8.954468230088414"><ele>89.33333333333334</ele><time>2026-05-03T07:27:54Z</time></trkpt><trkpt lat="41.06086245787378" lon="8.954539390345833"><ele>89.5</ele><time>2026-05-03T07:27:55Z</time></trkpt><trkpt lat="41.06096073716925" lon="8.954629785485407"><ele>89.66666666666667</ele><time>2026-05-03T07:27:57Z</time></trkpt><trkpt lat="41.06105942107786" lon="8.954677777326896"><ele>89.83333333333333</ele><time>2026-05-03T07:27:59Z</time></trkpt><trkpt lat="41.06112878097508" lon="8.95472646488413"><ele>90.0</ele><time>2026-05-03T07:28:01Z</time></trkpt><trkpt lat="41.06120133225535" lon="8.95469152932668"><ele>90.0</ele><time>2026-05-03T07:28:04Z</time></trkpt><trkpt lat="41.061271656791035" lon="8.954623662714274"><ele>90.0</ele><time>2026-05-03T07:28:06Z</time></trkpt><trkpt lat="41.061283467744964" lon="8.95450475304811"><ele>90.0</ele><time>2026-05-03T07:28:08Z</time></trkpt><trkpt lat="41.06131141086295" lon="8.954415277422793"><ele>90.0</ele><time>2026-05-03T07:28:10Z</time></trkpt><trkpt lat="41.06138047091013" lon="8.954335843221434"><ele>90.0</ele><time>2026-05-03T07:28:13Z</time></trkpt><trkpt lat="41.061441676776234" lon="8.95427957873713"><ele>90.0</ele><time>2026-05-03T07:28:16Z</time></trkpt><trkpt lat="41.061497622394434" lon="8.954230558575574"><ele>85.6</ele><time>2026-05-03T07:28:19Z</time></trkpt><trkpt lat="41.06156846620882" lon="8.95418039615307"><ele>81.2</ele><time>2026-05-03T07:28:22Z</time></trkpt><trkpt lat="41.06163756375637" lon="8.9541236470628"><ele>76.8</ele><time>2026-05-03T07:28:48Z</time></trkpt><trkpt lat="41.061731784640585" lon="8.954107627298024"><ele>72.4</ele><time>2026-05-03T07:28:50Z</time></trkpt><trkpt lat="41.06185910263121" lon="8.954110635528123"><ele>68.0</ele><time>2026-05-03T07:28:52Z</time></trkpt><trkpt lat="41.06192863287495" lon="8.95412931261531"><ele>67.16666666666667</ele><time>2026-05-03T07:28:53Z</time></trkpt><trkpt lat="41.06203527541636" lon="8.95417706941967"><ele>66.33333333333334</ele><time>2026-05-03T07:28:55Z</time></trkpt><trkpt lat="41.06212289248668" lon="8.954206667024692"><ele>65.5</ele><time>2026-05-03T07:28:57Z</time></trkpt><trkpt lat="41.06220101437036" lon="8.954230420599304"><ele>64.66666666666667</ele><time>2026-05-03T07:28:59Z</time></trkpt><trkpt lat="41.0622738282216" lon="8.954229060042744"><ele>63.833333333333336</ele><time>2026-05-03T07:29:01Z</time></trkpt><trkpt lat="41.06234928175294" lon="8.954203163878448"><ele>63.0</ele><time>2026-05-03T07:29:26Z</time></trkpt><trkpt lat="41.062425795186435" lon="8.954210821576664"><ele>67.33333333333333</ele><time>2026-05-03T07:29:30Z</time></trkpt><trkpt lat="41.06254256823952" lon="8.95421123201822"><ele>71.66666666666667</ele><time>2026-05-03T07:29:33Z</time></trkpt><trkpt lat="41.062607207793164" lon="8.954233149180935"><ele>76.0</ele><time>2026-05-03T07:29:34Z</time></trkpt><trkpt lat="41.06267272573995" lon="8.954279168668805"><ele>80.33333333333334</ele><time>2026-05-03T07:29:35Z</time></trkpt><trkpt lat="41.062737087144725" lon="8.954328893420024"><ele>84.66666666666667</ele><time>2026-05-03T07:29:36Z</time></trkpt><trkpt lat="41.062803935105904" lon="8.954378596755328"><ele>89.0</ele><time>2026-05-03T07:29:37Z</time></trkpt><trkpt lat="41.06284946464264" lon="8.954452531586742"><ele>88.99999999999999</ele><time>2026-05-03T07:29:38Z</time></trkpt><trkpt lat="41.06290284288276" lon="8.954515288976106"><ele>89.0</ele><time>2026-05-03T07:29:39Z</time></trkpt><trkpt lat="41.06296184023071" lon="8.954559631156059"><ele>89.0</ele><time>2026-05-03T07:29:40Z</time></trkpt><trkpt lat="41.06301018701769" lon="8.954622264128501"><ele>89.0</ele><time>2026-05-03T07:29:41Z</time></trkpt><trkpt lat="41.063055027321084" lon="8.95468871551869"><ele>89.0</ele><time>2026-05-03T07:29:42Z</time></trkpt><trkpt lat="41.063102074543856" lon="8.954748183385536"><ele>88.99999999999999</ele><time>2026-05-03T07:29:43Z</time></trkpt><trkpt lat="41.06315456406299" lon="8.954800340158814"><ele>89.0</ele><time>2026-05-03T07:29:44Z</time></trkpt><trkpt lat="41.06321242671748" lon="8.954855190447624"><ele>88.99999999999999</ele><time>2026-05-03T07:29:45Z</time></trkpt><trkpt lat="41.06326687664062" lon="8.954912666071806"><ele>89.0</ele><time>2026-05-03T07:29:46Z</time></trkpt><trkpt lat="41.06332317390461" lon="8.954967712016872"><ele>89.0</ele><time>2026-05-03T07:29:47Z</time></trkpt><trkpt lat="41.06338124528714" lon="8.95502150180288"><ele>89.0</ele><time>2026-05-03T07:29:48Z</time></trkpt><trkpt lat="41.063438482636826" lon="8.955074717916625"><ele>89.0</ele><time>2026-05-03T07:29:49Z</time></trkpt><trkpt lat="41.0634969653916" lon="8.95512696869749"><ele>88.99999999999999</ele><time>2026-05-03T07:29:50Z</time></trkpt><trkpt lat="41.06355547715184" lon="8.955177192530417"><ele>89.0</ele><time>2026-05-03T07:29:51Z</time></trkpt><trkpt lat="41.06361148265954" lon="8.955224926792134"><ele>89.42857142857142</ele><time>2026-05-03T07:29:52Z</time></trkpt><trkpt lat="41.06366813677153" lon="8.955273149997899"><ele>89.85714285714286</ele><time>2026-05-03T07:29:53Z</time></trkpt><trkpt lat="41.06372479585686" lon="8.955333526818858"><ele>90.28571428571428</ele><time>2026-05-03T07:29:54Z</time></trkpt><trkpt lat="41.06377257086097" lon="8.95540494939219"><ele>90.71428571428571</ele><time>2026-05-03T07:29:55Z</time></trkpt><trkpt lat="41.063810227796516" lon="8.955483437424503"><ele>91.14285714285714</ele><time>2026-05-03T07:29:56Z</time></trkpt><trkpt lat="41.06383821686475" lon="8.955562593155918"><ele>91.57142857142857</ele><time>2026-05-03T07:29:57Z</time></trkpt><trkpt lat="41.06386289352472" lon="8.955640928101655"><ele>92.0</ele><time>2026-05-03T07:29:58Z</time></trkpt><trkpt lat="41.063885858393924" lon="8.955725859094592"><ele>92.0</ele><time>2026-05-03T07:29:59Z</time></trkpt><trkpt lat="41.06390183274602" lon="8.95582018179091"><ele>92.0</ele><time>2026-05-03T07:30:00Z</time></trkpt><trkpt lat="41.06391435713893" lon="8.955917078393032"><ele>92.0</ele><time>2026-05-03T07:30:01Z</time></trkpt><trkpt lat="41.063926031470515" lon="8.95601791937133"><ele>92.0</ele><time>2026-05-03T07:30:02Z</time></trkpt><trkpt lat="41.06396689051724" lon="8.956108180348533"><ele>92.0</ele><time>2026-05-03T07:30:03Z</time></trkpt><trkpt lat="41.06400192491877" lon="8.956182379688604"><ele>92.0</ele><time>2026-05-03T07:30:04Z</time></trkpt><trkpt lat="41.06402407580438" lon="8.95627369242077"><ele>92.0</ele><time>2026-05-03T07:30:05Z</time></trkpt><trkpt lat="41.064006655205816" lon="8.9564018293387"><ele>92.16666666666667</ele><time>2026-05-03T07:30:06Z</time></trkpt><trkpt lat="41.06401999312992" lon="8.956484823796943"><ele>92.33333333333334</ele><time>2026-05-03T07:30:07Z</time></trkpt><trkpt lat="41.064048828555286" lon="8.956561848675626"><ele>92.5</ele><time>2026-05-03T07:30:08Z</time></trkpt><trkpt lat="41.064096371503936" lon="8.956616795949012"><ele>92.66666666666667</ele><time>2026-05-03T07:30:09Z</time></trkpt><trkpt lat="41.064191401459176" lon="8.956721112214627"><ele>92.83333333333333</ele><time>2026-05-03T07:30:11Z</time></trkpt><trkpt lat="41.0642479419069" lon="8.956784105975137"><ele>93.0</ele><time>2026-05-03T07:30:12Z</time></trkpt><trkpt lat="41.06435784603062" lon="8.956862296761011"><ele>93.0</ele><time>2026-05-03T07:30:14Z</time></trkpt><trkpt lat="41.064455739537124" lon="8.956899254976879"><ele>93.0</ele><time>2026-05-03T07:30:16Z</time></trkpt><trkpt lat="41.06455411672611" lon="8.956869920618196"><ele>93.0</ele><time>2026-05-03T07:30:18Z</time></trkpt><trkpt lat="41.06466330121525" lon="8.956814612945683"><ele>93.0</ele><time>2026-05-03T07:30:20Z</time></trkpt><trkpt lat="41.06477456119609" lon="8.956763447649417"><ele>93.0</ele><time>2026-05-03T07:30:22Z</time></trkpt><trkpt lat="41.064864588059514" lon="8.956715930663963"><ele>89.2</ele><time>2026-05-03T07:30:24Z</time></trkpt><trkpt lat="41.06496250918814" lon="8.95666595351662"><ele>85.4</ele><time>2026-05-03T07:30:26Z</time></trkpt><trkpt lat="41.06507200713697" lon="8.956624626582718"><ele>81.60000000000001</ele><time>2026-05-03T07:30:28Z</time></trkpt><trkpt lat="41.06517062997938" lon="8.95667880149603"><ele>77.80000000000001</ele><time>2026-05-03T07:30:30Z</time></trkpt><trkpt lat="41.06519119823143" lon="8.956762685390379"><ele>74.0</ele><time>2026-05-03T07:30:31Z</time></trkpt><trkpt lat="41.065231399269464" lon="8.956828480425681"><ele>74.0</ele><time>2026-05-03T07:30:32Z</time></trkpt><trkpt lat="41.06527971197007" lon="8.95689766786374"><ele>74.0</ele><time>2026-05-03T07:30:33Z</time></trkpt><trkpt lat="41.06532420620324" lon="8.956979601421395"><ele>74.0</ele><time>2026-05-03T07:30:34Z</time></trkpt><trkpt lat="41.0653717177948" lon="8.957063153009075"><ele>74.0</ele><time>2026-05-03T07:30:35Z</time></trkpt><trkpt lat="41.06542204554813" lon="8.957149306252504"><ele>74.0</ele><time>2026-05-03T07:30:36Z</time></trkpt><trkpt lat="41.065473844213926" lon="8.957241031586285"><ele>74.0</ele><time>2026-05-03T07:30:37Z</time></trkpt><trkpt lat="41.065528703115824" lon="8.957331795293774"><ele>74.0</ele><time>2026-05-03T07:30:38Z</time></trkpt><trkpt lat="41.06558531483222" lon="8.957421484357651"><ele>74.0</ele><time>2026-05-03T07:30:39Z</time></trkpt><trkpt lat="41.065643299058976" lon="8.957528739638748"><ele>74.0</ele><time>2026-05-03T07:30:40Z</time></trkpt><trkpt lat="41.06569815042564" lon="8.957642344089665"><ele>74.0</ele><time>2026-05-03T07:30:41Z</time></trkpt><trkpt lat="41.06576731433752" lon="8.957734665536702"><ele>74.0</ele><time>2026-05-03T07:30:43Z</time></trkpt><trkpt lat="41.06582892870368" lon="8.957857176013489"><ele>72.71428571428572</ele><time>2026-05-03T07:30:45Z</time></trkpt><trkpt lat="41.06588172728456" lon="8.957953904966145"><ele>71.42857142857143</ele><time>2026-05-03T07:30:47Z</time></trkpt><trkpt lat="41.065919374223036" lon="8.958042059741844"><ele>70.14285714285714</ele><time>2026-05-03T07:30:49Z</time></trkpt><trkpt lat="41.06597354529309" lon="8.958088105090813"><ele>68.85714285714286</ele><time>2026-05-03T07:31:44Z</time></trkpt><trkpt lat="41.06601943548559" lon="8.958161663318634"><ele>67.57142857142857</ele><time>2026-05-03T07:31:51Z</time></trkpt><trkpt lat="41.066088919805104" lon="8.958144907183103"><ele>66.28571428571429</ele><time>2026-05-03T07:31:57Z</time></trkpt><trkpt lat="41.06602832732652" lon="8.958184244575431"><ele>65.0</ele><time>2026-05-03T07:33:00Z</time></trkpt><trkpt lat="41.065988739328866" lon="8.958110564532927"><ele>65.0</ele><time>2026-05-03T07:33:55Z</time></trkpt><trkpt lat="41.065976072348576" lon="8.958021334490596"><ele>65.0</ele><time>2026-05-03T07:35:05Z</time></trkpt><trkpt lat="41.065922109646" lon="8.957923689425021"><ele>65.0</ele><time>2026-05-03T07:35:09Z</time></trkpt><trkpt lat="41.06585178628697" lon="8.957844995236181"><ele>65.0</ele><time>2026-05-03T07:35:11Z</time></trkpt><trkpt lat="41.06577062393034" lon="8.95771655385892"><ele>65.0</ele><time>2026-05-03T07:35:13Z</time></trkpt><trkpt lat="41.06574482857801" lon="8.957629119590536"><ele>65.0</ele><time>2026-05-03T07:35:14Z</time></trkpt><trkpt lat="41.06569065490827" lon="8.95757240386401"><ele>66.5</ele><time>2026-05-03T07:35:15Z</time></trkpt><trkpt lat="41.06566069990622" lon="8.957487786217788"><ele>68.0</ele><time>2026-05-03T07:35:16Z</time></trkpt><trkpt lat="41.06561853531957" lon="8.957416950850298"><ele>69.5</ele><time>2026-05-03T07:35:17Z</time></trkpt><trkpt lat="41.065576747686244" lon="8.957346746351634"><ele>71.0</ele><time>2026-05-03T07:35:18Z</time></trkpt><trkpt lat="41.065536189987746" lon="8.957278577239286"><ele>72.5</ele><time>2026-05-03T07:35:19Z</time></trkpt><trkpt lat="41.06544665961946" lon="8.957162644798489"><ele>74.0</ele><time>2026-05-03T07:35:21Z</time></trkpt><trkpt lat="41.0653713251392" lon="8.957029062565953"><ele>74.0</ele><time>2026-05-03T07:35:23Z</time></trkpt><trkpt lat="41.065329807996434" lon="8.956959607052301"><ele>74.0</ele><time>2026-05-03T07:35:24Z</time></trkpt><trkpt lat="41.065298472440666" lon="8.956872536458716"><ele>74.0</ele><time>2026-05-03T07:35:25Z</time></trkpt><trkpt lat="41.06521115737938" lon="8.956745276757559"><ele>74.0</ele><time>2026-05-03T07:35:27Z</time></trkpt><trkpt lat="41.0651750675654" lon="8.956668481466211"><ele>74.0</ele><time>2026-05-03T07:35:28Z</time></trkpt><trkpt lat="41.06506578382253" lon="8.956596882350853"><ele>74.60000000000001</ele><time>2026-05-03T07:35:30Z</time></trkpt><trkpt lat="41.06496844796571" lon="8.956594528760682"><ele>75.2</ele><time>2026-05-03T07:35:32Z</time></trkpt><trkpt lat="41.06492180722364" lon="8.95666130042695"><ele>75.80000000000001</ele><time>2026-05-03T07:35:33Z</time></trkpt><trkpt lat="41.0647925051773" lon="8.956713872650546"><ele>76.4</ele><time>2026-05-03T07:35:35Z</time></trkpt><trkpt lat="41.06471248850561" lon="8.956752178773085"><ele>77.0</ele><time>2026-05-03T07:35:36Z</time></trkpt><trkpt lat="41.06463075296556" lon="8.95678439090876"><ele>77.0</ele><time>2026-05-03T07:35:37Z</time></trkpt><trkpt lat="41.064540148072126" lon="8.956819385111887"><ele>77.0</ele><time>2026-05-03T07:35:38Z</time></trkpt><trkpt lat="41.06446959427237" lon="8.956840056676644"><ele>77.0</ele><time>2026-05-03T07:35:39Z</time></trkpt><trkpt lat="41.0643835492083" lon="8.956842490113269"><ele>77.0</ele><time>2026-05-03T07:35:41Z</time></trkpt><trkpt lat="41.064323025226976" lon="8.95678772960567"><ele>77.0</ele><time>2026-05-03T07:35:43Z</time></trkpt><trkpt lat="41.06426859226788" lon="8.95674210947011"><ele>77.0</ele><time>2026-05-03T07:35:45Z</time></trkpt><trkpt lat="41.06421127486771" lon="8.956685780586435"><ele>77.0</ele><time>2026-05-03T07:35:48Z</time></trkpt><trkpt lat="41.06414777818416" lon="8.95661555130941"><ele>77.0</ele><time>2026-05-03T07:35:52Z</time></trkpt><trkpt lat="41.06408020159016" lon="8.956522069089257"><ele>77.0</ele><time>2026-05-03T07:35:55Z</time></trkpt><trkpt lat="41.064057535220805" lon="8.956382057528256"><ele>77.0</ele><time>2026-05-03T07:35:57Z</time></trkpt><trkpt lat="41.06404122019123" lon="8.95622417518361"><ele>77.0</ele><time>2026-05-03T07:35:59Z</time></trkpt><trkpt lat="41.064024527925774" lon="8.956133395743755"><ele>79.5</ele><time>2026-05-03T07:36:00Z</time></trkpt><trkpt lat="41.064003763773464" lon="8.956039472705529"><ele>82.0</ele><time>2026-05-03T07:36:01Z</time></trkpt><trkpt lat="41.063975319016286" lon="8.95594727051916"><ele>84.5</ele><time>2026-05-03T07:36:02Z</time></trkpt><trkpt lat="41.06395128582433" lon="8.95586966383205"><ele>87.0</ele><time>2026-05-03T07:36:03Z</time></trkpt><trkpt lat="41.0639089975487" lon="8.955717486015025"><ele>89.5</ele><time>2026-05-03T07:36:05Z</time></trkpt><trkpt lat="41.06388712793825" lon="8.955638465253955"><ele>92.0</ele><time>2026-05-03T07:36:06Z</time></trkpt><trkpt lat="41.063839825204255" lon="8.95548609663073"><ele>92.0</ele><time>2026-05-03T07:36:08Z</time></trkpt><trkpt lat="41.06380739811493" lon="8.955406166182481"><ele>92.0</ele><time>2026-05-03T07:36:09Z</time></trkpt><trkpt lat="41.06372166571118" lon="8.955283967613605"><ele>92.0</ele><time>2026-05-03T07:36:11Z</time></trkpt><trkpt lat="41.063671493737104" lon="8.955231149423202"><ele>92.0</ele><time>2026-05-03T07:36:12Z</time></trkpt><trkpt lat="41.06358392646675" lon="8.955148111136936"><ele>92.0</ele><time>2026-05-03T07:36:14Z</time></trkpt><trkpt lat="41.06349283099557" lon="8.955072482166134"><ele>91.39999999999999</ele><time>2026-05-03T07:36:16Z</time></trkpt><trkpt lat="41.06340682317369" lon="8.955001307613234"><ele>90.8</ele><time>2026-05-03T07:36:18Z</time></trkpt><trkpt lat="41.06331872308372" lon="8.954921851174545"><ele>90.2</ele><time>2026-05-03T07:36:20Z</time></trkpt><trkpt lat="41.06321878528644" lon="8.954821814447616"><ele>89.6</ele><time>2026-05-03T07:36:22Z</time></trkpt><trkpt lat="41.06316314881997" lon="8.954762708442358"><ele>89.0</ele><time>2026-05-03T07:36:23Z</time></trkpt><trkpt lat="41.0631048030989" lon="8.954696573408285"><ele>89.0</ele><time>2026-05-03T07:36:24Z</time></trkpt><trkpt lat="41.06304760744359" lon="8.95462844934495"><ele>89.0</ele><time>2026-05-03T07:36:25Z</time></trkpt><trkpt lat="41.062991881449726" lon="8.954562075605052"><ele>89.0</ele><time>2026-05-03T07:36:26Z</time></trkpt><trkpt lat="41.06294371685747" lon="8.954504708333685"><ele>89.0</ele><time>2026-05-03T07:36:27Z</time></trkpt><trkpt lat="41.06288930877305" lon="8.954440267925712"><ele>89.0</ele><time>2026-05-03T07:36:28Z</time></trkpt><trkpt lat="41.06283840162495" lon="8.954380947902248"><ele>89.0</ele><time>2026-05-03T07:36:29Z</time></trkpt><trkpt lat="41.062737631500845" lon="8.954285195809152"><ele>89.0</ele><time>2026-05-03T07:36:31Z</time></trkpt><trkpt lat="41.06268120956534" lon="8.954243414013082"><ele>89.0</ele><time>2026-05-03T07:36:32Z</time></trkpt><trkpt lat="41.06257422597356" lon="8.954183765947262"><ele>89.0</ele><time>2026-05-03T07:36:34Z</time></trkpt><trkpt lat="41.062453300273496" lon="8.954161957149198"><ele>89.0</ele><time>2026-05-03T07:36:36Z</time></trkpt><trkpt lat="41.06239081749701" lon="8.954189219614468"><ele>89.0</ele><time>2026-05-03T07:36:37Z</time></trkpt><trkpt lat="41.06228040702241" lon="8.954176044382244"><ele>83.8</ele><time>2026-05-03T07:36:39Z</time></trkpt><trkpt lat="41.062173921329816" lon="8.954173855863"><ele>78.60000000000001</ele><time>2026-05-03T07:36:41Z</time></trkpt><trkpt lat="41.062071317827275" lon="8.954144625021273"><ele>73.4</ele><time>2026-05-03T07:36:43Z</time></trkpt><trkpt lat="41.06194806192478" lon="8.954100323991776"><ele>68.2</ele><time>2026-05-03T07:36:45Z</time></trkpt><trkpt lat="41.061886187674595" lon="8.95408273977237"><ele>63.0</ele><time>2026-05-03T07:36:46Z</time></trkpt><trkpt lat="41.06181207412255" lon="8.9540895565342"><ele>63.0</ele><time>2026-05-03T07:36:47Z</time></trkpt><trkpt lat="41.061746930341656" lon="8.954069180922945"><ele>63.0</ele><time>2026-05-03T07:36:48Z</time></trkpt><trkpt lat="41.06167254495166" lon="8.954100376705318"><ele>63.0</ele><time>2026-05-03T07:36:49Z</time></trkpt><trkpt lat="41.06159859211395" lon="8.954099336540196"><ele>63.0</ele><time>2026-05-03T07:36:50Z</time></trkpt><trkpt lat="41.06153530357445" lon="8.954161118970744"><ele>63.0</ele><time>2026-05-03T07:36:51Z</time></trkpt><trkpt lat="41.061477259341366" lon="8.954212424591832"><ele>63.0</ele><time>2026-05-03T07:36:52Z</time></trkpt><trkpt lat="41.06141433709518" lon="8.95426928303692"><ele>63.0</ele><time>2026-05-03T07:36:53Z</time></trkpt><trkpt lat="41.061358339569416" lon="8.954323779028948"><ele>67.5</ele><time>2026-05-03T07:36:54Z</time></trkpt><trkpt lat="41.06130554867823" lon="8.954379041264803"><ele>72.0</ele><time>2026-05-03T07:36:55Z</time></trkpt><trkpt lat="41.0612603216542" lon="8.954451848719714"><ele>76.5</ele><time>2026-05-03T07:36:56Z</time></trkpt><trkpt lat="41.06126863700351" lon="8.954551146749552"><ele>81.0</ele><time>2026-05-03T07:36:57Z</time></trkpt><trkpt lat="41.0612155753167" lon="8.954676531528916"><ele>85.5</ele><time>2026-05-03T07:36:59Z</time></trkpt><trkpt lat="41.06113009910693" lon="8.954702354920178"><ele>90.0</ele><time>2026-05-03T07:37:01Z</time></trkpt><trkpt lat="41.06105024206079" lon="8.954634905648641"><ele>90.0</ele><time>2026-05-03T07:37:03Z</time></trkpt><trkpt lat="41.060943788397914" lon="8.954565625024989"><ele>90.0</ele><time>2026-05-03T07:37:05Z</time></trkpt><trkpt lat="41.06088969427685" lon="8.9545190709188"><ele>90.0</ele><time>2026-05-03T07:37:06Z</time></trkpt><trkpt lat="41.060830354815096" lon="8.954409701835417"><ele>90.0</ele><time>2026-05-03T07:37:08Z</time></trkpt><trkpt lat="41.06079899884823" lon="8.954290832882533"><ele>90.0</ele><time>2026-05-03T07:37:10Z</time></trkpt><trkpt lat="41.06071988482499" lon="8.954190237166074"><ele>89.83333333333333</ele><time>2026-05-03T07:37:12Z</time></trkpt><trkpt lat="41.0606628767977" lon="8.954149400767559"><ele>89.66666666666667</ele><time>2026-05-03T07:37:13Z</time></trkpt><trkpt lat="41.06060543324431" lon="8.954112488205926"><ele>89.5</ele><time>2026-05-03T07:37:14Z</time></trkpt><trkpt lat="41.060540163909444" lon="8.954082018907997"><ele>89.33333333333334</ele><time>2026-05-03T07:37:15Z</time></trkpt><trkpt lat="41.06047676850096" lon="8.954062007707904"><ele>89.16666666666667</ele><time>2026-05-03T07:37:16Z</time></trkpt><trkpt lat="41.06036901381466" lon="8.954096282990886"><ele>89.0</ele><time>2026-05-03T07:37:18Z</time></trkpt><trkpt lat="41.06027840711639" lon="8.954139224551142"><ele>89.0</ele><time>2026-05-03T07:37:20Z</time></trkpt><trkpt lat="41.06017468742525" lon="8.954110408722586"><ele>89.0</ele><time>2026-05-03T07:37:22Z</time></trkpt><trkpt lat="41.060093523259354" lon="8.954082189450466"><ele>89.0</ele><time>2026-05-03T07:37:24Z</time></trkpt><trkpt lat="41.06010884391028" lon="8.95398864503238"><ele>89.0</ele><time>2026-05-03T07:37:25Z</time></trkpt><trkpt lat="41.060049841865435" lon="8.953876553139809"><ele>89.0</ele><time>2026-05-03T07:37:27Z</time></trkpt><trkpt lat="41.0599881801249" lon="8.95378842340607"><ele>89.2</ele><time>2026-05-03T07:37:29Z</time></trkpt><trkpt lat="41.05988978445846" lon="8.953825257140407"><ele>89.4</ele><time>2026-05-03T07:37:31Z</time></trkpt><trkpt lat="41.05988817337209" lon="8.953941500896908"><ele>89.6</ele><time>2026-05-03T07:37:32Z</time></trkpt><trkpt lat="41.059918905571095" lon="8.954020433362356"><ele>89.8</ele><time>2026-05-03T07:37:33Z</time></trkpt><trkpt lat="41.05994233755932" lon="8.954156603903975"><ele>90.0</ele><time>2026-05-03T07:37:35Z</time></trkpt><trkpt lat="41.05987220988565" lon="8.954281177771689"><ele>90.42857142857143</ele><time>2026-05-03T07:37:37Z</time></trkpt><trkpt lat="41.05983347753015" lon="8.954348168655256"><ele>90.85714285714286</ele><time>2026-05-03T07:37:38Z</time></trkpt><trkpt lat="41.05978982662029" lon="8.954421548346893"><ele>91.28571428571429</ele><time>2026-05-03T07:37:39Z</time></trkpt><trkpt lat="41.059747772487896" lon="8.9544903499829"><ele>91.71428571428572</ele><time>2026-05-03T07:37:40Z</time></trkpt><trkpt lat="41.059699967589275" lon="8.95457097946376"><ele>92.14285714285714</ele><time>2026-05-03T07:37:41Z</time></trkpt><trkpt lat="41.05965748340816" lon="8.95464635460955"><ele>92.57142857142858</ele><time>2026-05-03T07:37:42Z</time></trkpt><trkpt lat="41.059614385417476" lon="8.95472359685003"><ele>93.0</ele><time>2026-05-03T07:37:43Z</time></trkpt><trkpt lat="41.05957119698821" lon="8.95480404357118"><ele>93.00000000000001</ele><time>2026-05-03T07:37:44Z</time></trkpt><trkpt lat="41.05952238040645" lon="8.954883135565098"><ele>93.0</ele><time>2026-05-03T07:37:45Z</time></trkpt><trkpt lat="41.05946807752049" lon="8.954950869006082"><ele>93.0</ele><time>2026-05-03T07:37:46Z</time></trkpt><trkpt lat="41.05940832082517" lon="8.955006696244956"><ele>93.0</ele><time>2026-05-03T07:37:47Z</time></trkpt><trkpt lat="41.05935173942317" lon="8.955059769073223"><ele>93.0</ele><time>2026-05-03T07:37:48Z</time></trkpt><trkpt lat="41.059289172652534" lon="8.95511191751421"><ele>93.00000000000001</ele><time>2026-05-03T07:37:49Z</time></trkpt><trkpt lat="41.059227652068756" lon="8.955164915713755"><ele>93.0</ele><time>2026-05-03T07:37:50Z</time></trkpt><trkpt lat="41.0591663339168" lon="8.955223030394931"><ele>94.0</ele><time>2026-05-03T07:37:51Z</time></trkpt><trkpt lat="41.059104840806114" lon="8.955281957441676"><ele>95.0</ele><time>2026-05-03T07:37:52Z</time></trkpt><trkpt lat="41.059042968452225" lon="8.955345819929022"><ele>96.0</ele><time>2026-05-03T07:37:53Z</time></trkpt><trkpt lat="41.05898070125946" lon="8.955414362917919"><ele>97.0</ele><time>2026-05-03T07:37:54Z</time></trkpt><trkpt lat="41.05892016471401" lon="8.955486623008804"><ele>98.0</ele><time>2026-05-03T07:37:55Z</time></trkpt><trkpt lat="41.05886390626444" lon="8.95556554241854"><ele>99.0</ele><time>2026-05-03T07:37:56Z</time></trkpt><trkpt lat="41.05881187386762" lon="8.955643098007386"><ele>99.0</ele><time>2026-05-03T07:37:57Z</time></trkpt><trkpt lat="41.05877498317413" lon="8.955732484140723"><ele>99.0</ele><time>2026-05-03T07:37:58Z</time></trkpt><trkpt lat="41.05872694304167" lon="8.955804687030723"><ele>99.0</ele><time>2026-05-03T07:37:59Z</time></trkpt><trkpt lat="41.05867483152543" lon="8.955871233985055"><ele>99.0</ele><time>2026-05-03T07:38:00Z</time></trkpt><trkpt lat="41.058616514348934" lon="8.955929445650277"><ele>99.0</ele><time>2026-05-03T07:38:01Z</time></trkpt><trkpt lat="41.05856447410406" lon="8.956002491924234"><ele>99.0</ele><time>2026-05-03T07:38:02Z</time></trkpt><trkpt lat="41.05851770582427" lon="8.956071263249461"><ele>99.0</ele><time>2026-05-03T07:38:03Z</time></trkpt><trkpt lat="41.0584678403759" lon="8.956149635064742"><ele>100.33333333333333</ele><time>2026-05-03T07:38:04Z</time></trkpt><trkpt lat="41.05842793541522" lon="8.956224515152705"><ele>101.66666666666666</ele><time>2026-05-03T07:38:05Z</time></trkpt><trkpt lat="41.058394142871116" lon="8.956302940176839"><ele>103.0</ele><time>2026-05-03T07:38:06Z</time></trkpt><trkpt lat="41.058379921076444" lon="8.956384905642986"><ele>104.33333333333333</ele><time>2026-05-03T07:38:07Z</time></trkpt><trkpt lat="41.05833781145021" lon="8.956492051596525"><ele>105.66666666666666</ele><time>2026-05-03T07:38:09Z</time></trkpt><trkpt lat="41.05832301122679" lon="8.956579447482993"><ele>107.0</ele><time>2026-05-03T07:38:11Z</time></trkpt><trkpt lat="41.05842329220729" lon="8.95658799488267"><ele>107.0</ele><time>2026-05-03T07:38:14Z</time></trkpt><trkpt lat="41.05853811217453" lon="8.956529793136436"><ele>106.99999999999999</ele><time>2026-05-03T07:38:16Z</time></trkpt><trkpt lat="41.05861511980029" lon="8.956500354053558"><ele>106.99999999999999</ele><time>2026-05-03T07:38:17Z</time></trkpt><trkpt lat="41.05870894142019" lon="8.95647292129653"><ele>107.0</ele><time>2026-05-03T07:38:18Z</time></trkpt><trkpt lat="41.05880761722779" lon="8.956447505286114"><ele>107.0</ele><time>2026-05-03T07:38:19Z</time></trkpt><trkpt lat="41.05890904700275" lon="8.956418971484377"><ele>107.0</ele><time>2026-05-03T07:38:20Z</time></trkpt><trkpt lat="41.05900926060446" lon="8.95638766699131"><ele>106.99999999999999</ele><time>2026-05-03T07:38:21Z</time></trkpt><trkpt lat="41.05911087795358" lon="8.956357211996554"><ele>106.99999999999999</ele><time>2026-05-03T07:38:22Z</time></trkpt><trkpt lat="41.05921077158386" lon="8.956328396763123"><ele>107.0</ele><time>2026-05-03T07:38:23Z</time></trkpt><trkpt lat="41.05930721850408" lon="8.956300187936684"><ele>107.0</ele><time>2026-05-03T07:38:24Z</time></trkpt><trkpt lat="41.05939051457363" lon="8.95626784786319"><ele>105.99999999999999</ele><time>2026-05-03T07:38:25Z</time></trkpt><trkpt lat="41.05946226625045" lon="8.956207739411543"><ele>105.0</ele><time>2026-05-03T07:38:26Z</time></trkpt><trkpt lat="41.05951792182193" lon="8.956121360737308"><ele>104.0</ele><time>2026-05-03T07:38:27Z</time></trkpt><trkpt lat="41.05955906899923" lon="8.956025138638395"><ele>103.0</ele><time>2026-05-03T07:38:28Z</time></trkpt><trkpt lat="41.059591233234755" lon="8.955943867207088"><ele>101.99999999999999</ele><time>2026-05-03T07:38:29Z</time></trkpt><trkpt lat="41.059665035042556" lon="8.955845790707276"><ele>101.0</ele><time>2026-05-03T07:38:31Z</time></trkpt><trkpt lat="41.05975701860468" lon="8.955888854275761"><ele>103.16666666666666</ele><time>2026-05-03T07:38:33Z</time></trkpt><trkpt lat="41.05978774410829" lon="8.955963092211073"><ele>105.33333333333333</ele><time>2026-05-03T07:38:34Z</time></trkpt><trkpt lat="41.05978719776262" lon="8.95605232123428"><ele>107.5</ele><time>2026-05-03T07:38:35Z</time></trkpt><trkpt lat="41.05971855023857" lon="8.956124325721866"><ele>109.66666666666666</ele><time>2026-05-03T07:38:36Z</time></trkpt><trkpt lat="41.059673598934715" lon="8.95621292666974"><ele>111.83333333333333</ele><time>2026-05-03T07:38:37Z</time></trkpt><trkpt lat="41.059626595153176" lon="8.95631745244372"><ele>114.0</ele><time>2026-05-03T07:38:38Z</time></trkpt><trkpt lat="41.05957365211596" lon="8.95642924783784"><ele>114.0</ele><time>2026-05-03T07:38:39Z</time></trkpt><trkpt lat="41.059519550215626" lon="8.956543305963935"><ele>114.0</ele><time>2026-05-03T07:38:40Z</time></trkpt><trkpt lat="41.059463724861324" lon="8.956661284399052"><ele>114.0</ele><time>2026-05-03T07:38:41Z</time></trkpt><trkpt lat="41.059405197567344" lon="8.956784972938916"><ele>114.0</ele><time>2026-05-03T07:38:42Z</time></trkpt><trkpt lat="41.059346868325" lon="8.956908242900262"><ele>114.0</ele><time>2026-05-03T07:38:43Z</time></trkpt><trkpt lat="41.05928827574945" lon="8.957031503721087"><ele>115.4</ele><time>2026-05-03T07:38:44Z</time></trkpt><trkpt lat="41.05922906605055" lon="8.957153806683312"><ele>116.80000000000001</ele><time>2026-05-03T07:38:45Z</time></trkpt><trkpt lat="41.05917065651535" lon="8.957272919823051"><ele>118.19999999999999</ele><time>2026-05-03T07:38:46Z</time></trkpt><trkpt lat="41.059112325733416" lon="8.95739110522184"><ele>119.6</ele><time>2026-05-03T07:38:47Z</time></trkpt><trkpt lat="41.05905486122228" lon="8.957508008740726"><ele>121.0</ele><time>2026-05-03T07:38:48Z</time></trkpt><trkpt lat="41.05899762736791" lon="8.957624443050802"><ele>123.19999999999999</ele><time>2026-05-03T07:38:49Z</time></trkpt><trkpt lat="41.05894281145356" lon="8.957739680143288"><ele>125.39999999999999</ele><time>2026-05-03T07:38:50Z</time></trkpt><trkpt lat="41.05888790073777" lon="8.957855936261206"><ele>127.6</ele><time>2026-05-03T07:38:51Z</time></trkpt><trkpt lat="41.05882938930083" lon="8.95796715183507"><ele>129.79999999999998</ele><time>2026-05-03T07:38:52Z</time></trkpt><trkpt lat="41.058764954542866" lon="8.958071932983911"><ele>132.0</ele><time>2026-05-03T07:38:53Z</time></trkpt><trkpt lat="41.05869626809301" lon="8.958167695066361"><ele>132.0</ele><time>2026-05-03T07:38:54Z</time></trkpt><trkpt lat="41.05863207215939" lon="8.958250282157982"><ele>132.0</ele><time>2026-05-03T07:38:55Z</time></trkpt><trkpt lat="41.05858125347164" lon="8.958313665121544"><ele>132.0</ele><time>2026-05-03T07:38:56Z</time></trkpt><trkpt lat="41.05850290166594" lon="8.958407832477132"><ele>132.0</ele><time>2026-05-03T07:38:58Z</time></trkpt><trkpt lat="41.05854676327152" lon="8.958548269050858"><ele>132.0</ele><time>2026-05-03T07:38:59Z</time></trkpt><trkpt lat="41.05855949629772" lon="8.958646742077617"><ele>133.83333333333334</ele><time>2026-05-03T07:39:00Z</time></trkpt><trkpt lat="41.05854563684163" lon="8.958755866903743"><ele>135.66666666666666</ele><time>2026-05-03T07:39:01Z</time></trkpt><trkpt lat="41.05855200422663" lon="8.958871156134778"><ele>137.5</ele><time>2026-05-03T07:39:02Z</time></trkpt><trkpt lat="41.05857008839868" lon="8.958981184160772"><ele>139.33333333333331</ele><time>2026-05-03T07:39:03Z</time></trkpt><trkpt lat="41.058625452214756" lon="8.959077090195098"><ele>141.16666666666666</ele><time>2026-05-03T07:39:04Z</time></trkpt><trkpt lat="41.058686972084246" lon="8.95916656548918"><ele>143.0</ele><time>2026-05-03T07:39:05Z</time></trkpt><trkpt lat="41.05875391568038" lon="8.959248992943081"><ele>144.8</ele><time>2026-05-03T07:39:06Z</time></trkpt><trkpt lat="41.05882630319654" lon="8.959329714197768"><ele>146.60000000000002</ele><time>2026-05-03T07:39:07Z</time></trkpt><trkpt lat="41.05889793629655" lon="8.95941389201944"><ele>148.39999999999998</ele><time>2026-05-03T07:39:08Z</time></trkpt><trkpt lat="41.058963999727936" lon="8.95950283254174"><ele>150.2</ele><time>2026-05-03T07:39:09Z</time></trkpt><trkpt lat="41.05903188373796" lon="8.959583404047443"><ele>152.0</ele><time>2026-05-03T07:39:10Z</time></trkpt><trkpt lat="41.05907009689831" lon="8.959688733645711"><ele>152.0</ele><time>2026-05-03T07:39:11Z</time></trkpt><trkpt lat="41.059108195571994" lon="8.95978809252448"><ele>152.0</ele><time>2026-05-03T07:39:12Z</time></trkpt><trkpt lat="41.05913923277268" lon="8.959895021535843"><ele>152.0</ele><time>2026-05-03T07:39:13Z</time></trkpt><trkpt lat="41.059162540488565" lon="8.960014340299455"><ele>152.0</ele><time>2026-05-03T07:39:14Z</time></trkpt><trkpt lat="41.05920033379973" lon="8.960134706341977"><ele>152.0</ele><time>2026-05-03T07:39:15Z</time></trkpt><trkpt lat="41.059217700575374" lon="8.960265260877101"><ele>151.4</ele><time>2026-05-03T07:39:16Z</time></trkpt><trkpt lat="41.05924418103076" lon="8.960394249432909"><ele>150.79999999999998</ele><time>2026-05-03T07:39:17Z</time></trkpt><trkpt lat="41.05926867113336" lon="8.960521000021373"><ele>150.2</ele><time>2026-05-03T07:39:18Z</time></trkpt><trkpt lat="41.05930921754767" lon="8.960639979030603"><ele>149.6</ele><time>2026-05-03T07:39:19Z</time></trkpt><trkpt lat="41.05935775470481" lon="8.960751594292452"><ele>149.0</ele><time>2026-05-03T07:39:20Z</time></trkpt><trkpt lat="41.059410742853274" lon="8.960862484763414"><ele>151.2</ele><time>2026-05-03T07:39:21Z</time></trkpt><trkpt lat="41.05946235906775" lon="8.960974649428076"><ele>153.4</ele><time>2026-05-03T07:39:22Z</time></trkpt><trkpt lat="41.059516088120105" lon="8.961088161960477"><ele>155.6</ele><time>2026-05-03T07:39:23Z</time></trkpt><trkpt lat="41.0595682690611" lon="8.961200529997305"><ele>157.8</ele><time>2026-05-03T07:39:24Z</time></trkpt><trkpt lat="41.059620415468544" lon="8.961312401370051"><ele>160.0</ele><time>2026-05-03T07:39:25Z</time></trkpt><trkpt lat="41.05967419031204" lon="8.96141475315429"><ele>160.0</ele><time>2026-05-03T07:39:26Z</time></trkpt><trkpt lat="41.05973463873576" lon="8.96150488386853"><ele>160.0</ele><time>2026-05-03T07:39:27Z</time></trkpt><trkpt lat="41.05980858107901" lon="8.961578580413018"><ele>160.0</ele><time>2026-05-03T07:39:28Z</time></trkpt><trkpt lat="41.05989223765026" lon="8.96163927039229"><ele>160.0</ele><time>2026-05-03T07:39:29Z</time></trkpt><trkpt lat="41.05998859478985" lon="8.961695417337035"><ele>160.0</ele><time>2026-05-03T07:39:30Z</time></trkpt><trkpt lat="41.06008227599141" lon="8.961751333742054"><ele>159.0</ele><time>2026-05-03T07:39:31Z</time></trkpt><trkpt lat="41.06018812601765" lon="8.961815634051902"><ele>158.0</ele><time>2026-05-03T07:39:32Z</time></trkpt><trkpt lat="41.06029246105989" lon="8.961893970432222"><ele>157.0</ele><time>2026-05-03T07:39:33Z</time></trkpt><trkpt lat="41.06040415584072" lon="8.96196225392501"><ele>156.0</ele><time>2026-05-03T07:39:34Z</time></trkpt><trkpt lat="41.06050290835774" lon="8.962035639148029"><ele>156.0</ele><time>2026-05-03T07:39:35Z</time></trkpt><trkpt lat="41.06058744457598" lon="8.962096683069252"><ele>156.0</ele><time>2026-05-03T07:39:36Z</time></trkpt><trkpt lat="41.06065899458514" lon="8.96213979113822"><ele>156.0</ele><time>2026-05-03T07:39:37Z</time></trkpt><trkpt lat="41.06073231879334" lon="8.962176539091343"><ele>156.0</ele><time>2026-05-03T07:39:38Z</time></trkpt><trkpt lat="41.06081650281217" lon="8.962172526070498"><ele>156.0</ele><time>2026-05-03T07:39:39Z</time></trkpt><trkpt lat="41.06090418482894" lon="8.962173734412177"><ele>156.0</ele><time>2026-05-03T07:39:40Z</time></trkpt><trkpt lat="41.0609876152282" lon="8.962167478945346"><ele>156.5</ele><time>2026-05-03T07:39:41Z</time></trkpt><trkpt lat="41.061075230427505" lon="8.96214590105745"><ele>157.0</ele><time>2026-05-03T07:39:42Z</time></trkpt><trkpt lat="41.06115818255512" lon="8.962144727760554"><ele>157.5</ele><time>2026-05-03T07:39:43Z</time></trkpt><trkpt lat="41.06124104877229" lon="8.962136304929462"><ele>158.0</ele><time>2026-05-03T07:39:44Z</time></trkpt><trkpt lat="41.06132916772336" lon="8.96212283873786"><ele>158.5</ele><time>2026-05-03T07:39:45Z</time></trkpt><trkpt lat="41.06141314289168" lon="8.96210666656783"><ele>159.0</ele><time>2026-05-03T07:39:46Z</time></trkpt><trkpt lat="41.06149615185272" lon="8.96208783025897"><ele>159.0</ele><time>2026-05-03T07:39:47Z</time></trkpt><trkpt lat="41.061576501355255" lon="8.962053821207759"><ele>159.0</ele><time>2026-05-03T07:39:48Z</time></trkpt><trkpt lat="41.06165107690051" lon="8.962004482781797"><ele>159.0</ele><time>2026-05-03T07:39:49Z</time></trkpt><trkpt lat="41.06172164297289" lon="8.961928541278509"><ele>159.0</ele><time>2026-05-03T07:39:50Z</time></trkpt><trkpt lat="41.06178597774259" lon="8.961833948863434"><ele>159.0</ele><time>2026-05-03T07:39:51Z</time></trkpt><trkpt lat="41.06184512827349" lon="8.961725061174876"><ele>161.2</ele><time>2026-05-03T07:39:52Z</time></trkpt><trkpt lat="41.06190448007967" lon="8.961611856078838"><ele>163.4</ele><time>2026-05-03T07:39:53Z</time></trkpt><trkpt lat="41.06196661041724" lon="8.961501122141392"><ele>165.6</ele><time>2026-05-03T07:39:54Z</time></trkpt><trkpt lat="41.06202770865212" lon="8.961390112617531"><ele>167.8</ele><time>2026-05-03T07:39:55Z</time></trkpt><trkpt lat="41.06208836872536" lon="8.961278540440318"><ele>170.0</ele><time>2026-05-03T07:39:56Z</time></trkpt><trkpt lat="41.06214662706919" lon="8.961172643154608"><ele>170.0</ele><time>2026-05-03T07:39:57Z</time></trkpt><trkpt lat="41.06220451162126" lon="8.961079641118218"><ele>170.0</ele><time>2026-05-03T07:39:58Z</time></trkpt><trkpt lat="41.06226800950293" lon="8.96099466095713"><ele>170.0</ele><time>2026-05-03T07:39:59Z</time></trkpt><trkpt lat="41.062337992301956" lon="8.96092227656346"><ele>170.0</ele><time>2026-05-03T07:40:00Z</time></trkpt><trkpt lat="41.06241552008615" lon="8.96086502867942"><ele>170.0</ele><time>2026-05-03T07:40:01Z</time></trkpt><trkpt lat="41.06249072931429" lon="8.960817865854082"><ele>170.0</ele><time>2026-05-03T07:40:02Z</time></trkpt><trkpt lat="41.06256318872356" lon="8.960775391705006"><ele>172.4</ele><time>2026-05-03T07:40:03Z</time></trkpt><trkpt lat="41.06262439270888" lon="8.960740623832322"><ele>174.8</ele><time>2026-05-03T07:40:04Z</time></trkpt><trkpt lat="41.062713160822305" lon="8.96067839798335"><ele>177.2</ele><time>2026-05-03T07:40:06Z</time></trkpt><trkpt lat="41.06281669939944" lon="8.960622761868809"><ele>179.6</ele><time>2026-05-03T07:40:08Z</time></trkpt><trkpt lat="41.06291471220958" lon="8.960566216584356"><ele>182.0</ele><time>2026-05-03T07:40:10Z</time></trkpt><trkpt lat="41.063017792875456" lon="8.96050481228011"><ele>182.0</ele><time>2026-05-03T07:40:12Z</time></trkpt><trkpt lat="41.06311446647634" lon="8.960489841933285"><ele>182.0</ele><time>2026-05-03T07:40:14Z</time></trkpt><trkpt lat="41.06313127810962" lon="8.960672954988077"><ele>182.0</ele><time>2026-05-03T07:40:16Z</time></trkpt><trkpt lat="41.06312644209065" lon="8.96078175972324"><ele>182.0</ele><time>2026-05-03T07:40:17Z</time></trkpt><trkpt lat="41.063128833386486" lon="8.960912325794636"><ele>182.0</ele><time>2026-05-03T07:40:18Z</time></trkpt><trkpt lat="41.063127367119385" lon="8.961033305671545"><ele>182.83333333333331</ele><time>2026-05-03T07:40:19Z</time></trkpt><trkpt lat="41.06310477627788" lon="8.961134324370333"><ele>183.66666666666666</ele><time>2026-05-03T07:40:20Z</time></trkpt><trkpt lat="41.06303599594462" lon="8.961177382301443"><ele>184.5</ele><time>2026-05-03T07:40:21Z</time></trkpt><trkpt lat="41.062966335278844" lon="8.96123381547241"><ele>185.33333333333334</ele><time>2026-05-03T07:40:22Z</time></trkpt><trkpt lat="41.06290371276095" lon="8.961294185769917"><ele>186.16666666666669</ele><time>2026-05-03T07:40:23Z</time></trkpt><trkpt lat="41.06286073585223" lon="8.961363821016404"><ele>187.0</ele><time>2026-05-03T07:40:24Z</time></trkpt><trkpt lat="41.06287786908032" lon="8.961475553417705"><ele>187.0</ele><time>2026-05-03T07:40:25Z</time></trkpt><trkpt lat="41.062945742479265" lon="8.961568254955363"><ele>187.0</ele><time>2026-05-03T07:40:26Z</time></trkpt><trkpt lat="41.06300847623013" lon="8.96166494051562"><ele>187.0</ele><time>2026-05-03T07:40:27Z</time></trkpt><trkpt lat="41.06302668448725" lon="8.961795717850805"><ele>187.0</ele><time>2026-05-03T07:40:28Z</time></trkpt><trkpt lat="41.06304580096324" lon="8.961934556106792"><ele>187.0</ele><time>2026-05-03T07:40:29Z</time></trkpt><trkpt lat="41.06305592558587" lon="8.962059293650622"><ele>187.33333333333334</ele><time>2026-05-03T07:40:30Z</time></trkpt><trkpt lat="41.06305921153481" lon="8.962167626877745"><ele>187.66666666666669</ele><time>2026-05-03T07:40:31Z</time></trkpt><trkpt lat="41.063054095850546" lon="8.96227752177019"><ele>188.0</ele><time>2026-05-03T07:40:32Z</time></trkpt><trkpt lat="41.06305254213684" lon="8.962382837836065"><ele>188.33333333333334</ele><time>2026-05-03T07:40:33Z</time></trkpt><trkpt lat="41.063059287884236" lon="8.962486031204598"><ele>188.66666666666666</ele><time>2026-05-03T07:40:34Z</time></trkpt><trkpt lat="41.06310113692644" lon="8.962581740517418"><ele>189.0</ele><time>2026-05-03T07:40:35Z</time></trkpt><trkpt lat="41.06313433625035" lon="8.96267825633331"><ele>189.33333333333334</ele><time>2026-05-03T07:40:36Z</time></trkpt><trkpt lat="41.06316695428219" lon="8.962780806137363"><ele>189.66666666666666</ele><time>2026-05-03T07:40:37Z</time></trkpt><trkpt lat="41.063182082153524" lon="8.962892366163144"><ele>190.0</ele><time>2026-05-03T07:40:38Z</time></trkpt><trkpt lat="41.063219876400765" lon="8.962991434944806"><ele>190.33333333333331</ele><time>2026-05-03T07:40:39Z</time></trkpt><trkpt lat="41.063251394639444" lon="8.963095816661376"><ele>190.66666666666666</ele><time>2026-05-03T07:40:40Z</time></trkpt><trkpt lat="41.06327707029181" lon="8.9632055272757"><ele>191.0</ele><time>2026-05-03T07:40:41Z</time></trkpt><trkpt lat="41.06330011578413" lon="8.963322841856183"><ele>192.8</ele><time>2026-05-03T07:40:42Z</time></trkpt><trkpt lat="41.0632935358903" lon="8.963453257211668"><ele>194.60000000000002</ele><time>2026-05-03T07:40:43Z</time></trkpt><trkpt lat="41.063295242137315" lon="8.96358274708267"><ele>196.4</ele><time>2026-05-03T07:40:44Z</time></trkpt><trkpt lat="41.06328654722222" lon="8.963709951462016"><ele>198.2</ele><time>2026-05-03T07:40:45Z</time></trkpt><trkpt lat="41.06329042330644" lon="8.963844807136754"><ele>200.0</ele><time>2026-05-03T07:40:46Z</time></trkpt><trkpt lat="41.06327679414487" lon="8.963970211880742"><ele>200.0</ele><time>2026-05-03T07:40:47Z</time></trkpt><trkpt lat="41.063252556106505" lon="8.964087550717652"><ele>200.0</ele><time>2026-05-03T07:40:48Z</time></trkpt><trkpt lat="41.063256166895734" lon="8.964208164672792"><ele>200.0</ele><time>2026-05-03T07:40:49Z</time></trkpt><trkpt lat="41.063270183517055" lon="8.964326485954844"><ele>200.0</ele><time>2026-05-03T07:40:50Z</time></trkpt><trkpt lat="41.063289540180854" lon="8.964443568243082"><ele>200.0</ele><time>2026-05-03T07:40:51Z</time></trkpt><trkpt lat="41.06331505486872" lon="8.964563173603603"><ele>202.00000000000003</ele><time>2026-05-03T07:40:52Z</time></trkpt><trkpt lat="41.06334396436463" lon="8.9646746571028"><ele>204.0</ele><time>2026-05-03T07:40:53Z</time></trkpt><trkpt lat="41.063372533733094" lon="8.96478809372869"><ele>206.0</ele><time>2026-05-03T07:40:54Z</time></trkpt><trkpt lat="41.063348058926756" lon="8.964904448332847"><ele>208.0</ele><time>2026-05-03T07:40:55Z</time></trkpt><trkpt lat="41.06334749047248" lon="8.965018981667138"><ele>210.00000000000003</ele><time>2026-05-03T07:40:56Z</time></trkpt><trkpt lat="41.063326570108806" lon="8.96512853431464"><ele>212.0</ele><time>2026-05-03T07:40:57Z</time></trkpt><trkpt lat="41.063309152333346" lon="8.965230943687567"><ele>213.0</ele><time>2026-05-03T07:40:58Z</time></trkpt><trkpt lat="41.06329397403887" lon="8.9653139676884"><ele>214.0</ele><time>2026-05-03T07:40:59Z</time></trkpt><trkpt lat="41.063279025330075" lon="8.965396111720214"><ele>215.0</ele><time>2026-05-03T07:41:00Z</time></trkpt><trkpt lat="41.063263709693395" lon="8.965477381090903"><ele>216.0</ele><time>2026-05-03T07:41:01Z</time></trkpt><trkpt lat="41.063250345249095" lon="8.965562029124527"><ele>217.0</ele><time>2026-05-03T07:41:02Z</time></trkpt><trkpt lat="41.063214292734955" lon="8.965638811695635"><ele>218.0</ele><time>2026-05-03T07:41:03Z</time></trkpt><trkpt lat="41.063189243089" lon="8.965715585701012"><ele>219.0</ele><time>2026-05-03T07:41:04Z</time></trkpt><trkpt lat="41.06315227935171" lon="8.965797535991358"><ele>219.83333333333334</ele><time>2026-05-03T07:41:05Z</time></trkpt><trkpt lat="41.06307301779152" lon="8.965923271549228"><ele>220.66666666666669</ele><time>2026-05-03T07:41:07Z</time></trkpt><trkpt lat="41.06303077308431" lon="8.965986406184037"><ele>221.5</ele><time>2026-05-03T07:41:08Z</time></trkpt><trkpt lat="41.0629880555756" lon="8.966050865903954"><ele>222.33333333333334</ele><time>2026-05-03T07:41:09Z</time></trkpt><trkpt lat="41.062945640202834" lon="8.96611975547011"><ele>223.16666666666669</ele><time>2026-05-03T07:41:10Z</time></trkpt><trkpt lat="41.06290213654659" lon="8.966190576326188"><ele>224.0</ele><time>2026-05-03T07:41:11Z</time></trkpt><trkpt lat="41.06285627749827" lon="8.966265231586119"><ele>224.0</ele><time>2026-05-03T07:41:12Z</time></trkpt><trkpt lat="41.06282232063107" lon="8.966354382768422"><ele>224.0</ele><time>2026-05-03T07:41:13Z</time></trkpt><trkpt lat="41.06277589664886" lon="8.966426803918367"><ele>224.0</ele><time>2026-05-03T07:41:14Z</time></trkpt><trkpt lat="41.062733464977825" lon="8.966494809057007"><ele>224.0</ele><time>2026-05-03T07:41:15Z</time></trkpt><trkpt lat="41.062677704745695" lon="8.966541880744321"><ele>224.0</ele><time>2026-05-03T07:41:16Z</time></trkpt><trkpt lat="41.06263341117665" lon="8.966602379014265"><ele>224.0</ele><time>2026-05-03T07:41:17Z</time></trkpt><trkpt lat="41.06258588507107" lon="8.966659452110799"><ele>224.0</ele><time>2026-05-03T07:41:18Z</time></trkpt><trkpt lat="41.06252535711554" lon="8.966750755805732"><ele>225.39999999999998</ele><time>2026-05-03T07:41:20Z</time></trkpt><trkpt lat="41.06244029605708" lon="8.966791239642715"><ele>226.79999999999998</ele><time>2026-05-03T07:41:22Z</time></trkpt><trkpt lat="41.062340626013" lon="8.966861098147145"><ele>228.20000000000002</ele><time>2026-05-03T07:41:24Z</time></trkpt><trkpt lat="41.062225474501076" lon="8.966941872645213"><ele>229.60000000000002</ele><time>2026-05-03T07:41:26Z</time></trkpt><trkpt lat="41.06215064567197" lon="8.966996966229623"><ele>231.0</ele><time>2026-05-03T07:41:27Z</time></trkpt><trkpt lat="41.062088872472245" lon="8.96703715957465"><ele>231.0</ele><time>2026-05-03T07:41:28Z</time></trkpt><trkpt lat="41.061976926034546" lon="8.967087084372585"><ele>231.0</ele><time>2026-05-03T07:41:30Z</time></trkpt><trkpt lat="41.061854449636684" lon="8.967117249827723"><ele>231.0</ele><time>2026-05-03T07:41:32Z</time></trkpt><trkpt lat="41.06179296704439" lon="8.967087393469487"><ele>231.0</ele><time>2026-05-03T07:41:33Z</time></trkpt><trkpt lat="41.06173079920494" lon="8.967059347138683"><ele>231.0</ele><time>2026-05-03T07:41:34Z</time></trkpt><trkpt lat="41.06166624394658" lon="8.96704020829507"><ele>231.0</ele><time>2026-05-03T07:41:35Z</time></trkpt><trkpt lat="41.061612448680236" lon="8.966992335034147"><ele>232.0</ele><time>2026-05-03T07:41:36Z</time></trkpt><trkpt lat="41.061494129507004" lon="8.96693850898418"><ele>233.00000000000003</ele><time>2026-05-03T07:41:38Z</time></trkpt><trkpt lat="41.06137390388057" lon="8.96691165707203"><ele>234.00000000000003</ele><time>2026-05-03T07:41:40Z</time></trkpt><trkpt lat="41.0613135896194" lon="8.966877755668019"><ele>235.0</ele><time>2026-05-03T07:41:41Z</time></trkpt><trkpt lat="41.06118043790518" lon="8.96685255421021"><ele>236.0</ele><time>2026-05-03T07:41:43Z</time></trkpt><trkpt lat="41.06110427032943" lon="8.966883993549853"><ele>236.00000000000003</ele><time>2026-05-03T07:41:45Z</time></trkpt><trkpt lat="41.061003688642764" lon="8.96696916182363"><ele>236.0</ele><time>2026-05-03T07:41:47Z</time></trkpt><trkpt lat="41.06095586910586" lon="8.967032141231995"><ele>236.0</ele><time>2026-05-03T07:41:48Z</time></trkpt><trkpt lat="41.0609078337246" lon="8.967098132695643"><ele>236.0</ele><time>2026-05-03T07:41:49Z</time></trkpt><trkpt lat="41.06085502296476" lon="8.967167262441928"><ele>236.00000000000003</ele><time>2026-05-03T07:41:50Z</time></trkpt><trkpt lat="41.06080321928475" lon="8.967257600269967"><ele>236.0</ele><time>2026-05-03T07:41:51Z</time></trkpt><trkpt lat="41.06072484424589" lon="8.967336865101268"><ele>235.66666666666669</ele><time>2026-05-03T07:41:52Z</time></trkpt><trkpt lat="41.06066813855358" lon="8.967410413092836"><ele>235.33333333333334</ele><time>2026-05-03T07:41:53Z</time></trkpt><trkpt lat="41.0606113616166" lon="8.96748165412192"><ele>235.0</ele><time>2026-05-03T07:41:54Z</time></trkpt><trkpt lat="41.060556389992435" lon="8.96755062992123"><ele>234.66666666666669</ele><time>2026-05-03T07:41:55Z</time></trkpt><trkpt lat="41.06050530742449" lon="8.967612065196427"><ele>234.33333333333334</ele><time>2026-05-03T07:41:56Z</time></trkpt><trkpt lat="41.060448652740924" lon="8.967677197278386"><ele>234.0</ele><time>2026-05-03T07:41:57Z</time></trkpt><trkpt lat="41.06038582577476" lon="8.967743973021381"><ele>233.5</ele><time>2026-05-03T07:41:58Z</time></trkpt><trkpt lat="41.06031469444448" lon="8.967793851730805"><ele>233.0</ele><time>2026-05-03T07:41:59Z</time></trkpt><trkpt lat="41.060237742072914" lon="8.967825807190719"><ele>232.5</ele><time>2026-05-03T07:42:00Z</time></trkpt><trkpt lat="41.060160455810745" lon="8.967827118977986"><ele>232.0</ele><time>2026-05-03T07:42:01Z</time></trkpt><trkpt lat="41.060078011169225" lon="8.967825346103792"><ele>231.5</ele><time>2026-05-03T07:42:02Z</time></trkpt><trkpt lat="41.06000270239061" lon="8.96780385608825"><ele>231.0</ele><time>2026-05-03T07:42:03Z</time></trkpt><trkpt lat="41.0599194398587" lon="8.967782871358336"><ele>230.33333333333334</ele><time>2026-05-03T07:42:04Z</time></trkpt><trkpt lat="41.059848291604396" lon="8.967764746407376"><ele>229.66666666666669</ele><time>2026-05-03T07:42:05Z</time></trkpt><trkpt lat="41.05971993098951" lon="8.967730794270297"><ele>229.0</ele><time>2026-05-03T07:42:07Z</time></trkpt><trkpt lat="41.059645348888736" lon="8.967728775385098"><ele>228.33333333333334</ele><time>2026-05-03T07:42:08Z</time></trkpt><trkpt lat="41.05956832819986" lon="8.967707911562517"><ele>227.66666666666669</ele><time>2026-05-03T07:42:09Z</time></trkpt><trkpt lat="41.05948708818846" lon="8.967684179521743"><ele>227.0</ele><time>2026-05-03T07:42:10Z</time></trkpt><trkpt lat="41.059404683803095" lon="8.967660287544971"><ele>227.00000000000003</ele><time>2026-05-03T07:42:11Z</time></trkpt><trkpt lat="41.05931606217907" lon="8.967637336176317"><ele>227.0</ele><time>2026-05-03T07:42:12Z</time></trkpt><trkpt lat="41.05922773421949" lon="8.967611086761563"><ele>227.0</ele><time>2026-05-03T07:42:13Z</time></trkpt><trkpt lat="41.05914614109424" lon="8.967590081527572"><ele>227.0</ele><time>2026-05-03T07:42:14Z</time></trkpt><trkpt lat="41.05906486193835" lon="8.96756637887254"><ele>227.00000000000003</ele><time>2026-05-03T07:42:15Z</time></trkpt><trkpt lat="41.05897971818971" lon="8.967543231980118"><ele>227.0</ele><time>2026-05-03T07:42:16Z</time></trkpt><trkpt lat="41.05889511554164" lon="8.967523355581092"><ele>227.33333333333334</ele><time>2026-05-03T07:42:17Z</time></trkpt><trkpt lat="41.058810508776" lon="8.967502772588283"><ele>227.66666666666669</ele><time>2026-05-03T07:42:18Z</time></trkpt><trkpt lat="41.05872459058354" lon="8.967481727679303"><ele>228.0</ele><time>2026-05-03T07:42:19Z</time></trkpt><trkpt lat="41.05863842762943" lon="8.967459846566381"><ele>228.33333333333331</ele><time>2026-05-03T07:42:20Z</time></trkpt><trkpt lat="41.0585611022464" lon="8.967428317242689"><ele>228.66666666666666</ele><time>2026-05-03T07:42:21Z</time></trkpt><trkpt lat="41.0584709267973" lon="8.967414069120359"><ele>229.0</ele><time>2026-05-03T07:42:22Z</time></trkpt><trkpt lat="41.058390795983094" lon="8.967388949084688"><ele>228.99999999999997</ele><time>2026-05-03T07:42:23Z</time></trkpt><trkpt lat="41.05830854637578" lon="8.967369056339757"><ele>229.0</ele><time>2026-05-03T07:42:24Z</time></trkpt><trkpt lat="41.05822697539767" lon="8.967343876799426"><ele>229.0</ele><time>2026-05-03T07:42:25Z</time></trkpt><trkpt lat="41.05814754528638" lon="8.967297433146506"><ele>229.0</ele><time>2026-05-03T07:42:26Z</time></trkpt><trkpt lat="41.0580522913343" lon="8.967291201473948"><ele>228.99999999999997</ele><time>2026-05-03T07:42:27Z</time></trkpt><trkpt lat="41.05796790649376" lon="8.967246736827828"><ele>229.0</ele><time>2026-05-03T07:42:28Z</time></trkpt><trkpt lat="41.0578762561889" lon="8.967220853755673"><ele>229.2</ele><time>2026-05-03T07:42:29Z</time></trkpt><trkpt lat="41.05777594499474" lon="8.96721286482271"><ele>229.39999999999998</ele><time>2026-05-03T07:42:30Z</time></trkpt><trkpt lat="41.057685874788824" lon="8.967186407611242"><ele>229.6</ele><time>2026-05-03T07:42:31Z</time></trkpt><trkpt lat="41.05758949399828" lon="8.967155384591198"><ele>229.8</ele><time>2026-05-03T07:42:32Z</time></trkpt><trkpt lat="41.057496352432416" lon="8.967134291601651"><ele>230.0</ele><time>2026-05-03T07:42:33Z</time></trkpt><trkpt lat="41.05741132602716" lon="8.96711942690283"><ele>229.16666666666669</ele><time>2026-05-03T07:42:34Z</time></trkpt><trkpt lat="41.05732676814838" lon="8.967102619920055"><ele>228.33333333333334</ele><time>2026-05-03T07:42:35Z</time></trkpt><trkpt lat="41.057246226244466" lon="8.96711804503633"><ele>227.5</ele><time>2026-05-03T07:42:36Z</time></trkpt><trkpt lat="41.057164099556935" lon="8.96715613822834"><ele>226.66666666666669</ele><time>2026-05-03T07:42:37Z</time></trkpt><trkpt lat="41.05708212491376" lon="8.967211221845558"><ele>225.83333333333334</ele><time>2026-05-03T07:42:38Z</time></trkpt><trkpt lat="41.05700060046404" lon="8.967272293683097"><ele>225.0</ele><time>2026-05-03T07:42:39Z</time></trkpt><trkpt lat="41.05691041278768" lon="8.967344565864517"><ele>225.0</ele><time>2026-05-03T07:42:40Z</time></trkpt><trkpt lat="41.05682702741909" lon="8.967414515238751"><ele>225.0</ele><time>2026-05-03T07:42:41Z</time></trkpt><trkpt lat="41.05673966021095" lon="8.967487804852356"><ele>225.0</ele><time>2026-05-03T07:42:42Z</time></trkpt><trkpt lat="41.05665804663345" lon="8.967556267938257"><ele>225.0</ele><time>2026-05-03T07:42:43Z</time></trkpt><trkpt lat="41.05658076309315" lon="8.967621098665235"><ele>225.0</ele><time>2026-05-03T07:42:44Z</time></trkpt><trkpt lat="41.056503860151984" lon="8.967685496110645"><ele>224.6</ele><time>2026-05-03T07:42:45Z</time></trkpt><trkpt lat="41.056422912984964" lon="8.967753281107186"><ele>224.2</ele><time>2026-05-03T07:42:46Z</time></trkpt><trkpt lat="41.056344253470236" lon="8.967819150553304"><ele>223.8</ele><time>2026-05-03T07:42:47Z</time></trkpt><trkpt lat="41.05626324408464" lon="8.967886987673173"><ele>223.4</ele><time>2026-05-03T07:42:48Z</time></trkpt><trkpt lat="41.05618293671166" lon="8.967954237153469"><ele>223.0</ele><time>2026-05-03T07:42:49Z</time></trkpt><trkpt lat="41.05610762504964" lon="8.968017303139325"><ele>222.99999999999997</ele><time>2026-05-03T07:42:50Z</time></trkpt><trkpt lat="41.05604110118268" lon="8.968073011540948"><ele>223.0</ele><time>2026-05-03T07:42:51Z</time></trkpt><trkpt lat="41.05598466447225" lon="8.968120271637874"><ele>223.0</ele><time>2026-05-03T07:42:52Z</time></trkpt><trkpt lat="41.05588635662446" lon="8.968201428352723"><ele>223.0</ele><time>2026-05-03T07:42:54Z</time></trkpt><trkpt lat="41.05578692206025" lon="8.968283090584558"><ele>222.99999999999997</ele><time>2026-05-03T07:42:56Z</time></trkpt><trkpt lat="41.055730105741546" lon="8.968329751904264"><ele>223.0</ele><time>2026-05-03T07:42:57Z</time></trkpt><trkpt lat="41.05566519823675" lon="8.96838333563925"><ele>224.66666666666666</ele><time>2026-05-03T07:42:58Z</time></trkpt><trkpt lat="41.05559558884769" lon="8.968440876348264"><ele>226.33333333333331</ele><time>2026-05-03T07:42:59Z</time></trkpt><trkpt lat="41.05552139004612" lon="8.968502210776359"><ele>228.0</ele><time>2026-05-03T07:43:00Z</time></trkpt><trkpt lat="41.055448040606834" lon="8.968562843105955"><ele>229.66666666666669</ele><time>2026-05-03T07:43:01Z</time></trkpt><trkpt lat="41.05537466205043" lon="8.968623499526776"><ele>231.33333333333334</ele><time>2026-05-03T07:43:02Z</time></trkpt><trkpt lat="41.0553011312074" lon="8.968684875142698"><ele>233.0</ele><time>2026-05-03T07:43:03Z</time></trkpt><trkpt lat="41.05523103289321" lon="8.968743640597156"><ele>233.00000000000003</ele><time>2026-05-03T07:43:04Z</time></trkpt><trkpt lat="41.0551616576865" lon="8.968801799861845"><ele>233.0</ele><time>2026-05-03T07:43:05Z</time></trkpt><trkpt lat="41.055093265635065" lon="8.968859134907994"><ele>233.0</ele><time>2026-05-03T07:43:06Z</time></trkpt><trkpt lat="41.05502516624833" lon="8.968916224502214"><ele>233.0</ele><time>2026-05-03T07:43:07Z</time></trkpt><trkpt lat="41.05495537952071" lon="8.968974508639299"><ele>233.00000000000003</ele><time>2026-05-03T07:43:08Z</time></trkpt><trkpt lat="41.05488690251227" lon="8.969031732640639"><ele>233.0</ele><time>2026-05-03T07:43:09Z</time></trkpt><trkpt lat="41.054816554202525" lon="8.969090187184129"><ele>233.00000000000003</ele><time>2026-05-03T07:43:10Z</time></trkpt><trkpt lat="41.05474505333826" lon="8.969149682526854"><ele>233.0</ele><time>2026-05-03T07:43:11Z</time></trkpt><trkpt lat="41.054672190770134" lon="8.969210310935388"><ele>233.0</ele><time>2026-05-03T07:43:12Z</time></trkpt><trkpt lat="41.054599203999906" lon="8.969270754210463"><ele>233.0</ele><time>2026-05-03T07:43:13Z</time></trkpt><trkpt lat="41.05452443926236" lon="8.969332652060665"><ele>233.00000000000003</ele><time>2026-05-03T07:43:14Z</time></trkpt><trkpt lat="41.05445048337979" lon="8.969394068341657"><ele>233.0</ele><time>2026-05-03T07:43:15Z</time></trkpt><trkpt lat="41.05437733734004" lon="8.969454948579516"><ele>232.50000000000003</ele><time>2026-05-03T07:43:16Z</time></trkpt><trkpt lat="41.0543040203045" lon="8.969515970814603"><ele>232.0</ele><time>2026-05-03T07:43:17Z</time></trkpt><trkpt lat="41.05425006681599" lon="8.969613474859758"><ele>231.5</ele><time>2026-05-03T07:43:18Z</time></trkpt><trkpt lat="41.054176162234334" lon="8.969675607134338"><ele>231.0</ele><time>2026-05-03T07:43:19Z</time></trkpt><trkpt lat="41.05410077747469" lon="8.969734183915007"><ele>230.50000000000003</ele><time>2026-05-03T07:43:20Z</time></trkpt><trkpt lat="41.054026272782764" lon="8.96979517157979"><ele>230.0</ele><time>2026-05-03T07:43:21Z</time></trkpt><trkpt lat="41.05393601440696" lon="8.969827639099345"><ele>230.00000000000003</ele><time>2026-05-03T07:43:22Z</time></trkpt><trkpt lat="41.05386176839377" lon="8.969890502268816"><ele>230.0</ele><time>2026-05-03T07:43:23Z</time></trkpt><trkpt lat="41.053784569601774" lon="8.969955865509856"><ele>230.0</ele><time>2026-05-03T07:43:24Z</time></trkpt><trkpt lat="41.05370989884968" lon="8.970017970792403"><ele>230.0</ele><time>2026-05-03T07:43:25Z</time></trkpt><trkpt lat="41.053632730959826" lon="8.97008167749147"><ele>230.00000000000003</ele><time>2026-05-03T07:43:26Z</time></trkpt><trkpt lat="41.05356570587928" lon="8.970137010695403"><ele>230.0</ele><time>2026-05-03T07:43:27Z</time></trkpt><trkpt lat="41.05350071169285" lon="8.97018780955561"><ele>229.8</ele><time>2026-05-03T07:43:28Z</time></trkpt><trkpt lat="41.05343472940012" lon="8.970231897759954"><ele>229.6</ele><time>2026-05-03T07:43:29Z</time></trkpt><trkpt lat="41.053373298388316" lon="8.970257250841971"><ele>229.39999999999998</ele><time>2026-05-03T07:43:30Z</time></trkpt><trkpt lat="41.05326145680561" lon="8.970249442033825"><ele>229.2</ele><time>2026-05-03T07:43:32Z</time></trkpt><trkpt lat="41.053173111649535" lon="8.970153315723072"><ele>229.0</ele><time>2026-05-03T07:43:34Z</time></trkpt><trkpt lat="41.053141751604485" lon="8.970016514196175"><ele>228.99999999999997</ele><time>2026-05-03T07:43:36Z</time></trkpt><trkpt lat="41.05316377418047" lon="8.969915347869948"><ele>229.0</ele><time>2026-05-03T07:43:37Z</time></trkpt><trkpt lat="41.05319075891528" lon="8.969836995907023"><ele>229.0</ele><time>2026-05-03T07:43:38Z</time></trkpt><trkpt lat="41.05323798956689" lon="8.96975034641372"><ele>229.0</ele><time>2026-05-03T07:43:39Z</time></trkpt><trkpt lat="41.05329863754142" lon="8.96965842639446"><ele>228.99999999999997</ele><time>2026-05-03T07:43:40Z</time></trkpt><trkpt lat="41.05336235876889" lon="8.969571696585048"><ele>229.0</ele><time>2026-05-03T07:43:41Z</time></trkpt><trkpt lat="41.05340133808306" lon="8.969487382794613"><ele>229.2</ele><time>2026-05-03T07:43:42Z</time></trkpt><trkpt lat="41.053428914986135" lon="8.969373610454113"><ele>229.39999999999998</ele><time>2026-05-03T07:43:43Z</time></trkpt><trkpt lat="41.0534288125737" lon="8.969252644966828"><ele>229.6</ele><time>2026-05-03T07:43:44Z</time></trkpt><trkpt lat="41.05340631021821" lon="8.969128139916515"><ele>229.8</ele><time>2026-05-03T07:43:45Z</time></trkpt><trkpt lat="41.053376411584125" lon="8.969005884877271"><ele>230.0</ele><time>2026-05-03T07:43:46Z</time></trkpt><trkpt lat="41.0533431333583" lon="8.96887750856348"><ele>228.8</ele><time>2026-05-03T07:43:47Z</time></trkpt><trkpt lat="41.053310045340154" lon="8.96874305456646"><ele>227.6</ele><time>2026-05-03T07:43:48Z</time></trkpt><trkpt lat="41.05327896892933" lon="8.9686002082665"><ele>226.39999999999998</ele><time>2026-05-03T07:43:49Z</time></trkpt><trkpt lat="41.05324863851405" lon="8.96846670481443"><ele>225.2</ele><time>2026-05-03T07:43:50Z</time></trkpt><trkpt lat="41.053219748413916" lon="8.968343431037155"><ele>224.0</ele><time>2026-05-03T07:43:51Z</time></trkpt><trkpt lat="41.053192127651315" lon="8.96822581046592"><ele>221.2</ele><time>2026-05-03T07:43:52Z</time></trkpt><trkpt lat="41.05316429763783" lon="8.968112083248098"><ele>218.39999999999998</ele><time>2026-05-03T07:43:53Z</time></trkpt><trkpt lat="41.05313632810474" lon="8.967997850139678"><ele>215.6</ele><time>2026-05-03T07:43:54Z</time></trkpt><trkpt lat="41.05310902102506" lon="8.967884646022949"><ele>212.8</ele><time>2026-05-03T07:43:55Z</time></trkpt><trkpt lat="41.05308582233702" lon="8.967769624476471"><ele>210.0</ele><time>2026-05-03T07:43:56Z</time></trkpt><trkpt lat="41.0530613207147" lon="8.96765415492088"><ele>210.0</ele><time>2026-05-03T07:43:57Z</time></trkpt><trkpt lat="41.05303537533912" lon="8.967541146866544"><ele>210.0</ele><time>2026-05-03T07:43:58Z</time></trkpt><trkpt lat="41.0530097357442" lon="8.967425213153106"><ele>210.0</ele><time>2026-05-03T07:43:59Z</time></trkpt><trkpt lat="41.052978283523814" lon="8.967314418195958"><ele>210.0</ele><time>2026-05-03T07:44:00Z</time></trkpt><trkpt lat="41.052952102028435" lon="8.967201560876738"><ele>210.0</ele><time>2026-05-03T07:44:01Z</time></trkpt><trkpt lat="41.05293045483478" lon="8.967086456862058"><ele>210.0</ele><time>2026-05-03T07:44:02Z</time></trkpt><trkpt lat="41.052905595659674" lon="8.966972605480171"><ele>208.6</ele><time>2026-05-03T07:44:03Z</time></trkpt><trkpt lat="41.05287455794286" lon="8.966861269652172"><ele>207.2</ele><time>2026-05-03T07:44:04Z</time></trkpt><trkpt lat="41.05283167548279" lon="8.966760915828926"><ele>205.8</ele><time>2026-05-03T07:44:05Z</time></trkpt><trkpt lat="41.05278537169527" lon="8.96666054649786"><ele>204.4</ele><time>2026-05-03T07:44:06Z</time></trkpt><trkpt lat="41.0527058455045" lon="8.966587688906605"><ele>203.0</ele><time>2026-05-03T07:44:07Z</time></trkpt><trkpt lat="41.05261804765944" lon="8.966540308772029"><ele>202.33333333333334</ele><time>2026-05-03T07:44:08Z</time></trkpt><trkpt lat="41.0525369016229" lon="8.966506195568986"><ele>201.66666666666669</ele><time>2026-05-03T07:44:09Z</time></trkpt><trkpt lat="41.0524584166324" lon="8.966474097397294"><ele>201.0</ele><time>2026-05-03T07:44:10Z</time></trkpt><trkpt lat="41.05238168261712" lon="8.966442715310812"><ele>200.33333333333331</ele><time>2026-05-03T07:44:11Z</time></trkpt><trkpt lat="41.05230787762759" lon="8.96640908553948"><ele>199.66666666666666</ele><time>2026-05-03T07:44:12Z</time></trkpt><trkpt lat="41.05223441745026" lon="8.966375326873706"><ele>199.0</ele><time>2026-05-03T07:44:13Z</time></trkpt><trkpt lat="41.05216660030771" lon="8.966340204381861"><ele>198.28571428571428</ele><time>2026-05-03T07:44:14Z</time></trkpt><trkpt lat="41.05210402835203" lon="8.966293804293988"><ele>197.57142857142856</ele><time>2026-05-03T07:44:15Z</time></trkpt><trkpt lat="41.052057753970715" lon="8.966224601362303"><ele>196.85714285714283</ele><time>2026-05-03T07:44:16Z</time></trkpt><trkpt lat="41.05202565774043" lon="8.966145112739921"><ele>196.14285714285714</ele><time>2026-05-03T07:44:17Z</time></trkpt><trkpt lat="41.05200925917927" lon="8.966053436059793"><ele>195.42857142857144</ele><time>2026-05-03T07:44:18Z</time></trkpt><trkpt lat="41.05198856508075" lon="8.965960690199353"><ele>194.7142857142857</ele><time>2026-05-03T07:44:19Z</time></trkpt><trkpt lat="41.05198802699849" lon="8.965853004237259"><ele>194.0</ele><time>2026-05-03T07:44:20Z</time></trkpt><trkpt lat="41.05198230924568" lon="8.965740297820057"><ele>192.66666666666669</ele><time>2026-05-03T07:44:21Z</time></trkpt><trkpt lat="41.051976854140335" lon="8.965626885428764"><ele>191.33333333333334</ele><time>2026-05-03T07:44:22Z</time></trkpt><trkpt lat="41.05196201569964" lon="8.965517560028317"><ele>190.0</ele><time>2026-05-03T07:44:23Z</time></trkpt><trkpt lat="41.0519466214941" lon="8.965404050071596"><ele>188.66666666666669</ele><time>2026-05-03T07:44:24Z</time></trkpt><trkpt lat="41.051884986139356" lon="8.965306337710695"><ele>187.33333333333334</ele><time>2026-05-03T07:44:25Z</time></trkpt><trkpt lat="41.05181264120229" lon="8.965232648184072"><ele>186.0</ele><time>2026-05-03T07:44:26Z</time></trkpt><trkpt lat="41.05172907455386" lon="8.965185079443026"><ele>186.0</ele><time>2026-05-03T07:44:27Z</time></trkpt><trkpt lat="41.051646104406565" lon="8.96514533227335"><ele>186.0</ele><time>2026-05-03T07:44:28Z</time></trkpt><trkpt lat="41.051563383491626" lon="8.965115758561646"><ele>186.0</ele><time>2026-05-03T07:44:29Z</time></trkpt><trkpt lat="41.05148094779592" lon="8.965085966608804"><ele>186.0</ele><time>2026-05-03T07:44:30Z</time></trkpt><trkpt lat="41.051401163892145" lon="8.965055971838858"><ele>186.0</ele><time>2026-05-03T07:44:31Z</time></trkpt><trkpt lat="41.05133723649058" lon="8.96503101831092"><ele>186.0</ele><time>2026-05-03T07:44:32Z</time></trkpt><trkpt lat="41.05123905090271" lon="8.964974696151664"><ele>185.8</ele><time>2026-05-03T07:44:34Z</time></trkpt><trkpt lat="41.05107784713972" lon="8.96498200211535"><ele>185.60000000000002</ele><time>2026-05-03T07:44:37Z</time></trkpt><trkpt lat="41.05095969397605" lon="8.965046174601179"><ele>185.4</ele><time>2026-05-03T07:44:39Z</time></trkpt><trkpt lat="41.050892867251605" lon="8.965088668270688"><ele>185.2</ele><time>2026-05-03T07:44:40Z</time></trkpt><trkpt lat="41.05081273314105" lon="8.96511816263605"><ele>185.0</ele><time>2026-05-03T07:44:41Z</time></trkpt><trkpt lat="41.05073608849845" lon="8.965159879200959"><ele>185.0</ele><time>2026-05-03T07:44:42Z</time></trkpt><trkpt lat="41.05065144127305" lon="8.965193347119778"><ele>185.0</ele><time>2026-05-03T07:44:43Z</time></trkpt><trkpt lat="41.05055949918145" lon="8.965251710964303"><ele>185.0</ele><time>2026-05-03T07:44:44Z</time></trkpt><trkpt lat="41.05047123176537" lon="8.965333814250247"><ele>185.0</ele><time>2026-05-03T07:44:45Z</time></trkpt><trkpt lat="41.050404389274235" lon="8.965439584426532"><ele>185.0</ele><time>2026-05-03T07:44:46Z</time></trkpt><trkpt lat="41.050330724654664" lon="8.96550299667583"><ele>185.0</ele><time>2026-05-03T07:44:47Z</time></trkpt><trkpt lat="41.050275923081365" lon="8.965572917938436"><ele>185.0</ele><time>2026-05-03T07:44:48Z</time></trkpt><trkpt lat="41.0502190409315" lon="8.965645493775467"><ele>185.0</ele><time>2026-05-03T07:44:49Z</time></trkpt><trkpt lat="41.05016202770723" lon="8.965718236868543"><ele>185.0</ele><time>2026-05-03T07:44:50Z</time></trkpt><trkpt lat="41.050101745844266" lon="8.965793073753721"><ele>185.0</ele><time>2026-05-03T07:44:51Z</time></trkpt><trkpt lat="41.05003532451491" lon="8.965873473259302"><ele>185.0</ele><time>2026-05-03T07:44:52Z</time></trkpt><trkpt lat="41.04996347326267" lon="8.965958433584426"><ele>187.0</ele><time>2026-05-03T07:44:53Z</time></trkpt><trkpt lat="41.04988720590098" lon="8.966047338534588"><ele>189.0</ele><time>2026-05-03T07:44:54Z</time></trkpt><trkpt lat="41.049808474276446" lon="8.966139116070835"><ele>191.0</ele><time>2026-05-03T07:44:55Z</time></trkpt><trkpt lat="41.04968283718607" lon="8.966286578094016"><ele>193.0</ele><time>2026-05-03T07:44:57Z</time></trkpt><trkpt lat="41.04960396611423" lon="8.966382062855708"><ele>193.0</ele><time>2026-05-03T07:44:58Z</time></trkpt><trkpt lat="41.04953485191981" lon="8.966495872003232"><ele>193.0</ele><time>2026-05-03T07:44:59Z</time></trkpt><trkpt lat="41.049455870092864" lon="8.966600495491283"><ele>193.0</ele><time>2026-05-03T07:45:00Z</time></trkpt><trkpt lat="41.0493653778017" lon="8.966692249486325"><ele>193.0</ele><time>2026-05-03T07:45:01Z</time></trkpt><trkpt lat="41.049280191815754" lon="8.966804455308127"><ele>194.75</ele><time>2026-05-03T07:45:02Z</time></trkpt><trkpt lat="41.0491938301686" lon="8.966918364536392"><ele>196.5</ele><time>2026-05-03T07:45:03Z</time></trkpt><trkpt lat="41.049116464305406" lon="8.967052808279163"><ele>198.25</ele><time>2026-05-03T07:45:04Z</time></trkpt><trkpt lat="41.049022229718176" lon="8.967166779493303"><ele>200.0</ele><time>2026-05-03T07:45:05Z</time></trkpt><trkpt lat="41.04892958363723" lon="8.967288842628454"><ele>200.0</ele><time>2026-05-03T07:45:06Z</time></trkpt><trkpt lat="41.048828865040356" lon="8.96740417190802"><ele>200.0</ele><time>2026-05-03T07:45:07Z</time></trkpt><trkpt lat="41.04870727292086" lon="8.967481986023408"><ele>200.0</ele><time>2026-05-03T07:45:08Z</time></trkpt><trkpt lat="41.048583345191076" lon="8.967559095315128"><ele>200.0</ele><time>2026-05-03T07:45:09Z</time></trkpt><trkpt lat="41.0484543089213" lon="8.967637240571174"><ele>200.25</ele><time>2026-05-03T07:45:10Z</time></trkpt><trkpt lat="41.04832158602798" lon="8.96771761843858"><ele>200.5</ele><time>2026-05-03T07:45:11Z</time></trkpt><trkpt lat="41.048187563372075" lon="8.967798783455489"><ele>200.75</ele><time>2026-05-03T07:45:12Z</time></trkpt><trkpt lat="41.04805082000625" lon="8.96787974902043"><ele>201.0</ele><time>2026-05-03T07:45:13Z</time></trkpt><trkpt lat="41.047911707256695" lon="8.967961409634654"><ele>201.0</ele><time>2026-05-03T07:45:14Z</time></trkpt><trkpt lat="41.047769837406975" lon="8.968048149136486"><ele>201.0</ele><time>2026-05-03T07:45:15Z</time></trkpt><trkpt lat="41.04763744177736" lon="8.968162610408344"><ele>201.0</ele><time>2026-05-03T07:45:16Z</time></trkpt><trkpt lat="41.047503460441746" lon="8.968277351804241"><ele>199.33333333333331</ele><time>2026-05-03T07:45:17Z</time></trkpt><trkpt lat="41.04737969080005" lon="8.968415184328997"><ele>197.66666666666666</ele><time>2026-05-03T07:45:18Z</time></trkpt><trkpt lat="41.0472646323628" lon="8.96856924690815"><ele>196.0</ele><time>2026-05-03T07:45:19Z</time></trkpt><trkpt lat="41.04715905856644" lon="8.968695882878421"><ele>196.0</ele><time>2026-05-03T07:45:20Z</time></trkpt><trkpt lat="41.047055470108646" lon="8.968810001549741"><ele>196.0</ele><time>2026-05-03T07:45:21Z</time></trkpt><trkpt lat="41.04693258933114" lon="8.96889817610726"><ele>196.0</ele><time>2026-05-03T07:45:22Z</time></trkpt><trkpt lat="41.04680295913739" lon="8.969002522045217"><ele>196.0</ele><time>2026-05-03T07:45:23Z</time></trkpt><trkpt lat="41.046663301347884" lon="8.9691123026003"><ele>194.0</ele><time>2026-05-03T07:45:24Z</time></trkpt><trkpt lat="41.046519888931996" lon="8.969225034486263"><ele>192.0</ele><time>2026-05-03T07:45:25Z</time></trkpt><trkpt lat="41.0463806642811" lon="8.969360491325789"><ele>190.0</ele><time>2026-05-03T07:45:26Z</time></trkpt><trkpt lat="41.04622665041221" lon="8.96948053663305"><ele>190.0</ele><time>2026-05-03T07:45:27Z</time></trkpt><trkpt lat="41.046070708000194" lon="8.969598851097917"><ele>190.0</ele><time>2026-05-03T07:45:28Z</time></trkpt><trkpt lat="41.04591774856535" lon="8.969720354916598"><ele>190.0</ele><time>2026-05-03T07:45:29Z</time></trkpt><trkpt lat="41.04577227481837" lon="8.969834538671277"><ele>190.66666666666669</ele><time>2026-05-03T07:45:30Z</time></trkpt><trkpt lat="41.04562667180074" lon="8.969949138670897"><ele>191.33333333333334</ele><time>2026-05-03T07:45:31Z</time></trkpt><trkpt lat="41.04547455889757" lon="8.970066748110245"><ele>192.0</ele><time>2026-05-03T07:45:32Z</time></trkpt><trkpt lat="41.04532059422989" lon="8.970171674511933"><ele>192.0</ele><time>2026-05-03T07:45:33Z</time></trkpt><trkpt lat="41.04515040471722" lon="8.970243031039299"><ele>192.0</ele><time>2026-05-03T07:45:34Z</time></trkpt><trkpt lat="41.044993388588544" lon="8.970312280007784"><ele>192.0</ele><time>2026-05-03T07:45:35Z</time></trkpt><trkpt lat="41.04483990634342" lon="8.970389763754204"><ele>191.33333333333334</ele><time>2026-05-03T07:45:36Z</time></trkpt><trkpt lat="41.044690145494236" lon="8.970454684411278"><ele>190.66666666666669</ele><time>2026-05-03T07:45:37Z</time></trkpt><trkpt lat="41.04454235005024" lon="8.970522782987098"><ele>190.0</ele><time>2026-05-03T07:45:38Z</time></trkpt><trkpt lat="41.04438953839441" lon="8.970590455900778"><ele>190.0</ele><time>2026-05-03T07:45:39Z</time></trkpt><trkpt lat="41.04423377946184" lon="8.970650509830554"><ele>190.0</ele><time>2026-05-03T07:45:40Z</time></trkpt><trkpt lat="41.044080207947566" lon="8.970678090525967"><ele>190.0</ele><time>2026-05-03T07:45:41Z</time></trkpt><trkpt lat="41.043923049797115" lon="8.97066600193085"><ele>189.25</ele><time>2026-05-03T07:45:42Z</time></trkpt><trkpt lat="41.043771863432085" lon="8.970646887786412"><ele>188.5</ele><time>2026-05-03T07:45:43Z</time></trkpt><trkpt lat="41.04363386548797" lon="8.970632276829429"><ele>187.75</ele><time>2026-05-03T07:45:44Z</time></trkpt><trkpt lat="41.043510518310796" lon="8.970651137794224"><ele>187.0</ele><time>2026-05-03T07:45:45Z</time></trkpt><trkpt lat="41.04340803835153" lon="8.970653004032387"><ele>187.0</ele><time>2026-05-03T07:45:46Z</time></trkpt><trkpt lat="41.0433263661058" lon="8.970750132465511"><ele>187.0</ele><time>2026-05-03T07:45:47Z</time></trkpt><trkpt lat="41.04324079499007" lon="8.97082802376745"><ele>187.0</ele><time>2026-05-03T07:45:48Z</time></trkpt><trkpt lat="41.0431436390149" lon="8.970859414179447"><ele>187.0</ele><time>2026-05-03T07:45:49Z</time></trkpt><trkpt lat="41.04304456465342" lon="8.97081820231563"><ele>187.0</ele><time>2026-05-03T07:45:50Z</time></trkpt><trkpt lat="41.0429581765281" lon="8.970743885228343"><ele>187.25</ele><time>2026-05-03T07:45:51Z</time></trkpt><trkpt lat="41.04287433552036" lon="8.970650202551667"><ele>187.5</ele><time>2026-05-03T07:45:52Z</time></trkpt><trkpt lat="41.04277775547998" lon="8.970544990591264"><ele>187.75</ele><time>2026-05-03T07:45:53Z</time></trkpt><trkpt lat="41.042667588070294" lon="8.970462911668756"><ele>188.0</ele><time>2026-05-03T07:45:54Z</time></trkpt><trkpt lat="41.04256102023197" lon="8.970389585620397"><ele>187.5</ele><time>2026-05-03T07:45:55Z</time></trkpt><trkpt lat="41.0424232896069" lon="8.970381301477975"><ele>187.0</ele><time>2026-05-03T07:45:56Z</time></trkpt><trkpt lat="41.04228580475768" lon="8.970400873843285"><ele>186.5</ele><time>2026-05-03T07:45:57Z</time></trkpt><trkpt lat="41.042156191225935" lon="8.970431083636248"><ele>186.0</ele><time>2026-05-03T07:45:58Z</time></trkpt><trkpt lat="41.0420289388247" lon="8.97043803442027"><ele>186.0</ele><time>2026-05-03T07:45:59Z</time></trkpt><trkpt lat="41.041912108511646" lon="8.970498162847774"><ele>186.0</ele><time>2026-05-03T07:46:00Z</time></trkpt><trkpt lat="41.04179656026014" lon="8.970553042375647"><ele>186.0</ele><time>2026-05-03T07:46:01Z</time></trkpt><trkpt lat="41.04168562216564" lon="8.970622998478799"><ele>186.0</ele><time>2026-05-03T07:46:02Z</time></trkpt><trkpt lat="41.04156668184967" lon="8.970676396968011"><ele>186.75</ele><time>2026-05-03T07:46:03Z</time></trkpt><trkpt lat="41.04146875798015" lon="8.970789561668875"><ele>187.5</ele><time>2026-05-03T07:46:04Z</time></trkpt><trkpt lat="41.04136579556254" lon="8.970877241172794"><ele>188.25</ele><time>2026-05-03T07:46:05Z</time></trkpt><trkpt lat="41.041261192837894" lon="8.970944595723548"><ele>189.0</ele><time>2026-05-03T07:46:06Z</time></trkpt><trkpt lat="41.04115235351442" lon="8.970955018848883"><ele>189.0</ele><time>2026-05-03T07:46:07Z</time></trkpt><trkpt lat="41.04105622666659" lon="8.970918675744286"><ele>189.0</ele><time>2026-05-03T07:46:08Z</time></trkpt><trkpt lat="41.04096914202864" lon="8.970859256961356"><ele>189.0</ele><time>2026-05-03T07:46:09Z</time></trkpt><trkpt lat="41.04087338056603" lon="8.970788263507592"><ele>189.0</ele><time>2026-05-03T07:46:10Z</time></trkpt><trkpt lat="41.04077916040336" lon="8.97069069655233"><ele>189.0</ele><time>2026-05-03T07:46:11Z</time></trkpt><trkpt lat="41.04068030496414" lon="8.970617150282681"><ele>185.0</ele><time>2026-05-03T07:46:12Z</time></trkpt><trkpt lat="41.040569654697975" lon="8.970580636593693"><ele>181.0</ele><time>2026-05-03T07:46:13Z</time></trkpt><trkpt lat="41.040434221147656" lon="8.97062848808287"><ele>177.0</ele><time>2026-05-03T07:46:14Z</time></trkpt><trkpt lat="41.04027278697155" lon="8.970641833292428"><ele>173.0</ele><time>2026-05-03T07:46:15Z</time></trkpt><trkpt lat="41.04010700142888" lon="8.970645565234221"><ele>172.33333333333331</ele><time>2026-05-03T07:46:16Z</time></trkpt><trkpt lat="41.03991585756675" lon="8.970616123675752"><ele>171.66666666666666</ele><time>2026-05-03T07:46:17Z</time></trkpt><trkpt lat="41.03971917051568" lon="8.97056178401351"><ele>171.0</ele><time>2026-05-03T07:46:18Z</time></trkpt><trkpt lat="41.039538581231234" lon="8.970488984955363"><ele>171.0</ele><time>2026-05-03T07:46:19Z</time></trkpt><trkpt lat="41.0393859116593" lon="8.970407986514877"><ele>171.0</ele><time>2026-05-03T07:46:20Z</time></trkpt><trkpt lat="41.039250426340956" lon="8.97031940733889"><ele>171.0</ele><time>2026-05-03T07:46:21Z</time></trkpt><trkpt lat="41.03914166440979" lon="8.970200317234202"><ele>170.33333333333334</ele><time>2026-05-03T07:46:22Z</time></trkpt><trkpt lat="41.03904319225415" lon="8.970044002830273"><ele>169.66666666666669</ele><time>2026-05-03T07:46:23Z</time></trkpt><trkpt lat="41.03894013363691" lon="8.969864222323409"><ele>169.0</ele><time>2026-05-03T07:46:24Z</time></trkpt><trkpt lat="41.038835303532274" lon="8.969707219144052"><ele>169.0</ele><time>2026-05-03T07:46:25Z</time></trkpt><trkpt lat="41.03872976478273" lon="8.969614613100575"><ele>169.0</ele><time>2026-05-03T07:46:26Z</time></trkpt><trkpt lat="41.038627903128294" lon="8.969552468047672"><ele>169.0</ele><time>2026-05-03T07:46:27Z</time></trkpt><trkpt lat="41.03849730444291" lon="8.969536292542363"><ele>169.0</ele><time>2026-05-03T07:46:28Z</time></trkpt><trkpt lat="41.03835168015031" lon="8.969574187832627"><ele>168.66666666666669</ele><time>2026-05-03T07:46:29Z</time></trkpt><trkpt lat="41.03821262448881" lon="8.969635612223822"><ele>168.33333333333334</ele><time>2026-05-03T07:46:30Z</time></trkpt><trkpt lat="41.03807075609719" lon="8.969729536979166"><ele>168.0</ele><time>2026-05-03T07:46:31Z</time></trkpt><trkpt lat="41.037916139499316" lon="8.969842815619788"><ele>168.0</ele><time>2026-05-03T07:46:32Z</time></trkpt><trkpt lat="41.03776412332216" lon="8.969998929269346"><ele>168.0</ele><time>2026-05-03T07:46:33Z</time></trkpt><trkpt lat="41.0375948017794" lon="8.970180566203737"><ele>168.0</ele><time>2026-05-03T07:46:34Z</time></trkpt><trkpt lat="41.037450440739605" lon="8.970335294004219"><ele>166.0</ele><time>2026-05-03T07:46:35Z</time></trkpt><trkpt lat="41.037332245717465" lon="8.970443082302388"><ele>164.0</ele><time>2026-05-03T07:46:36Z</time></trkpt><trkpt lat="41.037228020745026" lon="8.970492212991754"><ele>162.0</ele><time>2026-05-03T07:46:37Z</time></trkpt><trkpt lat="41.03710809041553" lon="8.970501945600988"><ele>160.0</ele><time>2026-05-03T07:46:38Z</time></trkpt><trkpt lat="41.036971556594715" lon="8.97049071722733"><ele>160.0</ele><time>2026-05-03T07:46:39Z</time></trkpt><trkpt lat="41.036832020403494" lon="8.970482196917766"><ele>160.0</ele><time>2026-05-03T07:46:40Z</time></trkpt><trkpt lat="41.03671505678889" lon="8.970474283367585"><ele>160.0</ele><time>2026-05-03T07:46:41Z</time></trkpt><trkpt lat="41.03660607393876" lon="8.970462457310653"><ele>160.0</ele><time>2026-05-03T07:46:42Z</time></trkpt><trkpt lat="41.0364983314214" lon="8.970450765919278"><ele>158.75</ele><time>2026-05-03T07:46:43Z</time></trkpt><trkpt lat="41.03637951022167" lon="8.97043957552516"><ele>157.5</ele><time>2026-05-03T07:46:44Z</time></trkpt><trkpt lat="41.03624915610666" lon="8.97043499986946"><ele>156.25</ele><time>2026-05-03T07:46:45Z</time></trkpt><trkpt lat="41.0361139235812" lon="8.970460501144858"><ele>155.0</ele><time>2026-05-03T07:46:46Z</time></trkpt><trkpt lat="41.03597472304427" lon="8.970454606333035"><ele>155.0</ele><time>2026-05-03T07:46:47Z</time></trkpt><trkpt lat="41.03585448390837" lon="8.970502528129389"><ele>155.0</ele><time>2026-05-03T07:46:48Z</time></trkpt><trkpt lat="41.03573129733539" lon="8.970519699332279"><ele>155.0</ele><time>2026-05-03T07:46:49Z</time></trkpt><trkpt lat="41.03561178154856" lon="8.970563775613241"><ele>155.0</ele><time>2026-05-03T07:46:50Z</time></trkpt><trkpt lat="41.0354954495607" lon="8.97061523077401"><ele>154.4</ele><time>2026-05-03T07:46:51Z</time></trkpt><trkpt lat="41.035391725905605" lon="8.97069007974971"><ele>153.8</ele><time>2026-05-03T07:46:52Z</time></trkpt><trkpt lat="41.035296940946274" lon="8.970758249693386"><ele>153.2</ele><time>2026-05-03T07:46:53Z</time></trkpt><trkpt lat="41.03521868644844" lon="8.97084310498919"><ele>152.6</ele><time>2026-05-03T07:46:54Z</time></trkpt><trkpt lat="41.035163182984554" lon="8.97094282206142"><ele>152.0</ele><time>2026-05-03T07:46:55Z</time></trkpt><trkpt lat="41.035131412898444" lon="8.971072039593789"><ele>150.75</ele><time>2026-05-03T07:46:56Z</time></trkpt><trkpt lat="41.03512907367433" lon="8.971221791131184"><ele>149.5</ele><time>2026-05-03T07:46:57Z</time></trkpt><trkpt lat="41.03513613754294" lon="8.971384030692903"><ele>148.25</ele><time>2026-05-03T07:46:58Z</time></trkpt><trkpt lat="41.03513290977886" lon="8.971551666964537"><ele>147.0</ele><time>2026-05-03T07:46:59Z</time></trkpt><trkpt lat="41.0351169503188" lon="8.971706262138554"><ele>146.79999999999998</ele><time>2026-05-03T07:47:00Z</time></trkpt><trkpt lat="41.03510672805715" lon="8.971864843683772"><ele>146.6</ele><time>2026-05-03T07:47:01Z</time></trkpt><trkpt lat="41.03509326548021" lon="8.97199739359554"><ele>146.39999999999998</ele><time>2026-05-03T07:47:02Z</time></trkpt><trkpt lat="41.035090007506085" lon="8.972131905489036"><ele>146.2</ele><time>2026-05-03T07:47:03Z</time></trkpt><trkpt lat="41.03507901709713" lon="8.972283427512782"><ele>146.0</ele><time>2026-05-03T07:47:04Z</time></trkpt><trkpt lat="41.03506719672404" lon="8.972473719246159"><ele>146.0</ele><time>2026-05-03T07:47:05Z</time></trkpt><trkpt lat="41.035047341784434" lon="8.972662660316532"><ele>146.0</ele><time>2026-05-03T07:47:06Z</time></trkpt><trkpt lat="41.03502364171581" lon="8.972851550907066"><ele>146.0</ele><time>2026-05-03T07:47:07Z</time></trkpt><trkpt lat="41.03500453575637" lon="8.973030931945855"><ele>146.0</ele><time>2026-05-03T07:47:08Z</time></trkpt><trkpt lat="41.034985500436356" lon="8.973199494978658"><ele>144.8</ele><time>2026-05-03T07:47:09Z</time></trkpt><trkpt lat="41.03496850944673" lon="8.97336062157861"><ele>143.6</ele><time>2026-05-03T07:47:10Z</time></trkpt><trkpt lat="41.03495794652272" lon="8.973498707958234"><ele>142.4</ele><time>2026-05-03T07:47:11Z</time></trkpt><trkpt lat="41.034946575911306" lon="8.97362219502295"><ele>141.2</ele><time>2026-05-03T07:47:12Z</time></trkpt><trkpt lat="41.034934210296576" lon="8.973710396842412"><ele>140.0</ele><time>2026-05-03T07:47:13Z</time></trkpt><trkpt lat="41.03491616132017" lon="8.97387935528465"><ele>140.0</ele><time>2026-05-03T07:47:15Z</time></trkpt><trkpt lat="41.03491180365605" lon="8.974007396415448"><ele>140.0</ele><time>2026-05-03T07:47:16Z</time></trkpt><trkpt lat="41.03489926378702" lon="8.974152702097998"><ele>140.0</ele><time>2026-05-03T07:47:17Z</time></trkpt><trkpt lat="41.03488764306009" lon="8.974309629987687"><ele>140.0</ele><time>2026-05-03T07:47:18Z</time></trkpt><trkpt lat="41.034883602495135" lon="8.974465165932932"><ele>140.0</ele><time>2026-05-03T07:47:19Z</time></trkpt><trkpt lat="41.03488776827803" lon="8.974602768530366"><ele>140.0</ele><time>2026-05-03T07:47:20Z</time></trkpt><trkpt lat="41.03490075372836" lon="8.974704487483624"><ele>140.0</ele><time>2026-05-03T07:47:21Z</time></trkpt><trkpt lat="41.034889187085525" lon="8.974810083313512"><ele>140.0</ele><time>2026-05-03T07:47:23Z</time></trkpt><trkpt lat="41.0349300956735" lon="8.974877082552622"><ele>140.0</ele><time>2026-05-03T07:48:49Z</time></trkpt><trkpt lat="41.03495810344621" lon="8.97497597496152"><ele>140.0</ele><time>2026-05-03T07:48:51Z</time></trkpt><trkpt lat="41.03499463699026" lon="8.975137406162611"><ele>140.0</ele><time>2026-05-03T07:48:53Z</time></trkpt><trkpt lat="41.03501350756756" lon="8.975232803993007"><ele>140.0</ele><time>2026-05-03T07:48:54Z</time></trkpt><trkpt lat="41.03499304154785" lon="8.975369779771828"><ele>140.0</ele><time>2026-05-03T07:48:56Z</time></trkpt><trkpt lat="41.034894801473406" lon="8.9753972912957"><ele>140.0</ele><time>2026-05-03T07:48:58Z</time></trkpt><trkpt lat="41.0348352582675" lon="8.97530747307446"><ele>140.0</ele><time>2026-05-03T07:48:59Z</time></trkpt><trkpt lat="41.03475733351996" lon="8.97521005186924"><ele>140.0</ele><time>2026-05-03T07:49:00Z</time></trkpt><trkpt lat="41.03467287935108" lon="8.975101927047353"><ele>139.0</ele><time>2026-05-03T07:49:01Z</time></trkpt><trkpt lat="41.034585318765146" lon="8.9749969109998"><ele>138.0</ele><time>2026-05-03T07:49:02Z</time></trkpt><trkpt lat="41.034499463753555" lon="8.974933871552203"><ele>137.0</ele><time>2026-05-03T07:49:03Z</time></trkpt><trkpt lat="41.03443193493303" lon="8.974811266513733"><ele>136.0</ele><time>2026-05-03T07:49:04Z</time></trkpt><trkpt lat="41.03435212392363" lon="8.97470970232401"><ele>135.0</ele><time>2026-05-03T07:49:05Z</time></trkpt><trkpt lat="41.03427850700279" lon="8.97457167717818"><ele>135.0</ele><time>2026-05-03T07:49:06Z</time></trkpt><trkpt lat="41.03419006882118" lon="8.974441958223768"><ele>135.0</ele><time>2026-05-03T07:49:07Z</time></trkpt><trkpt lat="41.03409590719969" lon="8.97430384426515"><ele>135.0</ele><time>2026-05-03T07:49:08Z</time></trkpt><trkpt lat="41.03400240860827" lon="8.974166702859707"><ele>135.0</ele><time>2026-05-03T07:49:09Z</time></trkpt><trkpt lat="41.033904052562804" lon="8.974022436563121"><ele>134.33333333333334</ele><time>2026-05-03T07:49:10Z</time></trkpt><trkpt lat="41.03380233138636" lon="8.973873674881945"><ele>133.66666666666669</ele><time>2026-05-03T07:49:11Z</time></trkpt><trkpt lat="41.03370218800416" lon="8.973725223764738"><ele>133.0</ele><time>2026-05-03T07:49:12Z</time></trkpt><trkpt lat="41.03360280220396" lon="8.973568913143144"><ele>133.0</ele><time>2026-05-03T07:49:13Z</time></trkpt><trkpt lat="41.03350291489285" lon="8.973411759043598"><ele>133.0</ele><time>2026-05-03T07:49:14Z</time></trkpt><trkpt lat="41.03340410347186" lon="8.973256297724372"><ele>133.0</ele><time>2026-05-03T07:49:15Z</time></trkpt><trkpt lat="41.033310795668584" lon="8.973105396302195"><ele>133.75</ele><time>2026-05-03T07:49:16Z</time></trkpt><trkpt lat="41.0332239790386" lon="8.972962066121779"><ele>134.5</ele><time>2026-05-03T07:49:17Z</time></trkpt><trkpt lat="41.03314066625573" lon="8.972825590145847"><ele>135.25</ele><time>2026-05-03T07:49:18Z</time></trkpt><trkpt lat="41.03305687526576" lon="8.972688330666"><ele>136.0</ele><time>2026-05-03T07:49:19Z</time></trkpt><trkpt lat="41.03295865398532" lon="8.972562089767202"><ele>135.75</ele><time>2026-05-03T07:49:20Z</time></trkpt><trkpt lat="41.03287563720591" lon="8.972422929594716"><ele>135.5</ele><time>2026-05-03T07:49:21Z</time></trkpt><trkpt lat="41.03279135842115" lon="8.972285919963772"><ele>135.25</ele><time>2026-05-03T07:49:22Z</time></trkpt><trkpt lat="41.032709607856155" lon="8.972142322138435"><ele>135.0</ele><time>2026-05-03T07:49:23Z</time></trkpt><trkpt lat="41.03262901927379" lon="8.971999827680419"><ele>135.0</ele><time>2026-05-03T07:49:24Z</time></trkpt><trkpt lat="41.0325433478829" lon="8.971860456812953"><ele>135.0</ele><time>2026-05-03T07:49:25Z</time></trkpt><trkpt lat="41.03245245547289" lon="8.971723995775315"><ele>135.0</ele><time>2026-05-03T07:49:26Z</time></trkpt><trkpt lat="41.032350140559494" lon="8.971603716787557"><ele>135.0</ele><time>2026-05-03T07:49:27Z</time></trkpt><trkpt lat="41.03222488708481" lon="8.971516554558"><ele>134.75</ele><time>2026-05-03T07:49:28Z</time></trkpt><trkpt lat="41.032090851204" lon="8.971442174010836"><ele>134.5</ele><time>2026-05-03T07:49:29Z</time></trkpt><trkpt lat="41.03194820177798" lon="8.971377649406094"><ele>134.25</ele><time>2026-05-03T07:49:30Z</time></trkpt><trkpt lat="41.0318045034672" lon="8.971308088128882"><ele>134.0</ele><time>2026-05-03T07:49:31Z</time></trkpt><trkpt lat="41.031656366275485" lon="8.97123710283864"><ele>133.0</ele><time>2026-05-03T07:49:32Z</time></trkpt><trkpt lat="41.03150733686525" lon="8.9711600284023"><ele>132.0</ele><time>2026-05-03T07:49:33Z</time></trkpt><trkpt lat="41.03135336281485" lon="8.971085638167162"><ele>131.0</ele><time>2026-05-03T07:49:34Z</time></trkpt><trkpt lat="41.03120080835118" lon="8.971008884457502"><ele>131.0</ele><time>2026-05-03T07:49:35Z</time></trkpt><trkpt lat="41.03104839775228" lon="8.970931946223068"><ele>131.0</ele><time>2026-05-03T07:49:36Z</time></trkpt><trkpt lat="41.03090089581835" lon="8.970834245334904"><ele>131.0</ele><time>2026-05-03T07:49:37Z</time></trkpt><trkpt lat="41.030755534669396" lon="8.970756813317522"><ele>134.0</ele><time>2026-05-03T07:49:38Z</time></trkpt><trkpt lat="41.03060551885756" lon="8.970684536693597"><ele>137.0</ele><time>2026-05-03T07:49:39Z</time></trkpt><trkpt lat="41.03048984229972" lon="8.970545966991729"><ele>140.0</ele><time>2026-05-03T07:49:40Z</time></trkpt><trkpt lat="41.03037841779076" lon="8.970399359326782"><ele>140.0</ele><time>2026-05-03T07:49:41Z</time></trkpt><trkpt lat="41.0302752022716" lon="8.97024400160209"><ele>140.0</ele><time>2026-05-03T07:49:42Z</time></trkpt><trkpt lat="41.0301596696404" lon="8.970083426034478"><ele>140.0</ele><time>2026-05-03T07:49:43Z</time></trkpt><trkpt lat="41.03005547120277" lon="8.969908387044779"><ele>142.66666666666666</ele><time>2026-05-03T07:49:44Z</time></trkpt><trkpt lat="41.029951255950024" lon="8.969734176855885"><ele>145.33333333333334</ele><time>2026-05-03T07:49:45Z</time></trkpt><trkpt lat="41.029843199678446" lon="8.969554191614463"><ele>148.0</ele><time>2026-05-03T07:49:46Z</time></trkpt><trkpt lat="41.029726744871596" lon="8.969377054202141"><ele>148.0</ele><time>2026-05-03T07:49:47Z</time></trkpt><trkpt lat="41.029614580044296" lon="8.969197886977202"><ele>148.0</ele><time>2026-05-03T07:49:48Z</time></trkpt><trkpt lat="41.0295082097436" lon="8.969016946702357"><ele>148.0</ele><time>2026-05-03T07:49:49Z</time></trkpt><trkpt lat="41.02940072823732" lon="8.968837200274063"><ele>148.0</ele><time>2026-05-03T07:49:50Z</time></trkpt><trkpt lat="41.02932362529264" lon="8.968663794309219"><ele>148.0</ele><time>2026-05-03T07:49:51Z</time></trkpt><trkpt lat="41.029288223451324" lon="8.96847123801455"><ele>148.0</ele><time>2026-05-03T07:49:52Z</time></trkpt><trkpt lat="41.0292840802252" lon="8.96826111837544"><ele>148.0</ele><time>2026-05-03T07:49:53Z</time></trkpt><trkpt lat="41.02930329159529" lon="8.96802860698897"><ele>148.0</ele><time>2026-05-03T07:49:54Z</time></trkpt><trkpt lat="41.02930653751111" lon="8.967806683892011"><ele>148.0</ele><time>2026-05-03T07:49:55Z</time></trkpt><trkpt lat="41.029302788763935" lon="8.967565965415272"><ele>147.33333333333334</ele><time>2026-05-03T07:49:56Z</time></trkpt><trkpt lat="41.029292378888606" lon="8.967325050924838"><ele>146.66666666666666</ele><time>2026-05-03T07:49:57Z</time></trkpt><trkpt lat="41.0292658216751" lon="8.967077675737448"><ele>146.0</ele><time>2026-05-03T07:49:58Z</time></trkpt><trkpt lat="41.02922322397319" lon="8.966817206535422"><ele>145.33333333333331</ele><time>2026-05-03T07:49:59Z</time></trkpt><trkpt lat="41.029177210227616" lon="8.966554448038805"><ele>144.66666666666666</ele><time>2026-05-03T07:50:00Z</time></trkpt><trkpt lat="41.02912152051854" lon="8.966302023083832"><ele>144.0</ele><time>2026-05-03T07:50:01Z</time></trkpt><trkpt lat="41.029075877566875" lon="8.966052514763778"><ele>154.0</ele><time>2026-05-03T07:50:02Z</time></trkpt><trkpt lat="41.02902823158234" lon="8.965817732814564"><ele>164.0</ele><time>2026-05-03T07:50:03Z</time></trkpt><trkpt lat="41.02898457149305" lon="8.965591816119451"><ele>174.0</ele><time>2026-05-03T07:50:04Z</time></trkpt><trkpt lat="41.028938379527396" lon="8.965370501552806"><ele>174.0</ele><time>2026-05-03T07:50:05Z</time></trkpt><trkpt lat="41.02888519760266" lon="8.965156085487413"><ele>174.0</ele><time>2026-05-03T07:50:06Z</time></trkpt><trkpt lat="41.028828411853006" lon="8.964936397374371"><ele>174.0</ele><time>2026-05-03T07:50:07Z</time></trkpt><trkpt lat="41.02876698166103" lon="8.964717024396728"><ele>171.33333333333334</ele><time>2026-05-03T07:50:08Z</time></trkpt><trkpt lat="41.02870764707085" lon="8.9644952984694"><ele>168.66666666666669</ele><time>2026-05-03T07:50:09Z</time></trkpt><trkpt lat="41.028654612534126" lon="8.964280535602814"><ele>166.0</ele><time>2026-05-03T07:50:10Z</time></trkpt><trkpt lat="41.02860534521673" lon="8.964071849552951"><ele>165.33333333333334</ele><time>2026-05-03T07:50:11Z</time></trkpt><trkpt lat="41.02856050530977" lon="8.963868388762567"><ele>164.66666666666666</ele><time>2026-05-03T07:50:12Z</time></trkpt><trkpt lat="41.02851818588849" lon="8.963668529987455"><ele>164.0</ele><time>2026-05-03T07:50:13Z</time></trkpt><trkpt lat="41.02847707357846" lon="8.963474111354696"><ele>163.75</ele><time>2026-05-03T07:50:14Z</time></trkpt><trkpt lat="41.02843847084009" lon="8.963283194260706"><ele>163.5</ele><time>2026-05-03T07:50:15Z</time></trkpt><trkpt lat="41.0284157213415" lon="8.963109717469191"><ele>163.25</ele><time>2026-05-03T07:50:16Z</time></trkpt><trkpt lat="41.028427695869325" lon="8.962951465798835"><ele>163.0</ele><time>2026-05-03T07:50:17Z</time></trkpt><trkpt lat="41.02847130971579" lon="8.962804328197723"><ele>163.0</ele><time>2026-05-03T07:50:18Z</time></trkpt><trkpt lat="41.02856627623011" lon="8.962684797744433"><ele>163.0</ele><time>2026-05-03T07:50:19Z</time></trkpt><trkpt lat="41.02867522025315" lon="8.962574895612434"><ele>163.0</ele><time>2026-05-03T07:50:20Z</time></trkpt><trkpt lat="41.028801321022556" lon="8.962499353300455"><ele>163.0</ele><time>2026-05-03T07:50:21Z</time></trkpt><trkpt lat="41.02894214220133" lon="8.962477956173531"><ele>162.66666666666669</ele><time>2026-05-03T07:50:22Z</time></trkpt><trkpt lat="41.02909576932867" lon="8.962488349595239"><ele>162.33333333333334</ele><time>2026-05-03T07:50:23Z</time></trkpt><trkpt lat="41.02925211139059" lon="8.962521311571676"><ele>162.0</ele><time>2026-05-03T07:50:24Z</time></trkpt><trkpt lat="41.029391071205595" lon="8.962532637099468"><ele>162.0</ele><time>2026-05-03T07:50:25Z</time></trkpt><trkpt lat="41.02953155740255" lon="8.962499989670107"><ele>162.0</ele><time>2026-05-03T07:50:26Z</time></trkpt><trkpt lat="41.0296523980513" lon="8.962394956541944"><ele>162.0</ele><time>2026-05-03T07:50:27Z</time></trkpt><trkpt lat="41.029755366234966" lon="8.962246453431462"><ele>162.0</ele><time>2026-05-03T07:50:28Z</time></trkpt><trkpt lat="41.02982129256611" lon="8.962060686173276"><ele>162.0</ele><time>2026-05-03T07:50:29Z</time></trkpt><trkpt lat="41.029884514435665" lon="8.96187265961667"><ele>162.0</ele><time>2026-05-03T07:50:30Z</time></trkpt><trkpt lat="41.02995630269287" lon="8.961685644379347"><ele>162.0</ele><time>2026-05-03T07:50:31Z</time></trkpt><trkpt lat="41.030033055538055" lon="8.961498172955173"><ele>162.66666666666666</ele><time>2026-05-03T07:50:32Z</time></trkpt><trkpt lat="41.0301123326071" lon="8.961305935136284"><ele>163.33333333333331</ele><time>2026-05-03T07:50:33Z</time></trkpt><trkpt lat="41.030194572165556" lon="8.961110593119116"><ele>164.0</ele><time>2026-05-03T07:50:34Z</time></trkpt><trkpt lat="41.030271574669435" lon="8.960924158536235"><ele>165.5</ele><time>2026-05-03T07:50:35Z</time></trkpt><trkpt lat="41.030340413505336" lon="8.960765676722044"><ele>167.0</ele><time>2026-05-03T07:50:36Z</time></trkpt><trkpt lat="41.030403966370024" lon="8.960616068606683"><ele>168.5</ele><time>2026-05-03T07:50:37Z</time></trkpt><trkpt lat="41.03045733858829" lon="8.960466973034285"><ele>170.0</ele><time>2026-05-03T07:50:38Z</time></trkpt><trkpt lat="41.03048298705032" lon="8.960304901502736"><ele>170.0</ele><time>2026-05-03T07:50:39Z</time></trkpt><trkpt lat="41.03048310162321" lon="8.960122041724157"><ele>170.0</ele><time>2026-05-03T07:50:40Z</time></trkpt><trkpt lat="41.03044588724101" lon="8.959930191097941"><ele>170.0</ele><time>2026-05-03T07:50:41Z</time></trkpt><trkpt lat="41.03038897777624" lon="8.959746974662774"><ele>170.0</ele><time>2026-05-03T07:50:42Z</time></trkpt><trkpt lat="41.03030749943092" lon="8.959610259720856"><ele>170.75</ele><time>2026-05-03T07:50:43Z</time></trkpt><trkpt lat="41.03020957117349" lon="8.959521947339638"><ele>171.5</ele><time>2026-05-03T07:50:44Z</time></trkpt><trkpt lat="41.03008840691605" lon="8.959505094577425"><ele>172.25</ele><time>2026-05-03T07:50:45Z</time></trkpt><trkpt lat="41.029957850031685" lon="8.959522408470665"><ele>173.0</ele><time>2026-05-03T07:50:46Z</time></trkpt><trkpt lat="41.0298241306983" lon="8.959568311209582"><ele>175.33333333333331</ele><time>2026-05-03T07:50:47Z</time></trkpt><trkpt lat="41.02967604322072" lon="8.959592836418917"><ele>177.66666666666666</ele><time>2026-05-03T07:50:48Z</time></trkpt><trkpt lat="41.02952791843198" lon="8.959631732930449"><ele>180.0</ele><time>2026-05-03T07:50:49Z</time></trkpt><trkpt lat="41.02937095008157" lon="8.959665861055013"><ele>180.0</ele><time>2026-05-03T07:50:50Z</time></trkpt><trkpt lat="41.02921428725098" lon="8.959693418609257"><ele>180.0</ele><time>2026-05-03T07:50:51Z</time></trkpt><trkpt lat="41.029063706133556" lon="8.959682253589962"><ele>180.0</ele><time>2026-05-03T07:50:52Z</time></trkpt><trkpt lat="41.028927669435376" lon="8.959614516545741"><ele>181.0</ele><time>2026-05-03T07:50:53Z</time></trkpt><trkpt lat="41.02881541075401" lon="8.959489918363333"><ele>182.0</ele><time>2026-05-03T07:50:54Z</time></trkpt><trkpt lat="41.028696426937586" lon="8.959361369408661"><ele>183.0</ele><time>2026-05-03T07:50:55Z</time></trkpt><trkpt lat="41.02856799325792" lon="8.959244859160615"><ele>183.0</ele><time>2026-05-03T07:50:56Z</time></trkpt><trkpt lat="41.02845866751379" lon="8.959109688890107"><ele>183.0</ele><time>2026-05-03T07:50:57Z</time></trkpt><trkpt lat="41.02838491334129" lon="8.958947829386384"><ele>183.0</ele><time>2026-05-03T07:50:58Z</time></trkpt><trkpt lat="41.02833723717523" lon="8.958785645863635"><ele>183.0</ele><time>2026-05-03T07:50:59Z</time></trkpt><trkpt lat="41.02833355800663" lon="8.958627416278564"><ele>183.0</ele><time>2026-05-03T07:51:00Z</time></trkpt><trkpt lat="41.02835435532603" lon="8.958460098109397"><ele>183.0</ele><time>2026-05-03T07:51:01Z</time></trkpt><trkpt lat="41.02838089972259" lon="8.958279310355785"><ele>183.0</ele><time>2026-05-03T07:51:02Z</time></trkpt><trkpt lat="41.02842116667272" lon="8.958092334785116"><ele>183.0</ele><time>2026-05-03T07:51:03Z</time></trkpt><trkpt lat="41.028454773860204" lon="8.957892293505177"><ele>184.33333333333334</ele><time>2026-05-03T07:51:04Z</time></trkpt><trkpt lat="41.02848006347008" lon="8.957683003913143"><ele>185.66666666666669</ele><time>2026-05-03T07:51:05Z</time></trkpt><trkpt lat="41.02849569905524" lon="8.957467439217975"><ele>187.0</ele><time>2026-05-03T07:51:06Z</time></trkpt><trkpt lat="41.0285077132586" lon="8.95724781718065"><ele>188.0</ele><time>2026-05-03T07:51:07Z</time></trkpt><trkpt lat="41.02851641053719" lon="8.957026622364229"><ele>189.0</ele><time>2026-05-03T07:51:08Z</time></trkpt><trkpt lat="41.02852705201592" lon="8.956802362325995"><ele>190.0</ele><time>2026-05-03T07:51:09Z</time></trkpt><trkpt lat="41.028539180499074" lon="8.956580213412941"><ele>190.66666666666669</ele><time>2026-05-03T07:51:10Z</time></trkpt><trkpt lat="41.02855166936937" lon="8.956356602458197"><ele>191.33333333333334</ele><time>2026-05-03T07:51:11Z</time></trkpt><trkpt lat="41.02856296373566" lon="8.956132721706188"><ele>192.0</ele><time>2026-05-03T07:51:12Z</time></trkpt><trkpt lat="41.0285742416648" lon="8.955910405776095"><ele>191.66666666666666</ele><time>2026-05-03T07:51:13Z</time></trkpt><trkpt lat="41.02858445448161" lon="8.955690649334546"><ele>191.33333333333331</ele><time>2026-05-03T07:51:14Z</time></trkpt><trkpt lat="41.02859309219948" lon="8.955471310076025"><ele>191.0</ele><time>2026-05-03T07:51:15Z</time></trkpt><trkpt lat="41.02860537795557" lon="8.955249306754945"><ele>191.33333333333331</ele><time>2026-05-03T07:51:16Z</time></trkpt><trkpt lat="41.02862929888029" lon="8.955027731737058"><ele>191.66666666666666</ele><time>2026-05-03T07:51:17Z</time></trkpt><trkpt lat="41.02867668046808" lon="8.954809360238556"><ele>192.0</ele><time>2026-05-03T07:51:18Z</time></trkpt><trkpt lat="41.028740828415884" lon="8.954594549901321"><ele>192.0</ele><time>2026-05-03T07:51:19Z</time></trkpt><trkpt lat="41.02880193276237" lon="8.954373660637065"><ele>192.0</ele><time>2026-05-03T07:51:20Z</time></trkpt><trkpt lat="41.028860792718646" lon="8.954151240802663"><ele>192.0</ele><time>2026-05-03T07:51:21Z</time></trkpt><trkpt lat="41.02891657907776" lon="8.953925203625115"><ele>190.0</ele><time>2026-05-03T07:51:22Z</time></trkpt><trkpt lat="41.02895823565592" lon="8.953693207385337"><ele>188.0</ele><time>2026-05-03T07:51:23Z</time></trkpt><trkpt lat="41.028983619510754" lon="8.953453255723655"><ele>186.0</ele><time>2026-05-03T07:51:24Z</time></trkpt><trkpt lat="41.02900375876959" lon="8.953212780385257"><ele>183.33333333333334</ele><time>2026-05-03T07:51:25Z</time></trkpt><trkpt lat="41.02902014927842" lon="8.952972397260513"><ele>180.66666666666669</ele><time>2026-05-03T07:51:26Z</time></trkpt><trkpt lat="41.029030309779905" lon="8.952733127915481"><ele>178.0</ele><time>2026-05-03T07:51:27Z</time></trkpt><trkpt lat="41.02902718456318" lon="8.95249685974025"><ele>176.33333333333334</ele><time>2026-05-03T07:51:28Z</time></trkpt><trkpt lat="41.02901451847436" lon="8.952258126261299"><ele>174.66666666666666</ele><time>2026-05-03T07:51:29Z</time></trkpt><trkpt lat="41.02899741097993" lon="8.952017226154572"><ele>173.0</ele><time>2026-05-03T07:51:30Z</time></trkpt><trkpt lat="41.02897666602216" lon="8.951774379861499"><ele>172.66666666666666</ele><time>2026-05-03T07:51:31Z</time></trkpt><trkpt lat="41.02895349403178" lon="8.951531725870186"><ele>172.33333333333334</ele><time>2026-05-03T07:51:32Z</time></trkpt><trkpt lat="41.02893048847186" lon="8.951285061873003"><ele>172.0</ele><time>2026-05-03T07:51:33Z</time></trkpt><trkpt lat="41.028905282643684" lon="8.951037380968843"><ele>173.0</ele><time>2026-05-03T07:51:34Z</time></trkpt><trkpt lat="41.02888984345762" lon="8.950785894239472"><ele>174.0</ele><time>2026-05-03T07:51:35Z</time></trkpt><trkpt lat="41.02886074526974" lon="8.950536171637317"><ele>175.0</ele><time>2026-05-03T07:51:36Z</time></trkpt><trkpt lat="41.02883178687953" lon="8.950287648802346"><ele>174.66666666666669</ele><time>2026-05-03T07:51:37Z</time></trkpt><trkpt lat="41.028800300804036" lon="8.950038120155746"><ele>174.33333333333334</ele><time>2026-05-03T07:51:38Z</time></trkpt><trkpt lat="41.02876627697476" lon="8.94979423666369"><ele>174.0</ele><time>2026-05-03T07:51:39Z</time></trkpt><trkpt lat="41.02871818895271" lon="8.94954747386493"><ele>174.0</ele><time>2026-05-03T07:51:40Z</time></trkpt><trkpt lat="41.028655246848" lon="8.949310195583157"><ele>174.0</ele><time>2026-05-03T07:51:41Z</time></trkpt><trkpt lat="41.02859018501098" lon="8.949074376257927"><ele>174.0</ele><time>2026-05-03T07:51:42Z</time></trkpt><trkpt lat="41.02851923553119" lon="8.948843244427122"><ele>174.33333333333334</ele><time>2026-05-03T07:51:43Z</time></trkpt><trkpt lat="41.02842984694117" lon="8.94862473142401"><ele>174.66666666666669</ele><time>2026-05-03T07:51:44Z</time></trkpt><trkpt lat="41.028370407810115" lon="8.948391467055972"><ele>175.0</ele><time>2026-05-03T07:51:45Z</time></trkpt><trkpt lat="41.02829811396221" lon="8.948166325173393"><ele>173.66666666666669</ele><time>2026-05-03T07:51:46Z</time></trkpt><trkpt lat="41.0282243880249" lon="8.947935280477303"><ele>172.33333333333334</ele><time>2026-05-03T07:51:47Z</time></trkpt><trkpt lat="41.02814757772661" lon="8.947706013568562"><ele>171.0</ele><time>2026-05-03T07:51:48Z</time></trkpt><trkpt lat="41.02809136316387" lon="8.947476983933528"><ele>171.0</ele><time>2026-05-03T07:51:49Z</time></trkpt><trkpt lat="41.028093991138604" lon="8.94724327293673"><ele>171.0</ele><time>2026-05-03T07:51:50Z</time></trkpt><trkpt lat="41.0281130942506" lon="8.94702451848188"><ele>171.0</ele><time>2026-05-03T07:51:51Z</time></trkpt><trkpt lat="41.02814036428528" lon="8.946797738911457"><ele>170.0</ele><time>2026-05-03T07:51:52Z</time></trkpt><trkpt lat="41.0281425311575" lon="8.946573692151446"><ele>169.0</ele><time>2026-05-03T07:51:53Z</time></trkpt><trkpt lat="41.02813903515667" lon="8.946344046919027"><ele>168.0</ele><time>2026-05-03T07:51:54Z</time></trkpt><trkpt lat="41.02810826735904" lon="8.946123688671248"><ele>168.0</ele><time>2026-05-03T07:51:55Z</time></trkpt><trkpt lat="41.02806605756926" lon="8.945918661856842"><ele>168.0</ele><time>2026-05-03T07:51:56Z</time></trkpt><trkpt lat="41.02801075491986" lon="8.945743587392968"><ele>168.0</ele><time>2026-05-03T07:51:57Z</time></trkpt><trkpt lat="41.02793846346259" lon="8.945610715516924"><ele>168.0</ele><time>2026-05-03T07:51:58Z</time></trkpt><trkpt lat="41.02783077082962" lon="8.94550911682889"><ele>167.0</ele><time>2026-05-03T07:51:59Z</time></trkpt><trkpt lat="41.02769850256808" lon="8.945426948488231"><ele>166.0</ele><time>2026-05-03T07:52:00Z</time></trkpt><trkpt lat="41.02755782142649" lon="8.945341551182402"><ele>165.0</ele><time>2026-05-03T07:52:01Z</time></trkpt><trkpt lat="41.02741246184249" lon="8.945252350915377"><ele>163.0</ele><time>2026-05-03T07:52:02Z</time></trkpt><trkpt lat="41.02726505644443" lon="8.945155253796461"><ele>161.0</ele><time>2026-05-03T07:52:03Z</time></trkpt><trkpt lat="41.02714140017774" lon="8.945007237692213"><ele>159.0</ele><time>2026-05-03T07:52:04Z</time></trkpt><trkpt lat="41.02703770086437" lon="8.944838584780145"><ele>159.0</ele><time>2026-05-03T07:52:05Z</time></trkpt><trkpt lat="41.026946561362635" lon="8.944667105335997"><ele>159.0</ele><time>2026-05-03T07:52:06Z</time></trkpt><trkpt lat="41.02684730995021" lon="8.94451669192688"><ele>159.0</ele><time>2026-05-03T07:52:07Z</time></trkpt><trkpt lat="41.026755316761836" lon="8.944366366881226"><ele>159.0</ele><time>2026-05-03T07:52:08Z</time></trkpt><trkpt lat="41.02664017269918" lon="8.94424072743866"><ele>159.0</ele><time>2026-05-03T07:52:09Z</time></trkpt><trkpt lat="41.02649835591277" lon="8.944156847146205"><ele>159.0</ele><time>2026-05-03T07:52:10Z</time></trkpt><trkpt lat="41.02634377734909" lon="8.944102124741978"><ele>159.0</ele><time>2026-05-03T07:52:11Z</time></trkpt><trkpt lat="41.026186788987395" lon="8.944058475154314"><ele>159.0</ele><time>2026-05-03T07:52:12Z</time></trkpt><trkpt lat="41.02602861823558" lon="8.944011586191227"><ele>159.0</ele><time>2026-05-03T07:52:13Z</time></trkpt><trkpt lat="41.025869740094926" lon="8.943959881646121"><ele>156.33333333333334</ele><time>2026-05-03T07:52:14Z</time></trkpt><trkpt lat="41.02570714439324" lon="8.943906349387257"><ele>153.66666666666669</ele><time>2026-05-03T07:52:15Z</time></trkpt><trkpt lat="41.02554190465301" lon="8.943853495697866"><ele>151.0</ele><time>2026-05-03T07:52:16Z</time></trkpt><trkpt lat="41.02537977134298" lon="8.943776205726746"><ele>151.0</ele><time>2026-05-03T07:52:17Z</time></trkpt><trkpt lat="41.02520688099887" lon="8.943713776485783"><ele>151.0</ele><time>2026-05-03T07:52:18Z</time></trkpt><trkpt lat="41.02502099790928" lon="8.943646657013618"><ele>151.0</ele><time>2026-05-03T07:52:19Z</time></trkpt><trkpt lat="41.02484120757042" lon="8.943604258832865"><ele>149.66666666666669</ele><time>2026-05-03T07:52:20Z</time></trkpt><trkpt lat="41.024674706762696" lon="8.943544247818027"><ele>148.33333333333334</ele><time>2026-05-03T07:52:21Z</time></trkpt><trkpt lat="41.024504671038265" lon="8.943460215435248"><ele>147.0</ele><time>2026-05-03T07:52:22Z</time></trkpt><trkpt lat="41.024321458137486" lon="8.943415031014956"><ele>148.33333333333334</ele><time>2026-05-03T07:52:23Z</time></trkpt><trkpt lat="41.02414154770948" lon="8.94334969432506"><ele>149.66666666666669</ele><time>2026-05-03T07:52:24Z</time></trkpt><trkpt lat="41.02396139130294" lon="8.943286583865834"><ele>151.0</ele><time>2026-05-03T07:52:25Z</time></trkpt><trkpt lat="41.02378816304258" lon="8.943256477690893"><ele>151.0</ele><time>2026-05-03T07:52:26Z</time></trkpt><trkpt lat="41.02361012446488" lon="8.943249221844543"><ele>151.0</ele><time>2026-05-03T07:52:27Z</time></trkpt><trkpt lat="41.02342342978736" lon="8.943250834143312"><ele>151.0</ele><time>2026-05-03T07:52:28Z</time></trkpt><trkpt lat="41.02322926592757" lon="8.943251358970038"><ele>148.0</ele><time>2026-05-03T07:52:29Z</time></trkpt><trkpt lat="41.02302909072108" lon="8.943228280040998"><ele>145.0</ele><time>2026-05-03T07:52:30Z</time></trkpt><trkpt lat="41.0228310115492" lon="8.943210542277367"><ele>142.0</ele><time>2026-05-03T07:52:31Z</time></trkpt><trkpt lat="41.0226293368028" lon="8.943210552581194"><ele>139.66666666666669</ele><time>2026-05-03T07:52:32Z</time></trkpt><trkpt lat="41.02242860589388" lon="8.943190120208257"><ele>137.33333333333334</ele><time>2026-05-03T07:52:33Z</time></trkpt><trkpt lat="41.02222893078538" lon="8.943144388045244"><ele>135.0</ele><time>2026-05-03T07:52:34Z</time></trkpt><trkpt lat="41.02202997951746" lon="8.943121066972093"><ele>135.0</ele><time>2026-05-03T07:52:35Z</time></trkpt><trkpt lat="41.02184058935693" lon="8.943099499739839"><ele>135.0</ele><time>2026-05-03T07:52:36Z</time></trkpt><trkpt lat="41.02165355823145" lon="8.943078153399595"><ele>135.0</ele><time>2026-05-03T07:52:37Z</time></trkpt><trkpt lat="41.02146378653039" lon="8.943055236850828"><ele>134.0</ele><time>2026-05-03T07:52:38Z</time></trkpt><trkpt lat="41.021272419225845" lon="8.943032521825177"><ele>133.0</ele><time>2026-05-03T07:52:39Z</time></trkpt><trkpt lat="41.021081308019454" lon="8.943008506628317"><ele>132.0</ele><time>2026-05-03T07:52:40Z</time></trkpt><trkpt lat="41.02089004919347" lon="8.942983210909368"><ele>131.0</ele><time>2026-05-03T07:52:41Z</time></trkpt><trkpt lat="41.020698562413564" lon="8.942958752157246"><ele>130.0</ele><time>2026-05-03T07:52:42Z</time></trkpt><trkpt lat="41.0205054135712" lon="8.942945200581475"><ele>129.0</ele><time>2026-05-03T07:52:43Z</time></trkpt><trkpt lat="41.02031267322369" lon="8.942932120262856"><ele>129.0</ele><time>2026-05-03T07:52:44Z</time></trkpt><trkpt lat="41.020119605222256" lon="8.942919443317683"><ele>129.0</ele><time>2026-05-03T07:52:45Z</time></trkpt><trkpt lat="41.0199239660778" lon="8.942910860539287"><ele>129.0</ele><time>2026-05-03T07:52:46Z</time></trkpt><trkpt lat="41.01972700718674" lon="8.942898308636202"><ele>128.33333333333334</ele><time>2026-05-03T07:52:47Z</time></trkpt><trkpt lat="41.01952916489599" lon="8.942884441582732"><ele>127.66666666666667</ele><time>2026-05-03T07:52:48Z</time></trkpt><trkpt lat="41.01932982483912" lon="8.942893562189997"><ele>127.0</ele><time>2026-05-03T07:52:49Z</time></trkpt><trkpt lat="41.01913101410772" lon="8.942880388521958"><ele>126.0</ele><time>2026-05-03T07:52:50Z</time></trkpt><trkpt lat="41.01893201708803" lon="8.942867951720777"><ele>125.0</ele><time>2026-05-03T07:52:51Z</time></trkpt><trkpt lat="41.018733729623456" lon="8.942831518296332"><ele>124.0</ele><time>2026-05-03T07:52:52Z</time></trkpt><trkpt lat="41.01853511497319" lon="8.94281768260438"><ele>124.0</ele><time>2026-05-03T07:52:53Z</time></trkpt><trkpt lat="41.01833759618545" lon="8.942805596977342"><ele>124.0</ele><time>2026-05-03T07:52:54Z</time></trkpt><trkpt lat="41.01814153735921" lon="8.942812572646485"><ele>124.0</ele><time>2026-05-03T07:52:55Z</time></trkpt><trkpt lat="41.01794715789289" lon="8.942780497827862"><ele>124.33333333333334</ele><time>2026-05-03T07:52:56Z</time></trkpt><trkpt lat="41.01775583561804" lon="8.942767858549653"><ele>124.66666666666666</ele><time>2026-05-03T07:52:57Z</time></trkpt><trkpt lat="41.017575365861994" lon="8.942755363819181"><ele>125.0</ele><time>2026-05-03T07:52:58Z</time></trkpt><trkpt lat="41.017403353947046" lon="8.942761217671205"><ele>127.0</ele><time>2026-05-03T07:52:59Z</time></trkpt><trkpt lat="41.01724164145558" lon="8.942711265166812"><ele>129.0</ele><time>2026-05-03T07:53:00Z</time></trkpt><trkpt lat="41.01709849820605" lon="8.942634434971046"><ele>131.0</ele><time>2026-05-03T07:53:01Z</time></trkpt><trkpt lat="41.016973779184916" lon="8.942524219820617"><ele>131.0</ele><time>2026-05-03T07:53:02Z</time></trkpt><trkpt lat="41.01685700619955" lon="8.942380349454007"><ele>131.0</ele><time>2026-05-03T07:53:03Z</time></trkpt><trkpt lat="41.01672765854826" lon="8.942243046343219"><ele>131.0</ele><time>2026-05-03T07:53:04Z</time></trkpt><trkpt lat="41.01660647955706" lon="8.942088642944585"><ele>131.0</ele><time>2026-05-03T07:53:05Z</time></trkpt><trkpt lat="41.01649216118339" lon="8.941919648458308"><ele>131.0</ele><time>2026-05-03T07:53:06Z</time></trkpt><trkpt lat="41.01640455362415" lon="8.94172093072448"><ele>131.0</ele><time>2026-05-03T07:53:07Z</time></trkpt><trkpt lat="41.016331419732786" lon="8.94150464161958"><ele>130.0</ele><time>2026-05-03T07:53:08Z</time></trkpt><trkpt lat="41.0162579397191" lon="8.941281254526766"><ele>129.0</ele><time>2026-05-03T07:53:09Z</time></trkpt><trkpt lat="41.01618067326809" lon="8.94105366022099"><ele>128.0</ele><time>2026-05-03T07:53:10Z</time></trkpt><trkpt lat="41.01610421723893" lon="8.940822626226813"><ele>128.0</ele><time>2026-05-03T07:53:11Z</time></trkpt><trkpt lat="41.01602326994924" lon="8.940595442672185"><ele>128.0</ele><time>2026-05-03T07:53:12Z</time></trkpt><trkpt lat="41.01594696624145" lon="8.940357560073677"><ele>128.0</ele><time>2026-05-03T07:53:13Z</time></trkpt><trkpt lat="41.01586576920044" lon="8.940117257570083"><ele>130.0</ele><time>2026-05-03T07:53:14Z</time></trkpt><trkpt lat="41.01578349156596" lon="8.939876052149142"><ele>132.0</ele><time>2026-05-03T07:53:15Z</time></trkpt><trkpt lat="41.0157069860545" lon="8.939647173019198"><ele>134.0</ele><time>2026-05-03T07:53:16Z</time></trkpt><trkpt lat="41.01563317944522" lon="8.939424353429215"><ele>133.66666666666666</ele><time>2026-05-03T07:53:17Z</time></trkpt><trkpt lat="41.01556018902285" lon="8.939207265145837"><ele>133.33333333333334</ele><time>2026-05-03T07:53:18Z</time></trkpt><trkpt lat="41.01548670205091" lon="8.938988270682737"><ele>133.0</ele><time>2026-05-03T07:53:19Z</time></trkpt><trkpt lat="41.015412546127564" lon="8.938770006947015"><ele>133.0</ele><time>2026-05-03T07:53:20Z</time></trkpt><trkpt lat="41.01534042696205" lon="8.938555897407522"><ele>133.0</ele><time>2026-05-03T07:53:21Z</time></trkpt><trkpt lat="41.01526859433131" lon="8.938348671807173"><ele>133.0</ele><time>2026-05-03T07:53:22Z</time></trkpt><trkpt lat="41.01520056436241" lon="8.938146586094398"><ele>133.0</ele><time>2026-05-03T07:53:23Z</time></trkpt><trkpt lat="41.01513665910853" lon="8.937947819389096"><ele>133.0</ele><time>2026-05-03T07:53:24Z</time></trkpt><trkpt lat="41.01508186178251" lon="8.937742329217471"><ele>133.0</ele><time>2026-05-03T07:53:25Z</time></trkpt><trkpt lat="41.01504031701778" lon="8.93753024569257"><ele>134.0</ele><time>2026-05-03T07:53:26Z</time></trkpt><trkpt lat="41.015008582149896" lon="8.93731783520903"><ele>135.0</ele><time>2026-05-03T07:53:27Z</time></trkpt><trkpt lat="41.014978155822696" lon="8.937104952590584"><ele>136.0</ele><time>2026-05-03T07:53:28Z</time></trkpt><trkpt lat="41.01494198586729" lon="8.936893451287489"><ele>135.33333333333334</ele><time>2026-05-03T07:53:29Z</time></trkpt><trkpt lat="41.01489796408479" lon="8.936679056103843"><ele>134.66666666666666</ele><time>2026-05-03T07:53:30Z</time></trkpt><trkpt lat="41.01484287324494" lon="8.93646141861551"><ele>134.0</ele><time>2026-05-03T07:53:31Z</time></trkpt><trkpt lat="41.01478208820953" lon="8.936242323426299"><ele>134.0</ele><time>2026-05-03T07:53:32Z</time></trkpt><trkpt lat="41.01471673712611" lon="8.936025315971447"><ele>134.0</ele><time>2026-05-03T07:53:33Z</time></trkpt><trkpt lat="41.014652749244014" lon="8.935804791015094"><ele>134.0</ele><time>2026-05-03T07:53:34Z</time></trkpt><trkpt lat="41.01459031565091" lon="8.935584910945852"><ele>132.33333333333331</ele><time>2026-05-03T07:53:35Z</time></trkpt><trkpt lat="41.01452319977171" lon="8.935362095198663"><ele>130.66666666666666</ele><time>2026-05-03T07:53:36Z</time></trkpt><trkpt lat="41.01443851818167" lon="8.935139326216136"><ele>129.0</ele><time>2026-05-03T07:53:37Z</time></trkpt><trkpt lat="41.014333242665884" lon="8.934920155683342"><ele>128.66666666666666</ele><time>2026-05-03T07:53:38Z</time></trkpt><trkpt lat="41.01422362405557" lon="8.934695631039553"><ele>128.33333333333331</ele><time>2026-05-03T07:53:39Z</time></trkpt><trkpt lat="41.01410862449138" lon="8.934468536193782"><ele>128.0</ele><time>2026-05-03T07:53:40Z</time></trkpt><trkpt lat="41.013992404428336" lon="8.934237326589248"><ele>127.0</ele><time>2026-05-03T07:53:41Z</time></trkpt><trkpt lat="41.013874330582574" lon="8.934003033098195"><ele>126.0</ele><time>2026-05-03T07:53:42Z</time></trkpt><trkpt lat="41.0137574373022" lon="8.933765166913235"><ele>125.0</ele><time>2026-05-03T07:53:43Z</time></trkpt><trkpt lat="41.01364618465195" lon="8.933535272589713"><ele>126.33333333333333</ele><time>2026-05-03T07:53:44Z</time></trkpt><trkpt lat="41.01353525429665" lon="8.933311184606659"><ele>127.66666666666666</ele><time>2026-05-03T07:53:45Z</time></trkpt><trkpt lat="41.013423273264046" lon="8.933086487944278"><ele>129.0</ele><time>2026-05-03T07:53:46Z</time></trkpt><trkpt lat="41.01331179162529" lon="8.932864254065446"><ele>129.0</ele><time>2026-05-03T07:53:47Z</time></trkpt><trkpt lat="41.013195167298164" lon="8.93264680631664"><ele>129.0</ele><time>2026-05-03T07:53:48Z</time></trkpt><trkpt lat="41.013079785336075" lon="8.932434632766103"><ele>129.0</ele><time>2026-05-03T07:53:49Z</time></trkpt><trkpt lat="41.012962170355635" lon="8.932221593122552"><ele>126.66666666666666</ele><time>2026-05-03T07:53:50Z</time></trkpt><trkpt lat="41.012845424602396" lon="8.932009940919798"><ele>124.33333333333333</ele><time>2026-05-03T07:53:51Z</time></trkpt><trkpt lat="41.01272624484976" lon="8.931796041599691"><ele>122.0</ele><time>2026-05-03T07:53:52Z</time></trkpt><trkpt lat="41.01260509953655" lon="8.931585213469939"><ele>120.33333333333333</ele><time>2026-05-03T07:53:53Z</time></trkpt><trkpt lat="41.01248419129002" lon="8.931370429479118"><ele>118.66666666666666</ele><time>2026-05-03T07:53:54Z</time></trkpt><trkpt lat="41.0123646708227" lon="8.931155148270019"><ele>117.0</ele><time>2026-05-03T07:53:55Z</time></trkpt><trkpt lat="41.01224180320175" lon="8.930941307781778"><ele>113.0</ele><time>2026-05-03T07:53:56Z</time></trkpt><trkpt lat="41.01211643591933" lon="8.93072229633682"><ele>109.0</ele><time>2026-05-03T07:53:57Z</time></trkpt><trkpt lat="41.0119926297887" lon="8.930500315056475"><ele>105.0</ele><time>2026-05-03T07:53:58Z</time></trkpt><trkpt lat="41.01186561277145" lon="8.930273463954432"><ele>103.66666666666666</ele><time>2026-05-03T07:53:59Z</time></trkpt><trkpt lat="41.011740605312355" lon="8.930046769983104"><ele>102.33333333333333</ele><time>2026-05-03T07:54:00Z</time></trkpt><trkpt lat="41.011613266357976" lon="8.929819882660347"><ele>101.0</ele><time>2026-05-03T07:54:01Z</time></trkpt><trkpt lat="41.011488495157394" lon="8.929594474914662"><ele>102.33333333333333</ele><time>2026-05-03T07:54:02Z</time></trkpt><trkpt lat="41.011363222348955" lon="8.929373144134942"><ele>103.66666666666666</ele><time>2026-05-03T07:54:03Z</time></trkpt><trkpt lat="41.01123813031662" lon="8.929152718297603"><ele>105.0</ele><time>2026-05-03T07:54:04Z</time></trkpt><trkpt lat="41.01111694266463" lon="8.92893315406582"><ele>105.0</ele><time>2026-05-03T07:54:05Z</time></trkpt><trkpt lat="41.01100270224559" lon="8.928723420202244"><ele>105.0</ele><time>2026-05-03T07:54:06Z</time></trkpt><trkpt lat="41.01088615888403" lon="8.928518633959847"><ele>105.0</ele><time>2026-05-03T07:54:07Z</time></trkpt><trkpt lat="41.010764250511976" lon="8.92832091860465"><ele>107.66666666666666</ele><time>2026-05-03T07:54:08Z</time></trkpt><trkpt lat="41.01063083987742" lon="8.928136741832374"><ele>110.33333333333333</ele><time>2026-05-03T07:54:09Z</time></trkpt><trkpt lat="41.01048896431873" lon="8.92795924610016"><ele>113.0</ele><time>2026-05-03T07:54:10Z</time></trkpt><trkpt lat="41.01033749135732" lon="8.927787964219675"><ele>113.0</ele><time>2026-05-03T07:54:11Z</time></trkpt><trkpt lat="41.01018335934504" lon="8.927620533550394"><ele>113.0</ele><time>2026-05-03T07:54:12Z</time></trkpt><trkpt lat="41.010023859173295" lon="8.927461129498354"><ele>113.0</ele><time>2026-05-03T07:54:13Z</time></trkpt><trkpt lat="41.0098583024218" lon="8.927321726256581"><ele>110.66666666666666</ele><time>2026-05-03T07:54:14Z</time></trkpt><trkpt lat="41.009695727618464" lon="8.927200891458453"><ele>108.33333333333334</ele><time>2026-05-03T07:54:15Z</time></trkpt><trkpt lat="41.00953611959483" lon="8.927086500773992"><ele>106.0</ele><time>2026-05-03T07:54:16Z</time></trkpt><trkpt lat="41.00939130542288" lon="8.926960007057366"><ele>106.0</ele><time>2026-05-03T07:54:17Z</time></trkpt><trkpt lat="41.00928487589372" lon="8.9267846632129"><ele>106.0</ele><time>2026-05-03T07:54:18Z</time></trkpt><trkpt lat="41.00917126807495" lon="8.926613017840642"><ele>106.0</ele><time>2026-05-03T07:54:19Z</time></trkpt><trkpt lat="41.009072429468084" lon="8.926426817640163"><ele>99.33333333333334</ele><time>2026-05-03T07:54:20Z</time></trkpt><trkpt lat="41.00898469206037" lon="8.926234294705024"><ele>92.66666666666667</ele><time>2026-05-03T07:54:21Z</time></trkpt><trkpt lat="41.00890670459416" lon="8.926039716225139"><ele>86.0</ele><time>2026-05-03T07:54:22Z</time></trkpt><trkpt lat="41.008836456665634" lon="8.925850056189216"><ele>85.33333333333334</ele><time>2026-05-03T07:54:23Z</time></trkpt><trkpt lat="41.008761481945164" lon="8.925661474730886"><ele>84.66666666666667</ele><time>2026-05-03T07:54:24Z</time></trkpt><trkpt lat="41.00868222761732" lon="8.92547187481154"><ele>84.0</ele><time>2026-05-03T07:54:25Z</time></trkpt><trkpt lat="41.008603429402235" lon="8.925283372554942"><ele>84.0</ele><time>2026-05-03T07:54:26Z</time></trkpt><trkpt lat="41.00852628834642" lon="8.925106062386066"><ele>84.0</ele><time>2026-05-03T07:54:27Z</time></trkpt><trkpt lat="41.00844141545406" lon="8.924944393004285"><ele>84.0</ele><time>2026-05-03T07:54:28Z</time></trkpt><trkpt lat="41.00832952235374" lon="8.924820205568773"><ele>84.0</ele><time>2026-05-03T07:54:29Z</time></trkpt><trkpt lat="41.00819152911887" lon="8.92473797483757"><ele>81.0</ele><time>2026-05-03T07:54:30Z</time></trkpt><trkpt lat="41.008037856838754" lon="8.924692006450817"><ele>78.0</ele><time>2026-05-03T07:54:31Z</time></trkpt><trkpt lat="41.00789969667791" lon="8.924605939347362"><ele>75.0</ele><time>2026-05-03T07:54:32Z</time></trkpt><trkpt lat="41.00781043830119" lon="8.924446382149831"><ele>75.0</ele><time>2026-05-03T07:54:33Z</time></trkpt><trkpt lat="41.007746130797955" lon="8.924264263281902"><ele>75.0</ele><time>2026-05-03T07:54:34Z</time></trkpt><trkpt lat="41.00766624304904" lon="8.924083086591908"><ele>75.0</ele><time>2026-05-03T07:54:35Z</time></trkpt><trkpt lat="41.00761527739474" lon="8.923908638244475"><ele>75.25</ele><time>2026-05-03T07:54:36Z</time></trkpt><trkpt lat="41.007569586961196" lon="8.923752275003821"><ele>75.5</ele><time>2026-05-03T07:54:37Z</time></trkpt><trkpt lat="41.00754775287823" lon="8.923601454939705"><ele>75.75</ele><time>2026-05-03T07:54:38Z</time></trkpt><trkpt lat="41.00757211509297" lon="8.92343666375221"><ele>76.0</ele><time>2026-05-03T07:54:39Z</time></trkpt><trkpt lat="41.00765063745434" lon="8.923250790823067"><ele>77.75</ele><time>2026-05-03T07:54:40Z</time></trkpt><trkpt lat="41.007713389758244" lon="8.923069735323864"><ele>79.5</ele><time>2026-05-03T07:54:41Z</time></trkpt><trkpt lat="41.00776319024665" lon="8.922890657859451"><ele>81.25</ele><time>2026-05-03T07:54:42Z</time></trkpt><trkpt lat="41.00777328259434" lon="8.922703717048533"><ele>83.0</ele><time>2026-05-03T07:54:43Z</time></trkpt><trkpt lat="41.00774085078288" lon="8.92251204395729"><ele>83.0</ele><time>2026-05-03T07:54:44Z</time></trkpt><trkpt lat="41.00769566088786" lon="8.92232392814712"><ele>83.0</ele><time>2026-05-03T07:54:45Z</time></trkpt><trkpt lat="41.007645022444464" lon="8.922135248268372"><ele>83.0</ele><time>2026-05-03T07:54:46Z</time></trkpt><trkpt lat="41.00757741982459" lon="8.921947189046296"><ele>83.0</ele><time>2026-05-03T07:54:47Z</time></trkpt><trkpt lat="41.007499632625404" lon="8.921762452744554"><ele>83.0</ele><time>2026-05-03T07:54:48Z</time></trkpt><trkpt lat="41.00741976510837" lon="8.921574047870223"><ele>83.0</ele><time>2026-05-03T07:54:49Z</time></trkpt><trkpt lat="41.00733650513208" lon="8.921381153459645"><ele>82.33333333333334</ele><time>2026-05-03T07:54:50Z</time></trkpt><trkpt lat="41.007250619392494" lon="8.92118750175085"><ele>81.66666666666667</ele><time>2026-05-03T07:54:51Z</time></trkpt><trkpt lat="41.007167161314825" lon="8.921000270670737"><ele>81.0</ele><time>2026-05-03T07:54:52Z</time></trkpt><trkpt lat="41.00709026681796" lon="8.920829397340553"><ele>81.0</ele><time>2026-05-03T07:54:53Z</time></trkpt><trkpt lat="41.00703911210135" lon="8.920657641835504"><ele>81.0</ele><time>2026-05-03T07:54:54Z</time></trkpt><trkpt lat="41.00702115659317" lon="8.920483539065916"><ele>81.0</ele><time>2026-05-03T07:54:55Z</time></trkpt><trkpt lat="41.00703711981307" lon="8.920313013823707"><ele>81.0</ele><time>2026-05-03T07:54:56Z</time></trkpt><trkpt lat="41.00709410032313" lon="8.920149058762712"><ele>82.0</ele><time>2026-05-03T07:54:57Z</time></trkpt><trkpt lat="41.00717498915393" lon="8.919991139748554"><ele>83.0</ele><time>2026-05-03T07:54:58Z</time></trkpt><trkpt lat="41.00728386849352" lon="8.919851748097166"><ele>84.0</ele><time>2026-05-03T07:54:59Z</time></trkpt><trkpt lat="41.00741535761449" lon="8.91976216710704"><ele>85.0</ele><time>2026-05-03T07:55:00Z</time></trkpt><trkpt lat="41.00756268031861" lon="8.919717688502294"><ele>82.0</ele><time>2026-05-03T07:55:01Z</time></trkpt><trkpt lat="41.00771228410232" lon="8.919693634723028"><ele>79.0</ele><time>2026-05-03T07:55:02Z</time></trkpt><trkpt lat="41.00786778404164" lon="8.919664454274287"><ele>76.0</ele><time>2026-05-03T07:55:03Z</time></trkpt><trkpt lat="41.00802534784074" lon="8.919637403330684"><ele>76.0</ele><time>2026-05-03T07:55:04Z</time></trkpt><trkpt lat="41.00818356326407" lon="8.919603876833476"><ele>76.0</ele><time>2026-05-03T07:55:05Z</time></trkpt><trkpt lat="41.00833602492027" lon="8.919554136475194"><ele>76.0</ele><time>2026-05-03T07:55:06Z</time></trkpt><trkpt lat="41.008479933824134" lon="8.919493844577406"><ele>75.75</ele><time>2026-05-03T07:55:07Z</time></trkpt><trkpt lat="41.00861489051229" lon="8.919436655646809"><ele>75.5</ele><time>2026-05-03T07:55:08Z</time></trkpt><trkpt lat="41.00873877283397" lon="8.919360536914908"><ele>75.25</ele><time>2026-05-03T07:55:09Z</time></trkpt><trkpt lat="41.00884917700916" lon="8.91925775591325"><ele>75.0</ele><time>2026-05-03T07:55:10Z</time></trkpt><trkpt lat="41.00894231557415" lon="8.91911926685737"><ele>75.5</ele><time>2026-05-03T07:55:11Z</time></trkpt><trkpt lat="41.00901477490307" lon="8.918957746885571"><ele>76.0</ele><time>2026-05-03T07:55:12Z</time></trkpt><trkpt lat="41.0090763441018" lon="8.918786978383029"><ele>76.5</ele><time>2026-05-03T07:55:13Z</time></trkpt><trkpt lat="41.00913612977579" lon="8.918610094936703"><ele>77.0</ele><time>2026-05-03T07:55:14Z</time></trkpt><trkpt lat="41.0091900937082" lon="8.918430945733379"><ele>80.66666666666667</ele><time>2026-05-03T07:55:15Z</time></trkpt><trkpt lat="41.00923458498581" lon="8.918243820257588"><ele>84.33333333333333</ele><time>2026-05-03T07:55:16Z</time></trkpt><trkpt lat="41.00925899896924" lon="8.918041902094464"><ele>88.0</ele><time>2026-05-03T07:55:17Z</time></trkpt><trkpt lat="41.009256470452925" lon="8.917831495541408"><ele>88.0</ele><time>2026-05-03T07:55:18Z</time></trkpt><trkpt lat="41.009235454411204" lon="8.917617494268363"><ele>88.0</ele><time>2026-05-03T07:55:19Z</time></trkpt><trkpt lat="41.00920726775568" lon="8.91740537401658"><ele>88.0</ele><time>2026-05-03T07:55:20Z</time></trkpt><trkpt lat="41.00920811383465" lon="8.917189276026745"><ele>89.66666666666666</ele><time>2026-05-03T07:55:21Z</time></trkpt><trkpt lat="41.00917769961981" lon="8.916960946154427"><ele>91.33333333333333</ele><time>2026-05-03T07:55:22Z</time></trkpt><trkpt lat="41.00914802820824" lon="8.916726633027407"><ele>93.0</ele><time>2026-05-03T07:55:23Z</time></trkpt><trkpt lat="41.00912046194187" lon="8.916491072719937"><ele>97.0</ele><time>2026-05-03T07:55:24Z</time></trkpt><trkpt lat="41.009087244826475" lon="8.916257095996613"><ele>101.0</ele><time>2026-05-03T07:55:25Z</time></trkpt><trkpt lat="41.00905546293243" lon="8.91602738624202"><ele>105.0</ele><time>2026-05-03T07:55:26Z</time></trkpt><trkpt lat="41.0090338556986" lon="8.915802509004399"><ele>106.33333333333334</ele><time>2026-05-03T07:55:27Z</time></trkpt><trkpt lat="41.00906320485672" lon="8.915576655220857"><ele>107.66666666666667</ele><time>2026-05-03T07:55:28Z</time></trkpt><trkpt lat="41.00909011574974" lon="8.915359706013277"><ele>109.0</ele><time>2026-05-03T07:55:29Z</time></trkpt><trkpt lat="41.00911783720402" lon="8.915136824005902"><ele>110.33333333333334</ele><time>2026-05-03T07:55:30Z</time></trkpt><trkpt lat="41.00914477595848" lon="8.914920409116522"><ele>111.66666666666666</ele><time>2026-05-03T07:55:31Z</time></trkpt><trkpt lat="41.009171394769865" lon="8.914707214921942"><ele>113.0</ele><time>2026-05-03T07:55:32Z</time></trkpt><trkpt lat="41.00918528525477" lon="8.914487111002938"><ele>111.0</ele><time>2026-05-03T07:55:33Z</time></trkpt><trkpt lat="41.0092141815852" lon="8.914279571258334"><ele>109.0</ele><time>2026-05-03T07:55:34Z</time></trkpt><trkpt lat="41.00924320350573" lon="8.914067123972622"><ele>107.0</ele><time>2026-05-03T07:55:35Z</time></trkpt><trkpt lat="41.009269721522706" lon="8.913858030116092"><ele>107.0</ele><time>2026-05-03T07:55:36Z</time></trkpt><trkpt lat="41.00928355156045" lon="8.913644139533256"><ele>107.0</ele><time>2026-05-03T07:55:37Z</time></trkpt><trkpt lat="41.009287144157845" lon="8.913439860634352"><ele>107.0</ele><time>2026-05-03T07:55:38Z</time></trkpt><trkpt lat="41.009251492702745" lon="8.913230819319184"><ele>107.33333333333333</ele><time>2026-05-03T07:55:39Z</time></trkpt><trkpt lat="41.00921035383369" lon="8.91302899446258"><ele>107.66666666666666</ele><time>2026-05-03T07:55:40Z</time></trkpt><trkpt lat="41.009167574661674" lon="8.912829078467732"><ele>108.0</ele><time>2026-05-03T07:55:41Z</time></trkpt><trkpt lat="41.009124339424424" lon="8.91262570900597"><ele>109.0</ele><time>2026-05-03T07:55:42Z</time></trkpt><trkpt lat="41.00907505431269" lon="8.912420755662547"><ele>110.0</ele><time>2026-05-03T07:55:43Z</time></trkpt><trkpt lat="41.00903478733794" lon="8.912216654985027"><ele>111.0</ele><time>2026-05-03T07:55:44Z</time></trkpt><trkpt lat="41.008987842387626" lon="8.91201429969791"><ele>111.0</ele><time>2026-05-03T07:55:45Z</time></trkpt><trkpt lat="41.00892077736284" lon="8.911828416496334"><ele>111.0</ele><time>2026-05-03T07:55:46Z</time></trkpt><trkpt lat="41.00883370075543" lon="8.91169192043198"><ele>111.0</ele><time>2026-05-03T07:55:47Z</time></trkpt><trkpt lat="41.00873111136251" lon="8.911588496343741"><ele>111.0</ele><time>2026-05-03T07:55:48Z</time></trkpt><trkpt lat="41.00860822129379" lon="8.91153354414648"><ele>110.75</ele><time>2026-05-03T07:55:49Z</time></trkpt><trkpt lat="41.00847339538293" lon="8.911537186024983"><ele>110.5</ele><time>2026-05-03T07:55:50Z</time></trkpt><trkpt lat="41.008332156548754" lon="8.91154587552517"><ele>110.25</ele><time>2026-05-03T07:55:51Z</time></trkpt><trkpt lat="41.00818202590535" lon="8.911552023910414"><ele>110.0</ele><time>2026-05-03T07:55:52Z</time></trkpt><trkpt lat="41.00802967217459" lon="8.911557696769993"><ele>110.75</ele><time>2026-05-03T07:55:53Z</time></trkpt><trkpt lat="41.00789734497957" lon="8.91159885881449"><ele>111.5</ele><time>2026-05-03T07:55:54Z</time></trkpt><trkpt lat="41.0078052438872" lon="8.911542731543781"><ele>112.25</ele><time>2026-05-03T07:55:55Z</time></trkpt><trkpt lat="41.007722987462685" lon="8.91154134898803"><ele>113.0</ele><time>2026-05-03T07:55:56Z</time></trkpt><trkpt lat="41.007458316482" lon="8.91179363151034"><ele>114.33333333333333</ele><time>2026-05-03T07:55:57Z</time></trkpt><trkpt lat="41.00729776417059" lon="8.911873327236652"><ele>115.66666666666666</ele><time>2026-05-03T07:55:58Z</time></trkpt><trkpt lat="41.007134547599414" lon="8.911949857883116"><ele>117.0</ele><time>2026-05-03T07:55:59Z</time></trkpt><trkpt lat="41.006970304959644" lon="8.912031296805786"><ele>117.0</ele><time>2026-05-03T07:56:00Z</time></trkpt><trkpt lat="41.00680666007814" lon="8.912113567683152"><ele>117.0</ele><time>2026-05-03T07:56:01Z</time></trkpt><trkpt lat="41.00663939132356" lon="8.91217113186394"><ele>117.0</ele><time>2026-05-03T07:56:02Z</time></trkpt><trkpt lat="41.00648355237689" lon="8.91224771840269"><ele>117.75</ele><time>2026-05-03T07:56:03Z</time></trkpt><trkpt lat="41.00633195418463" lon="8.912312982408768"><ele>118.5</ele><time>2026-05-03T07:56:04Z</time></trkpt><trkpt lat="41.00619603799815" lon="8.912355373622068"><ele>119.25</ele><time>2026-05-03T07:56:05Z</time></trkpt><trkpt lat="41.00605900838299" lon="8.912367688274017"><ele>120.0</ele><time>2026-05-03T07:56:06Z</time></trkpt><trkpt lat="41.00592007227707" lon="8.912442017254397"><ele>122.33333333333334</ele><time>2026-05-03T07:56:07Z</time></trkpt><trkpt lat="41.00579587489763" lon="8.912296382286918"><ele>124.66666666666667</ele><time>2026-05-03T07:56:08Z</time></trkpt><trkpt lat="41.00570210482642" lon="8.912168985819179"><ele>127.0</ele><time>2026-05-03T07:56:09Z</time></trkpt><trkpt lat="41.00563237226276" lon="8.911993498924371"><ele>127.0</ele><time>2026-05-03T07:56:10Z</time></trkpt><trkpt lat="41.00557404962455" lon="8.91179278792242"><ele>127.0</ele><time>2026-05-03T07:56:11Z</time></trkpt><trkpt lat="41.00553184187951" lon="8.911571375120356"><ele>127.0</ele><time>2026-05-03T07:56:12Z</time></trkpt><trkpt lat="41.00545012749694" lon="8.911373502179998"><ele>127.0</ele><time>2026-05-03T07:56:13Z</time></trkpt><trkpt lat="41.00536673794494" lon="8.911171571898224"><ele>127.0</ele><time>2026-05-03T07:56:14Z</time></trkpt><trkpt lat="41.00528421996655" lon="8.91097175218473"><ele>127.0</ele><time>2026-05-03T07:56:15Z</time></trkpt><trkpt lat="41.00520019732839" lon="8.910769461910654"><ele>127.33333333333334</ele><time>2026-05-03T07:56:16Z</time></trkpt><trkpt lat="41.005101757562734" lon="8.910579768569102"><ele>127.66666666666666</ele><time>2026-05-03T07:56:17Z</time></trkpt><trkpt lat="41.00502014280744" lon="8.910380369456794"><ele>128.0</ele><time>2026-05-03T07:56:18Z</time></trkpt><trkpt lat="41.00494370906648" lon="8.910184406105904"><ele>130.75</ele><time>2026-05-03T07:56:19Z</time></trkpt><trkpt lat="41.00487358469221" lon="8.910014638216262"><ele>133.5</ele><time>2026-05-03T07:56:20Z</time></trkpt><trkpt lat="41.004811332204866" lon="8.90985737557261"><ele>136.25</ele><time>2026-05-03T07:56:21Z</time></trkpt><trkpt lat="41.00474822167262" lon="8.909698168153534"><ele>139.0</ele><time>2026-05-03T07:56:22Z</time></trkpt><trkpt lat="41.004678056589654" lon="8.909541008205323"><ele>139.0</ele><time>2026-05-03T07:56:23Z</time></trkpt><trkpt lat="41.00459101204237" lon="8.909397910670984"><ele>139.0</ele><time>2026-05-03T07:56:24Z</time></trkpt><trkpt lat="41.00447416298404" lon="8.909281561910129"><ele>139.0</ele><time>2026-05-03T07:56:25Z</time></trkpt><trkpt lat="41.00433784635761" lon="8.909195478551279"><ele>139.0</ele><time>2026-05-03T07:56:26Z</time></trkpt><trkpt lat="41.00418778395352" lon="8.909135492361308"><ele>140.66666666666669</ele><time>2026-05-03T07:56:27Z</time></trkpt><trkpt lat="41.004036223992586" lon="8.909081172731279"><ele>142.33333333333334</ele><time>2026-05-03T07:56:28Z</time></trkpt><trkpt lat="41.00388653149243" lon="8.909019759853791"><ele>144.0</ele><time>2026-05-03T07:56:29Z</time></trkpt><trkpt lat="41.00373791257356" lon="8.908957673450104"><ele>144.0</ele><time>2026-05-03T07:56:30Z</time></trkpt><trkpt lat="41.00358962113066" lon="8.908900860366586"><ele>144.0</ele><time>2026-05-03T07:56:31Z</time></trkpt><trkpt lat="41.00344525392383" lon="8.90881883232479"><ele>144.0</ele><time>2026-05-03T07:56:32Z</time></trkpt><trkpt lat="41.00329614654474" lon="8.908772147123848"><ele>145.75</ele><time>2026-05-03T07:56:33Z</time></trkpt><trkpt lat="41.0031545558928" lon="8.908707312291565"><ele>147.5</ele><time>2026-05-03T07:56:34Z</time></trkpt><trkpt lat="41.00301755010065" lon="8.908660386459093"><ele>149.25</ele><time>2026-05-03T07:56:35Z</time></trkpt><trkpt lat="41.00287789454492" lon="8.908651537945778"><ele>151.0</ele><time>2026-05-03T07:56:36Z</time></trkpt><trkpt lat="41.00273697530444" lon="8.90867629128639"><ele>151.0</ele><time>2026-05-03T07:56:37Z</time></trkpt><trkpt lat="41.002599446752264" lon="8.908721672564841"><ele>151.0</ele><time>2026-05-03T07:56:38Z</time></trkpt><trkpt lat="41.00245634255109" lon="8.908739802377063"><ele>151.0</ele><time>2026-05-03T07:56:39Z</time></trkpt><trkpt lat="41.002317172422806" lon="8.908778890175146"><ele>151.0</ele><time>2026-05-03T07:56:40Z</time></trkpt><trkpt lat="41.00217660321639" lon="8.908815416688753"><ele>151.5</ele><time>2026-05-03T07:56:41Z</time></trkpt><trkpt lat="41.00204720754858" lon="8.908843374285365"><ele>152.0</ele><time>2026-05-03T07:56:42Z</time></trkpt><trkpt lat="41.001932206955445" lon="8.90886389136998"><ele>152.5</ele><time>2026-05-03T07:56:43Z</time></trkpt><trkpt lat="41.00182794948235" lon="8.908856358228228"><ele>153.0</ele><time>2026-05-03T07:56:44Z</time></trkpt><trkpt lat="41.00173209550275" lon="8.9088103737633"><ele>153.0</ele><time>2026-05-03T07:56:45Z</time></trkpt><trkpt lat="41.00164253047484" lon="8.908732812782436"><ele>153.0</ele><time>2026-05-03T07:56:46Z</time></trkpt><trkpt lat="41.001589766474154" lon="8.908619980926003"><ele>153.0</ele><time>2026-05-03T07:56:47Z</time></trkpt><trkpt lat="41.0015594501374" lon="8.908486763998168"><ele>153.0</ele><time>2026-05-03T07:56:48Z</time></trkpt><trkpt lat="41.00154845455734" lon="8.908337564371537"><ele>153.0</ele><time>2026-05-03T07:56:49Z</time></trkpt><trkpt lat="41.001607456219304" lon="8.908194404206533"><ele>151.25</ele><time>2026-05-03T07:56:50Z</time></trkpt><trkpt lat="41.00167459959092" lon="8.908065345173963"><ele>149.5</ele><time>2026-05-03T07:56:51Z</time></trkpt><trkpt lat="41.00179111008372" lon="8.90796699310906"><ele>147.75</ele><time>2026-05-03T07:56:52Z</time></trkpt><trkpt lat="41.00191874839939" lon="8.907871706007851"><ele>146.0</ele><time>2026-05-03T07:56:53Z</time></trkpt><trkpt lat="41.002049002048615" lon="8.907768914093435"><ele>146.0</ele><time>2026-05-03T07:56:54Z</time></trkpt><trkpt lat="41.00216255908667" lon="8.907661605025883"><ele>146.0</ele><time>2026-05-03T07:56:55Z</time></trkpt><trkpt lat="41.002260541534184" lon="8.907538190719706"><ele>146.0</ele><time>2026-05-03T07:56:56Z</time></trkpt><trkpt lat="41.00233128853332" lon="8.907387259308955"><ele>146.0</ele><time>2026-05-03T07:56:57Z</time></trkpt><trkpt lat="41.00237814621752" lon="8.907218082172886"><ele>150.0</ele><time>2026-05-03T07:56:58Z</time></trkpt><trkpt lat="41.00240247837167" lon="8.907045362484107"><ele>154.0</ele><time>2026-05-03T07:56:59Z</time></trkpt><trkpt lat="41.002400312944104" lon="8.906862128239782"><ele>158.0</ele><time>2026-05-03T07:57:00Z</time></trkpt><trkpt lat="41.002371766081694" lon="8.90667542677201"><ele>162.0</ele><time>2026-05-03T07:57:01Z</time></trkpt><trkpt lat="41.00233952075478" lon="8.906490800205384"><ele>163.25</ele><time>2026-05-03T07:57:02Z</time></trkpt><trkpt lat="41.00230701556066" lon="8.906300774204315"><ele>164.5</ele><time>2026-05-03T07:57:03Z</time></trkpt><trkpt lat="41.00227917884932" lon="8.906125930972506"><ele>165.75</ele><time>2026-05-03T07:57:04Z</time></trkpt><trkpt lat="41.002267369318545" lon="8.905951408414118"><ele>167.0</ele><time>2026-05-03T07:57:05Z</time></trkpt><trkpt lat="41.002276895614195" lon="8.90579565505614"><ele>168.25</ele><time>2026-05-03T07:57:06Z</time></trkpt><trkpt lat="41.002313467788376" lon="8.905665958352726"><ele>169.5</ele><time>2026-05-03T07:57:07Z</time></trkpt><trkpt lat="41.00239756500245" lon="8.905537287638163"><ele>170.75</ele><time>2026-05-03T07:57:08Z</time></trkpt><trkpt lat="41.002504271385135" lon="8.905433944150854"><ele>172.0</ele><time>2026-05-03T07:57:09Z</time></trkpt><trkpt lat="41.00261113583374" lon="8.905349678831538"><ele>170.5</ele><time>2026-05-03T07:57:10Z</time></trkpt><trkpt lat="41.00270173867019" lon="8.905243816080953"><ele>169.0</ele><time>2026-05-03T07:57:11Z</time></trkpt><trkpt lat="41.00275900915757" lon="8.905110276589152"><ele>167.5</ele><time>2026-05-03T07:57:12Z</time></trkpt><trkpt lat="41.002766356891925" lon="8.904942922324816"><ele>166.0</ele><time>2026-05-03T07:57:13Z</time></trkpt><trkpt lat="41.002743660334495" lon="8.904770238007753"><ele>166.0</ele><time>2026-05-03T07:57:14Z</time></trkpt><trkpt lat="41.00268456772653" lon="8.904619358439676"><ele>166.0</ele><time>2026-05-03T07:57:15Z</time></trkpt><trkpt lat="41.00258930603022" lon="8.904501442108128"><ele>166.0</ele><time>2026-05-03T07:57:16Z</time></trkpt><trkpt lat="41.00250955346323" lon="8.904372372290451"><ele>166.0</ele><time>2026-05-03T07:57:17Z</time></trkpt><trkpt lat="41.002441298912096" lon="8.90423418498667"><ele>168.75</ele><time>2026-05-03T07:57:18Z</time></trkpt><trkpt lat="41.002399793132184" lon="8.904074296679962"><ele>171.5</ele><time>2026-05-03T07:57:19Z</time></trkpt><trkpt lat="41.002384722034435" lon="8.903905273713429"><ele>174.25</ele><time>2026-05-03T07:57:20Z</time></trkpt><trkpt lat="41.002413981151335" lon="8.903750013681158"><ele>177.0</ele><time>2026-05-03T07:57:21Z</time></trkpt><trkpt lat="41.0024786502992" lon="8.903621075910166"><ele>175.5</ele><time>2026-05-03T07:57:22Z</time></trkpt><trkpt lat="41.00256748961772" lon="8.903490886371884"><ele>174.0</ele><time>2026-05-03T07:57:23Z</time></trkpt><trkpt lat="41.00267775469896" lon="8.903382749902354"><ele>172.5</ele><time>2026-05-03T07:57:24Z</time></trkpt><trkpt lat="41.00275742042219" lon="8.903253108532178"><ele>171.0</ele><time>2026-05-03T07:57:25Z</time></trkpt><trkpt lat="41.00279796410916" lon="8.903090535034819"><ele>171.0</ele><time>2026-05-03T07:57:26Z</time></trkpt><trkpt lat="41.00280188139088" lon="8.90290425296103"><ele>171.0</ele><time>2026-05-03T07:57:27Z</time></trkpt><trkpt lat="41.00278561021434" lon="8.902717452725733"><ele>171.0</ele><time>2026-05-03T07:57:28Z</time></trkpt><trkpt lat="41.002755216182976" lon="8.902537004917958"><ele>171.0</ele><time>2026-05-03T07:57:29Z</time></trkpt><trkpt lat="41.00270059085586" lon="8.902369782546675"><ele>171.75</ele><time>2026-05-03T07:57:30Z</time></trkpt><trkpt lat="41.0026169695997" lon="8.902214442875893"><ele>172.5</ele><time>2026-05-03T07:57:31Z</time></trkpt><trkpt lat="41.002517313947344" lon="8.902073379590352"><ele>173.25</ele><time>2026-05-03T07:57:32Z</time></trkpt><trkpt lat="41.00241288259181" lon="8.901928801637483"><ele>174.0</ele><time>2026-05-03T07:57:33Z</time></trkpt><trkpt lat="41.00231161941586" lon="8.901780307249735"><ele>175.75</ele><time>2026-05-03T07:57:34Z</time></trkpt><trkpt lat="41.00221039606723" lon="8.901646294435741"><ele>177.5</ele><time>2026-05-03T07:57:35Z</time></trkpt><trkpt lat="41.00210388254363" lon="8.901534004928884"><ele>179.25</ele><time>2026-05-03T07:57:36Z</time></trkpt><trkpt lat="41.00198226117816" lon="8.901459710578077"><ele>181.0</ele><time>2026-05-03T07:57:37Z</time></trkpt><trkpt lat="41.00184411738542" lon="8.901429779072515"><ele>181.0</ele><time>2026-05-03T07:57:38Z</time></trkpt><trkpt lat="41.00170251501997" lon="8.901431946666248"><ele>181.0</ele><time>2026-05-03T07:57:39Z</time></trkpt><trkpt lat="41.00155837539753" lon="8.901475879960252"><ele>181.0</ele><time>2026-05-03T07:57:40Z</time></trkpt><trkpt lat="41.00141305911956" lon="8.901531961757824"><ele>181.0</ele><time>2026-05-03T07:57:41Z</time></trkpt><trkpt lat="41.00126259661496" lon="8.901586995663488"><ele>181.75</ele><time>2026-05-03T07:57:42Z</time></trkpt><trkpt lat="41.0011053308327" lon="8.901612947097755"><ele>182.5</ele><time>2026-05-03T07:57:43Z</time></trkpt><trkpt lat="41.0009584794509" lon="8.901664448426942"><ele>183.25</ele><time>2026-05-03T07:57:44Z</time></trkpt><trkpt lat="41.00082402314703" lon="8.901709204341723"><ele>184.0</ele><time>2026-05-03T07:57:45Z</time></trkpt><trkpt lat="41.000690613088786" lon="8.901751569979718"><ele>187.25</ele><time>2026-05-03T07:57:46Z</time></trkpt><trkpt lat="41.00055880272636" lon="8.9018215012046"><ele>190.5</ele><time>2026-05-03T07:57:47Z</time></trkpt><trkpt lat="41.00042846156447" lon="8.901896175172826"><ele>193.75</ele><time>2026-05-03T07:57:48Z</time></trkpt><trkpt lat="41.000311351869996" lon="8.9020074406366"><ele>197.0</ele><time>2026-05-03T07:57:49Z</time></trkpt><trkpt lat="41.00022087459952" lon="8.902159298599658"><ele>197.0</ele><time>2026-05-03T07:57:50Z</time></trkpt><trkpt lat="41.000161042996105" lon="8.902335384514123"><ele>197.0</ele><time>2026-05-03T07:57:51Z</time></trkpt><trkpt lat="41.00013813530648" lon="8.902534381506028"><ele>197.0</ele><time>2026-05-03T07:57:52Z</time></trkpt><trkpt lat="41.00012544105808" lon="8.902731913547361"><ele>197.0</ele><time>2026-05-03T07:57:53Z</time></trkpt><trkpt lat="41.00012251715664" lon="8.90292896958464"><ele>197.25</ele><time>2026-05-03T07:57:54Z</time></trkpt><trkpt lat="41.000121724425405" lon="8.903114792406658"><ele>197.5</ele><time>2026-05-03T07:57:55Z</time></trkpt><trkpt lat="41.00010980599962" lon="8.903277779755161"><ele>197.75</ele><time>2026-05-03T07:57:56Z</time></trkpt><trkpt lat="41.00005349081653" lon="8.903423807526886"><ele>198.0</ele><time>2026-05-03T07:57:57Z</time></trkpt><trkpt lat="40.99997926703419" lon="8.903563864830415"><ele>198.0</ele><time>2026-05-03T07:57:58Z</time></trkpt><trkpt lat="40.999894136730894" lon="8.903711698880555"><ele>198.0</ele><time>2026-05-03T07:57:59Z</time></trkpt><trkpt lat="40.999819199945684" lon="8.903876176050172"><ele>198.0</ele><time>2026-05-03T07:58:00Z</time></trkpt><trkpt lat="40.99972887543853" lon="8.90402502251962"><ele>198.0</ele><time>2026-05-03T07:58:01Z</time></trkpt><trkpt lat="40.99964989430344" lon="8.904160498969253"><ele>198.0</ele><time>2026-05-03T07:58:02Z</time></trkpt><trkpt lat="40.999578807809286" lon="8.904282462157582"><ele>198.0</ele><time>2026-05-03T07:58:03Z</time></trkpt><trkpt lat="40.99949036571813" lon="8.90438457658438"><ele>198.0</ele><time>2026-05-03T07:58:04Z</time></trkpt><trkpt lat="40.999392606143005" lon="8.90449156687221"><ele>198.0</ele><time>2026-05-03T07:58:05Z</time></trkpt><trkpt lat="40.99927566972257" lon="8.904582611517107"><ele>198.25</ele><time>2026-05-03T07:58:06Z</time></trkpt><trkpt lat="40.99914726252356" lon="8.904676440390546"><ele>198.5</ele><time>2026-05-03T07:58:07Z</time></trkpt><trkpt lat="40.99901833827077" lon="8.904769746419099"><ele>198.75</ele><time>2026-05-03T07:58:08Z</time></trkpt><trkpt lat="40.998889654947526" lon="8.904859777829428"><ele>199.0</ele><time>2026-05-03T07:58:09Z</time></trkpt><trkpt lat="40.99877742057481" lon="8.90496282176812"><ele>199.0</ele><time>2026-05-03T07:58:10Z</time></trkpt><trkpt lat="40.998652534780504" lon="8.905025247579088"><ele>199.0</ele><time>2026-05-03T07:58:11Z</time></trkpt><trkpt lat="40.998530774935475" lon="8.90510783197942"><ele>199.0</ele><time>2026-05-03T07:58:12Z</time></trkpt><trkpt lat="40.99841366832089" lon="8.905193300014592"><ele>199.0</ele><time>2026-05-03T07:58:13Z</time></trkpt><trkpt lat="40.99830980416786" lon="8.905267121178145"><ele>198.39999999999998</ele><time>2026-05-03T07:58:14Z</time></trkpt><trkpt lat="40.998216125180186" lon="8.905327591068255"><ele>197.8</ele><time>2026-05-03T07:58:15Z</time></trkpt><trkpt lat="40.998130010085966" lon="8.90537765535399"><ele>197.2</ele><time>2026-05-03T07:58:16Z</time></trkpt><trkpt lat="40.9980442778716" lon="8.905410559818645"><ele>196.60000000000002</ele><time>2026-05-03T07:58:17Z</time></trkpt><trkpt lat="40.99796335124515" lon="8.905427550246504"><ele>196.0</ele><time>2026-05-03T07:58:18Z</time></trkpt><trkpt lat="40.997880902583965" lon="8.905440460367563"><ele>196.0</ele><time>2026-05-03T07:58:19Z</time></trkpt><trkpt lat="40.997789249731184" lon="8.905451471868298"><ele>196.0</ele><time>2026-05-03T07:58:20Z</time></trkpt><trkpt lat="40.9976880184697" lon="8.905457923036076"><ele>196.0</ele><time>2026-05-03T07:58:21Z</time></trkpt><trkpt lat="40.99759613980615" lon="8.905463055684804"><ele>196.0</ele><time>2026-05-03T07:58:22Z</time></trkpt><trkpt lat="40.997504900322625" lon="8.905489553840983"><ele>196.0</ele><time>2026-05-03T07:58:23Z</time></trkpt><trkpt lat="40.99741579225911" lon="8.905421947663418"><ele>197.8</ele><time>2026-05-03T07:58:24Z</time></trkpt><trkpt lat="40.99731837274546" lon="8.905398292776686"><ele>199.60000000000002</ele><time>2026-05-03T07:58:25Z</time></trkpt><trkpt lat="40.99721903827121" lon="8.9054385665966"><ele>201.4</ele><time>2026-05-03T07:58:26Z</time></trkpt><trkpt lat="40.99713166842567" lon="8.90551345321522"><ele>203.2</ele><time>2026-05-03T07:58:27Z</time></trkpt><trkpt lat="40.997036897402076" lon="8.90558649157146"><ele>205.0</ele><time>2026-05-03T07:58:28Z</time></trkpt><trkpt lat="40.996920788246904" lon="8.905603713602495"><ele>205.0</ele><time>2026-05-03T07:58:29Z</time></trkpt><trkpt lat="40.996801485223735" lon="8.905576025335037"><ele>205.0</ele><time>2026-05-03T07:58:30Z</time></trkpt><trkpt lat="40.99670176176225" lon="8.905504145693905"><ele>205.0</ele><time>2026-05-03T07:58:31Z</time></trkpt><trkpt lat="40.99661897934724" lon="8.905431118004673"><ele>205.0</ele><time>2026-05-03T07:58:32Z</time></trkpt><trkpt lat="40.996524607880495" lon="8.905340134084142"><ele>203.75</ele><time>2026-05-03T07:58:33Z</time></trkpt><trkpt lat="40.99642630512022" lon="8.905235684342731"><ele>202.5</ele><time>2026-05-03T07:58:34Z</time></trkpt><trkpt lat="40.9963262500712" lon="8.905143506074014"><ele>201.25</ele><time>2026-05-03T07:58:35Z</time></trkpt><trkpt lat="40.99623999205143" lon="8.905040283697119"><ele>200.0</ele><time>2026-05-03T07:58:36Z</time></trkpt><trkpt lat="40.996151015541294" lon="8.904935146794017"><ele>200.0</ele><time>2026-05-03T07:58:37Z</time></trkpt><trkpt lat="40.99605594196952" lon="8.904832731860504"><ele>200.0</ele><time>2026-05-03T07:58:38Z</time></trkpt><trkpt lat="40.99595955079018" lon="8.904738980711045"><ele>200.0</ele><time>2026-05-03T07:58:39Z</time></trkpt><trkpt lat="40.99585602018834" lon="8.904672005795444"><ele>200.0</ele><time>2026-05-03T07:58:40Z</time></trkpt><trkpt lat="40.99574412779004" lon="8.904636536488697"><ele>202.75</ele><time>2026-05-03T07:58:41Z</time></trkpt><trkpt lat="40.9956216435612" lon="8.904664117810045"><ele>205.5</ele><time>2026-05-03T07:58:42Z</time></trkpt><trkpt lat="40.995496976915526" lon="8.904691479169925"><ele>208.25</ele><time>2026-05-03T07:58:43Z</time></trkpt><trkpt lat="40.99536956494594" lon="8.904758314501821"><ele>211.0</ele><time>2026-05-03T07:58:44Z</time></trkpt><trkpt lat="40.995249281362156" lon="8.904856998818596"><ele>211.0</ele><time>2026-05-03T07:58:45Z</time></trkpt><trkpt lat="40.995107270965555" lon="8.904912093760512"><ele>211.0</ele><time>2026-05-03T07:58:46Z</time></trkpt><trkpt lat="40.994979608521575" lon="8.90500460523675"><ele>211.0</ele><time>2026-05-03T07:58:47Z</time></trkpt><trkpt lat="40.99484492616989" lon="8.905071442168532"><ele>211.0</ele><time>2026-05-03T07:58:48Z</time></trkpt><trkpt lat="40.994735301412355" lon="8.905193920154723"><ele>215.75</ele><time>2026-05-03T07:58:49Z</time></trkpt><trkpt lat="40.99462463380446" lon="8.90531748166324"><ele>220.5</ele><time>2026-05-03T07:58:50Z</time></trkpt><trkpt lat="40.99452359789073" lon="8.905457353639305"><ele>225.25</ele><time>2026-05-03T07:58:51Z</time></trkpt><trkpt lat="40.994403320451624" lon="8.905543721387405"><ele>230.0</ele><time>2026-05-03T07:58:52Z</time></trkpt><trkpt lat="40.994291190868516" lon="8.905611342565768"><ele>230.0</ele><time>2026-05-03T07:58:53Z</time></trkpt><trkpt lat="40.99418368770739" lon="8.905635869788942"><ele>230.0</ele><time>2026-05-03T07:58:54Z</time></trkpt><trkpt lat="40.99407509208854" lon="8.905641244090146"><ele>230.0</ele><time>2026-05-03T07:58:55Z</time></trkpt><trkpt lat="40.99395630070635" lon="8.905641037926438"><ele>230.0</ele><time>2026-05-03T07:58:56Z</time></trkpt><trkpt lat="40.99383300256868" lon="8.905632034392106"><ele>226.75</ele><time>2026-05-03T07:58:57Z</time></trkpt><trkpt lat="40.99370755241864" lon="8.905615108668679"><ele>223.5</ele><time>2026-05-03T07:58:58Z</time></trkpt><trkpt lat="40.99358608759595" lon="8.90558809237334"><ele>220.25</ele><time>2026-05-03T07:58:59Z</time></trkpt><trkpt lat="40.993474602492725" lon="8.905541209115091"><ele>217.0</ele><time>2026-05-03T07:59:00Z</time></trkpt><trkpt lat="40.993382366798116" lon="8.905469631943433"><ele>216.6</ele><time>2026-05-03T07:59:01Z</time></trkpt><trkpt lat="40.99330402622571" lon="8.905384990258412"><ele>216.2</ele><time>2026-05-03T07:59:02Z</time></trkpt><trkpt lat="40.993241233732256" lon="8.905275070275284"><ele>215.8</ele><time>2026-05-03T07:59:03Z</time></trkpt><trkpt lat="40.99321339342535" lon="8.905137564915579"><ele>215.4</ele><time>2026-05-03T07:59:04Z</time></trkpt><trkpt lat="40.993202446247835" lon="8.904978947129065"><ele>215.0</ele><time>2026-05-03T07:59:05Z</time></trkpt><trkpt lat="40.99323762315479" lon="8.904814939345288"><ele>215.0</ele><time>2026-05-03T07:59:06Z</time></trkpt><trkpt lat="40.993294720499584" lon="8.90465780700096"><ele>215.0</ele><time>2026-05-03T07:59:07Z</time></trkpt><trkpt lat="40.99338495596103" lon="8.904514086491254"><ele>215.0</ele><time>2026-05-03T07:59:08Z</time></trkpt><trkpt lat="40.99348301547402" lon="8.90436405638981"><ele>215.0</ele><time>2026-05-03T07:59:09Z</time></trkpt><trkpt lat="40.99356409647671" lon="8.904197160807529"><ele>206.66666666666669</ele><time>2026-05-03T07:59:10Z</time></trkpt><trkpt lat="40.99361087574315" lon="8.903997774292703"><ele>198.33333333333334</ele><time>2026-05-03T07:59:11Z</time></trkpt><trkpt lat="40.99363810885647" lon="8.903757991822301"><ele>190.0</ele><time>2026-05-03T07:59:12Z</time></trkpt><trkpt lat="40.99366712886214" lon="8.903539452332424"><ele>187.0</ele><time>2026-05-03T07:59:13Z</time></trkpt><trkpt lat="40.99366409352444" lon="8.903324254966765"><ele>184.0</ele><time>2026-05-03T07:59:14Z</time></trkpt><trkpt lat="40.99364066411394" lon="8.903100686295957"><ele>181.0</ele><time>2026-05-03T07:59:15Z</time></trkpt><trkpt lat="40.99361318299644" lon="8.9028835704277"><ele>181.0</ele><time>2026-05-03T07:59:16Z</time></trkpt><trkpt lat="40.99358815174311" lon="8.902676279021206"><ele>181.0</ele><time>2026-05-03T07:59:17Z</time></trkpt><trkpt lat="40.99355659831822" lon="8.902484502510633"><ele>181.0</ele><time>2026-05-03T07:59:18Z</time></trkpt><trkpt lat="40.99350274714565" lon="8.902322568821075"><ele>181.0</ele><time>2026-05-03T07:59:19Z</time></trkpt><trkpt lat="40.99342293772311" lon="8.902194352178864"><ele>186.5</ele><time>2026-05-03T07:59:20Z</time></trkpt><trkpt lat="40.993310224604265" lon="8.902102796332784"><ele>192.0</ele><time>2026-05-03T07:59:21Z</time></trkpt><trkpt lat="40.99318148606394" lon="8.902059426144982"><ele>197.5</ele><time>2026-05-03T07:59:22Z</time></trkpt><trkpt lat="40.99304600771254" lon="8.902022171699297"><ele>203.0</ele><time>2026-05-03T07:59:23Z</time></trkpt><trkpt lat="40.99291922698854" lon="8.901975633690073"><ele>203.0</ele><time>2026-05-03T07:59:24Z</time></trkpt><trkpt lat="40.99280851673986" lon="8.90191929968743"><ele>203.0</ele><time>2026-05-03T07:59:25Z</time></trkpt><trkpt lat="40.992710356604945" lon="8.901838564254913"><ele>203.0</ele><time>2026-05-03T07:59:26Z</time></trkpt><trkpt lat="40.99264128089253" lon="8.90170466603286"><ele>203.0</ele><time>2026-05-03T07:59:27Z</time></trkpt><trkpt lat="40.992550316426026" lon="8.901599932318087"><ele>202.0</ele><time>2026-05-03T07:59:28Z</time></trkpt><trkpt lat="40.99243001473869" lon="8.901543981766414"><ele>201.0</ele><time>2026-05-03T07:59:29Z</time></trkpt><trkpt lat="40.99229897014062" lon="8.901542601586714"><ele>200.0</ele><time>2026-05-03T07:59:30Z</time></trkpt><trkpt lat="40.99216199537761" lon="8.901560663205561"><ele>199.0</ele><time>2026-05-03T07:59:31Z</time></trkpt><trkpt lat="40.99203024325847" lon="8.901574066369717"><ele>199.0</ele><time>2026-05-03T07:59:32Z</time></trkpt><trkpt lat="40.99190090614988" lon="8.90155933347993"><ele>199.0</ele><time>2026-05-03T07:59:33Z</time></trkpt><trkpt lat="40.99177895170952" lon="8.901503226518175"><ele>199.0</ele><time>2026-05-03T07:59:34Z</time></trkpt><trkpt lat="40.99168653495355" lon="8.901397818196092"><ele>199.0</ele><time>2026-05-03T07:59:35Z</time></trkpt><trkpt lat="40.991614221709774" lon="8.901265445596824"><ele>198.5</ele><time>2026-05-03T07:59:36Z</time></trkpt><trkpt lat="40.99158413485255" lon="8.901104529313214"><ele>198.0</ele><time>2026-05-03T07:59:37Z</time></trkpt><trkpt lat="40.99156366695466" lon="8.900933794419752"><ele>197.5</ele><time>2026-05-03T07:59:38Z</time></trkpt><trkpt lat="40.991611541905165" lon="8.900757783468592"><ele>197.0</ele><time>2026-05-03T07:59:39Z</time></trkpt><trkpt lat="40.99170836713624" lon="8.900610768844892"><ele>192.5</ele><time>2026-05-03T07:59:40Z</time></trkpt><trkpt lat="40.991797445807556" lon="8.90046360217207"><ele>188.0</ele><time>2026-05-03T07:59:41Z</time></trkpt><trkpt lat="40.99188696093758" lon="8.900345575090098"><ele>183.5</ele><time>2026-05-03T07:59:42Z</time></trkpt><trkpt lat="40.991932533922494" lon="8.900199945817683"><ele>179.0</ele><time>2026-05-03T07:59:43Z</time></trkpt><trkpt lat="40.99193327695141" lon="8.900032208964392"><ele>182.5</ele><time>2026-05-03T07:59:44Z</time></trkpt><trkpt lat="40.991883311378885" lon="8.899853036685707"><ele>186.0</ele><time>2026-05-03T07:59:45Z</time></trkpt><trkpt lat="40.9918023638453" lon="8.899692397773915"><ele>189.5</ele><time>2026-05-03T07:59:46Z</time></trkpt><trkpt lat="40.9917108788588" lon="8.89954255372388"><ele>193.0</ele><time>2026-05-03T07:59:47Z</time></trkpt><trkpt lat="40.99162220340469" lon="8.899401408052329"><ele>193.0</ele><time>2026-05-03T07:59:48Z</time></trkpt><trkpt lat="40.99154289964931" lon="8.899272073739713"><ele>193.0</ele><time>2026-05-03T07:59:49Z</time></trkpt><trkpt lat="40.99146683671604" lon="8.899151630143788"><ele>193.0</ele><time>2026-05-03T07:59:50Z</time></trkpt><trkpt lat="40.99138261715418" lon="8.89904186146582"><ele>193.0</ele><time>2026-05-03T07:59:51Z</time></trkpt><trkpt lat="40.99126865544462" lon="8.898960334549033"><ele>193.75</ele><time>2026-05-03T07:59:52Z</time></trkpt><trkpt lat="40.99114695182601" lon="8.898884388179418"><ele>194.5</ele><time>2026-05-03T07:59:53Z</time></trkpt><trkpt lat="40.99103850879886" lon="8.898770119546846"><ele>195.25</ele><time>2026-05-03T07:59:54Z</time></trkpt><trkpt lat="40.99094112366952" lon="8.898635625496519"><ele>196.0</ele><time>2026-05-03T07:59:55Z</time></trkpt><trkpt lat="40.990834181206516" lon="8.898489710050148"><ele>191.25</ele><time>2026-05-03T07:59:56Z</time></trkpt><trkpt lat="40.99075653449093" lon="8.89831290175107"><ele>186.5</ele><time>2026-05-03T07:59:57Z</time></trkpt><trkpt lat="40.99072672079417" lon="8.898117250604749"><ele>181.75</ele><time>2026-05-03T07:59:58Z</time></trkpt><trkpt lat="40.990705135763264" lon="8.897937905229359"><ele>177.0</ele><time>2026-05-03T07:59:59Z</time></trkpt><trkpt lat="40.99069062709048" lon="8.89776759733723"><ele>177.0</ele><time>2026-05-03T08:00:00Z</time></trkpt><trkpt lat="40.99063957471546" lon="8.897618768024378"><ele>177.0</ele><time>2026-05-03T08:00:01Z</time></trkpt><trkpt lat="40.990554059847156" lon="8.897504280864812"><ele>177.0</ele><time>2026-05-03T08:00:02Z</time></trkpt><trkpt lat="40.9904474373152" lon="8.897429538790208"><ele>177.0</ele><time>2026-05-03T08:00:03Z</time></trkpt><trkpt lat="40.99032786240129" lon="8.897421763020391"><ele>177.25</ele><time>2026-05-03T08:00:04Z</time></trkpt><trkpt lat="40.99020900432406" lon="8.897431587482554"><ele>177.5</ele><time>2026-05-03T08:00:05Z</time></trkpt><trkpt lat="40.99009248634944" lon="8.897387029551027"><ele>177.75</ele><time>2026-05-03T08:00:06Z</time></trkpt><trkpt lat="40.9899865056229" lon="8.897296387913064"><ele>178.0</ele><time>2026-05-03T08:00:07Z</time></trkpt><trkpt lat="40.989881202670354" lon="8.897168134645085"><ele>178.0</ele><time>2026-05-03T08:00:08Z</time></trkpt><trkpt lat="40.989786505286105" lon="8.89701243865355"><ele>178.0</ele><time>2026-05-03T08:00:09Z</time></trkpt><trkpt lat="40.98970696031188" lon="8.896853709346047"><ele>178.0</ele><time>2026-05-03T08:00:10Z</time></trkpt><trkpt lat="40.98964462983753" lon="8.896701358491077"><ele>178.0</ele><time>2026-05-03T08:00:11Z</time></trkpt><trkpt lat="40.98957235098481" lon="8.896567193794082"><ele>177.5</ele><time>2026-05-03T08:00:12Z</time></trkpt><trkpt lat="40.98948223196051" lon="8.896450152588704"><ele>177.0</ele><time>2026-05-03T08:00:13Z</time></trkpt><trkpt lat="40.98937891208634" lon="8.89634957886146"><ele>176.5</ele><time>2026-05-03T08:00:14Z</time></trkpt><trkpt lat="40.98926866131704" lon="8.89626030849265"><ele>176.0</ele><time>2026-05-03T08:00:15Z</time></trkpt><trkpt lat="40.98915170115608" lon="8.896187443773282"><ele>176.0</ele><time>2026-05-03T08:00:16Z</time></trkpt><trkpt lat="40.989029620940315" lon="8.896136225730574"><ele>176.0</ele><time>2026-05-03T08:00:17Z</time></trkpt><trkpt lat="40.988905187539174" lon="8.896098717173299"><ele>176.0</ele><time>2026-05-03T08:00:18Z</time></trkpt><trkpt lat="40.988778410684496" lon="8.896074467937956"><ele>176.0</ele><time>2026-05-03T08:00:19Z</time></trkpt><trkpt lat="40.98865063178819" lon="8.896034334202762"><ele>176.0</ele><time>2026-05-03T08:00:20Z</time></trkpt><trkpt lat="40.988527585821636" lon="8.895983284615719"><ele>176.0</ele><time>2026-05-03T08:00:21Z</time></trkpt><trkpt lat="40.98840987972785" lon="8.895902524088363"><ele>176.0</ele><time>2026-05-03T08:00:22Z</time></trkpt><trkpt lat="40.988289142835534" lon="8.895803741010969"><ele>176.0</ele><time>2026-05-03T08:00:23Z</time></trkpt><trkpt lat="40.98817036620214" lon="8.895693037398289"><ele>171.5</ele><time>2026-05-03T08:00:24Z</time></trkpt><trkpt lat="40.98806117565137" lon="8.895570818330484"><ele>167.0</ele><time>2026-05-03T08:00:25Z</time></trkpt><trkpt lat="40.98800135082953" lon="8.895394986523183"><ele>162.5</ele><time>2026-05-03T08:00:26Z</time></trkpt><trkpt lat="40.98794520710785" lon="8.895225445357623"><ele>158.0</ele><time>2026-05-03T08:00:27Z</time></trkpt><trkpt lat="40.987861079030885" lon="8.895086947661767"><ele>158.5</ele><time>2026-05-03T08:00:28Z</time></trkpt><trkpt lat="40.987734066667436" lon="8.895002843803951"><ele>159.0</ele><time>2026-05-03T08:00:29Z</time></trkpt><trkpt lat="40.98760120254157" lon="8.89493263138307"><ele>159.5</ele><time>2026-05-03T08:00:30Z</time></trkpt><trkpt lat="40.987475355702955" lon="8.894851317196355"><ele>160.0</ele><time>2026-05-03T08:00:31Z</time></trkpt><trkpt lat="40.98736863080097" lon="8.89473477664629"><ele>160.0</ele><time>2026-05-03T08:00:32Z</time></trkpt><trkpt lat="40.98729849963125" lon="8.894574287838857"><ele>160.0</ele><time>2026-05-03T08:00:33Z</time></trkpt><trkpt lat="40.98729621813257" lon="8.894380356751139"><ele>160.0</ele><time>2026-05-03T08:00:34Z</time></trkpt><trkpt lat="40.98726407571646" lon="8.894206411948606"><ele>160.0</ele><time>2026-05-03T08:00:35Z</time></trkpt><trkpt lat="40.987239205950104" lon="8.894035152117116"><ele>156.0</ele><time>2026-05-03T08:00:36Z</time></trkpt><trkpt lat="40.98719373934264" lon="8.893875460715943"><ele>152.0</ele><time>2026-05-03T08:00:37Z</time></trkpt><trkpt lat="40.98713337828332" lon="8.89372346990889"><ele>148.0</ele><time>2026-05-03T08:00:38Z</time></trkpt><trkpt lat="40.98707697418365" lon="8.893565764178405"><ele>144.0</ele><time>2026-05-03T08:00:39Z</time></trkpt><trkpt lat="40.9870225410356" lon="8.893407099501566"><ele>141.0</ele><time>2026-05-03T08:00:40Z</time></trkpt><trkpt lat="40.98696397541776" lon="8.893246215185249"><ele>138.0</ele><time>2026-05-03T08:00:41Z</time></trkpt><trkpt lat="40.98690308279953" lon="8.89308490719132"><ele>135.0</ele><time>2026-05-03T08:00:42Z</time></trkpt><trkpt lat="40.98683899130536" lon="8.892925157086674"><ele>132.0</ele><time>2026-05-03T08:00:43Z</time></trkpt><trkpt lat="40.98676995474599" lon="8.892768798174304"><ele>132.0</ele><time>2026-05-03T08:00:44Z</time></trkpt><trkpt lat="40.9866979838804" lon="8.89261691428741"><ele>132.0</ele><time>2026-05-03T08:00:45Z</time></trkpt><trkpt lat="40.98662425524367" lon="8.89246898185011"><ele>132.0</ele><time>2026-05-03T08:00:46Z</time></trkpt><trkpt lat="40.98655037037759" lon="8.89232183248299"><ele>132.0</ele><time>2026-05-03T08:00:47Z</time></trkpt><trkpt lat="40.986468757713006" lon="8.892178687857253"><ele>129.5</ele><time>2026-05-03T08:00:48Z</time></trkpt><trkpt lat="40.986369205522976" lon="8.892049304894318"><ele>127.0</ele><time>2026-05-03T08:00:49Z</time></trkpt><trkpt lat="40.98625356340916" lon="8.891934181766336"><ele>124.5</ele><time>2026-05-03T08:00:50Z</time></trkpt><trkpt lat="40.98613874411151" lon="8.891818050523327"><ele>122.0</ele><time>2026-05-03T08:00:51Z</time></trkpt><trkpt lat="40.98602454439287" lon="8.891701996918401"><ele>122.0</ele><time>2026-05-03T08:00:52Z</time></trkpt><trkpt lat="40.98591043033488" lon="8.891603793082531"><ele>122.0</ele><time>2026-05-03T08:00:53Z</time></trkpt><trkpt lat="40.98579378626078" lon="8.891536257925223"><ele>122.0</ele><time>2026-05-03T08:00:54Z</time></trkpt><trkpt lat="40.98567126692682" lon="8.891512764606407"><ele>122.0</ele><time>2026-05-03T08:00:55Z</time></trkpt><trkpt lat="40.985547640358696" lon="8.891495237880973"><ele>127.25</ele><time>2026-05-03T08:00:56Z</time></trkpt><trkpt lat="40.98543123969473" lon="8.89144417720924"><ele>132.5</ele><time>2026-05-03T08:00:57Z</time></trkpt><trkpt lat="40.98532756462583" lon="8.891348950354454"><ele>137.75</ele><time>2026-05-03T08:00:58Z</time></trkpt><trkpt lat="40.985278755964096" lon="8.89118401113754"><ele>143.0</ele><time>2026-05-03T08:00:59Z</time></trkpt><trkpt lat="40.9852068943707" lon="8.891023038573728"><ele>142.0</ele><time>2026-05-03T08:01:00Z</time></trkpt><trkpt lat="40.98516941253733" lon="8.890856272090188"><ele>141.0</ele><time>2026-05-03T08:01:01Z</time></trkpt><trkpt lat="40.985128348479826" lon="8.890708987652241"><ele>140.0</ele><time>2026-05-03T08:01:02Z</time></trkpt><trkpt lat="40.98506789992721" lon="8.890561127792285"><ele>139.0</ele><time>2026-05-03T08:01:03Z</time></trkpt><trkpt lat="40.98498471679397" lon="8.89041744900574"><ele>139.0</ele><time>2026-05-03T08:01:04Z</time></trkpt><trkpt lat="40.98487345656231" lon="8.89029627128715"><ele>139.0</ele><time>2026-05-03T08:01:05Z</time></trkpt><trkpt lat="40.98475901313772" lon="8.89016272591033"><ele>139.0</ele><time>2026-05-03T08:01:06Z</time></trkpt><trkpt lat="40.984621879095684" lon="8.890060023826475"><ele>138.5</ele><time>2026-05-03T08:01:07Z</time></trkpt><trkpt lat="40.98449870233699" lon="8.889937192427748"><ele>138.0</ele><time>2026-05-03T08:01:08Z</time></trkpt><trkpt lat="40.98438563462072" lon="8.889823747609114"><ele>137.5</ele><time>2026-05-03T08:01:09Z</time></trkpt><trkpt lat="40.98427670326825" lon="8.889717469780335"><ele>137.0</ele><time>2026-05-03T08:01:10Z</time></trkpt><trkpt lat="40.98417034021898" lon="8.889623855757664"><ele>137.0</ele><time>2026-05-03T08:01:11Z</time></trkpt><trkpt lat="40.98406856421861" lon="8.889537421896062"><ele>137.0</ele><time>2026-05-03T08:01:12Z</time></trkpt><trkpt lat="40.98397078592927" lon="8.889461791450637"><ele>137.0</ele><time>2026-05-03T08:01:13Z</time></trkpt><trkpt lat="40.983865855359625" lon="8.88939967472946"><ele>137.0</ele><time>2026-05-03T08:01:14Z</time></trkpt><trkpt lat="40.98375062768746" lon="8.889361339491497"><ele>137.0</ele><time>2026-05-03T08:01:15Z</time></trkpt><trkpt lat="40.98362831659684" lon="8.889348649058007"><ele>137.0</ele><time>2026-05-03T08:01:16Z</time></trkpt><trkpt lat="40.983503975277664" lon="8.88937064280243"><ele>137.0</ele><time>2026-05-03T08:01:17Z</time></trkpt><trkpt lat="40.983385866284735" lon="8.889447497605378"><ele>137.0</ele><time>2026-05-03T08:01:18Z</time></trkpt><trkpt lat="40.98328108460365" lon="8.889557295229633"><ele>139.0</ele><time>2026-05-03T08:01:19Z</time></trkpt><trkpt lat="40.98316664225707" lon="8.88965093321156"><ele>141.0</ele><time>2026-05-03T08:01:20Z</time></trkpt><trkpt lat="40.98306960552888" lon="8.889757920090547"><ele>143.0</ele><time>2026-05-03T08:01:21Z</time></trkpt><trkpt lat="40.98297580555842" lon="8.889855446875293"><ele>145.0</ele><time>2026-05-03T08:01:22Z</time></trkpt><trkpt lat="40.98287959853716" lon="8.889929508684396"><ele>145.0</ele><time>2026-05-03T08:01:23Z</time></trkpt><trkpt lat="40.98276796331123" lon="8.889974824787261"><ele>145.0</ele><time>2026-05-03T08:01:24Z</time></trkpt><trkpt lat="40.982650709116186" lon="8.889963896234551"><ele>145.0</ele><time>2026-05-03T08:01:25Z</time></trkpt><trkpt lat="40.98254673011247" lon="8.889924466484938"><ele>145.0</ele><time>2026-05-03T08:01:26Z</time></trkpt><trkpt lat="40.98245673977896" lon="8.889834755248698"><ele>143.5</ele><time>2026-05-03T08:01:27Z</time></trkpt><trkpt lat="40.98235914408726" lon="8.8897436552969"><ele>142.0</ele><time>2026-05-03T08:01:28Z</time></trkpt><trkpt lat="40.98230371451097" lon="8.88960010401068"><ele>140.5</ele><time>2026-05-03T08:01:29Z</time></trkpt><trkpt lat="40.98226639120229" lon="8.889433179336912"><ele>139.0</ele><time>2026-05-03T08:01:30Z</time></trkpt><trkpt lat="40.98225648513751" lon="8.889250618975819"><ele>134.25</ele><time>2026-05-03T08:01:31Z</time></trkpt><trkpt lat="40.98228382052378" lon="8.8890650770002"><ele>129.5</ele><time>2026-05-03T08:01:32Z</time></trkpt><trkpt lat="40.98233004769232" lon="8.888903994546748"><ele>124.75</ele><time>2026-05-03T08:01:33Z</time></trkpt><trkpt lat="40.98237175369218" lon="8.88875611804461"><ele>120.0</ele><time>2026-05-03T08:01:34Z</time></trkpt><trkpt lat="40.982344505280814" lon="8.888604755330624"><ele>120.0</ele><time>2026-05-03T08:01:35Z</time></trkpt><trkpt lat="40.98231771762204" lon="8.888446697930549"><ele>120.0</ele><time>2026-05-03T08:01:36Z</time></trkpt><trkpt lat="40.98225234279881" lon="8.88829041283916"><ele>120.0</ele><time>2026-05-03T08:01:37Z</time></trkpt><trkpt lat="40.98215994927975" lon="8.888144483233875"><ele>120.0</ele><time>2026-05-03T08:01:38Z</time></trkpt><trkpt lat="40.9820545015706" lon="8.888005239613232"><ele>117.0</ele><time>2026-05-03T08:01:39Z</time></trkpt><trkpt lat="40.981949424246075" lon="8.8878620782473"><ele>114.0</ele><time>2026-05-03T08:01:40Z</time></trkpt><trkpt lat="40.981842280861656" lon="8.887725915886614"><ele>111.0</ele><time>2026-05-03T08:01:41Z</time></trkpt><trkpt lat="40.98172467647332" lon="8.887599304643276"><ele>112.75</ele><time>2026-05-03T08:01:42Z</time></trkpt><trkpt lat="40.98160804141335" lon="8.887481172622039"><ele>114.5</ele><time>2026-05-03T08:01:43Z</time></trkpt><trkpt lat="40.98148904040921" lon="8.887372162209765"><ele>116.25</ele><time>2026-05-03T08:01:44Z</time></trkpt><trkpt lat="40.9813661501768" lon="8.887286488911034"><ele>118.0</ele><time>2026-05-03T08:01:45Z</time></trkpt><trkpt lat="40.98124631387167" lon="8.887216017159378"><ele>118.0</ele><time>2026-05-03T08:01:46Z</time></trkpt><trkpt lat="40.981123811591196" lon="8.887161023160738"><ele>118.0</ele><time>2026-05-03T08:01:47Z</time></trkpt><trkpt lat="40.98100428887957" lon="8.887115024039351"><ele>118.0</ele><time>2026-05-03T08:01:48Z</time></trkpt><trkpt lat="40.98086339224136" lon="8.887108020882359"><ele>118.0</ele><time>2026-05-03T08:01:49Z</time></trkpt><trkpt lat="40.98072355297449" lon="8.887096717823372"><ele>121.75</ele><time>2026-05-03T08:01:50Z</time></trkpt><trkpt lat="40.98058262115283" lon="8.887079905223459"><ele>125.5</ele><time>2026-05-03T08:01:51Z</time></trkpt><trkpt lat="40.98045243890731" lon="8.88701648286174"><ele>129.25</ele><time>2026-05-03T08:01:52Z</time></trkpt><trkpt lat="40.98033163094106" lon="8.886961413342595"><ele>133.0</ele><time>2026-05-03T08:01:53Z</time></trkpt><trkpt lat="40.98027684891177" lon="8.886807659087799"><ele>126.75</ele><time>2026-05-03T08:01:54Z</time></trkpt><trkpt lat="40.98021894130078" lon="8.886653112270764"><ele>120.5</ele><time>2026-05-03T08:01:55Z</time></trkpt><trkpt lat="40.980178061975366" lon="8.886474720202132"><ele>114.25</ele><time>2026-05-03T08:01:56Z</time></trkpt><trkpt lat="40.98014257027175" lon="8.886286652105426"><ele>108.0</ele><time>2026-05-03T08:01:57Z</time></trkpt><trkpt lat="40.98010612063421" lon="8.886100640257087"><ele>110.75</ele><time>2026-05-03T08:01:58Z</time></trkpt><trkpt lat="40.980058777551555" lon="8.88592276782834"><ele>113.5</ele><time>2026-05-03T08:01:59Z</time></trkpt><trkpt lat="40.9800277275366" lon="8.885734828733996"><ele>116.25</ele><time>2026-05-03T08:02:00Z</time></trkpt><trkpt lat="40.97999187441094" lon="8.885549427602776"><ele>119.0</ele><time>2026-05-03T08:02:01Z</time></trkpt><trkpt lat="40.97993779048619" lon="8.88537220608429"><ele>119.0</ele><time>2026-05-03T08:02:02Z</time></trkpt><trkpt lat="40.979852267973556" lon="8.885211666754188"><ele>119.0</ele><time>2026-05-03T08:02:03Z</time></trkpt><trkpt lat="40.97976500518208" lon="8.88507657275867"><ele>119.0</ele><time>2026-05-03T08:02:04Z</time></trkpt><trkpt lat="40.979684430240525" lon="8.884951271585235"><ele>119.0</ele><time>2026-05-03T08:02:05Z</time></trkpt><trkpt lat="40.97960620694197" lon="8.884829596989965"><ele>115.5</ele><time>2026-05-03T08:02:06Z</time></trkpt><trkpt lat="40.97953297410652" lon="8.884716530686358"><ele>112.0</ele><time>2026-05-03T08:02:07Z</time></trkpt><trkpt lat="40.979457447110164" lon="8.884607695732374"><ele>108.5</ele><time>2026-05-03T08:02:08Z</time></trkpt><trkpt lat="40.979365869886294" lon="8.88450361276215"><ele>105.0</ele><time>2026-05-03T08:02:09Z</time></trkpt><trkpt lat="40.979249699243134" lon="8.884424865514553"><ele>110.75</ele><time>2026-05-03T08:02:10Z</time></trkpt><trkpt lat="40.9791144101673" lon="8.884377484104508"><ele>116.5</ele><time>2026-05-03T08:02:11Z</time></trkpt><trkpt lat="40.978973132821714" lon="8.884326949813524"><ele>122.25</ele><time>2026-05-03T08:02:12Z</time></trkpt><trkpt lat="40.9788350043029" lon="8.884285882122342"><ele>128.0</ele><time>2026-05-03T08:02:13Z</time></trkpt><trkpt lat="40.97869538206626" lon="8.884283195516897"><ele>128.0</ele><time>2026-05-03T08:02:14Z</time></trkpt><trkpt lat="40.97855593260227" lon="8.88431661371648"><ele>128.0</ele><time>2026-05-03T08:02:15Z</time></trkpt><trkpt lat="40.97842187229096" lon="8.88441737658679"><ele>128.0</ele><time>2026-05-03T08:02:16Z</time></trkpt><trkpt lat="40.97828752825066" lon="8.884495388048501"><ele>128.0</ele><time>2026-05-03T08:02:17Z</time></trkpt><trkpt lat="40.97815461266297" lon="8.884576363714693"><ele>128.25</ele><time>2026-05-03T08:02:18Z</time></trkpt><trkpt lat="40.97802270116086" lon="8.884652674842172"><ele>128.5</ele><time>2026-05-03T08:02:19Z</time></trkpt><trkpt lat="40.9778910618199" lon="8.884727987448676"><ele>128.75</ele><time>2026-05-03T08:02:20Z</time></trkpt><trkpt lat="40.97776344674992" lon="8.884810950228879"><ele>129.0</ele><time>2026-05-03T08:02:21Z</time></trkpt><trkpt lat="40.97765236574946" lon="8.884928785974779"><ele>129.0</ele><time>2026-05-03T08:02:22Z</time></trkpt><trkpt lat="40.97756433253248" lon="8.885077140151305"><ele>129.0</ele><time>2026-05-03T08:02:23Z</time></trkpt><trkpt lat="40.97748563888678" lon="8.885213896236525"><ele>129.0</ele><time>2026-05-03T08:02:24Z</time></trkpt><trkpt lat="40.977406039082375" lon="8.88533771357734"><ele>129.0</ele><time>2026-05-03T08:02:25Z</time></trkpt><trkpt lat="40.977306903998816" lon="8.885421951922813"><ele>131.75</ele><time>2026-05-03T08:02:26Z</time></trkpt><trkpt lat="40.97718376061207" lon="8.885493998371878"><ele>134.5</ele><time>2026-05-03T08:02:27Z</time></trkpt><trkpt lat="40.97704903300048" lon="8.88550518892329"><ele>137.25</ele><time>2026-05-03T08:02:28Z</time></trkpt><trkpt lat="40.97690779938887" lon="8.885534346240808"><ele>140.0</ele><time>2026-05-03T08:02:29Z</time></trkpt><trkpt lat="40.976762454756866" lon="8.885566311960456"><ele>136.75</ele><time>2026-05-03T08:02:30Z</time></trkpt><trkpt lat="40.976615308725826" lon="8.885599108432237"><ele>133.5</ele><time>2026-05-03T08:02:31Z</time></trkpt><trkpt lat="40.97646570580348" lon="8.88563458435072"><ele>130.25</ele><time>2026-05-03T08:02:32Z</time></trkpt><trkpt lat="40.97632501592132" lon="8.885692114860166"><ele>127.0</ele><time>2026-05-03T08:02:33Z</time></trkpt><trkpt lat="40.97620241234985" lon="8.885747282074242"><ele>127.0</ele><time>2026-05-03T08:02:34Z</time></trkpt><trkpt lat="40.97608333828178" lon="8.885792988190607"><ele>127.0</ele><time>2026-05-03T08:02:35Z</time></trkpt><trkpt lat="40.9759612122574" lon="8.885799185532875"><ele>127.0</ele><time>2026-05-03T08:02:36Z</time></trkpt><trkpt lat="40.975831893990446" lon="8.88576360406328"><ele>127.0</ele><time>2026-05-03T08:02:37Z</time></trkpt><trkpt lat="40.975709275223835" lon="8.885689535354281"><ele>126.0</ele><time>2026-05-03T08:02:38Z</time></trkpt><trkpt lat="40.975581008918226" lon="8.885598288143045"><ele>125.0</ele><time>2026-05-03T08:02:39Z</time></trkpt><trkpt lat="40.975465774596536" lon="8.885501587804374"><ele>124.0</ele><time>2026-05-03T08:02:40Z</time></trkpt><trkpt lat="40.97537254205435" lon="8.885377293897916"><ele>123.0</ele><time>2026-05-03T08:02:41Z</time></trkpt><trkpt lat="40.97532563263873" lon="8.88519904243481"><ele>120.0</ele><time>2026-05-03T08:02:42Z</time></trkpt><trkpt lat="40.97529903205352" lon="8.884996676018043"><ele>117.0</ele><time>2026-05-03T08:02:43Z</time></trkpt><trkpt lat="40.97527297317451" lon="8.884788704875223"><ele>114.0</ele><time>2026-05-03T08:02:44Z</time></trkpt><trkpt lat="40.9752454271029" lon="8.884574453334865"><ele>114.0</ele><time>2026-05-03T08:02:45Z</time></trkpt><trkpt lat="40.97521126192865" lon="8.884361028467053"><ele>114.0</ele><time>2026-05-03T08:02:46Z</time></trkpt><trkpt lat="40.9751752097797" lon="8.884150881452564"><ele>114.0</ele><time>2026-05-03T08:02:47Z</time></trkpt><trkpt lat="40.9751495448392" lon="8.883937695429202"><ele>111.5</ele><time>2026-05-03T08:02:48Z</time></trkpt><trkpt lat="40.97511889291659" lon="8.883747928061767"><ele>109.0</ele><time>2026-05-03T08:02:49Z</time></trkpt><trkpt lat="40.975097876968164" lon="8.883560650344096"><ele>106.5</ele><time>2026-05-03T08:02:50Z</time></trkpt><trkpt lat="40.975085380555804" lon="8.883385917101014"><ele>104.0</ele><time>2026-05-03T08:02:51Z</time></trkpt><trkpt lat="40.975100632683144" lon="8.883192787275563"><ele>102.25</ele><time>2026-05-03T08:02:52Z</time></trkpt><trkpt lat="40.975144407490625" lon="8.883008223652608"><ele>100.5</ele><time>2026-05-03T08:02:53Z</time></trkpt><trkpt lat="40.97521506341003" lon="8.882837869736742"><ele>98.75</ele><time>2026-05-03T08:02:54Z</time></trkpt><trkpt lat="40.97528207157232" lon="8.882669592867368"><ele>97.0</ele><time>2026-05-03T08:02:55Z</time></trkpt><trkpt lat="40.97534652337291" lon="8.882503265558528"><ele>96.0</ele><time>2026-05-03T08:02:56Z</time></trkpt><trkpt lat="40.97541758631384" lon="8.882323801485837"><ele>95.0</ele><time>2026-05-03T08:02:57Z</time></trkpt><trkpt lat="40.97547626715379" lon="8.882153574788306"><ele>94.0</ele><time>2026-05-03T08:02:58Z</time></trkpt><trkpt lat="40.975507535240446" lon="8.881985753095428"><ele>93.0</ele><time>2026-05-03T08:02:59Z</time></trkpt><trkpt lat="40.975503045335095" lon="8.881809846963044"><ele>93.0</ele><time>2026-05-03T08:03:00Z</time></trkpt><trkpt lat="40.97546420640221" lon="8.881629285470861"><ele>93.0</ele><time>2026-05-03T08:03:01Z</time></trkpt><trkpt lat="40.975397033117275" lon="8.881466603500392"><ele>93.0</ele><time>2026-05-03T08:03:02Z</time></trkpt><trkpt lat="40.975294097865735" lon="8.881348827912468"><ele>93.0</ele><time>2026-05-03T08:03:03Z</time></trkpt><trkpt lat="40.975163592816706" lon="8.881278722066243"><ele>93.0</ele><time>2026-05-03T08:03:04Z</time></trkpt><trkpt lat="40.97502158769177" lon="8.881254039729027"><ele>93.0</ele><time>2026-05-03T08:03:05Z</time></trkpt><trkpt lat="40.9748749808623" lon="8.881287777325154"><ele>93.0</ele><time>2026-05-03T08:03:06Z</time></trkpt><trkpt lat="40.97474562000415" lon="8.881372305440477"><ele>93.0</ele><time>2026-05-03T08:03:07Z</time></trkpt><trkpt lat="40.974630779676964" lon="8.881492634720141"><ele>95.0</ele><time>2026-05-03T08:03:08Z</time></trkpt><trkpt lat="40.97450978381653" lon="8.881586896946313"><ele>97.0</ele><time>2026-05-03T08:03:09Z</time></trkpt><trkpt lat="40.97441716431135" lon="8.881708774822188"><ele>99.0</ele><time>2026-05-03T08:03:10Z</time></trkpt><trkpt lat="40.97433116523983" lon="8.881825015195151"><ele>101.0</ele><time>2026-05-03T08:03:11Z</time></trkpt><trkpt lat="40.97428176856889" lon="8.881985600888138"><ele>100.75</ele><time>2026-05-03T08:03:12Z</time></trkpt><trkpt lat="40.97421223470016" lon="8.88212756271533"><ele>100.5</ele><time>2026-05-03T08:03:13Z</time></trkpt><trkpt lat="40.974130624132165" lon="8.882230559426329"><ele>100.25</ele><time>2026-05-03T08:03:14Z</time></trkpt><trkpt lat="40.974028588545266" lon="8.882286590902043"><ele>100.0</ele><time>2026-05-03T08:03:15Z</time></trkpt><trkpt lat="40.973906922079856" lon="8.882296018497339"><ele>100.0</ele><time>2026-05-03T08:03:16Z</time></trkpt><trkpt lat="40.973783799574136" lon="8.882255359209505"><ele>100.0</ele><time>2026-05-03T08:03:17Z</time></trkpt><trkpt lat="40.973694492088526" lon="8.882156535645612"><ele>100.0</ele><time>2026-05-03T08:03:18Z</time></trkpt><trkpt lat="40.973617273342505" lon="8.882019668795568"><ele>100.0</ele><time>2026-05-03T08:03:19Z</time></trkpt><trkpt lat="40.97359034224476" lon="8.88183935963865"><ele>98.25</ele><time>2026-05-03T08:03:20Z</time></trkpt><trkpt lat="40.97360525899029" lon="8.88164918469311"><ele>96.5</ele><time>2026-05-03T08:03:21Z</time></trkpt><trkpt lat="40.97363276756293" lon="8.881455907260168"><ele>94.75</ele><time>2026-05-03T08:03:22Z</time></trkpt><trkpt lat="40.97367852805094" lon="8.881274070553209"><ele>93.0</ele><time>2026-05-03T08:03:23Z</time></trkpt><trkpt lat="40.973739498826085" lon="8.881112948553449"><ele>93.0</ele><time>2026-05-03T08:03:24Z</time></trkpt><trkpt lat="40.97378982357261" lon="8.88096544825578"><ele>93.0</ele><time>2026-05-03T08:03:25Z</time></trkpt><trkpt lat="40.97382741197114" lon="8.880814706329213"><ele>93.0</ele><time>2026-05-03T08:03:26Z</time></trkpt><trkpt lat="40.97384181873902" lon="8.880656341230877"><ele>93.0</ele><time>2026-05-03T08:03:27Z</time></trkpt><trkpt lat="40.973843277811405" lon="8.880489316968514"><ele>91.25</ele><time>2026-05-03T08:03:28Z</time></trkpt><trkpt lat="40.97383144260316" lon="8.88031899198272"><ele>89.5</ele><time>2026-05-03T08:03:29Z</time></trkpt><trkpt lat="40.97380530239128" lon="8.880143402241663"><ele>87.75</ele><time>2026-05-03T08:03:30Z</time></trkpt><trkpt lat="40.97377320610477" lon="8.879962584681312"><ele>86.0</ele><time>2026-05-03T08:03:31Z</time></trkpt><trkpt lat="40.97373968729441" lon="8.879772952797437"><ele>84.0</ele><time>2026-05-03T08:03:32Z</time></trkpt><trkpt lat="40.973708994804305" lon="8.879580098679833"><ele>82.0</ele><time>2026-05-03T08:03:33Z</time></trkpt><trkpt lat="40.97368109762291" lon="8.879399410709711"><ele>80.0</ele><time>2026-05-03T08:03:34Z</time></trkpt><trkpt lat="40.97365216313648" lon="8.879229336616104"><ele>78.0</ele><time>2026-05-03T08:03:35Z</time></trkpt><trkpt lat="40.97362045942706" lon="8.879063056329358"><ele>77.25</ele><time>2026-05-03T08:03:36Z</time></trkpt><trkpt lat="40.97357757893969" lon="8.878904877237696"><ele>76.5</ele><time>2026-05-03T08:03:37Z</time></trkpt><trkpt lat="40.973505050113054" lon="8.878765074530335"><ele>75.75</ele><time>2026-05-03T08:03:38Z</time></trkpt><trkpt lat="40.9733979722599" lon="8.878650272371091"><ele>75.0</ele><time>2026-05-03T08:03:39Z</time></trkpt><trkpt lat="40.97326324023983" lon="8.878581868364233"><ele>78.75</ele><time>2026-05-03T08:03:40Z</time></trkpt><trkpt lat="40.97312597642869" lon="8.878558273798662"><ele>82.5</ele><time>2026-05-03T08:03:41Z</time></trkpt><trkpt lat="40.97298526091617" lon="8.878594182852487"><ele>86.25</ele><time>2026-05-03T08:03:42Z</time></trkpt><trkpt lat="40.97284429942461" lon="8.878675899763307"><ele>90.0</ele><time>2026-05-03T08:03:43Z</time></trkpt><trkpt lat="40.972730022411106" lon="8.878789698826214"><ele>90.0</ele><time>2026-05-03T08:03:44Z</time></trkpt><trkpt lat="40.97262973966725" lon="8.878895786813976"><ele>90.0</ele><time>2026-05-03T08:03:45Z</time></trkpt><trkpt lat="40.97254166672035" lon="8.879014984027332"><ele>90.0</ele><time>2026-05-03T08:03:46Z</time></trkpt><trkpt lat="40.97245655013988" lon="8.879148831736638"><ele>90.0</ele><time>2026-05-03T08:03:47Z</time></trkpt><trkpt lat="40.97237968547589" lon="8.879293043330547"><ele>92.25</ele><time>2026-05-03T08:03:48Z</time></trkpt><trkpt lat="40.97231583351456" lon="8.879452228395483"><ele>94.5</ele><time>2026-05-03T08:03:49Z</time></trkpt><trkpt lat="40.97223944181825" lon="8.87958855217069"><ele>96.75</ele><time>2026-05-03T08:03:50Z</time></trkpt><trkpt lat="40.97215854657806" lon="8.879691024130674"><ele>99.0</ele><time>2026-05-03T08:03:51Z</time></trkpt><trkpt lat="40.972068721388126" lon="8.879762962180829"><ele>99.0</ele><time>2026-05-03T08:03:52Z</time></trkpt><trkpt lat="40.97196927731718" lon="8.879788311646038"><ele>99.0</ele><time>2026-05-03T08:03:53Z</time></trkpt><trkpt lat="40.971855253201284" lon="8.879781640017988"><ele>99.0</ele><time>2026-05-03T08:03:54Z</time></trkpt><trkpt lat="40.97174332721184" lon="8.87973027098021"><ele>99.0</ele><time>2026-05-03T08:03:55Z</time></trkpt><trkpt lat="40.971636492053584" lon="8.879649105101171"><ele>97.25</ele><time>2026-05-03T08:03:56Z</time></trkpt><trkpt lat="40.97155319224226" lon="8.879534907214913"><ele>95.5</ele><time>2026-05-03T08:03:57Z</time></trkpt><trkpt lat="40.971503852230164" lon="8.879384058194539"><ele>93.75</ele><time>2026-05-03T08:03:58Z</time></trkpt><trkpt lat="40.971484611412286" lon="8.879217565068389"><ele>92.0</ele><time>2026-05-03T08:03:59Z</time></trkpt><trkpt lat="40.97149699053623" lon="8.879040042907997"><ele>91.0</ele><time>2026-05-03T08:04:00Z</time></trkpt><trkpt lat="40.97151093679492" lon="8.878842306035809"><ele>90.0</ele><time>2026-05-03T08:04:01Z</time></trkpt><trkpt lat="40.971538871577955" lon="8.878649955446987"><ele>89.0</ele><time>2026-05-03T08:04:02Z</time></trkpt><trkpt lat="40.97156702866636" lon="8.878457239440689"><ele>88.0</ele><time>2026-05-03T08:04:03Z</time></trkpt><trkpt lat="40.971595220767114" lon="8.878284057465825"><ele>87.75</ele><time>2026-05-03T08:04:04Z</time></trkpt><trkpt lat="40.97162346693862" lon="8.878123581329259"><ele>87.5</ele><time>2026-05-03T08:04:05Z</time></trkpt><trkpt lat="40.971654808502635" lon="8.877960426082318"><ele>87.25</ele><time>2026-05-03T08:04:06Z</time></trkpt><trkpt lat="40.971688683680355" lon="8.877783493116539"><ele>87.0</ele><time>2026-05-03T08:04:07Z</time></trkpt><trkpt lat="40.971722610401734" lon="8.877598412806627"><ele>83.0</ele><time>2026-05-03T08:04:08Z</time></trkpt><trkpt lat="40.971746782287056" lon="8.877408911086878"><ele>79.0</ele><time>2026-05-03T08:04:09Z</time></trkpt><trkpt lat="40.9717554584424" lon="8.877216232887047"><ele>75.0</ele><time>2026-05-03T08:04:10Z</time></trkpt><trkpt lat="40.97175259574029" lon="8.877028211483976"><ele>71.0</ele><time>2026-05-03T08:04:11Z</time></trkpt><trkpt lat="40.9717438531393" lon="8.876850359204884"><ele>69.75</ele><time>2026-05-03T08:04:12Z</time></trkpt><trkpt lat="40.97172257258749" lon="8.876677714257774"><ele>68.5</ele><time>2026-05-03T08:04:13Z</time></trkpt><trkpt lat="40.97168463092288" lon="8.876505838242585"><ele>67.25</ele><time>2026-05-03T08:04:14Z</time></trkpt><trkpt lat="40.97163675791351" lon="8.876334876676127"><ele>66.0</ele><time>2026-05-03T08:04:15Z</time></trkpt><trkpt lat="40.97157203647517" lon="8.876167919896952"><ele>68.75</ele><time>2026-05-03T08:04:16Z</time></trkpt><trkpt lat="40.97150024417641" lon="8.87600508662606"><ele>71.5</ele><time>2026-05-03T08:04:17Z</time></trkpt><trkpt lat="40.97142320049686" lon="8.87584530222793"><ele>74.25</ele><time>2026-05-03T08:04:18Z</time></trkpt><trkpt lat="40.97134476094632" lon="8.875697821986002"><ele>77.0</ele><time>2026-05-03T08:04:19Z</time></trkpt><trkpt lat="40.97125951070644" lon="8.875564771305633"><ele>77.0</ele><time>2026-05-03T08:04:20Z</time></trkpt><trkpt lat="40.971163029756354" lon="8.87544605479397"><ele>77.0</ele><time>2026-05-03T08:04:21Z</time></trkpt><trkpt lat="40.97105164405605" lon="8.87535251762366"><ele>77.0</ele><time>2026-05-03T08:04:22Z</time></trkpt><trkpt lat="40.97093243457388" lon="8.875280885750602"><ele>77.0</ele><time>2026-05-03T08:04:23Z</time></trkpt><trkpt lat="40.97081403324695" lon="8.87523432524927"><ele>79.33333333333334</ele><time>2026-05-03T08:04:24Z</time></trkpt><trkpt lat="40.9707110362006" lon="8.875226093288287"><ele>81.66666666666667</ele><time>2026-05-03T08:04:25Z</time></trkpt><trkpt lat="40.97061011264348" lon="8.875263441258118"><ele>84.0</ele><time>2026-05-03T08:04:27Z</time></trkpt><trkpt lat="40.97054173454755" lon="8.875283122437265"><ele>86.33333333333333</ele><time>2026-05-03T08:04:31Z</time></trkpt><trkpt lat="40.97047780695673" lon="8.875292572639205"><ele>88.66666666666666</ele><time>2026-05-03T08:04:33Z</time></trkpt><trkpt lat="40.97037792896843" lon="8.875259356417445"><ele>91.0</ele><time>2026-05-03T08:04:35Z</time></trkpt><trkpt lat="40.97032212286245" lon="8.875204563605674"><ele>91.0</ele><time>2026-05-03T08:04:36Z</time></trkpt><trkpt lat="40.97024752880785" lon="8.87517268705486"><ele>91.0</ele><time>2026-05-03T08:04:37Z</time></trkpt><trkpt lat="40.970178309992484" lon="8.875179655412516"><ele>91.0</ele><time>2026-05-03T08:04:38Z</time></trkpt><trkpt lat="40.9701155782337" lon="8.875221476745413"><ele>91.0</ele><time>2026-05-03T08:04:39Z</time></trkpt><trkpt lat="40.97005324847295" lon="8.87526640730364"><ele>91.0</ele><time>2026-05-03T08:04:40Z</time></trkpt><trkpt lat="40.96999057257195" lon="8.875313989325251"><ele>91.0</ele><time>2026-05-03T08:04:41Z</time></trkpt><trkpt lat="40.96992880454757" lon="8.875367918535646"><ele>91.0</ele><time>2026-05-03T08:04:42Z</time></trkpt><trkpt lat="40.96987649548727" lon="8.875437186195567"><ele>90.0</ele><time>2026-05-03T08:04:43Z</time></trkpt><trkpt lat="40.96983636931283" lon="8.875539298778682"><ele>89.0</ele><time>2026-05-03T08:04:44Z</time></trkpt><trkpt lat="40.969792794696886" lon="8.875655585151128"><ele>88.0</ele><time>2026-05-03T08:04:45Z</time></trkpt><trkpt lat="40.96971708183965" lon="8.875756567635095"><ele>87.0</ele><time>2026-05-03T08:04:46Z</time></trkpt><trkpt lat="40.96960912514178" lon="8.875775676874602"><ele>86.0</ele><time>2026-05-03T08:04:47Z</time></trkpt><trkpt lat="40.969489440185775" lon="8.875789104832302"><ele>86.0</ele><time>2026-05-03T08:04:48Z</time></trkpt><trkpt lat="40.969357724799046" lon="8.875793886888497"><ele>86.0</ele><time>2026-05-03T08:04:49Z</time></trkpt><trkpt lat="40.96921213901007" lon="8.875792714825248"><ele>86.0</ele><time>2026-05-03T08:04:50Z</time></trkpt><trkpt lat="40.969068369867315" lon="8.875763027304956"><ele>86.0</ele><time>2026-05-03T08:04:51Z</time></trkpt><trkpt lat="40.96893653728808" lon="8.87568621757585"><ele>85.0</ele><time>2026-05-03T08:04:52Z</time></trkpt><trkpt lat="40.96881915451433" lon="8.875568182777092"><ele>84.0</ele><time>2026-05-03T08:04:53Z</time></trkpt><trkpt lat="40.96869915233218" lon="8.875433758543908"><ele>83.0</ele><time>2026-05-03T08:04:54Z</time></trkpt><trkpt lat="40.968577857988315" lon="8.875297880997998"><ele>83.0</ele><time>2026-05-03T08:04:55Z</time></trkpt><trkpt lat="40.968451449549676" lon="8.875172783231603"><ele>83.0</ele><time>2026-05-03T08:04:56Z</time></trkpt><trkpt lat="40.968317051734594" lon="8.875081755186152"><ele>83.0</ele><time>2026-05-03T08:04:57Z</time></trkpt><trkpt lat="40.968179194208986" lon="8.87502670166789"><ele>81.75</ele><time>2026-05-03T08:04:58Z</time></trkpt><trkpt lat="40.96804144891048" lon="8.874998526206328"><ele>80.5</ele><time>2026-05-03T08:04:59Z</time></trkpt><trkpt lat="40.96790401229612" lon="8.874979895938294"><ele>79.25</ele><time>2026-05-03T08:05:00Z</time></trkpt><trkpt lat="40.96775844927502" lon="8.87496273545192"><ele>78.0</ele><time>2026-05-03T08:05:01Z</time></trkpt><trkpt lat="40.96760703054477" lon="8.87494488466562"><ele>76.0</ele><time>2026-05-03T08:05:02Z</time></trkpt><trkpt lat="40.96744853109128" lon="8.874924141030323"><ele>74.0</ele><time>2026-05-03T08:05:03Z</time></trkpt><trkpt lat="40.96728193662172" lon="8.874936051249811"><ele>72.0</ele><time>2026-05-03T08:05:04Z</time></trkpt><trkpt lat="40.967112534970326" lon="8.874915688581751"><ele>72.0</ele><time>2026-05-03T08:05:05Z</time></trkpt><trkpt lat="40.96694104249151" lon="8.874894630409766"><ele>72.0</ele><time>2026-05-03T08:05:06Z</time></trkpt><trkpt lat="40.96676305270675" lon="8.87488698279329"><ele>72.0</ele><time>2026-05-03T08:05:07Z</time></trkpt><trkpt lat="40.96658322742272" lon="8.874905607954808"><ele>71.0</ele><time>2026-05-03T08:05:08Z</time></trkpt><trkpt lat="40.966414454128426" lon="8.874945561964605"><ele>70.0</ele><time>2026-05-03T08:05:09Z</time></trkpt><trkpt lat="40.9662489687432" lon="8.875016343690506"><ele>69.0</ele><time>2026-05-03T08:05:10Z</time></trkpt><trkpt lat="40.96609569502536" lon="8.875110114783093"><ele>69.33333333333333</ele><time>2026-05-03T08:05:11Z</time></trkpt><trkpt lat="40.965953122457925" lon="8.875211772217193"><ele>69.66666666666666</ele><time>2026-05-03T08:05:12Z</time></trkpt><trkpt lat="40.96582492280806" lon="8.875334464963517"><ele>70.0</ele><time>2026-05-03T08:05:13Z</time></trkpt><trkpt lat="40.96569419131345" lon="8.875480573870076"><ele>70.0</ele><time>2026-05-03T08:05:14Z</time></trkpt><trkpt lat="40.96556105379951" lon="8.875636605630678"><ele>70.0</ele><time>2026-05-03T08:05:15Z</time></trkpt><trkpt lat="40.96542578100291" lon="8.875802109550108"><ele>70.0</ele><time>2026-05-03T08:05:16Z</time></trkpt><trkpt lat="40.96528817203853" lon="8.875973600664858"><ele>72.33333333333333</ele><time>2026-05-03T08:05:17Z</time></trkpt><trkpt lat="40.96515530905379" lon="8.876137333869677"><ele>74.66666666666667</ele><time>2026-05-03T08:05:18Z</time></trkpt><trkpt lat="40.965028777089614" lon="8.87629139899863"><ele>77.0</ele><time>2026-05-03T08:05:19Z</time></trkpt><trkpt lat="40.964908141399356" lon="8.876441224683575"><ele>73.33333333333334</ele><time>2026-05-03T08:05:20Z</time></trkpt><trkpt lat="40.96478749230338" lon="8.87659300964566"><ele>69.66666666666667</ele><time>2026-05-03T08:05:21Z</time></trkpt><trkpt lat="40.964652615008234" lon="8.8767322744978"><ele>66.0</ele><time>2026-05-03T08:05:22Z</time></trkpt><trkpt lat="40.964536797641884" lon="8.876903553291157"><ele>66.0</ele><time>2026-05-03T08:05:23Z</time></trkpt><trkpt lat="40.9644129112393" lon="8.877054059751192"><ele>66.0</ele><time>2026-05-03T08:05:24Z</time></trkpt><trkpt lat="40.96427301414281" lon="8.877174198394957"><ele>66.0</ele><time>2026-05-03T08:05:25Z</time></trkpt><trkpt lat="40.96414366982862" lon="8.877289032070474"><ele>62.33333333333333</ele><time>2026-05-03T08:05:26Z</time></trkpt><trkpt lat="40.964017529849286" lon="8.877403914998714"><ele>58.666666666666664</ele><time>2026-05-03T08:05:27Z</time></trkpt><trkpt lat="40.96386628754065" lon="8.877448840916779"><ele>55.0</ele><time>2026-05-03T08:05:28Z</time></trkpt><trkpt lat="40.96372041897684" lon="8.877497326973485"><ele>55.0</ele><time>2026-05-03T08:05:29Z</time></trkpt><trkpt lat="40.963572336673906" lon="8.877533172905782"><ele>55.0</ele><time>2026-05-03T08:05:30Z</time></trkpt><trkpt lat="40.963421034622876" lon="8.877569146822314"><ele>55.0</ele><time>2026-05-03T08:05:31Z</time></trkpt><trkpt lat="40.963269141062035" lon="8.877604507188746"><ele>55.33333333333333</ele><time>2026-05-03T08:05:32Z</time></trkpt><trkpt lat="40.9631160597387" lon="8.877639540864394"><ele>55.66666666666667</ele><time>2026-05-03T08:05:33Z</time></trkpt><trkpt lat="40.962963133509426" lon="8.877674539059022"><ele>56.0</ele><time>2026-05-03T08:05:34Z</time></trkpt><trkpt lat="40.96280932300934" lon="8.877709739612872"><ele>56.0</ele><time>2026-05-03T08:05:35Z</time></trkpt><trkpt lat="40.962656265105785" lon="8.877744769261346"><ele>56.0</ele><time>2026-05-03T08:05:36Z</time></trkpt><trkpt lat="40.96250663528899" lon="8.87780456224812"><ele>56.0</ele><time>2026-05-03T08:05:37Z</time></trkpt><trkpt lat="40.962353361845636" lon="8.877840742767232"><ele>54.66666666666667</ele><time>2026-05-03T08:05:38Z</time></trkpt><trkpt lat="40.96219949744263" lon="8.877878554936945"><ele>53.33333333333333</ele><time>2026-05-03T08:05:39Z</time></trkpt><trkpt lat="40.96204756514164" lon="8.87791980288546"><ele>52.0</ele><time>2026-05-03T08:05:40Z</time></trkpt><trkpt lat="40.96188958996319" lon="8.87793735482742"><ele>52.0</ele><time>2026-05-03T08:05:41Z</time></trkpt><trkpt lat="40.961738263611906" lon="8.877996067360316"><ele>52.0</ele><time>2026-05-03T08:05:42Z</time></trkpt><trkpt lat="40.96159274669868" lon="8.878077837074764"><ele>52.0</ele><time>2026-05-03T08:05:43Z</time></trkpt><trkpt lat="40.96143385278109" lon="8.878122495040088"><ele>51.33333333333333</ele><time>2026-05-03T08:05:44Z</time></trkpt><trkpt lat="40.96128324069708" lon="8.878210600310927"><ele>50.66666666666667</ele><time>2026-05-03T08:05:45Z</time></trkpt><trkpt lat="40.96112496344846" lon="8.878280782682436"><ele>50.0</ele><time>2026-05-03T08:05:46Z</time></trkpt><trkpt lat="40.960963545987575" lon="8.87835336703362"><ele>49.66666666666667</ele><time>2026-05-03T08:05:47Z</time></trkpt><trkpt lat="40.96080078471157" lon="8.878424966954011"><ele>49.33333333333333</ele><time>2026-05-03T08:05:48Z</time></trkpt><trkpt lat="40.960632452251424" lon="8.878501196756812"><ele>49.0</ele><time>2026-05-03T08:05:49Z</time></trkpt><trkpt lat="40.96045754668627" lon="8.878555264082188"><ele>49.0</ele><time>2026-05-03T08:05:50Z</time></trkpt><trkpt lat="40.9602865563655" lon="8.878630899398502"><ele>49.0</ele><time>2026-05-03T08:05:51Z</time></trkpt><trkpt lat="40.96011307713846" lon="8.878707752169644"><ele>49.0</ele><time>2026-05-03T08:05:52Z</time></trkpt><trkpt lat="40.95993941168501" lon="8.878784687429054"><ele>47.33333333333333</ele><time>2026-05-03T08:05:53Z</time></trkpt><trkpt lat="40.95976702103605" lon="8.878861327891379"><ele>45.666666666666664</ele><time>2026-05-03T08:05:54Z</time></trkpt><trkpt lat="40.95959616884615" lon="8.878937478258203"><ele>44.0</ele><time>2026-05-03T08:05:55Z</time></trkpt><trkpt lat="40.95942664450975" lon="8.879011238868623"><ele>44.0</ele><time>2026-05-03T08:05:56Z</time></trkpt><trkpt lat="40.959261512572496" lon="8.879087268963934"><ele>44.0</ele><time>2026-05-03T08:05:57Z</time></trkpt><trkpt lat="40.95910057416432" lon="8.879165538121091"><ele>44.0</ele><time>2026-05-03T08:05:58Z</time></trkpt><trkpt lat="40.95893508547566" lon="8.879140684842842"><ele>43.5</ele><time>2026-05-03T08:05:59Z</time></trkpt><trkpt lat="40.958782564930935" lon="8.879118359123856"><ele>43.0</ele><time>2026-05-03T08:06:00Z</time></trkpt><trkpt lat="40.958637897969304" lon="8.879070252883864"><ele>42.5</ele><time>2026-05-03T08:06:01Z</time></trkpt><trkpt lat="40.95850454543859" lon="8.878993725840003"><ele>42.0</ele><time>2026-05-03T08:06:02Z</time></trkpt><trkpt lat="40.95838140125552" lon="8.878887549749289"><ele>42.333333333333336</ele><time>2026-05-03T08:06:03Z</time></trkpt><trkpt lat="40.95826426665136" lon="8.878759405942715"><ele>42.66666666666667</ele><time>2026-05-03T08:06:04Z</time></trkpt><trkpt lat="40.9581691081369" lon="8.878605507554932"><ele>43.0</ele><time>2026-05-03T08:06:05Z</time></trkpt><trkpt lat="40.95807373118441" lon="8.87844435196719"><ele>42.0</ele><time>2026-05-03T08:06:06Z</time></trkpt><trkpt lat="40.95799973470538" lon="8.878254404729633"><ele>41.0</ele><time>2026-05-03T08:06:07Z</time></trkpt><trkpt lat="40.957927898566275" lon="8.878057650161947"><ele>40.0</ele><time>2026-05-03T08:06:08Z</time></trkpt><trkpt lat="40.95785717013266" lon="8.877853793871909"><ele>40.0</ele><time>2026-05-03T08:06:09Z</time></trkpt><trkpt lat="40.957802927292946" lon="8.877636482456456"><ele>40.0</ele><time>2026-05-03T08:06:10Z</time></trkpt><trkpt lat="40.95771461517742" lon="8.877436216090533"><ele>40.0</ele><time>2026-05-03T08:06:11Z</time></trkpt><trkpt lat="40.95763852587549" lon="8.877222416601462"><ele>39.333333333333336</ele><time>2026-05-03T08:06:12Z</time></trkpt><trkpt lat="40.95756268858947" lon="8.877004693638495"><ele>38.666666666666664</ele><time>2026-05-03T08:06:13Z</time></trkpt><trkpt lat="40.95748616717746" lon="8.876786346684401"><ele>38.0</ele><time>2026-05-03T08:06:14Z</time></trkpt><trkpt lat="40.957408732806236" lon="8.876567266067772"><ele>39.666666666666664</ele><time>2026-05-03T08:06:15Z</time></trkpt><trkpt lat="40.95733073680007" lon="8.876348404522153"><ele>41.333333333333336</ele><time>2026-05-03T08:06:16Z</time></trkpt><trkpt lat="40.95725366661898" lon="8.876135541267278"><ele>43.0</ele><time>2026-05-03T08:06:17Z</time></trkpt><trkpt lat="40.95717993320839" lon="8.875933317553601"><ele>43.0</ele><time>2026-05-03T08:06:18Z</time></trkpt><trkpt lat="40.95711084573927" lon="8.875742699737604"><ele>43.0</ele><time>2026-05-03T08:06:19Z</time></trkpt><trkpt lat="40.95704446856635" lon="8.875559356865576"><ele>43.0</ele><time>2026-05-03T08:06:20Z</time></trkpt><trkpt lat="40.95696885144874" lon="8.875381997160055"><ele>43.0</ele><time>2026-05-03T08:06:21Z</time></trkpt><trkpt lat="40.9568772211257" lon="8.87521344945614"><ele>43.0</ele><time>2026-05-03T08:06:22Z</time></trkpt><trkpt lat="40.95677102344547" lon="8.875056730017157"><ele>43.0</ele><time>2026-05-03T08:06:23Z</time></trkpt><trkpt lat="40.956667239755454" lon="8.874890552742016"><ele>42.66666666666667</ele><time>2026-05-03T08:06:24Z</time></trkpt><trkpt lat="40.956535650948084" lon="8.874756648346674"><ele>42.333333333333336</ele><time>2026-05-03T08:06:25Z</time></trkpt><trkpt lat="40.95638650416987" lon="8.874655677899483"><ele>42.0</ele><time>2026-05-03T08:06:26Z</time></trkpt><trkpt lat="40.95623974447938" lon="8.874543986160159"><ele>42.0</ele><time>2026-05-03T08:06:27Z</time></trkpt><trkpt lat="40.956097323739485" lon="8.874414515407958"><ele>42.0</ele><time>2026-05-03T08:06:28Z</time></trkpt><trkpt lat="40.95594487798656" lon="8.874302074171633"><ele>42.0</ele><time>2026-05-03T08:06:29Z</time></trkpt><trkpt lat="40.95578980633977" lon="8.87418769607249"><ele>38.666666666666664</ele><time>2026-05-03T08:06:30Z</time></trkpt><trkpt lat="40.95563154289078" lon="8.874071222785597"><ele>35.33333333333333</ele><time>2026-05-03T08:06:31Z</time></trkpt><trkpt lat="40.95547171852068" lon="8.873953608661939"><ele>32.0</ele><time>2026-05-03T08:06:32Z</time></trkpt><trkpt lat="40.9553089802434" lon="8.873833850143287"><ele>32.0</ele><time>2026-05-03T08:06:33Z</time></trkpt><trkpt lat="40.95514369278893" lon="8.873712340256352"><ele>32.0</ele><time>2026-05-03T08:06:34Z</time></trkpt><trkpt lat="40.9549777011034" lon="8.873590347320226"><ele>32.0</ele><time>2026-05-03T08:06:35Z</time></trkpt><trkpt lat="40.95480684253057" lon="8.873481595240438"><ele>29.666666666666664</ele><time>2026-05-03T08:06:36Z</time></trkpt><trkpt lat="40.95464539942758" lon="8.873346085203876"><ele>27.333333333333336</ele><time>2026-05-03T08:06:37Z</time></trkpt><trkpt lat="40.95448043886744" lon="8.873224430803004"><ele>25.0</ele><time>2026-05-03T08:06:38Z</time></trkpt><trkpt lat="40.95431645838143" lon="8.873103493293913"><ele>25.0</ele><time>2026-05-03T08:06:39Z</time></trkpt><trkpt lat="40.95415111846272" lon="8.873003252793811"><ele>25.0</ele><time>2026-05-03T08:06:40Z</time></trkpt><trkpt lat="40.95400000940332" lon="8.87289057172506"><ele>25.0</ele><time>2026-05-03T08:06:41Z</time></trkpt><trkpt lat="40.95385981528335" lon="8.872791003458603"><ele>25.0</ele><time>2026-05-03T08:06:42Z</time></trkpt><trkpt lat="40.95373027137692" lon="8.872671162530482"><ele>25.0</ele><time>2026-05-03T08:06:43Z</time></trkpt><trkpt lat="40.9535866782508" lon="8.872587775016097"><ele>25.0</ele><time>2026-05-03T08:06:44Z</time></trkpt><trkpt lat="40.953450352111275" lon="8.872480629534044"><ele>25.333333333333336</ele><time>2026-05-03T08:06:45Z</time></trkpt><trkpt lat="40.95331100209638" lon="8.8723733350805"><ele>25.666666666666664</ele><time>2026-05-03T08:06:46Z</time></trkpt><trkpt lat="40.953166487770254" lon="8.87226808017101"><ele>26.0</ele><time>2026-05-03T08:06:47Z</time></trkpt><trkpt lat="40.953019937174766" lon="8.87216453239075"><ele>26.0</ele><time>2026-05-03T08:06:48Z</time></trkpt><trkpt lat="40.95287161603407" lon="8.872059149575792"><ele>26.0</ele><time>2026-05-03T08:06:49Z</time></trkpt><trkpt lat="40.952728529687754" lon="8.871931964276529"><ele>26.0</ele><time>2026-05-03T08:06:50Z</time></trkpt><trkpt lat="40.95257660734902" lon="8.871819795056455"><ele>25.666666666666664</ele><time>2026-05-03T08:06:51Z</time></trkpt><trkpt lat="40.95242294621862" lon="8.871706507678624"><ele>25.333333333333336</ele><time>2026-05-03T08:06:52Z</time></trkpt><trkpt lat="40.952267601470126" lon="8.871592024610175"><ele>25.0</ele><time>2026-05-03T08:06:53Z</time></trkpt><trkpt lat="40.95211077895297" lon="8.87147645250931"><ele>25.0</ele><time>2026-05-03T08:06:54Z</time></trkpt><trkpt lat="40.95195164557712" lon="8.871359177358329"><ele>25.0</ele><time>2026-05-03T08:06:55Z</time></trkpt><trkpt lat="40.95178598740259" lon="8.871262871614695"><ele>25.0</ele><time>2026-05-03T08:06:56Z</time></trkpt><trkpt lat="40.95163498418267" lon="8.871152588876054"><ele>24.0</ele><time>2026-05-03T08:06:57Z</time></trkpt><trkpt lat="40.95148535689843" lon="8.87104237637578"><ele>23.0</ele><time>2026-05-03T08:06:58Z</time></trkpt><trkpt lat="40.95133583836857" lon="8.870929464858195"><ele>22.0</ele><time>2026-05-03T08:06:59Z</time></trkpt><trkpt lat="40.951185530824496" lon="8.870819235794539"><ele>21.0</ele><time>2026-05-03T08:07:00Z</time></trkpt><trkpt lat="40.95103034738771" lon="8.870707287156801"><ele>20.0</ele><time>2026-05-03T08:07:01Z</time></trkpt><trkpt lat="40.950883486577524" lon="8.87057152940093"><ele>19.0</ele><time>2026-05-03T08:07:02Z</time></trkpt><trkpt lat="40.95072484444629" lon="8.870454732037132"><ele>19.0</ele><time>2026-05-03T08:07:03Z</time></trkpt><trkpt lat="40.95056324032511" lon="8.87033585154605"><ele>19.0</ele><time>2026-05-03T08:07:04Z</time></trkpt><trkpt lat="40.95039060034902" lon="8.870233810504828"><ele>19.0</ele><time>2026-05-03T08:07:05Z</time></trkpt><trkpt lat="40.950229014480186" lon="8.870097041357914"><ele>18.666666666666664</ele><time>2026-05-03T08:07:06Z</time></trkpt><trkpt lat="40.950053430606154" lon="8.86999038285562"><ele>18.333333333333332</ele><time>2026-05-03T08:07:07Z</time></trkpt><trkpt lat="40.949874157998245" lon="8.86989166906697"><ele>18.0</ele><time>2026-05-03T08:07:08Z</time></trkpt><trkpt lat="40.949689626399966" lon="8.86979675212664"><ele>18.0</ele><time>2026-05-03T08:07:09Z</time></trkpt><trkpt lat="40.94950443034467" lon="8.869704482176235"><ele>18.0</ele><time>2026-05-03T08:07:10Z</time></trkpt><trkpt lat="40.94932460433931" lon="8.869614887737331"><ele>18.0</ele><time>2026-05-03T08:07:11Z</time></trkpt><trkpt lat="40.94915068182368" lon="8.869550424485492"><ele>17.666666666666668</ele><time>2026-05-03T08:07:12Z</time></trkpt><trkpt lat="40.94898896318195" lon="8.869469619051268"><ele>17.333333333333336</ele><time>2026-05-03T08:07:13Z</time></trkpt><trkpt lat="40.948828161913916" lon="8.869368313768263"><ele>17.0</ele><time>2026-05-03T08:07:14Z</time></trkpt><trkpt lat="40.94865871834454" lon="8.869284348815125"><ele>16.333333333333336</ele><time>2026-05-03T08:07:15Z</time></trkpt><trkpt lat="40.94847848867694" lon="8.869215125225606"><ele>15.666666666666668</ele><time>2026-05-03T08:07:16Z</time></trkpt><trkpt lat="40.948299678159316" lon="8.86912666367625"><ele>15.0</ele><time>2026-05-03T08:07:17Z</time></trkpt><trkpt lat="40.948122744463504" lon="8.869015714042657"><ele>14.666666666666668</ele><time>2026-05-03T08:07:18Z</time></trkpt><trkpt lat="40.94793629455547" lon="8.868922263731463"><ele>14.333333333333334</ele><time>2026-05-03T08:07:19Z</time></trkpt><trkpt lat="40.947745558953095" lon="8.86882666538508"><ele>14.0</ele><time>2026-05-03T08:07:20Z</time></trkpt><trkpt lat="40.947554417229135" lon="8.868730619273117"><ele>13.0</ele><time>2026-05-03T08:07:21Z</time></trkpt><trkpt lat="40.947374223813" lon="8.868640035062402"><ele>12.0</ele><time>2026-05-03T08:07:22Z</time></trkpt><trkpt lat="40.94718090779449" lon="8.868542855471707"><ele>11.0</ele><time>2026-05-03T08:07:23Z</time></trkpt><trkpt lat="40.94698366279819" lon="8.868443699230097"><ele>10.666666666666666</ele><time>2026-05-03T08:07:24Z</time></trkpt><trkpt lat="40.94678680261066" lon="8.868344736441117"><ele>10.333333333333334</ele><time>2026-05-03T08:07:25Z</time></trkpt><trkpt lat="40.94658918152044" lon="8.868246446748351"><ele>10.0</ele><time>2026-05-03T08:07:26Z</time></trkpt><trkpt lat="40.94640140706488" lon="8.868151598250735"><ele>9.666666666666668</ele><time>2026-05-03T08:07:27Z</time></trkpt><trkpt lat="40.94621556427132" lon="8.868057094407899"><ele>9.333333333333334</ele><time>2026-05-03T08:07:28Z</time></trkpt><trkpt lat="40.94602739582736" lon="8.867961407948892"><ele>9.0</ele><time>2026-05-03T08:07:29Z</time></trkpt><trkpt lat="40.945835359623" lon="8.867868234819788"><ele>9.0</ele><time>2026-05-03T08:07:30Z</time></trkpt><trkpt lat="40.94563443250079" lon="8.86779115691353"><ele>9.0</ele><time>2026-05-03T08:07:31Z</time></trkpt><trkpt lat="40.94543259779995" lon="8.867710874494303"><ele>9.0</ele><time>2026-05-03T08:07:32Z</time></trkpt><trkpt lat="40.945223325134116" lon="8.867649729716506"><ele>7.666666666666667</ele><time>2026-05-03T08:07:33Z</time></trkpt><trkpt lat="40.94501058644906" lon="8.867606595103181"><ele>6.333333333333334</ele><time>2026-05-03T08:07:34Z</time></trkpt><trkpt lat="40.94479400707635" lon="8.86758702701055"><ele>5.0</ele><time>2026-05-03T08:07:35Z</time></trkpt><trkpt lat="40.944579574155696" lon="8.867586396381363"><ele>5.0</ele><time>2026-05-03T08:07:36Z</time></trkpt><trkpt lat="40.94436871857809" lon="8.867602183113977"><ele>5.0</ele><time>2026-05-03T08:07:37Z</time></trkpt><trkpt lat="40.944164354917994" lon="8.86762413918369"><ele>5.0</ele><time>2026-05-03T08:07:38Z</time></trkpt><trkpt lat="40.94397471614146" lon="8.867642630478702"><ele>5.333333333333334</ele><time>2026-05-03T08:07:39Z</time></trkpt><trkpt lat="40.943799057267945" lon="8.86760492709844"><ele>5.666666666666667</ele><time>2026-05-03T08:07:40Z</time></trkpt><trkpt lat="40.94363354726472" lon="8.867570380527228"><ele>6.0</ele><time>2026-05-03T08:07:41Z</time></trkpt><trkpt lat="40.943481697414086" lon="8.867507567707309"><ele>5.666666666666667</ele><time>2026-05-03T08:07:42Z</time></trkpt><trkpt lat="40.943323368233635" lon="8.867429482296833"><ele>5.333333333333334</ele><time>2026-05-03T08:07:43Z</time></trkpt><trkpt lat="40.943165549385725" lon="8.867327360146326"><ele>5.0</ele><time>2026-05-03T08:07:44Z</time></trkpt><trkpt lat="40.94300280303961" lon="8.867215676449153"><ele>5.0</ele><time>2026-05-03T08:07:45Z</time></trkpt><trkpt lat="40.94283338584457" lon="8.867097527063885"><ele>5.0</ele><time>2026-05-03T08:07:46Z</time></trkpt><trkpt lat="40.942670995087155" lon="8.866984277697012"><ele>5.0</ele><time>2026-05-03T08:07:47Z</time></trkpt><trkpt lat="40.94250649711415" lon="8.86686950504642"><ele>4.333333333333334</ele><time>2026-05-03T08:07:48Z</time></trkpt><trkpt lat="40.94234094640137" lon="8.866753998538316"><ele>3.666666666666667</ele><time>2026-05-03T08:07:49Z</time></trkpt><trkpt lat="40.94217186584044" lon="8.866636290993833"><ele>3.0</ele><time>2026-05-03T08:07:50Z</time></trkpt><trkpt lat="40.9420039122682" lon="8.866520686151032"><ele>3.0</ele><time>2026-05-03T08:07:51Z</time></trkpt><trkpt lat="40.94183967086299" lon="8.866407636447752"><ele>3.0</ele><time>2026-05-03T08:07:52Z</time></trkpt><trkpt lat="40.9416901526469" lon="8.866304754493147"><ele>3.0</ele><time>2026-05-03T08:07:53Z</time></trkpt><trkpt lat="40.941543421061304" lon="8.866205394898442"><ele>2.6666666666666665</ele><time>2026-05-03T08:07:54Z</time></trkpt><trkpt lat="40.94139587230708" lon="8.866105481970433"><ele>2.333333333333333</ele><time>2026-05-03T08:07:55Z</time></trkpt><trkpt lat="40.941247957518314" lon="8.866005321172201"><ele>2.0</ele><time>2026-05-03T08:07:56Z</time></trkpt><trkpt lat="40.94110890184752" lon="8.865911523175171"><ele>2.0</ele><time>2026-05-03T08:07:57Z</time></trkpt><trkpt lat="40.9409898974128" lon="8.86583175180244"><ele>2.0</ele><time>2026-05-03T08:07:58Z</time></trkpt><trkpt lat="40.940895401072204" lon="8.865772046114522"><ele>2.0</ele><time>2026-05-03T08:07:59Z</time></trkpt><trkpt lat="40.94080607923453" lon="8.8657191994583"><ele>2.0</ele><time>2026-05-03T08:08:00Z</time></trkpt><trkpt lat="40.94071969566573" lon="8.865698456043738"><ele>2.0</ele><time>2026-05-03T08:08:01Z</time></trkpt><trkpt lat="40.9406591408692" lon="8.865655224639745"><ele>1.9999999999999998</ele><time>2026-05-03T08:08:02Z</time></trkpt><trkpt lat="40.94056910619513" lon="8.865539031077152"><ele>2.0</ele><time>2026-05-03T08:08:04Z</time></trkpt><trkpt lat="40.94052743742763" lon="8.865468302509397"><ele>2.0</ele><time>2026-05-03T08:08:05Z</time></trkpt><trkpt lat="40.94047658401994" lon="8.86540438054099"><ele>2.0</ele><time>2026-05-03T08:08:06Z</time></trkpt><trkpt lat="40.94041354660416" lon="8.865350530727449"><ele>1.9999999999999998</ele><time>2026-05-03T08:08:07Z</time></trkpt><trkpt lat="40.94034895828837" lon="8.865303875225687"><ele>2.0</ele><time>2026-05-03T08:08:08Z</time></trkpt><trkpt lat="40.940281546192956" lon="8.865212046386988"><ele>2.0</ele><time>2026-05-03T08:08:10Z</time></trkpt><trkpt lat="40.94026284655308" lon="8.86511743757305"><ele>2.0</ele><time>2026-05-03T08:08:12Z</time></trkpt><trkpt lat="40.94018793313649" lon="8.86504317211336"><ele>2.0</ele><time>2026-05-03T08:08:14Z</time></trkpt><trkpt lat="40.940043570577124" lon="8.865056712948045"><ele>2.0</ele><time>2026-05-03T08:08:16Z</time></trkpt><trkpt lat="40.93997100429349" lon="8.8650817360324"><ele>2.0</ele><time>2026-05-03T08:08:17Z</time></trkpt><trkpt lat="40.93990795782311" lon="8.8650749339477"><ele>2.2</ele><time>2026-05-03T08:08:18Z</time></trkpt><trkpt lat="40.939795853335156" lon="8.864983804217106"><ele>2.4000000000000004</ele><time>2026-05-03T08:08:20Z</time></trkpt><trkpt lat="40.9397158434916" lon="8.864929438338699"><ele>2.5999999999999996</ele><time>2026-05-03T08:08:21Z</time></trkpt><trkpt lat="40.93962951046572" lon="8.86487097618153"><ele>2.8</ele><time>2026-05-03T08:08:22Z</time></trkpt><trkpt lat="40.939538039858604" lon="8.86480903498798"><ele>3.0</ele><time>2026-05-03T08:08:23Z</time></trkpt><trkpt lat="40.93944623340146" lon="8.86474620661997"><ele>3.0</ele><time>2026-05-03T08:08:24Z</time></trkpt><trkpt lat="40.939341917708234" lon="8.864698674437841"><ele>3.0</ele><time>2026-05-03T08:08:25Z</time></trkpt><trkpt lat="40.93923444046276" lon="8.864623893588792"><ele>3.0</ele><time>2026-05-03T08:08:26Z</time></trkpt><trkpt lat="40.93911960766943" lon="8.86454323222383"><ele>3.0</ele><time>2026-05-03T08:08:27Z</time></trkpt><trkpt lat="40.93900178976371" lon="8.86444010434437"><ele>3.0</ele><time>2026-05-03T08:08:28Z</time></trkpt><trkpt lat="40.938868594017464" lon="8.864349944020539"><ele>3.0</ele><time>2026-05-03T08:08:29Z</time></trkpt><trkpt lat="40.93873203117863" lon="8.86425750453407"><ele>3.0</ele><time>2026-05-03T08:08:30Z</time></trkpt><trkpt lat="40.938590320358564" lon="8.864161580359873"><ele>2.6666666666666665</ele><time>2026-05-03T08:08:31Z</time></trkpt><trkpt lat="40.938444633466204" lon="8.86406296478484"><ele>2.333333333333333</ele><time>2026-05-03T08:08:32Z</time></trkpt><trkpt lat="40.93829692866011" lon="8.86396251790854"><ele>2.0</ele><time>2026-05-03T08:08:33Z</time></trkpt><trkpt lat="40.93813700334381" lon="8.863878382280799"><ele>1.6666666666666665</ele><time>2026-05-03T08:08:34Z</time></trkpt><trkpt lat="40.93799020494528" lon="8.863753792224072"><ele>1.3333333333333333</ele><time>2026-05-03T08:08:35Z</time></trkpt><trkpt lat="40.937826161883486" lon="8.8636668809063"><ele>1.0</ele><time>2026-05-03T08:08:36Z</time></trkpt><trkpt lat="40.93766781042507" lon="8.86355870217761"><ele>2.0</ele><time>2026-05-03T08:08:37Z</time></trkpt><trkpt lat="40.937521042963546" lon="8.863435699550461"><ele>3.0</ele><time>2026-05-03T08:08:38Z</time></trkpt><trkpt lat="40.93736988618664" lon="8.863357692844628"><ele>4.0</ele><time>2026-05-03T08:08:39Z</time></trkpt><trkpt lat="40.93723456428987" lon="8.86326742070813"><ele>4.0</ele><time>2026-05-03T08:08:40Z</time></trkpt><trkpt lat="40.937100856595094" lon="8.863174978927772"><ele>4.0</ele><time>2026-05-03T08:08:41Z</time></trkpt><trkpt lat="40.936973686108374" lon="8.863058198251093"><ele>4.0</ele><time>2026-05-03T08:08:42Z</time></trkpt><trkpt lat="40.93682721607103" lon="8.86297071992585"><ele>4.666666666666666</ele><time>2026-05-03T08:08:43Z</time></trkpt><trkpt lat="40.93671585124307" lon="8.86281786867814"><ele>5.333333333333333</ele><time>2026-05-03T08:08:44Z</time></trkpt><trkpt lat="40.93660111775771" lon="8.862657605324616"><ele>6.0</ele><time>2026-05-03T08:08:45Z</time></trkpt><trkpt lat="40.93649848394213" lon="8.862471470949343"><ele>6.0</ele><time>2026-05-03T08:08:46Z</time></trkpt><trkpt lat="40.93640615469169" lon="8.86227179842529"><ele>6.0</ele><time>2026-05-03T08:08:47Z</time></trkpt><trkpt lat="40.93632100574127" lon="8.862058474122817"><ele>6.0</ele><time>2026-05-03T08:08:48Z</time></trkpt><trkpt lat="40.9362379677865" lon="8.86184428710707"><ele>5.0</ele><time>2026-05-03T08:08:49Z</time></trkpt><trkpt lat="40.93615648148916" lon="8.861633661364166"><ele>4.0</ele><time>2026-05-03T08:08:50Z</time></trkpt><trkpt lat="40.936072929380046" lon="8.861417500327049"><ele>3.0</ele><time>2026-05-03T08:08:51Z</time></trkpt><trkpt lat="40.93598594782761" lon="8.861193893413809"><ele>3.0</ele><time>2026-05-03T08:08:52Z</time></trkpt><trkpt lat="40.935894651880474" lon="8.860959772515272"><ele>3.0</ele><time>2026-05-03T08:08:53Z</time></trkpt><trkpt lat="40.93580245179836" lon="8.86072327689948"><ele>3.0</ele><time>2026-05-03T08:08:54Z</time></trkpt><trkpt lat="40.93570878058438" lon="8.860482961022575"><ele>3.0</ele><time>2026-05-03T08:08:55Z</time></trkpt><trkpt lat="40.935615179796905" lon="8.860242825823692"><ele>3.0</ele><time>2026-05-03T08:08:56Z</time></trkpt><trkpt lat="40.93552395431514" lon="8.86000878453203"><ele>3.0</ele><time>2026-05-03T08:08:57Z</time></trkpt><trkpt lat="40.935433775177934" lon="8.859777427666849"><ele>3.0</ele><time>2026-05-03T08:08:58Z</time></trkpt><trkpt lat="40.935344423749456" lon="8.859550694620618"><ele>3.0</ele><time>2026-05-03T08:08:59Z</time></trkpt><trkpt lat="40.93525652467844" lon="8.8593277676151"><ele>3.0</ele><time>2026-05-03T08:09:00Z</time></trkpt><trkpt lat="40.93516934074084" lon="8.859106654315585"><ele>3.333333333333333</ele><time>2026-05-03T08:09:01Z</time></trkpt><trkpt lat="40.93508323293608" lon="8.858888270260996"><ele>3.6666666666666665</ele><time>2026-05-03T08:09:02Z</time></trkpt><trkpt lat="40.934996656758585" lon="8.858667155538711"><ele>4.0</ele><time>2026-05-03T08:09:03Z</time></trkpt><trkpt lat="40.93491426742369" lon="8.858455969821705"><ele>3.333333333333333</ele><time>2026-05-03T08:09:04Z</time></trkpt><trkpt lat="40.93483031013038" lon="8.858240765000794"><ele>2.6666666666666665</ele><time>2026-05-03T08:09:05Z</time></trkpt><trkpt lat="40.934747664441495" lon="8.858029850359143"><ele>2.0</ele><time>2026-05-03T08:09:06Z</time></trkpt><trkpt lat="40.934651865270055" lon="8.857832436107172"><ele>2.0</ele><time>2026-05-03T08:09:07Z</time></trkpt><trkpt lat="40.93457369340852" lon="8.857628611698487"><ele>2.0</ele><time>2026-05-03T08:09:08Z</time></trkpt><trkpt lat="40.93449636417325" lon="8.857432205382795"><ele>2.0</ele><time>2026-05-03T08:09:09Z</time></trkpt><trkpt lat="40.93442165929421" lon="8.857239234529274"><ele>2.0</ele><time>2026-05-03T08:09:10Z</time></trkpt><trkpt lat="40.93434868118888" lon="8.857048261602563"><ele>2.0</ele><time>2026-05-03T08:09:11Z</time></trkpt><trkpt lat="40.93427139965427" lon="8.856851158195983"><ele>2.0</ele><time>2026-05-03T08:09:12Z</time></trkpt><trkpt lat="40.93419398641852" lon="8.85664846378241"><ele>2.0</ele><time>2026-05-03T08:09:13Z</time></trkpt><trkpt lat="40.934122924297085" lon="8.856434710241523"><ele>2.0</ele><time>2026-05-03T08:09:14Z</time></trkpt><trkpt lat="40.93404098679541" lon="8.856224807442064"><ele>2.0</ele><time>2026-05-03T08:09:15Z</time></trkpt><trkpt lat="40.93395940518765" lon="8.856015816359818"><ele>1.6666666666666665</ele><time>2026-05-03T08:09:16Z</time></trkpt><trkpt lat="40.93387109558312" lon="8.855834162781596"><ele>1.3333333333333333</ele><time>2026-05-03T08:09:17Z</time></trkpt><trkpt lat="40.93380498142925" lon="8.85564879962989"><ele>1.0</ele><time>2026-05-03T08:09:18Z</time></trkpt><trkpt lat="40.93375055079745" lon="8.855484238203497"><ele>1.0</ele><time>2026-05-03T08:09:19Z</time></trkpt><trkpt lat="40.9337310079243" lon="8.855332549377703"><ele>1.0</ele><time>2026-05-03T08:09:20Z</time></trkpt><trkpt lat="40.93370271865478" lon="8.855208710020692"><ele>1.0</ele><time>2026-05-03T08:09:21Z</time></trkpt><trkpt lat="40.93367962147867" lon="8.85509562927363"><ele>1.0</ele><time>2026-05-03T08:09:22Z</time></trkpt><trkpt lat="40.93365864437897" lon="8.854992853650025"><ele>1.0</ele><time>2026-05-03T08:09:23Z</time></trkpt><trkpt lat="40.93354177197451" lon="8.854961225819537"><ele>1.25</ele><time>2026-05-03T08:09:24Z</time></trkpt><trkpt lat="40.93345596866463" lon="8.854950762470244"><ele>1.5</ele><time>2026-05-03T08:09:25Z</time></trkpt><trkpt lat="40.933352145521" lon="8.85498499677982"><ele>1.75</ele><time>2026-05-03T08:09:26Z</time></trkpt><trkpt lat="40.93323469994516" lon="8.85503619553234"><ele>2.0</ele><time>2026-05-03T08:09:27Z</time></trkpt><trkpt lat="40.9330991586234" lon="8.855094572724905"><ele>1.6666666666666665</ele><time>2026-05-03T08:09:28Z</time></trkpt><trkpt lat="40.93294607609721" lon="8.855148087761647"><ele>1.3333333333333333</ele><time>2026-05-03T08:09:29Z</time></trkpt><trkpt lat="40.93277328092281" lon="8.855200649189191"><ele>1.0</ele><time>2026-05-03T08:09:30Z</time></trkpt><trkpt lat="40.93259203981829" lon="8.855258594655137"><ele>1.6666666666666665</ele><time>2026-05-03T08:09:31Z</time></trkpt><trkpt lat="40.93240754822661" lon="8.855318705752556"><ele>2.3333333333333335</ele><time>2026-05-03T08:09:32Z</time></trkpt><trkpt lat="40.93223749588447" lon="8.855374623456514"><ele>3.0</ele><time>2026-05-03T08:09:33Z</time></trkpt><trkpt lat="40.932074684669175" lon="8.855427180902812"><ele>3.0</ele><time>2026-05-03T08:09:34Z</time></trkpt><trkpt lat="40.93190175229922" lon="8.8554825134348"><ele>3.0</ele><time>2026-05-03T08:09:35Z</time></trkpt><trkpt lat="40.931723894913674" lon="8.855542880155305"><ele>3.0</ele><time>2026-05-03T08:09:36Z</time></trkpt><trkpt lat="40.931538452993784" lon="8.855603714080473"><ele>2.6666666666666665</ele><time>2026-05-03T08:09:37Z</time></trkpt><trkpt lat="40.93134672745421" lon="8.855665745829834"><ele>2.333333333333333</ele><time>2026-05-03T08:09:38Z</time></trkpt><trkpt lat="40.931152530237895" lon="8.855727467816132"><ele>2.0</ele><time>2026-05-03T08:09:39Z</time></trkpt><trkpt lat="40.93095786379933" lon="8.855791775484924"><ele>2.0</ele><time>2026-05-03T08:09:40Z</time></trkpt><trkpt lat="40.93076713832839" lon="8.855855748190919"><ele>2.0</ele><time>2026-05-03T08:09:41Z</time></trkpt><trkpt lat="40.93058157343094" lon="8.855918056436089"><ele>2.0</ele><time>2026-05-03T08:09:42Z</time></trkpt><trkpt lat="40.930396591068025" lon="8.855949355631152"><ele>2.0</ele><time>2026-05-03T08:09:43Z</time></trkpt><trkpt lat="40.930215219279006" lon="8.855980902326614"><ele>2.0</ele><time>2026-05-03T08:09:44Z</time></trkpt><trkpt lat="40.93003452556755" lon="8.855969735680933"><ele>2.0</ele><time>2026-05-03T08:09:45Z</time></trkpt><trkpt lat="40.92987833093053" lon="8.855838295457248"><ele>2.0</ele><time>2026-05-03T08:09:46Z</time></trkpt><trkpt lat="40.92971165898224" lon="8.855735076783512"><ele>2.0</ele><time>2026-05-03T08:09:47Z</time></trkpt><trkpt lat="40.92954659365249" lon="8.85562723116874"><ele>2.0</ele><time>2026-05-03T08:09:48Z</time></trkpt><trkpt lat="40.92938369840903" lon="8.855522123856627"><ele>2.0</ele><time>2026-05-03T08:09:49Z</time></trkpt><trkpt lat="40.929230861413394" lon="8.855423506573045"><ele>2.0</ele><time>2026-05-03T08:09:50Z</time></trkpt><trkpt lat="40.92908621821515" lon="8.855330176240221"><ele>2.0</ele><time>2026-05-03T08:09:51Z</time></trkpt><trkpt lat="40.928943973579145" lon="8.855238393630973"><ele>2.333333333333333</ele><time>2026-05-03T08:09:52Z</time></trkpt><trkpt lat="40.92880708472749" lon="8.855150066838426"><ele>2.6666666666666665</ele><time>2026-05-03T08:09:53Z</time></trkpt><trkpt lat="40.92866822170826" lon="8.855062207297953"><ele>3.0</ele><time>2026-05-03T08:09:54Z</time></trkpt><trkpt lat="40.928523818099634" lon="8.854972340064947"><ele>3.0</ele><time>2026-05-03T08:09:55Z</time></trkpt><trkpt lat="40.92836834323255" lon="8.854880874599028"><ele>3.0</ele><time>2026-05-03T08:09:56Z</time></trkpt><trkpt lat="40.9281959138695" lon="8.854831804571798"><ele>3.0</ele><time>2026-05-03T08:09:57Z</time></trkpt><trkpt lat="40.92802151812791" lon="8.854776815493786"><ele>3.0</ele><time>2026-05-03T08:09:58Z</time></trkpt><trkpt lat="40.92783810772221" lon="8.854745689125846"><ele>3.0</ele><time>2026-05-03T08:09:59Z</time></trkpt><trkpt lat="40.92764982483058" lon="8.85471899094029"><ele>3.0</ele><time>2026-05-03T08:10:00Z</time></trkpt><trkpt lat="40.92745863681725" lon="8.854693491164248"><ele>3.333333333333333</ele><time>2026-05-03T08:10:01Z</time></trkpt><trkpt lat="40.92726471182154" lon="8.85464402576572"><ele>3.6666666666666665</ele><time>2026-05-03T08:10:02Z</time></trkpt><trkpt lat="40.927066969422455" lon="8.854620545428155"><ele>4.0</ele><time>2026-05-03T08:10:03Z</time></trkpt><trkpt lat="40.92686568275575" lon="8.854596644284168"><ele>3.333333333333333</ele><time>2026-05-03T08:10:04Z</time></trkpt><trkpt lat="40.92666416962941" lon="8.854573181652178"><ele>2.6666666666666665</ele><time>2026-05-03T08:10:05Z</time></trkpt><trkpt lat="40.92646250061199" lon="8.854549840698944"><ele>2.0</ele><time>2026-05-03T08:10:06Z</time></trkpt><trkpt lat="40.926265372012296" lon="8.85452702523933"><ele>2.0</ele><time>2026-05-03T08:10:07Z</time></trkpt><trkpt lat="40.926065817350455" lon="8.854503928995335"><ele>2.0</ele><time>2026-05-03T08:10:08Z</time></trkpt><trkpt lat="40.925866771569524" lon="8.854480891649407"><ele>2.0</ele><time>2026-05-03T08:10:09Z</time></trkpt><trkpt lat="40.925669156441174" lon="8.854458019890421"><ele>2.6666666666666665</ele><time>2026-05-03T08:10:10Z</time></trkpt><trkpt lat="40.925471911659976" lon="8.854435190990873"><ele>3.333333333333333</ele><time>2026-05-03T08:10:11Z</time></trkpt><trkpt lat="40.92527502727673" lon="8.854412386142082"><ele>4.0</ele><time>2026-05-03T08:10:12Z</time></trkpt><trkpt lat="40.925079743949915" lon="8.854388539447285"><ele>3.333333333333333</ele><time>2026-05-03T08:10:13Z</time></trkpt><trkpt lat="40.92488584711063" lon="8.854366067036311"><ele>2.6666666666666665</ele><time>2026-05-03T08:10:14Z</time></trkpt><trkpt lat="40.924693973785736" lon="8.854344815491654"><ele>2.0</ele><time>2026-05-03T08:10:15Z</time></trkpt><trkpt lat="40.92450715311749" lon="8.8543239952582"><ele>2.0</ele><time>2026-05-03T08:10:16Z</time></trkpt><trkpt lat="40.924324070458944" lon="8.854301853408838"><ele>2.0</ele><time>2026-05-03T08:10:17Z</time></trkpt><trkpt lat="40.92414382618376" lon="8.85428800643071"><ele>2.0</ele><time>2026-05-03T08:10:18Z</time></trkpt><trkpt lat="40.92396552013173" lon="8.854279835558847"><ele>2.0</ele><time>2026-05-03T08:10:19Z</time></trkpt><trkpt lat="40.92378706828681" lon="8.854294617035007"><ele>2.0</ele><time>2026-05-03T08:10:20Z</time></trkpt><trkpt lat="40.92360515518576" lon="8.854330783765736"><ele>2.0</ele><time>2026-05-03T08:10:21Z</time></trkpt><trkpt lat="40.923421508453046" lon="8.854387983675922"><ele>2.333333333333333</ele><time>2026-05-03T08:10:22Z</time></trkpt><trkpt lat="40.92323516763447" lon="8.854454636015243"><ele>2.6666666666666665</ele><time>2026-05-03T08:10:23Z</time></trkpt><trkpt lat="40.923049984341866" lon="8.854526564240366"><ele>3.0</ele><time>2026-05-03T08:10:24Z</time></trkpt><trkpt lat="40.92286698035739" lon="8.854597645922674"><ele>3.0</ele><time>2026-05-03T08:10:25Z</time></trkpt><trkpt lat="40.922677061880236" lon="8.854671413337952"><ele>3.0</ele><time>2026-05-03T08:10:26Z</time></trkpt><trkpt lat="40.92249778877972" lon="8.854737904980652"><ele>3.0</ele><time>2026-05-03T08:10:27Z</time></trkpt><trkpt lat="40.9223111871721" lon="8.854789671744156"><ele>3.333333333333333</ele><time>2026-05-03T08:10:28Z</time></trkpt><trkpt lat="40.92211864435151" lon="8.85477948773769"><ele>3.6666666666666665</ele><time>2026-05-03T08:10:29Z</time></trkpt><trkpt lat="40.921932612452615" lon="8.854735989834285"><ele>4.0</ele><time>2026-05-03T08:10:30Z</time></trkpt><trkpt lat="40.921735847258496" lon="8.854694023033272"><ele>3.333333333333333</ele><time>2026-05-03T08:10:31Z</time></trkpt><trkpt lat="40.9215375859104" lon="8.854650361761825"><ele>2.6666666666666665</ele><time>2026-05-03T08:10:32Z</time></trkpt><trkpt lat="40.92133849738522" lon="8.854603942737615"><ele>2.0</ele><time>2026-05-03T08:10:33Z</time></trkpt><trkpt lat="40.9211345330186" lon="8.85455805949513"><ele>2.0</ele><time>2026-05-03T08:10:34Z</time></trkpt><trkpt lat="40.92093223375136" lon="8.854513447746273"><ele>2.0</ele><time>2026-05-03T08:10:35Z</time></trkpt><trkpt lat="40.92072723239105" lon="8.854468648269627"><ele>2.0</ele><time>2026-05-03T08:10:36Z</time></trkpt><trkpt lat="40.920525931711616" lon="8.854424384369587"><ele>2.333333333333333</ele><time>2026-05-03T08:10:37Z</time></trkpt><trkpt lat="40.92032690033703" lon="8.854379209264343"><ele>2.6666666666666665</ele><time>2026-05-03T08:10:38Z</time></trkpt><trkpt lat="40.92012535007808" lon="8.85433469592482"><ele>3.0</ele><time>2026-05-03T08:10:39Z</time></trkpt><trkpt lat="40.91992513175426" lon="8.854290681989168"><ele>3.333333333333333</ele><time>2026-05-03T08:10:40Z</time></trkpt><trkpt lat="40.91972249021356" lon="8.854246135371445"><ele>3.6666666666666665</ele><time>2026-05-03T08:10:41Z</time></trkpt><trkpt lat="40.91952330748456" lon="8.854203930718537"><ele>4.0</ele><time>2026-05-03T08:10:42Z</time></trkpt><trkpt lat="40.91932127807457" lon="8.854163764380525"><ele>4.0</ele><time>2026-05-03T08:10:43Z</time></trkpt><trkpt lat="40.91911836431909" lon="8.854148475465939"><ele>4.0</ele><time>2026-05-03T08:10:44Z</time></trkpt><trkpt lat="40.91891544945133" lon="8.854135008564734"><ele>4.0</ele><time>2026-05-03T08:10:45Z</time></trkpt><trkpt lat="40.91871257935642" lon="8.854137632627575"><ele>4.0</ele><time>2026-05-03T08:10:46Z</time></trkpt><trkpt lat="40.91850836478573" lon="8.854136342150648"><ele>4.0</ele><time>2026-05-03T08:10:47Z</time></trkpt><trkpt lat="40.918305393603895" lon="8.854130415249791"><ele>4.0</ele><time>2026-05-03T08:10:48Z</time></trkpt><trkpt lat="40.91810356517438" lon="8.854124223842748"><ele>4.0</ele><time>2026-05-03T08:10:49Z</time></trkpt><trkpt lat="40.91790139836317" lon="8.854114811493078"><ele>4.0</ele><time>2026-05-03T08:10:50Z</time></trkpt><trkpt lat="40.91770132192827" lon="8.854106765403058"><ele>4.0</ele><time>2026-05-03T08:10:51Z</time></trkpt><trkpt lat="40.9175016086819" lon="8.8541038266345"><ele>4.0</ele><time>2026-05-03T08:10:52Z</time></trkpt><trkpt lat="40.91730491273742" lon="8.854083216919742"><ele>4.0</ele><time>2026-05-03T08:10:53Z</time></trkpt><trkpt lat="40.917105459188186" lon="8.854077205943648"><ele>4.0</ele><time>2026-05-03T08:10:54Z</time></trkpt><trkpt lat="40.916906704265024" lon="8.85407121602036"><ele>3.333333333333333</ele><time>2026-05-03T08:10:55Z</time></trkpt><trkpt lat="40.916707620794696" lon="8.854079610192025"><ele>2.6666666666666665</ele><time>2026-05-03T08:10:56Z</time></trkpt><trkpt lat="40.91651124393483" lon="8.854076895823543"><ele>2.0</ele><time>2026-05-03T08:10:57Z</time></trkpt><trkpt lat="40.91631855401674" lon="8.854070383422775"><ele>2.0</ele><time>2026-05-03T08:10:58Z</time></trkpt><trkpt lat="40.91613082804209" lon="8.854064639096814"><ele>2.0</ele><time>2026-05-03T08:10:59Z</time></trkpt><trkpt lat="40.915946655400646" lon="8.854060762139639"><ele>2.0</ele><time>2026-05-03T08:11:00Z</time></trkpt><trkpt lat="40.91576477392196" lon="8.854056023505915"><ele>2.0</ele><time>2026-05-03T08:11:01Z</time></trkpt><trkpt lat="40.91558755297119" lon="8.85404935153821"><ele>2.0</ele><time>2026-05-03T08:11:02Z</time></trkpt><trkpt lat="40.91541269078646" lon="8.854042335292734"><ele>2.0</ele><time>2026-05-03T08:11:03Z</time></trkpt><trkpt lat="40.915240571088056" lon="8.8540377590346"><ele>2.0</ele><time>2026-05-03T08:11:04Z</time></trkpt><trkpt lat="40.91507224641845" lon="8.854035092745262"><ele>2.0</ele><time>2026-05-03T08:11:05Z</time></trkpt><trkpt lat="40.914905518355226" lon="8.854026160079098"><ele>2.0</ele><time>2026-05-03T08:11:06Z</time></trkpt><trkpt lat="40.91474235966185" lon="8.853998300700367"><ele>2.6666666666666665</ele><time>2026-05-03T08:11:07Z</time></trkpt><trkpt lat="40.91458228896181" lon="8.853968040253415"><ele>3.333333333333333</ele><time>2026-05-03T08:11:08Z</time></trkpt><trkpt lat="40.91443000478263" lon="8.85389700812201"><ele>4.0</ele><time>2026-05-03T08:11:09Z</time></trkpt><trkpt lat="40.91429337348887" lon="8.853788584741665"><ele>3.6666666666666665</ele><time>2026-05-03T08:11:10Z</time></trkpt><trkpt lat="40.914149915953075" lon="8.853666263930059"><ele>3.333333333333333</ele><time>2026-05-03T08:11:11Z</time></trkpt><trkpt lat="40.91400530134924" lon="8.853562852569011"><ele>3.0</ele><time>2026-05-03T08:11:12Z</time></trkpt><trkpt lat="40.91388656595908" lon="8.85343032302897"><ele>3.0</ele><time>2026-05-03T08:11:13Z</time></trkpt><trkpt lat="40.91377065944605" lon="8.853316552417525"><ele>3.0</ele><time>2026-05-03T08:11:14Z</time></trkpt><trkpt lat="40.913667963763515" lon="8.853207484127948"><ele>3.0</ele><time>2026-05-03T08:11:15Z</time></trkpt><trkpt lat="40.91359028244496" lon="8.853114960404247"><ele>3.0</ele><time>2026-05-03T08:11:16Z</time></trkpt><trkpt lat="40.91354164259368" lon="8.853023795357053"><ele>3.0</ele><time>2026-05-03T08:11:17Z</time></trkpt><trkpt lat="40.913476609809464" lon="8.852921998032068"><ele>3.0</ele><time>2026-05-03T08:11:19Z</time></trkpt><trkpt lat="40.91342275995873" lon="8.852876236696959"><ele>3.0</ele><time>2026-05-03T08:11:21Z</time></trkpt><trkpt lat="40.91328876657225" lon="8.852952013886906"><ele>3.0</ele><time>2026-05-03T08:11:24Z</time></trkpt><trkpt lat="40.91323293489701" lon="8.853060275466481"><ele>3.0</ele><time>2026-05-03T08:11:25Z</time></trkpt><trkpt lat="40.91316751611687" lon="8.853183479345319"><ele>3.333333333333333</ele><time>2026-05-03T08:11:26Z</time></trkpt><trkpt lat="40.9130869308983" lon="8.853326130031153"><ele>3.6666666666666665</ele><time>2026-05-03T08:11:27Z</time></trkpt><trkpt lat="40.912987099767385" lon="8.853505927015041"><ele>4.0</ele><time>2026-05-03T08:11:28Z</time></trkpt><trkpt lat="40.91287371286685" lon="8.853706099879673"><ele>4.0</ele><time>2026-05-03T08:11:29Z</time></trkpt><trkpt lat="40.91275727201649" lon="8.853908652859852"><ele>4.0</ele><time>2026-05-03T08:11:30Z</time></trkpt><trkpt lat="40.91265429923102" lon="8.854090285935909"><ele>4.0</ele><time>2026-05-03T08:11:31Z</time></trkpt><trkpt lat="40.91255678254493" lon="8.854260598157527"><ele>3.6666666666666665</ele><time>2026-05-03T08:11:32Z</time></trkpt><trkpt lat="40.912461066861084" lon="8.854428720274731"><ele>3.333333333333333</ele><time>2026-05-03T08:11:33Z</time></trkpt><trkpt lat="40.9123622462149" lon="8.854596054930237"><ele>3.0</ele><time>2026-05-03T08:11:34Z</time></trkpt><trkpt lat="40.912265472627666" lon="8.854766817195292"><ele>3.0</ele><time>2026-05-03T08:11:35Z</time></trkpt><trkpt lat="40.91216532929478" lon="8.854940658702553"><ele>3.0</ele><time>2026-05-03T08:11:36Z</time></trkpt><trkpt lat="40.912064366321395" lon="8.855114742670562"><ele>3.0</ele><time>2026-05-03T08:11:37Z</time></trkpt><trkpt lat="40.91195570096403" lon="8.855288384399483"><ele>3.0</ele><time>2026-05-03T08:11:38Z</time></trkpt><trkpt lat="40.911835086794966" lon="8.855457153006133"><ele>3.0</ele><time>2026-05-03T08:11:39Z</time></trkpt><trkpt lat="40.9117058309222" lon="8.85561974654896"><ele>3.0</ele><time>2026-05-03T08:11:40Z</time></trkpt><trkpt lat="40.911567093316854" lon="8.855773700660038"><ele>3.0</ele><time>2026-05-03T08:11:41Z</time></trkpt><trkpt lat="40.91142660535561" lon="8.855921821905328"><ele>3.0</ele><time>2026-05-03T08:11:42Z</time></trkpt><trkpt lat="40.91128421526081" lon="8.85606744261752"><ele>3.0</ele><time>2026-05-03T08:11:43Z</time></trkpt><trkpt lat="40.911138917678336" lon="8.856216998556677"><ele>3.333333333333333</ele><time>2026-05-03T08:11:44Z</time></trkpt><trkpt lat="40.910990092411225" lon="8.85637087490359"><ele>3.6666666666666665</ele><time>2026-05-03T08:11:45Z</time></trkpt><trkpt lat="40.910841002254216" lon="8.856528174362257"><ele>4.0</ele><time>2026-05-03T08:11:46Z</time></trkpt><trkpt lat="40.91069367069388" lon="8.85669119000251"><ele>4.333333333333333</ele><time>2026-05-03T08:11:47Z</time></trkpt><trkpt lat="40.91054146738209" lon="8.856847184821275"><ele>4.666666666666667</ele><time>2026-05-03T08:11:48Z</time></trkpt><trkpt lat="40.910390186734475" lon="8.857004181006428"><ele>5.0</ele><time>2026-05-03T08:11:49Z</time></trkpt><trkpt lat="40.91023897348795" lon="8.857160867555915"><ele>5.0</ele><time>2026-05-03T08:11:50Z</time></trkpt><trkpt lat="40.91008616544912" lon="8.857319575016845"><ele>5.0</ele><time>2026-05-03T08:11:51Z</time></trkpt><trkpt lat="40.90993418064564" lon="8.857479460333893"><ele>5.0</ele><time>2026-05-03T08:11:52Z</time></trkpt><trkpt lat="40.90978204443016" lon="8.85764143856213"><ele>5.666666666666667</ele><time>2026-05-03T08:11:53Z</time></trkpt><trkpt lat="40.909622155432935" lon="8.857801284821164"><ele>6.333333333333334</ele><time>2026-05-03T08:11:54Z</time></trkpt><trkpt lat="40.9094415960433" lon="8.857913910808032"><ele>7.0</ele><time>2026-05-03T08:11:55Z</time></trkpt><trkpt lat="40.90925204044557" lon="8.857996045801958"><ele>7.333333333333334</ele><time>2026-05-03T08:11:56Z</time></trkpt><trkpt lat="40.90905889670462" lon="8.858053915209265"><ele>7.666666666666666</ele><time>2026-05-03T08:11:57Z</time></trkpt><trkpt lat="40.908886569048015" lon="8.858123565880936"><ele>8.0</ele><time>2026-05-03T08:11:58Z</time></trkpt><trkpt lat="40.9087276136581" lon="8.858167556898914"><ele>8.0</ele><time>2026-05-03T08:11:59Z</time></trkpt><trkpt lat="40.90857743081887" lon="8.858214561630227"><ele>8.0</ele><time>2026-05-03T08:12:00Z</time></trkpt><trkpt lat="40.90843120270396" lon="8.858258603959753"><ele>8.0</ele><time>2026-05-03T08:12:01Z</time></trkpt><trkpt lat="40.908283644742276" lon="8.858299796277137"><ele>9.0</ele><time>2026-05-03T08:12:02Z</time></trkpt><trkpt lat="40.90813216335969" lon="8.858337226483764"><ele>10.0</ele><time>2026-05-03T08:12:03Z</time></trkpt><trkpt lat="40.907973247907385" lon="8.858360340611199"><ele>11.0</ele><time>2026-05-03T08:12:04Z</time></trkpt><trkpt lat="40.907811549904736" lon="8.858363052164746"><ele>11.0</ele><time>2026-05-03T08:12:05Z</time></trkpt><trkpt lat="40.90765261616696" lon="8.858328076934749"><ele>11.0</ele><time>2026-05-03T08:12:06Z</time></trkpt><trkpt lat="40.9075005540522" lon="8.858338829430402"><ele>11.0</ele><time>2026-05-03T08:12:07Z</time></trkpt><trkpt lat="40.90735736942413" lon="8.85833018423841"><ele>11.25</ele><time>2026-05-03T08:12:08Z</time></trkpt><trkpt lat="40.9072155571478" lon="8.858299994275592"><ele>11.5</ele><time>2026-05-03T08:12:09Z</time></trkpt><trkpt lat="40.90707310053858" lon="8.858310019529108"><ele>11.75</ele><time>2026-05-03T08:12:10Z</time></trkpt><trkpt lat="40.90693712969096" lon="8.85829725147778"><ele>12.0</ele><time>2026-05-03T08:12:11Z</time></trkpt><trkpt lat="40.90680781910784" lon="8.85828394319283"><ele>12.2</ele><time>2026-05-03T08:12:12Z</time></trkpt><trkpt lat="40.906690065353196" lon="8.858268826024368"><ele>12.399999999999999</ele><time>2026-05-03T08:12:13Z</time></trkpt><trkpt lat="40.90658199233871" lon="8.858251875863509"><ele>12.600000000000001</ele><time>2026-05-03T08:12:14Z</time></trkpt><trkpt lat="40.90648570677825" lon="8.858217200719952"><ele>12.8</ele><time>2026-05-03T08:12:15Z</time></trkpt><trkpt lat="40.90640431554274" lon="8.858162389522857"><ele>13.0</ele><time>2026-05-03T08:12:16Z</time></trkpt><trkpt lat="40.90633275801801" lon="8.85811347631606"><ele>13.0</ele><time>2026-05-03T08:12:17Z</time></trkpt><trkpt lat="40.90626269966784" lon="8.858107561654926"><ele>13.0</ele><time>2026-05-03T08:12:18Z</time></trkpt><trkpt lat="40.90617846179401" lon="8.858243322358701"><ele>13.0</ele><time>2026-05-03T08:12:20Z</time></trkpt><trkpt lat="40.90616681433925" lon="8.85833053456537"><ele>13.0</ele><time>2026-05-03T08:12:21Z</time></trkpt><trkpt lat="40.90613901609483" lon="8.85842351453437"><ele>13.0</ele><time>2026-05-03T08:12:22Z</time></trkpt><trkpt lat="40.90600530663407" lon="8.858547633654961"><ele>13.833333333333332</ele><time>2026-05-03T08:12:24Z</time></trkpt><trkpt lat="40.90594970591979" lon="8.858597694044162"><ele>14.666666666666666</ele><time>2026-05-03T08:12:25Z</time></trkpt><trkpt lat="40.90589824001406" lon="8.858667349070004"><ele>15.5</ele><time>2026-05-03T08:12:28Z</time></trkpt><trkpt lat="40.90584955115924" lon="8.85873226363348"><ele>16.333333333333332</ele><time>2026-05-03T08:12:32Z</time></trkpt><trkpt lat="40.90579042663274" lon="8.858760942016696"><ele>17.166666666666668</ele><time>2026-05-03T08:12:39Z</time></trkpt><trkpt lat="40.9056826737384" lon="8.858686069660353"><ele>18.0</ele><time>2026-05-03T08:12:41Z</time></trkpt><trkpt lat="40.90560329598674" lon="8.858641369401296"><ele>18.0</ele><time>2026-05-03T08:12:42Z</time></trkpt><trkpt lat="40.90551305927476" lon="8.858590553929162"><ele>18.0</ele><time>2026-05-03T08:12:43Z</time></trkpt><trkpt lat="40.905418864705425" lon="8.858537509807634"><ele>18.0</ele><time>2026-05-03T08:12:44Z</time></trkpt><trkpt lat="40.9053350107311" lon="8.858505121119377"><ele>18.0</ele><time>2026-05-03T08:12:45Z</time></trkpt><trkpt lat="40.90527577446318" lon="8.85845771915455"><ele>18.0</ele><time>2026-05-03T08:12:46Z</time></trkpt><trkpt lat="40.90521739336177" lon="8.858423176883752"><ele>18.0</ele><time>2026-05-03T08:12:48Z</time></trkpt><trkpt lat="40.90515531932413" lon="8.85839865571848"><ele>18.0</ele><time>2026-05-03T08:12:52Z</time></trkpt><trkpt lat="40.905111008467486" lon="8.858586455622476"><ele>18.0</ele><time>2026-05-03T08:12:53Z</time></trkpt><trkpt lat="40.9050870832304" lon="8.858683273627456"><ele>18.0</ele><time>2026-05-03T08:12:54Z</time></trkpt><trkpt lat="40.90507053551372" lon="8.858945383966958"><ele>18.0</ele><time>2026-05-03T08:12:55Z</time></trkpt><trkpt lat="40.905037288568366" lon="8.85908205178282"><ele>18.0</ele><time>2026-05-03T08:12:56Z</time></trkpt><trkpt lat="40.905022410489046" lon="8.859199908262557"><ele>18.0</ele><time>2026-05-03T08:12:57Z</time></trkpt><trkpt lat="40.905003065961196" lon="8.859349176445889"><ele>18.0</ele><time>2026-05-03T08:12:58Z</time></trkpt><trkpt lat="40.90498940745453" lon="8.859527123631532"><ele>18.0</ele><time>2026-05-03T08:12:59Z</time></trkpt><trkpt lat="40.90496697934672" lon="8.859665173385242"><ele>18.0</ele><time>2026-05-03T08:13:00Z</time></trkpt><trkpt lat="40.90495941025403" lon="8.859787726166475"><ele>17.8</ele><time>2026-05-03T08:13:01Z</time></trkpt><trkpt lat="40.904932323435624" lon="8.859905835409625"><ele>17.6</ele><time>2026-05-03T08:13:02Z</time></trkpt><trkpt lat="40.90491866708483" lon="8.860015310419556"><ele>17.4</ele><time>2026-05-03T08:13:03Z</time></trkpt><trkpt lat="40.90490830734738" lon="8.86009835846232"><ele>17.2</ele><time>2026-05-03T08:13:05Z</time></trkpt><trkpt lat="40.905030821690374" lon="8.860182110735884"><ele>17.0</ele><time>2026-05-03T08:13:07Z</time></trkpt><trkpt lat="40.90517208248195" lon="8.860184083845246"><ele>15.5</ele><time>2026-05-03T08:13:08Z</time></trkpt><trkpt lat="40.90533125809814" lon="8.860216764143697"><ele>14.0</ele><time>2026-05-03T08:13:09Z</time></trkpt><trkpt lat="40.90544840159718" lon="8.86023058382617"><ele>12.5</ele><time>2026-05-03T08:13:10Z</time></trkpt><trkpt lat="40.90555350482975" lon="8.860256829373311"><ele>11.0</ele><time>2026-05-03T08:13:11Z</time></trkpt><trkpt lat="40.905632013707105" lon="8.860279610054967"><ele>11.0</ele><time>2026-05-03T08:13:12Z</time></trkpt><trkpt lat="40.905709336230395" lon="8.860301323965244"><ele>11.0</ele><time>2026-05-03T08:13:13Z</time></trkpt><trkpt lat="40.905761772612706" lon="8.860359705763202"><ele>11.0</ele><time>2026-05-03T08:13:15Z</time></trkpt><trkpt lat="40.90572756010277" lon="8.860585563938864"><ele>11.0</ele><time>2026-05-03T08:13:17Z</time></trkpt><trkpt lat="40.90573030231039" lon="8.860752862938593"><ele>11.0</ele><time>2026-05-03T08:13:18Z</time></trkpt><trkpt lat="40.9057158051173" lon="8.860916090279435"><ele>10.25</ele><time>2026-05-03T08:13:19Z</time></trkpt><trkpt lat="40.90569125570231" lon="8.861082500973872"><ele>9.5</ele><time>2026-05-03T08:13:20Z</time></trkpt><trkpt lat="40.90563186430562" lon="8.861231383473385"><ele>8.75</ele><time>2026-05-03T08:13:21Z</time></trkpt><trkpt lat="40.90557560357731" lon="8.861375713226893"><ele>8.0</ele><time>2026-05-03T08:13:22Z</time></trkpt><trkpt lat="40.90552101711078" lon="8.861500848282045"><ele>8.0</ele><time>2026-05-03T08:13:23Z</time></trkpt><trkpt lat="40.9054658434283" lon="8.861622507471987"><ele>8.0</ele><time>2026-05-03T08:13:24Z</time></trkpt><trkpt lat="40.905427419317114" lon="8.861745634076073"><ele>8.0</ele><time>2026-05-03T08:13:25Z</time></trkpt><trkpt lat="40.90536437207796" lon="8.861841488150931"><ele>8.0</ele><time>2026-05-03T08:13:26Z</time></trkpt><trkpt lat="40.905315676794785" lon="8.861946343175816"><ele>8.0</ele><time>2026-05-03T08:13:27Z</time></trkpt><trkpt lat="40.905262547613006" lon="8.86206074556667"><ele>8.0</ele><time>2026-05-03T08:13:28Z</time></trkpt><trkpt lat="40.905202872271076" lon="8.862189243768237"><ele>8.0</ele><time>2026-05-03T08:13:29Z</time></trkpt><trkpt lat="40.90513895891474" lon="8.862330201485541"><ele>8.0</ele><time>2026-05-03T08:13:30Z</time></trkpt><trkpt lat="40.9050840313339" lon="8.862490393356353"><ele>8.0</ele><time>2026-05-03T08:13:31Z</time></trkpt><trkpt lat="40.90499888604932" lon="8.862636275943263"><ele>8.0</ele><time>2026-05-03T08:13:32Z</time></trkpt><trkpt lat="40.90494701779688" lon="8.862801426050481"><ele>8.0</ele><time>2026-05-03T08:13:33Z</time></trkpt><trkpt lat="40.90489115799311" lon="8.862973340500172"><ele>8.0</ele><time>2026-05-03T08:13:34Z</time></trkpt><trkpt lat="40.90486939528866" lon="8.863157824615282"><ele>8.0</ele><time>2026-05-03T08:13:35Z</time></trkpt><trkpt lat="40.9048660854202" lon="8.863347372404935"><ele>8.0</ele><time>2026-05-03T08:13:36Z</time></trkpt><trkpt lat="40.904865845905036" lon="8.863530051014614"><ele>8.0</ele><time>2026-05-03T08:13:37Z</time></trkpt><trkpt lat="40.90486903776268" lon="8.86371033465236"><ele>8.0</ele><time>2026-05-03T08:13:38Z</time></trkpt><trkpt lat="40.904868412766774" lon="8.863891681113605"><ele>8.0</ele><time>2026-05-03T08:13:39Z</time></trkpt><trkpt lat="40.90486482963673" lon="8.864070779622304"><ele>8.0</ele><time>2026-05-03T08:13:40Z</time></trkpt><trkpt lat="40.90482976591874" lon="8.864247164214648"><ele>8.0</ele><time>2026-05-03T08:13:41Z</time></trkpt><trkpt lat="40.90478185108952" lon="8.864415479416554"><ele>8.0</ele><time>2026-05-03T08:13:42Z</time></trkpt><trkpt lat="40.90471120527503" lon="8.864568316364783"><ele>8.0</ele><time>2026-05-03T08:13:43Z</time></trkpt><trkpt lat="40.90463196797883" lon="8.864725808563573"><ele>8.25</ele><time>2026-05-03T08:13:44Z</time></trkpt><trkpt lat="40.90455572024126" lon="8.864882367121966"><ele>8.5</ele><time>2026-05-03T08:13:45Z</time></trkpt><trkpt lat="40.9044784934448" lon="8.865042327889272"><ele>8.75</ele><time>2026-05-03T08:13:46Z</time></trkpt><trkpt lat="40.904401513851035" lon="8.865199915513392"><ele>9.0</ele><time>2026-05-03T08:13:47Z</time></trkpt><trkpt lat="40.90432339109459" lon="8.865359843376478"><ele>9.0</ele><time>2026-05-03T08:13:48Z</time></trkpt><trkpt lat="40.904258299351106" lon="8.865528933665834"><ele>9.0</ele><time>2026-05-03T08:13:49Z</time></trkpt><trkpt lat="40.90417396526556" lon="8.865680181986727"><ele>9.0</ele><time>2026-05-03T08:13:50Z</time></trkpt><trkpt lat="40.90409401053866" lon="8.865835586515402"><ele>9.0</ele><time>2026-05-03T08:13:51Z</time></trkpt><trkpt lat="40.904022318480074" lon="8.865997561802875"><ele>9.0</ele><time>2026-05-03T08:13:52Z</time></trkpt><trkpt lat="40.90397605126637" lon="8.866172838444362"><ele>9.0</ele><time>2026-05-03T08:13:53Z</time></trkpt><trkpt lat="40.90395363531383" lon="8.866350242696997"><ele>9.0</ele><time>2026-05-03T08:13:54Z</time></trkpt><trkpt lat="40.90394699182279" lon="8.866529704545174"><ele>9.0</ele><time>2026-05-03T08:13:55Z</time></trkpt><trkpt lat="40.90398079669315" lon="8.86671300919031"><ele>9.0</ele><time>2026-05-03T08:13:56Z</time></trkpt><trkpt lat="40.90400213419079" lon="8.866899944133616"><ele>9.0</ele><time>2026-05-03T08:13:57Z</time></trkpt><trkpt lat="40.904021609804225" lon="8.867090099962773"><ele>9.0</ele><time>2026-05-03T08:13:58Z</time></trkpt><trkpt lat="40.90404258966825" lon="8.867283792407807"><ele>9.0</ele><time>2026-05-03T08:13:59Z</time></trkpt><trkpt lat="40.90406193370868" lon="8.867473963036845"><ele>9.0</ele><time>2026-05-03T08:14:00Z</time></trkpt><trkpt lat="40.90407959046675" lon="8.86765887541602"><ele>9.0</ele><time>2026-05-03T08:14:01Z</time></trkpt><trkpt lat="40.904095848569945" lon="8.867840042394553"><ele>9.0</ele><time>2026-05-03T08:14:02Z</time></trkpt><trkpt lat="40.904113591020625" lon="8.868019882150309"><ele>9.0</ele><time>2026-05-03T08:14:03Z</time></trkpt><trkpt lat="40.90413275010732" lon="8.86820268342774"><ele>9.0</ele><time>2026-05-03T08:14:04Z</time></trkpt><trkpt lat="40.90415311951508" lon="8.868386396036618"><ele>9.0</ele><time>2026-05-03T08:14:05Z</time></trkpt><trkpt lat="40.90417296253475" lon="8.868572298318789"><ele>9.0</ele><time>2026-05-03T08:14:06Z</time></trkpt><trkpt lat="40.9041911983507" lon="8.868761231786738"><ele>9.0</ele><time>2026-05-03T08:14:07Z</time></trkpt><trkpt lat="40.90420690116294" lon="8.86895035138127"><ele>9.25</ele><time>2026-05-03T08:14:08Z</time></trkpt><trkpt lat="40.90422387044788" lon="8.869138338858553"><ele>9.5</ele><time>2026-05-03T08:14:09Z</time></trkpt><trkpt lat="40.904240376575714" lon="8.869327198250252"><ele>9.75</ele><time>2026-05-03T08:14:10Z</time></trkpt><trkpt lat="40.904257135503904" lon="8.869516654055426"><ele>10.0</ele><time>2026-05-03T08:14:11Z</time></trkpt><trkpt lat="40.904275703458026" lon="8.869706134908308"><ele>9.0</ele><time>2026-05-03T08:14:12Z</time></trkpt><trkpt lat="40.904294240769794" lon="8.869896386369405"><ele>8.0</ele><time>2026-05-03T08:14:13Z</time></trkpt><trkpt lat="40.90431374984623" lon="8.870087345029862"><ele>7.0</ele><time>2026-05-03T08:14:14Z</time></trkpt><trkpt lat="40.904334832659025" lon="8.870277833690109"><ele>6.0</ele><time>2026-05-03T08:14:15Z</time></trkpt><trkpt lat="40.90435667800851" lon="8.870469169561634"><ele>6.0</ele><time>2026-05-03T08:14:16Z</time></trkpt><trkpt lat="40.90439394860037" lon="8.870653062584072"><ele>6.0</ele><time>2026-05-03T08:14:17Z</time></trkpt><trkpt lat="40.90445510867034" lon="8.8708195679194"><ele>6.0</ele><time>2026-05-03T08:14:18Z</time></trkpt><trkpt lat="40.90452755567477" lon="8.870977456487214"><ele>6.0</ele><time>2026-05-03T08:14:19Z</time></trkpt><trkpt lat="40.90460718560261" lon="8.871128682139004"><ele>6.25</ele><time>2026-05-03T08:14:20Z</time></trkpt><trkpt lat="40.90468194456503" lon="8.871278813076696"><ele>6.5</ele><time>2026-05-03T08:14:21Z</time></trkpt><trkpt lat="40.90475340175294" lon="8.87142954238028"><ele>6.75</ele><time>2026-05-03T08:14:22Z</time></trkpt><trkpt lat="40.904822577733825" lon="8.87158097570082"><ele>7.0</ele><time>2026-05-03T08:14:23Z</time></trkpt><trkpt lat="40.90489174485444" lon="8.871732677876716"><ele>7.0</ele><time>2026-05-03T08:14:24Z</time></trkpt><trkpt lat="40.904960937551685" lon="8.87188134788689"><ele>7.0</ele><time>2026-05-03T08:14:25Z</time></trkpt><trkpt lat="40.90503237110566" lon="8.872030399572129"><ele>7.0</ele><time>2026-05-03T08:14:26Z</time></trkpt><trkpt lat="40.90509998938093" lon="8.872179681375641"><ele>7.0</ele><time>2026-05-03T08:14:27Z</time></trkpt><trkpt lat="40.90516848787946" lon="8.872328860058884"><ele>7.0</ele><time>2026-05-03T08:14:28Z</time></trkpt><trkpt lat="40.90523734183229" lon="8.872476662613689"><ele>7.0</ele><time>2026-05-03T08:14:29Z</time></trkpt><trkpt lat="40.90530287000434" lon="8.872617958563486"><ele>7.0</ele><time>2026-05-03T08:14:30Z</time></trkpt><trkpt lat="40.9053598852049" lon="8.872745769972877"><ele>7.0</ele><time>2026-05-03T08:14:31Z</time></trkpt><trkpt lat="40.90541407250289" lon="8.872858824023384"><ele>7.500000000000001</ele><time>2026-05-03T08:14:32Z</time></trkpt><trkpt lat="40.905459189993365" lon="8.872951582627401"><ele>8.0</ele><time>2026-05-03T08:14:33Z</time></trkpt><trkpt lat="40.90545777051284" lon="8.873085415228521"><ele>8.5</ele><time>2026-05-03T08:14:35Z</time></trkpt><trkpt lat="40.905387629299774" lon="8.873108333679408"><ele>9.0</ele><time>2026-05-03T08:14:36Z</time></trkpt><trkpt lat="40.905343014373344" lon="8.873178366618836"><ele>9.5</ele><time>2026-05-03T08:14:37Z</time></trkpt><trkpt lat="40.90528916553103" lon="8.87326348823917"><ele>10.0</ele><time>2026-05-03T08:14:38Z</time></trkpt><trkpt lat="40.90523435671636" lon="8.873352211250422"><ele>10.4</ele><time>2026-05-03T08:14:39Z</time></trkpt><trkpt lat="40.905177314700815" lon="8.873445689906973"><ele>10.8</ele><time>2026-05-03T08:14:40Z</time></trkpt><trkpt lat="40.90512012160978" lon="8.873543507627355"><ele>11.2</ele><time>2026-05-03T08:14:41Z</time></trkpt><trkpt lat="40.90507150208295" lon="8.873630932940813"><ele>11.6</ele><time>2026-05-03T08:14:42Z</time></trkpt><trkpt lat="40.90499350063331" lon="8.873743089766256"><ele>12.0</ele><time>2026-05-03T08:14:44Z</time></trkpt><trkpt lat="40.90493922417553" lon="8.873797480054943"><ele>12.0</ele><time>2026-05-03T08:14:46Z</time></trkpt><trkpt lat="40.905032205635855" lon="8.873924983117023"><ele>12.0</ele><time>2026-05-03T08:14:49Z</time></trkpt><trkpt lat="40.90509550432458" lon="8.873997544425544"><ele>12.0</ele><time>2026-05-03T08:14:50Z</time></trkpt><trkpt lat="40.9051524072412" lon="8.874043218898533"><ele>12.0</ele><time>2026-05-03T08:14:51Z</time></trkpt><trkpt lat="40.90522473124166" lon="8.874128926492569"><ele>12.0</ele><time>2026-05-03T08:14:53Z</time></trkpt><trkpt lat="40.90520091462074" lon="8.874214929142589"><ele>12.399999999999999</ele><time>2026-05-03T08:14:54Z</time></trkpt><trkpt lat="40.90525786763369" lon="8.874292577781679"><ele>12.799999999999999</ele><time>2026-05-03T08:14:56Z</time></trkpt><trkpt lat="40.9053601706916" lon="8.87431620093086"><ele>13.2</ele><time>2026-05-03T08:14:58Z</time></trkpt><trkpt lat="40.90540666417345" lon="8.874373290410231"><ele>13.6</ele><time>2026-05-03T08:15:00Z</time></trkpt><trkpt lat="40.905395639364485" lon="8.874470728523633"><ele>14.0</ele><time>2026-05-03T08:15:26Z</time></trkpt><trkpt lat="40.90553544184635" lon="8.874429901015967"><ele>14.0</ele><time>2026-05-03T08:15:29Z</time></trkpt><trkpt lat="40.90561881044576" lon="8.87434822350484"><ele>13.999999999999998</ele><time>2026-05-03T08:15:30Z</time></trkpt><trkpt lat="40.90569780810414" lon="8.874268872687207"><ele>13.999999999999998</ele><time>2026-05-03T08:15:31Z</time></trkpt><trkpt lat="40.905762069374966" lon="8.87421460347581"><ele>14.0</ele><time>2026-05-03T08:15:32Z</time></trkpt><trkpt lat="40.905817085700136" lon="8.874166422896572"><ele>14.0</ele><time>2026-05-03T08:15:33Z</time></trkpt><trkpt lat="40.90591632253961" lon="8.874084460496144"><ele>12.799999999999999</ele><time>2026-05-03T08:15:35Z</time></trkpt><trkpt lat="40.90598593067623" lon="8.874047388842925"><ele>11.599999999999998</ele><time>2026-05-03T08:15:37Z</time></trkpt><trkpt lat="40.90607994479558" lon="8.874146493150391"><ele>10.4</ele><time>2026-05-03T08:15:40Z</time></trkpt><trkpt lat="40.90612842695875" lon="8.874252837796574"><ele>9.2</ele><time>2026-05-03T08:15:41Z</time></trkpt><trkpt lat="40.90618558659284" lon="8.874365095559337"><ele>8.0</ele><time>2026-05-03T08:15:42Z</time></trkpt><trkpt lat="40.90624729285385" lon="8.874483467257322"><ele>8.0</ele><time>2026-05-03T08:15:43Z</time></trkpt><trkpt lat="40.90631245909504" lon="8.874599029271787"><ele>8.0</ele><time>2026-05-03T08:15:44Z</time></trkpt><trkpt lat="40.90638271597307" lon="8.874718050220137"><ele>8.0</ele><time>2026-05-03T08:15:45Z</time></trkpt><trkpt lat="40.90645420646926" lon="8.874840614398773"><ele>8.0</ele><time>2026-05-03T08:15:46Z</time></trkpt><trkpt lat="40.90652673759353" lon="8.874963361374803"><ele>8.0</ele><time>2026-05-03T08:15:47Z</time></trkpt><trkpt lat="40.906599925803775" lon="8.87508797005743"><ele>8.0</ele><time>2026-05-03T08:15:48Z</time></trkpt><trkpt lat="40.90667383457037" lon="8.875215739510631"><ele>8.0</ele><time>2026-05-03T08:15:49Z</time></trkpt><trkpt lat="40.906750957588464" lon="8.875344661330661"><ele>8.0</ele><time>2026-05-03T08:15:50Z</time></trkpt><trkpt lat="40.90683032491172" lon="8.875473896796368"><ele>7.75</ele><time>2026-05-03T08:15:51Z</time></trkpt><trkpt lat="40.906911402504505" lon="8.875608821482482"><ele>7.5</ele><time>2026-05-03T08:15:52Z</time></trkpt><trkpt lat="40.90698820296091" lon="8.875742220463007"><ele>7.25</ele><time>2026-05-03T08:15:53Z</time></trkpt><trkpt lat="40.90706741220173" lon="8.875879834766042"><ele>7.0</ele><time>2026-05-03T08:15:54Z</time></trkpt><trkpt lat="40.9071409865944" lon="8.876015175768563"><ele>7.5</ele><time>2026-05-03T08:15:55Z</time></trkpt><trkpt lat="40.90722009762868" lon="8.876148713429854"><ele>8.0</ele><time>2026-05-03T08:15:56Z</time></trkpt><trkpt lat="40.90729763621793" lon="8.876282026358217"><ele>8.5</ele><time>2026-05-03T08:15:57Z</time></trkpt><trkpt lat="40.90736588604454" lon="8.876412848290599"><ele>9.0</ele><time>2026-05-03T08:15:58Z</time></trkpt><trkpt lat="40.90744614347355" lon="8.876539874933234"><ele>9.0</ele><time>2026-05-03T08:15:59Z</time></trkpt><trkpt lat="40.907531011830436" lon="8.876680829121765"><ele>9.0</ele><time>2026-05-03T08:16:00Z</time></trkpt><trkpt lat="40.90762103588154" lon="8.876829901982088"><ele>9.0</ele><time>2026-05-03T08:16:01Z</time></trkpt><trkpt lat="40.9076825604146" lon="8.876955590019199"><ele>9.0</ele><time>2026-05-03T08:16:02Z</time></trkpt><trkpt lat="40.907714116819875" lon="8.877053286412464"><ele>9.0</ele><time>2026-05-03T08:16:03Z</time></trkpt><trkpt lat="40.907745903622335" lon="8.877142415903988"><ele>9.0</ele><time>2026-05-03T08:16:04Z</time></trkpt><trkpt lat="40.90765338824863" lon="8.877300646902853"><ele>9.0</ele><time>2026-05-03T08:16:05Z</time></trkpt><trkpt lat="40.9076259713711" lon="8.877455469521779"><ele>9.0</ele><time>2026-05-03T08:16:06Z</time></trkpt><trkpt lat="40.90755517205163" lon="8.877597355250085"><ele>9.75</ele><time>2026-05-03T08:16:07Z</time></trkpt><trkpt lat="40.907471962064676" lon="8.877734615901279"><ele>10.5</ele><time>2026-05-03T08:16:08Z</time></trkpt><trkpt lat="40.90737551391736" lon="8.87783606352753"><ele>11.25</ele><time>2026-05-03T08:16:09Z</time></trkpt><trkpt lat="40.907265644672755" lon="8.8779189736995"><ele>12.0</ele><time>2026-05-03T08:16:10Z</time></trkpt><trkpt lat="40.907154241550565" lon="8.878001289888896"><ele>12.0</ele><time>2026-05-03T08:16:11Z</time></trkpt><trkpt lat="40.90709031992165" lon="8.878038476987086"><ele>12.0</ele><time>2026-05-03T08:16:12Z</time></trkpt><trkpt lat="40.90698754891646" lon="8.878069919898982"><ele>12.0</ele><time>2026-05-03T08:16:13Z</time></trkpt><trkpt lat="40.90689351396491" lon="8.878081058873494"><ele>12.0</ele><time>2026-05-03T08:16:14Z</time></trkpt><trkpt lat="40.9067998182858" lon="8.87808283732448"><ele>12.0</ele><time>2026-05-03T08:16:15Z</time></trkpt><trkpt lat="40.9067242325979" lon="8.878058925088805"><ele>12.0</ele><time>2026-05-03T08:16:16Z</time></trkpt><trkpt lat="40.90664291041259" lon="8.878031715628506"><ele>12.6</ele><time>2026-05-03T08:16:17Z</time></trkpt><trkpt lat="40.9065659769937" lon="8.877992326041234"><ele>13.2</ele><time>2026-05-03T08:16:18Z</time></trkpt><trkpt lat="40.90648941575221" lon="8.877941585595545"><ele>13.8</ele><time>2026-05-03T08:16:19Z</time></trkpt><trkpt lat="40.90641283292615" lon="8.87787109237233"><ele>14.4</ele><time>2026-05-03T08:16:20Z</time></trkpt><trkpt lat="40.90633331709679" lon="8.877782205297532"><ele>15.0</ele><time>2026-05-03T08:16:21Z</time></trkpt><trkpt lat="40.90624528393924" lon="8.877681108024968"><ele>14.5</ele><time>2026-05-03T08:16:22Z</time></trkpt><trkpt lat="40.90614241957987" lon="8.877582447396158"><ele>14.0</ele><time>2026-05-03T08:16:23Z</time></trkpt><trkpt lat="40.906015847818885" lon="8.877510420333591"><ele>13.5</ele><time>2026-05-03T08:16:24Z</time></trkpt><trkpt lat="40.905880447040865" lon="8.877437823213054"><ele>13.0</ele><time>2026-05-03T08:16:25Z</time></trkpt><trkpt lat="40.90572918628848" lon="8.877394149711215"><ele>15.0</ele><time>2026-05-03T08:16:26Z</time></trkpt><trkpt lat="40.90557297738019" lon="8.877391265030466"><ele>17.0</ele><time>2026-05-03T08:16:27Z</time></trkpt><trkpt lat="40.90541517171577" lon="8.877433315085819"><ele>19.0</ele><time>2026-05-03T08:16:28Z</time></trkpt><trkpt lat="40.905263908857826" lon="8.877510373723736"><ele>19.333333333333332</ele><time>2026-05-03T08:16:29Z</time></trkpt><trkpt lat="40.905121153124064" lon="8.877617459354369"><ele>19.666666666666668</ele><time>2026-05-03T08:16:30Z</time></trkpt><trkpt lat="40.904995434063" lon="8.877750930123847"><ele>20.0</ele><time>2026-05-03T08:16:31Z</time></trkpt><trkpt lat="40.90489526402049" lon="8.877908527285605"><ele>24.666666666666668</ele><time>2026-05-03T08:16:32Z</time></trkpt><trkpt lat="40.90482109524844" lon="8.878084723601706"><ele>29.333333333333336</ele><time>2026-05-03T08:16:33Z</time></trkpt><trkpt lat="40.90480591049558" lon="8.878303754674604"><ele>34.0</ele><time>2026-05-03T08:16:34Z</time></trkpt><trkpt lat="40.90478858624922" lon="8.878496682545105"><ele>36.0</ele><time>2026-05-03T08:16:35Z</time></trkpt><trkpt lat="40.904797438660324" lon="8.878695536358874"><ele>38.0</ele><time>2026-05-03T08:16:36Z</time></trkpt><trkpt lat="40.90484923630134" lon="8.87890091645458"><ele>40.0</ele><time>2026-05-03T08:16:37Z</time></trkpt><trkpt lat="40.90493699886346" lon="8.879094774959"><ele>43.0</ele><time>2026-05-03T08:16:38Z</time></trkpt><trkpt lat="40.90504125610644" lon="8.879268562869647"><ele>46.0</ele><time>2026-05-03T08:16:39Z</time></trkpt><trkpt lat="40.905140287031024" lon="8.87942471484138"><ele>49.0</ele><time>2026-05-03T08:16:40Z</time></trkpt><trkpt lat="40.90523126142835" lon="8.87958053521517"><ele>43.666666666666664</ele><time>2026-05-03T08:16:41Z</time></trkpt><trkpt lat="40.90530820381939" lon="8.879755571164823"><ele>38.33333333333333</ele><time>2026-05-03T08:16:42Z</time></trkpt><trkpt lat="40.9053518493696" lon="8.879955519659969"><ele>33.0</ele><time>2026-05-03T08:16:43Z</time></trkpt><trkpt lat="40.905360973841134" lon="8.880164736761811"><ele>33.0</ele><time>2026-05-03T08:16:44Z</time></trkpt><trkpt lat="40.90534672696942" lon="8.880374132007605"><ele>33.0</ele><time>2026-05-03T08:16:45Z</time></trkpt><trkpt lat="40.90531360015072" lon="8.880579545954046"><ele>33.0</ele><time>2026-05-03T08:16:46Z</time></trkpt><trkpt lat="40.9052295355174" lon="8.880767842059697"><ele>33.333333333333336</ele><time>2026-05-03T08:16:47Z</time></trkpt><trkpt lat="40.90516100723814" lon="8.880971583289147"><ele>33.66666666666667</ele><time>2026-05-03T08:16:48Z</time></trkpt><trkpt lat="40.90509879423475" lon="8.881182248929644"><ele>34.0</ele><time>2026-05-03T08:16:49Z</time></trkpt><trkpt lat="40.9050261772611" lon="8.881390311563955"><ele>39.66666666666667</ele><time>2026-05-03T08:16:50Z</time></trkpt><trkpt lat="40.90496221384552" lon="8.881599209843019"><ele>45.333333333333336</ele><time>2026-05-03T08:16:51Z</time></trkpt><trkpt lat="40.904902524012634" lon="8.881797694475686"><ele>51.0</ele><time>2026-05-03T08:16:52Z</time></trkpt><trkpt lat="40.90482663151328" lon="8.881963660742226"><ele>51.0</ele><time>2026-05-03T08:16:53Z</time></trkpt><trkpt lat="40.904758203436614" lon="8.882135918935566"><ele>51.0</ele><time>2026-05-03T08:16:54Z</time></trkpt><trkpt lat="40.904667971666385" lon="8.882305555959846"><ele>51.0</ele><time>2026-05-03T08:16:55Z</time></trkpt><trkpt lat="40.90455993126472" lon="8.882461303028629"><ele>52.0</ele><time>2026-05-03T08:16:56Z</time></trkpt><trkpt lat="40.90443332699978" lon="8.882605853505213"><ele>53.0</ele><time>2026-05-03T08:16:57Z</time></trkpt><trkpt lat="40.90428544873954" lon="8.882705243104125"><ele>54.0</ele><time>2026-05-03T08:16:58Z</time></trkpt><trkpt lat="40.90411864368035" lon="8.88276577886788"><ele>54.0</ele><time>2026-05-03T08:16:59Z</time></trkpt><trkpt lat="40.90394790370225" lon="8.882789501005796"><ele>54.0</ele><time>2026-05-03T08:17:00Z</time></trkpt><trkpt lat="40.903773079425484" lon="8.882766568386883"><ele>54.0</ele><time>2026-05-03T08:17:01Z</time></trkpt><trkpt lat="40.903607089010436" lon="8.882697722317069"><ele>55.66666666666667</ele><time>2026-05-03T08:17:02Z</time></trkpt><trkpt lat="40.903456983149354" lon="8.882586641483154"><ele>57.333333333333336</ele><time>2026-05-03T08:17:03Z</time></trkpt><trkpt lat="40.90332471110852" lon="8.88243532875988"><ele>59.0</ele><time>2026-05-03T08:17:04Z</time></trkpt><trkpt lat="40.90322053048387" lon="8.882243976156461"><ele>59.0</ele><time>2026-05-03T08:17:05Z</time></trkpt><trkpt lat="40.903134696398126" lon="8.882025948788714"><ele>59.0</ele><time>2026-05-03T08:17:06Z</time></trkpt><trkpt lat="40.90304430733945" lon="8.881804659816192"><ele>59.0</ele><time>2026-05-03T08:17:07Z</time></trkpt><trkpt lat="40.90297886265034" lon="8.881554691761485"><ele>63.0</ele><time>2026-05-03T08:17:08Z</time></trkpt><trkpt lat="40.90290608538385" lon="8.88131633115152"><ele>67.0</ele><time>2026-05-03T08:17:09Z</time></trkpt><trkpt lat="40.90283701380507" lon="8.881082578545755"><ele>71.0</ele><time>2026-05-03T08:17:10Z</time></trkpt><trkpt lat="40.90276399575559" lon="8.880868364702158"><ele>75.33333333333334</ele><time>2026-05-03T08:17:11Z</time></trkpt><trkpt lat="40.90270157509453" lon="8.880661819379748"><ele>79.66666666666667</ele><time>2026-05-03T08:17:12Z</time></trkpt><trkpt lat="40.90264431556162" lon="8.880464699039296"><ele>84.0</ele><time>2026-05-03T08:17:13Z</time></trkpt><trkpt lat="40.90258211702061" lon="8.880275920276416"><ele>83.0</ele><time>2026-05-03T08:17:14Z</time></trkpt><trkpt lat="40.90250656909424" lon="8.880105001133677"><ele>82.0</ele><time>2026-05-03T08:17:15Z</time></trkpt><trkpt lat="40.90240998155661" lon="8.879965949598132"><ele>81.0</ele><time>2026-05-03T08:17:16Z</time></trkpt><trkpt lat="40.90228272609236" lon="8.879873672638986"><ele>80.0</ele><time>2026-05-03T08:17:17Z</time></trkpt><trkpt lat="40.90213089316591" lon="8.87982449096438"><ele>80.0</ele><time>2026-05-03T08:17:18Z</time></trkpt><trkpt lat="40.90198676696786" lon="8.879763146489054"><ele>80.0</ele><time>2026-05-03T08:17:19Z</time></trkpt><trkpt lat="40.901835401040806" lon="8.879760799353084"><ele>80.0</ele><time>2026-05-03T08:17:20Z</time></trkpt><trkpt lat="40.90169605261923" lon="8.879781844013817"><ele>80.0</ele><time>2026-05-03T08:17:21Z</time></trkpt><trkpt lat="40.901571158851446" lon="8.879862217702195"><ele>80.0</ele><time>2026-05-03T08:17:22Z</time></trkpt><trkpt lat="40.90145402134484" lon="8.879979977897428"><ele>80.0</ele><time>2026-05-03T08:17:23Z</time></trkpt><trkpt lat="40.901360526888716" lon="8.880138591897186"><ele>80.0</ele><time>2026-05-03T08:17:24Z</time></trkpt><trkpt lat="40.90128755020483" lon="8.880324217102364"><ele>79.66666666666667</ele><time>2026-05-03T08:17:25Z</time></trkpt><trkpt lat="40.90123381210178" lon="8.880517630867608"><ele>79.33333333333333</ele><time>2026-05-03T08:17:26Z</time></trkpt><trkpt lat="40.901197317692585" lon="8.880714217850448"><ele>79.0</ele><time>2026-05-03T08:17:27Z</time></trkpt><trkpt lat="40.901131955054325" lon="8.88088430752316"><ele>78.25</ele><time>2026-05-03T08:17:28Z</time></trkpt><trkpt lat="40.90104609910104" lon="8.881018796232643"><ele>77.5</ele><time>2026-05-03T08:17:29Z</time></trkpt><trkpt lat="40.90094036391022" lon="8.881112448294532"><ele>76.75</ele><time>2026-05-03T08:17:30Z</time></trkpt><trkpt lat="40.90082384061313" lon="8.881154167401828"><ele>76.0</ele><time>2026-05-03T08:17:31Z</time></trkpt><trkpt lat="40.9006969866761" lon="8.881194912468523"><ele>77.75</ele><time>2026-05-03T08:17:32Z</time></trkpt><trkpt lat="40.900563414149154" lon="8.881248620803703"><ele>79.5</ele><time>2026-05-03T08:17:33Z</time></trkpt><trkpt lat="40.9004347080269" lon="8.881288398678723"><ele>81.25</ele><time>2026-05-03T08:17:34Z</time></trkpt><trkpt lat="40.90031642918128" lon="8.881359484240484"><ele>83.0</ele><time>2026-05-03T08:17:35Z</time></trkpt><trkpt lat="40.900201701402594" lon="8.881451037977985"><ele>83.0</ele><time>2026-05-03T08:17:36Z</time></trkpt><trkpt lat="40.90010822610114" lon="8.881574371237079"><ele>83.0</ele><time>2026-05-03T08:17:37Z</time></trkpt><trkpt lat="40.90004731905742" lon="8.881719836988557"><ele>83.0</ele><time>2026-05-03T08:17:38Z</time></trkpt><trkpt lat="40.90001499426685" lon="8.881875602271906"><ele>83.0</ele><time>2026-05-03T08:17:39Z</time></trkpt><trkpt lat="40.89999979828634" lon="8.88203389773005"><ele>84.5</ele><time>2026-05-03T08:17:40Z</time></trkpt><trkpt lat="40.899999790531005" lon="8.882193026024563"><ele>86.0</ele><time>2026-05-03T08:17:41Z</time></trkpt><trkpt lat="40.900029228646545" lon="8.882349501801235"><ele>87.5</ele><time>2026-05-03T08:17:42Z</time></trkpt><trkpt lat="40.90008527627445" lon="8.882496947315834"><ele>89.0</ele><time>2026-05-03T08:17:43Z</time></trkpt><trkpt lat="40.90016493057945" lon="8.882628873068693"><ele>92.25</ele><time>2026-05-03T08:17:44Z</time></trkpt><trkpt lat="40.90027032889274" lon="8.882739322316151"><ele>95.5</ele><time>2026-05-03T08:17:45Z</time></trkpt><trkpt lat="40.90039519658307" lon="8.882834120803226"><ele>98.75</ele><time>2026-05-03T08:17:46Z</time></trkpt><trkpt lat="40.90052451198517" lon="8.882932412778455"><ele>102.0</ele><time>2026-05-03T08:17:47Z</time></trkpt><trkpt lat="40.900607144397036" lon="8.883090652465777"><ele>102.0</ele><time>2026-05-03T08:17:48Z</time></trkpt><trkpt lat="40.90066527577581" lon="8.88327051417733"><ele>102.0</ele><time>2026-05-03T08:17:49Z</time></trkpt><trkpt lat="40.90066322824711" lon="8.88347040669889"><ele>102.0</ele><time>2026-05-03T08:17:50Z</time></trkpt><trkpt lat="40.9006536663842" lon="8.883682428470555"><ele>102.33333333333334</ele><time>2026-05-03T08:17:51Z</time></trkpt><trkpt lat="40.900569039212954" lon="8.883870405952804"><ele>102.66666666666667</ele><time>2026-05-03T08:17:52Z</time></trkpt><trkpt lat="40.900461441238015" lon="8.8840382122993"><ele>103.0</ele><time>2026-05-03T08:17:53Z</time></trkpt><trkpt lat="40.900335022357055" lon="8.884206211931039"><ele>106.66666666666667</ele><time>2026-05-03T08:17:54Z</time></trkpt><trkpt lat="40.90021055693569" lon="8.88439916477518"><ele>110.33333333333334</ele><time>2026-05-03T08:17:55Z</time></trkpt><trkpt lat="40.90006737847214" lon="8.884579462386807"><ele>114.0</ele><time>2026-05-03T08:17:56Z</time></trkpt><trkpt lat="40.899920817254284" lon="8.884768534697507"><ele>114.0</ele><time>2026-05-03T08:17:57Z</time></trkpt><trkpt lat="40.89975769644245" lon="8.884932377122706"><ele>114.0</ele><time>2026-05-03T08:17:58Z</time></trkpt><trkpt lat="40.89960083400799" lon="8.885110499801847"><ele>114.0</ele><time>2026-05-03T08:17:59Z</time></trkpt><trkpt lat="40.89944185534524" lon="8.885283274834174"><ele>112.66666666666666</ele><time>2026-05-03T08:18:00Z</time></trkpt><trkpt lat="40.899279448523046" lon="8.885448745568052"><ele>111.33333333333333</ele><time>2026-05-03T08:18:01Z</time></trkpt><trkpt lat="40.899115020570115" lon="8.885610639310315"><ele>110.0</ele><time>2026-05-03T08:18:02Z</time></trkpt><trkpt lat="40.89895579527906" lon="8.88576276532979"><ele>107.33333333333333</ele><time>2026-05-03T08:18:03Z</time></trkpt><trkpt lat="40.89879573685975" lon="8.885915685430923"><ele>104.66666666666666</ele><time>2026-05-03T08:18:04Z</time></trkpt><trkpt lat="40.89863844106727" lon="8.886065966738514"><ele>102.0</ele><time>2026-05-03T08:18:05Z</time></trkpt><trkpt lat="40.898479519236965" lon="8.886209419089496"><ele>110.33333333333334</ele><time>2026-05-03T08:18:06Z</time></trkpt><trkpt lat="40.89831049624996" lon="8.886317105826643"><ele>118.66666666666667</ele><time>2026-05-03T08:18:07Z</time></trkpt><trkpt lat="40.89812870060967" lon="8.886398317106108"><ele>127.0</ele><time>2026-05-03T08:18:08Z</time></trkpt><trkpt lat="40.89793878734044" lon="8.886440842089723"><ele>127.0</ele><time>2026-05-03T08:18:09Z</time></trkpt><trkpt lat="40.897744374519874" lon="8.886440447286004"><ele>127.0</ele><time>2026-05-03T08:18:10Z</time></trkpt><trkpt lat="40.89754777784103" lon="8.886419452518858"><ele>127.0</ele><time>2026-05-03T08:18:11Z</time></trkpt><trkpt lat="40.8973483931549" lon="8.886391813683872"><ele>129.33333333333334</ele><time>2026-05-03T08:18:12Z</time></trkpt><trkpt lat="40.89715182562525" lon="8.886364632439854"><ele>131.66666666666666</ele><time>2026-05-03T08:18:13Z</time></trkpt><trkpt lat="40.896957646099395" lon="8.886336843687673"><ele>134.0</ele><time>2026-05-03T08:18:14Z</time></trkpt><trkpt lat="40.89676634040705" lon="8.886314330817873"><ele>134.0</ele><time>2026-05-03T08:18:15Z</time></trkpt><trkpt lat="40.89657900981493" lon="8.886297160730107"><ele>134.0</ele><time>2026-05-03T08:18:16Z</time></trkpt><trkpt lat="40.89639097239995" lon="8.886311535301312"><ele>134.0</ele><time>2026-05-03T08:18:17Z</time></trkpt><trkpt lat="40.89620076496798" lon="8.886345104659245"><ele>134.0</ele><time>2026-05-03T08:18:18Z</time></trkpt><trkpt lat="40.89601386388347" lon="8.886418786711774"><ele>134.0</ele><time>2026-05-03T08:18:19Z</time></trkpt><trkpt lat="40.89583789233756" lon="8.886541844044686"><ele>134.0</ele><time>2026-05-03T08:18:20Z</time></trkpt><trkpt lat="40.89567410012943" lon="8.886697338486838"><ele>132.33333333333331</ele><time>2026-05-03T08:18:21Z</time></trkpt><trkpt lat="40.89552854234869" lon="8.886886210694957"><ele>130.66666666666666</ele><time>2026-05-03T08:18:22Z</time></trkpt><trkpt lat="40.89539643074891" lon="8.88709489721218"><ele>129.0</ele><time>2026-05-03T08:18:23Z</time></trkpt><trkpt lat="40.895266137540844" lon="8.887309601984398"><ele>129.0</ele><time>2026-05-03T08:18:24Z</time></trkpt><trkpt lat="40.89512024758177" lon="8.887505174225122"><ele>129.0</ele><time>2026-05-03T08:18:25Z</time></trkpt><trkpt lat="40.89498544841759" lon="8.88771566329939"><ele>129.0</ele><time>2026-05-03T08:18:26Z</time></trkpt><trkpt lat="40.89486356803577" lon="8.887938994665806"><ele>131.33333333333334</ele><time>2026-05-03T08:18:27Z</time></trkpt><trkpt lat="40.894729087389145" lon="8.888146651227105"><ele>133.66666666666669</ele><time>2026-05-03T08:18:28Z</time></trkpt><trkpt lat="40.89459347940171" lon="8.888353028514874"><ele>136.0</ele><time>2026-05-03T08:18:29Z</time></trkpt><trkpt lat="40.89445820131549" lon="8.88855866781816"><ele>136.0</ele><time>2026-05-03T08:18:30Z</time></trkpt><trkpt lat="40.89432567012198" lon="8.888765443871792"><ele>136.0</ele><time>2026-05-03T08:18:31Z</time></trkpt><trkpt lat="40.89419465620506" lon="8.888972218576718"><ele>136.0</ele><time>2026-05-03T08:18:32Z</time></trkpt><trkpt lat="40.89406487730219" lon="8.889174883607083"><ele>139.66666666666669</ele><time>2026-05-03T08:18:33Z</time></trkpt><trkpt lat="40.8939361530531" lon="8.88937481934617"><ele>143.33333333333334</ele><time>2026-05-03T08:18:34Z</time></trkpt><trkpt lat="40.89380762688824" lon="8.889572713594461"><ele>147.0</ele><time>2026-05-03T08:18:35Z</time></trkpt><trkpt lat="40.893679644252224" lon="8.889771833275201"><ele>147.0</ele><time>2026-05-03T08:18:36Z</time></trkpt><trkpt lat="40.89354751010452" lon="8.889979466117312"><ele>147.0</ele><time>2026-05-03T08:18:37Z</time></trkpt><trkpt lat="40.893399497610964" lon="8.890178726408662"><ele>147.0</ele><time>2026-05-03T08:18:38Z</time></trkpt><trkpt lat="40.8932599820107" lon="8.890396146001631"><ele>151.0</ele><time>2026-05-03T08:18:39Z</time></trkpt><trkpt lat="40.893118486323004" lon="8.890618199943559"><ele>155.0</ele><time>2026-05-03T08:18:40Z</time></trkpt><trkpt lat="40.89298629174338" lon="8.890855732978615"><ele>159.0</ele><time>2026-05-03T08:18:41Z</time></trkpt><trkpt lat="40.89283515642538" lon="8.891077200657087"><ele>163.0</ele><time>2026-05-03T08:18:42Z</time></trkpt><trkpt lat="40.892689543397566" lon="8.891311065585441"><ele>167.0</ele><time>2026-05-03T08:18:43Z</time></trkpt><trkpt lat="40.89254179582531" lon="8.891536346423742"><ele>167.0</ele><time>2026-05-03T08:18:44Z</time></trkpt><trkpt lat="40.89241572265052" lon="8.891737697408471"><ele>167.0</ele><time>2026-05-03T08:18:45Z</time></trkpt><trkpt lat="40.892288640603546" lon="8.891922151031448"><ele>167.0</ele><time>2026-05-03T08:18:46Z</time></trkpt><trkpt lat="40.892160864463555" lon="8.892114307342123"><ele>165.33333333333331</ele><time>2026-05-03T08:18:47Z</time></trkpt><trkpt lat="40.892017390170224" lon="8.892289591456096"><ele>163.66666666666666</ele><time>2026-05-03T08:18:48Z</time></trkpt><trkpt lat="40.89184591286924" lon="8.892421589513798"><ele>162.0</ele><time>2026-05-03T08:18:49Z</time></trkpt><trkpt lat="40.89167470902664" lon="8.892533073198544"><ele>158.66666666666666</ele><time>2026-05-03T08:18:50Z</time></trkpt><trkpt lat="40.89150605563489" lon="8.892599804682892"><ele>155.33333333333331</ele><time>2026-05-03T08:18:51Z</time></trkpt><trkpt lat="40.89133455242686" lon="8.892625004267876"><ele>152.0</ele><time>2026-05-03T08:18:52Z</time></trkpt><trkpt lat="40.89115712319383" lon="8.89261876403222"><ele>158.33333333333331</ele><time>2026-05-03T08:18:53Z</time></trkpt><trkpt lat="40.890972523129136" lon="8.892582199789313"><ele>164.66666666666666</ele><time>2026-05-03T08:18:54Z</time></trkpt><trkpt lat="40.89079056639799" lon="8.892535539092439"><ele>171.0</ele><time>2026-05-03T08:18:55Z</time></trkpt><trkpt lat="40.89060085648368" lon="8.892489713930948"><ele>171.0</ele><time>2026-05-03T08:18:56Z</time></trkpt><trkpt lat="40.8904017585488" lon="8.892478342635071"><ele>171.0</ele><time>2026-05-03T08:18:57Z</time></trkpt><trkpt lat="40.89019944831272" lon="8.892456974510294"><ele>171.0</ele><time>2026-05-03T08:18:58Z</time></trkpt><trkpt lat="40.88999545786427" lon="8.89244359912935"><ele>171.0</ele><time>2026-05-03T08:18:59Z</time></trkpt><trkpt lat="40.88979705072777" lon="8.892439179190218"><ele>171.0</ele><time>2026-05-03T08:19:00Z</time></trkpt><trkpt lat="40.88965194849557" lon="8.892532618650478"><ele>171.0</ele><time>2026-05-03T08:19:01Z</time></trkpt><trkpt lat="40.88948794769718" lon="8.892570333054138"><ele>161.33333333333334</ele><time>2026-05-03T08:19:02Z</time></trkpt><trkpt lat="40.88933411652555" lon="8.892605008039013"><ele>151.66666666666669</ele><time>2026-05-03T08:19:03Z</time></trkpt><trkpt lat="40.889184652217345" lon="8.892634665151846"><ele>142.0</ele><time>2026-05-03T08:19:04Z</time></trkpt><trkpt lat="40.88903348551988" lon="8.89266447322573"><ele>142.0</ele><time>2026-05-03T08:19:05Z</time></trkpt><trkpt lat="40.88888103934337" lon="8.892679187365356"><ele>142.0</ele><time>2026-05-03T08:19:06Z</time></trkpt><trkpt lat="40.88873205423998" lon="8.892643611978984"><ele>142.0</ele><time>2026-05-03T08:19:07Z</time></trkpt><trkpt lat="40.888576672596834" lon="8.892615485146306"><ele>139.0</ele><time>2026-05-03T08:19:08Z</time></trkpt><trkpt lat="40.88841172556544" lon="8.892601539779543"><ele>136.0</ele><time>2026-05-03T08:19:09Z</time></trkpt><trkpt lat="40.88824847929277" lon="8.8925357240042"><ele>133.0</ele><time>2026-05-03T08:19:10Z</time></trkpt><trkpt lat="40.88808393589988" lon="8.892448855421796"><ele>145.0</ele><time>2026-05-03T08:19:11Z</time></trkpt><trkpt lat="40.88793111303193" lon="8.892325996545972"><ele>157.0</ele><time>2026-05-03T08:19:12Z</time></trkpt><trkpt lat="40.88778675408948" lon="8.89215048644927"><ele>169.0</ele><time>2026-05-03T08:19:13Z</time></trkpt><trkpt lat="40.8876415944399" lon="8.891965821326806"><ele>167.33333333333334</ele><time>2026-05-03T08:19:14Z</time></trkpt><trkpt lat="40.887509416126626" lon="8.891782220341485"><ele>165.66666666666666</ele><time>2026-05-03T08:19:15Z</time></trkpt><trkpt lat="40.88738107223742" lon="8.891607428626875"><ele>164.0</ele><time>2026-05-03T08:19:16Z</time></trkpt><trkpt lat="40.88726418544284" lon="8.891438422409255"><ele>164.0</ele><time>2026-05-03T08:19:17Z</time></trkpt><trkpt lat="40.88715337283002" lon="8.891246911865403"><ele>164.0</ele><time>2026-05-03T08:19:18Z</time></trkpt><trkpt lat="40.88706027171987" lon="8.891019795264057"><ele>164.0</ele><time>2026-05-03T08:19:19Z</time></trkpt><trkpt lat="40.8869962848779" lon="8.890772482060273"><ele>171.33333333333331</ele><time>2026-05-03T08:19:20Z</time></trkpt><trkpt lat="40.886955727203365" lon="8.89051320783705"><ele>178.66666666666666</ele><time>2026-05-03T08:19:21Z</time></trkpt><trkpt lat="40.88692457737245" lon="8.89023671300424"><ele>186.0</ele><time>2026-05-03T08:19:22Z</time></trkpt><trkpt lat="40.88689547067533" lon="8.889953073705875"><ele>190.0</ele><time>2026-05-03T08:19:23Z</time></trkpt><trkpt lat="40.88686019995473" lon="8.889660418819426"><ele>194.0</ele><time>2026-05-03T08:19:24Z</time></trkpt><trkpt lat="40.886821641174656" lon="8.889379463109082"><ele>198.0</ele><time>2026-05-03T08:19:25Z</time></trkpt><trkpt lat="40.88678802306187" lon="8.889126213832633"><ele>183.33333333333334</ele><time>2026-05-03T08:19:26Z</time></trkpt><trkpt lat="40.886757098306084" lon="8.888881710667002"><ele>168.66666666666669</ele><time>2026-05-03T08:19:27Z</time></trkpt><trkpt lat="40.88672469222598" lon="8.888642461840561"><ele>154.0</ele><time>2026-05-03T08:19:28Z</time></trkpt><trkpt lat="40.88669035487823" lon="8.88840309985595"><ele>154.0</ele><time>2026-05-03T08:19:29Z</time></trkpt><trkpt lat="40.88665480480475" lon="8.8881527376497"><ele>154.0</ele><time>2026-05-03T08:19:30Z</time></trkpt><trkpt lat="40.88661970294898" lon="8.887894958709472"><ele>154.0</ele><time>2026-05-03T08:19:31Z</time></trkpt><trkpt lat="40.88658774485055" lon="8.887633163861494"><ele>153.66666666666669</ele><time>2026-05-03T08:19:32Z</time></trkpt><trkpt lat="40.8865554629986" lon="8.887373319155403"><ele>153.33333333333334</ele><time>2026-05-03T08:19:33Z</time></trkpt><trkpt lat="40.886522288366095" lon="8.887125869731104"><ele>153.0</ele><time>2026-05-03T08:19:34Z</time></trkpt><trkpt lat="40.88648261028936" lon="8.886887369633328"><ele>153.0</ele><time>2026-05-03T08:19:35Z</time></trkpt><trkpt lat="40.88641890805541" lon="8.886660550990939"><ele>153.0</ele><time>2026-05-03T08:19:36Z</time></trkpt><trkpt lat="40.88632553489167" lon="8.886450077934454"><ele>153.0</ele><time>2026-05-03T08:19:37Z</time></trkpt><trkpt lat="40.8861900190146" lon="8.886268336619912"><ele>153.0</ele><time>2026-05-03T08:19:38Z</time></trkpt><trkpt lat="40.88602893026484" lon="8.8861087304184"><ele>153.0</ele><time>2026-05-03T08:19:39Z</time></trkpt><trkpt lat="40.88585137077176" lon="8.886001662598105"><ele>153.0</ele><time>2026-05-03T08:19:40Z</time></trkpt><trkpt lat="40.88566220931404" lon="8.885941087149936"><ele>144.0</ele><time>2026-05-03T08:19:41Z</time></trkpt><trkpt lat="40.88546498974877" lon="8.8859374056668"><ele>135.0</ele><time>2026-05-03T08:19:42Z</time></trkpt><trkpt lat="40.88526616998741" lon="8.88595944034555"><ele>126.0</ele><time>2026-05-03T08:19:43Z</time></trkpt><trkpt lat="40.88506386053695" lon="8.886008961888994"><ele>125.0</ele><time>2026-05-03T08:19:44Z</time></trkpt><trkpt lat="40.884860023999885" lon="8.886047534291151"><ele>124.0</ele><time>2026-05-03T08:19:45Z</time></trkpt><trkpt lat="40.88465339064649" lon="8.886082948635183"><ele>123.0</ele><time>2026-05-03T08:19:46Z</time></trkpt><trkpt lat="40.88444797824467" lon="8.88611532233364"><ele>123.66666666666666</ele><time>2026-05-03T08:19:47Z</time></trkpt><trkpt lat="40.88425167216244" lon="8.886146101336529"><ele>124.33333333333333</ele><time>2026-05-03T08:19:48Z</time></trkpt><trkpt lat="40.88405531480591" lon="8.886176771785408"><ele>125.0</ele><time>2026-05-03T08:19:49Z</time></trkpt><trkpt lat="40.8838582302596" lon="8.886208594523216"><ele>125.0</ele><time>2026-05-03T08:19:50Z</time></trkpt><trkpt lat="40.883663375778745" lon="8.886239446440065"><ele>125.0</ele><time>2026-05-03T08:19:51Z</time></trkpt><trkpt lat="40.8834714915972" lon="8.886268989465902"><ele>125.0</ele><time>2026-05-03T08:19:52Z</time></trkpt><trkpt lat="40.883278392474445" lon="8.886298811334257"><ele>119.0</ele><time>2026-05-03T08:19:53Z</time></trkpt><trkpt lat="40.88308237843992" lon="8.886330343273833"><ele>113.0</ele><time>2026-05-03T08:19:54Z</time></trkpt><trkpt lat="40.8828839164194" lon="8.886364938214054"><ele>107.0</ele><time>2026-05-03T08:19:55Z</time></trkpt><trkpt lat="40.8826832455649" lon="8.886398045309921"><ele>104.66666666666666</ele><time>2026-05-03T08:19:56Z</time></trkpt><trkpt lat="40.88248003720171" lon="8.886432785276336"><ele>102.33333333333334</ele><time>2026-05-03T08:19:57Z</time></trkpt><trkpt lat="40.88227562375394" lon="8.886474053557503"><ele>100.0</ele><time>2026-05-03T08:19:58Z</time></trkpt><trkpt lat="40.88207133719994" lon="8.886528048775935"><ele>100.0</ele><time>2026-05-03T08:19:59Z</time></trkpt><trkpt lat="40.88186654489507" lon="8.886597273035656"><ele>100.0</ele><time>2026-05-03T08:20:00Z</time></trkpt><trkpt lat="40.88166526416705" lon="8.886688420509273"><ele>100.0</ele><time>2026-05-03T08:20:01Z</time></trkpt><trkpt lat="40.88146988049746" lon="8.886804993682588"><ele>95.66666666666667</ele><time>2026-05-03T08:20:02Z</time></trkpt><trkpt lat="40.88128384271092" lon="8.886949081414333"><ele>91.33333333333334</ele><time>2026-05-03T08:20:03Z</time></trkpt><trkpt lat="40.88110515408529" lon="8.887112343941965"><ele>87.0</ele><time>2026-05-03T08:20:04Z</time></trkpt><trkpt lat="40.88093778261186" lon="8.887296778589006"><ele>87.0</ele><time>2026-05-03T08:20:05Z</time></trkpt><trkpt lat="40.88077808790101" lon="8.887491800939417"><ele>87.0</ele><time>2026-05-03T08:20:06Z</time></trkpt><trkpt lat="40.88062832465044" lon="8.887701474996195"><ele>87.0</ele><time>2026-05-03T08:20:07Z</time></trkpt><trkpt lat="40.88049340118109" lon="8.887928971811428"><ele>85.33333333333333</ele><time>2026-05-03T08:20:08Z</time></trkpt><trkpt lat="40.88037732006755" lon="8.888174974507947"><ele>83.66666666666666</ele><time>2026-05-03T08:20:09Z</time></trkpt><trkpt lat="40.88027976273559" lon="8.88843484462002"><ele>82.0</ele><time>2026-05-03T08:20:10Z</time></trkpt><trkpt lat="40.88020275969156" lon="8.888703904878193"><ele>82.66666666666666</ele><time>2026-05-03T08:20:11Z</time></trkpt><trkpt lat="40.88012714600317" lon="8.88897262242063"><ele>83.33333333333333</ele><time>2026-05-03T08:20:12Z</time></trkpt><trkpt lat="40.88004815454959" lon="8.889236037372697"><ele>84.0</ele><time>2026-05-03T08:20:13Z</time></trkpt><trkpt lat="40.879980109473536" lon="8.889505936257745"><ele>84.0</ele><time>2026-05-03T08:20:14Z</time></trkpt><trkpt lat="40.87991291559766" lon="8.889773579919293"><ele>84.0</ele><time>2026-05-03T08:20:15Z</time></trkpt><trkpt lat="40.879846690639226" lon="8.89003711132333"><ele>84.0</ele><time>2026-05-03T08:20:16Z</time></trkpt><trkpt lat="40.87977955322222" lon="8.890304273771234"><ele>83.0</ele><time>2026-05-03T08:20:17Z</time></trkpt><trkpt lat="40.87972928102558" lon="8.890573509651846"><ele>82.0</ele><time>2026-05-03T08:20:18Z</time></trkpt><trkpt lat="40.879663724168665" lon="8.89083450322668"><ele>81.0</ele><time>2026-05-03T08:20:19Z</time></trkpt><trkpt lat="40.879597584959754" lon="8.891096312831351"><ele>81.0</ele><time>2026-05-03T08:20:20Z</time></trkpt><trkpt lat="40.879532185875206" lon="8.891356073020921"><ele>81.0</ele><time>2026-05-03T08:20:21Z</time></trkpt><trkpt lat="40.87946652892717" lon="8.891614483930168"><ele>81.0</ele><time>2026-05-03T08:20:22Z</time></trkpt><trkpt lat="40.87940062082789" lon="8.891872350433026"><ele>81.33333333333333</ele><time>2026-05-03T08:20:23Z</time></trkpt><trkpt lat="40.87933615822433" lon="8.892128489918253"><ele>81.66666666666666</ele><time>2026-05-03T08:20:24Z</time></trkpt><trkpt lat="40.879268953616624" lon="8.892385420389973"><ele>82.0</ele><time>2026-05-03T08:20:25Z</time></trkpt><trkpt lat="40.879171129226826" lon="8.8926259964016"><ele>82.0</ele><time>2026-05-03T08:20:26Z</time></trkpt><trkpt lat="40.87907264660933" lon="8.892879446910099"><ele>82.0</ele><time>2026-05-03T08:20:27Z</time></trkpt><trkpt lat="40.87895254335319" lon="8.893121716774782"><ele>82.0</ele><time>2026-05-03T08:20:28Z</time></trkpt><trkpt lat="40.87881411028996" lon="8.893353236210915"><ele>78.5</ele><time>2026-05-03T08:20:29Z</time></trkpt><trkpt lat="40.878657828265894" lon="8.893565921324088"><ele>75.0</ele><time>2026-05-03T08:20:30Z</time></trkpt><trkpt lat="40.87848437110318" lon="8.893766524014664"><ele>77.0</ele><time>2026-05-03T08:20:31Z</time></trkpt><trkpt lat="40.87830016893719" lon="8.893942036428891"><ele>79.0</ele><time>2026-05-03T08:20:32Z</time></trkpt><trkpt lat="40.878101767333106" lon="8.89409249045793"><ele>79.0</ele><time>2026-05-03T08:20:33Z</time></trkpt><trkpt lat="40.87789321495311" lon="8.894214581607088"><ele>79.0</ele><time>2026-05-03T08:20:34Z</time></trkpt><trkpt lat="40.877682402905805" lon="8.894320434261758"><ele>74.0</ele><time>2026-05-03T08:20:35Z</time></trkpt><trkpt lat="40.8774643021503" lon="8.894397548146769"><ele>69.0</ele><time>2026-05-03T08:20:36Z</time></trkpt><trkpt lat="40.87724129081248" lon="8.894457838898118"><ele>69.0</ele><time>2026-05-03T08:20:37Z</time></trkpt><trkpt lat="40.877010850969114" lon="8.894496457503182"><ele>69.0</ele><time>2026-05-03T08:20:38Z</time></trkpt><trkpt lat="40.876779614653586" lon="8.89452504020238"><ele>67.0</ele><time>2026-05-03T08:20:39Z</time></trkpt><trkpt lat="40.87654541490877" lon="8.894532948707822"><ele>65.0</ele><time>2026-05-03T08:20:40Z</time></trkpt><trkpt lat="40.876309954045354" lon="8.894526330698557"><ele>65.0</ele><time>2026-05-03T08:20:41Z</time></trkpt><trkpt lat="40.87608297841704" lon="8.894501595747165"><ele>65.0</ele><time>2026-05-03T08:20:42Z</time></trkpt><trkpt lat="40.87586531966795" lon="8.894460583165916"><ele>65.0</ele><time>2026-05-03T08:20:43Z</time></trkpt><trkpt lat="40.875661730308394" lon="8.894400961814142"><ele>64.66666666666667</ele><time>2026-05-03T08:20:44Z</time></trkpt><trkpt lat="40.87547658518982" lon="8.894296435470272"><ele>64.33333333333333</ele><time>2026-05-03T08:20:45Z</time></trkpt><trkpt lat="40.875297562018645" lon="8.894175605488334"><ele>64.0</ele><time>2026-05-03T08:20:46Z</time></trkpt><trkpt lat="40.87512147347876" lon="8.894020311999604"><ele>64.33333333333333</ele><time>2026-05-03T08:20:47Z</time></trkpt><trkpt lat="40.8749563876382" lon="8.893833818030606"><ele>64.66666666666667</ele><time>2026-05-03T08:20:48Z</time></trkpt><trkpt lat="40.874814377222805" lon="8.893616389740696"><ele>65.0</ele><time>2026-05-03T08:20:49Z</time></trkpt><trkpt lat="40.87469067860704" lon="8.89338439415925"><ele>65.0</ele><time>2026-05-03T08:20:50Z</time></trkpt><trkpt lat="40.87457442391532" lon="8.893138067671204"><ele>65.0</ele><time>2026-05-03T08:20:51Z</time></trkpt><trkpt lat="40.874500759775934" lon="8.892871386832471"><ele>65.0</ele><time>2026-05-03T08:20:52Z</time></trkpt><trkpt lat="40.87445154922079" lon="8.892602591686982"><ele>64.66666666666667</ele><time>2026-05-03T08:20:53Z</time></trkpt><trkpt lat="40.87443989859675" lon="8.89231935009974"><ele>64.33333333333333</ele><time>2026-05-03T08:20:54Z</time></trkpt><trkpt lat="40.87442164997187" lon="8.892045955093426"><ele>64.0</ele><time>2026-05-03T08:20:55Z</time></trkpt><trkpt lat="40.874427509737664" lon="8.891786750307489"><ele>64.0</ele><time>2026-05-03T08:20:56Z</time></trkpt><trkpt lat="40.87441038900951" lon="8.891547233434206"><ele>64.0</ele><time>2026-05-03T08:20:57Z</time></trkpt><trkpt lat="40.87435348157693" lon="8.891313914757445"><ele>64.0</ele><time>2026-05-03T08:20:58Z</time></trkpt><trkpt lat="40.874261004767945" lon="8.891087788115435"><ele>59.33333333333333</ele><time>2026-05-03T08:20:59Z</time></trkpt><trkpt lat="40.874149515171126" lon="8.890873160758048"><ele>54.66666666666667</ele><time>2026-05-03T08:21:00Z</time></trkpt><trkpt lat="40.87399919586369" lon="8.890685263811502"><ele>50.0</ele><time>2026-05-03T08:21:01Z</time></trkpt><trkpt lat="40.87382682868203" lon="8.890517466192126"><ele>50.0</ele><time>2026-05-03T08:21:02Z</time></trkpt><trkpt lat="40.87364968677753" lon="8.89035228158368"><ele>50.0</ele><time>2026-05-03T08:21:03Z</time></trkpt><trkpt lat="40.8734867247116" lon="8.890167101329647"><ele>50.0</ele><time>2026-05-03T08:21:04Z</time></trkpt><trkpt lat="40.87332251313895" lon="8.890002157715177"><ele>45.66666666666667</ele><time>2026-05-03T08:21:05Z</time></trkpt><trkpt lat="40.87315897232145" lon="8.889841773740942"><ele>41.333333333333336</ele><time>2026-05-03T08:21:06Z</time></trkpt><trkpt lat="40.872973151046565" lon="8.889738789701939"><ele>37.0</ele><time>2026-05-03T08:21:07Z</time></trkpt><trkpt lat="40.87282196418774" lon="8.889594966270952"><ele>37.0</ele><time>2026-05-03T08:21:08Z</time></trkpt><trkpt lat="40.87266905945564" lon="8.889454136236346"><ele>37.0</ele><time>2026-05-03T08:21:09Z</time></trkpt><trkpt lat="40.87251384687661" lon="8.889320459874487"><ele>37.0</ele><time>2026-05-03T08:21:10Z</time></trkpt><trkpt lat="40.872353403648454" lon="8.889194408116587"><ele>42.0</ele><time>2026-05-03T08:21:11Z</time></trkpt><trkpt lat="40.8721932202053" lon="8.889068124965014"><ele>47.0</ele><time>2026-05-03T08:21:12Z</time></trkpt><trkpt lat="40.872020179080145" lon="8.888956135305923"><ele>52.0</ele><time>2026-05-03T08:21:13Z</time></trkpt><trkpt lat="40.87182898705254" lon="8.888876638227025"><ele>55.33333333333333</ele><time>2026-05-03T08:21:14Z</time></trkpt><trkpt lat="40.87162913694787" lon="8.888823484308206"><ele>58.66666666666667</ele><time>2026-05-03T08:21:15Z</time></trkpt><trkpt lat="40.87141163368396" lon="8.888808937799496"><ele>62.0</ele><time>2026-05-03T08:21:16Z</time></trkpt><trkpt lat="40.87119238868774" lon="8.888817216905755"><ele>62.0</ele><time>2026-05-03T08:21:17Z</time></trkpt><trkpt lat="40.8709807777753" lon="8.888864199312668"><ele>62.0</ele><time>2026-05-03T08:21:18Z</time></trkpt><trkpt lat="40.870779187230085" lon="8.888944465581892"><ele>62.0</ele><time>2026-05-03T08:21:19Z</time></trkpt><trkpt lat="40.87058328085617" lon="8.889054847487651"><ele>63.333333333333336</ele><time>2026-05-03T08:21:20Z</time></trkpt><trkpt lat="40.870407866979725" lon="8.889207999826331"><ele>64.66666666666667</ele><time>2026-05-03T08:21:21Z</time></trkpt><trkpt lat="40.870234196065795" lon="8.88937882627411"><ele>66.0</ele><time>2026-05-03T08:21:22Z</time></trkpt><trkpt lat="40.87007442103348" lon="8.889565903521506"><ele>69.0</ele><time>2026-05-03T08:21:23Z</time></trkpt><trkpt lat="40.86992696893852" lon="8.889773575856813"><ele>72.0</ele><time>2026-05-03T08:21:24Z</time></trkpt><trkpt lat="40.869782016878716" lon="8.889988941554055"><ele>75.0</ele><time>2026-05-03T08:21:25Z</time></trkpt><trkpt lat="40.86963709868162" lon="8.890203955390925"><ele>75.0</ele><time>2026-05-03T08:21:26Z</time></trkpt><trkpt lat="40.8694894150894" lon="8.890419230507069"><ele>75.0</ele><time>2026-05-03T08:21:27Z</time></trkpt><trkpt lat="40.86933683403164" lon="8.890632323710355"><ele>75.0</ele><time>2026-05-03T08:21:28Z</time></trkpt><trkpt lat="40.86918149487874" lon="8.890847946123479"><ele>79.0</ele><time>2026-05-03T08:21:29Z</time></trkpt><trkpt lat="40.8690257829062" lon="8.8910703188456"><ele>83.0</ele><time>2026-05-03T08:21:30Z</time></trkpt><trkpt lat="40.868870033829076" lon="8.891293267915225"><ele>83.0</ele><time>2026-05-03T08:21:31Z</time></trkpt><trkpt lat="40.86871702625383" lon="8.891512262527904"><ele>83.0</ele><time>2026-05-03T08:21:32Z</time></trkpt><trkpt lat="40.868574674826625" lon="8.89171731254168"><ele>83.0</ele><time>2026-05-03T08:21:33Z</time></trkpt><trkpt lat="40.86845238451581" lon="8.891899957162783"><ele>85.66666666666667</ele><time>2026-05-03T08:21:34Z</time></trkpt><trkpt lat="40.86833736195068" lon="8.892061711245697"><ele>88.33333333333333</ele><time>2026-05-03T08:21:35Z</time></trkpt><trkpt lat="40.86821530491645" lon="8.892226769734231"><ele>91.0</ele><time>2026-05-03T08:21:36Z</time></trkpt><trkpt lat="40.86807700337955" lon="8.892401659839164"><ele>91.0</ele><time>2026-05-03T08:21:37Z</time></trkpt><trkpt lat="40.867921523283336" lon="8.89256084954961"><ele>91.0</ele><time>2026-05-03T08:21:38Z</time></trkpt><trkpt lat="40.867747532658214" lon="8.892700459545768"><ele>91.0</ele><time>2026-05-03T08:21:39Z</time></trkpt><trkpt lat="40.86755694810115" lon="8.892815537422363"><ele>93.33333333333333</ele><time>2026-05-03T08:21:40Z</time></trkpt><trkpt lat="40.86735061632922" lon="8.89290231488663"><ele>95.66666666666666</ele><time>2026-05-03T08:21:41Z</time></trkpt><trkpt lat="40.867128663043594" lon="8.892954797958215"><ele>98.0</ele><time>2026-05-03T08:21:42Z</time></trkpt><trkpt lat="40.86689877226823" lon="8.892975001740805"><ele>100.0</ele><time>2026-05-03T08:21:43Z</time></trkpt><trkpt lat="40.86666617112277" lon="8.892961117200946"><ele>102.0</ele><time>2026-05-03T08:21:44Z</time></trkpt><trkpt lat="40.86643366720381" lon="8.89292663769485"><ele>102.0</ele><time>2026-05-03T08:21:45Z</time></trkpt><trkpt lat="40.86620253086802" lon="8.892891719476552"><ele>102.0</ele><time>2026-05-03T08:21:46Z</time></trkpt><trkpt lat="40.86597540862896" lon="8.892864819776834"><ele>103.0</ele><time>2026-05-03T08:21:47Z</time></trkpt><trkpt lat="40.86574688035361" lon="8.892841123452731"><ele>104.0</ele><time>2026-05-03T08:21:48Z</time></trkpt><trkpt lat="40.86551591237026" lon="8.892812842977039"><ele>104.0</ele><time>2026-05-03T08:21:49Z</time></trkpt><trkpt lat="40.86528444459974" lon="8.892777331735202"><ele>104.0</ele><time>2026-05-03T08:21:50Z</time></trkpt><trkpt lat="40.865051771404126" lon="8.892741664180434"><ele>102.5</ele><time>2026-05-03T08:21:51Z</time></trkpt><trkpt lat="40.86481507490273" lon="8.89271139367629"><ele>101.0</ele><time>2026-05-03T08:21:52Z</time></trkpt><trkpt lat="40.86457670203664" lon="8.892681262933861"><ele>101.0</ele><time>2026-05-03T08:21:53Z</time></trkpt><trkpt lat="40.86433521209677" lon="8.892649880721748"><ele>101.0</ele><time>2026-05-03T08:21:54Z</time></trkpt><trkpt lat="40.86409093364718" lon="8.89261890957669"><ele>105.0</ele><time>2026-05-03T08:21:55Z</time></trkpt><trkpt lat="40.86384346087656" lon="8.892589529051534"><ele>109.0</ele><time>2026-05-03T08:21:56Z</time></trkpt><trkpt lat="40.86359383829044" lon="8.892559072633462"><ele>110.5</ele><time>2026-05-03T08:21:57Z</time></trkpt><trkpt lat="40.863345490532076" lon="8.892523131622816"><ele>112.0</ele><time>2026-05-03T08:21:58Z</time></trkpt><trkpt lat="40.86310028508107" lon="8.892478626940923"><ele>112.0</ele><time>2026-05-03T08:21:59Z</time></trkpt><trkpt lat="40.8628577413267" lon="8.892427322276667"><ele>112.0</ele><time>2026-05-03T08:22:00Z</time></trkpt><trkpt lat="40.862616612953964" lon="8.892433883158628"><ele>111.5</ele><time>2026-05-03T08:22:01Z</time></trkpt><trkpt lat="40.86237939536994" lon="8.892396744162918"><ele>111.0</ele><time>2026-05-03T08:22:02Z</time></trkpt><trkpt lat="40.86214315254153" lon="8.892364908009322"><ele>111.0</ele><time>2026-05-03T08:22:03Z</time></trkpt><trkpt lat="40.861908445979715" lon="8.892337160520958"><ele>111.0</ele><time>2026-05-03T08:22:04Z</time></trkpt><trkpt lat="40.8616794852403" lon="8.892309965307044"><ele>111.0</ele><time>2026-05-03T08:22:05Z</time></trkpt><trkpt lat="40.86145123147307" lon="8.892282096433119"><ele>111.0</ele><time>2026-05-03T08:22:06Z</time></trkpt><trkpt lat="40.86122004672971" lon="8.892250046822019"><ele>111.0</ele><time>2026-05-03T08:22:07Z</time></trkpt><trkpt lat="40.860988998087535" lon="8.892215481233013"><ele>111.0</ele><time>2026-05-03T08:22:08Z</time></trkpt><trkpt lat="40.86075541712092" lon="8.892181868425507"><ele>110.5</ele><time>2026-05-03T08:22:09Z</time></trkpt><trkpt lat="40.86052051553106" lon="8.892152177983068"><ele>110.0</ele><time>2026-05-03T08:22:10Z</time></trkpt><trkpt lat="40.8602849186053" lon="8.892128409588617"><ele>111.0</ele><time>2026-05-03T08:22:11Z</time></trkpt><trkpt lat="40.86004910880044" lon="8.892097052062821"><ele>112.0</ele><time>2026-05-03T08:22:12Z</time></trkpt><trkpt lat="40.85981450206164" lon="8.892040700005024"><ele>112.0</ele><time>2026-05-03T08:22:13Z</time></trkpt><trkpt lat="40.8595754999968" lon="8.892036662303475"><ele>112.0</ele><time>2026-05-03T08:22:14Z</time></trkpt><trkpt lat="40.85934138577101" lon="8.892007141114483"><ele>113.5</ele><time>2026-05-03T08:22:15Z</time></trkpt><trkpt lat="40.859106880567694" lon="8.891974213550988"><ele>115.0</ele><time>2026-05-03T08:22:16Z</time></trkpt><trkpt lat="40.85886848993471" lon="8.891940267108856"><ele>115.0</ele><time>2026-05-03T08:22:17Z</time></trkpt><trkpt lat="40.85862855838273" lon="8.891882574257616"><ele>115.0</ele><time>2026-05-03T08:22:18Z</time></trkpt><trkpt lat="40.85838495769949" lon="8.89185098449956"><ele>115.0</ele><time>2026-05-03T08:22:19Z</time></trkpt><trkpt lat="40.85813996485812" lon="8.891819214208526"><ele>115.0</ele><time>2026-05-03T08:22:20Z</time></trkpt><trkpt lat="40.85789394654641" lon="8.891807969168312"><ele>115.0</ele><time>2026-05-03T08:22:21Z</time></trkpt><trkpt lat="40.85764917502407" lon="8.891774994263699"><ele>115.0</ele><time>2026-05-03T08:22:22Z</time></trkpt><trkpt lat="40.857401176525215" lon="8.89174341198152"><ele>115.0</ele><time>2026-05-03T08:22:23Z</time></trkpt><trkpt lat="40.85715544753833" lon="8.891691700675072"><ele>115.0</ele><time>2026-05-03T08:22:24Z</time></trkpt><trkpt lat="40.85690899864279" lon="8.891659854120475"><ele>113.5</ele><time>2026-05-03T08:22:25Z</time></trkpt><trkpt lat="40.85666395416108" lon="8.891628189046276"><ele>112.0</ele><time>2026-05-03T08:22:26Z</time></trkpt><trkpt lat="40.85642055302041" lon="8.891596736327516"><ele>112.0</ele><time>2026-05-03T08:22:27Z</time></trkpt><trkpt lat="40.85617804614938" lon="8.891587299302023"><ele>112.0</ele><time>2026-05-03T08:22:28Z</time></trkpt><trkpt lat="40.85593712065246" lon="8.891557084364129"><ele>110.0</ele><time>2026-05-03T08:22:29Z</time></trkpt><trkpt lat="40.85570175805975" lon="8.891527852190235"><ele>108.0</ele><time>2026-05-03T08:22:30Z</time></trkpt><trkpt lat="40.855467286483936" lon="8.891496334597685"><ele>108.0</ele><time>2026-05-03T08:22:31Z</time></trkpt><trkpt lat="40.855237182771624" lon="8.891463441144042"><ele>108.0</ele><time>2026-05-03T08:22:32Z</time></trkpt><trkpt lat="40.85501255626772" lon="8.891435990171281"><ele>106.0</ele><time>2026-05-03T08:22:33Z</time></trkpt><trkpt lat="40.854793697161114" lon="8.891387412355044"><ele>104.0</ele><time>2026-05-03T08:22:34Z</time></trkpt><trkpt lat="40.8545712966493" lon="8.891367174930194"><ele>102.0</ele><time>2026-05-03T08:22:35Z</time></trkpt><trkpt lat="40.85434729694402" lon="8.891356566131162"><ele>101.0</ele><time>2026-05-03T08:22:36Z</time></trkpt><trkpt lat="40.85411697721519" lon="8.89135739991989"><ele>100.0</ele><time>2026-05-03T08:22:37Z</time></trkpt><trkpt lat="40.853884142885235" lon="8.891370159719331"><ele>100.0</ele><time>2026-05-03T08:22:38Z</time></trkpt><trkpt lat="40.8536470140141" lon="8.891397694953591"><ele>100.0</ele><time>2026-05-03T08:22:39Z</time></trkpt><trkpt lat="40.85341148728768" lon="8.891444680194878"><ele>102.0</ele><time>2026-05-03T08:22:40Z</time></trkpt><trkpt lat="40.853182987368434" lon="8.891529931617304"><ele>104.0</ele><time>2026-05-03T08:22:41Z</time></trkpt><trkpt lat="40.85295565633568" lon="8.8916193845635"><ele>104.0</ele><time>2026-05-03T08:22:42Z</time></trkpt><trkpt lat="40.85273404782162" lon="8.891727917356262"><ele>104.0</ele><time>2026-05-03T08:22:43Z</time></trkpt><trkpt lat="40.852516245930296" lon="8.891849205438467"><ele>102.5</ele><time>2026-05-03T08:22:44Z</time></trkpt><trkpt lat="40.85230192383355" lon="8.891983194400602"><ele>101.0</ele><time>2026-05-03T08:22:45Z</time></trkpt><trkpt lat="40.8520912426529" lon="8.892126968123888"><ele>101.0</ele><time>2026-05-03T08:22:46Z</time></trkpt><trkpt lat="40.851884473603185" lon="8.89228074810123"><ele>101.0</ele><time>2026-05-03T08:22:47Z</time></trkpt><trkpt lat="40.85167913021149" lon="8.892435904224861"><ele>101.0</ele><time>2026-05-03T08:22:48Z</time></trkpt><trkpt lat="40.85147727994672" lon="8.892586956679011"><ele>101.0</ele><time>2026-05-03T08:22:49Z</time></trkpt><trkpt lat="40.85128059773232" lon="8.89273605679593"><ele>101.0</ele><time>2026-05-03T08:22:50Z</time></trkpt><trkpt lat="40.85108823091949" lon="8.892881119256897"><ele>101.0</ele><time>2026-05-03T08:22:51Z</time></trkpt><trkpt lat="40.85090008839374" lon="8.89302240695635"><ele>101.0</ele><time>2026-05-03T08:22:52Z</time></trkpt><trkpt lat="40.850713701768306" lon="8.893160760178253"><ele>100.33333333333333</ele><time>2026-05-03T08:22:53Z</time></trkpt><trkpt lat="40.850529801440366" lon="8.893298853352933"><ele>99.66666666666666</ele><time>2026-05-03T08:22:54Z</time></trkpt><trkpt lat="40.850345758268276" lon="8.89343554326846"><ele>99.0</ele><time>2026-05-03T08:22:55Z</time></trkpt><trkpt lat="40.850162637244" lon="8.893570749643477"><ele>103.33333333333334</ele><time>2026-05-03T08:22:56Z</time></trkpt><trkpt lat="40.84997960381173" lon="8.893706155896622"><ele>107.66666666666667</ele><time>2026-05-03T08:22:57Z</time></trkpt><trkpt lat="40.84979556868099" lon="8.893841289906424"><ele>112.0</ele><time>2026-05-03T08:22:58Z</time></trkpt><trkpt lat="40.849611274535995" lon="8.893977367776758"><ele>112.0</ele><time>2026-05-03T08:22:59Z</time></trkpt><trkpt lat="40.84942677197703" lon="8.894115695693205"><ele>112.0</ele><time>2026-05-03T08:23:00Z</time></trkpt><trkpt lat="40.84924268051785" lon="8.89425768409148"><ele>112.0</ele><time>2026-05-03T08:23:01Z</time></trkpt><trkpt lat="40.84905680198266" lon="8.894401903659341"><ele>114.0</ele><time>2026-05-03T08:23:02Z</time></trkpt><trkpt lat="40.848858189191084" lon="8.894521170786458"><ele>116.0</ele><time>2026-05-03T08:23:03Z</time></trkpt><trkpt lat="40.8486709921463" lon="8.894676634354916"><ele>118.0</ele><time>2026-05-03T08:23:04Z</time></trkpt><trkpt lat="40.84846807219095" lon="8.89479441844079"><ele>118.0</ele><time>2026-05-03T08:23:05Z</time></trkpt><trkpt lat="40.84825772383079" lon="8.89489170364068"><ele>118.0</ele><time>2026-05-03T08:23:06Z</time></trkpt><trkpt lat="40.84803882118407" lon="8.894963745910852"><ele>118.0</ele><time>2026-05-03T08:23:07Z</time></trkpt><trkpt lat="40.847817003261355" lon="8.895025262012686"><ele>114.0</ele><time>2026-05-03T08:23:08Z</time></trkpt><trkpt lat="40.84758935185126" lon="8.89504941655339"><ele>110.0</ele><time>2026-05-03T08:23:09Z</time></trkpt><trkpt lat="40.8473635552787" lon="8.89509022425978"><ele>109.5</ele><time>2026-05-03T08:23:10Z</time></trkpt><trkpt lat="40.84713883857891" lon="8.895147333963543"><ele>109.0</ele><time>2026-05-03T08:23:11Z</time></trkpt><trkpt lat="40.846913830974" lon="8.895189401583698"><ele>108.0</ele><time>2026-05-03T08:23:12Z</time></trkpt><trkpt lat="40.84668427500044" lon="8.895210860091597"><ele>107.0</ele><time>2026-05-03T08:23:13Z</time></trkpt><trkpt lat="40.84645550691233" lon="8.895251487239165"><ele>107.0</ele><time>2026-05-03T08:23:14Z</time></trkpt><trkpt lat="40.84622563626355" lon="8.89529393992458"><ele>107.0</ele><time>2026-05-03T08:23:15Z</time></trkpt><trkpt lat="40.84599909531136" lon="8.89536928891193"><ele>107.5</ele><time>2026-05-03T08:23:16Z</time></trkpt><trkpt lat="40.845766915476034" lon="8.89541749021331"><ele>108.0</ele><time>2026-05-03T08:23:17Z</time></trkpt><trkpt lat="40.84553321724853" lon="8.895460552963035"><ele>108.0</ele><time>2026-05-03T08:23:18Z</time></trkpt><trkpt lat="40.845298106520524" lon="8.895504534680263"><ele>108.0</ele><time>2026-05-03T08:23:19Z</time></trkpt><trkpt lat="40.845061061652146" lon="8.89555026661967"><ele>106.0</ele><time>2026-05-03T08:23:20Z</time></trkpt><trkpt lat="40.84482507236466" lon="8.895597370626302"><ele>104.0</ele><time>2026-05-03T08:23:21Z</time></trkpt><trkpt lat="40.84458612869043" lon="8.895638242869815"><ele>104.0</ele><time>2026-05-03T08:23:22Z</time></trkpt><trkpt lat="40.844347231251845" lon="8.895681003609376"><ele>104.0</ele><time>2026-05-03T08:23:23Z</time></trkpt><trkpt lat="40.84410762309284" lon="8.895727230328797"><ele>101.5</ele><time>2026-05-03T08:23:24Z</time></trkpt><trkpt lat="40.843868846582865" lon="8.895776848509396"><ele>99.0</ele><time>2026-05-03T08:23:25Z</time></trkpt><trkpt lat="40.84362944370167" lon="8.89582351500648"><ele>98.0</ele><time>2026-05-03T08:23:26Z</time></trkpt><trkpt lat="40.84339175366668" lon="8.895869781034385"><ele>97.0</ele><time>2026-05-03T08:23:27Z</time></trkpt><trkpt lat="40.84315557450416" lon="8.895915584030279"><ele>98.0</ele><time>2026-05-03T08:23:28Z</time></trkpt><trkpt lat="40.842919964462965" lon="8.895962375051617"><ele>99.0</ele><time>2026-05-03T08:23:29Z</time></trkpt><trkpt lat="40.84268163203999" lon="8.896009887575755"><ele>98.0</ele><time>2026-05-03T08:23:30Z</time></trkpt><trkpt lat="40.84244134292994" lon="8.896057974570216"><ele>97.0</ele><time>2026-05-03T08:23:31Z</time></trkpt><trkpt lat="40.842199492536245" lon="8.896104451851116"><ele>97.0</ele><time>2026-05-03T08:23:32Z</time></trkpt><trkpt lat="40.8419560274583" lon="8.896151443635434"><ele>97.0</ele><time>2026-05-03T08:23:33Z</time></trkpt><trkpt lat="40.84171144170833" lon="8.8962000018805"><ele>95.0</ele><time>2026-05-03T08:23:34Z</time></trkpt><trkpt lat="40.84146835733112" lon="8.896248687882428"><ele>93.0</ele><time>2026-05-03T08:23:35Z</time></trkpt><trkpt lat="40.8412366414182" lon="8.896293512800426"><ele>93.0</ele><time>2026-05-03T08:23:36Z</time></trkpt><trkpt lat="40.84101310188658" lon="8.896331184699704"><ele>93.0</ele><time>2026-05-03T08:23:37Z</time></trkpt><trkpt lat="40.84078714079398" lon="8.89637534603776"><ele>91.5</ele><time>2026-05-03T08:23:38Z</time></trkpt><trkpt lat="40.840558741713025" lon="8.896420548798533"><ele>90.0</ele><time>2026-05-03T08:23:39Z</time></trkpt><trkpt lat="40.84032601646453" lon="8.896469630223656"><ele>87.0</ele><time>2026-05-03T08:23:40Z</time></trkpt><trkpt lat="40.84008755611831" lon="8.896524510350613"><ele>84.0</ele><time>2026-05-03T08:23:41Z</time></trkpt><trkpt lat="40.83984633416776" lon="8.896593317276716"><ele>84.0</ele><time>2026-05-03T08:23:42Z</time></trkpt><trkpt lat="40.839600579605175" lon="8.896671392624036"><ele>84.0</ele><time>2026-05-03T08:23:43Z</time></trkpt><trkpt lat="40.839353233201614" lon="8.896758778181615"><ele>77.5</ele><time>2026-05-03T08:23:44Z</time></trkpt><trkpt lat="40.839104952420804" lon="8.896852933594094"><ele>71.0</ele><time>2026-05-03T08:23:45Z</time></trkpt><trkpt lat="40.83886175031504" lon="8.896939921035315"><ele>71.0</ele><time>2026-05-03T08:23:46Z</time></trkpt><trkpt lat="40.83862978011046" lon="8.897028752091947"><ele>71.0</ele><time>2026-05-03T08:23:47Z</time></trkpt><trkpt lat="40.83840336145718" lon="8.897114527645892"><ele>68.0</ele><time>2026-05-03T08:23:48Z</time></trkpt><trkpt lat="40.838176890138975" lon="8.897197866757885"><ele>65.0</ele><time>2026-05-03T08:23:49Z</time></trkpt><trkpt lat="40.83795004986571" lon="8.897285102498131"><ele>65.0</ele><time>2026-05-03T08:23:50Z</time></trkpt><trkpt lat="40.83772084687194" lon="8.897373088699297"><ele>65.0</ele><time>2026-05-03T08:23:51Z</time></trkpt><trkpt lat="40.83749225567836" lon="8.897462704228133"><ele>65.0</ele><time>2026-05-03T08:23:52Z</time></trkpt><trkpt lat="40.83725951928154" lon="8.89754880880482"><ele>65.0</ele><time>2026-05-03T08:23:53Z</time></trkpt><trkpt lat="40.83702530170374" lon="8.897637832172823"><ele>61.0</ele><time>2026-05-03T08:23:54Z</time></trkpt><trkpt lat="40.836790477078296" lon="8.897725880685485"><ele>57.0</ele><time>2026-05-03T08:23:55Z</time></trkpt><trkpt lat="40.836558732996735" lon="8.897815841069145"><ele>57.0</ele><time>2026-05-03T08:23:56Z</time></trkpt><trkpt lat="40.83634072143375" lon="8.897900579877739"><ele>57.0</ele><time>2026-05-03T08:23:57Z</time></trkpt><trkpt lat="40.83613223451665" lon="8.897978514424858"><ele>57.0</ele><time>2026-05-03T08:23:58Z</time></trkpt><trkpt lat="40.83593118768087" lon="8.898057138938151"><ele>53.666666666666664</ele><time>2026-05-03T08:23:59Z</time></trkpt><trkpt lat="40.83573666262464" lon="8.898133652824662"><ele>50.33333333333333</ele><time>2026-05-03T08:24:00Z</time></trkpt><trkpt lat="40.83554711039434" lon="8.898208472486822"><ele>47.0</ele><time>2026-05-03T08:24:01Z</time></trkpt><trkpt lat="40.83536717321219" lon="8.898274523082165"><ele>47.0</ele><time>2026-05-03T08:24:02Z</time></trkpt><trkpt lat="40.83520469821681" lon="8.89833698884383"><ele>47.0</ele><time>2026-05-03T08:24:03Z</time></trkpt><trkpt lat="40.83505489520604" lon="8.898389008884426"><ele>47.0</ele><time>2026-05-03T08:24:04Z</time></trkpt><trkpt lat="40.83492582642481" lon="8.898431913857115"><ele>45.8</ele><time>2026-05-03T08:24:05Z</time></trkpt><trkpt lat="40.83480917235551" lon="8.898463087947222"><ele>44.6</ele><time>2026-05-03T08:24:06Z</time></trkpt><trkpt lat="40.834713284317274" lon="8.89849124303323"><ele>43.4</ele><time>2026-05-03T08:24:07Z</time></trkpt><trkpt lat="40.834641461955066" lon="8.898519922416222"><ele>42.199999999999996</ele><time>2026-05-03T08:24:08Z</time></trkpt><trkpt lat="40.83456294927246" lon="8.898601272402571"><ele>41.0</ele><time>2026-05-03T08:24:10Z</time></trkpt><trkpt lat="40.8345407587493" lon="8.898714178145264"><ele>41.0</ele><time>2026-05-03T08:24:19Z</time></trkpt><trkpt lat="40.834574052235595" lon="8.898826427590723"><ele>41.0</ele><time>2026-05-03T08:24:20Z</time></trkpt><trkpt lat="40.83465940968287" lon="8.898948045074373"><ele>41.0</ele><time>2026-05-03T08:24:21Z</time></trkpt><trkpt lat="40.83474301500172" lon="8.899077708115845"><ele>41.0</ele><time>2026-05-03T08:24:22Z</time></trkpt><trkpt lat="40.834844217202864" lon="8.899212210923638"><ele>41.0</ele><time>2026-05-03T08:24:23Z</time></trkpt><trkpt lat="40.83496442414555" lon="8.899362261335813"><ele>41.0</ele><time>2026-05-03T08:24:24Z</time></trkpt><trkpt lat="40.835093343135135" lon="8.899527979314865"><ele>41.0</ele><time>2026-05-03T08:24:25Z</time></trkpt><trkpt lat="40.835228000393464" lon="8.899710261471856"><ele>41.0</ele><time>2026-05-03T08:24:26Z</time></trkpt><trkpt lat="40.83536742994795" lon="8.899896673369156"><ele>41.0</ele><time>2026-05-03T08:24:27Z</time></trkpt><trkpt lat="40.83550856047892" lon="8.900086229180193"><ele>41.0</ele><time>2026-05-03T08:24:28Z</time></trkpt><trkpt lat="40.83564855446435" lon="8.90027128262409"><ele>40.0</ele><time>2026-05-03T08:24:29Z</time></trkpt><trkpt lat="40.83578704057264" lon="8.900458973224437"><ele>39.0</ele><time>2026-05-03T08:24:30Z</time></trkpt><trkpt lat="40.83592451725741" lon="8.900649690930647"><ele>38.0</ele><time>2026-05-03T08:24:31Z</time></trkpt><trkpt lat="40.83606474251119" lon="8.90083776832263"><ele>36.33333333333333</ele><time>2026-05-03T08:24:32Z</time></trkpt><trkpt lat="40.83620617403246" lon="8.901026300046583"><ele>34.666666666666664</ele><time>2026-05-03T08:24:33Z</time></trkpt><trkpt lat="40.83634677975648" lon="8.90121090044998"><ele>33.0</ele><time>2026-05-03T08:24:34Z</time></trkpt><trkpt lat="40.83648499356104" lon="8.901397275283387"><ele>33.0</ele><time>2026-05-03T08:24:35Z</time></trkpt><trkpt lat="40.836624154828066" lon="8.901583645066749"><ele>33.0</ele><time>2026-05-03T08:24:36Z</time></trkpt><trkpt lat="40.83676398421365" lon="8.901767972631005"><ele>33.0</ele><time>2026-05-03T08:24:37Z</time></trkpt><trkpt lat="40.83690433056612" lon="8.901950511480372"><ele>33.333333333333336</ele><time>2026-05-03T08:24:38Z</time></trkpt><trkpt lat="40.83704207998043" lon="8.902133922591771"><ele>33.66666666666667</ele><time>2026-05-03T08:24:39Z</time></trkpt><trkpt lat="40.837179009083215" lon="8.902312554815632"><ele>34.0</ele><time>2026-05-03T08:24:40Z</time></trkpt><trkpt lat="40.83731465971711" lon="8.902492691887984"><ele>34.333333333333336</ele><time>2026-05-03T08:24:41Z</time></trkpt><trkpt lat="40.83744501595992" lon="8.90266437366631"><ele>34.666666666666664</ele><time>2026-05-03T08:24:42Z</time></trkpt><trkpt lat="40.837564558863725" lon="8.90282433840634"><ele>35.0</ele><time>2026-05-03T08:24:43Z</time></trkpt><trkpt lat="40.83767917615299" lon="8.902975474654712"><ele>35.0</ele><time>2026-05-03T08:24:44Z</time></trkpt><trkpt lat="40.83778617982255" lon="8.903115401182728"><ele>35.0</ele><time>2026-05-03T08:24:45Z</time></trkpt><trkpt lat="40.83788739014476" lon="8.903257045968772"><ele>35.0</ele><time>2026-05-03T08:24:46Z</time></trkpt><trkpt lat="40.83797384394469" lon="8.903412025024151"><ele>35.0</ele><time>2026-05-03T08:24:47Z</time></trkpt><trkpt lat="40.838031366973865" lon="8.903585304290564"><ele>35.33333333333333</ele><time>2026-05-03T08:24:48Z</time></trkpt><trkpt lat="40.83805305413331" lon="8.903776083269179"><ele>35.666666666666664</ele><time>2026-05-03T08:24:49Z</time></trkpt><trkpt lat="40.83804079317458" lon="8.903977402961877"><ele>36.0</ele><time>2026-05-03T08:24:50Z</time></trkpt><trkpt lat="40.83799549294555" lon="8.90418033913252"><ele>36.333333333333336</ele><time>2026-05-03T08:24:51Z</time></trkpt><trkpt lat="40.83796111064434" lon="8.904392455294685"><ele>36.66666666666667</ele><time>2026-05-03T08:24:52Z</time></trkpt><trkpt lat="40.83784276258415" lon="8.90458861763279"><ele>37.0</ele><time>2026-05-03T08:24:53Z</time></trkpt><trkpt lat="40.8377525302112" lon="8.904797532152546"><ele>37.0</ele><time>2026-05-03T08:24:54Z</time></trkpt><trkpt lat="40.837656588991386" lon="8.905007029817325"><ele>37.0</ele><time>2026-05-03T08:24:55Z</time></trkpt><trkpt lat="40.837619813206324" lon="8.90526117116778"><ele>37.0</ele><time>2026-05-03T08:24:56Z</time></trkpt><trkpt lat="40.83754759004984" lon="8.905496098290403"><ele>37.0</ele><time>2026-05-03T08:24:57Z</time></trkpt><trkpt lat="40.83747355031317" lon="8.90573380299131"><ele>37.0</ele><time>2026-05-03T08:24:58Z</time></trkpt><trkpt lat="40.83739791459303" lon="8.905969387775636"><ele>37.0</ele><time>2026-05-03T08:24:59Z</time></trkpt><trkpt lat="40.837321087697745" lon="8.906202292011745"><ele>37.0</ele><time>2026-05-03T08:25:00Z</time></trkpt><trkpt lat="40.837244184157704" lon="8.906429816948485"><ele>37.0</ele><time>2026-05-03T08:25:01Z</time></trkpt><trkpt lat="40.83716803065225" lon="8.906653172002034"><ele>37.0</ele><time>2026-05-03T08:25:02Z</time></trkpt><trkpt lat="40.83709335419076" lon="8.906873567726501"><ele>37.0</ele><time>2026-05-03T08:25:03Z</time></trkpt><trkpt lat="40.83702771959013" lon="8.907094267279147"><ele>37.0</ele><time>2026-05-03T08:25:04Z</time></trkpt><trkpt lat="40.83695970903602" lon="8.907306689690731"><ele>37.0</ele><time>2026-05-03T08:25:05Z</time></trkpt><trkpt lat="40.8368925722011" lon="8.90751700603319"><ele>38.333333333333336</ele><time>2026-05-03T08:25:06Z</time></trkpt><trkpt lat="40.836823637968834" lon="8.907723479807862"><ele>39.666666666666664</ele><time>2026-05-03T08:25:07Z</time></trkpt><trkpt lat="40.83675758734856" lon="8.907927252702436"><ele>41.0</ele><time>2026-05-03T08:25:08Z</time></trkpt><trkpt lat="40.836691853659936" lon="8.908131034285958"><ele>41.666666666666664</ele><time>2026-05-03T08:25:09Z</time></trkpt><trkpt lat="40.83661955470227" lon="8.908340287353097"><ele>42.333333333333336</ele><time>2026-05-03T08:25:10Z</time></trkpt><trkpt lat="40.8365429795194" lon="8.90855534587267"><ele>43.0</ele><time>2026-05-03T08:25:11Z</time></trkpt><trkpt lat="40.836464918839496" lon="8.908774697969525"><ele>43.0</ele><time>2026-05-03T08:25:12Z</time></trkpt><trkpt lat="40.83638422632216" lon="8.908995802790482"><ele>43.0</ele><time>2026-05-03T08:25:13Z</time></trkpt><trkpt lat="40.836293923552105" lon="8.90921832397967"><ele>43.0</ele><time>2026-05-03T08:25:14Z</time></trkpt><trkpt lat="40.83620362798621" lon="8.909448146414721"><ele>43.333333333333336</ele><time>2026-05-03T08:25:15Z</time></trkpt><trkpt lat="40.8361121750804" lon="8.90967998489349"><ele>43.666666666666664</ele><time>2026-05-03T08:25:16Z</time></trkpt><trkpt lat="40.83602325938687" lon="8.909916756665561"><ele>44.0</ele><time>2026-05-03T08:25:17Z</time></trkpt><trkpt lat="40.83593393058724" lon="8.910153078961507"><ele>45.0</ele><time>2026-05-03T08:25:18Z</time></trkpt><trkpt lat="40.83584383139657" lon="8.910388208346916"><ele>46.0</ele><time>2026-05-03T08:25:19Z</time></trkpt><trkpt lat="40.83575478370588" lon="8.910616924164154"><ele>47.0</ele><time>2026-05-03T08:25:20Z</time></trkpt><trkpt lat="40.83566599526817" lon="8.91084504301829"><ele>46.33333333333333</ele><time>2026-05-03T08:25:21Z</time></trkpt><trkpt lat="40.835577754412036" lon="8.911073142899426"><ele>45.666666666666664</ele><time>2026-05-03T08:25:22Z</time></trkpt><trkpt lat="40.83548561253937" lon="8.911301046689914"><ele>45.0</ele><time>2026-05-03T08:25:23Z</time></trkpt><trkpt lat="40.83539964031405" lon="8.911533315279623"><ele>46.66666666666667</ele><time>2026-05-03T08:25:24Z</time></trkpt><trkpt lat="40.835339339636086" lon="8.911755054372357"><ele>48.333333333333336</ele><time>2026-05-03T08:25:25Z</time></trkpt><trkpt lat="40.83534087175644" lon="8.911992575134786"><ele>50.0</ele><time>2026-05-03T08:25:26Z</time></trkpt><trkpt lat="40.8353718409327" lon="8.912214595299723"><ele>50.0</ele><time>2026-05-03T08:25:27Z</time></trkpt><trkpt lat="40.83544680574987" lon="8.912414610524666"><ele>50.0</ele><time>2026-05-03T08:25:28Z</time></trkpt><trkpt lat="40.835541916836895" lon="8.912579320933917"><ele>50.0</ele><time>2026-05-03T08:25:29Z</time></trkpt><trkpt lat="40.83564879963388" lon="8.912704148952445"><ele>51.25</ele><time>2026-05-03T08:25:30Z</time></trkpt><trkpt lat="40.835735942696665" lon="8.912834035956624"><ele>52.5</ele><time>2026-05-03T08:25:31Z</time></trkpt><trkpt lat="40.835779607524174" lon="8.912982979123072"><ele>53.75</ele><time>2026-05-03T08:25:32Z</time></trkpt><trkpt lat="40.83580578043234" lon="8.913136895725906"><ele>55.0</ele><time>2026-05-03T08:25:33Z</time></trkpt><trkpt lat="40.83572721532881" lon="8.913314404583291"><ele>54.0</ele><time>2026-05-03T08:25:34Z</time></trkpt><trkpt lat="40.835655174228826" lon="8.913476134648812"><ele>53.0</ele><time>2026-05-03T08:25:35Z</time></trkpt><trkpt lat="40.835572397476504" lon="8.91364367645944"><ele>52.0</ele><time>2026-05-03T08:25:36Z</time></trkpt><trkpt lat="40.835501228211356" lon="8.913827684292016"><ele>52.0</ele><time>2026-05-03T08:25:37Z</time></trkpt><trkpt lat="40.83541880639531" lon="8.91401190769316"><ele>52.0</ele><time>2026-05-03T08:25:38Z</time></trkpt><trkpt lat="40.83536345550765" lon="8.91421649511449"><ele>52.0</ele><time>2026-05-03T08:25:39Z</time></trkpt><trkpt lat="40.835330387068964" lon="8.914432562124425"><ele>52.0</ele><time>2026-05-03T08:25:40Z</time></trkpt><trkpt lat="40.835316646775276" lon="8.914653653719785"><ele>52.0</ele><time>2026-05-03T08:25:41Z</time></trkpt><trkpt lat="40.8353243436019" lon="8.914878497152479"><ele>52.0</ele><time>2026-05-03T08:25:42Z</time></trkpt><trkpt lat="40.83534911500257" lon="8.915107529435732"><ele>52.0</ele><time>2026-05-03T08:25:43Z</time></trkpt><trkpt lat="40.83537595930835" lon="8.915346549879946"><ele>52.0</ele><time>2026-05-03T08:25:44Z</time></trkpt><trkpt lat="40.83539893291357" lon="8.915597908754068"><ele>52.0</ele><time>2026-05-03T08:25:45Z</time></trkpt><trkpt lat="40.83541937859803" lon="8.91586059195831"><ele>53.0</ele><time>2026-05-03T08:25:46Z</time></trkpt><trkpt lat="40.83543862908889" lon="8.916140150129895"><ele>54.0</ele><time>2026-05-03T08:25:47Z</time></trkpt><trkpt lat="40.835459314515155" lon="8.916423809032176"><ele>55.0</ele><time>2026-05-03T08:25:48Z</time></trkpt><trkpt lat="40.83548109746306" lon="8.916711194709876"><ele>55.33333333333333</ele><time>2026-05-03T08:25:49Z</time></trkpt><trkpt lat="40.83550445991764" lon="8.916997837066278"><ele>55.66666666666667</ele><time>2026-05-03T08:25:50Z</time></trkpt><trkpt lat="40.835527997125475" lon="8.917286731070009"><ele>56.0</ele><time>2026-05-03T08:25:51Z</time></trkpt><trkpt lat="40.83554988384476" lon="8.917577756092932"><ele>56.333333333333336</ele><time>2026-05-03T08:25:52Z</time></trkpt><trkpt lat="40.83557096796646" lon="8.91787186228159"><ele>56.66666666666667</ele><time>2026-05-03T08:25:53Z</time></trkpt><trkpt lat="40.83559407116883" lon="8.918168300075761"><ele>57.0</ele><time>2026-05-03T08:25:54Z</time></trkpt><trkpt lat="40.83561834325511" lon="8.91846507856622"><ele>58.33333333333333</ele><time>2026-05-03T08:25:55Z</time></trkpt><trkpt lat="40.83564282959007" lon="8.918758806270661"><ele>59.666666666666664</ele><time>2026-05-03T08:25:56Z</time></trkpt><trkpt lat="40.83566537411529" lon="8.919033018710183"><ele>61.0</ele><time>2026-05-03T08:25:57Z</time></trkpt><trkpt lat="40.83568563707352" lon="8.919299082904336"><ele>62.0</ele><time>2026-05-03T08:25:58Z</time></trkpt><trkpt lat="40.835706712918274" lon="8.919563080702607"><ele>63.0</ele><time>2026-05-03T08:25:59Z</time></trkpt><trkpt lat="40.83572742004398" lon="8.919821930417429"><ele>64.0</ele><time>2026-05-03T08:26:00Z</time></trkpt><trkpt lat="40.83572159505866" lon="8.92007634117505"><ele>65.0</ele><time>2026-05-03T08:26:01Z</time></trkpt><trkpt lat="40.83569806449658" lon="8.920328947197964"><ele>66.0</ele><time>2026-05-03T08:26:02Z</time></trkpt><trkpt lat="40.83565282631033" lon="8.920586407704006"><ele>67.0</ele><time>2026-05-03T08:26:03Z</time></trkpt><trkpt lat="40.83560115609491" lon="8.920843444311943"><ele>68.33333333333333</ele><time>2026-05-03T08:26:04Z</time></trkpt><trkpt lat="40.835552955312224" lon="8.921097586415128"><ele>69.66666666666667</ele><time>2026-05-03T08:26:05Z</time></trkpt><trkpt lat="40.835505197707" lon="8.921352704713707"><ele>71.0</ele><time>2026-05-03T08:26:06Z</time></trkpt><trkpt lat="40.83545584995899" lon="8.921616009035743"><ele>72.33333333333334</ele><time>2026-05-03T08:26:07Z</time></trkpt><trkpt lat="40.83542095885719" lon="8.921891963648633"><ele>73.66666666666667</ele><time>2026-05-03T08:26:08Z</time></trkpt><trkpt lat="40.835363332006544" lon="8.92216650599966"><ele>75.0</ele><time>2026-05-03T08:26:09Z</time></trkpt><trkpt lat="40.835308245691415" lon="8.92244584590297"><ele>76.33333333333333</ele><time>2026-05-03T08:26:10Z</time></trkpt><trkpt lat="40.83525702820117" lon="8.922731407802779"><ele>77.66666666666666</ele><time>2026-05-03T08:26:11Z</time></trkpt><trkpt lat="40.83520500923007" lon="8.923016282759022"><ele>79.0</ele><time>2026-05-03T08:26:12Z</time></trkpt><trkpt lat="40.835150866216885" lon="8.923299581176039"><ele>79.33333333333333</ele><time>2026-05-03T08:26:13Z</time></trkpt><trkpt lat="40.83509790998554" lon="8.923575685089464"><ele>79.66666666666667</ele><time>2026-05-03T08:26:14Z</time></trkpt><trkpt lat="40.8350451011043" lon="8.923843865429795"><ele>80.0</ele><time>2026-05-03T08:26:15Z</time></trkpt><trkpt lat="40.834992642923346" lon="8.924107134919385"><ele>81.0</ele><time>2026-05-03T08:26:16Z</time></trkpt><trkpt lat="40.834940992573046" lon="8.924369875879046"><ele>82.0</ele><time>2026-05-03T08:26:17Z</time></trkpt><trkpt lat="40.834891220333965" lon="8.9246251300248"><ele>83.0</ele><time>2026-05-03T08:26:18Z</time></trkpt><trkpt lat="40.834849622567525" lon="8.924876161441793"><ele>84.33333333333334</ele><time>2026-05-03T08:26:19Z</time></trkpt><trkpt lat="40.834818221930945" lon="8.925132554450832"><ele>85.66666666666667</ele><time>2026-05-03T08:26:20Z</time></trkpt><trkpt lat="40.83479194331148" lon="8.925400140593748"><ele>87.0</ele><time>2026-05-03T08:26:21Z</time></trkpt><trkpt lat="40.83476528964149" lon="8.92567668998942"><ele>88.0</ele><time>2026-05-03T08:26:22Z</time></trkpt><trkpt lat="40.83473964787729" lon="8.925955373760575"><ele>89.0</ele><time>2026-05-03T08:26:23Z</time></trkpt><trkpt lat="40.834707669698474" lon="8.926251510531708"><ele>90.0</ele><time>2026-05-03T08:26:24Z</time></trkpt><trkpt lat="40.83467591354861" lon="8.926542584614616"><ele>90.66666666666667</ele><time>2026-05-03T08:26:25Z</time></trkpt><trkpt lat="40.83464599164692" lon="8.926829011532071"><ele>91.33333333333334</ele><time>2026-05-03T08:26:26Z</time></trkpt><trkpt lat="40.834616876361345" lon="8.9271107624975"><ele>92.0</ele><time>2026-05-03T08:26:27Z</time></trkpt><trkpt lat="40.834591254131446" lon="8.927390302179987"><ele>93.0</ele><time>2026-05-03T08:26:28Z</time></trkpt><trkpt lat="40.834565932109186" lon="8.927674429205538"><ele>94.0</ele><time>2026-05-03T08:26:29Z</time></trkpt><trkpt lat="40.8345230783811" lon="8.927950639929175"><ele>95.0</ele><time>2026-05-03T08:26:30Z</time></trkpt><trkpt lat="40.83451224995747" lon="8.928224443377172"><ele>95.33333333333334</ele><time>2026-05-03T08:26:31Z</time></trkpt><trkpt lat="40.83448535181819" lon="8.928470316888626"><ele>95.66666666666667</ele><time>2026-05-03T08:26:32Z</time></trkpt><trkpt lat="40.834459161555785" lon="8.928695541253493"><ele>96.0</ele><time>2026-05-03T08:26:33Z</time></trkpt><trkpt lat="40.83443657484696" lon="8.928900732773513"><ele>96.0</ele><time>2026-05-03T08:26:34Z</time></trkpt><trkpt lat="40.834373978215346" lon="8.929068765135742"><ele>96.0</ele><time>2026-05-03T08:26:35Z</time></trkpt><trkpt lat="40.83428775954833" lon="8.92919573000513"><ele>96.0</ele><time>2026-05-03T08:26:36Z</time></trkpt><trkpt lat="40.83417467034468" lon="8.929277012634152"><ele>96.0</ele><time>2026-05-03T08:26:37Z</time></trkpt><trkpt lat="40.83404841206429" lon="8.92929990056156"><ele>98.0</ele><time>2026-05-03T08:26:38Z</time></trkpt><trkpt lat="40.83391324041581" lon="8.929272766653007"><ele>100.0</ele><time>2026-05-03T08:26:39Z</time></trkpt><trkpt lat="40.83377675237397" lon="8.929181910707847"><ele>102.0</ele><time>2026-05-03T08:26:40Z</time></trkpt><trkpt lat="40.833623173689276" lon="8.929062251997188"><ele>104.66666666666666</ele><time>2026-05-03T08:26:41Z</time></trkpt><trkpt lat="40.833458565368" lon="8.928947570389175"><ele>107.33333333333333</ele><time>2026-05-03T08:26:42Z</time></trkpt><trkpt lat="40.8332922174244" lon="8.928817903488033"><ele>110.0</ele><time>2026-05-03T08:26:43Z</time></trkpt><trkpt lat="40.833120960073124" lon="8.928694199846518"><ele>110.0</ele><time>2026-05-03T08:26:44Z</time></trkpt><trkpt lat="40.83295246677993" lon="8.928596040883498"><ele>110.0</ele><time>2026-05-03T08:26:45Z</time></trkpt><trkpt lat="40.83279260086776" lon="8.928532682728983"><ele>110.0</ele><time>2026-05-03T08:26:46Z</time></trkpt><trkpt lat="40.83262761228797" lon="8.92850489043719"><ele>112.66666666666666</ele><time>2026-05-03T08:26:47Z</time></trkpt><trkpt lat="40.83245444954044" lon="8.928509091001938"><ele>115.33333333333334</ele><time>2026-05-03T08:26:48Z</time></trkpt><trkpt lat="40.83228268774892" lon="8.92858343440592"><ele>118.0</ele><time>2026-05-03T08:26:49Z</time></trkpt><trkpt lat="40.832119264818125" lon="8.928700682231675"><ele>118.0</ele><time>2026-05-03T08:26:50Z</time></trkpt><trkpt lat="40.83196447629854" lon="8.928856374770735"><ele>118.0</ele><time>2026-05-03T08:26:51Z</time></trkpt><trkpt lat="40.83181559804464" lon="8.929037095940995"><ele>118.0</ele><time>2026-05-03T08:26:52Z</time></trkpt><trkpt lat="40.831666270078045" lon="8.929215499126824"><ele>121.66666666666667</ele><time>2026-05-03T08:26:53Z</time></trkpt><trkpt lat="40.831520674690886" lon="8.929396467371747"><ele>125.33333333333334</ele><time>2026-05-03T08:26:54Z</time></trkpt><trkpt lat="40.83137865845049" lon="8.929578860421827"><ele>129.0</ele><time>2026-05-03T08:26:55Z</time></trkpt><trkpt lat="40.83123613535628" lon="8.929757914170526"><ele>129.0</ele><time>2026-05-03T08:26:56Z</time></trkpt><trkpt lat="40.83109596064005" lon="8.92993722711686"><ele>129.0</ele><time>2026-05-03T08:26:57Z</time></trkpt><trkpt lat="40.83095636481373" lon="8.930127713687877"><ele>129.0</ele><time>2026-05-03T08:26:58Z</time></trkpt><trkpt lat="40.83082584195415" lon="8.930344096473698"><ele>132.0</ele><time>2026-05-03T08:26:59Z</time></trkpt><trkpt lat="40.8307022581285" lon="8.930578741363473"><ele>135.0</ele><time>2026-05-03T08:27:00Z</time></trkpt><trkpt lat="40.83057327674456" lon="8.930814774478447"><ele>138.0</ele><time>2026-05-03T08:27:01Z</time></trkpt><trkpt lat="40.830443265934605" lon="8.931064710556544"><ele>143.0</ele><time>2026-05-03T08:27:02Z</time></trkpt><trkpt lat="40.83031135168006" lon="8.931307020183041"><ele>148.0</ele><time>2026-05-03T08:27:03Z</time></trkpt><trkpt lat="40.83018468908068" lon="8.931540625569411"><ele>153.0</ele><time>2026-05-03T08:27:04Z</time></trkpt><trkpt lat="40.83007679148293" lon="8.931747982928718"><ele>153.0</ele><time>2026-05-03T08:27:05Z</time></trkpt><trkpt lat="40.82996885556019" lon="8.931944042287574"><ele>153.0</ele><time>2026-05-03T08:27:06Z</time></trkpt><trkpt lat="40.829868199562064" lon="8.932148615218665"><ele>153.0</ele><time>2026-05-03T08:27:07Z</time></trkpt><trkpt lat="40.829806411784695" lon="8.932382895700723"><ele>156.0</ele><time>2026-05-03T08:27:08Z</time></trkpt><trkpt lat="40.82977735844426" lon="8.932644368912362"><ele>159.0</ele><time>2026-05-03T08:27:09Z</time></trkpt><trkpt lat="40.8297693785274" lon="8.93291073939217"><ele>162.0</ele><time>2026-05-03T08:27:10Z</time></trkpt><trkpt lat="40.82974893168291" lon="8.933151487893687"><ele>162.0</ele><time>2026-05-03T08:27:11Z</time></trkpt><trkpt lat="40.82969099841595" lon="8.933364048698873"><ele>162.0</ele><time>2026-05-03T08:27:12Z</time></trkpt><trkpt lat="40.82958280441186" lon="8.933577570291707"><ele>162.0</ele><time>2026-05-03T08:27:13Z</time></trkpt><trkpt lat="40.82947102672657" lon="8.933774491688807"><ele>164.0</ele><time>2026-05-03T08:27:14Z</time></trkpt><trkpt lat="40.829373826371786" lon="8.933968507227355"><ele>166.0</ele><time>2026-05-03T08:27:15Z</time></trkpt><trkpt lat="40.8293117551197" lon="8.934189125642696"><ele>168.0</ele><time>2026-05-03T08:27:16Z</time></trkpt><trkpt lat="40.829290393575874" lon="8.934434910162881"><ele>168.0</ele><time>2026-05-03T08:27:17Z</time></trkpt><trkpt lat="40.82930696979095" lon="8.934694158805836"><ele>168.0</ele><time>2026-05-03T08:27:18Z</time></trkpt><trkpt lat="40.82932965129154" lon="8.934959023407865"><ele>168.0</ele><time>2026-05-03T08:27:19Z</time></trkpt><trkpt lat="40.82934472992521" lon="8.935218269469125"><ele>169.0</ele><time>2026-05-03T08:27:20Z</time></trkpt><trkpt lat="40.82936103854319" lon="8.93546643151777"><ele>170.0</ele><time>2026-05-03T08:27:21Z</time></trkpt><trkpt lat="40.829361113005895" lon="8.935701058511206"><ele>171.0</ele><time>2026-05-03T08:27:22Z</time></trkpt><trkpt lat="40.829324828869595" lon="8.935943206786492"><ele>170.66666666666666</ele><time>2026-05-03T08:27:23Z</time></trkpt><trkpt lat="40.82924807748486" lon="8.936188383248748"><ele>170.33333333333331</ele><time>2026-05-03T08:27:24Z</time></trkpt><trkpt lat="40.829150857249815" lon="8.93643409358925"><ele>170.0</ele><time>2026-05-03T08:27:25Z</time></trkpt><trkpt lat="40.82906353681893" lon="8.936684469098715"><ele>171.0</ele><time>2026-05-03T08:27:26Z</time></trkpt><trkpt lat="40.82897872626446" lon="8.936930810146158"><ele>172.0</ele><time>2026-05-03T08:27:27Z</time></trkpt><trkpt lat="40.82890337041881" lon="8.937154687703984"><ele>173.0</ele><time>2026-05-03T08:27:28Z</time></trkpt><trkpt lat="40.82883549584481" lon="8.937359801825968"><ele>174.66666666666666</ele><time>2026-05-03T08:27:29Z</time></trkpt><trkpt lat="40.82877120323912" lon="8.93755791991628"><ele>176.33333333333334</ele><time>2026-05-03T08:27:30Z</time></trkpt><trkpt lat="40.82870575242608" lon="8.937760680097611"><ele>178.0</ele><time>2026-05-03T08:27:31Z</time></trkpt><trkpt lat="40.828643487590845" lon="8.937962999725789"><ele>178.0</ele><time>2026-05-03T08:27:32Z</time></trkpt><trkpt lat="40.828602403628174" lon="8.938159734409009"><ele>178.0</ele><time>2026-05-03T08:27:33Z</time></trkpt><trkpt lat="40.8285993716147" lon="8.938348961628067"><ele>178.0</ele><time>2026-05-03T08:27:34Z</time></trkpt><trkpt lat="40.82862741881342" lon="8.93855900282055"><ele>179.66666666666669</ele><time>2026-05-03T08:27:35Z</time></trkpt><trkpt lat="40.82867913437178" lon="8.938795118971155"><ele>181.33333333333334</ele><time>2026-05-03T08:27:36Z</time></trkpt><trkpt lat="40.82871188223716" lon="8.939050610450428"><ele>183.0</ele><time>2026-05-03T08:27:37Z</time></trkpt><trkpt lat="40.82874565376253" lon="8.939314886072665"><ele>184.0</ele><time>2026-05-03T08:27:38Z</time></trkpt><trkpt lat="40.82878167627555" lon="8.93956686064154"><ele>185.0</ele><time>2026-05-03T08:27:39Z</time></trkpt><trkpt lat="40.82881825016746" lon="8.939811727152005"><ele>186.0</ele><time>2026-05-03T08:27:40Z</time></trkpt><trkpt lat="40.82883308550467" lon="8.940051006140594"><ele>186.33333333333334</ele><time>2026-05-03T08:27:41Z</time></trkpt><trkpt lat="40.82881251841249" lon="8.940283392563458"><ele>186.66666666666669</ele><time>2026-05-03T08:27:42Z</time></trkpt><trkpt lat="40.828766745506336" lon="8.940521485855758"><ele>187.0</ele><time>2026-05-03T08:27:43Z</time></trkpt><trkpt lat="40.82869476062778" lon="8.940760551488676"><ele>189.66666666666669</ele><time>2026-05-03T08:27:44Z</time></trkpt><trkpt lat="40.82862096009687" lon="8.941009092929109"><ele>192.33333333333334</ele><time>2026-05-03T08:27:45Z</time></trkpt><trkpt lat="40.828550610034966" lon="8.941255509868594"><ele>195.0</ele><time>2026-05-03T08:27:46Z</time></trkpt><trkpt lat="40.82848429600842" lon="8.941502496187193"><ele>192.0</ele><time>2026-05-03T08:27:47Z</time></trkpt><trkpt lat="40.82841922753096" lon="8.941743069087662"><ele>189.0</ele><time>2026-05-03T08:27:48Z</time></trkpt><trkpt lat="40.82835267352415" lon="8.941980257850759"><ele>186.0</ele><time>2026-05-03T08:27:49Z</time></trkpt><trkpt lat="40.828291594766334" lon="8.942210599999509"><ele>186.0</ele><time>2026-05-03T08:27:50Z</time></trkpt><trkpt lat="40.8282353403317" lon="8.942425330046971"><ele>186.0</ele><time>2026-05-03T08:27:51Z</time></trkpt><trkpt lat="40.82817790182416" lon="8.942625575199116"><ele>186.0</ele><time>2026-05-03T08:27:52Z</time></trkpt><trkpt lat="40.82811302405052" lon="8.942795991746173"><ele>187.75</ele><time>2026-05-03T08:27:53Z</time></trkpt><trkpt lat="40.828019732636285" lon="8.94292253174998"><ele>189.5</ele><time>2026-05-03T08:27:54Z</time></trkpt><trkpt lat="40.82789545381838" lon="8.942996575916437"><ele>191.25</ele><time>2026-05-03T08:27:55Z</time></trkpt><trkpt lat="40.82775943957365" lon="8.943006687041214"><ele>193.0</ele><time>2026-05-03T08:27:56Z</time></trkpt><trkpt lat="40.827599735331546" lon="8.943003444749323"><ele>193.0</ele><time>2026-05-03T08:27:57Z</time></trkpt><trkpt lat="40.827456007294614" lon="8.943024868051301"><ele>193.0</ele><time>2026-05-03T08:27:58Z</time></trkpt><trkpt lat="40.82733764597978" lon="8.943098940162981"><ele>193.0</ele><time>2026-05-03T08:27:59Z</time></trkpt><trkpt lat="40.82724042498562" lon="8.943228960857201"><ele>193.0</ele><time>2026-05-03T08:28:00Z</time></trkpt><trkpt lat="40.827169491611265" lon="8.943412858419006"><ele>200.66666666666666</ele><time>2026-05-03T08:28:01Z</time></trkpt><trkpt lat="40.827084881895495" lon="8.94361797856314"><ele>208.33333333333331</ele><time>2026-05-03T08:28:02Z</time></trkpt><trkpt lat="40.826982097541595" lon="8.94383124890567"><ele>216.0</ele><time>2026-05-03T08:28:03Z</time></trkpt><trkpt lat="40.82686179534438" lon="8.944042866548891"><ele>210.66666666666669</ele><time>2026-05-03T08:28:04Z</time></trkpt><trkpt lat="40.82674551673333" lon="8.94422867765625"><ele>205.33333333333334</ele><time>2026-05-03T08:28:05Z</time></trkpt><trkpt lat="40.826631613768875" lon="8.94442107053056"><ele>200.0</ele><time>2026-05-03T08:28:06Z</time></trkpt><trkpt lat="40.826613801630415" lon="8.944639734547122"><ele>200.0</ele><time>2026-05-03T08:28:07Z</time></trkpt><trkpt lat="40.826552672899325" lon="8.944875475139346"><ele>200.0</ele><time>2026-05-03T08:28:08Z</time></trkpt><trkpt lat="40.82650288775478" lon="8.945124262966687"><ele>200.0</ele><time>2026-05-03T08:28:09Z</time></trkpt><trkpt lat="40.82646847595274" lon="8.94537064393034"><ele>201.0</ele><time>2026-05-03T08:28:10Z</time></trkpt><trkpt lat="40.82646426883168" lon="8.945599359655299"><ele>202.0</ele><time>2026-05-03T08:28:11Z</time></trkpt><trkpt lat="40.826461956989235" lon="8.945814587441216"><ele>203.0</ele><time>2026-05-03T08:28:12Z</time></trkpt><trkpt lat="40.826452570972165" lon="8.946020120825624"><ele>203.25</ele><time>2026-05-03T08:28:13Z</time></trkpt><trkpt lat="40.82642403913495" lon="8.946205503682165"><ele>203.5</ele><time>2026-05-03T08:28:14Z</time></trkpt><trkpt lat="40.82637539483164" lon="8.946375262797192"><ele>203.75</ele><time>2026-05-03T08:28:15Z</time></trkpt><trkpt lat="40.82629123257461" lon="8.946517296219943"><ele>204.0</ele><time>2026-05-03T08:28:16Z</time></trkpt><trkpt lat="40.82617372092504" lon="8.946624922698104"><ele>204.0</ele><time>2026-05-03T08:28:17Z</time></trkpt><trkpt lat="40.82604553822112" lon="8.946700352401548"><ele>204.0</ele><time>2026-05-03T08:28:18Z</time></trkpt><trkpt lat="40.82592655308008" lon="8.946727827998672"><ele>204.0</ele><time>2026-05-03T08:28:19Z</time></trkpt><trkpt lat="40.82580579731321" lon="8.94669035316313"><ele>204.0</ele><time>2026-05-03T08:28:20Z</time></trkpt><trkpt lat="40.82568404292034" lon="8.946600249073297"><ele>202.0</ele><time>2026-05-03T08:28:21Z</time></trkpt><trkpt lat="40.82554830613057" lon="8.946507408146553"><ele>200.0</ele><time>2026-05-03T08:28:22Z</time></trkpt><trkpt lat="40.825396278030524" lon="8.946423632216785"><ele>198.0</ele><time>2026-05-03T08:28:23Z</time></trkpt><trkpt lat="40.82522180197282" lon="8.946371474342909"><ele>197.66666666666669</ele><time>2026-05-03T08:28:24Z</time></trkpt><trkpt lat="40.82503364839277" lon="8.946357049833319"><ele>197.33333333333334</ele><time>2026-05-03T08:28:25Z</time></trkpt><trkpt lat="40.82484610043394" lon="8.946381906479008"><ele>197.0</ele><time>2026-05-03T08:28:26Z</time></trkpt><trkpt lat="40.82466702063619" lon="8.94640849937697"><ele>197.0</ele><time>2026-05-03T08:28:27Z</time></trkpt><trkpt lat="40.82449446768536" lon="8.94639208604809"><ele>197.0</ele><time>2026-05-03T08:28:28Z</time></trkpt><trkpt lat="40.82431428228308" lon="8.946413423292679"><ele>197.0</ele><time>2026-05-03T08:28:29Z</time></trkpt><trkpt lat="40.82413581594147" lon="8.946444947324512"><ele>194.33333333333334</ele><time>2026-05-03T08:28:30Z</time></trkpt><trkpt lat="40.82395752557481" lon="8.946494589383738"><ele>191.66666666666669</ele><time>2026-05-03T08:28:31Z</time></trkpt><trkpt lat="40.82378234194169" lon="8.94657949442146"><ele>189.0</ele><time>2026-05-03T08:28:32Z</time></trkpt><trkpt lat="40.823609388519415" lon="8.946685891147343"><ele>189.33333333333334</ele><time>2026-05-03T08:28:33Z</time></trkpt><trkpt lat="40.8234524342543" lon="8.946789255256393"><ele>189.66666666666669</ele><time>2026-05-03T08:28:34Z</time></trkpt><trkpt lat="40.82330616884828" lon="8.946865978780439"><ele>190.0</ele><time>2026-05-03T08:28:35Z</time></trkpt><trkpt lat="40.823157641873394" lon="8.946910994832566"><ele>190.0</ele><time>2026-05-03T08:28:36Z</time></trkpt><trkpt lat="40.82300917403133" lon="8.946927177508927"><ele>190.0</ele><time>2026-05-03T08:28:37Z</time></trkpt><trkpt lat="40.822868990960224" lon="8.946914613835627"><ele>190.0</ele><time>2026-05-03T08:28:38Z</time></trkpt><trkpt lat="40.82273572291316" lon="8.946887123621398"><ele>190.0</ele><time>2026-05-03T08:28:39Z</time></trkpt><trkpt lat="40.82262890235377" lon="8.946869607336659"><ele>191.0</ele><time>2026-05-03T08:28:40Z</time></trkpt><trkpt lat="40.8225398491614" lon="8.946844960487315"><ele>192.0</ele><time>2026-05-03T08:28:42Z</time></trkpt><trkpt lat="40.822466241475155" lon="8.94679923871886"><ele>193.0</ele><time>2026-05-03T08:28:45Z</time></trkpt><trkpt lat="40.822408352094165" lon="8.946696355860203"><ele>194.0</ele><time>2026-05-03T08:28:48Z</time></trkpt><trkpt lat="40.82237418495982" lon="8.946553065453271"><ele>195.0</ele><time>2026-05-03T08:28:50Z</time></trkpt><trkpt lat="40.8223897191947" lon="8.946458669394872"><ele>195.6</ele><time>2026-05-03T08:28:51Z</time></trkpt><trkpt lat="40.82244294815379" lon="8.946360240028273"><ele>196.2</ele><time>2026-05-03T08:28:52Z</time></trkpt><trkpt lat="40.82253211847545" lon="8.946292490285696"><ele>196.8</ele><time>2026-05-03T08:28:53Z</time></trkpt><trkpt lat="40.82263738071235" lon="8.946296437569133"><ele>197.4</ele><time>2026-05-03T08:28:54Z</time></trkpt><trkpt lat="40.8227241602021" lon="8.946335065315003"><ele>198.0</ele><time>2026-05-03T08:28:55Z</time></trkpt><trkpt lat="40.822797658448366" lon="8.946349356356432"><ele>198.0</ele><time>2026-05-03T08:28:56Z</time></trkpt><trkpt lat="40.82289440956987" lon="8.94637989537203"><ele>198.0</ele><time>2026-05-03T08:28:58Z</time></trkpt><trkpt lat="40.82296494868094" lon="8.946392094393854"><ele>198.0</ele><time>2026-05-03T08:29:00Z</time></trkpt><trkpt lat="40.82305126894067" lon="8.946397013903702"><ele>198.0</ele><time>2026-05-03T08:29:02Z</time></trkpt><trkpt lat="40.822982174156294" lon="8.946361551334187"><ele>198.0</ele><time>2026-05-03T08:29:10Z</time></trkpt><trkpt lat="40.8228871274303" lon="8.946337978799361"><ele>198.0</ele><time>2026-05-03T08:29:11Z</time></trkpt><trkpt lat="40.822802810083196" lon="8.946341664620043"><ele>198.0</ele><time>2026-05-03T08:29:12Z</time></trkpt><trkpt lat="40.822686425981864" lon="8.94632566425358"><ele>198.0</ele><time>2026-05-03T08:29:13Z</time></trkpt><trkpt lat="40.82257247498265" lon="8.94629643230139"><ele>198.0</ele><time>2026-05-03T08:29:14Z</time></trkpt><trkpt lat="40.822462299731" lon="8.946305988403473"><ele>198.0</ele><time>2026-05-03T08:29:15Z</time></trkpt><trkpt lat="40.822378624330426" lon="8.946396170987667"><ele>197.4</ele><time>2026-05-03T08:29:16Z</time></trkpt><trkpt lat="40.82234726902178" lon="8.946522786425513"><ele>196.8</ele><time>2026-05-03T08:29:17Z</time></trkpt><trkpt lat="40.822357865498" lon="8.946677666555972"><ele>196.2</ele><time>2026-05-03T08:29:18Z</time></trkpt><trkpt lat="40.82239749373728" lon="8.946812531396796"><ele>195.6</ele><time>2026-05-03T08:29:19Z</time></trkpt><trkpt lat="40.82250042333449" lon="8.946890438927614"><ele>195.0</ele><time>2026-05-03T08:29:20Z</time></trkpt><trkpt lat="40.82261554156696" lon="8.946925356358902"><ele>194.0</ele><time>2026-05-03T08:29:21Z</time></trkpt><trkpt lat="40.82273591792256" lon="8.946914422723998"><ele>193.0</ele><time>2026-05-03T08:29:22Z</time></trkpt><trkpt lat="40.8228386825651" lon="8.946917029685908"><ele>192.0</ele><time>2026-05-03T08:29:23Z</time></trkpt><trkpt lat="40.822925204467374" lon="8.946925146740906"><ele>191.0</ele><time>2026-05-03T08:29:24Z</time></trkpt><trkpt lat="40.82299895480774" lon="8.946927846352352"><ele>190.0</ele><time>2026-05-03T08:29:25Z</time></trkpt><trkpt lat="40.82310267656107" lon="8.946923557969203"><ele>190.0</ele><time>2026-05-03T08:29:27Z</time></trkpt><trkpt lat="40.823056010356545" lon="8.94701356023041"><ele>190.0</ele><time>2026-05-03T08:29:32Z</time></trkpt><trkpt lat="40.82298060015009" lon="8.947089776061432"><ele>190.0</ele><time>2026-05-03T08:29:33Z</time></trkpt><trkpt lat="40.82290112876181" lon="8.947175942927828"><ele>190.0</ele><time>2026-05-03T08:29:34Z</time></trkpt><trkpt lat="40.82282880305391" lon="8.947267466245819"><ele>190.0</ele><time>2026-05-03T08:29:35Z</time></trkpt><trkpt lat="40.82275701077302" lon="8.947371771778892"><ele>190.0</ele><time>2026-05-03T08:29:36Z</time></trkpt><trkpt lat="40.82269321314779" lon="8.947481741814512"><ele>190.0</ele><time>2026-05-03T08:29:37Z</time></trkpt><trkpt lat="40.82263953262223" lon="8.947577316426662"><ele>190.0</ele><time>2026-05-03T08:29:38Z</time></trkpt><trkpt lat="40.8225937149803" lon="8.947662305412926"><ele>190.0</ele><time>2026-05-03T08:29:39Z</time></trkpt><trkpt lat="40.82255184990175" lon="8.947740178538448"><ele>190.0</ele><time>2026-05-03T08:29:40Z</time></trkpt><trkpt lat="40.82251567179486" lon="8.947809124738711"><ele>190.0</ele><time>2026-05-03T08:29:41Z</time></trkpt><trkpt lat="40.8223999386186" lon="8.947900849734278"><ele>193.4</ele><time>2026-05-03T08:29:43Z</time></trkpt><trkpt lat="40.82231498757823" lon="8.947919991453135"><ele>196.8</ele><time>2026-05-03T08:29:44Z</time></trkpt><trkpt lat="40.82221842062688" lon="8.947936899483906"><ele>200.2</ele><time>2026-05-03T08:29:45Z</time></trkpt><trkpt lat="40.82211844059514" lon="8.947928601362799"><ele>203.6</ele><time>2026-05-03T08:29:46Z</time></trkpt><trkpt lat="40.82201957681419" lon="8.947921462969303"><ele>207.0</ele><time>2026-05-03T08:29:47Z</time></trkpt><trkpt lat="40.82191986707989" lon="8.947928195739122"><ele>207.0</ele><time>2026-05-03T08:29:48Z</time></trkpt><trkpt lat="40.82181944917065" lon="8.947938001613771"><ele>207.0</ele><time>2026-05-03T08:29:49Z</time></trkpt><trkpt lat="40.82172751637238" lon="8.947989551073702"><ele>207.0</ele><time>2026-05-03T08:29:50Z</time></trkpt><trkpt lat="40.82166444257095" lon="8.9480993892084"><ele>207.0</ele><time>2026-05-03T08:29:51Z</time></trkpt><trkpt lat="40.82162989202918" lon="8.948200610319006"><ele>207.0</ele><time>2026-05-03T08:29:52Z</time></trkpt><trkpt lat="40.82163273404259" lon="8.948302727953841"><ele>208.5</ele><time>2026-05-03T08:29:53Z</time></trkpt><trkpt lat="40.82167006346754" lon="8.948408189299753"><ele>210.0</ele><time>2026-05-03T08:29:54Z</time></trkpt><trkpt lat="40.821719016431466" lon="8.948504942993578"><ele>211.5</ele><time>2026-05-03T08:29:55Z</time></trkpt><trkpt lat="40.82178694706125" lon="8.94856759311483"><ele>213.0</ele><time>2026-05-03T08:29:56Z</time></trkpt><trkpt lat="40.82186118818798" lon="8.948620371736741"><ele>214.5</ele><time>2026-05-03T08:29:57Z</time></trkpt><trkpt lat="40.8219571545429" lon="8.94859860691837"><ele>216.0</ele><time>2026-05-03T08:29:58Z</time></trkpt><trkpt lat="40.8220442975099" lon="8.94855035889134"><ele>214.20000000000002</ele><time>2026-05-03T08:29:59Z</time></trkpt><trkpt lat="40.82212179442843" lon="8.948468876514832"><ele>212.40000000000003</ele><time>2026-05-03T08:30:00Z</time></trkpt><trkpt lat="40.822192465408285" lon="8.948376174127178"><ele>210.6</ele><time>2026-05-03T08:30:01Z</time></trkpt><trkpt lat="40.822275043337534" lon="8.948307352764775"><ele>208.8</ele><time>2026-05-03T08:30:02Z</time></trkpt><trkpt lat="40.822355010127254" lon="8.94828072387027"><ele>207.0</ele><time>2026-05-03T08:30:03Z</time></trkpt><trkpt lat="40.82242508287364" lon="8.948294329043671"><ele>207.0</ele><time>2026-05-03T08:30:04Z</time></trkpt><trkpt lat="40.822495169859835" lon="8.948363451164843"><ele>207.0</ele><time>2026-05-03T08:30:05Z</time></trkpt><trkpt lat="40.82256160533158" lon="8.948445602749208"><ele>207.0</ele><time>2026-05-03T08:30:06Z</time></trkpt><trkpt lat="40.82261663000476" lon="8.948536771588856"><ele>207.0</ele><time>2026-05-03T08:30:07Z</time></trkpt><trkpt lat="40.82268063462049" lon="8.948638380826386"><ele>207.0</ele><time>2026-05-03T08:30:08Z</time></trkpt><trkpt lat="40.82276093262155" lon="8.948724817372408"><ele>214.0</ele><time>2026-05-03T08:30:09Z</time></trkpt><trkpt lat="40.82284045850481" lon="8.948820685836465"><ele>221.0</ele><time>2026-05-03T08:30:10Z</time></trkpt><trkpt lat="40.822937927635884" lon="8.948887698726361"><ele>228.0</ele><time>2026-05-03T08:30:11Z</time></trkpt><trkpt lat="40.82305654669734" lon="8.94891364861837"><ele>235.0</ele><time>2026-05-03T08:30:12Z</time></trkpt><trkpt lat="40.82318730090443" lon="8.94890206903399"><ele>235.0</ele><time>2026-05-03T08:30:13Z</time></trkpt><trkpt lat="40.823326000503485" lon="8.948872027321839"><ele>235.0</ele><time>2026-05-03T08:30:14Z</time></trkpt><trkpt lat="40.823473049510405" lon="8.948842274434535"><ele>235.0</ele><time>2026-05-03T08:30:15Z</time></trkpt><trkpt lat="40.82363402118133" lon="8.94885594758591"><ele>235.75</ele><time>2026-05-03T08:30:16Z</time></trkpt><trkpt lat="40.82378328065611" lon="8.9488686613255"><ele>236.5</ele><time>2026-05-03T08:30:17Z</time></trkpt><trkpt lat="40.82390467729287" lon="8.94886686380632"><ele>237.25</ele><time>2026-05-03T08:30:18Z</time></trkpt><trkpt lat="40.82401924181128" lon="8.94889709175519"><ele>238.0</ele><time>2026-05-03T08:30:19Z</time></trkpt><trkpt lat="40.824145305971555" lon="8.948939402551083"><ele>238.0</ele><time>2026-05-03T08:30:20Z</time></trkpt><trkpt lat="40.82428542205288" lon="8.948992560331437"><ele>238.0</ele><time>2026-05-03T08:30:21Z</time></trkpt><trkpt lat="40.82443081927846" lon="8.94904904129249"><ele>238.0</ele><time>2026-05-03T08:30:22Z</time></trkpt><trkpt lat="40.82458160998984" lon="8.949107595587638"><ele>238.75</ele><time>2026-05-03T08:30:23Z</time></trkpt><trkpt lat="40.82473570746261" lon="8.94916604061532"><ele>239.5</ele><time>2026-05-03T08:30:24Z</time></trkpt><trkpt lat="40.824867815714846" lon="8.949213241079523"><ele>240.25</ele><time>2026-05-03T08:30:25Z</time></trkpt><trkpt lat="40.82498156568194" lon="8.949233892700695"><ele>241.0</ele><time>2026-05-03T08:30:26Z</time></trkpt><trkpt lat="40.82509395385793" lon="8.949217290434152"><ele>243.5</ele><time>2026-05-03T08:30:27Z</time></trkpt><trkpt lat="40.825206907324215" lon="8.949167930339842"><ele>246.0</ele><time>2026-05-03T08:30:28Z</time></trkpt><trkpt lat="40.825330917718404" lon="8.949100762564816"><ele>248.5</ele><time>2026-05-03T08:30:29Z</time></trkpt><trkpt lat="40.82545841791357" lon="8.949006228047475"><ele>251.0</ele><time>2026-05-03T08:30:30Z</time></trkpt><trkpt lat="40.82558170142509" lon="8.948883899181682"><ele>251.0</ele><time>2026-05-03T08:30:31Z</time></trkpt><trkpt lat="40.82568371522242" lon="8.948748043199979"><ele>251.0</ele><time>2026-05-03T08:30:32Z</time></trkpt><trkpt lat="40.82576908471124" lon="8.948611235495155"><ele>251.0</ele><time>2026-05-03T08:30:33Z</time></trkpt><trkpt lat="40.825849708365716" lon="8.94853231594077"><ele>251.0</ele><time>2026-05-03T08:30:34Z</time></trkpt><trkpt lat="40.825941725028606" lon="8.948542755022945"><ele>251.4</ele><time>2026-05-03T08:30:35Z</time></trkpt><trkpt lat="40.82602288921267" lon="8.948530082996974"><ele>251.8</ele><time>2026-05-03T08:30:36Z</time></trkpt><trkpt lat="40.8260924343362" lon="8.948630515519342"><ele>252.20000000000002</ele><time>2026-05-03T08:30:37Z</time></trkpt><trkpt lat="40.82614512081406" lon="8.948729297797394"><ele>252.60000000000002</ele><time>2026-05-03T08:30:38Z</time></trkpt><trkpt lat="40.82617584295692" lon="8.948857148689344"><ele>253.0</ele><time>2026-05-03T08:30:39Z</time></trkpt><trkpt lat="40.82621636524037" lon="8.949013519034644"><ele>253.0</ele><time>2026-05-03T08:30:40Z</time></trkpt><trkpt lat="40.826283203827565" lon="8.949168582595489"><ele>253.0</ele><time>2026-05-03T08:30:41Z</time></trkpt><trkpt lat="40.826334766466736" lon="8.949319058235844"><ele>253.0</ele><time>2026-05-03T08:30:42Z</time></trkpt><trkpt lat="40.8264101286115" lon="8.949436481223598"><ele>253.0</ele><time>2026-05-03T08:30:43Z</time></trkpt><trkpt lat="40.82651154834819" lon="8.949528500266617"><ele>255.75</ele><time>2026-05-03T08:30:44Z</time></trkpt><trkpt lat="40.82662744337957" lon="8.949595775533243"><ele>258.5</ele><time>2026-05-03T08:30:45Z</time></trkpt><trkpt lat="40.82675608803263" lon="8.949672718446712"><ele>261.25</ele><time>2026-05-03T08:30:46Z</time></trkpt><trkpt lat="40.82689352026415" lon="8.949769226912831"><ele>264.0</ele><time>2026-05-03T08:30:47Z</time></trkpt><trkpt lat="40.8270403546496" lon="8.949879211691977"><ele>264.0</ele><time>2026-05-03T08:30:48Z</time></trkpt><trkpt lat="40.82718479625479" lon="8.94998508361727"><ele>264.0</ele><time>2026-05-03T08:30:49Z</time></trkpt><trkpt lat="40.82730607299615" lon="8.950080467806405"><ele>264.0</ele><time>2026-05-03T08:30:50Z</time></trkpt><trkpt lat="40.827386455309615" lon="8.950160836204436"><ele>264.0</ele><time>2026-05-03T08:30:51Z</time></trkpt><trkpt lat="40.82741418954415" lon="8.950299810095482"><ele>264.0</ele><time>2026-05-03T08:30:53Z</time></trkpt><trkpt lat="40.82732659123013" lon="8.950373674679392"><ele>264.0</ele><time>2026-05-03T08:30:55Z</time></trkpt><trkpt lat="40.82726693448224" lon="8.950403639543497"><ele>264.0</ele><time>2026-05-03T08:30:56Z</time></trkpt><trkpt lat="40.827184127434705" lon="8.950472946096351"><ele>264.0</ele><time>2026-05-03T08:30:57Z</time></trkpt><trkpt lat="40.82708801746887" lon="8.950556397449743"><ele>264.0</ele><time>2026-05-03T08:30:58Z</time></trkpt><trkpt lat="40.82698238241099" lon="8.950648688612"><ele>264.0</ele><time>2026-05-03T08:30:59Z</time></trkpt><trkpt lat="40.826868912756986" lon="8.950756880447717"><ele>264.0</ele><time>2026-05-03T08:31:00Z</time></trkpt><trkpt lat="40.82675693489194" lon="8.950873256472535"><ele>264.0</ele><time>2026-05-03T08:31:01Z</time></trkpt><trkpt lat="40.82666515498108" lon="8.951033182109866"><ele>264.0</ele><time>2026-05-03T08:31:02Z</time></trkpt><trkpt lat="40.82659745849876" lon="8.951211460025162"><ele>264.3333333333333</ele><time>2026-05-03T08:31:03Z</time></trkpt><trkpt lat="40.82650345970586" lon="8.951372253449804"><ele>264.66666666666663</ele><time>2026-05-03T08:31:04Z</time></trkpt><trkpt lat="40.82642350020282" lon="8.951547940539937"><ele>265.0</ele><time>2026-05-03T08:31:05Z</time></trkpt><trkpt lat="40.82634277199162" lon="8.951726888055154"><ele>265.0</ele><time>2026-05-03T08:31:06Z</time></trkpt><trkpt lat="40.8262593790155" lon="8.95190272992692"><ele>265.0</ele><time>2026-05-03T08:31:07Z</time></trkpt><trkpt lat="40.82617281868906" lon="8.95208116311632"><ele>265.0</ele><time>2026-05-03T08:31:08Z</time></trkpt><trkpt lat="40.826086220816435" lon="8.952263089004171"><ele>265.0</ele><time>2026-05-03T08:31:09Z</time></trkpt><trkpt lat="40.8260008526506" lon="8.952452429459779"><ele>265.0</ele><time>2026-05-03T08:31:10Z</time></trkpt><trkpt lat="40.825933755869336" lon="8.952642524597723"><ele>265.0</ele><time>2026-05-03T08:31:11Z</time></trkpt><trkpt lat="40.82588924898293" lon="8.952797301847813"><ele>268.8333333333333</ele><time>2026-05-03T08:31:12Z</time></trkpt><trkpt lat="40.82585425757505" lon="8.95288919706562"><ele>272.66666666666663</ele><time>2026-05-03T08:31:13Z</time></trkpt><trkpt lat="40.82577726402949" lon="8.952911638325991"><ele>276.5</ele><time>2026-05-03T08:31:15Z</time></trkpt><trkpt lat="40.825727204796976" lon="8.952834175620632"><ele>280.3333333333333</ele><time>2026-05-03T08:31:16Z</time></trkpt><trkpt lat="40.82566789114764" lon="8.952737763229425"><ele>284.1666666666667</ele><time>2026-05-03T08:31:17Z</time></trkpt><trkpt lat="40.82557790874527" lon="8.952634702229457"><ele>288.0</ele><time>2026-05-03T08:31:18Z</time></trkpt><trkpt lat="40.82548705708888" lon="8.952533996338344"><ele>288.2</ele><time>2026-05-03T08:31:19Z</time></trkpt><trkpt lat="40.825398498115256" lon="8.95243673622947"><ele>288.4</ele><time>2026-05-03T08:31:20Z</time></trkpt><trkpt lat="40.82530989249249" lon="8.952401244321614"><ele>288.59999999999997</ele><time>2026-05-03T08:31:21Z</time></trkpt><trkpt lat="40.825216001545904" lon="8.952406949020117"><ele>288.8</ele><time>2026-05-03T08:31:22Z</time></trkpt><trkpt lat="40.825140455254996" lon="8.952479945727037"><ele>289.0</ele><time>2026-05-03T08:31:23Z</time></trkpt><trkpt lat="40.82506883301853" lon="8.952585348166254"><ele>292.25</ele><time>2026-05-03T08:31:24Z</time></trkpt><trkpt lat="40.82497611990647" lon="8.952676448556476"><ele>295.5</ele><time>2026-05-03T08:31:25Z</time></trkpt><trkpt lat="40.82491247388672" lon="8.95278188960819"><ele>298.75</ele><time>2026-05-03T08:31:26Z</time></trkpt><trkpt lat="40.824784954668495" lon="8.952857419793927"><ele>302.0</ele><time>2026-05-03T08:31:27Z</time></trkpt><trkpt lat="40.82466222799894" lon="8.952934517785916"><ele>302.0</ele><time>2026-05-03T08:31:28Z</time></trkpt><trkpt lat="40.824545889241904" lon="8.953005961960407"><ele>302.0</ele><time>2026-05-03T08:31:29Z</time></trkpt><trkpt lat="40.82445576883533" lon="8.95309751787955"><ele>302.0</ele><time>2026-05-03T08:31:30Z</time></trkpt><trkpt lat="40.824380897574706" lon="8.95320623130371"><ele>302.0</ele><time>2026-05-03T08:31:31Z</time></trkpt><trkpt lat="40.82431945881778" lon="8.9533609853797"><ele>303.0</ele><time>2026-05-03T08:31:32Z</time></trkpt><trkpt lat="40.824249312248085" lon="8.953535666108456"><ele>304.0</ele><time>2026-05-03T08:31:33Z</time></trkpt><trkpt lat="40.824179431214056" lon="8.953714050562022"><ele>305.0</ele><time>2026-05-03T08:31:34Z</time></trkpt><trkpt lat="40.824113287533685" lon="8.953873446743094"><ele>306.0</ele><time>2026-05-03T08:31:35Z</time></trkpt><trkpt lat="40.82404247847531" lon="8.954019684492081"><ele>306.0</ele><time>2026-05-03T08:31:36Z</time></trkpt><trkpt lat="40.82397110685991" lon="8.954168898040669"><ele>306.0</ele><time>2026-05-03T08:31:37Z</time></trkpt><trkpt lat="40.82388995691163" lon="8.95431038588309"><ele>306.0</ele><time>2026-05-03T08:31:38Z</time></trkpt><trkpt lat="40.82381006911312" lon="8.954455302690475"><ele>306.0</ele><time>2026-05-03T08:31:39Z</time></trkpt><trkpt lat="40.82372493624856" lon="8.954597089469722"><ele>307.5</ele><time>2026-05-03T08:31:40Z</time></trkpt><trkpt lat="40.82363322948323" lon="8.95472789661096"><ele>309.0</ele><time>2026-05-03T08:31:41Z</time></trkpt><trkpt lat="40.82354298552267" lon="8.954857657922586"><ele>310.5</ele><time>2026-05-03T08:31:42Z</time></trkpt><trkpt lat="40.82344119717012" lon="8.954971309485384"><ele>312.0</ele><time>2026-05-03T08:31:43Z</time></trkpt><trkpt lat="40.82332769995599" lon="8.955048928854088"><ele>315.25</ele><time>2026-05-03T08:31:44Z</time></trkpt><trkpt lat="40.823207080834315" lon="8.955130830741037"><ele>318.5</ele><time>2026-05-03T08:31:45Z</time></trkpt><trkpt lat="40.82308407516052" lon="8.955192551352601"><ele>321.75</ele><time>2026-05-03T08:31:46Z</time></trkpt><trkpt lat="40.82295812292392" lon="8.955235621378318"><ele>325.0</ele><time>2026-05-03T08:31:47Z</time></trkpt><trkpt lat="40.822849492958305" lon="8.955256071958088"><ele>325.0</ele><time>2026-05-03T08:31:48Z</time></trkpt><trkpt lat="40.82274433906432" lon="8.95526570671853"><ele>325.0</ele><time>2026-05-03T08:31:49Z</time></trkpt><trkpt lat="40.82264436751867" lon="8.955281110892313"><ele>325.0</ele><time>2026-05-03T08:31:50Z</time></trkpt><trkpt lat="40.82255051180158" lon="8.955317851081157"><ele>325.0</ele><time>2026-05-03T08:31:51Z</time></trkpt><trkpt lat="40.822473148797464" lon="8.95540518140646"><ele>325.0</ele><time>2026-05-03T08:31:52Z</time></trkpt><trkpt lat="40.82239434226082" lon="8.955488257382354"><ele>324.75</ele><time>2026-05-03T08:31:53Z</time></trkpt><trkpt lat="40.82232027971387" lon="8.955588319044631"><ele>324.5</ele><time>2026-05-03T08:31:54Z</time></trkpt><trkpt lat="40.82223101237108" lon="8.955686096543866"><ele>324.25</ele><time>2026-05-03T08:31:55Z</time></trkpt><trkpt lat="40.82214971922329" lon="8.95580300107872"><ele>324.0</ele><time>2026-05-03T08:31:56Z</time></trkpt><trkpt lat="40.82206584358103" lon="8.955940481325857"><ele>324.0</ele><time>2026-05-03T08:31:57Z</time></trkpt><trkpt lat="40.82199952100752" lon="8.956115705213357"><ele>324.0</ele><time>2026-05-03T08:31:58Z</time></trkpt><trkpt lat="40.821950854167966" lon="8.95630351432388"><ele>324.0</ele><time>2026-05-03T08:31:59Z</time></trkpt><trkpt lat="40.82187312336151" lon="8.956466924495894"><ele>324.0</ele><time>2026-05-03T08:32:00Z</time></trkpt><trkpt lat="40.82175456334554" lon="8.956579395309038"><ele>324.25</ele><time>2026-05-03T08:32:01Z</time></trkpt><trkpt lat="40.821657023255234" lon="8.95672533290381"><ele>324.5</ele><time>2026-05-03T08:32:02Z</time></trkpt><trkpt lat="40.821576549595974" lon="8.956877628874542"><ele>324.75</ele><time>2026-05-03T08:32:03Z</time></trkpt><trkpt lat="40.82149968545268" lon="8.957027841212557"><ele>325.0</ele><time>2026-05-03T08:32:04Z</time></trkpt><trkpt lat="40.82141076669338" lon="8.957156370206583"><ele>325.0</ele><time>2026-05-03T08:32:05Z</time></trkpt><trkpt lat="40.82132564942744" lon="8.957266593828196"><ele>325.0</ele><time>2026-05-03T08:32:06Z</time></trkpt><trkpt lat="40.821258073001744" lon="8.957369880514982"><ele>325.0</ele><time>2026-05-03T08:32:07Z</time></trkpt><trkpt lat="40.82125375568077" lon="8.95748752711301"><ele>325.0</ele><time>2026-05-03T08:32:08Z</time></trkpt><trkpt lat="40.82127499213449" lon="8.957586757298436"><ele>325.0</ele><time>2026-05-03T08:32:09Z</time></trkpt><trkpt lat="40.821321274791174" lon="8.957678417685926"><ele>325.3333333333333</ele><time>2026-05-03T08:32:10Z</time></trkpt><trkpt lat="40.82137974057827" lon="8.957782861546763"><ele>325.66666666666663</ele><time>2026-05-03T08:32:11Z</time></trkpt><trkpt lat="40.82140961834501" lon="8.957911267713367"><ele>326.0</ele><time>2026-05-03T08:32:12Z</time></trkpt><trkpt lat="40.82142690915083" lon="8.95802240149402"><ele>326.3333333333333</ele><time>2026-05-03T08:32:13Z</time></trkpt><trkpt lat="40.82142484179106" lon="8.958122840075434"><ele>326.6666666666667</ele><time>2026-05-03T08:32:14Z</time></trkpt><trkpt lat="40.821382089127" lon="8.958186401665888"><ele>327.0</ele><time>2026-05-03T08:32:15Z</time></trkpt><trkpt lat="40.82127223584126" lon="8.958132937216742"><ele>327.0</ele><time>2026-05-03T08:32:17Z</time></trkpt><trkpt lat="40.82120744589189" lon="8.958072812923856"><ele>327.0</ele><time>2026-05-03T08:32:18Z</time></trkpt><trkpt lat="40.82111630181123" lon="8.958023538913572"><ele>327.0</ele><time>2026-05-03T08:32:19Z</time></trkpt><trkpt lat="40.821019203986424" lon="8.958008547875625"><ele>327.0</ele><time>2026-05-03T08:32:20Z</time></trkpt><trkpt lat="40.82093241970759" lon="8.958039028979863"><ele>327.0</ele><time>2026-05-03T08:32:21Z</time></trkpt><trkpt lat="40.82086387744122" lon="8.958119842004198"><ele>330.5</ele><time>2026-05-03T08:32:22Z</time></trkpt><trkpt lat="40.8208127990027" lon="8.95824030495126"><ele>334.0</ele><time>2026-05-03T08:32:23Z</time></trkpt><trkpt lat="40.82073045861271" lon="8.958358648035166"><ele>337.5</ele><time>2026-05-03T08:32:24Z</time></trkpt><trkpt lat="40.82064914739319" lon="8.958474590590438"><ele>341.0</ele><time>2026-05-03T08:32:25Z</time></trkpt><trkpt lat="40.82055904506976" lon="8.9585832189502"><ele>343.25</ele><time>2026-05-03T08:32:26Z</time></trkpt><trkpt lat="40.820475955725314" lon="8.95871369016018"><ele>345.5</ele><time>2026-05-03T08:32:27Z</time></trkpt><trkpt lat="40.82036062042184" lon="8.958814136120205"><ele>347.75</ele><time>2026-05-03T08:32:28Z</time></trkpt><trkpt lat="40.82024418274671" lon="8.958917611690262"><ele>350.0</ele><time>2026-05-03T08:32:29Z</time></trkpt><trkpt lat="40.820115522542785" lon="8.959001435957166"><ele>354.0</ele><time>2026-05-03T08:32:30Z</time></trkpt><trkpt lat="40.81997250232402" lon="8.959070783255303"><ele>358.0</ele><time>2026-05-03T08:32:31Z</time></trkpt><trkpt lat="40.81982198523455" lon="8.959118162667737"><ele>362.0</ele><time>2026-05-03T08:32:32Z</time></trkpt><trkpt lat="40.81966962107092" lon="8.959162043554015"><ele>364.5</ele><time>2026-05-03T08:32:33Z</time></trkpt><trkpt lat="40.81953727656663" lon="8.95920251507162"><ele>367.0</ele><time>2026-05-03T08:32:34Z</time></trkpt><trkpt lat="40.81941772183473" lon="8.959242270636395"><ele>369.5</ele><time>2026-05-03T08:32:35Z</time></trkpt><trkpt lat="40.81929299344109" lon="8.959293567388364"><ele>372.0</ele><time>2026-05-03T08:32:36Z</time></trkpt><trkpt lat="40.81916669298254" lon="8.95935328906382"><ele>374.40000000000003</ele><time>2026-05-03T08:32:37Z</time></trkpt><trkpt lat="40.8190403353089" lon="8.959416093652237"><ele>376.8</ele><time>2026-05-03T08:32:38Z</time></trkpt><trkpt lat="40.8189424542289" lon="8.959488096824275"><ele>379.2</ele><time>2026-05-03T08:32:39Z</time></trkpt><trkpt lat="40.81887065939416" lon="8.95954204446108"><ele>381.6</ele><time>2026-05-03T08:32:40Z</time></trkpt><trkpt lat="40.818811103535275" lon="8.959638207527789"><ele>384.0</ele><time>2026-05-03T08:32:42Z</time></trkpt><trkpt lat="40.818864019254285" lon="8.959727528618215"><ele>384.0</ele><time>2026-05-03T08:32:43Z</time></trkpt><trkpt lat="40.818917281945474" lon="8.9598037349404"><ele>384.0</ele><time>2026-05-03T08:32:44Z</time></trkpt><trkpt lat="40.818959402150114" lon="8.959901137788417"><ele>384.0</ele><time>2026-05-03T08:32:45Z</time></trkpt><trkpt lat="40.81901132903268" lon="8.959991113367334"><ele>384.0</ele><time>2026-05-03T08:32:46Z</time></trkpt><trkpt lat="40.81905407054055" lon="8.96008025841072"><ele>384.0</ele><time>2026-05-03T08:32:47Z</time></trkpt><trkpt lat="40.81907115571603" lon="8.960169721279003"><ele>384.0</ele><time>2026-05-03T08:32:48Z</time></trkpt><trkpt lat="40.819108750542135" lon="8.960245947583152"><ele>384.79999999999995</ele><time>2026-05-03T08:32:49Z</time></trkpt><trkpt lat="40.81914904367187" lon="8.96036703734664"><ele>385.59999999999997</ele><time>2026-05-03T08:32:51Z</time></trkpt><trkpt lat="40.81909801433462" lon="8.96048087438696"><ele>386.4</ele><time>2026-05-03T08:32:53Z</time></trkpt><trkpt lat="40.81899832510284" lon="8.96052995691244"><ele>387.2</ele><time>2026-05-03T08:32:55Z</time></trkpt><trkpt lat="40.818933463174766" lon="8.960520434141264"><ele>388.0</ele><time>2026-05-03T08:32:56Z</time></trkpt><trkpt lat="40.81885345280776" lon="8.960564260912214"><ele>388.0</ele><time>2026-05-03T08:32:57Z</time></trkpt><trkpt lat="40.818780141907226" lon="8.96064575175532"><ele>388.0</ele><time>2026-05-03T08:32:58Z</time></trkpt><trkpt lat="40.81869953418513" lon="8.960722509744434"><ele>388.0</ele><time>2026-05-03T08:32:59Z</time></trkpt><trkpt lat="40.81862591117235" lon="8.960801770652276"><ele>388.0</ele><time>2026-05-03T08:33:00Z</time></trkpt><trkpt lat="40.818565406682666" lon="8.960900199434834"><ele>388.0</ele><time>2026-05-03T08:33:01Z</time></trkpt><trkpt lat="40.81850467444388" lon="8.96100985605423"><ele>389.6666666666667</ele><time>2026-05-03T08:33:02Z</time></trkpt><trkpt lat="40.81845450894953" lon="8.96110562641922"><ele>391.33333333333337</ele><time>2026-05-03T08:33:03Z</time></trkpt><trkpt lat="40.81838487159874" lon="8.961169948989165"><ele>393.0</ele><time>2026-05-03T08:33:05Z</time></trkpt><trkpt lat="40.818350986745294" lon="8.961078247196932"><ele>394.66666666666663</ele><time>2026-05-03T08:33:07Z</time></trkpt><trkpt lat="40.81831380459366" lon="8.960997270941208"><ele>396.3333333333333</ele><time>2026-05-03T08:33:08Z</time></trkpt><trkpt lat="40.81825393580294" lon="8.96088907440928"><ele>398.0</ele><time>2026-05-03T08:33:09Z</time></trkpt><trkpt lat="40.818180567724774" lon="8.960775712022137"><ele>398.0</ele><time>2026-05-03T08:33:10Z</time></trkpt><trkpt lat="40.818088406683614" lon="8.9606810557278"><ele>398.0</ele><time>2026-05-03T08:33:11Z</time></trkpt><trkpt lat="40.8179919386923" lon="8.960631376648063"><ele>398.0</ele><time>2026-05-03T08:33:12Z</time></trkpt><trkpt lat="40.817882571462654" lon="8.960622452389405"><ele>398.0</ele><time>2026-05-03T08:33:13Z</time></trkpt><trkpt lat="40.81776373961146" lon="8.96062648786304"><ele>398.0</ele><time>2026-05-03T08:33:14Z</time></trkpt><trkpt lat="40.81763763707484" lon="8.96063962727507"><ele>399.75</ele><time>2026-05-03T08:33:15Z</time></trkpt><trkpt lat="40.817512013657044" lon="8.960664825372744"><ele>401.5</ele><time>2026-05-03T08:33:16Z</time></trkpt><trkpt lat="40.817390163033316" lon="8.960700284737397"><ele>403.25</ele><time>2026-05-03T08:33:17Z</time></trkpt><trkpt lat="40.81726510447925" lon="8.96073653820458"><ele>405.0</ele><time>2026-05-03T08:33:18Z</time></trkpt><trkpt lat="40.81714258629409" lon="8.96077205524286"><ele>405.0</ele><time>2026-05-03T08:33:19Z</time></trkpt><trkpt lat="40.81702270268072" lon="8.960812657942407"><ele>405.0</ele><time>2026-05-03T08:33:20Z</time></trkpt><trkpt lat="40.816910647042555" lon="8.960876803614594"><ele>405.0</ele><time>2026-05-03T08:33:21Z</time></trkpt><trkpt lat="40.816808663030464" lon="8.960946813462634"><ele>405.0</ele><time>2026-05-03T08:33:22Z</time></trkpt><trkpt lat="40.816712529704304" lon="8.961053979203331"><ele>407.8</ele><time>2026-05-03T08:33:23Z</time></trkpt><trkpt lat="40.816638001962886" lon="8.961157043431395"><ele>410.6</ele><time>2026-05-03T08:33:24Z</time></trkpt><trkpt lat="40.81656697980112" lon="8.961257269708197"><ele>413.4</ele><time>2026-05-03T08:33:25Z</time></trkpt><trkpt lat="40.81649345551473" lon="8.96134903369507"><ele>416.2</ele><time>2026-05-03T08:33:26Z</time></trkpt><trkpt lat="40.816416124566196" lon="8.96142980658808"><ele>419.0</ele><time>2026-05-03T08:33:27Z</time></trkpt><trkpt lat="40.81632374627575" lon="8.961509312324964"><ele>419.0</ele><time>2026-05-03T08:33:28Z</time></trkpt><trkpt lat="40.81621360884213" lon="8.961593445205004"><ele>419.0</ele><time>2026-05-03T08:33:29Z</time></trkpt><trkpt lat="40.81609430150326" lon="8.96167357252982"><ele>419.0</ele><time>2026-05-03T08:33:30Z</time></trkpt><trkpt lat="40.81596660093235" lon="8.961748078609677"><ele>419.0</ele><time>2026-05-03T08:33:31Z</time></trkpt><trkpt lat="40.81583631274463" lon="8.961810771153225"><ele>421.0</ele><time>2026-05-03T08:33:32Z</time></trkpt><trkpt lat="40.815708678482984" lon="8.961863605801486"><ele>423.0</ele><time>2026-05-03T08:33:33Z</time></trkpt><trkpt lat="40.81560112300757" lon="8.961913455632036"><ele>425.0</ele><time>2026-05-03T08:33:34Z</time></trkpt><trkpt lat="40.81551231091599" lon="8.961982765275817"><ele>427.0</ele><time>2026-05-03T08:33:35Z</time></trkpt><trkpt lat="40.81546847851848" lon="8.96211147127546"><ele>427.0</ele><time>2026-05-03T08:33:36Z</time></trkpt><trkpt lat="40.81545210942448" lon="8.962239724149853"><ele>427.00000000000006</ele><time>2026-05-03T08:33:37Z</time></trkpt><trkpt lat="40.81542177458439" lon="8.962354997676638"><ele>427.00000000000006</ele><time>2026-05-03T08:33:38Z</time></trkpt><trkpt lat="40.815446556474285" lon="8.962480850734282"><ele>427.0</ele><time>2026-05-03T08:33:39Z</time></trkpt><trkpt lat="40.815476941662055" lon="8.962614870982064"><ele>427.0</ele><time>2026-05-03T08:33:40Z</time></trkpt><trkpt lat="40.81552600368779" lon="8.962754244692432"><ele>427.0</ele><time>2026-05-03T08:33:41Z</time></trkpt><trkpt lat="40.81555853983835" lon="8.962915275858807"><ele>427.0</ele><time>2026-05-03T08:33:42Z</time></trkpt><trkpt lat="40.8155948201911" lon="8.963080987802508"><ele>427.0</ele><time>2026-05-03T08:33:43Z</time></trkpt><trkpt lat="40.815628393625616" lon="8.963261530155327"><ele>427.0</ele><time>2026-05-03T08:33:44Z</time></trkpt><trkpt lat="40.81565876057559" lon="8.963460895762013"><ele>427.0</ele><time>2026-05-03T08:33:45Z</time></trkpt><trkpt lat="40.8156842386872" lon="8.9636755972441"><ele>427.0</ele><time>2026-05-03T08:33:46Z</time></trkpt><trkpt lat="40.81570495966698" lon="8.96390118618334"><ele>427.0</ele><time>2026-05-03T08:33:47Z</time></trkpt><trkpt lat="40.815724254143674" lon="8.964131801111737"><ele>428.6666666666667</ele><time>2026-05-03T08:33:48Z</time></trkpt><trkpt lat="40.815747186405126" lon="8.964365199675251"><ele>430.33333333333337</ele><time>2026-05-03T08:33:49Z</time></trkpt><trkpt lat="40.815765991875416" lon="8.96456927093585"><ele>432.0</ele><time>2026-05-03T08:33:50Z</time></trkpt><trkpt lat="40.81577693838128" lon="8.964742899266433"><ele>432.0</ele><time>2026-05-03T08:33:51Z</time></trkpt><trkpt lat="40.81578317130769" lon="8.964876595832889"><ele>432.0</ele><time>2026-05-03T08:33:52Z</time></trkpt><trkpt lat="40.815725289410196" lon="8.964963651123798"><ele>432.0</ele><time>2026-05-03T08:33:53Z</time></trkpt><trkpt lat="40.81566247066395" lon="8.965005792670336"><ele>432.0</ele><time>2026-05-03T08:33:54Z</time></trkpt><trkpt lat="40.81558962433815" lon="8.965062863311607"><ele>432.0</ele><time>2026-05-03T08:33:55Z</time></trkpt><trkpt lat="40.81549848721706" lon="8.965125404189962"><ele>432.0</ele><time>2026-05-03T08:33:56Z</time></trkpt><trkpt lat="40.81538837278626" lon="8.965184712979667"><ele>433.75</ele><time>2026-05-03T08:33:57Z</time></trkpt><trkpt lat="40.81527001413786" lon="8.965251248327615"><ele>435.5</ele><time>2026-05-03T08:33:58Z</time></trkpt><trkpt lat="40.81516548563281" lon="8.965337652339745"><ele>437.25</ele><time>2026-05-03T08:33:59Z</time></trkpt><trkpt lat="40.81505811712247" lon="8.965436482066776"><ele>439.0</ele><time>2026-05-03T08:34:00Z</time></trkpt><trkpt lat="40.81496210931565" lon="8.965526676771251"><ele>439.25</ele><time>2026-05-03T08:34:01Z</time></trkpt><trkpt lat="40.81487141642446" lon="8.965597209379856"><ele>439.5</ele><time>2026-05-03T08:34:02Z</time></trkpt><trkpt lat="40.81476433014253" lon="8.965660362823092"><ele>439.75</ele><time>2026-05-03T08:34:03Z</time></trkpt><trkpt lat="40.81465363164857" lon="8.965697388231602"><ele>440.0</ele><time>2026-05-03T08:34:04Z</time></trkpt><trkpt lat="40.814539914061136" lon="8.965739404712458"><ele>440.0</ele><time>2026-05-03T08:34:05Z</time></trkpt><trkpt lat="40.81443440789241" lon="8.965818021671641"><ele>440.0</ele><time>2026-05-03T08:34:06Z</time></trkpt><trkpt lat="40.8143418467816" lon="8.965911179174427"><ele>440.0</ele><time>2026-05-03T08:34:07Z</time></trkpt><trkpt lat="40.814266295810754" lon="8.966007424505074"><ele>440.0</ele><time>2026-05-03T08:34:08Z</time></trkpt><trkpt lat="40.81420523661999" lon="8.96610144337777"><ele>440.0</ele><time>2026-05-03T08:34:09Z</time></trkpt><trkpt lat="40.81414244925049" lon="8.966201632987577"><ele>439.4</ele><time>2026-05-03T08:34:10Z</time></trkpt><trkpt lat="40.8140762050296" lon="8.966319152272598"><ele>438.8</ele><time>2026-05-03T08:34:11Z</time></trkpt><trkpt lat="40.81401133237954" lon="8.966438016557118"><ele>438.20000000000005</ele><time>2026-05-03T08:34:12Z</time></trkpt><trkpt lat="40.813948889229195" lon="8.966554961235023"><ele>437.6</ele><time>2026-05-03T08:34:13Z</time></trkpt><trkpt lat="40.81388097098333" lon="8.966659202068293"><ele>437.0</ele><time>2026-05-03T08:34:14Z</time></trkpt><trkpt lat="40.81380736385345" lon="8.966731788462383"><ele>435.16666666666663</ele><time>2026-05-03T08:34:15Z</time></trkpt><trkpt lat="40.81373584858218" lon="8.966763397751556"><ele>433.3333333333333</ele><time>2026-05-03T08:34:16Z</time></trkpt><trkpt lat="40.813654035688934" lon="8.966775561769921"><ele>431.5</ele><time>2026-05-03T08:34:17Z</time></trkpt><trkpt lat="40.81356942885575" lon="8.966783450226805"><ele>429.66666666666663</ele><time>2026-05-03T08:34:18Z</time></trkpt><trkpt lat="40.81348586867444" lon="8.966816113069807"><ele>427.8333333333333</ele><time>2026-05-03T08:34:19Z</time></trkpt><trkpt lat="40.81342170370019" lon="8.966914429237624"><ele>426.0</ele><time>2026-05-03T08:34:20Z</time></trkpt><trkpt lat="40.81338013306578" lon="8.967041579160606"><ele>426.0</ele><time>2026-05-03T08:34:21Z</time></trkpt><trkpt lat="40.81333154638647" lon="8.967155464020593"><ele>426.0</ele><time>2026-05-03T08:34:22Z</time></trkpt><trkpt lat="40.81327457944529" lon="8.967241349716723"><ele>426.0</ele><time>2026-05-03T08:34:23Z</time></trkpt><trkpt lat="40.81320018355961" lon="8.967273766246175"><ele>426.0</ele><time>2026-05-03T08:34:24Z</time></trkpt><trkpt lat="40.81311379533866" lon="8.967270604568757"><ele>426.0</ele><time>2026-05-03T08:34:25Z</time></trkpt><trkpt lat="40.813024295361096" lon="8.967281510434084"><ele>426.0</ele><time>2026-05-03T08:34:26Z</time></trkpt><trkpt lat="40.812935095947054" lon="8.967297707619789"><ele>426.0</ele><time>2026-05-03T08:34:27Z</time></trkpt><trkpt lat="40.81284797461195" lon="8.96731119738959"><ele>426.0</ele><time>2026-05-03T08:34:28Z</time></trkpt><trkpt lat="40.812761423821875" lon="8.96730994695222"><ele>426.0</ele><time>2026-05-03T08:34:29Z</time></trkpt><trkpt lat="40.812672606421316" lon="8.967253479925645"><ele>426.0</ele><time>2026-05-03T08:34:30Z</time></trkpt><trkpt lat="40.812587667953245" lon="8.967154931115163"><ele>426.0</ele><time>2026-05-03T08:34:31Z</time></trkpt><trkpt lat="40.81250982728344" lon="8.96703711862716"><ele>424.0</ele><time>2026-05-03T08:34:32Z</time></trkpt><trkpt lat="40.812432981248584" lon="8.966899520144937"><ele>422.0</ele><time>2026-05-03T08:34:33Z</time></trkpt><trkpt lat="40.81235228057353" lon="8.966752780381086"><ele>420.0</ele><time>2026-05-03T08:34:34Z</time></trkpt><trkpt lat="40.812242454959" lon="8.966614417099631"><ele>418.0</ele><time>2026-05-03T08:34:35Z</time></trkpt><trkpt lat="40.812129466142046" lon="8.966468689954837"><ele>417.5</ele><time>2026-05-03T08:34:36Z</time></trkpt><trkpt lat="40.81202527233892" lon="8.96633196042444"><ele>417.0</ele><time>2026-05-03T08:34:37Z</time></trkpt><trkpt lat="40.81192281310028" lon="8.966214203511827"><ele>416.5</ele><time>2026-05-03T08:34:38Z</time></trkpt><trkpt lat="40.81183605209059" lon="8.966103933902366"><ele>416.0</ele><time>2026-05-03T08:34:39Z</time></trkpt><trkpt lat="40.81176674891529" lon="8.965993727213503"><ele>416.20000000000005</ele><time>2026-05-03T08:34:40Z</time></trkpt><trkpt lat="40.811692685786475" lon="8.965907380223673"><ele>416.40000000000003</ele><time>2026-05-03T08:34:41Z</time></trkpt><trkpt lat="40.811611463459656" lon="8.96581684325384"><ele>416.6</ele><time>2026-05-03T08:34:42Z</time></trkpt><trkpt lat="40.811519251221384" lon="8.965735344982397"><ele>416.8</ele><time>2026-05-03T08:34:43Z</time></trkpt><trkpt lat="40.81140989551667" lon="8.965682552476464"><ele>417.0</ele><time>2026-05-03T08:34:44Z</time></trkpt><trkpt lat="40.81130435523807" lon="8.965599624284437"><ele>417.0</ele><time>2026-05-03T08:34:45Z</time></trkpt><trkpt lat="40.81118209193611" lon="8.96553600189748"><ele>417.0</ele><time>2026-05-03T08:34:46Z</time></trkpt><trkpt lat="40.81105127375137" lon="8.965474057835108"><ele>417.0</ele><time>2026-05-03T08:34:47Z</time></trkpt><trkpt lat="40.81091404852576" lon="8.965413395672506"><ele>417.0</ele><time>2026-05-03T08:34:48Z</time></trkpt><trkpt lat="40.81076977642038" lon="8.96535469548254"><ele>418.0</ele><time>2026-05-03T08:34:49Z</time></trkpt><trkpt lat="40.81060943809112" lon="8.965309502262407"><ele>419.0</ele><time>2026-05-03T08:34:50Z</time></trkpt><trkpt lat="40.81046388204161" lon="8.965234981700705"><ele>420.0</ele><time>2026-05-03T08:34:51Z</time></trkpt><trkpt lat="40.810311282931586" lon="8.965183200000082"><ele>419.25</ele><time>2026-05-03T08:34:52Z</time></trkpt><trkpt lat="40.8101556232597" lon="8.965153916941425"><ele>418.5</ele><time>2026-05-03T08:34:53Z</time></trkpt><trkpt lat="40.81001114286723" lon="8.965140969490552"><ele>417.75</ele><time>2026-05-03T08:34:54Z</time></trkpt><trkpt lat="40.809876960874135" lon="8.965103155665629"><ele>417.0</ele><time>2026-05-03T08:34:55Z</time></trkpt><trkpt lat="40.8097658149248" lon="8.965034260380442"><ele>416.8</ele><time>2026-05-03T08:34:56Z</time></trkpt><trkpt lat="40.80967852766742" lon="8.96494489143439"><ele>416.6</ele><time>2026-05-03T08:34:57Z</time></trkpt><trkpt lat="40.80957902393779" lon="8.96488022410763"><ele>416.40000000000003</ele><time>2026-05-03T08:34:58Z</time></trkpt><trkpt lat="40.8095045151961" lon="8.964806643289906"><ele>416.20000000000005</ele><time>2026-05-03T08:34:59Z</time></trkpt><trkpt lat="40.809403592892785" lon="8.96479589729761"><ele>416.0</ele><time>2026-05-03T08:35:00Z</time></trkpt><trkpt lat="40.80929608016201" lon="8.964811770730549"><ele>416.75</ele><time>2026-05-03T08:35:01Z</time></trkpt><trkpt lat="40.80918107628646" lon="8.964834583013207"><ele>417.5</ele><time>2026-05-03T08:35:02Z</time></trkpt><trkpt lat="40.80906191557205" lon="8.964848674854832"><ele>418.25</ele><time>2026-05-03T08:35:03Z</time></trkpt><trkpt lat="40.80893825857526" lon="8.964839815437157"><ele>419.0</ele><time>2026-05-03T08:35:04Z</time></trkpt><trkpt lat="40.8088144320757" lon="8.964816835786147"><ele>419.0</ele><time>2026-05-03T08:35:05Z</time></trkpt><trkpt lat="40.80868321090786" lon="8.964783583928845"><ele>419.0</ele><time>2026-05-03T08:35:06Z</time></trkpt><trkpt lat="40.80854506377813" lon="8.964739811196175"><ele>419.0</ele><time>2026-05-03T08:35:07Z</time></trkpt><trkpt lat="40.808399033712945" lon="8.9647133496371"><ele>419.0</ele><time>2026-05-03T08:35:08Z</time></trkpt><trkpt lat="40.8082508394762" lon="8.96469822279677"><ele>419.25</ele><time>2026-05-03T08:35:09Z</time></trkpt><trkpt lat="40.80810627032299" lon="8.964674142250967"><ele>419.5</ele><time>2026-05-03T08:35:10Z</time></trkpt><trkpt lat="40.80796031464185" lon="8.96464359912759"><ele>419.75</ele><time>2026-05-03T08:35:11Z</time></trkpt><trkpt lat="40.8078132404052" lon="8.964611331178634"><ele>420.0</ele><time>2026-05-03T08:35:12Z</time></trkpt><trkpt lat="40.80766479782276" lon="8.964577613765416"><ele>421.5</ele><time>2026-05-03T08:35:13Z</time></trkpt><trkpt lat="40.80751804398081" lon="8.964540299913294"><ele>423.0</ele><time>2026-05-03T08:35:14Z</time></trkpt><trkpt lat="40.80737511443623" lon="8.964501324478887"><ele>424.5</ele><time>2026-05-03T08:35:15Z</time></trkpt><trkpt lat="40.807236711105226" lon="8.964464157819634"><ele>426.0</ele><time>2026-05-03T08:35:16Z</time></trkpt><trkpt lat="40.807100253192125" lon="8.964427973683685"><ele>426.0</ele><time>2026-05-03T08:35:17Z</time></trkpt><trkpt lat="40.80696023321147" lon="8.964392403400032"><ele>426.0</ele><time>2026-05-03T08:35:18Z</time></trkpt><trkpt lat="40.80681551058459" lon="8.964356884820567"><ele>426.0</ele><time>2026-05-03T08:35:19Z</time></trkpt><trkpt lat="40.80666799995223" lon="8.964320681998853"><ele>426.0</ele><time>2026-05-03T08:35:20Z</time></trkpt><trkpt lat="40.806517320081916" lon="8.964285915669882"><ele>425.75</ele><time>2026-05-03T08:35:21Z</time></trkpt><trkpt lat="40.806367087385304" lon="8.964258845697032"><ele>425.5</ele><time>2026-05-03T08:35:22Z</time></trkpt><trkpt lat="40.806224676407126" lon="8.964253658092373"><ele>425.25</ele><time>2026-05-03T08:35:23Z</time></trkpt><trkpt lat="40.80609811468514" lon="8.96421751212571"><ele>425.0</ele><time>2026-05-03T08:35:24Z</time></trkpt><trkpt lat="40.80598652033049" lon="8.964131395504825"><ele>425.0</ele><time>2026-05-03T08:35:25Z</time></trkpt><trkpt lat="40.80587504990523" lon="8.964030639698073"><ele>425.0</ele><time>2026-05-03T08:35:26Z</time></trkpt><trkpt lat="40.80574449463927" lon="8.963918518639804"><ele>425.0</ele><time>2026-05-03T08:35:27Z</time></trkpt><trkpt lat="40.80560324771549" lon="8.963814554285895"><ele>425.0</ele><time>2026-05-03T08:35:28Z</time></trkpt><trkpt lat="40.80547181159611" lon="8.963693430875763"><ele>425.0</ele><time>2026-05-03T08:35:29Z</time></trkpt><trkpt lat="40.8053454305896" lon="8.963573548345675"><ele>425.0</ele><time>2026-05-03T08:35:30Z</time></trkpt><trkpt lat="40.80521980789239" lon="8.96346591125263"><ele>424.25</ele><time>2026-05-03T08:35:31Z</time></trkpt><trkpt lat="40.80510681142673" lon="8.963372757898338"><ele>423.5</ele><time>2026-05-03T08:35:32Z</time></trkpt><trkpt lat="40.80500669503225" lon="8.963311151637447"><ele>422.75</ele><time>2026-05-03T08:35:33Z</time></trkpt><trkpt lat="40.804906925189485" lon="8.963260328219846"><ele>422.0</ele><time>2026-05-03T08:35:34Z</time></trkpt><trkpt lat="40.80478967236157" lon="8.963274039304205"><ele>422.0</ele><time>2026-05-03T08:35:35Z</time></trkpt><trkpt lat="40.80466666293106" lon="8.963334136795698"><ele>422.0</ele><time>2026-05-03T08:35:36Z</time></trkpt><trkpt lat="40.80454454885668" lon="8.963415897541859"><ele>422.0</ele><time>2026-05-03T08:35:37Z</time></trkpt><trkpt lat="40.804426879970016" lon="8.963465818581472"><ele>422.0</ele><time>2026-05-03T08:35:38Z</time></trkpt><trkpt lat="40.80429556671236" lon="8.96348094258823"><ele>421.0</ele><time>2026-05-03T08:35:39Z</time></trkpt><trkpt lat="40.80416147098644" lon="8.96347154577282"><ele>420.0</ele><time>2026-05-03T08:35:40Z</time></trkpt><trkpt lat="40.80402867935735" lon="8.963488205215869"><ele>419.0</ele><time>2026-05-03T08:35:41Z</time></trkpt><trkpt lat="40.80392263340832" lon="8.963543117811522"><ele>418.0</ele><time>2026-05-03T08:35:42Z</time></trkpt><trkpt lat="40.80383892489847" lon="8.963644657954589"><ele>418.0</ele><time>2026-05-03T08:35:43Z</time></trkpt><trkpt lat="40.803763869335405" lon="8.963734909365332"><ele>418.0</ele><time>2026-05-03T08:35:44Z</time></trkpt><trkpt lat="40.803676934036304" lon="8.96383711402982"><ele>418.0</ele><time>2026-05-03T08:35:45Z</time></trkpt><trkpt lat="40.8035931623622" lon="8.963931819836482"><ele>418.0</ele><time>2026-05-03T08:35:46Z</time></trkpt><trkpt lat="40.8035123906242" lon="8.964017816179108"><ele>418.0</ele><time>2026-05-03T08:35:47Z</time></trkpt><trkpt lat="40.80343455353819" lon="8.964101174810864"><ele>417.0</ele><time>2026-05-03T08:35:48Z</time></trkpt><trkpt lat="40.803368879355915" lon="8.964202107461665"><ele>416.0</ele><time>2026-05-03T08:35:49Z</time></trkpt><trkpt lat="40.803296996430234" lon="8.964293516721124"><ele>415.0</ele><time>2026-05-03T08:35:50Z</time></trkpt><trkpt lat="40.80321357807521" lon="8.964374041306927"><ele>414.0</ele><time>2026-05-03T08:35:51Z</time></trkpt><trkpt lat="40.8031360607929" lon="8.964476429109057"><ele>413.0</ele><time>2026-05-03T08:35:52Z</time></trkpt><trkpt lat="40.80305349290517" lon="8.964584707716726"><ele>413.0</ele><time>2026-05-03T08:35:53Z</time></trkpt><trkpt lat="40.8029626681434" lon="8.964703800613904"><ele>413.0</ele><time>2026-05-03T08:35:54Z</time></trkpt><trkpt lat="40.802864977650934" lon="8.964832199410887"><ele>413.0</ele><time>2026-05-03T08:35:55Z</time></trkpt><trkpt lat="40.802773804373494" lon="8.964970627949231"><ele>413.0</ele><time>2026-05-03T08:35:56Z</time></trkpt><trkpt lat="40.802695030213314" lon="8.96512388389876"><ele>413.5</ele><time>2026-05-03T08:35:57Z</time></trkpt><trkpt lat="40.8026504033662" lon="8.965292564525898"><ele>414.0</ele><time>2026-05-03T08:35:58Z</time></trkpt><trkpt lat="40.802612050509964" lon="8.965449208142825"><ele>414.5</ele><time>2026-05-03T08:35:59Z</time></trkpt><trkpt lat="40.80257021155777" lon="8.965606456122636"><ele>415.0</ele><time>2026-05-03T08:36:00Z</time></trkpt><trkpt lat="40.80251959862116" lon="8.965749849826228"><ele>414.75</ele><time>2026-05-03T08:36:01Z</time></trkpt><trkpt lat="40.802504446964754" lon="8.96592572945946"><ele>414.5</ele><time>2026-05-03T08:36:02Z</time></trkpt><trkpt lat="40.802462509150544" lon="8.966079958315417"><ele>414.25</ele><time>2026-05-03T08:36:03Z</time></trkpt><trkpt lat="40.80241439258579" lon="8.966229500471378"><ele>414.0</ele><time>2026-05-03T08:36:04Z</time></trkpt><trkpt lat="40.80236069572899" lon="8.966369624684011"><ele>414.0</ele><time>2026-05-03T08:36:05Z</time></trkpt><trkpt lat="40.802294034348016" lon="8.966488585777688"><ele>414.0</ele><time>2026-05-03T08:36:06Z</time></trkpt><trkpt lat="40.80221387559133" lon="8.96657261014926"><ele>414.0</ele><time>2026-05-03T08:36:07Z</time></trkpt><trkpt lat="40.80211305470841" lon="8.966602111272268"><ele>414.0</ele><time>2026-05-03T08:36:08Z</time></trkpt><trkpt lat="40.80201688637559" lon="8.966634781889278"><ele>414.0</ele><time>2026-05-03T08:36:09Z</time></trkpt><trkpt lat="40.80191730489439" lon="8.966667595926566"><ele>417.2</ele><time>2026-05-03T08:36:10Z</time></trkpt><trkpt lat="40.80181351586687" lon="8.966702388107203"><ele>420.4</ele><time>2026-05-03T08:36:11Z</time></trkpt><trkpt lat="40.80170572987246" lon="8.966739949900425"><ele>423.6</ele><time>2026-05-03T08:36:12Z</time></trkpt><trkpt lat="40.80160133907668" lon="8.966799682398639"><ele>426.8</ele><time>2026-05-03T08:36:13Z</time></trkpt><trkpt lat="40.80149198490505" lon="8.966831921042836"><ele>430.0</ele><time>2026-05-03T08:36:14Z</time></trkpt><trkpt lat="40.8013069108069" lon="8.966914089804332"><ele>430.0</ele><time>2026-05-03T08:36:16Z</time></trkpt><trkpt lat="40.80125562733034" lon="8.966978187457316"><ele>430.0</ele><time>2026-05-03T08:36:17Z</time></trkpt><trkpt lat="40.80122883707639" lon="8.967149218640287"><ele>430.0</ele><time>2026-05-03T08:36:19Z</time></trkpt><trkpt lat="40.801233663506075" lon="8.96726383104663"><ele>430.0</ele><time>2026-05-03T08:36:20Z</time></trkpt><trkpt lat="40.80124326128889" lon="8.967386786576045"><ele>430.0</ele><time>2026-05-03T08:36:21Z</time></trkpt><trkpt lat="40.80124370358912" lon="8.967523539238234"><ele>430.75</ele><time>2026-05-03T08:36:22Z</time></trkpt><trkpt lat="40.80121662315172" lon="8.967681430333034"><ele>431.5</ele><time>2026-05-03T08:36:23Z</time></trkpt><trkpt lat="40.80116084658214" lon="8.967820618308874"><ele>432.25</ele><time>2026-05-03T08:36:24Z</time></trkpt><trkpt lat="40.80109385713669" lon="8.967945013330187"><ele>433.0</ele><time>2026-05-03T08:36:25Z</time></trkpt><trkpt lat="40.801020735654355" lon="8.968050817386963"><ele>434.5</ele><time>2026-05-03T08:36:26Z</time></trkpt><trkpt lat="40.8009431687052" lon="8.968145993536458"><ele>436.0</ele><time>2026-05-03T08:36:27Z</time></trkpt><trkpt lat="40.80087182036692" lon="8.968241279172078"><ele>437.5</ele><time>2026-05-03T08:36:28Z</time></trkpt><trkpt lat="40.80080143277128" lon="8.96833930380162"><ele>439.0</ele><time>2026-05-03T08:36:29Z</time></trkpt><trkpt lat="40.80068434601144" lon="8.968515836076936"><ele>439.0</ele><time>2026-05-03T08:36:30Z</time></trkpt><trkpt lat="40.80061203427408" lon="8.968659062841914"><ele>439.0</ele><time>2026-05-03T08:36:31Z</time></trkpt><trkpt lat="40.80054665933115" lon="8.968795949335506"><ele>439.0</ele><time>2026-05-03T08:36:32Z</time></trkpt><trkpt lat="40.800484239167226" lon="8.968928427084354"><ele>439.0</ele><time>2026-05-03T08:36:33Z</time></trkpt><trkpt lat="40.80042929275798" lon="8.96904309731399"><ele>439.0</ele><time>2026-05-03T08:36:34Z</time></trkpt><trkpt lat="40.800386702969455" lon="8.969126065858497"><ele>439.0</ele><time>2026-05-03T08:36:35Z</time></trkpt><trkpt lat="40.800318482680495" lon="8.969250375762085"><ele>439.0</ele><time>2026-05-03T08:36:37Z</time></trkpt><trkpt lat="40.800251847567374" lon="8.969324608859843"><ele>439.0</ele><time>2026-05-03T08:36:39Z</time></trkpt><trkpt lat="40.800115775806304" lon="8.96924952400275"><ele>439.0</ele><time>2026-05-03T08:36:41Z</time></trkpt><trkpt lat="40.800021114859405" lon="8.969298682792394"><ele>441.79999999999995</ele><time>2026-05-03T08:36:43Z</time></trkpt><trkpt lat="40.799947656093174" lon="8.96937297921195"><ele>444.59999999999997</ele><time>2026-05-03T08:36:45Z</time></trkpt><trkpt lat="40.799899602024404" lon="8.969514008094194"><ele>447.4</ele><time>2026-05-03T08:36:47Z</time></trkpt><trkpt lat="40.79986600232864" lon="8.96969836844534"><ele>450.2</ele><time>2026-05-03T08:36:49Z</time></trkpt><trkpt lat="40.799840962873574" lon="8.969776632113625"><ele>453.0</ele><time>2026-05-03T08:36:50Z</time></trkpt><trkpt lat="40.79979346334341" lon="8.969929121093942"><ele>453.0</ele><time>2026-05-03T08:36:52Z</time></trkpt><trkpt lat="40.799774184169735" lon="8.97001834058482"><ele>453.0</ele><time>2026-05-03T08:36:53Z</time></trkpt><trkpt lat="40.7997511536738" lon="8.97011111834067"><ele>453.0</ele><time>2026-05-03T08:36:54Z</time></trkpt><trkpt lat="40.799718115065104" lon="8.970206934612985"><ele>453.0</ele><time>2026-05-03T08:36:55Z</time></trkpt><trkpt lat="40.79965433828572" lon="8.970288990413954"><ele>453.0</ele><time>2026-05-03T08:36:56Z</time></trkpt><trkpt lat="40.799595105884514" lon="8.970386675534465"><ele>453.0</ele><time>2026-05-03T08:36:57Z</time></trkpt><trkpt lat="40.79954591622606" lon="8.970497981460015"><ele>453.4</ele><time>2026-05-03T08:36:58Z</time></trkpt><trkpt lat="40.799477774525954" lon="8.970589197613346"><ele>453.79999999999995</ele><time>2026-05-03T08:36:59Z</time></trkpt><trkpt lat="40.799411617902834" lon="8.970686983233895"><ele>454.2</ele><time>2026-05-03T08:37:00Z</time></trkpt><trkpt lat="40.79934573878774" lon="8.970790450366419"><ele>454.6</ele><time>2026-05-03T08:37:01Z</time></trkpt><trkpt lat="40.799275348197185" lon="8.970892277927264"><ele>455.0</ele><time>2026-05-03T08:37:02Z</time></trkpt><trkpt lat="40.799207007720675" lon="8.970995685222077"><ele>455.4</ele><time>2026-05-03T08:37:03Z</time></trkpt><trkpt lat="40.79913848748269" lon="8.971095605457972"><ele>455.8</ele><time>2026-05-03T08:37:04Z</time></trkpt><trkpt lat="40.799070863832725" lon="8.97119349676663"><ele>456.20000000000005</ele><time>2026-05-03T08:37:05Z</time></trkpt><trkpt lat="40.79900290316238" lon="8.971286937561947"><ele>456.6</ele><time>2026-05-03T08:37:06Z</time></trkpt><trkpt lat="40.79891793793317" lon="8.971361537879904"><ele>457.0</ele><time>2026-05-03T08:37:07Z</time></trkpt><trkpt lat="40.798820570151165" lon="8.97141994187516"><ele>457.0</ele><time>2026-05-03T08:37:08Z</time></trkpt><trkpt lat="40.798719938725384" lon="8.971486618390744"><ele>457.00000000000006</ele><time>2026-05-03T08:37:09Z</time></trkpt><trkpt lat="40.79866129890951" lon="8.971548238039908"><ele>457.00000000000006</ele><time>2026-05-03T08:37:10Z</time></trkpt><trkpt lat="40.79856562624071" lon="8.971608484141749"><ele>457.0</ele><time>2026-05-03T08:37:11Z</time></trkpt><trkpt lat="40.79846142999693" lon="8.971671539050933"><ele>457.0</ele><time>2026-05-03T08:37:12Z</time></trkpt><trkpt lat="40.79834657595692" lon="8.971737283258083"><ele>457.0</ele><time>2026-05-03T08:37:13Z</time></trkpt><trkpt lat="40.798223828695264" lon="8.971803068454024"><ele>457.0</ele><time>2026-05-03T08:37:14Z</time></trkpt><trkpt lat="40.798092775069115" lon="8.971870002269704"><ele>457.0</ele><time>2026-05-03T08:37:15Z</time></trkpt><trkpt lat="40.797960069764116" lon="8.971937492691609"><ele>457.0</ele><time>2026-05-03T08:37:16Z</time></trkpt><trkpt lat="40.797831028646634" lon="8.972005230522544"><ele>457.0</ele><time>2026-05-03T08:37:17Z</time></trkpt><trkpt lat="40.797723002440364" lon="8.97208781956374"><ele>457.00000000000006</ele><time>2026-05-03T08:37:18Z</time></trkpt><trkpt lat="40.79762270883325" lon="8.972139357436875"><ele>457.00000000000006</ele><time>2026-05-03T08:37:19Z</time></trkpt><trkpt lat="40.79754352886646" lon="8.972183452318035"><ele>457.0</ele><time>2026-05-03T08:37:20Z</time></trkpt><trkpt lat="40.797466854554386" lon="8.97222617504437"><ele>457.0</ele><time>2026-05-03T08:37:22Z</time></trkpt><trkpt lat="40.79739343432292" lon="8.9722656815542"><ele>456.5</ele><time>2026-05-03T08:37:26Z</time></trkpt><trkpt lat="40.79740935457728" lon="8.972471780801289"><ele>456.0</ele><time>2026-05-03T08:37:28Z</time></trkpt><trkpt lat="40.79743453967993" lon="8.972589012492717"><ele>455.5</ele><time>2026-05-03T08:37:29Z</time></trkpt><trkpt lat="40.79745868215027" lon="8.972732068658724"><ele>455.0</ele><time>2026-05-03T08:37:30Z</time></trkpt><trkpt lat="40.797455830523" lon="8.97287224340302"><ele>454.99999999999994</ele><time>2026-05-03T08:37:31Z</time></trkpt><trkpt lat="40.79740198304043" lon="8.972996523485007"><ele>455.0</ele><time>2026-05-03T08:37:32Z</time></trkpt><trkpt lat="40.79734360133251" lon="8.97312393630225"><ele>455.0</ele><time>2026-05-03T08:37:33Z</time></trkpt><trkpt lat="40.79728783433978" lon="8.973203910115151"><ele>455.0</ele><time>2026-05-03T08:37:34Z</time></trkpt><trkpt lat="40.79724157691823" lon="8.97327351937423"><ele>454.99999999999994</ele><time>2026-05-03T08:37:35Z</time></trkpt><trkpt lat="40.79719674244971" lon="8.973336380040715"><ele>455.0</ele><time>2026-05-03T08:37:36Z</time></trkpt><trkpt lat="40.797157802217015" lon="8.97340173187253"><ele>453.0</ele><time>2026-05-03T08:37:37Z</time></trkpt><trkpt lat="40.797111153796266" lon="8.973477479119536"><ele>451.0</ele><time>2026-05-03T08:37:38Z</time></trkpt><trkpt lat="40.79705800763665" lon="8.973562837738912"><ele>449.0</ele><time>2026-05-03T08:37:39Z</time></trkpt><trkpt lat="40.79700079860248" lon="8.973663246371261"><ele>447.0</ele><time>2026-05-03T08:37:40Z</time></trkpt><trkpt lat="40.79693691639611" lon="8.973766889490712"><ele>445.0</ele><time>2026-05-03T08:37:41Z</time></trkpt><trkpt lat="40.79686531000299" lon="8.973876376194521"><ele>446.75</ele><time>2026-05-03T08:37:42Z</time></trkpt><trkpt lat="40.796791674139" lon="8.973993798421763"><ele>448.5</ele><time>2026-05-03T08:37:43Z</time></trkpt><trkpt lat="40.796714742819034" lon="8.974114202609032"><ele>450.25</ele><time>2026-05-03T08:37:44Z</time></trkpt><trkpt lat="40.796640003421075" lon="8.974239610926578"><ele>452.0</ele><time>2026-05-03T08:37:45Z</time></trkpt><trkpt lat="40.79657099490594" lon="8.974371024507375"><ele>452.0</ele><time>2026-05-03T08:37:46Z</time></trkpt><trkpt lat="40.796524156887706" lon="8.974513922049823"><ele>452.0</ele><time>2026-05-03T08:37:47Z</time></trkpt><trkpt lat="40.796500606596624" lon="8.974676893439241"><ele>452.0</ele><time>2026-05-03T08:37:48Z</time></trkpt><trkpt lat="40.796506734071315" lon="8.97484445931093"><ele>452.0</ele><time>2026-05-03T08:37:49Z</time></trkpt><trkpt lat="40.7965302720357" lon="8.97501372410949"><ele>452.0</ele><time>2026-05-03T08:37:50Z</time></trkpt><trkpt lat="40.79656134708119" lon="8.97518580332583"><ele>452.0</ele><time>2026-05-03T08:37:51Z</time></trkpt><trkpt lat="40.796598822915264" lon="8.975359713364501"><ele>452.0</ele><time>2026-05-03T08:37:52Z</time></trkpt><trkpt lat="40.79663371633605" lon="8.97553523471441"><ele>452.0</ele><time>2026-05-03T08:37:53Z</time></trkpt><trkpt lat="40.79667710268609" lon="8.975709815663532"><ele>451.25</ele><time>2026-05-03T08:37:54Z</time></trkpt><trkpt lat="40.796737897319026" lon="8.97587696823841"><ele>450.5</ele><time>2026-05-03T08:37:55Z</time></trkpt><trkpt lat="40.79681119411987" lon="8.976034708090143"><ele>449.75</ele><time>2026-05-03T08:37:56Z</time></trkpt><trkpt lat="40.79686408441011" lon="8.976183414547535"><ele>449.0</ele><time>2026-05-03T08:37:57Z</time></trkpt><trkpt lat="40.79688841626229" lon="8.976322768307519"><ele>449.0</ele><time>2026-05-03T08:37:58Z</time></trkpt><trkpt lat="40.79687935269875" lon="8.976449299408515"><ele>449.0</ele><time>2026-05-03T08:37:59Z</time></trkpt><trkpt lat="40.79680739516284" lon="8.97655078366506"><ele>449.0</ele><time>2026-05-03T08:38:00Z</time></trkpt><trkpt lat="40.79670471890859" lon="8.976622567074264"><ele>449.0</ele><time>2026-05-03T08:38:01Z</time></trkpt><trkpt lat="40.79658651931958" lon="8.976619587831344"><ele>449.0</ele><time>2026-05-03T08:38:02Z</time></trkpt><trkpt lat="40.79648153084974" lon="8.976566951770778"><ele>449.0</ele><time>2026-05-03T08:38:03Z</time></trkpt><trkpt lat="40.796365085380764" lon="8.976507200864138"><ele>449.0</ele><time>2026-05-03T08:38:04Z</time></trkpt><trkpt lat="40.796226363613926" lon="8.976449711624827"><ele>449.0</ele><time>2026-05-03T08:38:05Z</time></trkpt><trkpt lat="40.79607150356442" lon="8.976370666738578"><ele>449.0</ele><time>2026-05-03T08:38:06Z</time></trkpt><trkpt lat="40.79591905556162" lon="8.976303458717743"><ele>449.75</ele><time>2026-05-03T08:38:07Z</time></trkpt><trkpt lat="40.79578928366405" lon="8.976261152331462"><ele>450.5</ele><time>2026-05-03T08:38:08Z</time></trkpt><trkpt lat="40.79566576798828" lon="8.976258253913024"><ele>451.25</ele><time>2026-05-03T08:38:09Z</time></trkpt><trkpt lat="40.795552918714755" lon="8.976303138204742"><ele>452.0</ele><time>2026-05-03T08:38:10Z</time></trkpt><trkpt lat="40.7954560852933" lon="8.976398661017937"><ele>452.0</ele><time>2026-05-03T08:38:11Z</time></trkpt><trkpt lat="40.79538773594665" lon="8.976540245331005"><ele>452.0</ele><time>2026-05-03T08:38:12Z</time></trkpt><trkpt lat="40.795339508161746" lon="8.976706015118216"><ele>452.0</ele><time>2026-05-03T08:38:13Z</time></trkpt><trkpt lat="40.79527671266942" lon="8.976875999686001"><ele>452.0</ele><time>2026-05-03T08:38:14Z</time></trkpt><trkpt lat="40.79516040266376" lon="8.977003797097861"><ele>452.3333333333333</ele><time>2026-05-03T08:38:15Z</time></trkpt><trkpt lat="40.79503386221476" lon="8.977102163139008"><ele>452.66666666666663</ele><time>2026-05-03T08:38:16Z</time></trkpt><trkpt lat="40.79488602465153" lon="8.977197782386442"><ele>453.0</ele><time>2026-05-03T08:38:17Z</time></trkpt><trkpt lat="40.79473438854858" lon="8.977319218417733"><ele>453.0</ele><time>2026-05-03T08:38:18Z</time></trkpt><trkpt lat="40.79457388695292" lon="8.977433914996249"><ele>453.0</ele><time>2026-05-03T08:38:19Z</time></trkpt><trkpt lat="40.794420357990475" lon="8.977592773866432"><ele>453.0</ele><time>2026-05-03T08:38:20Z</time></trkpt><trkpt lat="40.79429352552484" lon="8.977797881150067"><ele>454.0</ele><time>2026-05-03T08:38:21Z</time></trkpt><trkpt lat="40.794180900222564" lon="8.978028986224167"><ele>455.0</ele><time>2026-05-03T08:38:22Z</time></trkpt><trkpt lat="40.7940898843031" lon="8.978284414760862"><ele>456.0</ele><time>2026-05-03T08:38:23Z</time></trkpt><trkpt lat="40.79400474714704" lon="8.978534688252578"><ele>456.0</ele><time>2026-05-03T08:38:24Z</time></trkpt><trkpt lat="40.79394598166303" lon="8.978773352710508"><ele>456.0</ele><time>2026-05-03T08:38:25Z</time></trkpt><trkpt lat="40.793904645081476" lon="8.979000576538201"><ele>456.0</ele><time>2026-05-03T08:38:26Z</time></trkpt><trkpt lat="40.79389606501191" lon="8.979217256501093"><ele>458.66666666666663</ele><time>2026-05-03T08:38:27Z</time></trkpt><trkpt lat="40.79392894665219" lon="8.979422935224392"><ele>461.3333333333333</ele><time>2026-05-03T08:38:28Z</time></trkpt><trkpt lat="40.79400415986487" lon="8.979608835659834"><ele>464.0</ele><time>2026-05-03T08:38:29Z</time></trkpt><trkpt lat="40.794076016027205" lon="8.979787920344766"><ele>464.0</ele><time>2026-05-03T08:38:30Z</time></trkpt><trkpt lat="40.79411725788222" lon="8.979957696815994"><ele>464.0</ele><time>2026-05-03T08:38:31Z</time></trkpt><trkpt lat="40.79412914849987" lon="8.980118698276893"><ele>464.0</ele><time>2026-05-03T08:38:32Z</time></trkpt><trkpt lat="40.79411187300042" lon="8.980285465171168"><ele>464.0</ele><time>2026-05-03T08:38:33Z</time></trkpt><trkpt lat="40.79408279303943" lon="8.980459077386495"><ele>463.0</ele><time>2026-05-03T08:38:34Z</time></trkpt><trkpt lat="40.79397957199374" lon="8.980586670160406"><ele>462.0</ele><time>2026-05-03T08:38:35Z</time></trkpt><trkpt lat="40.79387480773956" lon="8.980708124280843"><ele>461.0</ele><time>2026-05-03T08:38:36Z</time></trkpt><trkpt lat="40.79376709641844" lon="8.980846826895222"><ele>460.0</ele><time>2026-05-03T08:38:37Z</time></trkpt><trkpt lat="40.79364818425459" lon="8.980956831478693"><ele>458.25</ele><time>2026-05-03T08:38:38Z</time></trkpt><trkpt lat="40.79353745569192" lon="8.98107604193489"><ele>456.5</ele><time>2026-05-03T08:38:39Z</time></trkpt><trkpt lat="40.79342644585552" lon="8.981148870251221"><ele>454.75</ele><time>2026-05-03T08:38:40Z</time></trkpt><trkpt lat="40.79331349898267" lon="8.98120819196512"><ele>453.0</ele><time>2026-05-03T08:38:41Z</time></trkpt><trkpt lat="40.79318488421647" lon="8.98124190620298"><ele>453.0</ele><time>2026-05-03T08:38:42Z</time></trkpt><trkpt lat="40.793039611696216" lon="8.98122751402845"><ele>453.0</ele><time>2026-05-03T08:38:43Z</time></trkpt><trkpt lat="40.79288600142765" lon="8.981205164878808"><ele>453.0</ele><time>2026-05-03T08:38:44Z</time></trkpt><trkpt lat="40.792722813227556" lon="8.981199045545289"><ele>456.0</ele><time>2026-05-03T08:38:45Z</time></trkpt><trkpt lat="40.79256625102896" lon="8.9811745925491"><ele>459.0</ele><time>2026-05-03T08:38:46Z</time></trkpt><trkpt lat="40.792415946020924" lon="8.98115970589818"><ele>462.0</ele><time>2026-05-03T08:38:47Z</time></trkpt><trkpt lat="40.792269971435054" lon="8.981145449593788"><ele>462.0</ele><time>2026-05-03T08:38:48Z</time></trkpt><trkpt lat="40.792131307123924" lon="8.981107148472356"><ele>462.0</ele><time>2026-05-03T08:38:49Z</time></trkpt><trkpt lat="40.7919954812103" lon="8.981073887367106"><ele>462.0</ele><time>2026-05-03T08:38:50Z</time></trkpt><trkpt lat="40.7918588292189" lon="8.981057217394042"><ele>462.0</ele><time>2026-05-03T08:38:51Z</time></trkpt><trkpt lat="40.79172912493387" lon="8.981015735099634"><ele>463.5</ele><time>2026-05-03T08:38:52Z</time></trkpt><trkpt lat="40.79160440862747" lon="8.980988688423764"><ele>465.0</ele><time>2026-05-03T08:38:53Z</time></trkpt><trkpt lat="40.791482693215244" lon="8.980994176159802"><ele>466.5</ele><time>2026-05-03T08:38:54Z</time></trkpt><trkpt lat="40.79136905838816" lon="8.981027798433852"><ele>468.0</ele><time>2026-05-03T08:38:55Z</time></trkpt><trkpt lat="40.79126164954533" lon="8.981084123998647"><ele>468.0</ele><time>2026-05-03T08:38:56Z</time></trkpt><trkpt lat="40.7911592993485" lon="8.981176445895613"><ele>468.0</ele><time>2026-05-03T08:38:57Z</time></trkpt><trkpt lat="40.79106143625259" lon="8.981296955864902"><ele>468.0</ele><time>2026-05-03T08:38:58Z</time></trkpt><trkpt lat="40.7909838809147" lon="8.981455515445262"><ele>468.0</ele><time>2026-05-03T08:38:59Z</time></trkpt><trkpt lat="40.790932467207305" lon="8.981642638924288"><ele>473.66666666666663</ele><time>2026-05-03T08:39:00Z</time></trkpt><trkpt lat="40.79091382437824" lon="8.981845965123963"><ele>479.3333333333333</ele><time>2026-05-03T08:39:01Z</time></trkpt><trkpt lat="40.79089837333746" lon="8.982056766780332"><ele>485.0</ele><time>2026-05-03T08:39:02Z</time></trkpt><trkpt lat="40.790877853772095" lon="8.982266919405323"><ele>485.0</ele><time>2026-05-03T08:39:03Z</time></trkpt><trkpt lat="40.79085251654525" lon="8.982481773092449"><ele>485.0</ele><time>2026-05-03T08:39:04Z</time></trkpt><trkpt lat="40.790823749432924" lon="8.982702058749979"><ele>485.0</ele><time>2026-05-03T08:39:05Z</time></trkpt><trkpt lat="40.79080099493404" lon="8.982921087084298"><ele>483.75</ele><time>2026-05-03T08:39:06Z</time></trkpt><trkpt lat="40.79077881187464" lon="8.983132070161963"><ele>482.5</ele><time>2026-05-03T08:39:07Z</time></trkpt><trkpt lat="40.79075951580834" lon="8.983321375856153"><ele>481.25</ele><time>2026-05-03T08:39:08Z</time></trkpt><trkpt lat="40.79073611683398" lon="8.983503364074688"><ele>480.0</ele><time>2026-05-03T08:39:09Z</time></trkpt><trkpt lat="40.79067444493311" lon="8.983658854629347"><ele>477.0</ele><time>2026-05-03T08:39:10Z</time></trkpt><trkpt lat="40.79060296624702" lon="8.983813444023518"><ele>474.0</ele><time>2026-05-03T08:39:11Z</time></trkpt><trkpt lat="40.79050720829285" lon="8.98395340956492"><ele>471.0</ele><time>2026-05-03T08:39:12Z</time></trkpt><trkpt lat="40.79038354592735" lon="8.984072555093995"><ele>468.0</ele><time>2026-05-03T08:39:13Z</time></trkpt><trkpt lat="40.79024238410195" lon="8.9841677192684"><ele>468.33333333333337</ele><time>2026-05-03T08:39:14Z</time></trkpt><trkpt lat="40.79009380051989" lon="8.984261901080393"><ele>468.6666666666667</ele><time>2026-05-03T08:39:15Z</time></trkpt><trkpt lat="40.789963977743106" lon="8.984365411844648"><ele>469.0</ele><time>2026-05-03T08:39:16Z</time></trkpt><trkpt lat="40.78986206693692" lon="8.984492189668893"><ele>469.0</ele><time>2026-05-03T08:39:17Z</time></trkpt><trkpt lat="40.78979031127501" lon="8.98466636911094"><ele>469.0</ele><time>2026-05-03T08:39:18Z</time></trkpt><trkpt lat="40.789744228988376" lon="8.984866241556226"><ele>469.0</ele><time>2026-05-03T08:39:19Z</time></trkpt><trkpt lat="40.789723050937276" lon="8.985077583462315"><ele>465.6666666666667</ele><time>2026-05-03T08:39:20Z</time></trkpt><trkpt lat="40.789695958128966" lon="8.98529750308297"><ele>462.33333333333337</ele><time>2026-05-03T08:39:21Z</time></trkpt><trkpt lat="40.78966537376284" lon="8.98551310737831"><ele>459.0</ele><time>2026-05-03T08:39:22Z</time></trkpt><trkpt lat="40.78962333647985" lon="8.985729838810604"><ele>455.66666666666663</ele><time>2026-05-03T08:39:23Z</time></trkpt><trkpt lat="40.78957563775451" lon="8.985945244546038"><ele>452.3333333333333</ele><time>2026-05-03T08:39:24Z</time></trkpt><trkpt lat="40.78952162779216" lon="8.986156874606102"><ele>449.0</ele><time>2026-05-03T08:39:25Z</time></trkpt><trkpt lat="40.78946346584312" lon="8.986364815827704"><ele>449.0</ele><time>2026-05-03T08:39:26Z</time></trkpt><trkpt lat="40.78939198389868" lon="8.98656385194005"><ele>449.0</ele><time>2026-05-03T08:39:27Z</time></trkpt><trkpt lat="40.78931375652721" lon="8.986743528652875"><ele>449.0</ele><time>2026-05-03T08:39:28Z</time></trkpt><trkpt lat="40.78923423302949" lon="8.986901063364227"><ele>454.75</ele><time>2026-05-03T08:39:29Z</time></trkpt><trkpt lat="40.789178473884796" lon="8.987061665974252"><ele>460.5</ele><time>2026-05-03T08:39:30Z</time></trkpt><trkpt lat="40.7891581634782" lon="8.987239946463674"><ele>466.25</ele><time>2026-05-03T08:39:31Z</time></trkpt><trkpt lat="40.789179507034575" lon="8.987431045939871"><ele>472.0</ele><time>2026-05-03T08:39:32Z</time></trkpt><trkpt lat="40.78923807232798" lon="8.987615163365666"><ele>472.0</ele><time>2026-05-03T08:39:33Z</time></trkpt><trkpt lat="40.78930550229427" lon="8.987776075887222"><ele>472.0</ele><time>2026-05-03T08:39:34Z</time></trkpt><trkpt lat="40.78936840004875" lon="8.987930079518812"><ele>472.0</ele><time>2026-05-03T08:39:35Z</time></trkpt><trkpt lat="40.78936808430134" lon="8.988084374069755"><ele>472.0</ele><time>2026-05-03T08:39:36Z</time></trkpt><trkpt lat="40.78933589300357" lon="8.988229168409893"><ele>466.0</ele><time>2026-05-03T08:39:37Z</time></trkpt><trkpt lat="40.78928782829419" lon="8.988374550644938"><ele>460.0</ele><time>2026-05-03T08:39:38Z</time></trkpt><trkpt lat="40.789169600842826" lon="8.98845039767099"><ele>454.0</ele><time>2026-05-03T08:39:39Z</time></trkpt><trkpt lat="40.789051008519614" lon="8.988510672512104"><ele>448.0</ele><time>2026-05-03T08:39:40Z</time></trkpt><trkpt lat="40.788926899581305" lon="8.988584152759657"><ele>448.0</ele><time>2026-05-03T08:39:41Z</time></trkpt><trkpt lat="40.788790236107424" lon="8.988640370784285"><ele>448.0</ele><time>2026-05-03T08:39:42Z</time></trkpt><trkpt lat="40.788662347943614" lon="8.988722380394305"><ele>448.0</ele><time>2026-05-03T08:39:43Z</time></trkpt><trkpt lat="40.78853499688256" lon="8.9888192335784"><ele>448.0</ele><time>2026-05-03T08:39:44Z</time></trkpt><trkpt lat="40.78842462213424" lon="8.98894074263873"><ele>446.0</ele><time>2026-05-03T08:39:45Z</time></trkpt><trkpt lat="40.78832603556114" lon="8.989069609083693"><ele>444.0</ele><time>2026-05-03T08:39:46Z</time></trkpt><trkpt lat="40.78824068615824" lon="8.989213069905711"><ele>442.0</ele><time>2026-05-03T08:39:47Z</time></trkpt><trkpt lat="40.788154878343434" lon="8.989360781627367"><ele>440.0</ele><time>2026-05-03T08:39:48Z</time></trkpt><trkpt lat="40.78806550761519" lon="8.989508346164891"><ele>440.0</ele><time>2026-05-03T08:39:49Z</time></trkpt><trkpt lat="40.787973537463216" lon="8.98965788946004"><ele>440.0</ele><time>2026-05-03T08:39:50Z</time></trkpt><trkpt lat="40.78788392794084" lon="8.989813397990035"><ele>440.0</ele><time>2026-05-03T08:39:51Z</time></trkpt><trkpt lat="40.78778901632786" lon="8.98996327293086"><ele>440.0</ele><time>2026-05-03T08:39:52Z</time></trkpt><trkpt lat="40.78769623959333" lon="8.990116770707122"><ele>441.5</ele><time>2026-05-03T08:39:53Z</time></trkpt><trkpt lat="40.78761177716044" lon="8.990264732579437"><ele>443.0</ele><time>2026-05-03T08:39:54Z</time></trkpt><trkpt lat="40.78752553715739" lon="8.990416890026113"><ele>444.5</ele><time>2026-05-03T08:39:55Z</time></trkpt><trkpt lat="40.78743700845705" lon="8.990568940688542"><ele>446.0</ele><time>2026-05-03T08:39:56Z</time></trkpt><trkpt lat="40.787350325012525" lon="8.990718525736659"><ele>446.0</ele><time>2026-05-03T08:39:57Z</time></trkpt><trkpt lat="40.7872708238011" lon="8.990854281528"><ele>446.0</ele><time>2026-05-03T08:39:58Z</time></trkpt><trkpt lat="40.78719059665007" lon="8.990987655042428"><ele>446.0</ele><time>2026-05-03T08:39:59Z</time></trkpt><trkpt lat="40.787107515198215" lon="8.991113325233554"><ele>446.0</ele><time>2026-05-03T08:40:00Z</time></trkpt><trkpt lat="40.78700055987752" lon="8.991206480355864"><ele>446.0</ele><time>2026-05-03T08:40:01Z</time></trkpt><trkpt lat="40.78690441640991" lon="8.991329664853804"><ele>446.0</ele><time>2026-05-03T08:40:02Z</time></trkpt><trkpt lat="40.786794313630274" lon="8.991426234222484"><ele>446.0</ele><time>2026-05-03T08:40:03Z</time></trkpt><trkpt lat="40.786689073644276" lon="8.991509942878524"><ele>446.0</ele><time>2026-05-03T08:40:04Z</time></trkpt><trkpt lat="40.786602515206376" lon="8.991606080014444"><ele>446.25</ele><time>2026-05-03T08:40:05Z</time></trkpt><trkpt lat="40.786540161801035" lon="8.991729873791506"><ele>446.5</ele><time>2026-05-03T08:40:06Z</time></trkpt><trkpt lat="40.78652812864769" lon="8.991893770245097"><ele>446.75</ele><time>2026-05-03T08:40:07Z</time></trkpt><trkpt lat="40.78655380223992" lon="8.992066603167581"><ele>447.0</ele><time>2026-05-03T08:40:08Z</time></trkpt><trkpt lat="40.78658795508006" lon="8.99224325980208"><ele>447.0</ele><time>2026-05-03T08:40:09Z</time></trkpt><trkpt lat="40.786646471965334" lon="8.992397676808384"><ele>447.0</ele><time>2026-05-03T08:40:10Z</time></trkpt><trkpt lat="40.786643641959664" lon="8.992552095399567"><ele>447.0</ele><time>2026-05-03T08:40:11Z</time></trkpt><trkpt lat="40.78659728723626" lon="8.992675662622881"><ele>447.0</ele><time>2026-05-03T08:40:12Z</time></trkpt><trkpt lat="40.78652890210545" lon="8.99277616845304"><ele>449.5</ele><time>2026-05-03T08:40:13Z</time></trkpt><trkpt lat="40.78643208260951" lon="8.99284406887822"><ele>452.0</ele><time>2026-05-03T08:40:14Z</time></trkpt><trkpt lat="40.786306857929425" lon="8.992873212449274"><ele>454.5</ele><time>2026-05-03T08:40:15Z</time></trkpt><trkpt lat="40.7861718730969" lon="8.99285537391369"><ele>457.0</ele><time>2026-05-03T08:40:16Z</time></trkpt><trkpt lat="40.7860323827478" lon="8.992791199770616"><ele>456.6666666666667</ele><time>2026-05-03T08:40:17Z</time></trkpt><trkpt lat="40.78586830662689" lon="8.992713077031494"><ele>456.33333333333337</ele><time>2026-05-03T08:40:18Z</time></trkpt><trkpt lat="40.7857083315518" lon="8.99263602937688"><ele>456.0</ele><time>2026-05-03T08:40:19Z</time></trkpt><trkpt lat="40.78555081854497" lon="8.992564480721246"><ele>452.0</ele><time>2026-05-03T08:40:20Z</time></trkpt><trkpt lat="40.78541123625468" lon="8.992495098998546"><ele>448.0</ele><time>2026-05-03T08:40:21Z</time></trkpt><trkpt lat="40.785285331550604" lon="8.992453775809246"><ele>444.0</ele><time>2026-05-03T08:40:22Z</time></trkpt><trkpt lat="40.785147999673526" lon="8.992459684115673"><ele>440.0</ele><time>2026-05-03T08:40:23Z</time></trkpt><trkpt lat="40.785022696674126" lon="8.992519544593346"><ele>440.0</ele><time>2026-05-03T08:40:24Z</time></trkpt><trkpt lat="40.784921553119105" lon="8.992629406936466"><ele>440.0</ele><time>2026-05-03T08:40:25Z</time></trkpt><trkpt lat="40.78484875647017" lon="8.992777668266719"><ele>440.0</ele><time>2026-05-03T08:40:26Z</time></trkpt><trkpt lat="40.784785137933504" lon="8.99292446514622"><ele>440.0</ele><time>2026-05-03T08:40:27Z</time></trkpt><trkpt lat="40.78469923955747" lon="8.993040775844861"><ele>440.0</ele><time>2026-05-03T08:40:28Z</time></trkpt><trkpt lat="40.784580212137044" lon="8.993062653430535"><ele>440.0</ele><time>2026-05-03T08:40:29Z</time></trkpt><trkpt lat="40.78446186250608" lon="8.993053560649502"><ele>440.0</ele><time>2026-05-03T08:40:30Z</time></trkpt><trkpt lat="40.784331474537964" lon="8.993018044148332"><ele>440.0</ele><time>2026-05-03T08:40:31Z</time></trkpt><trkpt lat="40.78418479337842" lon="8.992980657498125"><ele>437.66666666666663</ele><time>2026-05-03T08:40:32Z</time></trkpt><trkpt lat="40.78403536118856" lon="8.99293420509633"><ele>435.33333333333337</ele><time>2026-05-03T08:40:33Z</time></trkpt><trkpt lat="40.7838793514125" lon="8.992905517786026"><ele>433.0</ele><time>2026-05-03T08:40:34Z</time></trkpt><trkpt lat="40.783720824752336" lon="8.992905999869148"><ele>433.0</ele><time>2026-05-03T08:40:35Z</time></trkpt><trkpt lat="40.78355882828827" lon="8.992944535831226"><ele>433.0</ele><time>2026-05-03T08:40:36Z</time></trkpt><trkpt lat="40.783398608095155" lon="8.993008906261283"><ele>433.0</ele><time>2026-05-03T08:40:37Z</time></trkpt><trkpt lat="40.78323644548693" lon="8.993074185811503"><ele>428.6666666666667</ele><time>2026-05-03T08:40:38Z</time></trkpt><trkpt lat="40.78308677470423" lon="8.993137240340218"><ele>424.33333333333337</ele><time>2026-05-03T08:40:39Z</time></trkpt><trkpt lat="40.78294099815832" lon="8.993198496836774"><ele>420.0</ele><time>2026-05-03T08:40:40Z</time></trkpt><trkpt lat="40.7827936316516" lon="8.99324860362175"><ele>420.0</ele><time>2026-05-03T08:40:41Z</time></trkpt><trkpt lat="40.78264471512807" lon="8.99330255646425"><ele>420.0</ele><time>2026-05-03T08:40:42Z</time></trkpt><trkpt lat="40.78250257901001" lon="8.993354685249873"><ele>420.0</ele><time>2026-05-03T08:40:43Z</time></trkpt><trkpt lat="40.78236536926468" lon="8.99340901313441"><ele>420.0</ele><time>2026-05-03T08:40:44Z</time></trkpt><trkpt lat="40.78222873421741" lon="8.993477947440281"><ele>420.0</ele><time>2026-05-03T08:40:45Z</time></trkpt><trkpt lat="40.782099526409304" lon="8.993581308546926"><ele>420.0</ele><time>2026-05-03T08:40:46Z</time></trkpt><trkpt lat="40.78198201819884" lon="8.993723544135465"><ele>420.0</ele><time>2026-05-03T08:40:47Z</time></trkpt><trkpt lat="40.781876869302955" lon="8.993881742894029"><ele>413.0</ele><time>2026-05-03T08:40:48Z</time></trkpt><trkpt lat="40.781780862939854" lon="8.994037584404287"><ele>406.0</ele><time>2026-05-03T08:40:49Z</time></trkpt><trkpt lat="40.78169042801002" lon="8.994180930577595"><ele>399.0</ele><time>2026-05-03T08:40:50Z</time></trkpt><trkpt lat="40.78162766567806" lon="8.994306717356986"><ele>392.0</ele><time>2026-05-03T08:40:51Z</time></trkpt><trkpt lat="40.78159662423035" lon="8.994433938419341"><ele>391.25</ele><time>2026-05-03T08:40:52Z</time></trkpt><trkpt lat="40.78160064680735" lon="8.99457641293732"><ele>390.5</ele><time>2026-05-03T08:40:53Z</time></trkpt><trkpt lat="40.781638633173635" lon="8.99471600956654"><ele>389.75</ele><time>2026-05-03T08:40:54Z</time></trkpt><trkpt lat="40.781702975326425" lon="8.99483953074324"><ele>389.0</ele><time>2026-05-03T08:40:55Z</time></trkpt><trkpt lat="40.781790654109514" lon="8.99494649424419"><ele>396.2</ele><time>2026-05-03T08:40:56Z</time></trkpt><trkpt lat="40.78189933382069" lon="8.995020136042212"><ele>403.4</ele><time>2026-05-03T08:40:57Z</time></trkpt><trkpt lat="40.78199418138144" lon="8.9950862843492"><ele>410.6</ele><time>2026-05-03T08:40:58Z</time></trkpt><trkpt lat="40.78205268947194" lon="8.995190241267434"><ele>417.8</ele><time>2026-05-03T08:40:59Z</time></trkpt><trkpt lat="40.782063518448005" lon="8.99531247781334"><ele>425.0</ele><time>2026-05-03T08:41:00Z</time></trkpt><trkpt lat="40.782053294873904" lon="8.995433537312001"><ele>425.0</ele><time>2026-05-03T08:41:01Z</time></trkpt><trkpt lat="40.782010125544716" lon="8.995558376649166"><ele>425.0</ele><time>2026-05-03T08:41:02Z</time></trkpt><trkpt lat="40.78191190363495" lon="8.9956245392413"><ele>425.0</ele><time>2026-05-03T08:41:03Z</time></trkpt><trkpt lat="40.78181206992182" lon="8.99562708532225"><ele>425.0</ele><time>2026-05-03T08:41:04Z</time></trkpt><trkpt lat="40.78168946195549" lon="8.995625991154911"><ele>425.0</ele><time>2026-05-03T08:41:05Z</time></trkpt><trkpt lat="40.78154442699859" lon="8.995646494294931"><ele>416.3333333333333</ele><time>2026-05-03T08:41:06Z</time></trkpt><trkpt lat="40.78139455284596" lon="8.99564732676194"><ele>407.66666666666663</ele><time>2026-05-03T08:41:07Z</time></trkpt><trkpt lat="40.78123009368778" lon="8.99565884134089"><ele>399.0</ele><time>2026-05-03T08:41:08Z</time></trkpt><trkpt lat="40.781077146602776" lon="8.995674544922398"><ele>396.0</ele><time>2026-05-03T08:41:09Z</time></trkpt><trkpt lat="40.780929140683114" lon="8.995679468355304"><ele>393.0</ele><time>2026-05-03T08:41:10Z</time></trkpt><trkpt lat="40.78078744376323" lon="8.995660643345115"><ele>390.0</ele><time>2026-05-03T08:41:11Z</time></trkpt><trkpt lat="40.780664573285435" lon="8.9955824459598"><ele>387.0</ele><time>2026-05-03T08:41:12Z</time></trkpt><trkpt lat="40.78052812460305" lon="8.995538500252241"><ele>387.0</ele><time>2026-05-03T08:41:13Z</time></trkpt><trkpt lat="40.780410444122516" lon="8.995467290354775"><ele>387.0</ele><time>2026-05-03T08:41:14Z</time></trkpt><trkpt lat="40.78027804604707" lon="8.995402329090169"><ele>387.0</ele><time>2026-05-03T08:41:15Z</time></trkpt><trkpt lat="40.78014710686361" lon="8.995404267761979"><ele>387.0</ele><time>2026-05-03T08:41:16Z</time></trkpt><trkpt lat="40.78000712841919" lon="8.995429707374688"><ele>387.25</ele><time>2026-05-03T08:41:17Z</time></trkpt><trkpt lat="40.77986762013628" lon="8.995398769086686"><ele>387.5</ele><time>2026-05-03T08:41:18Z</time></trkpt><trkpt lat="40.77973691980545" lon="8.995321764949917"><ele>387.75</ele><time>2026-05-03T08:41:19Z</time></trkpt><trkpt lat="40.77965182240961" lon="8.995179229457756"><ele>388.0</ele><time>2026-05-03T08:41:20Z</time></trkpt><trkpt lat="40.77957198620722" lon="8.995027647975823"><ele>383.75</ele><time>2026-05-03T08:41:21Z</time></trkpt><trkpt lat="40.77951407397736" lon="8.994860962965895"><ele>379.5</ele><time>2026-05-03T08:41:22Z</time></trkpt><trkpt lat="40.779455721959664" lon="8.994701649353505"><ele>375.25</ele><time>2026-05-03T08:41:23Z</time></trkpt><trkpt lat="40.779387409302416" lon="8.994571592409091"><ele>371.0</ele><time>2026-05-03T08:41:24Z</time></trkpt><trkpt lat="40.77930870706177" lon="8.994472811411297"><ele>371.0</ele><time>2026-05-03T08:41:25Z</time></trkpt><trkpt lat="40.77919925432398" lon="8.994406636700282"><ele>371.0</ele><time>2026-05-03T08:41:26Z</time></trkpt><trkpt lat="40.779078128140604" lon="8.994389210590214"><ele>371.0</ele><time>2026-05-03T08:41:27Z</time></trkpt><trkpt lat="40.77895914745216" lon="8.994447907696376"><ele>371.0</ele><time>2026-05-03T08:41:28Z</time></trkpt><trkpt lat="40.77884163953622" lon="8.994529964086142"><ele>371.0</ele><time>2026-05-03T08:41:29Z</time></trkpt><trkpt lat="40.77871189852029" lon="8.994621720031025"><ele>371.0</ele><time>2026-05-03T08:41:30Z</time></trkpt><trkpt lat="40.77858612124166" lon="8.994732508500368"><ele>371.0</ele><time>2026-05-03T08:41:31Z</time></trkpt><trkpt lat="40.7784560182966" lon="8.994839636820199"><ele>371.5</ele><time>2026-05-03T08:41:32Z</time></trkpt><trkpt lat="40.77832955753845" lon="8.994954614308972"><ele>372.0</ele><time>2026-05-03T08:41:33Z</time></trkpt><trkpt lat="40.77822641522946" lon="8.995069003177205"><ele>372.5</ele><time>2026-05-03T08:41:34Z</time></trkpt><trkpt lat="40.778144764152444" lon="8.995178350017547"><ele>373.0</ele><time>2026-05-03T08:41:35Z</time></trkpt><trkpt lat="40.77807454855281" lon="8.995293288480621"><ele>373.0</ele><time>2026-05-03T08:41:36Z</time></trkpt><trkpt lat="40.77801375073189" lon="8.995418377869198"><ele>373.0</ele><time>2026-05-03T08:41:37Z</time></trkpt><trkpt lat="40.777956615959106" lon="8.995543852922564"><ele>373.0</ele><time>2026-05-03T08:41:38Z</time></trkpt><trkpt lat="40.777900584839315" lon="8.995661279998272"><ele>373.0</ele><time>2026-05-03T08:41:39Z</time></trkpt><trkpt lat="40.7778325627194" lon="8.995776690295553"><ele>373.0</ele><time>2026-05-03T08:41:40Z</time></trkpt><trkpt lat="40.77775962396993" lon="8.995880521860538"><ele>367.4</ele><time>2026-05-03T08:41:41Z</time></trkpt><trkpt lat="40.777681883621526" lon="8.995978456377276"><ele>361.79999999999995</ele><time>2026-05-03T08:41:42Z</time></trkpt><trkpt lat="40.77760184751852" lon="8.996078297244901"><ele>356.2</ele><time>2026-05-03T08:41:43Z</time></trkpt><trkpt lat="40.77752454208175" lon="8.996185515076888"><ele>350.6</ele><time>2026-05-03T08:41:44Z</time></trkpt><trkpt lat="40.77745650746522" lon="8.996298545875582"><ele>345.0</ele><time>2026-05-03T08:41:45Z</time></trkpt><trkpt lat="40.77741860120741" lon="8.996446792779418"><ele>345.0</ele><time>2026-05-03T08:41:46Z</time></trkpt><trkpt lat="40.77743244626464" lon="8.996606597968778"><ele>345.0</ele><time>2026-05-03T08:41:47Z</time></trkpt><trkpt lat="40.77750093398576" lon="8.996756293822814"><ele>345.0</ele><time>2026-05-03T08:41:48Z</time></trkpt><trkpt lat="40.77760731398853" lon="8.99686994566945"><ele>345.0</ele><time>2026-05-03T08:41:49Z</time></trkpt><trkpt lat="40.7777212768222" lon="8.996946238655934"><ele>349.4</ele><time>2026-05-03T08:41:50Z</time></trkpt><trkpt lat="40.77781811429956" lon="8.997058277700297"><ele>353.8</ele><time>2026-05-03T08:41:51Z</time></trkpt><trkpt lat="40.77791801286485" lon="8.997137759980362"><ele>358.20000000000005</ele><time>2026-05-03T08:41:52Z</time></trkpt><trkpt lat="40.77793822199846" lon="8.997272747630952"><ele>362.6</ele><time>2026-05-03T08:41:53Z</time></trkpt><trkpt lat="40.777930324116696" lon="8.997386440780751"><ele>367.0</ele><time>2026-05-03T08:41:54Z</time></trkpt><trkpt lat="40.77789852340254" lon="8.997481833911221"><ele>367.0</ele><time>2026-05-03T08:41:55Z</time></trkpt><trkpt lat="40.77784603430842" lon="8.997554601298724"><ele>367.0</ele><time>2026-05-03T08:41:56Z</time></trkpt><trkpt lat="40.777775837545775" lon="8.997586117930684"><ele>367.0</ele><time>2026-05-03T08:41:57Z</time></trkpt><trkpt lat="40.77771034710932" lon="8.997629725145284"><ele>367.0</ele><time>2026-05-03T08:41:58Z</time></trkpt><trkpt lat="40.77763029855439" lon="8.997641114083534"><ele>367.0</ele><time>2026-05-03T08:41:59Z</time></trkpt><trkpt lat="40.77753821607962" lon="8.99760906187754"><ele>367.0</ele><time>2026-05-03T08:42:00Z</time></trkpt><trkpt lat="40.77743359338482" lon="8.997608443990805"><ele>367.0</ele><time>2026-05-03T08:42:01Z</time></trkpt><trkpt lat="40.77732010908593" lon="8.99758631207497"><ele>367.0</ele><time>2026-05-03T08:42:02Z</time></trkpt><trkpt lat="40.77719435636431" lon="8.997569665586685"><ele>367.0</ele><time>2026-05-03T08:42:03Z</time></trkpt><trkpt lat="40.777056046931705" lon="8.997561671794289"><ele>367.0</ele><time>2026-05-03T08:42:04Z</time></trkpt><trkpt lat="40.77691001660747" lon="8.99755794137217"><ele>362.66666666666663</ele><time>2026-05-03T08:42:05Z</time></trkpt><trkpt lat="40.77675737452995" lon="8.997557652159198"><ele>358.3333333333333</ele><time>2026-05-03T08:42:06Z</time></trkpt><trkpt lat="40.77660357210842" lon="8.997562982563126"><ele>354.0</ele><time>2026-05-03T08:42:07Z</time></trkpt><trkpt lat="40.776454547577444" lon="8.997559942226355"><ele>354.0</ele><time>2026-05-03T08:42:08Z</time></trkpt><trkpt lat="40.77631089326976" lon="8.997562995105184"><ele>354.0</ele><time>2026-05-03T08:42:09Z</time></trkpt><trkpt lat="40.77617875366882" lon="8.997570599881593"><ele>354.0</ele><time>2026-05-03T08:42:10Z</time></trkpt><trkpt lat="40.7760520606457" lon="8.997618177114633"><ele>354.0</ele><time>2026-05-03T08:42:11Z</time></trkpt><trkpt lat="40.77594348887773" lon="8.997737020707259"><ele>348.5</ele><time>2026-05-03T08:42:12Z</time></trkpt><trkpt lat="40.77585076226291" lon="8.997875474682292"><ele>343.0</ele><time>2026-05-03T08:42:13Z</time></trkpt><trkpt lat="40.7757641030769" lon="8.998016121375974"><ele>337.5</ele><time>2026-05-03T08:42:14Z</time></trkpt><trkpt lat="40.77568679285924" lon="8.998145126650545"><ele>332.0</ele><time>2026-05-03T08:42:15Z</time></trkpt><trkpt lat="40.77562876385315" lon="8.998285153276074"><ele>333.5</ele><time>2026-05-03T08:42:16Z</time></trkpt><trkpt lat="40.77560959638809" lon="8.998444744870485"><ele>335.0</ele><time>2026-05-03T08:42:17Z</time></trkpt><trkpt lat="40.77562205748626" lon="8.998611865295322"><ele>336.5</ele><time>2026-05-03T08:42:18Z</time></trkpt><trkpt lat="40.775639993162784" lon="8.998778353161814"><ele>338.0</ele><time>2026-05-03T08:42:19Z</time></trkpt><trkpt lat="40.77564910569903" lon="8.998940187392154"><ele>338.0</ele><time>2026-05-03T08:42:20Z</time></trkpt><trkpt lat="40.77565717080094" lon="8.999115848055784"><ele>338.0</ele><time>2026-05-03T08:42:21Z</time></trkpt><trkpt lat="40.77562004851" lon="8.999279923861241"><ele>338.0</ele><time>2026-05-03T08:42:22Z</time></trkpt><trkpt lat="40.77555241244084" lon="8.999426879133944"><ele>338.0</ele><time>2026-05-03T08:42:23Z</time></trkpt><trkpt lat="40.7754639043932" lon="8.999571599940154"><ele>339.75</ele><time>2026-05-03T08:42:24Z</time></trkpt><trkpt lat="40.7753737381155" lon="8.999727101939097"><ele>341.5</ele><time>2026-05-03T08:42:25Z</time></trkpt><trkpt lat="40.775276782781944" lon="8.999877719302505"><ele>343.25</ele><time>2026-05-03T08:42:26Z</time></trkpt><trkpt lat="40.77518490662703" lon="9.00003649373198"><ele>345.0</ele><time>2026-05-03T08:42:27Z</time></trkpt><trkpt lat="40.77509025145145" lon="9.000199050899583"><ele>331.6666666666667</ele><time>2026-05-03T08:42:28Z</time></trkpt><trkpt lat="40.774999300384835" lon="9.000374350567618"><ele>318.33333333333337</ele><time>2026-05-03T08:42:29Z</time></trkpt><trkpt lat="40.774929149861634" lon="9.000577653025873"><ele>305.0</ele><time>2026-05-03T08:42:30Z</time></trkpt><trkpt lat="40.774892370759865" lon="9.000785250697012"><ele>310.33333333333337</ele><time>2026-05-03T08:42:31Z</time></trkpt><trkpt lat="40.77479146728528" lon="9.000971126878273"><ele>315.6666666666667</ele><time>2026-05-03T08:42:32Z</time></trkpt><trkpt lat="40.774694725034365" lon="9.001130333669359"><ele>321.0</ele><time>2026-05-03T08:42:33Z</time></trkpt><trkpt lat="40.77460033357576" lon="9.001275947981982"><ele>321.0</ele><time>2026-05-03T08:42:34Z</time></trkpt><trkpt lat="40.774474683483476" lon="9.001387162126811"><ele>321.0</ele><time>2026-05-03T08:42:35Z</time></trkpt><trkpt lat="40.77434931073343" lon="9.001479395621198"><ele>321.0</ele><time>2026-05-03T08:42:36Z</time></trkpt><trkpt lat="40.77421520806404" lon="9.001583415894235"><ele>316.0</ele><time>2026-05-03T08:42:37Z</time></trkpt><trkpt lat="40.77407861959706" lon="9.001682800868632"><ele>311.0</ele><time>2026-05-03T08:42:38Z</time></trkpt><trkpt lat="40.773941640473545" lon="9.001776940035686"><ele>306.0</ele><time>2026-05-03T08:42:39Z</time></trkpt><trkpt lat="40.77379542472229" lon="9.001868788654102"><ele>306.0</ele><time>2026-05-03T08:42:40Z</time></trkpt><trkpt lat="40.773647218841845" lon="9.001942797437799"><ele>306.0</ele><time>2026-05-03T08:42:41Z</time></trkpt><trkpt lat="40.773500772316964" lon="9.00200499210647"><ele>306.0</ele><time>2026-05-03T08:42:42Z</time></trkpt><trkpt lat="40.77336204399121" lon="9.002074203563463"><ele>299.5</ele><time>2026-05-03T08:42:43Z</time></trkpt><trkpt lat="40.77322827576226" lon="9.002133897900201"><ele>293.0</ele><time>2026-05-03T08:42:44Z</time></trkpt><trkpt lat="40.773105246212786" lon="9.002203088693198"><ele>286.5</ele><time>2026-05-03T08:42:45Z</time></trkpt><trkpt lat="40.7729949411961" lon="9.002315922711233"><ele>280.0</ele><time>2026-05-03T08:42:46Z</time></trkpt><trkpt lat="40.77289850613543" lon="9.002461640000568"><ele>278.25</ele><time>2026-05-03T08:42:47Z</time></trkpt><trkpt lat="40.772807093731025" lon="9.002622028475894"><ele>276.5</ele><time>2026-05-03T08:42:48Z</time></trkpt><trkpt lat="40.77271698951616" lon="9.002783569016476"><ele>274.75</ele><time>2026-05-03T08:42:49Z</time></trkpt><trkpt lat="40.7726313809542" lon="9.002934233249768"><ele>273.0</ele><time>2026-05-03T08:42:50Z</time></trkpt><trkpt lat="40.77253777033846" lon="9.003069608286651"><ele>273.0</ele><time>2026-05-03T08:42:51Z</time></trkpt><trkpt lat="40.77241460038926" lon="9.003142751563423"><ele>273.0</ele><time>2026-05-03T08:42:52Z</time></trkpt><trkpt lat="40.77228340914178" lon="9.003177598624285"><ele>273.0</ele><time>2026-05-03T08:42:53Z</time></trkpt><trkpt lat="40.772143153422945" lon="9.003192662168988"><ele>273.0</ele><time>2026-05-03T08:42:54Z</time></trkpt><trkpt lat="40.772009928860115" lon="9.003225800732823"><ele>273.0</ele><time>2026-05-03T08:42:55Z</time></trkpt><trkpt lat="40.77187607801838" lon="9.003295278098383"><ele>273.0</ele><time>2026-05-03T08:42:56Z</time></trkpt><trkpt lat="40.771750005856454" lon="9.003384084819567"><ele>273.0</ele><time>2026-05-03T08:42:57Z</time></trkpt><trkpt lat="40.77164197732255" lon="9.003495633514367"><ele>273.0</ele><time>2026-05-03T08:42:58Z</time></trkpt><trkpt lat="40.77157780952361" lon="9.003645976261161"><ele>272.3333333333333</ele><time>2026-05-03T08:42:59Z</time></trkpt><trkpt lat="40.771510261273185" lon="9.003781312343294"><ele>271.6666666666667</ele><time>2026-05-03T08:43:00Z</time></trkpt><trkpt lat="40.77147089996695" lon="9.003902361766471"><ele>271.0</ele><time>2026-05-03T08:43:01Z</time></trkpt><trkpt lat="40.77144280751682" lon="9.004006715395512"><ele>270.33333333333337</ele><time>2026-05-03T08:43:02Z</time></trkpt><trkpt lat="40.771419987833305" lon="9.004100395411413"><ele>269.6666666666667</ele><time>2026-05-03T08:43:03Z</time></trkpt><trkpt lat="40.77140183884682" lon="9.00418085084758"><ele>269.0</ele><time>2026-05-03T08:43:04Z</time></trkpt><trkpt lat="40.77138883582807" lon="9.004312507464062"><ele>272.1666666666667</ele><time>2026-05-03T08:43:06Z</time></trkpt><trkpt lat="40.77138387150311" lon="9.004418992598904"><ele>275.33333333333337</ele><time>2026-05-03T08:43:08Z</time></trkpt><trkpt lat="40.771381419354526" lon="9.004505089490278"><ele>278.5</ele><time>2026-05-03T08:43:11Z</time></trkpt><trkpt lat="40.77138040144046" lon="9.004594072319467"><ele>281.6666666666667</ele><time>2026-05-03T08:43:45Z</time></trkpt><trkpt lat="40.77138583226721" lon="9.004725569893955"><ele>284.8333333333333</ele><time>2026-05-03T08:43:47Z</time></trkpt><trkpt lat="40.77138539116603" lon="9.004844924691861"><ele>288.0</ele><time>2026-05-03T08:43:49Z</time></trkpt><trkpt lat="40.77141263193125" lon="9.00497294727037"><ele>286.4</ele><time>2026-05-03T08:43:52Z</time></trkpt><trkpt lat="40.771449120609475" lon="9.005062688965529"><ele>284.8</ele><time>2026-05-03T08:43:54Z</time></trkpt><trkpt lat="40.7715195441321" lon="9.005173107016116"><ele>283.2</ele><time>2026-05-03T08:43:56Z</time></trkpt><trkpt lat="40.77157744392512" lon="9.00527735768198"><ele>281.6</ele><time>2026-05-03T08:43:58Z</time></trkpt><trkpt lat="40.77165258948559" lon="9.005406742847528"><ele>280.0</ele><time>2026-05-03T08:44:00Z</time></trkpt><trkpt lat="40.771697292633235" lon="9.005488578791674"><ele>280.0</ele><time>2026-05-03T08:44:01Z</time></trkpt><trkpt lat="40.77174250375628" lon="9.005588613101699"><ele>280.0</ele><time>2026-05-03T08:44:02Z</time></trkpt><trkpt lat="40.771764194692" lon="9.00570779564441"><ele>280.0</ele><time>2026-05-03T08:44:03Z</time></trkpt><trkpt lat="40.771807627628824" lon="9.005814522009768"><ele>280.0</ele><time>2026-05-03T08:44:04Z</time></trkpt><trkpt lat="40.771829377835736" lon="9.005910458378251"><ele>280.0</ele><time>2026-05-03T08:44:05Z</time></trkpt><trkpt lat="40.771849451115735" lon="9.005992935456511"><ele>280.0</ele><time>2026-05-03T08:44:06Z</time></trkpt><trkpt lat="40.77187710723211" lon="9.006070424745738"><ele>281.3333333333333</ele><time>2026-05-03T08:44:07Z</time></trkpt><trkpt lat="40.77190900765944" lon="9.006146493220731"><ele>282.66666666666663</ele><time>2026-05-03T08:44:08Z</time></trkpt><trkpt lat="40.77195084563291" lon="9.006221031121784"><ele>284.0</ele><time>2026-05-03T08:44:09Z</time></trkpt><trkpt lat="40.77200272737535" lon="9.006296246421865"><ele>285.3333333333333</ele><time>2026-05-03T08:44:10Z</time></trkpt><trkpt lat="40.77205916886715" lon="9.006383312338889"><ele>286.6666666666667</ele><time>2026-05-03T08:44:11Z</time></trkpt><trkpt lat="40.77210919734461" lon="9.006481187046141"><ele>288.0</ele><time>2026-05-03T08:44:12Z</time></trkpt><trkpt lat="40.772120661846245" lon="9.006594819153381"><ele>283.5</ele><time>2026-05-03T08:44:13Z</time></trkpt><trkpt lat="40.772122855911846" lon="9.00669349936744"><ele>279.0</ele><time>2026-05-03T08:44:14Z</time></trkpt><trkpt lat="40.7720574378725" lon="9.006773711968023"><ele>274.5</ele><time>2026-05-03T08:44:15Z</time></trkpt><trkpt lat="40.771992598413455" lon="9.006841890015915"><ele>270.0</ele><time>2026-05-03T08:44:16Z</time></trkpt><trkpt lat="40.77189434452973" lon="9.00682196291943"><ele>265.5</ele><time>2026-05-03T08:44:17Z</time></trkpt><trkpt lat="40.77180485716374" lon="9.006796478529342"><ele>261.0</ele><time>2026-05-03T08:44:18Z</time></trkpt><trkpt lat="40.77174003962609" lon="9.006686876820345"><ele>261.5</ele><time>2026-05-03T08:44:19Z</time></trkpt><trkpt lat="40.77171863326572" lon="9.006550478991768"><ele>262.0</ele><time>2026-05-03T08:44:20Z</time></trkpt><trkpt lat="40.771703847130986" lon="9.006390602517671"><ele>262.5</ele><time>2026-05-03T08:44:21Z</time></trkpt><trkpt lat="40.77168255288627" lon="9.006221557844919"><ele>263.0</ele><time>2026-05-03T08:44:22Z</time></trkpt><trkpt lat="40.77163761716215" lon="9.006067156429213"><ele>263.0</ele><time>2026-05-03T08:44:23Z</time></trkpt><trkpt lat="40.77158692302083" lon="9.005914610663535"><ele>263.0</ele><time>2026-05-03T08:44:24Z</time></trkpt><trkpt lat="40.7715192420177" lon="9.005770720974068"><ele>263.0</ele><time>2026-05-03T08:44:25Z</time></trkpt><trkpt lat="40.77142596333532" lon="9.005635338479507"><ele>263.0</ele><time>2026-05-03T08:44:26Z</time></trkpt><trkpt lat="40.77131773045633" lon="9.005538821846798"><ele>267.25</ele><time>2026-05-03T08:44:27Z</time></trkpt><trkpt lat="40.77122860632347" lon="9.005429041460953"><ele>271.5</ele><time>2026-05-03T08:44:28Z</time></trkpt><trkpt lat="40.77113563071702" lon="9.005329292218931"><ele>275.75</ele><time>2026-05-03T08:44:29Z</time></trkpt><trkpt lat="40.771060405379686" lon="9.005206240943014"><ele>280.0</ele><time>2026-05-03T08:44:30Z</time></trkpt><trkpt lat="40.77103014000728" lon="9.005046861006303"><ele>282.0</ele><time>2026-05-03T08:44:31Z</time></trkpt><trkpt lat="40.77102437608685" lon="9.004873502266936"><ele>284.0</ele><time>2026-05-03T08:44:32Z</time></trkpt><trkpt lat="40.771020879671106" lon="9.00468917226649"><ele>286.0</ele><time>2026-05-03T08:44:33Z</time></trkpt><trkpt lat="40.77101669471604" lon="9.004494272709904"><ele>288.0</ele><time>2026-05-03T08:44:34Z</time></trkpt><trkpt lat="40.770994881117026" lon="9.004290416493328"><ele>274.75</ele><time>2026-05-03T08:44:35Z</time></trkpt><trkpt lat="40.77099199680185" lon="9.004086507593604"><ele>261.5</ele><time>2026-05-03T08:44:36Z</time></trkpt><trkpt lat="40.7709889751345" lon="9.00390146961628"><ele>248.25</ele><time>2026-05-03T08:44:37Z</time></trkpt><trkpt lat="40.77098347301237" lon="9.003723374760849"><ele>235.0</ele><time>2026-05-03T08:44:38Z</time></trkpt><trkpt lat="40.77098293270719" lon="9.003549194279747"><ele>235.0</ele><time>2026-05-03T08:44:39Z</time></trkpt><trkpt lat="40.770991396332604" lon="9.00336949407768"><ele>235.0</ele><time>2026-05-03T08:44:40Z</time></trkpt><trkpt lat="40.77103205730615" lon="9.003198352400926"><ele>235.0</ele><time>2026-05-03T08:44:41Z</time></trkpt><trkpt lat="40.77103829716033" lon="9.003031290518779"><ele>235.0</ele><time>2026-05-03T08:44:42Z</time></trkpt><trkpt lat="40.7710536634821" lon="9.002877171928388"><ele>236.6</ele><time>2026-05-03T08:44:43Z</time></trkpt><trkpt lat="40.77103613168672" lon="9.002733393423682"><ele>238.2</ele><time>2026-05-03T08:44:44Z</time></trkpt><trkpt lat="40.7709770617932" lon="9.002607134861876"><ele>239.8</ele><time>2026-05-03T08:44:45Z</time></trkpt><trkpt lat="40.7708867364413" lon="9.002522295680304"><ele>241.4</ele><time>2026-05-03T08:44:46Z</time></trkpt><trkpt lat="40.77078402967391" lon="9.002482393989503"><ele>243.0</ele><time>2026-05-03T08:44:47Z</time></trkpt><trkpt lat="40.77067243418741" lon="9.00250015003711"><ele>239.4</ele><time>2026-05-03T08:44:48Z</time></trkpt><trkpt lat="40.770573951900175" lon="9.002558235055938"><ele>235.8</ele><time>2026-05-03T08:44:49Z</time></trkpt><trkpt lat="40.7705017966823" lon="9.002654459666177"><ele>232.2</ele><time>2026-05-03T08:44:50Z</time></trkpt><trkpt lat="40.77045421350857" lon="9.002771594276094"><ele>228.6</ele><time>2026-05-03T08:44:51Z</time></trkpt><trkpt lat="40.77044666702148" lon="9.002905129962109"><ele>225.0</ele><time>2026-05-03T08:44:52Z</time></trkpt><trkpt lat="40.770467582385294" lon="9.003028463299456"><ele>225.0</ele><time>2026-05-03T08:44:53Z</time></trkpt><trkpt lat="40.77049696454704" lon="9.003140751944276"><ele>225.0</ele><time>2026-05-03T08:44:54Z</time></trkpt><trkpt lat="40.77053580923058" lon="9.003246350383586"><ele>225.0</ele><time>2026-05-03T08:44:55Z</time></trkpt><trkpt lat="40.770576418109194" lon="9.003352737021842"><ele>225.0</ele><time>2026-05-03T08:44:56Z</time></trkpt><trkpt lat="40.77061886055237" lon="9.003465526133349"><ele>225.0</ele><time>2026-05-03T08:44:57Z</time></trkpt><trkpt lat="40.77066126372969" lon="9.003588606508583"><ele>227.0</ele><time>2026-05-03T08:44:58Z</time></trkpt><trkpt lat="40.77069901877065" lon="9.003729131184643"><ele>229.0</ele><time>2026-05-03T08:44:59Z</time></trkpt><trkpt lat="40.7707023723864" lon="9.003885876310372"><ele>231.0</ele><time>2026-05-03T08:45:00Z</time></trkpt><trkpt lat="40.77071648019421" lon="9.00404759802229"><ele>233.0</ele><time>2026-05-03T08:45:01Z</time></trkpt><trkpt lat="40.77069217617401" lon="9.004214053404317"><ele>233.0</ele><time>2026-05-03T08:45:02Z</time></trkpt><trkpt lat="40.770686039297814" lon="9.004383550434998"><ele>233.0</ele><time>2026-05-03T08:45:03Z</time></trkpt><trkpt lat="40.77067785108584" lon="9.004561663560132"><ele>233.0</ele><time>2026-05-03T08:45:04Z</time></trkpt><trkpt lat="40.77063424622236" lon="9.00473261310645"><ele>233.0</ele><time>2026-05-03T08:45:05Z</time></trkpt><trkpt lat="40.77057239152236" lon="9.004877016812188"><ele>233.75</ele><time>2026-05-03T08:45:06Z</time></trkpt><trkpt lat="40.77049616814876" lon="9.005028122826353"><ele>234.5</ele><time>2026-05-03T08:45:07Z</time></trkpt><trkpt lat="40.77041042589682" lon="9.005174751041373"><ele>235.25</ele><time>2026-05-03T08:45:08Z</time></trkpt><trkpt lat="40.77033003444397" lon="9.00532934544831"><ele>236.0</ele><time>2026-05-03T08:45:09Z</time></trkpt><trkpt lat="40.77021232761462" lon="9.005433871867265"><ele>226.75</ele><time>2026-05-03T08:45:10Z</time></trkpt><trkpt lat="40.77010145150414" lon="9.005514339188514"><ele>217.5</ele><time>2026-05-03T08:45:11Z</time></trkpt><trkpt lat="40.76998312614092" lon="9.005576579576923"><ele>208.25</ele><time>2026-05-03T08:45:12Z</time></trkpt><trkpt lat="40.76988319088139" lon="9.005650943713952"><ele>199.0</ele><time>2026-05-03T08:45:13Z</time></trkpt><trkpt lat="40.76979374323243" lon="9.005747797187283"><ele>201.39999999999998</ele><time>2026-05-03T08:45:14Z</time></trkpt><trkpt lat="40.76973096876525" lon="9.005866706113945"><ele>203.8</ele><time>2026-05-03T08:45:15Z</time></trkpt><trkpt lat="40.769700362475504" lon="9.00602551798595"><ele>206.2</ele><time>2026-05-03T08:45:16Z</time></trkpt><trkpt lat="40.76964884425642" lon="9.00611714852672"><ele>208.60000000000002</ele><time>2026-05-03T08:45:17Z</time></trkpt><trkpt lat="40.76959201560279" lon="9.006184050213252"><ele>211.0</ele><time>2026-05-03T08:45:18Z</time></trkpt><trkpt lat="40.7695107573791" lon="9.006207120567735"><ele>211.0</ele><time>2026-05-03T08:45:19Z</time></trkpt><trkpt lat="40.76941907451267" lon="9.006184068073145"><ele>211.0</ele><time>2026-05-03T08:45:20Z</time></trkpt><trkpt lat="40.76934275209304" lon="9.006120924752391"><ele>211.0</ele><time>2026-05-03T08:45:21Z</time></trkpt><trkpt lat="40.769297535432095" lon="9.006014910581246"><ele>211.0</ele><time>2026-05-03T08:45:22Z</time></trkpt><trkpt lat="40.76928459122227" lon="9.00588877657609"><ele>211.0</ele><time>2026-05-03T08:45:23Z</time></trkpt><trkpt lat="40.769325308859415" lon="9.005755553723501"><ele>208.60000000000002</ele><time>2026-05-03T08:45:24Z</time></trkpt><trkpt lat="40.76939630379466" lon="9.005670231494372"><ele>206.2</ele><time>2026-05-03T08:45:25Z</time></trkpt><trkpt lat="40.76949965729625" lon="9.005639255765907"><ele>203.8</ele><time>2026-05-03T08:45:26Z</time></trkpt><trkpt lat="40.76961328863366" lon="9.005626586851445"><ele>201.39999999999998</ele><time>2026-05-03T08:45:27Z</time></trkpt><trkpt lat="40.769718043932286" lon="9.005582866985845"><ele>199.0</ele><time>2026-05-03T08:45:28Z</time></trkpt><trkpt lat="40.76980754069108" lon="9.005492235442562"><ele>199.0</ele><time>2026-05-03T08:45:29Z</time></trkpt><trkpt lat="40.76988253307037" lon="9.00540759553211"><ele>199.0</ele><time>2026-05-03T08:45:30Z</time></trkpt><trkpt lat="40.769952877469535" lon="9.005337248022538"><ele>199.0</ele><time>2026-05-03T08:45:31Z</time></trkpt><trkpt lat="40.77002383080192" lon="9.005280906476955"><ele>199.0</ele><time>2026-05-03T08:45:32Z</time></trkpt><trkpt lat="40.77008658601461" lon="9.00519947749378"><ele>199.0</ele><time>2026-05-03T08:45:33Z</time></trkpt><trkpt lat="40.77015151561082" lon="9.005080444725142"><ele>207.5</ele><time>2026-05-03T08:45:34Z</time></trkpt><trkpt lat="40.7702065161331" lon="9.004970068734792"><ele>216.0</ele><time>2026-05-03T08:45:35Z</time></trkpt><trkpt lat="40.77023978121137" lon="9.004819814526437"><ele>224.5</ele><time>2026-05-03T08:45:36Z</time></trkpt><trkpt lat="40.770264729684534" lon="9.00466172834754"><ele>233.0</ele><time>2026-05-03T08:45:37Z</time></trkpt><trkpt lat="40.7703005520589" lon="9.004510555736347"><ele>233.0</ele><time>2026-05-03T08:45:38Z</time></trkpt><trkpt lat="40.77031080498653" lon="9.004352480201565"><ele>233.0</ele><time>2026-05-03T08:45:39Z</time></trkpt><trkpt lat="40.770290808998894" lon="9.004185704844778"><ele>233.0</ele><time>2026-05-03T08:45:40Z</time></trkpt><trkpt lat="40.770218339516134" lon="9.00403862133951"><ele>233.0</ele><time>2026-05-03T08:45:41Z</time></trkpt><trkpt lat="40.77013262890281" lon="9.003957993000123"><ele>225.25</ele><time>2026-05-03T08:45:42Z</time></trkpt><trkpt lat="40.77001552175215" lon="9.003888691929637"><ele>217.5</ele><time>2026-05-03T08:45:43Z</time></trkpt><trkpt lat="40.76989766787558" lon="9.003889136972743"><ele>209.75</ele><time>2026-05-03T08:45:44Z</time></trkpt><trkpt lat="40.76979226746578" lon="9.00393276157206"><ele>202.0</ele><time>2026-05-03T08:45:45Z</time></trkpt><trkpt lat="40.769694211262255" lon="9.00401408182436"><ele>202.0</ele><time>2026-05-03T08:45:46Z</time></trkpt><trkpt lat="40.76957102796572" lon="9.004081361481845"><ele>202.0</ele><time>2026-05-03T08:45:47Z</time></trkpt><trkpt lat="40.76946266050772" lon="9.004161855289006"><ele>202.0</ele><time>2026-05-03T08:45:48Z</time></trkpt><trkpt lat="40.76935187727096" lon="9.004246746089853"><ele>202.0</ele><time>2026-05-03T08:45:49Z</time></trkpt><trkpt lat="40.7692273284796" lon="9.004325262436206"><ele>198.0</ele><time>2026-05-03T08:45:50Z</time></trkpt><trkpt lat="40.76910794509228" lon="9.00437436630682"><ele>194.0</ele><time>2026-05-03T08:45:51Z</time></trkpt><trkpt lat="40.76897800707035" lon="9.004381592343188"><ele>190.0</ele><time>2026-05-03T08:45:52Z</time></trkpt><trkpt lat="40.76885094160351" lon="9.00436523415611"><ele>186.0</ele><time>2026-05-03T08:45:53Z</time></trkpt><trkpt lat="40.76872312350435" lon="9.004330802469424"><ele>186.0</ele><time>2026-05-03T08:45:54Z</time></trkpt><trkpt lat="40.76860032964985" lon="9.004277523876267"><ele>186.0</ele><time>2026-05-03T08:45:55Z</time></trkpt><trkpt lat="40.76848179247897" lon="9.004189869231645"><ele>186.0</ele><time>2026-05-03T08:45:56Z</time></trkpt><trkpt lat="40.76836854857514" lon="9.004088603769782"><ele>186.0</ele><time>2026-05-03T08:45:57Z</time></trkpt><trkpt lat="40.76825322137422" lon="9.004003926574175"><ele>192.25</ele><time>2026-05-03T08:45:58Z</time></trkpt><trkpt lat="40.76814485450008" lon="9.003949975228178"><ele>198.5</ele><time>2026-05-03T08:45:59Z</time></trkpt><trkpt lat="40.76804421616747" lon="9.003932487871834"><ele>204.75</ele><time>2026-05-03T08:46:00Z</time></trkpt><trkpt lat="40.76792856214198" lon="9.003975970969748"><ele>211.0</ele><time>2026-05-03T08:46:01Z</time></trkpt><trkpt lat="40.76780977568674" lon="9.00404987079458"><ele>211.0</ele><time>2026-05-03T08:46:02Z</time></trkpt><trkpt lat="40.76772100640981" lon="9.004144322789882"><ele>211.0</ele><time>2026-05-03T08:46:03Z</time></trkpt><trkpt lat="40.767618290522115" lon="9.004283869020238"><ele>211.0</ele><time>2026-05-03T08:46:04Z</time></trkpt><trkpt lat="40.76754448955293" lon="9.004448124315351"><ele>211.0</ele><time>2026-05-03T08:46:05Z</time></trkpt><trkpt lat="40.76746609556953" lon="9.004607270307062"><ele>210.0</ele><time>2026-05-03T08:46:06Z</time></trkpt><trkpt lat="40.76737891250322" lon="9.004759136166395"><ele>209.0</ele><time>2026-05-03T08:46:07Z</time></trkpt><trkpt lat="40.76731148473696" lon="9.004923498806928"><ele>208.0</ele><time>2026-05-03T08:46:08Z</time></trkpt><trkpt lat="40.76726221219696" lon="9.005088451639129"><ele>207.0</ele><time>2026-05-03T08:46:09Z</time></trkpt><trkpt lat="40.767220171414536" lon="9.005274374634006"><ele>204.0</ele><time>2026-05-03T08:46:10Z</time></trkpt><trkpt lat="40.76716983975187" lon="9.005451640236476"><ele>201.0</ele><time>2026-05-03T08:46:11Z</time></trkpt><trkpt lat="40.76712030246683" lon="9.005629432841742"><ele>198.0</ele><time>2026-05-03T08:46:12Z</time></trkpt><trkpt lat="40.76705407714957" lon="9.005794414208754"><ele>195.0</ele><time>2026-05-03T08:46:13Z</time></trkpt><trkpt lat="40.7670058266967" lon="9.005944257729286"><ele>193.0</ele><time>2026-05-03T08:46:14Z</time></trkpt><trkpt lat="40.76696837377654" lon="9.006065135195554"><ele>191.0</ele><time>2026-05-03T08:46:15Z</time></trkpt><trkpt lat="40.766871481623674" lon="9.006139931569303"><ele>189.0</ele><time>2026-05-03T08:46:16Z</time></trkpt><trkpt lat="40.76676038017244" lon="9.006201279502477"><ele>187.0</ele><time>2026-05-03T08:46:17Z</time></trkpt><trkpt lat="40.766671128102125" lon="9.006218760860282"><ele>185.0</ele><time>2026-05-03T08:46:18Z</time></trkpt><trkpt lat="40.76658585524238" lon="9.006228503448154"><ele>190.8</ele><time>2026-05-03T08:46:19Z</time></trkpt><trkpt lat="40.76649699496914" lon="9.006237681207724"><ele>196.6</ele><time>2026-05-03T08:46:20Z</time></trkpt><trkpt lat="40.76640502835432" lon="9.00625931688961"><ele>202.39999999999998</ele><time>2026-05-03T08:46:21Z</time></trkpt><trkpt lat="40.76631163223826" lon="9.00626051375468"><ele>208.2</ele><time>2026-05-03T08:46:22Z</time></trkpt><trkpt lat="40.766215436659124" lon="9.006266054841472"><ele>214.0</ele><time>2026-05-03T08:46:23Z</time></trkpt><trkpt lat="40.76611508726637" lon="9.006271291906266"><ele>217.0</ele><time>2026-05-03T08:46:24Z</time></trkpt><trkpt lat="40.766009413024385" lon="9.006280154254755"><ele>220.0</ele><time>2026-05-03T08:46:25Z</time></trkpt><trkpt lat="40.76590111122728" lon="9.0063031225276"><ele>223.0</ele><time>2026-05-03T08:46:26Z</time></trkpt><trkpt lat="40.765796691982786" lon="9.006363596373221"><ele>226.0</ele><time>2026-05-03T08:46:27Z</time></trkpt><trkpt lat="40.765695526758606" lon="9.006452283743192"><ele>226.0</ele><time>2026-05-03T08:46:28Z</time></trkpt><trkpt lat="40.765601718223444" lon="9.00656867244354"><ele>226.0</ele><time>2026-05-03T08:46:29Z</time></trkpt><trkpt lat="40.76549835082232" lon="9.006677285268912"><ele>226.0</ele><time>2026-05-03T08:46:30Z</time></trkpt><trkpt lat="40.765400477231985" lon="9.006793883945093"><ele>226.0</ele><time>2026-05-03T08:46:31Z</time></trkpt><trkpt lat="40.765287820056614" lon="9.006900414591744"><ele>225.5</ele><time>2026-05-03T08:46:32Z</time></trkpt><trkpt lat="40.76517418975581" lon="9.007001814361729"><ele>225.0</ele><time>2026-05-03T08:46:33Z</time></trkpt><trkpt lat="40.76505601348173" lon="9.007045043575426"><ele>224.5</ele><time>2026-05-03T08:46:34Z</time></trkpt><trkpt lat="40.76493610853229" lon="9.0070929238918"><ele>224.0</ele><time>2026-05-03T08:46:35Z</time></trkpt><trkpt lat="40.764798126281946" lon="9.007094030869405"><ele>224.0</ele><time>2026-05-03T08:46:36Z</time></trkpt><trkpt lat="40.76464832483576" lon="9.007075165804974"><ele>224.0</ele><time>2026-05-03T08:46:37Z</time></trkpt><trkpt lat="40.764487590276815" lon="9.007037888857901"><ele>224.0</ele><time>2026-05-03T08:46:38Z</time></trkpt><trkpt lat="40.764322273402186" lon="9.007004135514252"><ele>225.0</ele><time>2026-05-03T08:46:39Z</time></trkpt><trkpt lat="40.7641708448468" lon="9.00698405051735"><ele>226.0</ele><time>2026-05-03T08:46:40Z</time></trkpt><trkpt lat="40.76403682727869" lon="9.006993944492455"><ele>227.0</ele><time>2026-05-03T08:46:41Z</time></trkpt><trkpt lat="40.763925441356086" lon="9.007065613424452"><ele>228.0</ele><time>2026-05-03T08:46:42Z</time></trkpt><trkpt lat="40.76383867043485" lon="9.007172217575505"><ele>228.0</ele><time>2026-05-03T08:46:43Z</time></trkpt><trkpt lat="40.76379314901597" lon="9.007276927502163"><ele>228.0</ele><time>2026-05-03T08:46:44Z</time></trkpt><trkpt lat="40.763765329469194" lon="9.007371111844623"><ele>228.0</ele><time>2026-05-03T08:46:45Z</time></trkpt><trkpt lat="40.76374518273325" lon="9.007527411840245"><ele>228.0</ele><time>2026-05-03T08:46:47Z</time></trkpt><trkpt lat="40.76373071723021" lon="9.007613900330833"><ele>228.0</ele><time>2026-05-03T08:46:48Z</time></trkpt><trkpt lat="40.7636974918963" lon="9.007762357987039"><ele>227.8</ele><time>2026-05-03T08:46:50Z</time></trkpt><trkpt lat="40.763675416187205" lon="9.007848941182798"><ele>227.60000000000002</ele><time>2026-05-03T08:46:51Z</time></trkpt><trkpt lat="40.76365164783919" lon="9.007955000403985"><ele>227.39999999999998</ele><time>2026-05-03T08:46:52Z</time></trkpt><trkpt lat="40.763623635745866" lon="9.008077530936509"><ele>227.2</ele><time>2026-05-03T08:46:53Z</time></trkpt><trkpt lat="40.763585904443666" lon="9.008204648551846"><ele>227.0</ele><time>2026-05-03T08:46:54Z</time></trkpt><trkpt lat="40.763528173437834" lon="9.008316185741927"><ele>223.83333333333334</ele><time>2026-05-03T08:46:55Z</time></trkpt><trkpt lat="40.76345397178941" lon="9.008384522549761"><ele>220.66666666666669</ele><time>2026-05-03T08:46:56Z</time></trkpt><trkpt lat="40.76337701763833" lon="9.008431961154528"><ele>217.5</ele><time>2026-05-03T08:46:57Z</time></trkpt><trkpt lat="40.76329633119958" lon="9.008462289443543"><ele>214.33333333333331</ele><time>2026-05-03T08:46:58Z</time></trkpt><trkpt lat="40.76320979652662" lon="9.008472520991678"><ele>211.16666666666666</ele><time>2026-05-03T08:46:59Z</time></trkpt><trkpt lat="40.763114910786044" lon="9.008464628794291"><ele>208.0</ele><time>2026-05-03T08:47:00Z</time></trkpt><trkpt lat="40.763011793544706" lon="9.008433483279171"><ele>208.0</ele><time>2026-05-03T08:47:01Z</time></trkpt><trkpt lat="40.7629094164769" lon="9.00836689093632"><ele>208.0</ele><time>2026-05-03T08:47:02Z</time></trkpt><trkpt lat="40.762807182906904" lon="9.008284097502795"><ele>208.0</ele><time>2026-05-03T08:47:03Z</time></trkpt><trkpt lat="40.76270596582748" lon="9.008210905706285"><ele>208.0</ele><time>2026-05-03T08:47:04Z</time></trkpt><trkpt lat="40.76261561472701" lon="9.00814790800559"><ele>212.2</ele><time>2026-05-03T08:47:05Z</time></trkpt><trkpt lat="40.76253384868672" lon="9.008096154461693"><ele>216.4</ele><time>2026-05-03T08:47:06Z</time></trkpt><trkpt lat="40.76244421209723" lon="9.008048665040262"><ele>220.59999999999997</ele><time>2026-05-03T08:47:07Z</time></trkpt><trkpt lat="40.76233734688046" lon="9.008030143077068"><ele>224.79999999999998</ele><time>2026-05-03T08:47:08Z</time></trkpt><trkpt lat="40.76222061837548" lon="9.008054212347792"><ele>229.0</ele><time>2026-05-03T08:47:09Z</time></trkpt><trkpt lat="40.762111499528594" lon="9.008116397443544"><ele>229.0</ele><time>2026-05-03T08:47:10Z</time></trkpt><trkpt lat="40.762026827435086" lon="9.008192918250597"><ele>228.99999999999997</ele><time>2026-05-03T08:47:11Z</time></trkpt><trkpt lat="40.761955007284556" lon="9.008319416051124"><ele>228.99999999999997</ele><time>2026-05-03T08:47:12Z</time></trkpt><trkpt lat="40.7619072344498" lon="9.008447575512555"><ele>229.0</ele><time>2026-05-03T08:47:13Z</time></trkpt><trkpt lat="40.76189229634597" lon="9.008585192694495"><ele>229.0</ele><time>2026-05-03T08:47:14Z</time></trkpt><trkpt lat="40.76190375200319" lon="9.008728173525363"><ele>224.6</ele><time>2026-05-03T08:47:15Z</time></trkpt><trkpt lat="40.76192291622367" lon="9.0088731708863"><ele>220.2</ele><time>2026-05-03T08:47:16Z</time></trkpt><trkpt lat="40.76193370058567" lon="9.00901468207398"><ele>215.79999999999998</ele><time>2026-05-03T08:47:17Z</time></trkpt><trkpt lat="40.76193138051667" lon="9.009148541039737"><ele>211.39999999999998</ele><time>2026-05-03T08:47:18Z</time></trkpt><trkpt lat="40.7619084496147" lon="9.009286140408545"><ele>207.0</ele><time>2026-05-03T08:47:19Z</time></trkpt><trkpt lat="40.76186761520399" lon="9.00942013338254"><ele>208.5</ele><time>2026-05-03T08:47:20Z</time></trkpt><trkpt lat="40.761804680475166" lon="9.009551440132988"><ele>210.0</ele><time>2026-05-03T08:47:21Z</time></trkpt><trkpt lat="40.76173721306265" lon="9.009677701736528"><ele>211.5</ele><time>2026-05-03T08:47:22Z</time></trkpt><trkpt lat="40.76166847711701" lon="9.009811840477168"><ele>213.0</ele><time>2026-05-03T08:47:23Z</time></trkpt><trkpt lat="40.76160417347251" lon="9.009927711509523"><ele>208.75</ele><time>2026-05-03T08:47:24Z</time></trkpt><trkpt lat="40.76152744311117" lon="9.010057951075112"><ele>204.5</ele><time>2026-05-03T08:47:25Z</time></trkpt><trkpt lat="40.76145079345335" lon="9.010179866848102"><ele>200.25</ele><time>2026-05-03T08:47:26Z</time></trkpt><trkpt lat="40.761354562876456" lon="9.010296177522505"><ele>196.0</ele><time>2026-05-03T08:47:27Z</time></trkpt><trkpt lat="40.761285057131815" lon="9.010396518069246"><ele>196.0</ele><time>2026-05-03T08:47:28Z</time></trkpt><trkpt lat="40.761208472050726" lon="9.010490924028058"><ele>196.0</ele><time>2026-05-03T08:47:29Z</time></trkpt><trkpt lat="40.76112687081473" lon="9.010596675690781"><ele>196.0</ele><time>2026-05-03T08:47:30Z</time></trkpt><trkpt lat="40.76104739710065" lon="9.010695624609157"><ele>196.0</ele><time>2026-05-03T08:47:31Z</time></trkpt><trkpt lat="40.760961707383615" lon="9.010800731188315"><ele>196.0</ele><time>2026-05-03T08:47:32Z</time></trkpt><trkpt lat="40.76088114416386" lon="9.010895599871896"><ele>196.0</ele><time>2026-05-03T08:47:33Z</time></trkpt><trkpt lat="40.76080179715707" lon="9.010981153096175"><ele>196.0</ele><time>2026-05-03T08:47:34Z</time></trkpt><trkpt lat="40.76070604517069" lon="9.011049918903884"><ele>196.0</ele><time>2026-05-03T08:47:35Z</time></trkpt><trkpt lat="40.7605898523122" lon="9.011099427925869"><ele>196.0</ele><time>2026-05-03T08:47:36Z</time></trkpt><trkpt lat="40.76046339746629" lon="9.01112633066755"><ele>196.0</ele><time>2026-05-03T08:47:37Z</time></trkpt><trkpt lat="40.76033360218915" lon="9.011139064295591"><ele>196.0</ele><time>2026-05-03T08:47:38Z</time></trkpt><trkpt lat="40.76020031571568" lon="9.01114752507212"><ele>196.0</ele><time>2026-05-03T08:47:39Z</time></trkpt><trkpt lat="40.7600653537071" lon="9.011156041781513"><ele>196.0</ele><time>2026-05-03T08:47:40Z</time></trkpt><trkpt lat="40.759926915293356" lon="9.011159351609694"><ele>197.25</ele><time>2026-05-03T08:47:41Z</time></trkpt><trkpt lat="40.75979205152463" lon="9.01115983815112"><ele>198.5</ele><time>2026-05-03T08:47:42Z</time></trkpt><trkpt lat="40.75966218446103" lon="9.01115751864347"><ele>199.75</ele><time>2026-05-03T08:47:43Z</time></trkpt><trkpt lat="40.75953730370951" lon="9.011151586932353"><ele>201.0</ele><time>2026-05-03T08:47:44Z</time></trkpt><trkpt lat="40.75940864044129" lon="9.011142931021938"><ele>198.75</ele><time>2026-05-03T08:47:45Z</time></trkpt><trkpt lat="40.759275032388906" lon="9.011103936365515"><ele>196.5</ele><time>2026-05-03T08:47:46Z</time></trkpt><trkpt lat="40.759137378759974" lon="9.011094128245789"><ele>194.25</ele><time>2026-05-03T08:47:47Z</time></trkpt><trkpt lat="40.75900068969803" lon="9.011083723171758"><ele>192.0</ele><time>2026-05-03T08:47:48Z</time></trkpt><trkpt lat="40.758866117151385" lon="9.01107347921339"><ele>192.0</ele><time>2026-05-03T08:47:49Z</time></trkpt><trkpt lat="40.75873220016882" lon="9.011063285151868"><ele>192.0</ele><time>2026-05-03T08:47:50Z</time></trkpt><trkpt lat="40.75859876933945" lon="9.011053128098407"><ele>192.0</ele><time>2026-05-03T08:47:51Z</time></trkpt><trkpt lat="40.75846581908807" lon="9.011063349534627"><ele>192.0</ele><time>2026-05-03T08:47:52Z</time></trkpt><trkpt lat="40.75834961528527" lon="9.01103436932582"><ele>192.0</ele><time>2026-05-03T08:47:53Z</time></trkpt><trkpt lat="40.75823365315546" lon="9.011025825188659"><ele>192.0</ele><time>2026-05-03T08:47:54Z</time></trkpt><trkpt lat="40.75807389037094" lon="9.011032489075507"><ele>192.0</ele><time>2026-05-03T08:47:55Z</time></trkpt><trkpt lat="40.75793733841" lon="9.011016008464942"><ele>192.0</ele><time>2026-05-03T08:47:56Z</time></trkpt><trkpt lat="40.75779639796334" lon="9.011008003311554"><ele>191.5</ele><time>2026-05-03T08:47:57Z</time></trkpt><trkpt lat="40.757653180388694" lon="9.010998741179039"><ele>191.0</ele><time>2026-05-03T08:47:58Z</time></trkpt><trkpt lat="40.75750919538898" lon="9.010988420230237"><ele>190.5</ele><time>2026-05-03T08:47:59Z</time></trkpt><trkpt lat="40.75736793737338" lon="9.010977857775524"><ele>190.0</ele><time>2026-05-03T08:48:00Z</time></trkpt><trkpt lat="40.75723193184613" lon="9.010969252307598"><ele>190.0</ele><time>2026-05-03T08:48:01Z</time></trkpt><trkpt lat="40.75711372789115" lon="9.0109583274145"><ele>190.0</ele><time>2026-05-03T08:48:02Z</time></trkpt><trkpt lat="40.757007755378645" lon="9.010938899962053"><ele>190.0</ele><time>2026-05-03T08:48:03Z</time></trkpt><trkpt lat="40.756916460458584" lon="9.010934676103108"><ele>190.0</ele><time>2026-05-03T08:48:04Z</time></trkpt><trkpt lat="40.75683946080843" lon="9.01093157270458"><ele>190.0</ele><time>2026-05-03T08:48:05Z</time></trkpt><trkpt lat="40.75673258533734" lon="9.01092843672168"><ele>190.0</ele><time>2026-05-03T08:48:07Z</time></trkpt><trkpt lat="40.756664303056766" lon="9.010905739275062"><ele>190.0</ele><time>2026-05-03T08:48:10Z</time></trkpt><trkpt lat="40.7567035225129" lon="9.01107624490793"><ele>190.0</ele><time>2026-05-03T08:48:12Z</time></trkpt><trkpt lat="40.75676303454563" lon="9.011122783684588"><ele>190.0</ele><time>2026-05-03T08:48:13Z</time></trkpt><trkpt lat="40.75681970847603" lon="9.01117371533464"><ele>190.0</ele><time>2026-05-03T08:48:14Z</time></trkpt><trkpt lat="40.756881626066786" lon="9.01124715291661"><ele>190.0</ele><time>2026-05-03T08:48:15Z</time></trkpt><trkpt lat="40.75696311406555" lon="9.011281560002853"><ele>190.0</ele><time>2026-05-03T08:48:16Z</time></trkpt><trkpt lat="40.757026917188554" lon="9.01133375965671"><ele>190.0</ele><time>2026-05-03T08:48:17Z</time></trkpt><trkpt lat="40.757081069016934" lon="9.011404202697719"><ele>190.0</ele><time>2026-05-03T08:48:18Z</time></trkpt><trkpt lat="40.75712952245677" lon="9.011457553348972"><ele>190.0</ele><time>2026-05-03T08:48:19Z</time></trkpt><trkpt lat="40.75722227126348" lon="9.011581714553937"><ele>190.0</ele><time>2026-05-03T08:48:21Z</time></trkpt><trkpt lat="40.75727479237728" lon="9.01165324995895"><ele>190.0</ele><time>2026-05-03T08:48:22Z</time></trkpt><trkpt lat="40.75733636457347" lon="9.011714707684556"><ele>187.4</ele><time>2026-05-03T08:48:23Z</time></trkpt><trkpt lat="40.75740040679716" lon="9.011797596250785"><ele>184.8</ele><time>2026-05-03T08:48:24Z</time></trkpt><trkpt lat="40.75746027750431" lon="9.011877470926105"><ele>182.2</ele><time>2026-05-03T08:48:25Z</time></trkpt><trkpt lat="40.7575414366278" lon="9.011968881543584"><ele>179.6</ele><time>2026-05-03T08:48:26Z</time></trkpt><trkpt lat="40.75762270482385" lon="9.012036479138848"><ele>177.0</ele><time>2026-05-03T08:48:27Z</time></trkpt><trkpt lat="40.75769634760292" lon="9.012100440630883"><ele>176.66666666666666</ele><time>2026-05-03T08:48:28Z</time></trkpt><trkpt lat="40.757760903660994" lon="9.012152246865373"><ele>176.33333333333334</ele><time>2026-05-03T08:48:29Z</time></trkpt><trkpt lat="40.757820396752" lon="9.012208271230318"><ele>176.0</ele><time>2026-05-03T08:48:30Z</time></trkpt><trkpt lat="40.75788102611409" lon="9.012259590631787"><ele>175.66666666666669</ele><time>2026-05-03T08:48:31Z</time></trkpt><trkpt lat="40.75797944824798" lon="9.012344245583591"><ele>175.33333333333334</ele><time>2026-05-03T08:48:33Z</time></trkpt><trkpt lat="40.7580401205244" lon="9.012393651371546"><ele>175.0</ele><time>2026-05-03T08:48:34Z</time></trkpt><trkpt lat="40.75809108736033" lon="9.01244256707409"><ele>173.6</ele><time>2026-05-03T08:48:35Z</time></trkpt><trkpt lat="40.75819732144067" lon="9.012492427765103"><ele>172.2</ele><time>2026-05-03T08:48:37Z</time></trkpt><trkpt lat="40.75826426833974" lon="9.01252303559248"><ele>170.8</ele><time>2026-05-03T08:48:38Z</time></trkpt><trkpt lat="40.75832995904692" lon="9.012554093237672"><ele>169.4</ele><time>2026-05-03T08:48:39Z</time></trkpt><trkpt lat="40.758450018322954" lon="9.012622169008088"><ele>168.0</ele><time>2026-05-03T08:48:41Z</time></trkpt><trkpt lat="40.75855478072775" lon="9.012694276263028"><ele>167.66666666666666</ele><time>2026-05-03T08:48:43Z</time></trkpt><trkpt lat="40.75863964462596" lon="9.012724752974476"><ele>167.33333333333334</ele><time>2026-05-03T08:48:45Z</time></trkpt><trkpt lat="40.75872343209961" lon="9.01276750243201"><ele>167.0</ele><time>2026-05-03T08:48:47Z</time></trkpt><trkpt lat="40.75879794488737" lon="9.012831508996008"><ele>166.66666666666669</ele><time>2026-05-03T08:48:49Z</time></trkpt><trkpt lat="40.758867430676254" lon="9.01286127004101"><ele>166.33333333333334</ele><time>2026-05-03T08:48:52Z</time></trkpt><trkpt lat="40.75893684946103" lon="9.012909865760747"><ele>166.0</ele><time>2026-05-03T08:48:59Z</time></trkpt><trkpt lat="40.75886341611843" lon="9.012845158539857"><ele>166.0</ele><time>2026-05-03T08:49:03Z</time></trkpt><trkpt lat="40.75879961377148" lon="9.01282479002054"><ele>166.0</ele><time>2026-05-03T08:49:06Z</time></trkpt><trkpt lat="40.75873966926826" lon="9.012797000183463"><ele>166.0</ele><time>2026-05-03T08:49:09Z</time></trkpt><trkpt lat="40.75866077513583" lon="9.01276168693925"><ele>166.0</ele><time>2026-05-03T08:49:12Z</time></trkpt><trkpt lat="40.75872162825552" lon="9.012788456973054"><ele>166.0</ele><time>2026-05-03T08:50:56Z</time></trkpt><trkpt lat="40.758777875529525" lon="9.012839810224092"><ele>166.0</ele><time>2026-05-03T08:51:04Z</time></trkpt><trkpt lat="40.75884339833696" lon="9.012878586815246"><ele>166.0</ele><time>2026-05-03T08:51:12Z</time></trkpt><trkpt lat="40.75889766690796" lon="9.012933412950861"><ele>166.0</ele><time>2026-05-03T08:51:22Z</time></trkpt><trkpt lat="40.75886131770358" lon="9.013009446207956"><ele>166.0</ele><time>2026-05-03T08:51:30Z</time></trkpt><trkpt lat="40.758828346004684" lon="9.013087188080815"><ele>166.0</ele><time>2026-05-03T08:51:42Z</time></trkpt><trkpt lat="40.7588226056322" lon="9.013184092696621"><ele>166.0</ele><time>2026-05-03T08:52:03Z</time></trkpt><trkpt lat="40.75876207020043" lon="9.013151033901433"><ele>166.0</ele><time>2026-05-03T09:07:55Z</time></trkpt><trkpt lat="40.75873735888189" lon="9.013228976923248"><ele>166.0</ele><time>2026-05-03T09:08:09Z</time></trkpt><trkpt lat="40.758765415722706" lon="9.013153040546694"><ele>166.0</ele><time>2026-05-03T09:09:51Z</time></trkpt><trkpt lat="40.75883220140946" lon="9.013162520389585"><ele>166.0</ele><time>2026-05-03T09:11:43Z</time></trkpt><trkpt lat="40.75880782737954" lon="9.01308319355333"><ele>166.0</ele><time>2026-05-03T09:13:10Z</time></trkpt><trkpt lat="40.75884322043386" lon="9.013009041556098"><ele>166.0</ele><time>2026-05-03T09:13:21Z</time></trkpt><trkpt lat="40.75887945994393" lon="9.012928267173923"><ele>166.0</ele><time>2026-05-03T09:13:31Z</time></trkpt><trkpt lat="40.758836804176745" lon="9.012859141421446"><ele>166.0</ele><time>2026-05-03T09:13:39Z</time></trkpt><trkpt lat="40.758770768059314" lon="9.012830236129169"><ele>166.0</ele><time>2026-05-03T09:13:47Z</time></trkpt><trkpt lat="40.75871779040762" lon="9.012775681503767"><ele>166.0</ele><time>2026-05-03T09:13:56Z</time></trkpt><trkpt lat="40.75875972395017" lon="9.012849634454907"><ele>166.0</ele><time>2026-05-03T09:14:52Z</time></trkpt><trkpt lat="40.758705985329144" lon="9.012797599426273"><ele>166.0</ele><time>2026-05-03T09:15:06Z</time></trkpt><trkpt lat="40.758646824883115" lon="9.012766791289494"><ele>166.0</ele><time>2026-05-03T09:19:27Z</time></trkpt><trkpt lat="40.75855269253435" lon="9.012708334349103"><ele>166.0</ele><time>2026-05-03T09:19:30Z</time></trkpt><trkpt lat="40.75843350482079" lon="9.012642577336605"><ele>166.0</ele><time>2026-05-03T09:19:32Z</time></trkpt><trkpt lat="40.7583821927827" lon="9.012549135951446"><ele>166.33333333333334</ele><time>2026-05-03T09:19:33Z</time></trkpt><trkpt lat="40.758317550774585" lon="9.012512634177417"><ele>166.66666666666669</ele><time>2026-05-03T09:19:34Z</time></trkpt><trkpt lat="40.75822160139857" lon="9.012458453939349"><ele>167.0</ele><time>2026-05-03T09:19:36Z</time></trkpt><trkpt lat="40.75810427767772" lon="9.012392204139733"><ele>167.33333333333334</ele><time>2026-05-03T09:19:38Z</time></trkpt><trkpt lat="40.75804517865011" lon="9.01235806155267"><ele>167.66666666666666</ele><time>2026-05-03T09:19:39Z</time></trkpt><trkpt lat="40.75798491713777" lon="9.01231831133857"><ele>168.0</ele><time>2026-05-03T09:19:40Z</time></trkpt><trkpt lat="40.75792438841569" lon="9.012267264893365"><ele>169.4</ele><time>2026-05-03T09:19:41Z</time></trkpt><trkpt lat="40.75785697289907" lon="9.012207674865968"><ele>170.8</ele><time>2026-05-03T09:19:42Z</time></trkpt><trkpt lat="40.75778262649121" lon="9.012141958551132"><ele>172.2</ele><time>2026-05-03T09:19:43Z</time></trkpt><trkpt lat="40.757700010863196" lon="9.012068932796467"><ele>173.6</ele><time>2026-05-03T09:19:44Z</time></trkpt><trkpt lat="40.75761582651355" lon="9.01201361298411"><ele>175.0</ele><time>2026-05-03T09:19:45Z</time></trkpt><trkpt lat="40.757540421486055" lon="9.011945770158338"><ele>175.33333333333334</ele><time>2026-05-03T09:19:46Z</time></trkpt><trkpt lat="40.7574793457173" lon="9.011860199700717"><ele>175.66666666666669</ele><time>2026-05-03T09:19:47Z</time></trkpt><trkpt lat="40.75741931089072" lon="9.01178539819751"><ele>176.0</ele><time>2026-05-03T09:19:48Z</time></trkpt><trkpt lat="40.75736511256789" lon="9.011713188480925"><ele>176.33333333333334</ele><time>2026-05-03T09:19:49Z</time></trkpt><trkpt lat="40.757311776677845" lon="9.011640543391703"><ele>176.66666666666666</ele><time>2026-05-03T09:19:50Z</time></trkpt><trkpt lat="40.75726364609509" lon="9.011574987978927"><ele>177.0</ele><time>2026-05-03T09:19:51Z</time></trkpt><trkpt lat="40.75721927785122" lon="9.011514557141103"><ele>179.6</ele><time>2026-05-03T09:19:52Z</time></trkpt><trkpt lat="40.7571341027631" lon="9.011405445731155"><ele>182.2</ele><time>2026-05-03T09:19:54Z</time></trkpt><trkpt lat="40.75704291930153" lon="9.011314144743878"><ele>184.8</ele><time>2026-05-03T09:19:56Z</time></trkpt><trkpt lat="40.756982158771535" lon="9.011267897592365"><ele>187.4</ele><time>2026-05-03T09:19:57Z</time></trkpt><trkpt lat="40.756917285787914" lon="9.011224744700407"><ele>190.0</ele><time>2026-05-03T09:19:58Z</time></trkpt><trkpt lat="40.75685327674695" lon="9.011168285157707"><ele>190.16666666666669</ele><time>2026-05-03T09:19:59Z</time></trkpt><trkpt lat="40.75679743650905" lon="9.011106333748227"><ele>190.33333333333334</ele><time>2026-05-03T09:20:00Z</time></trkpt><trkpt lat="40.75674518690675" lon="9.011045960227852"><ele>190.5</ele><time>2026-05-03T09:20:01Z</time></trkpt><trkpt lat="40.75668159193629" lon="9.01098088997584"><ele>190.66666666666666</ele><time>2026-05-03T09:20:03Z</time></trkpt><trkpt lat="40.756600781747835" lon="9.010932326899807"><ele>190.83333333333331</ele><time>2026-05-03T09:20:06Z</time></trkpt><trkpt lat="40.75648247309641" lon="9.010889113908094"><ele>191.0</ele><time>2026-05-03T09:20:08Z</time></trkpt><trkpt lat="40.75640794506585" lon="9.010875323358043"><ele>191.0</ele><time>2026-05-03T09:20:09Z</time></trkpt><trkpt lat="40.75633443533281" lon="9.010859179876386"><ele>191.0</ele><time>2026-05-03T09:20:10Z</time></trkpt><trkpt lat="40.75626718197629" lon="9.010839666764596"><ele>191.0</ele><time>2026-05-03T09:20:11Z</time></trkpt><trkpt lat="40.75620144160699" lon="9.01081464297033"><ele>191.0</ele><time>2026-05-03T09:20:12Z</time></trkpt><trkpt lat="40.75613424735771" lon="9.010781208802"><ele>191.0</ele><time>2026-05-03T09:20:13Z</time></trkpt><trkpt lat="40.75606472619337" lon="9.010741082798344"><ele>191.0</ele><time>2026-05-03T09:20:14Z</time></trkpt><trkpt lat="40.75598408847018" lon="9.010707398704588"><ele>191.0</ele><time>2026-05-03T09:20:15Z</time></trkpt><trkpt lat="40.7559040816746" lon="9.010642717784242"><ele>191.8</ele><time>2026-05-03T09:20:16Z</time></trkpt><trkpt lat="40.75582276065355" lon="9.01057077427873"><ele>192.60000000000002</ele><time>2026-05-03T09:20:17Z</time></trkpt><trkpt lat="40.75574654600816" lon="9.01048631675918"><ele>193.4</ele><time>2026-05-03T09:20:18Z</time></trkpt><trkpt lat="40.75567286902265" lon="9.01040384188773"><ele>194.2</ele><time>2026-05-03T09:20:19Z</time></trkpt><trkpt lat="40.755590182790115" lon="9.010326564669775"><ele>195.0</ele><time>2026-05-03T09:20:20Z</time></trkpt><trkpt lat="40.755520827817946" lon="9.010223257342641"><ele>195.0</ele><time>2026-05-03T09:20:21Z</time></trkpt><trkpt lat="40.755429563403965" lon="9.010151326321257"><ele>195.0</ele><time>2026-05-03T09:20:22Z</time></trkpt><trkpt lat="40.755349830912245" lon="9.01006288323617"><ele>195.0</ele><time>2026-05-03T09:20:23Z</time></trkpt><trkpt lat="40.75526346067968" lon="9.009971522532977"><ele>195.0</ele><time>2026-05-03T09:20:24Z</time></trkpt><trkpt lat="40.75517433730575" lon="9.009876476119596"><ele>195.0</ele><time>2026-05-03T09:20:25Z</time></trkpt><trkpt lat="40.7550804099641" lon="9.009768161205638"><ele>194.5</ele><time>2026-05-03T09:20:26Z</time></trkpt><trkpt lat="40.75497813217815" lon="9.009656382640378"><ele>194.0</ele><time>2026-05-03T09:20:27Z</time></trkpt><trkpt lat="40.75487133513094" lon="9.009539229615779"><ele>193.5</ele><time>2026-05-03T09:20:28Z</time></trkpt><trkpt lat="40.75476030844802" lon="9.009418362531088"><ele>193.0</ele><time>2026-05-03T09:20:29Z</time></trkpt><trkpt lat="40.75464835830143" lon="9.009296721291786"><ele>193.0</ele><time>2026-05-03T09:20:30Z</time></trkpt><trkpt lat="40.75453455033026" lon="9.00917638468581"><ele>193.0</ele><time>2026-05-03T09:20:31Z</time></trkpt><trkpt lat="40.754421238987305" lon="9.009053975895005"><ele>193.0</ele><time>2026-05-03T09:20:32Z</time></trkpt><trkpt lat="40.75430950284641" lon="9.008932622738229"><ele>193.0</ele><time>2026-05-03T09:20:33Z</time></trkpt><trkpt lat="40.75421123811566" lon="9.008793612951456"><ele>192.5</ele><time>2026-05-03T09:20:34Z</time></trkpt><trkpt lat="40.754103716108865" lon="9.008676123265293"><ele>192.0</ele><time>2026-05-03T09:20:35Z</time></trkpt><trkpt lat="40.75399422831658" lon="9.008557240656916"><ele>191.5</ele><time>2026-05-03T09:20:36Z</time></trkpt><trkpt lat="40.753877807051616" lon="9.008458463499396"><ele>191.0</ele><time>2026-05-03T09:20:37Z</time></trkpt><trkpt lat="40.753773639688625" lon="9.008342954828128"><ele>190.75</ele><time>2026-05-03T09:20:38Z</time></trkpt><trkpt lat="40.753670034660395" lon="9.008231797252794"><ele>190.5</ele><time>2026-05-03T09:20:39Z</time></trkpt><trkpt lat="40.7535751915024" lon="9.008124868917117"><ele>190.25</ele><time>2026-05-03T09:20:40Z</time></trkpt><trkpt lat="40.75348842065287" lon="9.008030416607767"><ele>190.0</ele><time>2026-05-03T09:20:41Z</time></trkpt><trkpt lat="40.753407487386276" lon="9.00794740460102"><ele>190.0</ele><time>2026-05-03T09:20:42Z</time></trkpt><trkpt lat="40.753329080106184" lon="9.00785799304641"><ele>190.0</ele><time>2026-05-03T09:20:43Z</time></trkpt><trkpt lat="40.75323993466574" lon="9.00776012535794"><ele>190.0</ele><time>2026-05-03T09:20:44Z</time></trkpt><trkpt lat="40.75314694547052" lon="9.00765550778653"><ele>190.0</ele><time>2026-05-03T09:20:45Z</time></trkpt><trkpt lat="40.75304555882398" lon="9.007549550331222"><ele>189.25</ele><time>2026-05-03T09:20:46Z</time></trkpt><trkpt lat="40.75294069017128" lon="9.007437212705744"><ele>188.5</ele><time>2026-05-03T09:20:47Z</time></trkpt><trkpt lat="40.75283523334389" lon="9.007321750491007"><ele>187.75</ele><time>2026-05-03T09:20:48Z</time></trkpt><trkpt lat="40.75272953572825" lon="9.00720525166865"><ele>187.0</ele><time>2026-05-03T09:20:49Z</time></trkpt><trkpt lat="40.752622309608235" lon="9.007088893607294"><ele>187.0</ele><time>2026-05-03T09:20:50Z</time></trkpt><trkpt lat="40.75251889608282" lon="9.00697521358312"><ele>187.0</ele><time>2026-05-03T09:20:51Z</time></trkpt><trkpt lat="40.752416035626226" lon="9.006861739924325"><ele>187.0</ele><time>2026-05-03T09:20:52Z</time></trkpt><trkpt lat="40.75230899858079" lon="9.006747754578749"><ele>187.0</ele><time>2026-05-03T09:20:53Z</time></trkpt><trkpt lat="40.752194573165156" lon="9.006630961378871"><ele>186.0</ele><time>2026-05-03T09:20:54Z</time></trkpt><trkpt lat="40.75208321093892" lon="9.006480902605606"><ele>185.0</ele><time>2026-05-03T09:20:55Z</time></trkpt><trkpt lat="40.75195429667014" lon="9.006339478052437"><ele>184.0</ele><time>2026-05-03T09:20:56Z</time></trkpt><trkpt lat="40.751807960262354" lon="9.006181210132901"><ele>184.0</ele><time>2026-05-03T09:20:57Z</time></trkpt><trkpt lat="40.75165455523352" lon="9.006016288085775"><ele>184.0</ele><time>2026-05-03T09:20:58Z</time></trkpt><trkpt lat="40.751488660816854" lon="9.005834920664139"><ele>184.0</ele><time>2026-05-03T09:20:59Z</time></trkpt><trkpt lat="40.75130506788173" lon="9.005662152264609"><ele>185.5</ele><time>2026-05-03T09:21:00Z</time></trkpt><trkpt lat="40.75112837035863" lon="9.00546764121327"><ele>187.0</ele><time>2026-05-03T09:21:01Z</time></trkpt><trkpt lat="40.75094652993602" lon="9.005269185162115"><ele>185.5</ele><time>2026-05-03T09:21:02Z</time></trkpt><trkpt lat="40.75076369240159" lon="9.00506870365338"><ele>184.0</ele><time>2026-05-03T09:21:03Z</time></trkpt><trkpt lat="40.75058224204789" lon="9.004869942873164"><ele>184.0</ele><time>2026-05-03T09:21:04Z</time></trkpt><trkpt lat="40.75039915777667" lon="9.004672151978147"><ele>184.0</ele><time>2026-05-03T09:21:05Z</time></trkpt><trkpt lat="40.75021469036277" lon="9.004472244086825"><ele>181.5</ele><time>2026-05-03T09:21:06Z</time></trkpt><trkpt lat="40.75002342532502" lon="9.004266186744822"><ele>179.0</ele><time>2026-05-03T09:21:07Z</time></trkpt><trkpt lat="40.74982634473007" lon="9.004055079485035"><ele>179.0</ele><time>2026-05-03T09:21:08Z</time></trkpt><trkpt lat="40.749629475099276" lon="9.00384185849276"><ele>179.0</ele><time>2026-05-03T09:21:09Z</time></trkpt><trkpt lat="40.749436134493216" lon="9.003624541575045"><ele>182.0</ele><time>2026-05-03T09:21:10Z</time></trkpt><trkpt lat="40.74924548158674" lon="9.003418831470027"><ele>185.0</ele><time>2026-05-03T09:21:11Z</time></trkpt><trkpt lat="40.74906384825863" lon="9.003226419284909"><ele>186.33333333333331</ele><time>2026-05-03T09:21:12Z</time></trkpt><trkpt lat="40.748892509971924" lon="9.003038750510768"><ele>187.66666666666666</ele><time>2026-05-03T09:21:13Z</time></trkpt><trkpt lat="40.748734619204974" lon="9.002862349810695"><ele>189.0</ele><time>2026-05-03T09:21:14Z</time></trkpt><trkpt lat="40.74859011484277" lon="9.002703111548136"><ele>189.33333333333334</ele><time>2026-05-03T09:21:15Z</time></trkpt><trkpt lat="40.74844673501262" lon="9.00254697688314"><ele>189.66666666666669</ele><time>2026-05-03T09:21:16Z</time></trkpt><trkpt lat="40.74830274533107" lon="9.002391737356445"><ele>190.0</ele><time>2026-05-03T09:21:17Z</time></trkpt><trkpt lat="40.7481610993272" lon="9.002236025802835"><ele>191.0</ele><time>2026-05-03T09:21:18Z</time></trkpt><trkpt lat="40.748019469435256" lon="9.002082954308316"><ele>192.0</ele><time>2026-05-03T09:21:19Z</time></trkpt><trkpt lat="40.74787935636038" lon="9.00193240911171"><ele>193.0</ele><time>2026-05-03T09:21:20Z</time></trkpt><trkpt lat="40.74774279346398" lon="9.001784453524483"><ele>195.33333333333331</ele><time>2026-05-03T09:21:21Z</time></trkpt><trkpt lat="40.74761053556251" lon="9.001639811941248"><ele>197.66666666666669</ele><time>2026-05-03T09:21:22Z</time></trkpt><trkpt lat="40.74748069864566" lon="9.001496786512677"><ele>200.0</ele><time>2026-05-03T09:21:23Z</time></trkpt><trkpt lat="40.74735094822473" lon="9.001354084066895"><ele>200.0</ele><time>2026-05-03T09:21:24Z</time></trkpt><trkpt lat="40.74721676926684" lon="9.001207885871551"><ele>200.0</ele><time>2026-05-03T09:21:25Z</time></trkpt><trkpt lat="40.74707871060671" lon="9.00106376856795"><ele>200.0</ele><time>2026-05-03T09:21:26Z</time></trkpt><trkpt lat="40.74693947254597" lon="9.000911864004035"><ele>200.0</ele><time>2026-05-03T09:21:27Z</time></trkpt><trkpt lat="40.74679747360804" lon="9.00075253097384"><ele>200.0</ele><time>2026-05-03T09:21:28Z</time></trkpt><trkpt lat="40.74665585172612" lon="9.000595924140907"><ele>200.0</ele><time>2026-05-03T09:21:29Z</time></trkpt><trkpt lat="40.74651624125206" lon="9.000453576009381"><ele>200.0</ele><time>2026-05-03T09:21:30Z</time></trkpt><trkpt lat="40.74637424680527" lon="9.000298222875156"><ele>200.0</ele><time>2026-05-03T09:21:31Z</time></trkpt><trkpt lat="40.74623016889623" lon="9.000142514233893"><ele>200.0</ele><time>2026-05-03T09:21:32Z</time></trkpt><trkpt lat="40.746092240230475" lon="8.999979676497652"><ele>198.66666666666669</ele><time>2026-05-03T09:21:33Z</time></trkpt><trkpt lat="40.745947236653755" lon="8.999818879537294"><ele>197.33333333333331</ele><time>2026-05-03T09:21:34Z</time></trkpt><trkpt lat="40.74579648790965" lon="8.999657289630646"><ele>196.0</ele><time>2026-05-03T09:21:35Z</time></trkpt><trkpt lat="40.7456424742354" lon="8.999493487475867"><ele>196.0</ele><time>2026-05-03T09:21:36Z</time></trkpt><trkpt lat="40.74549220821164" lon="8.999329063772917"><ele>196.0</ele><time>2026-05-03T09:21:37Z</time></trkpt><trkpt lat="40.745347003723246" lon="8.999170694189386"><ele>196.0</ele><time>2026-05-03T09:21:38Z</time></trkpt><trkpt lat="40.745213717434055" lon="8.999024853615257"><ele>196.33333333333331</ele><time>2026-05-03T09:21:39Z</time></trkpt><trkpt lat="40.74508625154412" lon="8.998891375869286"><ele>196.66666666666669</ele><time>2026-05-03T09:21:40Z</time></trkpt><trkpt lat="40.744952004544075" lon="8.998765947497125"><ele>197.0</ele><time>2026-05-03T09:21:41Z</time></trkpt><trkpt lat="40.744804338989276" lon="8.998663790725198"><ele>197.0</ele><time>2026-05-03T09:21:42Z</time></trkpt><trkpt lat="40.74463985648308" lon="8.998587638771365"><ele>197.0</ele><time>2026-05-03T09:21:43Z</time></trkpt><trkpt lat="40.744467114478624" lon="8.998523834622999"><ele>197.0</ele><time>2026-05-03T09:21:44Z</time></trkpt><trkpt lat="40.74428845242729" lon="8.998467872535818"><ele>196.0</ele><time>2026-05-03T09:21:45Z</time></trkpt><trkpt lat="40.7441031852515" lon="8.998416524556562"><ele>195.0</ele><time>2026-05-03T09:21:46Z</time></trkpt><trkpt lat="40.74391833773508" lon="8.998364629842982"><ele>194.0</ele><time>2026-05-03T09:21:47Z</time></trkpt><trkpt lat="40.743726059429804" lon="8.998305448055875"><ele>195.33333333333334</ele><time>2026-05-03T09:21:48Z</time></trkpt><trkpt lat="40.74353497261368" lon="8.998244547972613"><ele>196.66666666666669</ele><time>2026-05-03T09:21:49Z</time></trkpt><trkpt lat="40.743344886136505" lon="8.998177693483235"><ele>198.0</ele><time>2026-05-03T09:21:50Z</time></trkpt><trkpt lat="40.74315198745485" lon="8.998116448161053"><ele>198.0</ele><time>2026-05-03T09:21:51Z</time></trkpt><trkpt lat="40.742958135876016" lon="8.998054530219907"><ele>198.0</ele><time>2026-05-03T09:21:52Z</time></trkpt><trkpt lat="40.742769132365616" lon="8.997968275592601"><ele>198.0</ele><time>2026-05-03T09:21:53Z</time></trkpt><trkpt lat="40.742576934316844" lon="8.997925185128606"><ele>198.0</ele><time>2026-05-03T09:21:54Z</time></trkpt><trkpt lat="40.74239599769641" lon="8.997841157327882"><ele>198.0</ele><time>2026-05-03T09:21:55Z</time></trkpt><trkpt lat="40.742213242265684" lon="8.997778949162885"><ele>198.0</ele><time>2026-05-03T09:21:56Z</time></trkpt><trkpt lat="40.74202843901254" lon="8.997738505698027"><ele>198.33333333333331</ele><time>2026-05-03T09:21:57Z</time></trkpt><trkpt lat="40.74185006606176" lon="8.997672471610619"><ele>198.66666666666666</ele><time>2026-05-03T09:21:58Z</time></trkpt><trkpt lat="40.74167075673638" lon="8.997619902742775"><ele>199.0</ele><time>2026-05-03T09:21:59Z</time></trkpt><trkpt lat="40.74149900167002" lon="8.99755758223213"><ele>200.33333333333331</ele><time>2026-05-03T09:22:00Z</time></trkpt><trkpt lat="40.74133003744908" lon="8.997498227487515"><ele>201.66666666666669</ele><time>2026-05-03T09:22:01Z</time></trkpt><trkpt lat="40.74116536897696" lon="8.997441669196503"><ele>203.0</ele><time>2026-05-03T09:22:02Z</time></trkpt><trkpt lat="40.741000461967076" lon="8.997390398507576"><ele>203.66666666666669</ele><time>2026-05-03T09:22:03Z</time></trkpt><trkpt lat="40.7408336702795" lon="8.997335278656724"><ele>204.33333333333331</ele><time>2026-05-03T09:22:04Z</time></trkpt><trkpt lat="40.740666899369955" lon="8.99727989384952"><ele>205.0</ele><time>2026-05-03T09:22:05Z</time></trkpt><trkpt lat="40.740503202751405" lon="8.997206971727557"><ele>205.0</ele><time>2026-05-03T09:22:06Z</time></trkpt><trkpt lat="40.740331714646146" lon="8.997166527388838"><ele>205.0</ele><time>2026-05-03T09:22:07Z</time></trkpt><trkpt lat="40.74016499124658" lon="8.997104864631769"><ele>205.0</ele><time>2026-05-03T09:22:08Z</time></trkpt><trkpt lat="40.739995602504614" lon="8.997052077114578"><ele>206.0</ele><time>2026-05-03T09:22:09Z</time></trkpt><trkpt lat="40.73982327396291" lon="8.996985762650032"><ele>207.0</ele><time>2026-05-03T09:22:10Z</time></trkpt><trkpt lat="40.739662987489055" lon="8.99687691997361"><ele>208.0</ele><time>2026-05-03T09:22:11Z</time></trkpt><trkpt lat="40.73951422535123" lon="8.996750287208926"><ele>208.33333333333331</ele><time>2026-05-03T09:22:12Z</time></trkpt><trkpt lat="40.739385346787934" lon="8.996590568187525"><ele>208.66666666666669</ele><time>2026-05-03T09:22:13Z</time></trkpt><trkpt lat="40.73926509326128" lon="8.996412842861979"><ele>209.0</ele><time>2026-05-03T09:22:14Z</time></trkpt><trkpt lat="40.73917148320507" lon="8.996211153425326"><ele>209.0</ele><time>2026-05-03T09:22:15Z</time></trkpt><trkpt lat="40.7390858800568" lon="8.995999016315938"><ele>209.0</ele><time>2026-05-03T09:22:16Z</time></trkpt><trkpt lat="40.738991116815235" lon="8.995790041033393"><ele>209.0</ele><time>2026-05-03T09:22:17Z</time></trkpt><trkpt lat="40.73889057171413" lon="8.995575656068873"><ele>210.66666666666669</ele><time>2026-05-03T09:22:18Z</time></trkpt><trkpt lat="40.73878641411094" lon="8.995355825521651"><ele>212.33333333333331</ele><time>2026-05-03T09:22:19Z</time></trkpt><trkpt lat="40.738681909493955" lon="8.995130171421355"><ele>214.0</ele><time>2026-05-03T09:22:20Z</time></trkpt><trkpt lat="40.73857667560746" lon="8.994897503314087"><ele>213.66666666666666</ele><time>2026-05-03T09:22:21Z</time></trkpt><trkpt lat="40.73846958890361" lon="8.994665242918147"><ele>213.33333333333331</ele><time>2026-05-03T09:22:22Z</time></trkpt><trkpt lat="40.73836176106057" lon="8.994433909379763"><ele>213.0</ele><time>2026-05-03T09:22:23Z</time></trkpt><trkpt lat="40.73825443205399" lon="8.994203238571743"><ele>214.66666666666669</ele><time>2026-05-03T09:22:24Z</time></trkpt><trkpt lat="40.73814710035359" lon="8.993976099616663"><ele>216.33333333333334</ele><time>2026-05-03T09:22:25Z</time></trkpt><trkpt lat="40.73804208690462" lon="8.993749288836744"><ele>218.0</ele><time>2026-05-03T09:22:26Z</time></trkpt><trkpt lat="40.73793893417223" lon="8.99352137606135"><ele>219.33333333333334</ele><time>2026-05-03T09:22:27Z</time></trkpt><trkpt lat="40.737837295384196" lon="8.99329449000324"><ele>220.66666666666669</ele><time>2026-05-03T09:22:28Z</time></trkpt><trkpt lat="40.73773425666888" lon="8.993069035936617"><ele>222.0</ele><time>2026-05-03T09:22:29Z</time></trkpt><trkpt lat="40.737632659089314" lon="8.992847124086117"><ele>220.33333333333331</ele><time>2026-05-03T09:22:30Z</time></trkpt><trkpt lat="40.73752508854407" lon="8.992625998908698"><ele>218.66666666666666</ele><time>2026-05-03T09:22:31Z</time></trkpt><trkpt lat="40.73741994393954" lon="8.992405357748147"><ele>217.0</ele><time>2026-05-03T09:22:32Z</time></trkpt><trkpt lat="40.7373164122728" lon="8.992183976647041"><ele>217.0</ele><time>2026-05-03T09:22:33Z</time></trkpt><trkpt lat="40.73721493716023" lon="8.991962029339168"><ele>217.0</ele><time>2026-05-03T09:22:34Z</time></trkpt><trkpt lat="40.73711491206108" lon="8.991738299781321"><ele>217.0</ele><time>2026-05-03T09:22:35Z</time></trkpt><trkpt lat="40.7370124750412" lon="8.991517235912948"><ele>216.66666666666666</ele><time>2026-05-03T09:22:36Z</time></trkpt><trkpt lat="40.73691209013422" lon="8.991296696060232"><ele>216.33333333333331</ele><time>2026-05-03T09:22:37Z</time></trkpt><trkpt lat="40.73680828319296" lon="8.991075185178026"><ele>216.0</ele><time>2026-05-03T09:22:38Z</time></trkpt><trkpt lat="40.73671385417356" lon="8.990854187038146"><ele>216.66666666666669</ele><time>2026-05-03T09:22:39Z</time></trkpt><trkpt lat="40.73660813601782" lon="8.990631008880225"><ele>217.33333333333334</ele><time>2026-05-03T09:22:40Z</time></trkpt><trkpt lat="40.7365022312693" lon="8.990404952042644"><ele>218.0</ele><time>2026-05-03T09:22:41Z</time></trkpt><trkpt lat="40.73640145216149" lon="8.990179843987283"><ele>218.66666666666669</ele><time>2026-05-03T09:22:42Z</time></trkpt><trkpt lat="40.73629882784267" lon="8.989958842701755"><ele>219.33333333333331</ele><time>2026-05-03T09:22:43Z</time></trkpt><trkpt lat="40.73619770528083" lon="8.98974267407907"><ele>220.0</ele><time>2026-05-03T09:22:44Z</time></trkpt><trkpt lat="40.736099960829364" lon="8.989530079464819"><ele>219.66666666666666</ele><time>2026-05-03T09:22:45Z</time></trkpt><trkpt lat="40.73600291599985" lon="8.989323535779759"><ele>219.33333333333331</ele><time>2026-05-03T09:22:46Z</time></trkpt><trkpt lat="40.735907279158404" lon="8.989122787330142"><ele>219.0</ele><time>2026-05-03T09:22:47Z</time></trkpt><trkpt lat="40.73581097938629" lon="8.988927623737721"><ele>221.0</ele><time>2026-05-03T09:22:48Z</time></trkpt><trkpt lat="40.73570812800026" lon="8.988738246891023"><ele>223.0</ele><time>2026-05-03T09:22:49Z</time></trkpt><trkpt lat="40.73560126048782" lon="8.988577735889525"><ele>225.0</ele><time>2026-05-03T09:22:50Z</time></trkpt><trkpt lat="40.73546941923671" lon="8.988460499061006"><ele>225.0</ele><time>2026-05-03T09:22:51Z</time></trkpt><trkpt lat="40.735319556290264" lon="8.988372394894808"><ele>225.0</ele><time>2026-05-03T09:22:52Z</time></trkpt><trkpt lat="40.73517535702571" lon="8.988277235307748"><ele>225.0</ele><time>2026-05-03T09:22:53Z</time></trkpt><trkpt lat="40.73503398910741" lon="8.98817781925645"><ele>226.0</ele><time>2026-05-03T09:22:54Z</time></trkpt><trkpt lat="40.73489367938788" lon="8.98807702840156"><ele>227.0</ele><time>2026-05-03T09:22:55Z</time></trkpt><trkpt lat="40.73475410903536" lon="8.987973619482782"><ele>228.0</ele><time>2026-05-03T09:22:56Z</time></trkpt><trkpt lat="40.734616519492356" lon="8.987871783834843"><ele>228.0</ele><time>2026-05-03T09:22:57Z</time></trkpt><trkpt lat="40.734483849832" lon="8.987775642803001"><ele>228.0</ele><time>2026-05-03T09:22:58Z</time></trkpt><trkpt lat="40.73435783329779" lon="8.987686029911494"><ele>228.0</ele><time>2026-05-03T09:22:59Z</time></trkpt><trkpt lat="40.73423405085242" lon="8.987601960068144"><ele>228.0</ele><time>2026-05-03T09:23:00Z</time></trkpt><trkpt lat="40.734113601429804" lon="8.9875201560331"><ele>230.75</ele><time>2026-05-03T09:23:01Z</time></trkpt><trkpt lat="40.73400075843393" lon="8.987436025095155"><ele>233.5</ele><time>2026-05-03T09:23:02Z</time></trkpt><trkpt lat="40.73389659245707" lon="8.987346818663367"><ele>236.25</ele><time>2026-05-03T09:23:03Z</time></trkpt><trkpt lat="40.73380475691733" lon="8.987246993893038"><ele>239.0</ele><time>2026-05-03T09:23:04Z</time></trkpt><trkpt lat="40.733723485615336" lon="8.987148050912287"><ele>239.0</ele><time>2026-05-03T09:23:05Z</time></trkpt><trkpt lat="40.73365439704892" lon="8.987054443522965"><ele>238.99999999999997</ele><time>2026-05-03T09:23:06Z</time></trkpt><trkpt lat="40.73359370249241" lon="8.98696363071242"><ele>238.99999999999997</ele><time>2026-05-03T09:23:07Z</time></trkpt><trkpt lat="40.73353144391504" lon="8.986870588705749"><ele>239.0</ele><time>2026-05-03T09:23:08Z</time></trkpt><trkpt lat="40.7334647930897" lon="8.986776080645368"><ele>239.0</ele><time>2026-05-03T09:23:09Z</time></trkpt><trkpt lat="40.73338959990061" lon="8.986669598285465"><ele>240.0</ele><time>2026-05-03T09:23:10Z</time></trkpt><trkpt lat="40.73331229661421" lon="8.986553232895712"><ele>241.0</ele><time>2026-05-03T09:23:11Z</time></trkpt><trkpt lat="40.7332305257523" lon="8.98643000796799"><ele>242.0</ele><time>2026-05-03T09:23:12Z</time></trkpt><trkpt lat="40.733142897722516" lon="8.986300876529855"><ele>243.0</ele><time>2026-05-03T09:23:13Z</time></trkpt><trkpt lat="40.733052293302876" lon="8.986168637495627"><ele>243.0</ele><time>2026-05-03T09:23:14Z</time></trkpt><trkpt lat="40.73295682869771" lon="8.986032381193393"><ele>243.0</ele><time>2026-05-03T09:23:15Z</time></trkpt><trkpt lat="40.73285948598757" lon="8.985894974630845"><ele>243.0</ele><time>2026-05-03T09:23:16Z</time></trkpt><trkpt lat="40.73275955496273" lon="8.985754770963037"><ele>243.0</ele><time>2026-05-03T09:23:17Z</time></trkpt><trkpt lat="40.73265990873053" lon="8.985611844201161"><ele>242.75</ele><time>2026-05-03T09:23:18Z</time></trkpt><trkpt lat="40.732561944666486" lon="8.985469929355824"><ele>242.5</ele><time>2026-05-03T09:23:19Z</time></trkpt><trkpt lat="40.73246687184263" lon="8.985333371814509"><ele>242.25</ele><time>2026-05-03T09:23:20Z</time></trkpt><trkpt lat="40.732377893608145" lon="8.985206307564546"><ele>242.0</ele><time>2026-05-03T09:23:21Z</time></trkpt><trkpt lat="40.732298910335324" lon="8.985090797593635"><ele>242.0</ele><time>2026-05-03T09:23:22Z</time></trkpt><trkpt lat="40.73222556577366" lon="8.984984747415497"><ele>242.0</ele><time>2026-05-03T09:23:23Z</time></trkpt><trkpt lat="40.73214628544838" lon="8.98487130234981"><ele>242.0</ele><time>2026-05-03T09:23:24Z</time></trkpt><trkpt lat="40.73206548595407" lon="8.984754342058544"><ele>242.0</ele><time>2026-05-03T09:23:25Z</time></trkpt><trkpt lat="40.73198019163485" lon="8.984641022483162"><ele>242.0</ele><time>2026-05-03T09:23:26Z</time></trkpt><trkpt lat="40.73190350813656" lon="8.984516280619431"><ele>242.0</ele><time>2026-05-03T09:23:27Z</time></trkpt><trkpt lat="40.731817247931744" lon="8.984396611983804"><ele>242.0</ele><time>2026-05-03T09:23:28Z</time></trkpt><trkpt lat="40.73173308401026" lon="8.984271840875335"><ele>242.0</ele><time>2026-05-03T09:23:29Z</time></trkpt><trkpt lat="40.73164765692045" lon="8.984146268104189"><ele>241.5</ele><time>2026-05-03T09:23:30Z</time></trkpt><trkpt lat="40.731561609366686" lon="8.984022143212199"><ele>241.0</ele><time>2026-05-03T09:23:31Z</time></trkpt><trkpt lat="40.73147508514544" lon="8.983895539011744"><ele>240.5</ele><time>2026-05-03T09:23:32Z</time></trkpt><trkpt lat="40.73138854831225" lon="8.983767939292335"><ele>240.0</ele><time>2026-05-03T09:23:33Z</time></trkpt><trkpt lat="40.731299262460716" lon="8.98364730618894"><ele>240.0</ele><time>2026-05-03T09:23:34Z</time></trkpt><trkpt lat="40.731207169359514" lon="8.983541604083275"><ele>240.0</ele><time>2026-05-03T09:23:35Z</time></trkpt><trkpt lat="40.73110009569168" lon="8.983476113431117"><ele>240.0</ele><time>2026-05-03T09:23:36Z</time></trkpt><trkpt lat="40.730980288993315" lon="8.983450679923644"><ele>240.0</ele><time>2026-05-03T09:23:37Z</time></trkpt><trkpt lat="40.73085712970797" lon="8.983448410494253"><ele>239.25</ele><time>2026-05-03T09:23:38Z</time></trkpt><trkpt lat="40.73073610733573" lon="8.983448859657738"><ele>238.5</ele><time>2026-05-03T09:23:39Z</time></trkpt><trkpt lat="40.730614976131314" lon="8.983440797296383"><ele>237.75</ele><time>2026-05-03T09:23:40Z</time></trkpt><trkpt lat="40.73049105476418" lon="8.983425828131441"><ele>237.0</ele><time>2026-05-03T09:23:41Z</time></trkpt><trkpt lat="40.73036712923074" lon="8.983403902343035"><ele>237.0</ele><time>2026-05-03T09:23:42Z</time></trkpt><trkpt lat="40.73024733076217" lon="8.983390105131505"><ele>237.0</ele><time>2026-05-03T09:23:43Z</time></trkpt><trkpt lat="40.73013704874618" lon="8.983383711984052"><ele>237.0</ele><time>2026-05-03T09:23:44Z</time></trkpt><trkpt lat="40.73003525397572" lon="8.98338130890639"><ele>237.0</ele><time>2026-05-03T09:23:45Z</time></trkpt><trkpt lat="40.729936390000084" lon="8.983371345627571"><ele>237.0</ele><time>2026-05-03T09:23:46Z</time></trkpt><trkpt lat="40.72983329813357" lon="8.983361920735224"><ele>236.5</ele><time>2026-05-03T09:23:47Z</time></trkpt><trkpt lat="40.72972447451529" lon="8.983351920859693"><ele>236.0</ele><time>2026-05-03T09:23:48Z</time></trkpt><trkpt lat="40.729611304712996" lon="8.98334284686258"><ele>235.5</ele><time>2026-05-03T09:23:49Z</time></trkpt><trkpt lat="40.72949455350138" lon="8.983334722302805"><ele>235.0</ele><time>2026-05-03T09:23:50Z</time></trkpt><trkpt lat="40.729373696133294" lon="8.983324185398072"><ele>234.25</ele><time>2026-05-03T09:23:51Z</time></trkpt><trkpt lat="40.729249844342704" lon="8.98330893742351"><ele>233.5</ele><time>2026-05-03T09:23:52Z</time></trkpt><trkpt lat="40.72913105043651" lon="8.983291081310538"><ele>232.75</ele><time>2026-05-03T09:23:53Z</time></trkpt><trkpt lat="40.72901462712939" lon="8.983272423592556"><ele>232.0</ele><time>2026-05-03T09:23:54Z</time></trkpt><trkpt lat="40.72890155110742" lon="8.98325686691994"><ele>232.0</ele><time>2026-05-03T09:23:55Z</time></trkpt><trkpt lat="40.72878928050114" lon="8.983248529534286"><ele>232.0</ele><time>2026-05-03T09:23:56Z</time></trkpt><trkpt lat="40.728678479465735" lon="8.983245855730008"><ele>232.0</ele><time>2026-05-03T09:23:57Z</time></trkpt><trkpt lat="40.72856768380488" lon="8.983247618266283"><ele>232.0</ele><time>2026-05-03T09:23:58Z</time></trkpt><trkpt lat="40.728457359816616" lon="8.98325330828457"><ele>232.0</ele><time>2026-05-03T09:23:59Z</time></trkpt><trkpt lat="40.72834659199995" lon="8.983259544835875"><ele>231.0</ele><time>2026-05-03T09:24:00Z</time></trkpt><trkpt lat="40.728235299296635" lon="8.983265105669236"><ele>230.0</ele><time>2026-05-03T09:24:01Z</time></trkpt><trkpt lat="40.728121699171844" lon="8.98326978507714"><ele>229.0</ele><time>2026-05-03T09:24:02Z</time></trkpt><trkpt lat="40.728005260638376" lon="8.983277749574302"><ele>228.0</ele><time>2026-05-03T09:24:03Z</time></trkpt><trkpt lat="40.72789188134188" lon="8.983283568776327"><ele>228.0</ele><time>2026-05-03T09:24:04Z</time></trkpt><trkpt lat="40.72777849789568" lon="8.983276165808194"><ele>228.0</ele><time>2026-05-03T09:24:05Z</time></trkpt><trkpt lat="40.72766052923082" lon="8.983260090827121"><ele>228.0</ele><time>2026-05-03T09:24:06Z</time></trkpt><trkpt lat="40.72751974637395" lon="8.983230347726309"><ele>228.0</ele><time>2026-05-03T09:24:07Z</time></trkpt><trkpt lat="40.72737008881955" lon="8.98319573180286"><ele>226.0</ele><time>2026-05-03T09:24:08Z</time></trkpt><trkpt lat="40.727063535495944" lon="8.983110416304813"><ele>224.0</ele><time>2026-05-03T09:24:10Z</time></trkpt><trkpt lat="40.726909316652865" lon="8.983062637044474"><ele>223.0</ele><time>2026-05-03T09:24:11Z</time></trkpt><trkpt lat="40.726756077353485" lon="8.983012860293197"><ele>222.0</ele><time>2026-05-03T09:24:12Z</time></trkpt><trkpt lat="40.72660309826419" lon="8.982965047104962"><ele>221.0</ele><time>2026-05-03T09:24:13Z</time></trkpt><trkpt lat="40.726451614613076" lon="8.982918427681529"><ele>221.0</ele><time>2026-05-03T09:24:14Z</time></trkpt><trkpt lat="40.72630209744372" lon="8.982873393712367"><ele>221.0</ele><time>2026-05-03T09:24:15Z</time></trkpt><trkpt lat="40.726154499709565" lon="8.98283989756542"><ele>221.0</ele><time>2026-05-03T09:24:16Z</time></trkpt><trkpt lat="40.726013639237365" lon="8.982826488135156"><ele>221.0</ele><time>2026-05-03T09:24:17Z</time></trkpt><trkpt lat="40.725878946412166" lon="8.982826445309165"><ele>220.25</ele><time>2026-05-03T09:24:18Z</time></trkpt><trkpt lat="40.725749138636395" lon="8.982829145328019"><ele>219.5</ele><time>2026-05-03T09:24:19Z</time></trkpt><trkpt lat="40.72561747731259" lon="8.982832744078207"><ele>218.75</ele><time>2026-05-03T09:24:20Z</time></trkpt><trkpt lat="40.725483884515796" lon="8.982835773199906"><ele>218.0</ele><time>2026-05-03T09:24:21Z</time></trkpt><trkpt lat="40.72534832618216" lon="8.982839320860311"><ele>217.0</ele><time>2026-05-03T09:24:22Z</time></trkpt><trkpt lat="40.72520908268313" lon="8.98284451809063"><ele>216.0</ele><time>2026-05-03T09:24:23Z</time></trkpt><trkpt lat="40.72506251203714" lon="8.982851048455686"><ele>215.0</ele><time>2026-05-03T09:24:24Z</time></trkpt><trkpt lat="40.72490807870878" lon="8.982836726996618"><ele>214.0</ele><time>2026-05-03T09:24:25Z</time></trkpt><trkpt lat="40.724747829123736" lon="8.982842290063104"><ele>214.0</ele><time>2026-05-03T09:24:26Z</time></trkpt><trkpt lat="40.724583443942386" lon="8.982847996696762"><ele>214.0</ele><time>2026-05-03T09:24:27Z</time></trkpt><trkpt lat="40.72441812453878" lon="8.982853735761722"><ele>214.0</ele><time>2026-05-03T09:24:28Z</time></trkpt><trkpt lat="40.7242532373319" lon="8.982859459822626"><ele>212.66666666666666</ele><time>2026-05-03T09:24:29Z</time></trkpt><trkpt lat="40.7240892154233" lon="8.982865153845228"><ele>211.33333333333331</ele><time>2026-05-03T09:24:30Z</time></trkpt><trkpt lat="40.72392691992982" lon="8.982870787935095"><ele>210.0</ele><time>2026-05-03T09:24:31Z</time></trkpt><trkpt lat="40.723753592965174" lon="8.982876804983185"><ele>210.0</ele><time>2026-05-03T09:24:32Z</time></trkpt><trkpt lat="40.72359101764692" lon="8.982882448790567"><ele>210.0</ele><time>2026-05-03T09:24:33Z</time></trkpt><trkpt lat="40.723434081064106" lon="8.982887508542134"><ele>210.0</ele><time>2026-05-03T09:24:34Z</time></trkpt><trkpt lat="40.723286302227905" lon="8.982892300331116"><ele>209.6</ele><time>2026-05-03T09:24:35Z</time></trkpt><trkpt lat="40.72315869943641" lon="8.982896437904436"><ele>209.2</ele><time>2026-05-03T09:24:36Z</time></trkpt><trkpt lat="40.7230562616631" lon="8.982899833351132"><ele>208.8</ele><time>2026-05-03T09:24:37Z</time></trkpt><trkpt lat="40.722972295212465" lon="8.982903366483828"><ele>208.4</ele><time>2026-05-03T09:24:38Z</time></trkpt><trkpt lat="40.72288530907859" lon="8.982907025079339"><ele>208.0</ele><time>2026-05-03T09:24:39Z</time></trkpt><trkpt lat="40.72280541137651" lon="8.982910385531994"><ele>207.99999999999997</ele><time>2026-05-03T09:24:40Z</time></trkpt><trkpt lat="40.72273991768652" lon="8.982934073884357"><ele>208.0</ele><time>2026-05-03T09:24:41Z</time></trkpt><trkpt lat="40.72264345361829" lon="8.982917432187955"><ele>208.0</ele><time>2026-05-03T09:24:43Z</time></trkpt><trkpt lat="40.7225547784748" lon="8.982924372466663"><ele>208.0</ele><time>2026-05-03T09:24:45Z</time></trkpt><trkpt lat="40.72244919515279" lon="8.982932867732805"><ele>207.99999999999997</ele><time>2026-05-03T09:24:47Z</time></trkpt><trkpt lat="40.72238565271767" lon="8.982943751859711"><ele>208.0</ele><time>2026-05-03T09:24:48Z</time></trkpt><trkpt lat="40.72232059939575" lon="8.982977548728952"><ele>208.33333333333331</ele><time>2026-05-03T09:24:49Z</time></trkpt><trkpt lat="40.72224873570337" lon="8.982993712259129"><ele>208.66666666666666</ele><time>2026-05-03T09:24:50Z</time></trkpt><trkpt lat="40.722171328028054" lon="8.9830138487707"><ele>209.0</ele><time>2026-05-03T09:24:51Z</time></trkpt><trkpt lat="40.72210173035256" lon="8.983039891907968"><ele>209.33333333333331</ele><time>2026-05-03T09:24:52Z</time></trkpt><trkpt lat="40.72198182839409" lon="8.98307591700733"><ele>209.66666666666666</ele><time>2026-05-03T09:24:54Z</time></trkpt><trkpt lat="40.72192193562032" lon="8.983102527619941"><ele>210.0</ele><time>2026-05-03T09:24:55Z</time></trkpt><trkpt lat="40.721848092997575" lon="8.983136788509118"><ele>209.2</ele><time>2026-05-03T09:24:56Z</time></trkpt><trkpt lat="40.72176565870663" lon="8.983179726018047"><ele>208.4</ele><time>2026-05-03T09:24:57Z</time></trkpt><trkpt lat="40.72168620269397" lon="8.983204164471793"><ele>207.60000000000002</ele><time>2026-05-03T09:24:58Z</time></trkpt><trkpt lat="40.721607131058846" lon="8.983251704578272"><ele>206.8</ele><time>2026-05-03T09:24:59Z</time></trkpt><trkpt lat="40.721511709145965" lon="8.98331348839355"><ele>206.0</ele><time>2026-05-03T09:25:00Z</time></trkpt><trkpt lat="40.7214034230639" lon="8.983389120189539"><ele>205.8</ele><time>2026-05-03T09:25:01Z</time></trkpt><trkpt lat="40.72129871588917" lon="8.983467245015884"><ele>205.60000000000002</ele><time>2026-05-03T09:25:02Z</time></trkpt><trkpt lat="40.721208667604934" lon="8.983539133118857"><ele>205.4</ele><time>2026-05-03T09:25:03Z</time></trkpt><trkpt lat="40.72114364792012" lon="8.983622846355209"><ele>205.2</ele><time>2026-05-03T09:25:04Z</time></trkpt><trkpt lat="40.72107678993058" lon="8.983682141168325"><ele>205.0</ele><time>2026-05-03T09:25:05Z</time></trkpt><trkpt lat="40.72100497813361" lon="8.983723516600476"><ele>204.25</ele><time>2026-05-03T09:25:06Z</time></trkpt><trkpt lat="40.720939045088315" lon="8.983784267525529"><ele>203.5</ele><time>2026-05-03T09:25:07Z</time></trkpt><trkpt lat="40.72085148936721" lon="8.983866023087902"><ele>202.75</ele><time>2026-05-03T09:25:08Z</time></trkpt><trkpt lat="40.72074620940536" lon="8.98396594368607"><ele>202.0</ele><time>2026-05-03T09:25:09Z</time></trkpt><trkpt lat="40.72061790604932" lon="8.984087411966566"><ele>201.66666666666666</ele><time>2026-05-03T09:25:10Z</time></trkpt><trkpt lat="40.72047307799289" lon="8.984223788578381"><ele>201.33333333333331</ele><time>2026-05-03T09:25:11Z</time></trkpt><trkpt lat="40.72032752502428" lon="8.984360847892741"><ele>201.0</ele><time>2026-05-03T09:25:12Z</time></trkpt><trkpt lat="40.72019033519034" lon="8.984512329360857"><ele>201.0</ele><time>2026-05-03T09:25:13Z</time></trkpt><trkpt lat="40.720044166306856" lon="8.984645109310833"><ele>201.0</ele><time>2026-05-03T09:25:14Z</time></trkpt><trkpt lat="40.71989766426958" lon="8.984781834065295"><ele>201.0</ele><time>2026-05-03T09:25:15Z</time></trkpt><trkpt lat="40.71975005496422" lon="8.984915477025938"><ele>200.33333333333331</ele><time>2026-05-03T09:25:16Z</time></trkpt><trkpt lat="40.7195992932127" lon="8.985050758391601"><ele>199.66666666666666</ele><time>2026-05-03T09:25:17Z</time></trkpt><trkpt lat="40.71944409667911" lon="8.985178635312053"><ele>199.0</ele><time>2026-05-03T09:25:18Z</time></trkpt><trkpt lat="40.719282237967384" lon="8.985302378527185"><ele>198.66666666666666</ele><time>2026-05-03T09:25:19Z</time></trkpt><trkpt lat="40.71911507706098" lon="8.985425117422489"><ele>198.33333333333331</ele><time>2026-05-03T09:25:20Z</time></trkpt><trkpt lat="40.71894790094197" lon="8.985545978372507"><ele>198.0</ele><time>2026-05-03T09:25:21Z</time></trkpt><trkpt lat="40.718785936766906" lon="8.985662726450595"><ele>198.0</ele><time>2026-05-03T09:25:22Z</time></trkpt><trkpt lat="40.7186263497204" lon="8.985776502278492"><ele>198.0</ele><time>2026-05-03T09:25:23Z</time></trkpt><trkpt lat="40.71846951445137" lon="8.985887017724561"><ele>198.0</ele><time>2026-05-03T09:25:24Z</time></trkpt><trkpt lat="40.718311272222024" lon="8.986002292108063"><ele>197.0</ele><time>2026-05-03T09:25:25Z</time></trkpt><trkpt lat="40.71815236417925" lon="8.986123143737803"><ele>196.0</ele><time>2026-05-03T09:25:26Z</time></trkpt><trkpt lat="40.717982388319314" lon="8.986222132973085"><ele>195.0</ele><time>2026-05-03T09:25:27Z</time></trkpt><trkpt lat="40.71781785457694" lon="8.986341205918073"><ele>195.0</ele><time>2026-05-03T09:25:28Z</time></trkpt><trkpt lat="40.717648820392526" lon="8.986463440174754"><ele>195.0</ele><time>2026-05-03T09:25:29Z</time></trkpt><trkpt lat="40.71747494908327" lon="8.986589956641229"><ele>195.0</ele><time>2026-05-03T09:25:30Z</time></trkpt><trkpt lat="40.7173051812835" lon="8.986738215387197"><ele>195.0</ele><time>2026-05-03T09:25:31Z</time></trkpt><trkpt lat="40.71712594930596" lon="8.98686868178581"><ele>195.0</ele><time>2026-05-03T09:25:32Z</time></trkpt><trkpt lat="40.71694697105557" lon="8.987001032978954"><ele>195.0</ele><time>2026-05-03T09:25:33Z</time></trkpt><trkpt lat="40.71676637319249" lon="8.987131792769334"><ele>195.0</ele><time>2026-05-03T09:25:34Z</time></trkpt><trkpt lat="40.71657847056443" lon="8.987244661760018"><ele>195.0</ele><time>2026-05-03T09:25:35Z</time></trkpt><trkpt lat="40.716398487769354" lon="8.987375735585257"><ele>195.0</ele><time>2026-05-03T09:25:36Z</time></trkpt><trkpt lat="40.71622879876572" lon="8.987526803644625"><ele>193.66666666666666</ele><time>2026-05-03T09:25:37Z</time></trkpt><trkpt lat="40.71605060147045" lon="8.98765496459154"><ele>192.33333333333331</ele><time>2026-05-03T09:25:38Z</time></trkpt><trkpt lat="40.71586519130041" lon="8.98776417111002"><ele>191.0</ele><time>2026-05-03T09:25:39Z</time></trkpt><trkpt lat="40.71569520944083" lon="8.987909348621544"><ele>191.0</ele><time>2026-05-03T09:25:40Z</time></trkpt><trkpt lat="40.715516635637066" lon="8.988034056982398"><ele>191.0</ele><time>2026-05-03T09:25:41Z</time></trkpt><trkpt lat="40.71533021976276" lon="8.988155481682153"><ele>191.0</ele><time>2026-05-03T09:25:42Z</time></trkpt><trkpt lat="40.71513750270233" lon="8.988269376811097"><ele>190.33333333333331</ele><time>2026-05-03T09:25:43Z</time></trkpt><trkpt lat="40.714942042710426" lon="8.988374433980255"><ele>189.66666666666666</ele><time>2026-05-03T09:25:44Z</time></trkpt><trkpt lat="40.714745545868055" lon="8.988474484890613"><ele>189.0</ele><time>2026-05-03T09:25:45Z</time></trkpt><trkpt lat="40.71454561556099" lon="8.98856635214736"><ele>189.0</ele><time>2026-05-03T09:25:46Z</time></trkpt><trkpt lat="40.714344993805454" lon="8.988645855489114"><ele>189.0</ele><time>2026-05-03T09:25:47Z</time></trkpt><trkpt lat="40.71414640347803" lon="8.988721357806325"><ele>189.0</ele><time>2026-05-03T09:25:48Z</time></trkpt><trkpt lat="40.71395146740097" lon="8.988788907645757"><ele>189.0</ele><time>2026-05-03T09:25:49Z</time></trkpt><trkpt lat="40.71375557417944" lon="8.988828229009115"><ele>189.0</ele><time>2026-05-03T09:25:50Z</time></trkpt><trkpt lat="40.71356250530501" lon="8.9889083801993"><ele>189.0</ele><time>2026-05-03T09:25:51Z</time></trkpt><trkpt lat="40.71336441886857" lon="8.988968309063898"><ele>189.33333333333334</ele><time>2026-05-03T09:25:52Z</time></trkpt><trkpt lat="40.7131599559619" lon="8.989031027324884"><ele>189.66666666666669</ele><time>2026-05-03T09:25:53Z</time></trkpt><trkpt lat="40.712948648246524" lon="8.989095553154149"><ele>190.0</ele><time>2026-05-03T09:25:54Z</time></trkpt><trkpt lat="40.712727770505445" lon="8.989162758641545"><ele>189.5</ele><time>2026-05-03T09:25:55Z</time></trkpt><trkpt lat="40.71250023711415" lon="8.989233914357026"><ele>189.0</ele><time>2026-05-03T09:25:56Z</time></trkpt><trkpt lat="40.712263720236834" lon="8.989307620362448"><ele>189.0</ele><time>2026-05-03T09:25:57Z</time></trkpt><trkpt lat="40.712023188768384" lon="8.98938203562978"><ele>189.0</ele><time>2026-05-03T09:25:58Z</time></trkpt><trkpt lat="40.71177986543859" lon="8.989455159312385"><ele>187.5</ele><time>2026-05-03T09:25:59Z</time></trkpt><trkpt lat="40.711530353447316" lon="8.989508448273263"><ele>186.0</ele><time>2026-05-03T09:26:00Z</time></trkpt><trkpt lat="40.71128893148838" lon="8.989604546019095"><ele>184.0</ele><time>2026-05-03T09:26:01Z</time></trkpt><trkpt lat="40.71103888832809" lon="8.989660225784315"><ele>182.0</ele><time>2026-05-03T09:26:02Z</time></trkpt><trkpt lat="40.710791072293766" lon="8.98973680472598"><ele>182.0</ele><time>2026-05-03T09:26:03Z</time></trkpt><trkpt lat="40.71054805961414" lon="8.989832958605371"><ele>182.0</ele><time>2026-05-03T09:26:04Z</time></trkpt><trkpt lat="40.71029820170403" lon="8.98988363259874"><ele>180.5</ele><time>2026-05-03T09:26:05Z</time></trkpt><trkpt lat="40.710052229725086" lon="8.98995713386325"><ele>179.0</ele><time>2026-05-03T09:26:06Z</time></trkpt><trkpt lat="40.70980551449631" lon="8.990033364516337"><ele>178.5</ele><time>2026-05-03T09:26:07Z</time></trkpt><trkpt lat="40.70955875348114" lon="8.9901096658164"><ele>178.0</ele><time>2026-05-03T09:26:08Z</time></trkpt><trkpt lat="40.709319994095694" lon="8.990183495642198"><ele>176.5</ele><time>2026-05-03T09:26:09Z</time></trkpt><trkpt lat="40.70909161153103" lon="8.990251770255348"><ele>175.0</ele><time>2026-05-03T09:26:10Z</time></trkpt><trkpt lat="40.70886922651781" lon="8.990331491227389"><ele>175.0</ele><time>2026-05-03T09:26:11Z</time></trkpt><trkpt lat="40.70863776140485" lon="8.990385027034593"><ele>175.0</ele><time>2026-05-03T09:26:12Z</time></trkpt><trkpt lat="40.708402208104765" lon="8.990432002422324"><ele>176.5</ele><time>2026-05-03T09:26:13Z</time></trkpt><trkpt lat="40.708166552142956" lon="8.990470950967296"><ele>178.0</ele><time>2026-05-03T09:26:14Z</time></trkpt><trkpt lat="40.70793367515919" lon="8.99048703832372"><ele>177.5</ele><time>2026-05-03T09:26:15Z</time></trkpt><trkpt lat="40.707705725322846" lon="8.990522653734798"><ele>177.0</ele><time>2026-05-03T09:26:16Z</time></trkpt><trkpt lat="40.70747950740985" lon="8.990580637375807"><ele>177.0</ele><time>2026-05-03T09:26:17Z</time></trkpt><trkpt lat="40.7072541982231" lon="8.990595941188177"><ele>177.0</ele><time>2026-05-03T09:26:18Z</time></trkpt><trkpt lat="40.70703160771706" lon="8.990632198050859"><ele>176.66666666666666</ele><time>2026-05-03T09:26:19Z</time></trkpt><trkpt lat="40.706819031263855" lon="8.990686726732696"><ele>176.33333333333331</ele><time>2026-05-03T09:26:20Z</time></trkpt><trkpt lat="40.70659913689655" lon="8.990683772102908"><ele>176.0</ele><time>2026-05-03T09:26:21Z</time></trkpt><trkpt lat="40.70637888847766" lon="8.990664137444146"><ele>176.0</ele><time>2026-05-03T09:26:22Z</time></trkpt><trkpt lat="40.706153183079024" lon="8.990605517589215"><ele>176.0</ele><time>2026-05-03T09:26:23Z</time></trkpt><trkpt lat="40.70591319198358" lon="8.990538976108445"><ele>174.5</ele><time>2026-05-03T09:26:24Z</time></trkpt><trkpt lat="40.70566575020071" lon="8.990471326848946"><ele>173.0</ele><time>2026-05-03T09:26:25Z</time></trkpt><trkpt lat="40.705413823508515" lon="8.99042207601855"><ele>172.0</ele><time>2026-05-03T09:26:26Z</time></trkpt><trkpt lat="40.70516871600177" lon="8.990348658874959"><ele>171.0</ele><time>2026-05-03T09:26:27Z</time></trkpt><trkpt lat="40.704927118949655" lon="8.990281713169342"><ele>171.0</ele><time>2026-05-03T09:26:28Z</time></trkpt><trkpt lat="40.70469238129521" lon="8.990215791886293"><ele>171.0</ele><time>2026-05-03T09:26:29Z</time></trkpt><trkpt lat="40.70446323266698" lon="8.990152855785908"><ele>170.5</ele><time>2026-05-03T09:26:30Z</time></trkpt><trkpt lat="40.7042402171496" lon="8.990091340255933"><ele>170.0</ele><time>2026-05-03T09:26:31Z</time></trkpt><trkpt lat="40.70401750168112" lon="8.990031549566371"><ele>169.5</ele><time>2026-05-03T09:26:32Z</time></trkpt><trkpt lat="40.70379410485056" lon="8.989969667582768"><ele>169.0</ele><time>2026-05-03T09:26:33Z</time></trkpt><trkpt lat="40.703566711949705" lon="8.989906335465289"><ele>168.5</ele><time>2026-05-03T09:26:34Z</time></trkpt><trkpt lat="40.70333776856466" lon="8.989843726679233"><ele>168.0</ele><time>2026-05-03T09:26:35Z</time></trkpt><trkpt lat="40.70310728354268" lon="8.989782565819876"><ele>168.0</ele><time>2026-05-03T09:26:36Z</time></trkpt><trkpt lat="40.702876377864136" lon="8.989718427579687"><ele>168.0</ele><time>2026-05-03T09:26:37Z</time></trkpt><trkpt lat="40.70264496136745" lon="8.989651813570909"><ele>168.0</ele><time>2026-05-03T09:26:38Z</time></trkpt><trkpt lat="40.702414579739" lon="8.98958749183409"><ele>168.0</ele><time>2026-05-03T09:26:39Z</time></trkpt><trkpt lat="40.702188351368086" lon="8.989524418660233"><ele>168.0</ele><time>2026-05-03T09:26:40Z</time></trkpt><trkpt lat="40.70196281810614" lon="8.989461131760462"><ele>168.0</ele><time>2026-05-03T09:26:41Z</time></trkpt><trkpt lat="40.70173953601537" lon="8.989399108519677"><ele>169.5</ele><time>2026-05-03T09:26:42Z</time></trkpt><trkpt lat="40.701515230145326" lon="8.989339387616317"><ele>171.0</ele><time>2026-05-03T09:26:43Z</time></trkpt><trkpt lat="40.701291775594555" lon="8.989279180380747"><ele>170.5</ele><time>2026-05-03T09:26:44Z</time></trkpt><trkpt lat="40.701069367056455" lon="8.989216251899341"><ele>170.0</ele><time>2026-05-03T09:26:45Z</time></trkpt><trkpt lat="40.700849636513226" lon="8.989153880930882"><ele>170.66666666666666</ele><time>2026-05-03T09:26:46Z</time></trkpt><trkpt lat="40.70063157095158" lon="8.989094527512089"><ele>171.33333333333334</ele><time>2026-05-03T09:26:47Z</time></trkpt><trkpt lat="40.70041619568716" lon="8.98903711908887"><ele>172.0</ele><time>2026-05-03T09:26:48Z</time></trkpt><trkpt lat="40.70020450286975" lon="8.98897834054451"><ele>173.0</ele><time>2026-05-03T09:26:49Z</time></trkpt><trkpt lat="40.69999504056122" lon="8.988922933385103"><ele>174.0</ele><time>2026-05-03T09:26:50Z</time></trkpt><trkpt lat="40.69978336730364" lon="8.98887855151084"><ele>175.0</ele><time>2026-05-03T09:26:51Z</time></trkpt><trkpt lat="40.699565782153115" lon="8.988848799635129"><ele>175.33333333333334</ele><time>2026-05-03T09:26:52Z</time></trkpt><trkpt lat="40.69934473284354" lon="8.988839585410025"><ele>175.66666666666666</ele><time>2026-05-03T09:26:53Z</time></trkpt><trkpt lat="40.69911791845837" lon="8.988837913097658"><ele>176.0</ele><time>2026-05-03T09:26:54Z</time></trkpt><trkpt lat="40.69888658481701" lon="8.988839007778207"><ele>176.0</ele><time>2026-05-03T09:26:55Z</time></trkpt><trkpt lat="40.69865263347857" lon="8.988842882114316"><ele>176.0</ele><time>2026-05-03T09:26:56Z</time></trkpt><trkpt lat="40.69841644861022" lon="8.98884691945542"><ele>174.5</ele><time>2026-05-03T09:26:57Z</time></trkpt><trkpt lat="40.69817976156099" lon="8.988848594164237"><ele>173.0</ele><time>2026-05-03T09:26:58Z</time></trkpt><trkpt lat="40.69794455680633" lon="8.988847255738985"><ele>172.5</ele><time>2026-05-03T09:26:59Z</time></trkpt><trkpt lat="40.697712412179506" lon="8.988836446386566"><ele>172.0</ele><time>2026-05-03T09:27:00Z</time></trkpt><trkpt lat="40.69748120527345" lon="8.988806044313476"><ele>172.0</ele><time>2026-05-03T09:27:01Z</time></trkpt><trkpt lat="40.69725204365248" lon="8.988756500845797"><ele>172.0</ele><time>2026-05-03T09:27:02Z</time></trkpt><trkpt lat="40.6970252873227" lon="8.988696599137775"><ele>172.5</ele><time>2026-05-03T09:27:03Z</time></trkpt><trkpt lat="40.69679975088129" lon="8.988634048900137"><ele>173.0</ele><time>2026-05-03T09:27:04Z</time></trkpt><trkpt lat="40.69657091429676" lon="8.988569786375109"><ele>173.0</ele><time>2026-05-03T09:27:05Z</time></trkpt><trkpt lat="40.69634088468754" lon="8.988503276599394"><ele>173.0</ele><time>2026-05-03T09:27:06Z</time></trkpt><trkpt lat="40.696110137408006" lon="8.988435038748882"><ele>173.0</ele><time>2026-05-03T09:27:07Z</time></trkpt><trkpt lat="40.69588175153785" lon="8.988366670971486"><ele>173.0</ele><time>2026-05-03T09:27:08Z</time></trkpt><trkpt lat="40.69566011133646" lon="8.988302963620491"><ele>173.0</ele><time>2026-05-03T09:27:09Z</time></trkpt><trkpt lat="40.6954360657458" lon="8.988258682237987"><ele>173.0</ele><time>2026-05-03T09:27:10Z</time></trkpt><trkpt lat="40.695212046539915" lon="8.988242019932086"><ele>172.0</ele><time>2026-05-03T09:27:11Z</time></trkpt><trkpt lat="40.694983500008604" lon="8.988252044112365"><ele>171.0</ele><time>2026-05-03T09:27:12Z</time></trkpt><trkpt lat="40.69475522562819" lon="8.988274951470489"><ele>171.0</ele><time>2026-05-03T09:27:13Z</time></trkpt><trkpt lat="40.69452442960385" lon="8.988303551080744"><ele>171.0</ele><time>2026-05-03T09:27:14Z</time></trkpt><trkpt lat="40.69429224422047" lon="8.988333479124732"><ele>171.0</ele><time>2026-05-03T09:27:15Z</time></trkpt><trkpt lat="40.69405955949972" lon="8.988366949285634"><ele>171.0</ele><time>2026-05-03T09:27:16Z</time></trkpt><trkpt lat="40.69383107159039" lon="8.988393950973201"><ele>171.0</ele><time>2026-05-03T09:27:17Z</time></trkpt><trkpt lat="40.69360863837091" lon="8.988419596958808"><ele>171.0</ele><time>2026-05-03T09:27:18Z</time></trkpt><trkpt lat="40.693391019953204" lon="8.988436203441765"><ele>171.0</ele><time>2026-05-03T09:27:19Z</time></trkpt><trkpt lat="40.69317702373213" lon="8.988436025139496"><ele>171.33333333333334</ele><time>2026-05-03T09:27:20Z</time></trkpt><trkpt lat="40.692965163787356" lon="8.988418893848051"><ele>171.66666666666669</ele><time>2026-05-03T09:27:21Z</time></trkpt><trkpt lat="40.69274562851076" lon="8.98840178114655"><ele>172.0</ele><time>2026-05-03T09:27:22Z</time></trkpt><trkpt lat="40.692525167766384" lon="8.988384047467465"><ele>171.0</ele><time>2026-05-03T09:27:23Z</time></trkpt><trkpt lat="40.692312256974866" lon="8.988377269557141"><ele>170.0</ele><time>2026-05-03T09:27:24Z</time></trkpt><trkpt lat="40.692110792888215" lon="8.988359704953202"><ele>169.0</ele><time>2026-05-03T09:27:25Z</time></trkpt><trkpt lat="40.69191554125853" lon="8.988343831216746"><ele>169.33333333333334</ele><time>2026-05-03T09:27:26Z</time></trkpt><trkpt lat="40.69171413627537" lon="8.988339268107074"><ele>169.66666666666666</ele><time>2026-05-03T09:27:27Z</time></trkpt><trkpt lat="40.69150936804077" lon="8.988367178890893"><ele>170.0</ele><time>2026-05-03T09:27:28Z</time></trkpt><trkpt lat="40.69130282968383" lon="8.988430930765878"><ele>169.0</ele><time>2026-05-03T09:27:29Z</time></trkpt><trkpt lat="40.691095063840464" lon="8.988513711869604"><ele>168.0</ele><time>2026-05-03T09:27:30Z</time></trkpt><trkpt lat="40.690884532613566" lon="8.98860019579232"><ele>167.0</ele><time>2026-05-03T09:27:31Z</time></trkpt><trkpt lat="40.690676698437116" lon="8.98868183686364"><ele>166.0</ele><time>2026-05-03T09:27:32Z</time></trkpt><trkpt lat="40.69047047352473" lon="8.988764381489677"><ele>165.0</ele><time>2026-05-03T09:27:33Z</time></trkpt><trkpt lat="40.69026886459917" lon="8.98884192808531"><ele>164.0</ele><time>2026-05-03T09:27:34Z</time></trkpt><trkpt lat="40.6900765113727" lon="8.988914355806457"><ele>163.66666666666666</ele><time>2026-05-03T09:27:35Z</time></trkpt><trkpt lat="40.68987841881656" lon="8.988961936837685"><ele>163.33333333333334</ele><time>2026-05-03T09:27:36Z</time></trkpt><trkpt lat="40.689694936237714" lon="8.98899859274222"><ele>163.0</ele><time>2026-05-03T09:27:37Z</time></trkpt><trkpt lat="40.68950582581427" lon="8.988977979803181"><ele>163.0</ele><time>2026-05-03T09:27:38Z</time></trkpt><trkpt lat="40.689310120728805" lon="8.988937065981789"><ele>163.0</ele><time>2026-05-03T09:27:39Z</time></trkpt><trkpt lat="40.689110960271364" lon="8.988890451671649"><ele>163.0</ele><time>2026-05-03T09:27:40Z</time></trkpt><trkpt lat="40.68890562553642" lon="8.988840979901838"><ele>163.0</ele><time>2026-05-03T09:27:41Z</time></trkpt><trkpt lat="40.68869078953141" lon="8.988791161325548"><ele>163.0</ele><time>2026-05-03T09:27:42Z</time></trkpt><trkpt lat="40.68847216735469" lon="8.988740464772148"><ele>163.0</ele><time>2026-05-03T09:27:43Z</time></trkpt><trkpt lat="40.688249830996284" lon="8.988688906931074"><ele>163.0</ele><time>2026-05-03T09:27:44Z</time></trkpt><trkpt lat="40.68802138473209" lon="8.988635932258731"><ele>163.0</ele><time>2026-05-03T09:27:45Z</time></trkpt><trkpt lat="40.68778939230751" lon="8.9885821352619"><ele>163.5</ele><time>2026-05-03T09:27:46Z</time></trkpt><trkpt lat="40.68755519910187" lon="8.988529353184429"><ele>164.0</ele><time>2026-05-03T09:27:47Z</time></trkpt><trkpt lat="40.68731724505418" lon="8.988476023120745"><ele>164.0</ele><time>2026-05-03T09:27:48Z</time></trkpt><trkpt lat="40.687079726013806" lon="8.988422790564286"><ele>164.0</ele><time>2026-05-03T09:27:49Z</time></trkpt><trkpt lat="40.68683918767591" lon="8.988367739735054"><ele>163.5</ele><time>2026-05-03T09:27:50Z</time></trkpt><trkpt lat="40.68659855559323" lon="8.988310629830698"><ele>163.0</ele><time>2026-05-03T09:27:51Z</time></trkpt><trkpt lat="40.68635732075091" lon="8.988253740472484"><ele>163.0</ele><time>2026-05-03T09:27:52Z</time></trkpt><trkpt lat="40.686115319596134" lon="8.988209440904347"><ele>163.0</ele><time>2026-05-03T09:27:53Z</time></trkpt><trkpt lat="40.6858724713409" lon="8.988155955887208"><ele>163.5</ele><time>2026-05-03T09:27:54Z</time></trkpt><trkpt lat="40.68562928143598" lon="8.988102780769035"><ele>164.0</ele><time>2026-05-03T09:27:55Z</time></trkpt><trkpt lat="40.68539610337187" lon="8.98804921443533"><ele>163.66666666666666</ele><time>2026-05-03T09:27:56Z</time></trkpt><trkpt lat="40.68517815034917" lon="8.987997996135471"><ele>163.33333333333334</ele><time>2026-05-03T09:27:57Z</time></trkpt><trkpt lat="40.68495965244609" lon="8.98794995903569"><ele>163.0</ele><time>2026-05-03T09:27:58Z</time></trkpt><trkpt lat="40.684739506025146" lon="8.98792198269654"><ele>163.0</ele><time>2026-05-03T09:27:59Z</time></trkpt><trkpt lat="40.68451555800293" lon="8.987919504090335"><ele>163.0</ele><time>2026-05-03T09:28:00Z</time></trkpt><trkpt lat="40.684314684864546" lon="8.987980424832761"><ele>163.0</ele><time>2026-05-03T09:28:01Z</time></trkpt><trkpt lat="40.68410471354657" lon="8.988058801614256"><ele>163.0</ele><time>2026-05-03T09:28:02Z</time></trkpt><trkpt lat="40.68388730549473" lon="8.988153590918666"><ele>163.0</ele><time>2026-05-03T09:28:03Z</time></trkpt><trkpt lat="40.6836576863192" lon="8.988229744969033"><ele>164.0</ele><time>2026-05-03T09:28:04Z</time></trkpt><trkpt lat="40.68342852163872" lon="8.988319804341833"><ele>165.0</ele><time>2026-05-03T09:28:05Z</time></trkpt><trkpt lat="40.68321177935771" lon="8.988377811772446"><ele>165.0</ele><time>2026-05-03T09:28:06Z</time></trkpt><trkpt lat="40.68300203846946" lon="8.988395838296109"><ele>165.0</ele><time>2026-05-03T09:28:07Z</time></trkpt><trkpt lat="40.68278046272284" lon="8.988382823714312"><ele>165.0</ele><time>2026-05-03T09:28:08Z</time></trkpt><trkpt lat="40.682539145886615" lon="8.988355993054084"><ele>165.5</ele><time>2026-05-03T09:28:09Z</time></trkpt><trkpt lat="40.682283867835615" lon="8.988324916692326"><ele>166.0</ele><time>2026-05-03T09:28:10Z</time></trkpt><trkpt lat="40.6820216363655" lon="8.988290855771782"><ele>166.0</ele><time>2026-05-03T09:28:11Z</time></trkpt><trkpt lat="40.68175764266228" lon="8.988256565953966"><ele>166.0</ele><time>2026-05-03T09:28:12Z</time></trkpt><trkpt lat="40.681498841903505" lon="8.988223374477846"><ele>166.0</ele><time>2026-05-03T09:28:13Z</time></trkpt><trkpt lat="40.681243883944674" lon="8.988210997708746"><ele>166.0</ele><time>2026-05-03T09:28:14Z</time></trkpt><trkpt lat="40.68099362885132" lon="8.988171708998067"><ele>166.0</ele><time>2026-05-03T09:28:15Z</time></trkpt><trkpt lat="40.680748406668926" lon="8.988149958692846"><ele>166.0</ele><time>2026-05-03T09:28:16Z</time></trkpt><trkpt lat="40.68051129096242" lon="8.988119785829491"><ele>166.0</ele><time>2026-05-03T09:28:17Z</time></trkpt><trkpt lat="40.68027923792811" lon="8.988091752873062"><ele>166.0</ele><time>2026-05-03T09:28:18Z</time></trkpt><trkpt lat="40.68005155216831" lon="8.98806220600489"><ele>166.0</ele><time>2026-05-03T09:28:19Z</time></trkpt><trkpt lat="40.679824384644256" lon="8.988036409760646"><ele>166.0</ele><time>2026-05-03T09:28:20Z</time></trkpt><trkpt lat="40.67959335266119" lon="8.988007979838752"><ele>165.5</ele><time>2026-05-03T09:28:21Z</time></trkpt><trkpt lat="40.67935423444932" lon="8.987974756989429"><ele>165.0</ele><time>2026-05-03T09:28:22Z</time></trkpt><trkpt lat="40.67911589236393" lon="8.987942829808077"><ele>165.0</ele><time>2026-05-03T09:28:23Z</time></trkpt><trkpt lat="40.67887727641668" lon="8.987913683721677"><ele>165.0</ele><time>2026-05-03T09:28:24Z</time></trkpt><trkpt lat="40.678639258139796" lon="8.987884208992888"><ele>165.5</ele><time>2026-05-03T09:28:25Z</time></trkpt><trkpt lat="40.67840172529645" lon="8.987853496862355"><ele>166.0</ele><time>2026-05-03T09:28:26Z</time></trkpt><trkpt lat="40.678165113068395" lon="8.98782172759179"><ele>166.0</ele><time>2026-05-03T09:28:27Z</time></trkpt><trkpt lat="40.67793000308802" lon="8.987792611853257"><ele>166.0</ele><time>2026-05-03T09:28:28Z</time></trkpt><trkpt lat="40.677695390299576" lon="8.987766966831344"><ele>166.5</ele><time>2026-05-03T09:28:29Z</time></trkpt><trkpt lat="40.677462840868536" lon="8.987739971618108"><ele>167.0</ele><time>2026-05-03T09:28:30Z</time></trkpt><trkpt lat="40.67724217694858" lon="8.9877125363992"><ele>167.0</ele><time>2026-05-03T09:28:31Z</time></trkpt><trkpt lat="40.67703919820108" lon="8.987680442606594"><ele>167.0</ele><time>2026-05-03T09:28:32Z</time></trkpt><trkpt lat="40.67684660266175" lon="8.987646810940415"><ele>167.0</ele><time>2026-05-03T09:28:33Z</time></trkpt><trkpt lat="40.67666771316349" lon="8.987591995156656"><ele>167.0</ele><time>2026-05-03T09:28:34Z</time></trkpt><trkpt lat="40.67648753494913" lon="8.987508071243584"><ele>167.0</ele><time>2026-05-03T09:28:35Z</time></trkpt><trkpt lat="40.676308728373975" lon="8.987393164325649"><ele>167.0</ele><time>2026-05-03T09:28:36Z</time></trkpt><trkpt lat="40.67614657831256" lon="8.987235178126708"><ele>167.33333333333331</ele><time>2026-05-03T09:28:37Z</time></trkpt><trkpt lat="40.6760040482288" lon="8.98705421784248"><ele>167.66666666666666</ele><time>2026-05-03T09:28:38Z</time></trkpt><trkpt lat="40.67588091362824" lon="8.986855037500613"><ele>168.0</ele><time>2026-05-03T09:28:39Z</time></trkpt><trkpt lat="40.67575737810051" lon="8.986673580533989"><ele>168.33333333333334</ele><time>2026-05-03T09:28:40Z</time></trkpt><trkpt lat="40.675614504329026" lon="8.986513001231431"><ele>168.66666666666669</ele><time>2026-05-03T09:28:41Z</time></trkpt><trkpt lat="40.675445209278784" lon="8.986390148363686"><ele>169.0</ele><time>2026-05-03T09:28:42Z</time></trkpt><trkpt lat="40.6752616992264" lon="8.986303142881297"><ele>169.0</ele><time>2026-05-03T09:28:43Z</time></trkpt><trkpt lat="40.67508313965746" lon="8.98624980295817"><ele>169.0</ele><time>2026-05-03T09:28:44Z</time></trkpt><trkpt lat="40.674913672541365" lon="8.986230717121323"><ele>169.0</ele><time>2026-05-03T09:28:45Z</time></trkpt><trkpt lat="40.67475845707184" lon="8.986207102912454"><ele>169.0</ele><time>2026-05-03T09:28:46Z</time></trkpt><trkpt lat="40.67462046987986" lon="8.98617683110107"><ele>169.0</ele><time>2026-05-03T09:28:47Z</time></trkpt><trkpt lat="40.67450683484801" lon="8.986127728918667"><ele>169.0</ele><time>2026-05-03T09:28:48Z</time></trkpt><trkpt lat="40.674412412283516" lon="8.986052140564233"><ele>169.0</ele><time>2026-05-03T09:28:49Z</time></trkpt><trkpt lat="40.67433635323356" lon="8.985962357247384"><ele>168.79999999999998</ele><time>2026-05-03T09:28:50Z</time></trkpt><trkpt lat="40.674257496361655" lon="8.98591688371222"><ele>168.6</ele><time>2026-05-03T09:28:51Z</time></trkpt><trkpt lat="40.67417385681133" lon="8.985927517955371"><ele>168.4</ele><time>2026-05-03T09:28:52Z</time></trkpt><trkpt lat="40.67409914209427" lon="8.985989537119325"><ele>168.2</ele><time>2026-05-03T09:28:53Z</time></trkpt><trkpt lat="40.67404874111754" lon="8.986102312563128"><ele>168.0</ele><time>2026-05-03T09:28:54Z</time></trkpt><trkpt lat="40.673997537791536" lon="8.986234715217025"><ele>168.0</ele><time>2026-05-03T09:28:55Z</time></trkpt><trkpt lat="40.673918348579576" lon="8.986364991793106"><ele>168.0</ele><time>2026-05-03T09:28:56Z</time></trkpt><trkpt lat="40.6737971528224" lon="8.986471541997206"><ele>168.0</ele><time>2026-05-03T09:28:57Z</time></trkpt><trkpt lat="40.673650495888594" lon="8.986554085483498"><ele>168.0</ele><time>2026-05-03T09:28:58Z</time></trkpt><trkpt lat="40.6734972832005" lon="8.986643534942056"><ele>168.0</ele><time>2026-05-03T09:28:59Z</time></trkpt><trkpt lat="40.67333031139357" lon="8.986743919795934"><ele>168.0</ele><time>2026-05-03T09:29:00Z</time></trkpt><trkpt lat="40.67315287028163" lon="8.98685538171727"><ele>168.0</ele><time>2026-05-03T09:29:01Z</time></trkpt><trkpt lat="40.672971833124606" lon="8.986970558615448"><ele>168.0</ele><time>2026-05-03T09:29:02Z</time></trkpt><trkpt lat="40.6727854100999" lon="8.987090803713464"><ele>168.0</ele><time>2026-05-03T09:29:03Z</time></trkpt><trkpt lat="40.67260067176319" lon="8.987210331866748"><ele>168.0</ele><time>2026-05-03T09:29:04Z</time></trkpt><trkpt lat="40.67244106467745" lon="8.987315629584014"><ele>168.0</ele><time>2026-05-03T09:29:05Z</time></trkpt><trkpt lat="40.67229177540141" lon="8.987410679644034"><ele>168.0</ele><time>2026-05-03T09:29:06Z</time></trkpt><trkpt lat="40.67214504030996" lon="8.987502752165039"><ele>168.0</ele><time>2026-05-03T09:29:07Z</time></trkpt><trkpt lat="40.67199730804517" lon="8.987596887999535"><ele>168.33333333333334</ele><time>2026-05-03T09:29:08Z</time></trkpt><trkpt lat="40.6718510749554" lon="8.987690550213244"><ele>168.66666666666669</ele><time>2026-05-03T09:29:09Z</time></trkpt><trkpt lat="40.67171365915061" lon="8.987779007649003"><ele>169.0</ele><time>2026-05-03T09:29:10Z</time></trkpt><trkpt lat="40.671582170995805" lon="8.9878651444885"><ele>169.0</ele><time>2026-05-03T09:29:11Z</time></trkpt><trkpt lat="40.67145334066663" lon="8.987950724984604"><ele>169.0</ele><time>2026-05-03T09:29:12Z</time></trkpt><trkpt lat="40.67132964491595" lon="8.988029906716287"><ele>169.0</ele><time>2026-05-03T09:29:13Z</time></trkpt><trkpt lat="40.67121532573168" lon="8.988103084146246"><ele>169.0</ele><time>2026-05-03T09:29:14Z</time></trkpt><trkpt lat="40.671127088325655" lon="8.988165524952965"><ele>169.0</ele><time>2026-05-03T09:29:15Z</time></trkpt><trkpt lat="40.67106591141513" lon="8.98822615672722"><ele>169.0</ele><time>2026-05-03T09:29:16Z</time></trkpt><trkpt lat="40.6710240766787" lon="8.988310810413958"><ele>169.0</ele><time>2026-05-03T09:29:17Z</time></trkpt><trkpt lat="40.6710297928216" lon="8.988415934560402"><ele>169.0</ele><time>2026-05-03T09:29:18Z</time></trkpt><trkpt lat="40.67106519940168" lon="8.988519511818446"><ele>169.0</ele><time>2026-05-03T09:29:19Z</time></trkpt><trkpt lat="40.67113114912427" lon="8.988636228546891"><ele>169.0</ele><time>2026-05-03T09:29:20Z</time></trkpt><trkpt lat="40.671214212120475" lon="8.988785829899737"><ele>169.0</ele><time>2026-05-03T09:29:21Z</time></trkpt><trkpt lat="40.6713079706886" lon="8.988950000086358"><ele>169.0</ele><time>2026-05-03T09:29:22Z</time></trkpt><trkpt lat="40.67143033035921" lon="8.989088515529826"><ele>169.0</ele><time>2026-05-03T09:29:23Z</time></trkpt><trkpt lat="40.6715873759203" lon="8.989148783738637"><ele>169.0</ele><time>2026-05-03T09:29:24Z</time></trkpt><trkpt lat="40.67174462746944" lon="8.989158108159465"><ele>169.0</ele><time>2026-05-03T09:29:25Z</time></trkpt><trkpt lat="40.67190929332989" lon="8.989139238196042"><ele>169.0</ele><time>2026-05-03T09:29:26Z</time></trkpt><trkpt lat="40.6720645510143" lon="8.989140044889776"><ele>169.0</ele><time>2026-05-03T09:29:27Z</time></trkpt><trkpt lat="40.67221164768097" lon="8.989167065690332"><ele>169.0</ele><time>2026-05-03T09:29:28Z</time></trkpt><trkpt lat="40.67234167389919" lon="8.989261044135883"><ele>169.0</ele><time>2026-05-03T09:29:29Z</time></trkpt><trkpt lat="40.67243592785486" lon="8.989400911313856"><ele>169.0</ele><time>2026-05-03T09:29:30Z</time></trkpt><trkpt lat="40.67250226292108" lon="8.989567094779295"><ele>169.33333333333334</ele><time>2026-05-03T09:29:31Z</time></trkpt><trkpt lat="40.67256394973274" lon="8.989728449878843"><ele>169.66666666666666</ele><time>2026-05-03T09:29:32Z</time></trkpt><trkpt lat="40.67257639448646" lon="8.98996578759627"><ele>170.0</ele><time>2026-05-03T09:29:33Z</time></trkpt><trkpt lat="40.67262041295016" lon="8.990207109410921"><ele>169.66666666666666</ele><time>2026-05-03T09:29:34Z</time></trkpt><trkpt lat="40.67267454480219" lon="8.990481165904825"><ele>169.33333333333334</ele><time>2026-05-03T09:29:35Z</time></trkpt><trkpt lat="40.67273217933873" lon="8.990773828492248"><ele>169.0</ele><time>2026-05-03T09:29:36Z</time></trkpt><trkpt lat="40.67278905308523" lon="8.991088616925971"><ele>169.0</ele><time>2026-05-03T09:29:37Z</time></trkpt><trkpt lat="40.67284222104432" lon="8.991414908599454"><ele>169.0</ele><time>2026-05-03T09:29:38Z</time></trkpt><trkpt lat="40.672893319563656" lon="8.991763844529457"><ele>168.5</ele><time>2026-05-03T09:29:39Z</time></trkpt><trkpt lat="40.672941131335165" lon="8.992118818408818"><ele>168.0</ele><time>2026-05-03T09:29:40Z</time></trkpt><trkpt lat="40.67298383713881" lon="8.992483018140947"><ele>168.5</ele><time>2026-05-03T09:29:41Z</time></trkpt><trkpt lat="40.673028516545955" lon="8.992846398533809"><ele>169.0</ele><time>2026-05-03T09:29:42Z</time></trkpt><trkpt lat="40.67307445615342" lon="8.993208378876123"><ele>168.5</ele><time>2026-05-03T09:29:43Z</time></trkpt><trkpt lat="40.673117814958" lon="8.993565998625646"><ele>168.0</ele><time>2026-05-03T09:29:44Z</time></trkpt><trkpt lat="40.67315960035783" lon="8.993913470685978"><ele>167.0</ele><time>2026-05-03T09:29:45Z</time></trkpt><trkpt lat="40.67320225274967" lon="8.994257727713299"><ele>166.0</ele><time>2026-05-03T09:29:46Z</time></trkpt><trkpt lat="40.67324502724807" lon="8.994601309102368"><ele>166.0</ele><time>2026-05-03T09:29:47Z</time></trkpt><trkpt lat="40.67328302946308" lon="8.994941177394255"><ele>166.0</ele><time>2026-05-03T09:29:48Z</time></trkpt><trkpt lat="40.673321223753554" lon="8.995285670051782"><ele>166.5</ele><time>2026-05-03T09:29:49Z</time></trkpt><trkpt lat="40.673358325862615" lon="8.995637208309043"><ele>167.0</ele><time>2026-05-03T09:29:50Z</time></trkpt><trkpt lat="40.67339990747784" lon="8.995994204929527"><ele>167.5</ele><time>2026-05-03T09:29:51Z</time></trkpt><trkpt lat="40.67344293970822" lon="8.996354223167582"><ele>168.0</ele><time>2026-05-03T09:29:52Z</time></trkpt><trkpt lat="40.67348747300976" lon="8.996718077420578"><ele>168.0</ele><time>2026-05-03T09:29:53Z</time></trkpt><trkpt lat="40.67353430432316" lon="8.997079835047176"><ele>168.0</ele><time>2026-05-03T09:29:54Z</time></trkpt><trkpt lat="40.67358297011694" lon="8.99744050182596"><ele>169.0</ele><time>2026-05-03T09:29:55Z</time></trkpt><trkpt lat="40.673635426670536" lon="8.997800877479532"><ele>170.0</ele><time>2026-05-03T09:29:56Z</time></trkpt><trkpt lat="40.6736952990189" lon="8.998159631943741"><ele>169.5</ele><time>2026-05-03T09:29:57Z</time></trkpt><trkpt lat="40.673763501950326" lon="8.998515215630883"><ele>169.0</ele><time>2026-05-03T09:29:58Z</time></trkpt><trkpt lat="40.6738390977461" lon="8.998863564928524"><ele>169.0</ele><time>2026-05-03T09:29:59Z</time></trkpt><trkpt lat="40.67392165616758" lon="8.999206713446197"><ele>169.0</ele><time>2026-05-03T09:30:00Z</time></trkpt><trkpt lat="40.67400986906264" lon="8.999546843859305"><ele>169.0</ele><time>2026-05-03T09:30:01Z</time></trkpt><trkpt lat="40.674103133300676" lon="8.999883511863292"><ele>169.0</ele><time>2026-05-03T09:30:02Z</time></trkpt><trkpt lat="40.67420834336304" lon="9.000218011862568"><ele>169.0</ele><time>2026-05-03T09:30:03Z</time></trkpt><trkpt lat="40.67432390848798" lon="9.000555963033138"><ele>169.0</ele><time>2026-05-03T09:30:04Z</time></trkpt><trkpt lat="40.67443146967408" lon="9.000879754080195"><ele>170.0</ele><time>2026-05-03T09:30:05Z</time></trkpt><trkpt lat="40.67455450486063" lon="9.00120789202518"><ele>171.0</ele><time>2026-05-03T09:30:06Z</time></trkpt><trkpt lat="40.67468054984268" lon="9.001531666837556"><ele>171.0</ele><time>2026-05-03T09:30:07Z</time></trkpt><trkpt lat="40.67481145298326" lon="9.0018522196733"><ele>171.0</ele><time>2026-05-03T09:30:08Z</time></trkpt><trkpt lat="40.67495002407324" lon="9.002164974611187"><ele>171.0</ele><time>2026-05-03T09:30:09Z</time></trkpt><trkpt lat="40.67509229387331" lon="9.00247823800457"><ele>171.0</ele><time>2026-05-03T09:30:10Z</time></trkpt><trkpt lat="40.67523509508189" lon="9.002788034860002"><ele>171.0</ele><time>2026-05-03T09:30:11Z</time></trkpt><trkpt lat="40.675370797026034" lon="9.003103700669651"><ele>171.0</ele><time>2026-05-03T09:30:12Z</time></trkpt><trkpt lat="40.675510288178664" lon="9.00341498222325"><ele>171.5</ele><time>2026-05-03T09:30:13Z</time></trkpt><trkpt lat="40.675648646427454" lon="9.003728762617326"><ele>172.0</ele><time>2026-05-03T09:30:14Z</time></trkpt><trkpt lat="40.67578548823403" lon="9.004043473151391"><ele>172.0</ele><time>2026-05-03T09:30:15Z</time></trkpt><trkpt lat="40.67592148543054" lon="9.00435790135996"><ele>172.0</ele><time>2026-05-03T09:30:16Z</time></trkpt><trkpt lat="40.676062555109866" lon="9.004674661349833"><ele>172.5</ele><time>2026-05-03T09:30:17Z</time></trkpt><trkpt lat="40.67620337956345" lon="9.004992499331582"><ele>173.0</ele><time>2026-05-03T09:30:18Z</time></trkpt><trkpt lat="40.676342415666355" lon="9.005316646358446"><ele>173.0</ele><time>2026-05-03T09:30:19Z</time></trkpt><trkpt lat="40.676493984999944" lon="9.005650365560912"><ele>173.0</ele><time>2026-05-03T09:30:20Z</time></trkpt><trkpt lat="40.676644984628275" lon="9.005991552804781"><ele>172.5</ele><time>2026-05-03T09:30:21Z</time></trkpt><trkpt lat="40.67679417182631" lon="9.006333141317835"><ele>172.0</ele><time>2026-05-03T09:30:22Z</time></trkpt><trkpt lat="40.67693873046052" lon="9.006672624793387"><ele>171.5</ele><time>2026-05-03T09:30:23Z</time></trkpt><trkpt lat="40.677082345091655" lon="9.007015784055985"><ele>171.0</ele><time>2026-05-03T09:30:24Z</time></trkpt><trkpt lat="40.67721720817359" lon="9.007351284351774"><ele>172.5</ele><time>2026-05-03T09:30:25Z</time></trkpt><trkpt lat="40.677348322081144" lon="9.007684448770858"><ele>174.0</ele><time>2026-05-03T09:30:26Z</time></trkpt><trkpt lat="40.67747873295802" lon="9.008022467700728"><ele>174.0</ele><time>2026-05-03T09:30:27Z</time></trkpt><trkpt lat="40.677603129233255" lon="9.008354975211422"><ele>174.0</ele><time>2026-05-03T09:30:28Z</time></trkpt><trkpt lat="40.677719271953606" lon="9.008684522948252"><ele>173.5</ele><time>2026-05-03T09:30:29Z</time></trkpt><trkpt lat="40.67783403500947" lon="9.009013983624383"><ele>173.0</ele><time>2026-05-03T09:30:30Z</time></trkpt><trkpt lat="40.677948694522804" lon="9.009349185973283"><ele>174.0</ele><time>2026-05-03T09:30:31Z</time></trkpt><trkpt lat="40.67806199450445" lon="9.009690140677487"><ele>175.0</ele><time>2026-05-03T09:30:32Z</time></trkpt><trkpt lat="40.67817643167816" lon="9.010039497673949"><ele>177.0</ele><time>2026-05-03T09:30:33Z</time></trkpt><trkpt lat="40.67828842956849" lon="9.010403597291573"><ele>179.0</ele><time>2026-05-03T09:30:34Z</time></trkpt><trkpt lat="40.67839484372878" lon="9.010770329247638"><ele>178.5</ele><time>2026-05-03T09:30:35Z</time></trkpt><trkpt lat="40.67849256198698" lon="9.011138542390611"><ele>178.0</ele><time>2026-05-03T09:30:36Z</time></trkpt><trkpt lat="40.67857437459972" lon="9.01149185253851"><ele>176.5</ele><time>2026-05-03T09:30:37Z</time></trkpt><trkpt lat="40.67865382162928" lon="9.01184016762631"><ele>175.0</ele><time>2026-05-03T09:30:38Z</time></trkpt><trkpt lat="40.67872748681581" lon="9.012194518473535"><ele>176.0</ele><time>2026-05-03T09:30:39Z</time></trkpt><trkpt lat="40.67879944794079" lon="9.012546375271027"><ele>177.0</ele><time>2026-05-03T09:30:40Z</time></trkpt><trkpt lat="40.67887428013596" lon="9.012901746212789"><ele>177.0</ele><time>2026-05-03T09:30:41Z</time></trkpt><trkpt lat="40.67894789684728" lon="9.013266779545589"><ele>177.0</ele><time>2026-05-03T09:30:42Z</time></trkpt><trkpt lat="40.679018350349565" lon="9.013634199034282"><ele>177.0</ele><time>2026-05-03T09:30:43Z</time></trkpt><trkpt lat="40.679089164295135" lon="9.0140042370729"><ele>177.0</ele><time>2026-05-03T09:30:44Z</time></trkpt><trkpt lat="40.6791579758953" lon="9.01437334523173"><ele>177.0</ele><time>2026-05-03T09:30:45Z</time></trkpt><trkpt lat="40.6792256649959" lon="9.014743852109662"><ele>177.0</ele><time>2026-05-03T09:30:46Z</time></trkpt><trkpt lat="40.67929206470522" lon="9.015111224835778"><ele>177.0</ele><time>2026-05-03T09:30:47Z</time></trkpt><trkpt lat="40.679357762105894" lon="9.015479967614315"><ele>177.0</ele><time>2026-05-03T09:30:48Z</time></trkpt><trkpt lat="40.67942527514136" lon="9.015849723306268"><ele>176.5</ele><time>2026-05-03T09:30:49Z</time></trkpt><trkpt lat="40.67949601199283" lon="9.016220218943632"><ele>176.0</ele><time>2026-05-03T09:30:50Z</time></trkpt><trkpt lat="40.679570197985775" lon="9.016593163032711"><ele>176.5</ele><time>2026-05-03T09:30:51Z</time></trkpt><trkpt lat="40.67964558695555" lon="9.016969046516135"><ele>177.0</ele><time>2026-05-03T09:30:52Z</time></trkpt><trkpt lat="40.67972198423371" lon="9.017343026008428"><ele>177.0</ele><time>2026-05-03T09:30:53Z</time></trkpt><trkpt lat="40.67979906323115" lon="9.017717727223362"><ele>177.0</ele><time>2026-05-03T09:30:54Z</time></trkpt><trkpt lat="40.67987641021449" lon="9.018093215677933"><ele>177.5</ele><time>2026-05-03T09:30:55Z</time></trkpt><trkpt lat="40.679953864481746" lon="9.018469886022558"><ele>178.0</ele><time>2026-05-03T09:30:56Z</time></trkpt><trkpt lat="40.680033187116294" lon="9.018846149838934"><ele>178.0</ele><time>2026-05-03T09:30:57Z</time></trkpt><trkpt lat="40.68011504522221" lon="9.019217156228182"><ele>178.0</ele><time>2026-05-03T09:30:58Z</time></trkpt><trkpt lat="40.68020002438519" lon="9.01957812526026"><ele>179.0</ele><time>2026-05-03T09:30:59Z</time></trkpt><trkpt lat="40.68029102387296" lon="9.019941264493445"><ele>180.0</ele><time>2026-05-03T09:31:00Z</time></trkpt><trkpt lat="40.68038697772839" lon="9.020299807147888"><ele>181.5</ele><time>2026-05-03T09:31:01Z</time></trkpt><trkpt lat="40.68048651454342" lon="9.020655286291293"><ele>183.0</ele><time>2026-05-03T09:31:02Z</time></trkpt><trkpt lat="40.68059446506176" lon="9.021006742227106"><ele>184.0</ele><time>2026-05-03T09:31:03Z</time></trkpt><trkpt lat="40.6807063412346" lon="9.021357217882287"><ele>185.0</ele><time>2026-05-03T09:31:04Z</time></trkpt><trkpt lat="40.68082344231332" lon="9.021703316910896"><ele>187.0</ele><time>2026-05-03T09:31:05Z</time></trkpt><trkpt lat="40.680945669324444" lon="9.022044580929622"><ele>189.0</ele><time>2026-05-03T09:31:06Z</time></trkpt><trkpt lat="40.68107077898467" lon="9.022385427362165"><ele>189.5</ele><time>2026-05-03T09:31:07Z</time></trkpt><trkpt lat="40.68119449117783" lon="9.022725068068425"><ele>190.0</ele><time>2026-05-03T09:31:08Z</time></trkpt><trkpt lat="40.68131625526041" lon="9.023067140514664"><ele>190.0</ele><time>2026-05-03T09:31:09Z</time></trkpt><trkpt lat="40.681437899330035" lon="9.023406408232377"><ele>190.0</ele><time>2026-05-03T09:31:10Z</time></trkpt><trkpt lat="40.68155703467796" lon="9.023753180036064"><ele>190.0</ele><time>2026-05-03T09:31:11Z</time></trkpt><trkpt lat="40.681692687528106" lon="9.024080606277138"><ele>190.0</ele><time>2026-05-03T09:31:12Z</time></trkpt><trkpt lat="40.68184466110766" lon="9.024395531096468"><ele>188.0</ele><time>2026-05-03T09:31:13Z</time></trkpt><trkpt lat="40.68199710432972" lon="9.024710501299898"><ele>186.0</ele><time>2026-05-03T09:31:14Z</time></trkpt><trkpt lat="40.682110216199035" lon="9.025050551739414"><ele>186.0</ele><time>2026-05-03T09:31:15Z</time></trkpt><trkpt lat="40.68225943829366" lon="9.025368085760093"><ele>186.0</ele><time>2026-05-03T09:31:16Z</time></trkpt><trkpt lat="40.682410175116104" lon="9.025679815281027"><ele>185.0</ele><time>2026-05-03T09:31:17Z</time></trkpt><trkpt lat="40.68256393497235" lon="9.025988900400842"><ele>184.0</ele><time>2026-05-03T09:31:18Z</time></trkpt><trkpt lat="40.682719211222384" lon="9.026294840999862"><ele>183.0</ele><time>2026-05-03T09:31:19Z</time></trkpt><trkpt lat="40.682878723164016" lon="9.026599483877906"><ele>182.0</ele><time>2026-05-03T09:31:20Z</time></trkpt><trkpt lat="40.683040626277084" lon="9.02690158466435"><ele>182.0</ele><time>2026-05-03T09:31:21Z</time></trkpt><trkpt lat="40.68320742097307" lon="9.027204104438926"><ele>182.0</ele><time>2026-05-03T09:31:22Z</time></trkpt><trkpt lat="40.68337777214758" lon="9.027499609941529"><ele>182.0</ele><time>2026-05-03T09:31:23Z</time></trkpt><trkpt lat="40.6835491907452" lon="9.027792994670866"><ele>182.0</ele><time>2026-05-03T09:31:24Z</time></trkpt><trkpt lat="40.68372466433641" lon="9.02808245544823"><ele>181.5</ele><time>2026-05-03T09:31:25Z</time></trkpt><trkpt lat="40.68390341115554" lon="9.028366679059681"><ele>181.0</ele><time>2026-05-03T09:31:26Z</time></trkpt><trkpt lat="40.68408420220517" lon="9.028647893823653"><ele>181.0</ele><time>2026-05-03T09:31:27Z</time></trkpt><trkpt lat="40.684262208555225" lon="9.028923392275956"><ele>181.0</ele><time>2026-05-03T09:31:28Z</time></trkpt><trkpt lat="40.684443539356884" lon="9.029197303987466"><ele>180.0</ele><time>2026-05-03T09:31:29Z</time></trkpt><trkpt lat="40.684628639292995" lon="9.02947093018685"><ele>179.0</ele><time>2026-05-03T09:31:30Z</time></trkpt><trkpt lat="40.684821240125096" lon="9.029742946893567"><ele>180.5</ele><time>2026-05-03T09:31:31Z</time></trkpt><trkpt lat="40.68501781207252" lon="9.030015569471944"><ele>182.0</ele><time>2026-05-03T09:31:32Z</time></trkpt><trkpt lat="40.68521628245635" lon="9.03028657992692"><ele>182.5</ele><time>2026-05-03T09:31:33Z</time></trkpt><trkpt lat="40.685423083165304" lon="9.030554733394167"><ele>183.0</ele><time>2026-05-03T09:31:34Z</time></trkpt><trkpt lat="40.68563476525723" lon="9.030820071308835"><ele>183.0</ele><time>2026-05-03T09:31:35Z</time></trkpt><trkpt lat="40.685852027940726" lon="9.031082714518366"><ele>183.0</ele><time>2026-05-03T09:31:36Z</time></trkpt><trkpt lat="40.68607771962229" lon="9.031335274647262"><ele>182.5</ele><time>2026-05-03T09:31:37Z</time></trkpt><trkpt lat="40.68629922637418" lon="9.031592566628662"><ele>182.0</ele><time>2026-05-03T09:31:38Z</time></trkpt><trkpt lat="40.68652605816051" lon="9.031846667433648"><ele>182.0</ele><time>2026-05-03T09:31:39Z</time></trkpt><trkpt lat="40.686756262067505" lon="9.032097083403002"><ele>182.0</ele><time>2026-05-03T09:31:40Z</time></trkpt><trkpt lat="40.68699244243996" lon="9.032343560988899"><ele>181.5</ele><time>2026-05-03T09:31:41Z</time></trkpt><trkpt lat="40.687229746626016" lon="9.032585640756169"><ele>181.0</ele><time>2026-05-03T09:31:42Z</time></trkpt><trkpt lat="40.68747005973158" lon="9.032821405367228"><ele>181.0</ele><time>2026-05-03T09:31:43Z</time></trkpt><trkpt lat="40.68771085375934" lon="9.033060376660663"><ele>181.0</ele><time>2026-05-03T09:31:44Z</time></trkpt><trkpt lat="40.687954443202266" lon="9.033292595211641"><ele>180.5</ele><time>2026-05-03T09:31:45Z</time></trkpt><trkpt lat="40.68819734225885" lon="9.033521712831808"><ele>180.0</ele><time>2026-05-03T09:31:46Z</time></trkpt><trkpt lat="40.688444699401785" lon="9.03374553947244"><ele>180.5</ele><time>2026-05-03T09:31:47Z</time></trkpt><trkpt lat="40.688691528001236" lon="9.033963602043489"><ele>181.0</ele><time>2026-05-03T09:31:48Z</time></trkpt><trkpt lat="40.688941643656065" lon="9.03418107400979"><ele>181.5</ele><time>2026-05-03T09:31:49Z</time></trkpt><trkpt lat="40.68918749587822" lon="9.034400364867734"><ele>182.0</ele><time>2026-05-03T09:31:50Z</time></trkpt><trkpt lat="40.689427469585894" lon="9.034610190584168"><ele>181.5</ele><time>2026-05-03T09:31:51Z</time></trkpt><trkpt lat="40.68966699778355" lon="9.034823482623613"><ele>181.0</ele><time>2026-05-03T09:31:52Z</time></trkpt><trkpt lat="40.6899073427165" lon="9.035036841175337"><ele>181.0</ele><time>2026-05-03T09:31:53Z</time></trkpt><trkpt lat="40.690148234203846" lon="9.035251812350458"><ele>181.0</ele><time>2026-05-03T09:31:54Z</time></trkpt><trkpt lat="40.690384307744466" lon="9.035460050895393"><ele>182.5</ele><time>2026-05-03T09:31:55Z</time></trkpt><trkpt lat="40.6906197195594" lon="9.035669566901007"><ele>184.0</ele><time>2026-05-03T09:31:56Z</time></trkpt><trkpt lat="40.690854425229475" lon="9.035880197220694"><ele>184.0</ele><time>2026-05-03T09:31:57Z</time></trkpt><trkpt lat="40.691090622870455" lon="9.036093826384246"><ele>184.0</ele><time>2026-05-03T09:31:58Z</time></trkpt><trkpt lat="40.69132998718365" lon="9.03630223483578"><ele>184.0</ele><time>2026-05-03T09:31:59Z</time></trkpt><trkpt lat="40.69156832877344" lon="9.036508324840938"><ele>184.0</ele><time>2026-05-03T09:32:00Z</time></trkpt><trkpt lat="40.69180546825096" lon="9.036715680266564"><ele>181.5</ele><time>2026-05-03T09:32:01Z</time></trkpt><trkpt lat="40.692043595729885" lon="9.036924190702173"><ele>179.0</ele><time>2026-05-03T09:32:02Z</time></trkpt><trkpt lat="40.692283143020354" lon="9.037133110338713"><ele>179.0</ele><time>2026-05-03T09:32:03Z</time></trkpt><trkpt lat="40.692523568984" lon="9.03734453118841"><ele>179.0</ele><time>2026-05-03T09:32:04Z</time></trkpt><trkpt lat="40.69276545190321" lon="9.037555706951759"><ele>179.0</ele><time>2026-05-03T09:32:05Z</time></trkpt><trkpt lat="40.69300791887291" lon="9.037768122912242"><ele>179.0</ele><time>2026-05-03T09:32:06Z</time></trkpt><trkpt lat="40.693251263101736" lon="9.037980381643356"><ele>179.0</ele><time>2026-05-03T09:32:07Z</time></trkpt><trkpt lat="40.69349615548474" lon="9.038196290582997"><ele>179.0</ele><time>2026-05-03T09:32:08Z</time></trkpt><trkpt lat="40.69374222657199" lon="9.038411370814172"><ele>180.0</ele><time>2026-05-03T09:32:09Z</time></trkpt><trkpt lat="40.69398981897132" lon="9.03862755793585"><ele>181.0</ele><time>2026-05-03T09:32:10Z</time></trkpt><trkpt lat="40.69423482584103" lon="9.038846867790676"><ele>181.0</ele><time>2026-05-03T09:32:11Z</time></trkpt><trkpt lat="40.694479400491204" lon="9.039067955698513"><ele>181.0</ele><time>2026-05-03T09:32:12Z</time></trkpt><trkpt lat="40.694723399828106" lon="9.039287815999117"><ele>181.0</ele><time>2026-05-03T09:32:13Z</time></trkpt><trkpt lat="40.6949729620687" lon="9.039504222072921"><ele>181.0</ele><time>2026-05-03T09:32:14Z</time></trkpt><trkpt lat="40.69521120495292" lon="9.039715246002263"><ele>179.5</ele><time>2026-05-03T09:32:15Z</time></trkpt><trkpt lat="40.69543892364005" lon="9.03991546411992"><ele>178.0</ele><time>2026-05-03T09:32:16Z</time></trkpt><trkpt lat="40.695662480968195" lon="9.040116167551743"><ele>178.0</ele><time>2026-05-03T09:32:17Z</time></trkpt><trkpt lat="40.69589222647946" lon="9.040323182071859"><ele>178.0</ele><time>2026-05-03T09:32:18Z</time></trkpt><trkpt lat="40.69612663687766" lon="9.040531416362812"><ele>178.0</ele><time>2026-05-03T09:32:19Z</time></trkpt><trkpt lat="40.69636322214884" lon="9.040739046777572"><ele>178.0</ele><time>2026-05-03T09:32:20Z</time></trkpt><trkpt lat="40.6966020562183" lon="9.04094608414275"><ele>177.5</ele><time>2026-05-03T09:32:21Z</time></trkpt><trkpt lat="40.6968380505759" lon="9.041167510722135"><ele>177.0</ele><time>2026-05-03T09:32:22Z</time></trkpt><trkpt lat="40.6970763050266" lon="9.041373182066785"><ele>176.0</ele><time>2026-05-03T09:32:23Z</time></trkpt><trkpt lat="40.69732021737919" lon="9.041580779994433"><ele>175.0</ele><time>2026-05-03T09:32:24Z</time></trkpt><trkpt lat="40.69756188747495" lon="9.04179486036772"><ele>171.0</ele><time>2026-05-03T09:32:25Z</time></trkpt><trkpt lat="40.697803602123884" lon="9.042006657472943"><ele>167.0</ele><time>2026-05-03T09:32:26Z</time></trkpt><trkpt lat="40.698044570745644" lon="9.042223261701867"><ele>167.0</ele><time>2026-05-03T09:32:27Z</time></trkpt><trkpt lat="40.69828798494745" lon="9.042440409488458"><ele>167.0</ele><time>2026-05-03T09:32:28Z</time></trkpt><trkpt lat="40.698532811821885" lon="9.042656201163334"><ele>166.0</ele><time>2026-05-03T09:32:29Z</time></trkpt><trkpt lat="40.69878276007745" lon="9.042870318538743"><ele>165.0</ele><time>2026-05-03T09:32:30Z</time></trkpt><trkpt lat="40.69902870435559" lon="9.043085730402806"><ele>165.0</ele><time>2026-05-03T09:32:31Z</time></trkpt><trkpt lat="40.69927688574748" lon="9.043298541805187"><ele>165.0</ele><time>2026-05-03T09:32:32Z</time></trkpt><trkpt lat="40.699524037870304" lon="9.04351884902192"><ele>165.0</ele><time>2026-05-03T09:32:33Z</time></trkpt><trkpt lat="40.69976882945163" lon="9.043732909921497"><ele>165.0</ele><time>2026-05-03T09:32:34Z</time></trkpt><trkpt lat="40.700014097797386" lon="9.043946574936065"><ele>168.0</ele><time>2026-05-03T09:32:35Z</time></trkpt><trkpt lat="40.70025422240808" lon="9.044162363152806"><ele>171.0</ele><time>2026-05-03T09:32:36Z</time></trkpt><trkpt lat="40.7004933146648" lon="9.044373566529325"><ele>171.0</ele><time>2026-05-03T09:32:37Z</time></trkpt><trkpt lat="40.700729834106376" lon="9.044583761698398"><ele>171.0</ele><time>2026-05-03T09:32:38Z</time></trkpt><trkpt lat="40.70097374760767" lon="9.04480133990323"><ele>170.0</ele><time>2026-05-03T09:32:39Z</time></trkpt><trkpt lat="40.70119601363966" lon="9.044994061577498"><ele>169.0</ele><time>2026-05-03T09:32:40Z</time></trkpt><trkpt lat="40.701446127357535" lon="9.04519445950677"><ele>169.0</ele><time>2026-05-03T09:32:41Z</time></trkpt><trkpt lat="40.70166280115232" lon="9.045400098418988"><ele>169.0</ele><time>2026-05-03T09:32:42Z</time></trkpt><trkpt lat="40.70190097941468" lon="9.045606734678374"><ele>168.0</ele><time>2026-05-03T09:32:43Z</time></trkpt><trkpt lat="40.702131632436334" lon="9.045800879700636"><ele>167.0</ele><time>2026-05-03T09:32:44Z</time></trkpt><trkpt lat="40.702367401733056" lon="9.046000594907108"><ele>167.0</ele><time>2026-05-03T09:32:45Z</time></trkpt><trkpt lat="40.70259501613367" lon="9.046207596213756"><ele>167.0</ele><time>2026-05-03T09:32:46Z</time></trkpt><trkpt lat="40.70282525939718" lon="9.046406590959808"><ele>167.5</ele><time>2026-05-03T09:32:47Z</time></trkpt><trkpt lat="40.70304700254517" lon="9.046609883834945"><ele>168.0</ele><time>2026-05-03T09:32:48Z</time></trkpt><trkpt lat="40.70327409042165" lon="9.04682217535279"><ele>168.0</ele><time>2026-05-03T09:32:49Z</time></trkpt><trkpt lat="40.70349993277607" lon="9.047027797601995"><ele>168.0</ele><time>2026-05-03T09:32:50Z</time></trkpt><trkpt lat="40.70372537351736" lon="9.047233384853687"><ele>167.5</ele><time>2026-05-03T09:32:51Z</time></trkpt><trkpt lat="40.703953527967066" lon="9.047430548824503"><ele>167.0</ele><time>2026-05-03T09:32:52Z</time></trkpt><trkpt lat="40.70418346118467" lon="9.047630949938997"><ele>169.5</ele><time>2026-05-03T09:32:53Z</time></trkpt><trkpt lat="40.70441142319686" lon="9.047834729170003"><ele>172.0</ele><time>2026-05-03T09:32:54Z</time></trkpt><trkpt lat="40.70464126158587" lon="9.048041999075453"><ele>172.5</ele><time>2026-05-03T09:32:55Z</time></trkpt><trkpt lat="40.704867118710595" lon="9.04825113677106"><ele>173.0</ele><time>2026-05-03T09:32:56Z</time></trkpt><trkpt lat="40.705097842994775" lon="9.048465011922204"><ele>175.0</ele><time>2026-05-03T09:32:57Z</time></trkpt><trkpt lat="40.705328344565785" lon="9.048681710267449"><ele>177.0</ele><time>2026-05-03T09:32:58Z</time></trkpt><trkpt lat="40.7055577886402" lon="9.048904439233153"><ele>179.5</ele><time>2026-05-03T09:32:59Z</time></trkpt><trkpt lat="40.70578718844543" lon="9.0491361511396"><ele>182.0</ele><time>2026-05-03T09:33:00Z</time></trkpt><trkpt lat="40.70601420643883" lon="9.04937240098256"><ele>181.5</ele><time>2026-05-03T09:33:01Z</time></trkpt><trkpt lat="40.70624144554256" lon="9.049614681677685"><ele>181.0</ele><time>2026-05-03T09:33:02Z</time></trkpt><trkpt lat="40.70646761977686" lon="9.049864252130565"><ele>186.0</ele><time>2026-05-03T09:33:03Z</time></trkpt><trkpt lat="40.70669047693303" lon="9.050117571255637"><ele>191.0</ele><time>2026-05-03T09:33:04Z</time></trkpt><trkpt lat="40.706912194863804" lon="9.050376055671467"><ele>191.0</ele><time>2026-05-03T09:33:05Z</time></trkpt><trkpt lat="40.70713044637339" lon="9.050638005000017"><ele>191.0</ele><time>2026-05-03T09:33:06Z</time></trkpt><trkpt lat="40.707346638031865" lon="9.050905909216864"><ele>190.0</ele><time>2026-05-03T09:33:07Z</time></trkpt><trkpt lat="40.70756165894471" lon="9.051175059791175"><ele>189.0</ele><time>2026-05-03T09:33:08Z</time></trkpt><trkpt lat="40.70777259439261" lon="9.051445229315213"><ele>193.5</ele><time>2026-05-03T09:33:09Z</time></trkpt><trkpt lat="40.70797954118906" lon="9.051718566586285"><ele>198.0</ele><time>2026-05-03T09:33:10Z</time></trkpt><trkpt lat="40.70818266972521" lon="9.05199611490496"><ele>198.0</ele><time>2026-05-03T09:33:11Z</time></trkpt><trkpt lat="40.70838189211312" lon="9.05227796392644"><ele>198.0</ele><time>2026-05-03T09:33:12Z</time></trkpt><trkpt lat="40.708577831752834" lon="9.05256481626537"><ele>200.5</ele><time>2026-05-03T09:33:13Z</time></trkpt><trkpt lat="40.70877037489412" lon="9.05285326504394"><ele>203.0</ele><time>2026-05-03T09:33:14Z</time></trkpt><trkpt lat="40.70895927780101" lon="9.053144243352717"><ele>207.0</ele><time>2026-05-03T09:33:15Z</time></trkpt><trkpt lat="40.70914886356202" lon="9.053436830265799"><ele>211.0</ele><time>2026-05-03T09:33:16Z</time></trkpt><trkpt lat="40.709336768224546" lon="9.053732157112586"><ele>209.5</ele><time>2026-05-03T09:33:17Z</time></trkpt><trkpt lat="40.709521788703924" lon="9.054026899775446"><ele>208.0</ele><time>2026-05-03T09:33:18Z</time></trkpt><trkpt lat="40.709701666649664" lon="9.054326613171554"><ele>208.0</ele><time>2026-05-03T09:33:19Z</time></trkpt><trkpt lat="40.709871747504316" lon="9.054622058662952"><ele>208.0</ele><time>2026-05-03T09:33:20Z</time></trkpt><trkpt lat="40.71002982999243" lon="9.054916882249124"><ele>208.0</ele><time>2026-05-03T09:33:21Z</time></trkpt><trkpt lat="40.71018388472195" lon="9.055210158685576"><ele>208.0</ele><time>2026-05-03T09:33:22Z</time></trkpt><trkpt lat="40.7103338830144" lon="9.055502063681898"><ele>211.0</ele><time>2026-05-03T09:33:23Z</time></trkpt><trkpt lat="40.71048680164749" lon="9.055789922393199"><ele>214.0</ele><time>2026-05-03T09:33:24Z</time></trkpt><trkpt lat="40.71062042054033" lon="9.056076391624963"><ele>214.0</ele><time>2026-05-03T09:33:25Z</time></trkpt><trkpt lat="40.710750307747304" lon="9.05636129289281"><ele>214.0</ele><time>2026-05-03T09:33:26Z</time></trkpt><trkpt lat="40.71090842468986" lon="9.056646712666709"><ele>215.5</ele><time>2026-05-03T09:33:27Z</time></trkpt><trkpt lat="40.71105979283148" lon="9.056931887397502"><ele>217.0</ele><time>2026-05-03T09:33:28Z</time></trkpt><trkpt lat="40.71120060519835" lon="9.057207460840251"><ele>220.5</ele><time>2026-05-03T09:33:29Z</time></trkpt><trkpt lat="40.71134707930625" lon="9.057493599459875"><ele>224.0</ele><time>2026-05-03T09:33:30Z</time></trkpt><trkpt lat="40.711512182033886" lon="9.057746694850389"><ele>224.0</ele><time>2026-05-03T09:33:31Z</time></trkpt><trkpt lat="40.711669096927416" lon="9.057999393840307"><ele>224.0</ele><time>2026-05-03T09:33:32Z</time></trkpt><trkpt lat="40.711822837247006" lon="9.05836850531478"><ele>228.0</ele><time>2026-05-03T09:33:33Z</time></trkpt><trkpt lat="40.71197976543027" lon="9.058677174438422"><ele>232.0</ele><time>2026-05-03T09:33:34Z</time></trkpt><trkpt lat="40.71214944678462" lon="9.058999329668497"><ele>228.0</ele><time>2026-05-03T09:33:35Z</time></trkpt><trkpt lat="40.712306924412715" lon="9.059315674400702"><ele>224.0</ele><time>2026-05-03T09:33:36Z</time></trkpt><trkpt lat="40.71247464997645" lon="9.059653199115248"><ele>223.5</ele><time>2026-05-03T09:33:37Z</time></trkpt><trkpt lat="40.71264160326197" lon="9.05997750430931"><ele>223.0</ele><time>2026-05-03T09:33:38Z</time></trkpt><trkpt lat="40.712811025558395" lon="9.06030863641083"><ele>225.5</ele><time>2026-05-03T09:33:39Z</time></trkpt><trkpt lat="40.71298565506236" lon="9.060640510387215"><ele>228.0</ele><time>2026-05-03T09:33:40Z</time></trkpt><trkpt lat="40.71315929444679" lon="9.060975237760026"><ele>228.0</ele><time>2026-05-03T09:33:41Z</time></trkpt><trkpt lat="40.713333072768236" lon="9.061313029083795"><ele>228.0</ele><time>2026-05-03T09:33:42Z</time></trkpt><trkpt lat="40.713507054093085" lon="9.061652854989548"><ele>231.5</ele><time>2026-05-03T09:33:43Z</time></trkpt><trkpt lat="40.71368461831123" lon="9.061994094964737"><ele>235.0</ele><time>2026-05-03T09:33:44Z</time></trkpt><trkpt lat="40.71386048904963" lon="9.062344517269691"><ele>234.5</ele><time>2026-05-03T09:33:45Z</time></trkpt><trkpt lat="40.714037503052324" lon="9.062693680705983"><ele>234.0</ele><time>2026-05-03T09:33:46Z</time></trkpt><trkpt lat="40.714214137165534" lon="9.063042323175376"><ele>233.0</ele><time>2026-05-03T09:33:47Z</time></trkpt><trkpt lat="40.71439254697821" lon="9.063384933736474"><ele>232.0</ele><time>2026-05-03T09:33:48Z</time></trkpt><trkpt lat="40.71457700340544" lon="9.063737609301045"><ele>234.5</ele><time>2026-05-03T09:33:49Z</time></trkpt><trkpt lat="40.71475964999439" lon="9.064094339325875"><ele>237.0</ele><time>2026-05-03T09:33:50Z</time></trkpt><trkpt lat="40.71494099929454" lon="9.064449204809694"><ele>237.0</ele><time>2026-05-03T09:33:51Z</time></trkpt><trkpt lat="40.715110171334736" lon="9.06478945916939"><ele>237.0</ele><time>2026-05-03T09:33:52Z</time></trkpt><trkpt lat="40.71528586304717" lon="9.065127114081287"><ele>237.0</ele><time>2026-05-03T09:33:53Z</time></trkpt><trkpt lat="40.7154559585008" lon="9.065456965375722"><ele>237.0</ele><time>2026-05-03T09:33:54Z</time></trkpt><trkpt lat="40.71562940079851" lon="9.065786986822589"><ele>234.5</ele><time>2026-05-03T09:33:55Z</time></trkpt><trkpt lat="40.71579370738084" lon="9.066115217457359"><ele>232.0</ele><time>2026-05-03T09:33:56Z</time></trkpt><trkpt lat="40.71595893512295" lon="9.066432968911931"><ele>229.5</ele><time>2026-05-03T09:33:57Z</time></trkpt><trkpt lat="40.716092454540956" lon="9.066700477955312"><ele>227.0</ele><time>2026-05-03T09:33:58Z</time></trkpt><trkpt lat="40.71627299604497" lon="9.067028863227714"><ele>227.0</ele><time>2026-05-03T09:33:59Z</time></trkpt><trkpt lat="40.716431168033466" lon="9.067338915712183"><ele>227.0</ele><time>2026-05-03T09:34:00Z</time></trkpt><trkpt lat="40.71658976162745" lon="9.067651341101218"><ele>224.0</ele><time>2026-05-03T09:34:01Z</time></trkpt><trkpt lat="40.716749366669816" lon="9.067967926205425"><ele>221.0</ele><time>2026-05-03T09:34:02Z</time></trkpt><trkpt lat="40.71691612315282" lon="9.068288658964631"><ele>218.5</ele><time>2026-05-03T09:34:03Z</time></trkpt><trkpt lat="40.71708496220739" lon="9.06861093830803"><ele>216.0</ele><time>2026-05-03T09:34:04Z</time></trkpt><trkpt lat="40.71725154400904" lon="9.06893762110789"><ele>214.0</ele><time>2026-05-03T09:34:05Z</time></trkpt><trkpt lat="40.71741819760985" lon="9.06926726800449"><ele>212.0</ele><time>2026-05-03T09:34:06Z</time></trkpt><trkpt lat="40.71758546606361" lon="9.069597894431396"><ele>209.5</ele><time>2026-05-03T09:34:07Z</time></trkpt><trkpt lat="40.717753361275356" lon="9.069930971510699"><ele>207.0</ele><time>2026-05-03T09:34:08Z</time></trkpt><trkpt lat="40.71792003495127" lon="9.070257378908527"><ele>207.0</ele><time>2026-05-03T09:34:09Z</time></trkpt><trkpt lat="40.71808702961684" lon="9.07057907904448"><ele>207.0</ele><time>2026-05-03T09:34:10Z</time></trkpt><trkpt lat="40.71825472315206" lon="9.070898953501482"><ele>207.0</ele><time>2026-05-03T09:34:11Z</time></trkpt><trkpt lat="40.718419352004" lon="9.071217515004895"><ele>207.0</ele><time>2026-05-03T09:34:12Z</time></trkpt><trkpt lat="40.7185821649967" lon="9.071534008594327"><ele>204.5</ele><time>2026-05-03T09:34:13Z</time></trkpt><trkpt lat="40.71874533958074" lon="9.071846807988706"><ele>202.0</ele><time>2026-05-03T09:34:14Z</time></trkpt><trkpt lat="40.71890466356743" lon="9.072156385788755"><ele>200.0</ele><time>2026-05-03T09:34:15Z</time></trkpt><trkpt lat="40.71906346057762" lon="9.072467165086213"><ele>198.0</ele><time>2026-05-03T09:34:16Z</time></trkpt><trkpt lat="40.719223570371966" lon="9.072780766600781"><ele>198.0</ele><time>2026-05-03T09:34:17Z</time></trkpt><trkpt lat="40.719387253087106" lon="9.073096700466815"><ele>198.0</ele><time>2026-05-03T09:34:18Z</time></trkpt><trkpt lat="40.719550026719006" lon="9.073416375324518"><ele>196.0</ele><time>2026-05-03T09:34:19Z</time></trkpt><trkpt lat="40.71970999735099" lon="9.07373443870313"><ele>194.0</ele><time>2026-05-03T09:34:20Z</time></trkpt><trkpt lat="40.71986972287979" lon="9.074050924815248"><ele>190.5</ele><time>2026-05-03T09:34:21Z</time></trkpt><trkpt lat="40.72003170594934" lon="9.074368756379782"><ele>187.0</ele><time>2026-05-03T09:34:22Z</time></trkpt><trkpt lat="40.72019302780649" lon="9.074680497024607"><ele>185.5</ele><time>2026-05-03T09:34:23Z</time></trkpt><trkpt lat="40.72035216697764" lon="9.074992922539643"><ele>184.0</ele><time>2026-05-03T09:34:24Z</time></trkpt><trkpt lat="40.720511506936106" lon="9.075302678307654"><ele>184.0</ele><time>2026-05-03T09:34:25Z</time></trkpt><trkpt lat="40.72066887923403" lon="9.075611474699613"><ele>184.0</ele><time>2026-05-03T09:34:26Z</time></trkpt><trkpt lat="40.72082859211712" lon="9.075916803442936"><ele>182.5</ele><time>2026-05-03T09:34:27Z</time></trkpt><trkpt lat="40.72098473964164" lon="9.076219932284896"><ele>181.0</ele><time>2026-05-03T09:34:28Z</time></trkpt><trkpt lat="40.72114182768241" lon="9.076520776834425"><ele>178.5</ele><time>2026-05-03T09:34:29Z</time></trkpt><trkpt lat="40.72129610735944" lon="9.076820932772328"><ele>176.0</ele><time>2026-05-03T09:34:30Z</time></trkpt><trkpt lat="40.72145393508097" lon="9.077123682372486"><ele>176.0</ele><time>2026-05-03T09:34:31Z</time></trkpt><trkpt lat="40.72161268106834" lon="9.077434421963575"><ele>176.0</ele><time>2026-05-03T09:34:32Z</time></trkpt><trkpt lat="40.72176833234311" lon="9.077734699685186"><ele>176.0</ele><time>2026-05-03T09:34:33Z</time></trkpt><trkpt lat="40.72192076723206" lon="9.078037563670211"><ele>176.0</ele><time>2026-05-03T09:34:34Z</time></trkpt><trkpt lat="40.72207375565678" lon="9.07834190739547"><ele>177.0</ele><time>2026-05-03T09:34:35Z</time></trkpt><trkpt lat="40.722230087978055" lon="9.078644033627159"><ele>178.0</ele><time>2026-05-03T09:34:36Z</time></trkpt><trkpt lat="40.72238433515982" lon="9.078946709433508"><ele>178.0</ele><time>2026-05-03T09:34:37Z</time></trkpt><trkpt lat="40.722539798127606" lon="9.07924860169179"><ele>178.0</ele><time>2026-05-03T09:34:38Z</time></trkpt><trkpt lat="40.722694329150094" lon="9.079549320990832"><ele>178.0</ele><time>2026-05-03T09:34:39Z</time></trkpt><trkpt lat="40.7228518635298" lon="9.079854827367836"><ele>178.0</ele><time>2026-05-03T09:34:40Z</time></trkpt><trkpt lat="40.72301104516433" lon="9.080164813360692"><ele>179.5</ele><time>2026-05-03T09:34:41Z</time></trkpt><trkpt lat="40.72317363216426" lon="9.080475155269042"><ele>181.0</ele><time>2026-05-03T09:34:42Z</time></trkpt><trkpt lat="40.723332941800805" lon="9.080794176478705"><ele>183.5</ele><time>2026-05-03T09:34:43Z</time></trkpt><trkpt lat="40.72349603031581" lon="9.081108417681952"><ele>186.0</ele><time>2026-05-03T09:34:44Z</time></trkpt><trkpt lat="40.723659032831996" lon="9.081424812172482"><ele>188.0</ele><time>2026-05-03T09:34:45Z</time></trkpt><trkpt lat="40.723822122929306" lon="9.08174079812846"><ele>190.0</ele><time>2026-05-03T09:34:46Z</time></trkpt><trkpt lat="40.72399016187452" lon="9.082057922323768"><ele>190.0</ele><time>2026-05-03T09:34:47Z</time></trkpt><trkpt lat="40.724149019348786" lon="9.082374869300306"><ele>190.0</ele><time>2026-05-03T09:34:48Z</time></trkpt><trkpt lat="40.724312989145574" lon="9.082689790029129"><ele>194.5</ele><time>2026-05-03T09:34:49Z</time></trkpt><trkpt lat="40.72447302623592" lon="9.082991705354104"><ele>199.0</ele><time>2026-05-03T09:34:50Z</time></trkpt><trkpt lat="40.72461629392493" lon="9.083271132758298"><ele>199.0</ele><time>2026-05-03T09:34:51Z</time></trkpt><trkpt lat="40.72475792125719" lon="9.083537641993328"><ele>199.0</ele><time>2026-05-03T09:34:52Z</time></trkpt><trkpt lat="40.72489906474402" lon="9.083802983745239"><ele>199.0</ele><time>2026-05-03T09:34:53Z</time></trkpt><trkpt lat="40.725032315380176" lon="9.084053584528759"><ele>199.0</ele><time>2026-05-03T09:34:54Z</time></trkpt><trkpt lat="40.725153788059956" lon="9.084290975943382"><ele>199.0</ele><time>2026-05-03T09:34:55Z</time></trkpt><trkpt lat="40.72526993356663" lon="9.084511511795133"><ele>200.33333333333331</ele><time>2026-05-03T09:34:56Z</time></trkpt><trkpt lat="40.72538431800226" lon="9.084735037589596"><ele>201.66666666666669</ele><time>2026-05-03T09:34:57Z</time></trkpt><trkpt lat="40.725502972097836" lon="9.084958160929967"><ele>203.0</ele><time>2026-05-03T09:34:58Z</time></trkpt><trkpt lat="40.72562619671004" lon="9.085181059300272"><ele>203.0</ele><time>2026-05-03T09:34:59Z</time></trkpt><trkpt lat="40.72575387518764" lon="9.085407771884352"><ele>203.0</ele><time>2026-05-03T09:35:00Z</time></trkpt><trkpt lat="40.72588686517802" lon="9.085635118871725"><ele>203.0</ele><time>2026-05-03T09:35:01Z</time></trkpt><trkpt lat="40.7260114397342" lon="9.085855357564574"><ele>204.33333333333334</ele><time>2026-05-03T09:35:02Z</time></trkpt><trkpt lat="40.72611814728901" lon="9.086058485778068"><ele>205.66666666666669</ele><time>2026-05-03T09:35:03Z</time></trkpt><trkpt lat="40.726197333063254" lon="9.086244087005404"><ele>207.0</ele><time>2026-05-03T09:35:04Z</time></trkpt><trkpt lat="40.7262416075753" lon="9.086413569691548"><ele>207.0</ele><time>2026-05-03T09:35:05Z</time></trkpt><trkpt lat="40.726244854175086" lon="9.086574684366338"><ele>207.0</ele><time>2026-05-03T09:35:06Z</time></trkpt><trkpt lat="40.72621084910546" lon="9.086722823512462"><ele>207.0</ele><time>2026-05-03T09:35:07Z</time></trkpt><trkpt lat="40.72614905087205" lon="9.086855059957742"><ele>207.0</ele><time>2026-05-03T09:35:08Z</time></trkpt><trkpt lat="40.72606293777407" lon="9.086973119065629"><ele>205.0</ele><time>2026-05-03T09:35:09Z</time></trkpt><trkpt lat="40.72598289427421" lon="9.08709627953524"><ele>203.0</ele><time>2026-05-03T09:35:10Z</time></trkpt><trkpt lat="40.725922234325765" lon="9.087240219463927"><ele>201.0</ele><time>2026-05-03T09:35:11Z</time></trkpt><trkpt lat="40.72590526519375" lon="9.087397348130901"><ele>199.0</ele><time>2026-05-03T09:35:12Z</time></trkpt><trkpt lat="40.72590472398261" lon="9.087541259771541"><ele>198.79999999999998</ele><time>2026-05-03T09:35:13Z</time></trkpt><trkpt lat="40.72591178133971" lon="9.087677129661026"><ele>198.6</ele><time>2026-05-03T09:35:14Z</time></trkpt><trkpt lat="40.72591732724201" lon="9.087802771131502"><ele>198.4</ele><time>2026-05-03T09:35:15Z</time></trkpt><trkpt lat="40.725905379024894" lon="9.087921817557216"><ele>198.2</ele><time>2026-05-03T09:35:16Z</time></trkpt><trkpt lat="40.72587210384226" lon="9.088024049365577"><ele>198.0</ele><time>2026-05-03T09:35:17Z</time></trkpt><trkpt lat="40.72582760606153" lon="9.088105255688363"><ele>198.0</ele><time>2026-05-03T09:35:18Z</time></trkpt><trkpt lat="40.725750602004936" lon="9.088190769975405"><ele>198.0</ele><time>2026-05-03T09:35:20Z</time></trkpt><trkpt lat="40.72569426368279" lon="9.088242844070253"><ele>198.0</ele><time>2026-05-03T09:35:22Z</time></trkpt><trkpt lat="40.725571213350804" lon="9.088292748358414"><ele>198.0</ele><time>2026-05-03T09:35:24Z</time></trkpt><trkpt lat="40.72549531683025" lon="9.088302048154896"><ele>198.0</ele><time>2026-05-03T09:35:25Z</time></trkpt><trkpt lat="40.72542987038116" lon="9.088297361647328"><ele>198.0</ele><time>2026-05-03T09:35:26Z</time></trkpt><trkpt lat="40.725359108114944" lon="9.08836153866801"><ele>198.66666666666666</ele><time>2026-05-03T09:35:28Z</time></trkpt><trkpt lat="40.72538884006727" lon="9.088474619895944"><ele>199.33333333333331</ele><time>2026-05-03T09:35:30Z</time></trkpt><trkpt lat="40.72547574032725" lon="9.088463877070302"><ele>200.0</ele><time>2026-05-03T09:35:31Z</time></trkpt><trkpt lat="40.725552547910404" lon="9.08842799719344"><ele>200.66666666666666</ele><time>2026-05-03T09:35:33Z</time></trkpt><trkpt lat="40.72563355111711" lon="9.088379232705654"><ele>201.33333333333331</ele><time>2026-05-03T09:35:34Z</time></trkpt><trkpt lat="40.725719756126196" lon="9.088312740881168"><ele>202.0</ele><time>2026-05-03T09:35:35Z</time></trkpt><trkpt lat="40.725811216913485" lon="9.088264368982468"><ele>202.5</ele><time>2026-05-03T09:35:36Z</time></trkpt><trkpt lat="40.725914441327475" lon="9.0882306947892"><ele>203.0</ele><time>2026-05-03T09:35:37Z</time></trkpt><trkpt lat="40.72603095930783" lon="9.088185225529102"><ele>203.5</ele><time>2026-05-03T09:35:38Z</time></trkpt><trkpt lat="40.72615643854306" lon="9.088138484580178"><ele>204.0</ele><time>2026-05-03T09:35:39Z</time></trkpt><trkpt lat="40.726289393996026" lon="9.088087937624278"><ele>204.0</ele><time>2026-05-03T09:35:40Z</time></trkpt><trkpt lat="40.72642743921245" lon="9.088034337640643"><ele>204.0</ele><time>2026-05-03T09:35:41Z</time></trkpt><trkpt lat="40.726576964637566" lon="9.087979532938643"><ele>204.0</ele><time>2026-05-03T09:35:42Z</time></trkpt><trkpt lat="40.72673220726116" lon="9.087919635730879"><ele>204.0</ele><time>2026-05-03T09:35:43Z</time></trkpt><trkpt lat="40.726880016165126" lon="9.087859821752692"><ele>204.0</ele><time>2026-05-03T09:35:44Z</time></trkpt><trkpt lat="40.7270074164779" lon="9.087806674228183"><ele>204.0</ele><time>2026-05-03T09:35:45Z</time></trkpt><trkpt lat="40.72712716405774" lon="9.087759103622346"><ele>204.0</ele><time>2026-05-03T09:35:46Z</time></trkpt><trkpt lat="40.72724830446682" lon="9.087713111593748"><ele>204.25</ele><time>2026-05-03T09:35:47Z</time></trkpt><trkpt lat="40.72737114103883" lon="9.087671039376078"><ele>204.5</ele><time>2026-05-03T09:35:48Z</time></trkpt><trkpt lat="40.72749800975531" lon="9.087625252115874"><ele>204.75</ele><time>2026-05-03T09:35:49Z</time></trkpt><trkpt lat="40.72762825577227" lon="9.087569214164628"><ele>205.0</ele><time>2026-05-03T09:35:50Z</time></trkpt><trkpt lat="40.72776071754235" lon="9.087502047594755"><ele>205.66666666666666</ele><time>2026-05-03T09:35:51Z</time></trkpt><trkpt lat="40.7279044543481" lon="9.087431800876534"><ele>206.33333333333331</ele><time>2026-05-03T09:35:52Z</time></trkpt><trkpt lat="40.72805152787727" lon="9.087347939205014"><ele>207.0</ele><time>2026-05-03T09:35:53Z</time></trkpt><trkpt lat="40.72819926310652" lon="9.087248991211782"><ele>208.0</ele><time>2026-05-03T09:35:54Z</time></trkpt><trkpt lat="40.72835053947455" lon="9.087136866842398"><ele>209.0</ele><time>2026-05-03T09:35:55Z</time></trkpt><trkpt lat="40.72850494721089" lon="9.087010688904748"><ele>210.0</ele><time>2026-05-03T09:35:56Z</time></trkpt><trkpt lat="40.72866735204793" lon="9.086879147613745"><ele>210.33333333333331</ele><time>2026-05-03T09:35:57Z</time></trkpt><trkpt lat="40.72884081974852" lon="9.086744167711288"><ele>210.66666666666666</ele><time>2026-05-03T09:35:58Z</time></trkpt><trkpt lat="40.72901753146" lon="9.086609321229686"><ele>211.0</ele><time>2026-05-03T09:35:59Z</time></trkpt><trkpt lat="40.72919877068429" lon="9.086470609678422"><ele>211.33333333333331</ele><time>2026-05-03T09:36:00Z</time></trkpt><trkpt lat="40.72938340117914" lon="9.086328652420512"><ele>211.66666666666669</ele><time>2026-05-03T09:36:01Z</time></trkpt><trkpt lat="40.72957132292193" lon="9.086184275162708"><ele>212.0</ele><time>2026-05-03T09:36:02Z</time></trkpt><trkpt lat="40.72976156415762" lon="9.086039589038256"><ele>212.0</ele><time>2026-05-03T09:36:03Z</time></trkpt><trkpt lat="40.72993511620431" lon="9.085903666730143"><ele>212.0</ele><time>2026-05-03T09:36:04Z</time></trkpt><trkpt lat="40.73010036755075" lon="9.085764749191574"><ele>212.0</ele><time>2026-05-03T09:36:05Z</time></trkpt><trkpt lat="40.73025881492895" lon="9.085609973625184"><ele>212.0</ele><time>2026-05-03T09:36:06Z</time></trkpt><trkpt lat="40.73040382666303" lon="9.085429208891611"><ele>212.0</ele><time>2026-05-03T09:36:07Z</time></trkpt><trkpt lat="40.730544368015636" lon="9.085237161132227"><ele>212.0</ele><time>2026-05-03T09:36:08Z</time></trkpt><trkpt lat="40.730675216558865" lon="9.085027169959362"><ele>211.0</ele><time>2026-05-03T09:36:09Z</time></trkpt><trkpt lat="40.73078592192065" lon="9.084806977525975"><ele>210.0</ele><time>2026-05-03T09:36:10Z</time></trkpt><trkpt lat="40.730877577164605" lon="9.084570215808938"><ele>209.0</ele><time>2026-05-03T09:36:11Z</time></trkpt><trkpt lat="40.73096014024274" lon="9.084314954309791"><ele>209.0</ele><time>2026-05-03T09:36:12Z</time></trkpt><trkpt lat="40.73104432546626" lon="9.084059018427414"><ele>209.0</ele><time>2026-05-03T09:36:13Z</time></trkpt><trkpt lat="40.731129418184885" lon="9.083802003112767"><ele>209.0</ele><time>2026-05-03T09:36:14Z</time></trkpt><trkpt lat="40.731218337469166" lon="9.083542105372088"><ele>209.0</ele><time>2026-05-03T09:36:15Z</time></trkpt><trkpt lat="40.731308804429325" lon="9.08328067243148"><ele>209.0</ele><time>2026-05-03T09:36:16Z</time></trkpt><trkpt lat="40.73139521997451" lon="9.08301788493918"><ele>209.0</ele><time>2026-05-03T09:36:17Z</time></trkpt><trkpt lat="40.73148035742443" lon="9.08275762428952"><ele>209.33333333333334</ele><time>2026-05-03T09:36:18Z</time></trkpt><trkpt lat="40.73156492214664" lon="9.082502062745649"><ele>209.66666666666669</ele><time>2026-05-03T09:36:19Z</time></trkpt><trkpt lat="40.73164901749965" lon="9.082250250382835"><ele>210.0</ele><time>2026-05-03T09:36:20Z</time></trkpt><trkpt lat="40.731731424664545" lon="9.082003175713867"><ele>210.0</ele><time>2026-05-03T09:36:21Z</time></trkpt><trkpt lat="40.731812576471334" lon="9.081762612685646"><ele>210.0</ele><time>2026-05-03T09:36:22Z</time></trkpt><trkpt lat="40.73189189187806" lon="9.081528800144014"><ele>210.0</ele><time>2026-05-03T09:36:23Z</time></trkpt><trkpt lat="40.73197033317763" lon="9.081299353238322"><ele>212.0</ele><time>2026-05-03T09:36:24Z</time></trkpt><trkpt lat="40.7320487360707" lon="9.081075556969582"><ele>214.0</ele><time>2026-05-03T09:36:25Z</time></trkpt><trkpt lat="40.73212958650802" lon="9.080866182775704"><ele>216.0</ele><time>2026-05-03T09:36:26Z</time></trkpt><trkpt lat="40.732224752985566" lon="9.080691553586533"><ele>216.0</ele><time>2026-05-03T09:36:27Z</time></trkpt><trkpt lat="40.732359797496606" lon="9.08056211942513"><ele>216.0</ele><time>2026-05-03T09:36:28Z</time></trkpt><trkpt lat="40.73250955818034" lon="9.080452640847156"><ele>216.0</ele><time>2026-05-03T09:36:29Z</time></trkpt><trkpt lat="40.73267430189143" lon="9.080340685787155"><ele>217.0</ele><time>2026-05-03T09:36:30Z</time></trkpt><trkpt lat="40.73286385026854" lon="9.080257029973426"><ele>218.0</ele><time>2026-05-03T09:36:31Z</time></trkpt><trkpt lat="40.73306076685182" lon="9.080179563086498"><ele>219.0</ele><time>2026-05-03T09:36:32Z</time></trkpt><trkpt lat="40.73323258618493" lon="9.080083573500534"><ele>219.0</ele><time>2026-05-03T09:36:33Z</time></trkpt><trkpt lat="40.733384243410576" lon="9.079949155997754"><ele>219.0</ele><time>2026-05-03T09:36:34Z</time></trkpt><trkpt lat="40.73352427122719" lon="9.079779415976619"><ele>219.0</ele><time>2026-05-03T09:36:35Z</time></trkpt><trkpt lat="40.73365038718681" lon="9.079577462969592"><ele>219.33333333333331</ele><time>2026-05-03T09:36:36Z</time></trkpt><trkpt lat="40.73375751750261" lon="9.079347132404692"><ele>219.66666666666666</ele><time>2026-05-03T09:36:37Z</time></trkpt><trkpt lat="40.73384513624423" lon="9.07909719127588"><ele>220.0</ele><time>2026-05-03T09:36:38Z</time></trkpt><trkpt lat="40.73394610174805" lon="9.07886693317737"><ele>220.0</ele><time>2026-05-03T09:36:39Z</time></trkpt><trkpt lat="40.73402711780907" lon="9.078599607904023"><ele>220.0</ele><time>2026-05-03T09:36:40Z</time></trkpt><trkpt lat="40.7341144927277" lon="9.078334806956025"><ele>220.0</ele><time>2026-05-03T09:36:41Z</time></trkpt><trkpt lat="40.734197353870236" lon="9.078084136651688"><ele>220.33333333333331</ele><time>2026-05-03T09:36:42Z</time></trkpt><trkpt lat="40.734273729228626" lon="9.077855698417414"><ele>220.66666666666669</ele><time>2026-05-03T09:36:43Z</time></trkpt><trkpt lat="40.734352477283984" lon="9.077622049728395"><ele>221.0</ele><time>2026-05-03T09:36:44Z</time></trkpt><trkpt lat="40.73443195366172" lon="9.077387918670727"><ele>221.33333333333334</ele><time>2026-05-03T09:36:45Z</time></trkpt><trkpt lat="40.734512128528785" lon="9.077153071742607"><ele>221.66666666666669</ele><time>2026-05-03T09:36:46Z</time></trkpt><trkpt lat="40.734593958450574" lon="9.076917504350394"><ele>222.0</ele><time>2026-05-03T09:36:47Z</time></trkpt><trkpt lat="40.73468104643408" lon="9.076689381394534"><ele>221.66666666666669</ele><time>2026-05-03T09:36:48Z</time></trkpt><trkpt lat="40.73478124957767" lon="9.07647056512755"><ele>221.33333333333334</ele><time>2026-05-03T09:36:49Z</time></trkpt><trkpt lat="40.734896042196816" lon="9.076265896362703"><ele>221.0</ele><time>2026-05-03T09:36:50Z</time></trkpt><trkpt lat="40.73504512112068" lon="9.076092833481843"><ele>221.0</ele><time>2026-05-03T09:36:51Z</time></trkpt><trkpt lat="40.73516402888462" lon="9.075899758730257"><ele>221.0</ele><time>2026-05-03T09:36:52Z</time></trkpt><trkpt lat="40.73529814338699" lon="9.075720577909756"><ele>221.0</ele><time>2026-05-03T09:36:53Z</time></trkpt><trkpt lat="40.735407148777746" lon="9.075517079221452"><ele>219.33333333333334</ele><time>2026-05-03T09:36:54Z</time></trkpt><trkpt lat="40.73549197044231" lon="9.075287015651172"><ele>217.66666666666669</ele><time>2026-05-03T09:36:55Z</time></trkpt><trkpt lat="40.73556286523828" lon="9.075037223309051"><ele>216.0</ele><time>2026-05-03T09:36:56Z</time></trkpt><trkpt lat="40.73561140369179" lon="9.074777378961068"><ele>216.33333333333331</ele><time>2026-05-03T09:36:57Z</time></trkpt><trkpt lat="40.735644782692994" lon="9.074516521894745"><ele>216.66666666666666</ele><time>2026-05-03T09:36:58Z</time></trkpt><trkpt lat="40.73568665551369" lon="9.074273481536489"><ele>217.0</ele><time>2026-05-03T09:36:59Z</time></trkpt><trkpt lat="40.73579389903167" lon="9.074070429735873"><ele>217.0</ele><time>2026-05-03T09:37:00Z</time></trkpt><trkpt lat="40.73590476545081" lon="9.073860840469285"><ele>217.0</ele><time>2026-05-03T09:37:01Z</time></trkpt><trkpt lat="40.73603342987476" lon="9.073651025201817"><ele>217.0</ele><time>2026-05-03T09:37:02Z</time></trkpt><trkpt lat="40.73618153191098" lon="9.073458465945412"><ele>216.0</ele><time>2026-05-03T09:37:03Z</time></trkpt><trkpt lat="40.73635285829812" lon="9.073287196226953"><ele>215.0</ele><time>2026-05-03T09:37:04Z</time></trkpt><trkpt lat="40.73653141680525" lon="9.07313701246106"><ele>214.0</ele><time>2026-05-03T09:37:05Z</time></trkpt><trkpt lat="40.7367145677299" lon="9.073009655344078"><ele>209.66666666666666</ele><time>2026-05-03T09:37:06Z</time></trkpt><trkpt lat="40.73689510470065" lon="9.072913956312787"><ele>205.33333333333331</ele><time>2026-05-03T09:37:07Z</time></trkpt><trkpt lat="40.73709313273446" lon="9.072844299195188"><ele>201.0</ele><time>2026-05-03T09:37:08Z</time></trkpt><trkpt lat="40.73729380514841" lon="9.072798306574786"><ele>201.0</ele><time>2026-05-03T09:37:09Z</time></trkpt><trkpt lat="40.73751107995699" lon="9.072767591374639"><ele>201.0</ele><time>2026-05-03T09:37:10Z</time></trkpt><trkpt lat="40.73772883640401" lon="9.072729161501096"><ele>201.0</ele><time>2026-05-03T09:37:11Z</time></trkpt><trkpt lat="40.73795391913956" lon="9.072687005119535"><ele>197.5</ele><time>2026-05-03T09:37:12Z</time></trkpt><trkpt lat="40.738188633780794" lon="9.072637753863619"><ele>194.0</ele><time>2026-05-03T09:37:13Z</time></trkpt><trkpt lat="40.73841648979266" lon="9.072577480676514"><ele>194.33333333333334</ele><time>2026-05-03T09:37:14Z</time></trkpt><trkpt lat="40.73863462347117" lon="9.072504560313737"><ele>194.66666666666669</ele><time>2026-05-03T09:37:15Z</time></trkpt><trkpt lat="40.73883859554861" lon="9.072397182783627"><ele>195.0</ele><time>2026-05-03T09:37:16Z</time></trkpt><trkpt lat="40.73903729506631" lon="9.072269317221007"><ele>193.66666666666666</ele><time>2026-05-03T09:37:17Z</time></trkpt><trkpt lat="40.739234485398654" lon="9.072134704591635"><ele>192.33333333333331</ele><time>2026-05-03T09:37:18Z</time></trkpt><trkpt lat="40.73943122673017" lon="9.072010008528617"><ele>191.0</ele><time>2026-05-03T09:37:19Z</time></trkpt><trkpt lat="40.73961996986188" lon="9.071896499156562"><ele>191.0</ele><time>2026-05-03T09:37:20Z</time></trkpt><trkpt lat="40.73979685678574" lon="9.071790941556054"><ele>191.0</ele><time>2026-05-03T09:37:21Z</time></trkpt><trkpt lat="40.73997910097862" lon="9.07167913221406"><ele>191.0</ele><time>2026-05-03T09:37:22Z</time></trkpt><trkpt lat="40.74016562258099" lon="9.071565335332133"><ele>188.66666666666666</ele><time>2026-05-03T09:37:23Z</time></trkpt><trkpt lat="40.74033985281324" lon="9.0714561271152"><ele>186.33333333333334</ele><time>2026-05-03T09:37:24Z</time></trkpt><trkpt lat="40.74050465804155" lon="9.071353248373573"><ele>184.0</ele><time>2026-05-03T09:37:25Z</time></trkpt><trkpt lat="40.74066187634031" lon="9.071253295494127"><ele>184.0</ele><time>2026-05-03T09:37:26Z</time></trkpt><trkpt lat="40.74081117716056" lon="9.071154151373408"><ele>184.0</ele><time>2026-05-03T09:37:27Z</time></trkpt><trkpt lat="40.7409453748756" lon="9.071069969365016"><ele>184.0</ele><time>2026-05-03T09:37:28Z</time></trkpt><trkpt lat="40.74108493016907" lon="9.071020327636683"><ele>181.66666666666669</ele><time>2026-05-03T09:37:29Z</time></trkpt><trkpt lat="40.74124616844695" lon="9.071028572743238"><ele>179.33333333333334</ele><time>2026-05-03T09:37:30Z</time></trkpt><trkpt lat="40.741414347380996" lon="9.07110189165333"><ele>177.0</ele><time>2026-05-03T09:37:31Z</time></trkpt><trkpt lat="40.74155771322809" lon="9.071249729472957"><ele>177.0</ele><time>2026-05-03T09:37:32Z</time></trkpt><trkpt lat="40.74171333965381" lon="9.071383926947144"><ele>177.0</ele><time>2026-05-03T09:37:33Z</time></trkpt><trkpt lat="40.741863424957806" lon="9.071541246044575"><ele>177.0</ele><time>2026-05-03T09:37:34Z</time></trkpt><trkpt lat="40.742017235406635" lon="9.071693497743798"><ele>176.33333333333334</ele><time>2026-05-03T09:37:35Z</time></trkpt><trkpt lat="40.742171517864506" lon="9.071840306595764"><ele>175.66666666666669</ele><time>2026-05-03T09:37:36Z</time></trkpt><trkpt lat="40.742321566690585" lon="9.071983841541302"><ele>175.0</ele><time>2026-05-03T09:37:37Z</time></trkpt><trkpt lat="40.742466483221804" lon="9.072126132475711"><ele>175.0</ele><time>2026-05-03T09:37:38Z</time></trkpt><trkpt lat="40.74261173746661" lon="9.072265078724335"><ele>175.0</ele><time>2026-05-03T09:37:39Z</time></trkpt><trkpt lat="40.74275661217636" lon="9.072402807974848"><ele>175.0</ele><time>2026-05-03T09:37:40Z</time></trkpt><trkpt lat="40.74290336553624" lon="9.07254011944053"><ele>174.33333333333334</ele><time>2026-05-03T09:37:41Z</time></trkpt><trkpt lat="40.743043608576954" lon="9.072670830373"><ele>173.66666666666666</ele><time>2026-05-03T09:37:42Z</time></trkpt><trkpt lat="40.74317005886214" lon="9.072791425895254"><ele>173.0</ele><time>2026-05-03T09:37:43Z</time></trkpt><trkpt lat="40.743287651277356" lon="9.07290258699546"><ele>173.0</ele><time>2026-05-03T09:37:44Z</time></trkpt><trkpt lat="40.743398453643664" lon="9.073004778676442"><ele>173.0</ele><time>2026-05-03T09:37:45Z</time></trkpt><trkpt lat="40.74350579395673" lon="9.07310380306459"><ele>173.0</ele><time>2026-05-03T09:37:46Z</time></trkpt><trkpt lat="40.74361446931373" lon="9.073218666299889"><ele>173.0</ele><time>2026-05-03T09:37:47Z</time></trkpt><trkpt lat="40.74369826210987" lon="9.073378886227303"><ele>172.66666666666666</ele><time>2026-05-03T09:37:48Z</time></trkpt><trkpt lat="40.7437791738941" lon="9.073551429498709"><ele>172.33333333333334</ele><time>2026-05-03T09:37:49Z</time></trkpt><trkpt lat="40.74386463664832" lon="9.073731716752867"><ele>172.0</ele><time>2026-05-03T09:37:50Z</time></trkpt><trkpt lat="40.74392426436431" lon="9.073945962974056"><ele>170.33333333333334</ele><time>2026-05-03T09:37:51Z</time></trkpt><trkpt lat="40.74399304196146" lon="9.074170745274845"><ele>168.66666666666666</ele><time>2026-05-03T09:37:52Z</time></trkpt><trkpt lat="40.74407555454077" lon="9.07439664907683"><ele>167.0</ele><time>2026-05-03T09:37:53Z</time></trkpt><trkpt lat="40.7441684208305" lon="9.07462737347335"><ele>167.0</ele><time>2026-05-03T09:37:54Z</time></trkpt><trkpt lat="40.74426462406001" lon="9.07484666112716"><ele>167.0</ele><time>2026-05-03T09:37:55Z</time></trkpt><trkpt lat="40.74437711263384" lon="9.075050261644307"><ele>167.0</ele><time>2026-05-03T09:37:56Z</time></trkpt><trkpt lat="40.74450046815559" lon="9.075223847446514"><ele>167.0</ele><time>2026-05-03T09:37:57Z</time></trkpt><trkpt lat="40.74461585342336" lon="9.075382017701926"><ele>167.0</ele><time>2026-05-03T09:37:58Z</time></trkpt><trkpt lat="40.74473082155866" lon="9.07554583086884"><ele>167.0</ele><time>2026-05-03T09:37:59Z</time></trkpt><trkpt lat="40.744842332219896" lon="9.075717588064089"><ele>168.0</ele><time>2026-05-03T09:38:00Z</time></trkpt><trkpt lat="40.74495965987384" lon="9.07588597850313"><ele>169.0</ele><time>2026-05-03T09:38:01Z</time></trkpt><trkpt lat="40.745097969797214" lon="9.076032051391392"><ele>170.0</ele><time>2026-05-03T09:38:02Z</time></trkpt><trkpt lat="40.74525117753527" lon="9.076141601528263"><ele>170.0</ele><time>2026-05-03T09:38:03Z</time></trkpt><trkpt lat="40.745404622659535" lon="9.076237042892512"><ele>170.0</ele><time>2026-05-03T09:38:04Z</time></trkpt><trkpt lat="40.74554924273278" lon="9.076312486572489"><ele>170.0</ele><time>2026-05-03T09:38:05Z</time></trkpt><trkpt lat="40.74569209657542" lon="9.076347507395147"><ele>170.0</ele><time>2026-05-03T09:38:06Z</time></trkpt><trkpt lat="40.745842798335055" lon="9.07631917289235"><ele>170.0</ele><time>2026-05-03T09:38:07Z</time></trkpt><trkpt lat="40.74598707539392" lon="9.07622941581695"><ele>170.0</ele><time>2026-05-03T09:38:08Z</time></trkpt><trkpt lat="40.74608839662726" lon="9.076114269549372"><ele>170.0</ele><time>2026-05-03T09:38:09Z</time></trkpt><trkpt lat="40.74614242057411" lon="9.075961725033885"><ele>171.0</ele><time>2026-05-03T09:38:10Z</time></trkpt><trkpt lat="40.74617186873639" lon="9.075793907349652"><ele>172.0</ele><time>2026-05-03T09:38:11Z</time></trkpt><trkpt lat="40.74620810533519" lon="9.075622336816622"><ele>173.0</ele><time>2026-05-03T09:38:12Z</time></trkpt><trkpt lat="40.74629369889656" lon="9.0754689281816"><ele>174.0</ele><time>2026-05-03T09:38:13Z</time></trkpt><trkpt lat="40.74638584904578" lon="9.07528381760157"><ele>174.0</ele><time>2026-05-03T09:38:14Z</time></trkpt><trkpt lat="40.746508723374674" lon="9.075094763471823"><ele>174.0</ele><time>2026-05-03T09:38:15Z</time></trkpt><trkpt lat="40.74662325097556" lon="9.074889852821558"><ele>174.0</ele><time>2026-05-03T09:38:16Z</time></trkpt><trkpt lat="40.7467384413258" lon="9.07467760103328"><ele>172.0</ele><time>2026-05-03T09:38:17Z</time></trkpt><trkpt lat="40.746850722045146" lon="9.074477214929786"><ele>170.0</ele><time>2026-05-03T09:38:18Z</time></trkpt><trkpt lat="40.746952175482285" lon="9.074300447285072"><ele>168.0</ele><time>2026-05-03T09:38:19Z</time></trkpt><trkpt lat="40.74705677344145" lon="9.074128621766217"><ele>166.0</ele><time>2026-05-03T09:38:20Z</time></trkpt><trkpt lat="40.74719254528416" lon="9.073968578500063"><ele>164.0</ele><time>2026-05-03T09:38:21Z</time></trkpt><trkpt lat="40.747379396237335" lon="9.07385170628189"><ele>162.0</ele><time>2026-05-03T09:38:22Z</time></trkpt><trkpt lat="40.74757700639174" lon="9.07369908110032"><ele>164.0</ele><time>2026-05-03T09:38:23Z</time></trkpt><trkpt lat="40.747785310117756" lon="9.073573683823174"><ele>166.0</ele><time>2026-05-03T09:38:24Z</time></trkpt><trkpt lat="40.74797268232922" lon="9.073453733032522"><ele>168.0</ele><time>2026-05-03T09:38:25Z</time></trkpt><trkpt lat="40.74813823575729" lon="9.073346092641744"><ele>167.66666666666666</ele><time>2026-05-03T09:38:26Z</time></trkpt><trkpt lat="40.74830156750944" lon="9.07325301604741"><ele>167.33333333333331</ele><time>2026-05-03T09:38:27Z</time></trkpt><trkpt lat="40.748480172462095" lon="9.073217893668762"><ele>167.0</ele><time>2026-05-03T09:38:28Z</time></trkpt><trkpt lat="40.74865762572141" lon="9.073230732633585"><ele>168.66666666666666</ele><time>2026-05-03T09:38:29Z</time></trkpt><trkpt lat="40.74882517784966" lon="9.073298614528422"><ele>170.33333333333334</ele><time>2026-05-03T09:38:30Z</time></trkpt><trkpt lat="40.74897757760392" lon="9.073415990250444"><ele>172.0</ele><time>2026-05-03T09:38:31Z</time></trkpt><trkpt lat="40.749132465389614" lon="9.07355684057064"><ele>172.0</ele><time>2026-05-03T09:38:32Z</time></trkpt><trkpt lat="40.74929451373292" lon="9.073691930238473"><ele>172.0</ele><time>2026-05-03T09:38:33Z</time></trkpt><trkpt lat="40.74945156073381" lon="9.073848797249301"><ele>172.0</ele><time>2026-05-03T09:38:34Z</time></trkpt><trkpt lat="40.7496129772545" lon="9.074002375527746"><ele>174.0</ele><time>2026-05-03T09:38:35Z</time></trkpt><trkpt lat="40.74977743239159" lon="9.07415600295176"><ele>176.0</ele><time>2026-05-03T09:38:36Z</time></trkpt><trkpt lat="40.74994398008849" lon="9.07431102840432"><ele>178.0</ele><time>2026-05-03T09:38:37Z</time></trkpt><trkpt lat="40.75011303402543" lon="9.074467442781254"><ele>178.66666666666669</ele><time>2026-05-03T09:38:38Z</time></trkpt><trkpt lat="40.750282564335045" lon="9.074625265664455"><ele>179.33333333333334</ele><time>2026-05-03T09:38:39Z</time></trkpt><trkpt lat="40.750453022487214" lon="9.074784197610573"><ele>180.0</ele><time>2026-05-03T09:38:40Z</time></trkpt><trkpt lat="40.75062277022327" lon="9.07494356922476"><ele>179.66666666666666</ele><time>2026-05-03T09:38:41Z</time></trkpt><trkpt lat="40.750792620690014" lon="9.075104485655201"><ele>179.33333333333331</ele><time>2026-05-03T09:38:42Z</time></trkpt><trkpt lat="40.750959559273404" lon="9.075264397615095"><ele>179.0</ele><time>2026-05-03T09:38:43Z</time></trkpt><trkpt lat="40.75111620361009" lon="9.075409644568735"><ele>179.0</ele><time>2026-05-03T09:38:44Z</time></trkpt><trkpt lat="40.75126106173745" lon="9.075540963208347"><ele>179.0</ele><time>2026-05-03T09:38:45Z</time></trkpt><trkpt lat="40.75138506109756" lon="9.07568646253872"><ele>179.0</ele><time>2026-05-03T09:38:46Z</time></trkpt><trkpt lat="40.75145106114883" lon="9.075894374761122"><ele>178.33333333333331</ele><time>2026-05-03T09:38:47Z</time></trkpt><trkpt lat="40.7515262020417" lon="9.076121599670254"><ele>177.66666666666666</ele><time>2026-05-03T09:38:48Z</time></trkpt><trkpt lat="40.75160826538117" lon="9.076334069015983"><ele>177.0</ele><time>2026-05-03T09:38:49Z</time></trkpt><trkpt lat="40.751670857097594" lon="9.076541979766123"><ele>176.66666666666666</ele><time>2026-05-03T09:38:50Z</time></trkpt><trkpt lat="40.75174485286155" lon="9.076731965568213"><ele>176.33333333333331</ele><time>2026-05-03T09:38:51Z</time></trkpt><trkpt lat="40.751853929085094" lon="9.07689956437276"><ele>176.0</ele><time>2026-05-03T09:38:52Z</time></trkpt><trkpt lat="40.75200394430475" lon="9.077031464281772"><ele>174.0</ele><time>2026-05-03T09:38:53Z</time></trkpt><trkpt lat="40.752186153662066" lon="9.077135617814639"><ele>172.0</ele><time>2026-05-03T09:38:54Z</time></trkpt><trkpt lat="40.752369468994445" lon="9.077204735664488"><ele>170.0</ele><time>2026-05-03T09:38:55Z</time></trkpt><trkpt lat="40.752545557132656" lon="9.077227020437624"><ele>170.33333333333331</ele><time>2026-05-03T09:38:56Z</time></trkpt><trkpt lat="40.75271291092704" lon="9.07718977807099"><ele>170.66666666666666</ele><time>2026-05-03T09:38:57Z</time></trkpt><trkpt lat="40.752874051348165" lon="9.07709853790091"><ele>171.0</ele><time>2026-05-03T09:38:58Z</time></trkpt><trkpt lat="40.7530363794757" lon="9.076982881328773"><ele>171.0</ele><time>2026-05-03T09:38:59Z</time></trkpt><trkpt lat="40.75320701597214" lon="9.076884917073345"><ele>171.0</ele><time>2026-05-03T09:39:00Z</time></trkpt><trkpt lat="40.75337107749656" lon="9.076792279223584"><ele>171.0</ele><time>2026-05-03T09:39:01Z</time></trkpt><trkpt lat="40.75351732641134" lon="9.076711051186924"><ele>171.66666666666666</ele><time>2026-05-03T09:39:02Z</time></trkpt><trkpt lat="40.753653414102175" lon="9.076639558824139"><ele>172.33333333333331</ele><time>2026-05-03T09:39:03Z</time></trkpt><trkpt lat="40.75379812888238" lon="9.076575613567343"><ele>173.0</ele><time>2026-05-03T09:39:04Z</time></trkpt><trkpt lat="40.75394929714266" lon="9.076523300478469"><ele>170.75</ele><time>2026-05-03T09:39:05Z</time></trkpt><trkpt lat="40.754089997200474" lon="9.07649060035351"><ele>168.5</ele><time>2026-05-03T09:39:06Z</time></trkpt><trkpt lat="40.75422465502904" lon="9.0764804047054"><ele>166.25</ele><time>2026-05-03T09:39:07Z</time></trkpt><trkpt lat="40.75434536167851" lon="9.076535144714505"><ele>164.0</ele><time>2026-05-03T09:39:08Z</time></trkpt><trkpt lat="40.7544477470709" lon="9.07661677770572"><ele>163.39999999999998</ele><time>2026-05-03T09:39:09Z</time></trkpt><trkpt lat="40.75456174861864" lon="9.076693306251418"><ele>162.8</ele><time>2026-05-03T09:39:10Z</time></trkpt><trkpt lat="40.75464982168582" lon="9.07678821239488"><ele>162.2</ele><time>2026-05-03T09:39:11Z</time></trkpt><trkpt lat="40.75473750842281" lon="9.076837695242801"><ele>161.60000000000002</ele><time>2026-05-03T09:39:12Z</time></trkpt><trkpt lat="40.754826770514626" lon="9.076862562001542"><ele>161.0</ele><time>2026-05-03T09:39:13Z</time></trkpt><trkpt lat="40.75492020380478" lon="9.076881356688263"><ele>161.0</ele><time>2026-05-03T09:39:14Z</time></trkpt><trkpt lat="40.75501847516317" lon="9.076895978344679"><ele>161.0</ele><time>2026-05-03T09:39:15Z</time></trkpt><trkpt lat="40.755116212707186" lon="9.0769138712199"><ele>161.0</ele><time>2026-05-03T09:39:16Z</time></trkpt><trkpt lat="40.75521664497543" lon="9.076931072582068"><ele>161.0</ele><time>2026-05-03T09:39:17Z</time></trkpt><trkpt lat="40.75531845875447" lon="9.076947860880185"><ele>161.0</ele><time>2026-05-03T09:39:18Z</time></trkpt><trkpt lat="40.75542237852935" lon="9.076968024456482"><ele>159.20000000000002</ele><time>2026-05-03T09:39:19Z</time></trkpt><trkpt lat="40.755528049907234" lon="9.076990930365497"><ele>157.4</ele><time>2026-05-03T09:39:20Z</time></trkpt><trkpt lat="40.75563611963306" lon="9.077012902364812"><ele>155.6</ele><time>2026-05-03T09:39:21Z</time></trkpt><trkpt lat="40.755744178077485" lon="9.07703705991342"><ele>153.8</ele><time>2026-05-03T09:39:22Z</time></trkpt><trkpt lat="40.75585306550112" lon="9.077057098485332"><ele>152.0</ele><time>2026-05-03T09:39:23Z</time></trkpt><trkpt lat="40.755960190202366" lon="9.077074674524352"><ele>152.0</ele><time>2026-05-03T09:39:24Z</time></trkpt><trkpt lat="40.756064920754525" lon="9.07709487115378"><ele>152.0</ele><time>2026-05-03T09:39:25Z</time></trkpt><trkpt lat="40.75616850562771" lon="9.077115876638143"><ele>152.0</ele><time>2026-05-03T09:39:26Z</time></trkpt><trkpt lat="40.75627060286351" lon="9.077136256506169"><ele>152.0</ele><time>2026-05-03T09:39:27Z</time></trkpt><trkpt lat="40.75637140998473" lon="9.077155270568449"><ele>152.0</ele><time>2026-05-03T09:39:28Z</time></trkpt><trkpt lat="40.75647062112541" lon="9.077175199843188"><ele>152.0</ele><time>2026-05-03T09:39:29Z</time></trkpt><trkpt lat="40.75656902622145" lon="9.077192829658536"><ele>152.0</ele><time>2026-05-03T09:39:30Z</time></trkpt><trkpt lat="40.75666544984004" lon="9.077210713928093"><ele>152.0</ele><time>2026-05-03T09:39:31Z</time></trkpt><trkpt lat="40.756761813022294" lon="9.077229627504819"><ele>152.0</ele><time>2026-05-03T09:39:32Z</time></trkpt><trkpt lat="40.756858114667516" lon="9.077246885103785"><ele>152.0</ele><time>2026-05-03T09:39:33Z</time></trkpt><trkpt lat="40.75695487917441" lon="9.077265257549126"><ele>153.0</ele><time>2026-05-03T09:39:34Z</time></trkpt><trkpt lat="40.757058026931325" lon="9.077286276167909"><ele>154.0</ele><time>2026-05-03T09:39:35Z</time></trkpt><trkpt lat="40.75716573221119" lon="9.077304604712614"><ele>155.0</ele><time>2026-05-03T09:39:36Z</time></trkpt><trkpt lat="40.757277610872194" lon="9.077327608735667"><ele>156.0</ele><time>2026-05-03T09:39:37Z</time></trkpt><trkpt lat="40.75739298865511" lon="9.077350441884427"><ele>157.0</ele><time>2026-05-03T09:39:38Z</time></trkpt><trkpt lat="40.757509679804215" lon="9.077373887960881"><ele>157.0</ele><time>2026-05-03T09:39:39Z</time></trkpt><trkpt lat="40.75761688525824" lon="9.07739696434084"><ele>157.0</ele><time>2026-05-03T09:39:40Z</time></trkpt><trkpt lat="40.75770977512956" lon="9.077416173519694"><ele>157.0</ele><time>2026-05-03T09:39:41Z</time></trkpt><trkpt lat="40.75779873910288" lon="9.077406470480394"><ele>157.0</ele><time>2026-05-03T09:39:42Z</time></trkpt><trkpt lat="40.75788488434266" lon="9.07736974245856"><ele>157.0</ele><time>2026-05-03T09:39:43Z</time></trkpt><trkpt lat="40.75797125968029" lon="9.077304587669042"><ele>158.39999999999998</ele><time>2026-05-03T09:39:44Z</time></trkpt><trkpt lat="40.75805777070611" lon="9.077228852981856"><ele>159.79999999999998</ele><time>2026-05-03T09:39:45Z</time></trkpt><trkpt lat="40.758146164738655" lon="9.077148691182666"><ele>161.2</ele><time>2026-05-03T09:39:46Z</time></trkpt><trkpt lat="40.75823453188192" lon="9.077068264604526"><ele>162.6</ele><time>2026-05-03T09:39:47Z</time></trkpt><trkpt lat="40.75831611178235" lon="9.076998448863078"><ele>164.0</ele><time>2026-05-03T09:39:48Z</time></trkpt><trkpt lat="40.7583879897045" lon="9.076937860260422"><ele>164.0</ele><time>2026-05-03T09:39:49Z</time></trkpt><trkpt lat="40.758455405320696" lon="9.076877384228332"><ele>164.0</ele><time>2026-05-03T09:39:50Z</time></trkpt><trkpt lat="40.758526096160224" lon="9.076813840533559"><ele>164.0</ele><time>2026-05-03T09:39:51Z</time></trkpt><trkpt lat="40.75859951607183" lon="9.07675186193048"><ele>164.0</ele><time>2026-05-03T09:39:52Z</time></trkpt><trkpt lat="40.75866943721166" lon="9.076678578731734"><ele>164.0</ele><time>2026-05-03T09:39:53Z</time></trkpt><trkpt lat="40.7587187830881" lon="9.076578897197898"><ele>164.0</ele><time>2026-05-03T09:39:54Z</time></trkpt><trkpt lat="40.75873077280365" lon="9.076446503562964"><ele>167.2</ele><time>2026-05-03T09:39:55Z</time></trkpt><trkpt lat="40.758704512526116" lon="9.076311886923525"><ele>170.39999999999998</ele><time>2026-05-03T09:39:56Z</time></trkpt><trkpt lat="40.7586661842139" lon="9.07617556758525"><ele>173.6</ele><time>2026-05-03T09:39:57Z</time></trkpt><trkpt lat="40.7586399008347" lon="9.076037116282743"><ele>176.8</ele><time>2026-05-03T09:39:58Z</time></trkpt><trkpt lat="40.75864947179131" lon="9.075901618426084"><ele>180.0</ele><time>2026-05-03T09:39:59Z</time></trkpt><trkpt lat="40.75869652388619" lon="9.075776420510415"><ele>177.0</ele><time>2026-05-03T09:40:00Z</time></trkpt><trkpt lat="40.75878512236579" lon="9.075673266881596"><ele>174.0</ele><time>2026-05-03T09:40:01Z</time></trkpt><trkpt lat="40.75889694116145" lon="9.075570239600356"><ele>171.0</ele><time>2026-05-03T09:40:02Z</time></trkpt><trkpt lat="40.75902700975729" lon="9.075457557833186"><ele>168.0</ele><time>2026-05-03T09:40:03Z</time></trkpt><trkpt lat="40.75916867216339" lon="9.075335814591988"><ele>168.0</ele><time>2026-05-03T09:40:04Z</time></trkpt><trkpt lat="40.75931524289603" lon="9.075212858421741"><ele>168.0</ele><time>2026-05-03T09:40:05Z</time></trkpt><trkpt lat="40.759454340876104" lon="9.07508237546268"><ele>168.0</ele><time>2026-05-03T09:40:06Z</time></trkpt><trkpt lat="40.75957618979069" lon="9.074927479564884"><ele>169.33333333333334</ele><time>2026-05-03T09:40:07Z</time></trkpt><trkpt lat="40.759666927175054" lon="9.074744938200226"><ele>170.66666666666669</ele><time>2026-05-03T09:40:08Z</time></trkpt><trkpt lat="40.75974017688373" lon="9.074544823154945"><ele>172.0</ele><time>2026-05-03T09:40:09Z</time></trkpt><trkpt lat="40.7598067106775" lon="9.074354685285895"><ele>172.0</ele><time>2026-05-03T09:40:10Z</time></trkpt><trkpt lat="40.75987532546465" lon="9.074185036815429"><ele>172.0</ele><time>2026-05-03T09:40:11Z</time></trkpt><trkpt lat="40.759964118175944" lon="9.074045837221481"><ele>172.0</ele><time>2026-05-03T09:40:12Z</time></trkpt><trkpt lat="40.76008777641685" lon="9.07393819831292"><ele>172.0</ele><time>2026-05-03T09:40:13Z</time></trkpt><trkpt lat="40.76023292319241" lon="9.073882185675657"><ele>171.75</ele><time>2026-05-03T09:40:14Z</time></trkpt><trkpt lat="40.76039233772436" lon="9.07386382637592"><ele>171.5</ele><time>2026-05-03T09:40:15Z</time></trkpt><trkpt lat="40.760545720922465" lon="9.07384698789067"><ele>171.25</ele><time>2026-05-03T09:40:16Z</time></trkpt><trkpt lat="40.76067891877817" lon="9.07382735541131"><ele>171.0</ele><time>2026-05-03T09:40:17Z</time></trkpt><trkpt lat="40.76079504425023" lon="9.07378040193708"><ele>171.0</ele><time>2026-05-03T09:40:18Z</time></trkpt><trkpt lat="40.76087600845944" lon="9.073687422597855"><ele>171.0</ele><time>2026-05-03T09:40:19Z</time></trkpt><trkpt lat="40.76091162313739" lon="9.073543130924492"><ele>171.0</ele><time>2026-05-03T09:40:20Z</time></trkpt><trkpt lat="40.76090457365931" lon="9.07338899272842"><ele>171.0</ele><time>2026-05-03T09:40:21Z</time></trkpt><trkpt lat="40.76083766850965" lon="9.073255809100832"><ele>173.75</ele><time>2026-05-03T09:40:22Z</time></trkpt><trkpt lat="40.7607312632417" lon="9.073160923926322"><ele>176.5</ele><time>2026-05-03T09:40:23Z</time></trkpt><trkpt lat="40.76060204158681" lon="9.073084306613154"><ele>179.25</ele><time>2026-05-03T09:40:24Z</time></trkpt><trkpt lat="40.76048923776588" lon="9.072992192767801"><ele>182.0</ele><time>2026-05-03T09:40:25Z</time></trkpt><trkpt lat="40.7603741776208" lon="9.0729013354251"><ele>182.0</ele><time>2026-05-03T09:40:26Z</time></trkpt><trkpt lat="40.76033435263011" lon="9.072749603501265"><ele>182.0</ele><time>2026-05-03T09:40:27Z</time></trkpt><trkpt lat="40.76032523768917" lon="9.072582632669924"><ele>182.0</ele><time>2026-05-03T09:40:28Z</time></trkpt><trkpt lat="40.76031965345819" lon="9.07241154351571"><ele>182.0</ele><time>2026-05-03T09:40:29Z</time></trkpt><trkpt lat="40.76035368121035" lon="9.07218582737994"><ele>181.66666666666666</ele><time>2026-05-03T09:40:30Z</time></trkpt><trkpt lat="40.76039161307266" lon="9.071940366871607"><ele>181.33333333333334</ele><time>2026-05-03T09:40:31Z</time></trkpt><trkpt lat="40.76042447719814" lon="9.071697260978896"><ele>181.0</ele><time>2026-05-03T09:40:32Z</time></trkpt><trkpt lat="40.76046530524167" lon="9.071448064511438"><ele>181.0</ele><time>2026-05-03T09:40:33Z</time></trkpt><trkpt lat="40.76047568038916" lon="9.071208451116785"><ele>181.0</ele><time>2026-05-03T09:40:34Z</time></trkpt><trkpt lat="40.76055996715543" lon="9.070992971680118"><ele>181.0</ele><time>2026-05-03T09:40:35Z</time></trkpt><trkpt lat="40.76044483437391" lon="9.070808907754941"><ele>178.0</ele><time>2026-05-03T09:40:36Z</time></trkpt><trkpt lat="40.760465813188134" lon="9.07060737413883"><ele>175.0</ele><time>2026-05-03T09:40:37Z</time></trkpt><trkpt lat="40.760495331968364" lon="9.070411931979967"><ele>172.0</ele><time>2026-05-03T09:40:38Z</time></trkpt><trkpt lat="40.760582521453074" lon="9.070246157655193"><ele>172.0</ele><time>2026-05-03T09:40:39Z</time></trkpt><trkpt lat="40.76067794106643" lon="9.070085558684957"><ele>172.0</ele><time>2026-05-03T09:40:40Z</time></trkpt><trkpt lat="40.76079224813478" lon="9.069930354567004"><ele>172.0</ele><time>2026-05-03T09:40:41Z</time></trkpt><trkpt lat="40.760881716155374" lon="9.069767395590992"><ele>172.0</ele><time>2026-05-03T09:40:42Z</time></trkpt><trkpt lat="40.76096305481163" lon="9.069614316137576"><ele>172.0</ele><time>2026-05-03T09:40:43Z</time></trkpt><trkpt lat="40.760986130477725" lon="9.069432688238402"><ele>172.0</ele><time>2026-05-03T09:40:44Z</time></trkpt><trkpt lat="40.76094103714704" lon="9.069265994154318"><ele>172.0</ele><time>2026-05-03T09:40:45Z</time></trkpt><trkpt lat="40.760857374619164" lon="9.069113635566003"><ele>171.5</ele><time>2026-05-03T09:40:46Z</time></trkpt><trkpt lat="40.76076304258794" lon="9.068957499788084"><ele>171.0</ele><time>2026-05-03T09:40:47Z</time></trkpt><trkpt lat="40.76076190534284" lon="9.06878360519615"><ele>170.5</ele><time>2026-05-03T09:40:48Z</time></trkpt><trkpt lat="40.760791914873245" lon="9.06860999793535"><ele>170.0</ele><time>2026-05-03T09:40:49Z</time></trkpt><trkpt lat="40.76086288270367" lon="9.068461053927072"><ele>170.0</ele><time>2026-05-03T09:40:50Z</time></trkpt><trkpt lat="40.760960354556744" lon="9.068352485560656"><ele>170.0</ele><time>2026-05-03T09:40:51Z</time></trkpt><trkpt lat="40.7610764111325" lon="9.06831787750555"><ele>170.0</ele><time>2026-05-03T09:40:52Z</time></trkpt><trkpt lat="40.76120859351725" lon="9.068338753153649"><ele>170.0</ele><time>2026-05-03T09:40:53Z</time></trkpt><trkpt lat="40.76136615963973" lon="9.068392353117448"><ele>169.66666666666666</ele><time>2026-05-03T09:40:54Z</time></trkpt><trkpt lat="40.76154240260565" lon="9.068457028186325"><ele>169.33333333333334</ele><time>2026-05-03T09:40:55Z</time></trkpt><trkpt lat="40.76173325365761" lon="9.068526961120554"><ele>169.0</ele><time>2026-05-03T09:40:56Z</time></trkpt><trkpt lat="40.761929128656654" lon="9.068580123501574"><ele>168.66666666666669</ele><time>2026-05-03T09:40:57Z</time></trkpt><trkpt lat="40.76211844599432" lon="9.068654303496709"><ele>168.33333333333334</ele><time>2026-05-03T09:40:58Z</time></trkpt><trkpt lat="40.76229978262235" lon="9.068757210111245"><ele>168.0</ele><time>2026-05-03T09:40:59Z</time></trkpt><trkpt lat="40.76248720684868" lon="9.068843643561495"><ele>168.0</ele><time>2026-05-03T09:41:00Z</time></trkpt><trkpt lat="40.76267835196263" lon="9.068902492576377"><ele>168.0</ele><time>2026-05-03T09:41:01Z</time></trkpt><trkpt lat="40.76286771836761" lon="9.068970283281958"><ele>168.0</ele><time>2026-05-03T09:41:02Z</time></trkpt><trkpt lat="40.76305173573443" lon="9.069030378749622"><ele>168.66666666666666</ele><time>2026-05-03T09:41:03Z</time></trkpt><trkpt lat="40.76322322603378" lon="9.069090454431354"><ele>169.33333333333331</ele><time>2026-05-03T09:41:04Z</time></trkpt><trkpt lat="40.76338250149789" lon="9.069146147234031"><ele>170.0</ele><time>2026-05-03T09:41:05Z</time></trkpt><trkpt lat="40.76353736882842" lon="9.06916817901642"><ele>170.0</ele><time>2026-05-03T09:41:06Z</time></trkpt><trkpt lat="40.76364928987731" lon="9.069088372907618"><ele>170.0</ele><time>2026-05-03T09:41:07Z</time></trkpt><trkpt lat="40.76376671904194" lon="9.068988851900382"><ele>170.0</ele><time>2026-05-03T09:41:08Z</time></trkpt><trkpt lat="40.76390163372389" lon="9.068879930961087"><ele>170.0</ele><time>2026-05-03T09:41:09Z</time></trkpt><trkpt lat="40.764038488389694" lon="9.06874952050253"><ele>170.0</ele><time>2026-05-03T09:41:10Z</time></trkpt><trkpt lat="40.764187023509486" lon="9.06861760709889"><ele>170.0</ele><time>2026-05-03T09:41:11Z</time></trkpt><trkpt lat="40.76434641326448" lon="9.068480958589785"><ele>170.0</ele><time>2026-05-03T09:41:12Z</time></trkpt><trkpt lat="40.76451461850935" lon="9.068340824108928"><ele>173.0</ele><time>2026-05-03T09:41:13Z</time></trkpt><trkpt lat="40.764703290535735" lon="9.068208452063425"><ele>176.0</ele><time>2026-05-03T09:41:14Z</time></trkpt><trkpt lat="40.76492274983319" lon="9.068096802354278"><ele>179.0</ele><time>2026-05-03T09:41:15Z</time></trkpt><trkpt lat="40.76512999116465" lon="9.068023935657616"><ele>179.33333333333331</ele><time>2026-05-03T09:41:16Z</time></trkpt><trkpt lat="40.765324125696544" lon="9.067955131512209"><ele>179.66666666666666</ele><time>2026-05-03T09:41:17Z</time></trkpt><trkpt lat="40.76550633635503" lon="9.067857114774496"><ele>180.0</ele><time>2026-05-03T09:41:18Z</time></trkpt><trkpt lat="40.76567608191608" lon="9.067728831337279"><ele>180.0</ele><time>2026-05-03T09:41:19Z</time></trkpt><trkpt lat="40.76583689828289" lon="9.067608105555305"><ele>180.0</ele><time>2026-05-03T09:41:20Z</time></trkpt><trkpt lat="40.76601193114817" lon="9.06748165685942"><ele>180.0</ele><time>2026-05-03T09:41:21Z</time></trkpt><trkpt lat="40.766179790733894" lon="9.067370070574205"><ele>182.33333333333334</ele><time>2026-05-03T09:41:22Z</time></trkpt><trkpt lat="40.76634077356894" lon="9.067254903183928"><ele>184.66666666666669</ele><time>2026-05-03T09:41:23Z</time></trkpt><trkpt lat="40.76651237576158" lon="9.067166401300991"><ele>187.0</ele><time>2026-05-03T09:41:24Z</time></trkpt><trkpt lat="40.766684220758584" lon="9.067084272148257"><ele>188.0</ele><time>2026-05-03T09:41:25Z</time></trkpt><trkpt lat="40.76686825608296" lon="9.067022097153167"><ele>189.0</ele><time>2026-05-03T09:41:26Z</time></trkpt><trkpt lat="40.767049491753" lon="9.066960888616725"><ele>190.0</ele><time>2026-05-03T09:41:27Z</time></trkpt><trkpt lat="40.76723416435458" lon="9.06691013276779"><ele>190.0</ele><time>2026-05-03T09:41:28Z</time></trkpt><trkpt lat="40.767416494745866" lon="9.066867189070882"><ele>190.0</ele><time>2026-05-03T09:41:29Z</time></trkpt><trkpt lat="40.76759998345806" lon="9.066830163949179"><ele>190.0</ele><time>2026-05-03T09:41:30Z</time></trkpt><trkpt lat="40.76778695552534" lon="9.06684171052088"><ele>190.0</ele><time>2026-05-03T09:41:31Z</time></trkpt><trkpt lat="40.76797923233772" lon="9.066843055228492"><ele>190.0</ele><time>2026-05-03T09:41:32Z</time></trkpt><trkpt lat="40.768178050961374" lon="9.066864770633593"><ele>190.0</ele><time>2026-05-03T09:41:33Z</time></trkpt><trkpt lat="40.768383495592566" lon="9.066874614250288"><ele>192.0</ele><time>2026-05-03T09:41:34Z</time></trkpt><trkpt lat="40.768590179602114" lon="9.066911031712474"><ele>194.0</ele><time>2026-05-03T09:41:35Z</time></trkpt><trkpt lat="40.76879980646478" lon="9.066941556760904"><ele>196.0</ele><time>2026-05-03T09:41:36Z</time></trkpt><trkpt lat="40.76900899053658" lon="9.0669723873288"><ele>196.0</ele><time>2026-05-03T09:41:37Z</time></trkpt><trkpt lat="40.76921491900435" lon="9.067002270779339"><ele>196.0</ele><time>2026-05-03T09:41:38Z</time></trkpt><trkpt lat="40.769417008652965" lon="9.067035138398756"><ele>196.0</ele><time>2026-05-03T09:41:39Z</time></trkpt><trkpt lat="40.76961987431498" lon="9.06706520147536"><ele>198.0</ele><time>2026-05-03T09:41:40Z</time></trkpt><trkpt lat="40.76982161370526" lon="9.067092252409934"><ele>200.0</ele><time>2026-05-03T09:41:41Z</time></trkpt><trkpt lat="40.770023858540235" lon="9.067120848619304"><ele>202.0</ele><time>2026-05-03T09:41:42Z</time></trkpt><trkpt lat="40.77022612705119" lon="9.06715249392583"><ele>202.0</ele><time>2026-05-03T09:41:43Z</time></trkpt><trkpt lat="40.77043201980444" lon="9.067182868623298"><ele>202.0</ele><time>2026-05-03T09:41:44Z</time></trkpt><trkpt lat="40.77063830055028" lon="9.067207335674746"><ele>202.0</ele><time>2026-05-03T09:41:45Z</time></trkpt><trkpt lat="40.77084243014471" lon="9.067233432673897"><ele>202.0</ele><time>2026-05-03T09:41:46Z</time></trkpt><trkpt lat="40.771064707306216" lon="9.067265426885571"><ele>202.0</ele><time>2026-05-03T09:41:47Z</time></trkpt><trkpt lat="40.771249209547435" lon="9.067297493155841"><ele>202.0</ele><time>2026-05-03T09:41:48Z</time></trkpt><trkpt lat="40.771426388870466" lon="9.067324771540196"><ele>202.0</ele><time>2026-05-03T09:41:49Z</time></trkpt><trkpt lat="40.771584743998076" lon="9.067341735440337"><ele>202.0</ele><time>2026-05-03T09:41:50Z</time></trkpt><trkpt lat="40.77172784281291" lon="9.067335433853415"><ele>202.0</ele><time>2026-05-03T09:41:51Z</time></trkpt><trkpt lat="40.771876871442075" lon="9.067272246474918"><ele>204.33333333333331</ele><time>2026-05-03T09:41:52Z</time></trkpt><trkpt lat="40.77201612897852" lon="9.067134380618873"><ele>206.66666666666669</ele><time>2026-05-03T09:41:53Z</time></trkpt><trkpt lat="40.77215092278144" lon="9.067020932338792"><ele>209.0</ele><time>2026-05-03T09:41:54Z</time></trkpt><trkpt lat="40.77231089910954" lon="9.067002863641658"><ele>209.0</ele><time>2026-05-03T09:41:55Z</time></trkpt><trkpt lat="40.772471721461905" lon="9.067006124595842"><ele>209.0</ele><time>2026-05-03T09:41:56Z</time></trkpt><trkpt lat="40.77268597236006" lon="9.067001966402747"><ele>209.0</ele><time>2026-05-03T09:41:57Z</time></trkpt><trkpt lat="40.772899910047094" lon="9.066986795845818"><ele>212.0</ele><time>2026-05-03T09:41:58Z</time></trkpt><trkpt lat="40.77312816219959" lon="9.066959936111605"><ele>215.0</ele><time>2026-05-03T09:41:59Z</time></trkpt><trkpt lat="40.77335006555167" lon="9.066935366840339"><ele>216.0</ele><time>2026-05-03T09:42:00Z</time></trkpt><trkpt lat="40.773559874335994" lon="9.066909468186767"><ele>217.0</ele><time>2026-05-03T09:42:01Z</time></trkpt><trkpt lat="40.77375728744366" lon="9.066886953701148"><ele>218.0</ele><time>2026-05-03T09:42:02Z</time></trkpt><trkpt lat="40.77394614429242" lon="9.066860979899957"><ele>218.0</ele><time>2026-05-03T09:42:03Z</time></trkpt><trkpt lat="40.774138056578494" lon="9.06681388526447"><ele>218.0</ele><time>2026-05-03T09:42:04Z</time></trkpt><trkpt lat="40.77431736581617" lon="9.066719976670296"><ele>218.0</ele><time>2026-05-03T09:42:05Z</time></trkpt><trkpt lat="40.77448580723702" lon="9.066593690571237"><ele>220.33333333333334</ele><time>2026-05-03T09:42:06Z</time></trkpt><trkpt lat="40.774632239921566" lon="9.06647585902699"><ele>222.66666666666669</ele><time>2026-05-03T09:42:07Z</time></trkpt><trkpt lat="40.77478599325276" lon="9.06643967655569"><ele>225.0</ele><time>2026-05-03T09:42:08Z</time></trkpt><trkpt lat="40.77490717885948" lon="9.066474538845279"><ele>225.0</ele><time>2026-05-03T09:42:09Z</time></trkpt><trkpt lat="40.77505098058795" lon="9.06655946486672"><ele>225.0</ele><time>2026-05-03T09:42:10Z</time></trkpt><trkpt lat="40.775223576734284" lon="9.066654668581423"><ele>225.0</ele><time>2026-05-03T09:42:11Z</time></trkpt><trkpt lat="40.7753900788524" lon="9.066741911247759"><ele>226.33333333333331</ele><time>2026-05-03T09:42:12Z</time></trkpt><trkpt lat="40.77555420432633" lon="9.066759730477044"><ele>227.66666666666666</ele><time>2026-05-03T09:42:13Z</time></trkpt><trkpt lat="40.77573653615681" lon="9.066747021225437"><ele>229.0</ele><time>2026-05-03T09:42:14Z</time></trkpt><trkpt lat="40.775911837736075" lon="9.066778679133469"><ele>232.0</ele><time>2026-05-03T09:42:15Z</time></trkpt><trkpt lat="40.77604673756624" lon="9.066880589285091"><ele>235.0</ele><time>2026-05-03T09:42:16Z</time></trkpt><trkpt lat="40.7761798742042" lon="9.066936676237457"><ele>238.0</ele><time>2026-05-03T09:42:17Z</time></trkpt><trkpt lat="40.77628290702698" lon="9.06700557479242"><ele>241.0</ele><time>2026-05-03T09:42:18Z</time></trkpt><trkpt lat="40.77638669410354" lon="9.067043585404393"><ele>241.0</ele><time>2026-05-03T09:42:19Z</time></trkpt><trkpt lat="40.77646011131711" lon="9.066990335748834"><ele>241.00000000000003</ele><time>2026-05-03T09:42:20Z</time></trkpt><trkpt lat="40.776457240806245" lon="9.066854418518256"><ele>241.00000000000003</ele><time>2026-05-03T09:42:21Z</time></trkpt><trkpt lat="40.776413143247524" lon="9.066729784515607"><ele>241.0</ele><time>2026-05-03T09:42:22Z</time></trkpt><trkpt lat="40.77632474946085" lon="9.06662595260677"><ele>241.0</ele><time>2026-05-03T09:42:23Z</time></trkpt><trkpt lat="40.77620873172501" lon="9.066505355925761"><ele>238.66666666666666</ele><time>2026-05-03T09:42:24Z</time></trkpt><trkpt lat="40.7761018863806" lon="9.066332923719438"><ele>236.33333333333331</ele><time>2026-05-03T09:42:25Z</time></trkpt><trkpt lat="40.77599736426812" lon="9.066167676914914"><ele>234.0</ele><time>2026-05-03T09:42:26Z</time></trkpt><trkpt lat="40.775925591058616" lon="9.066006336900973"><ele>234.0</ele><time>2026-05-03T09:42:27Z</time></trkpt><trkpt lat="40.77592096932388" lon="9.065825096587725"><ele>234.0</ele><time>2026-05-03T09:42:28Z</time></trkpt><trkpt lat="40.77594200734152" lon="9.065627381109504"><ele>234.0</ele><time>2026-05-03T09:42:29Z</time></trkpt><trkpt lat="40.77595538700542" lon="9.065401437507779"><ele>235.0</ele><time>2026-05-03T09:42:30Z</time></trkpt><trkpt lat="40.77595971676668" lon="9.0651568548872"><ele>236.0</ele><time>2026-05-03T09:42:31Z</time></trkpt><trkpt lat="40.775922160990696" lon="9.064918498405506"><ele>237.0</ele><time>2026-05-03T09:42:32Z</time></trkpt><trkpt lat="40.7758542994879" lon="9.064690363357329"><ele>238.5</ele><time>2026-05-03T09:42:33Z</time></trkpt><trkpt lat="40.77578907654394" lon="9.064491538360189"><ele>240.0</ele><time>2026-05-03T09:42:34Z</time></trkpt><trkpt lat="40.775754580605735" lon="9.064311604447596"><ele>241.5</ele><time>2026-05-03T09:42:35Z</time></trkpt><trkpt lat="40.775743713438324" lon="9.064128362025173"><ele>243.0</ele><time>2026-05-03T09:42:36Z</time></trkpt><trkpt lat="40.775764057355126" lon="9.063922418363601"><ele>243.33333333333331</ele><time>2026-05-03T09:42:37Z</time></trkpt><trkpt lat="40.77578741461797" lon="9.063691086076005"><ele>243.66666666666666</ele><time>2026-05-03T09:42:38Z</time></trkpt><trkpt lat="40.77582191543709" lon="9.063466267681958"><ele>244.0</ele><time>2026-05-03T09:42:39Z</time></trkpt><trkpt lat="40.77585818483505" lon="9.063228486515857"><ele>244.33333333333331</ele><time>2026-05-03T09:42:40Z</time></trkpt><trkpt lat="40.775901821004894" lon="9.062982768639598"><ele>244.66666666666669</ele><time>2026-05-03T09:42:41Z</time></trkpt><trkpt lat="40.77594851814006" lon="9.06273299712724"><ele>245.0</ele><time>2026-05-03T09:42:42Z</time></trkpt><trkpt lat="40.775995361029" lon="9.062485910890993"><ele>245.0</ele><time>2026-05-03T09:42:43Z</time></trkpt><trkpt lat="40.77601598616121" lon="9.062233220375521"><ele>245.0</ele><time>2026-05-03T09:42:44Z</time></trkpt><trkpt lat="40.776001652151244" lon="9.061974295740164"><ele>245.0</ele><time>2026-05-03T09:42:45Z</time></trkpt><trkpt lat="40.7759816109134" lon="9.061737682858421"><ele>243.75</ele><time>2026-05-03T09:42:46Z</time></trkpt><trkpt lat="40.77596317886389" lon="9.061531880429893"><ele>242.5</ele><time>2026-05-03T09:42:47Z</time></trkpt><trkpt lat="40.7759618212945" lon="9.06134728914466"><ele>241.25</ele><time>2026-05-03T09:42:48Z</time></trkpt><trkpt lat="40.77598927767866" lon="9.061184425112554"><ele>240.0</ele><time>2026-05-03T09:42:49Z</time></trkpt><trkpt lat="40.776063230631834" lon="9.061064990394476"><ele>244.5</ele><time>2026-05-03T09:42:50Z</time></trkpt><trkpt lat="40.77617644010469" lon="9.06101644360845"><ele>249.0</ele><time>2026-05-03T09:42:51Z</time></trkpt><trkpt lat="40.77631201045927" lon="9.061018004931077"><ele>253.5</ele><time>2026-05-03T09:42:52Z</time></trkpt><trkpt lat="40.776455714888" lon="9.061011577790415"><ele>258.0</ele><time>2026-05-03T09:42:53Z</time></trkpt><trkpt lat="40.77656935634105" lon="9.060942155295884"><ele>258.0</ele><time>2026-05-03T09:42:54Z</time></trkpt><trkpt lat="40.77664516119159" lon="9.060819028416377"><ele>258.0</ele><time>2026-05-03T09:42:55Z</time></trkpt><trkpt lat="40.776662722634235" lon="9.060659946602938"><ele>258.0</ele><time>2026-05-03T09:42:56Z</time></trkpt><trkpt lat="40.77667081428745" lon="9.060487681715948"><ele>258.0</ele><time>2026-05-03T09:42:57Z</time></trkpt><trkpt lat="40.77671472936538" lon="9.060333013733276"><ele>255.33333333333331</ele><time>2026-05-03T09:42:58Z</time></trkpt><trkpt lat="40.776811544341655" lon="9.060195259056304"><ele>252.66666666666666</ele><time>2026-05-03T09:42:59Z</time></trkpt><trkpt lat="40.77693691838548" lon="9.060063883735147"><ele>250.0</ele><time>2026-05-03T09:43:00Z</time></trkpt><trkpt lat="40.77707032911203" lon="9.059968381484103"><ele>254.75</ele><time>2026-05-03T09:43:01Z</time></trkpt><trkpt lat="40.777198689036084" lon="9.059923866497325"><ele>259.5</ele><time>2026-05-03T09:43:02Z</time></trkpt><trkpt lat="40.77731417681222" lon="9.059974268754935"><ele>264.25</ele><time>2026-05-03T09:43:03Z</time></trkpt><trkpt lat="40.77741961531704" lon="9.060005441884078"><ele>269.0</ele><time>2026-05-03T09:43:04Z</time></trkpt><trkpt lat="40.77750640180102" lon="9.060035870183993"><ele>269.0</ele><time>2026-05-03T09:43:05Z</time></trkpt><trkpt lat="40.77757238805557" lon="9.060010488036196"><ele>269.0</ele><time>2026-05-03T09:43:06Z</time></trkpt><trkpt lat="40.777608727811135" lon="9.059889455841775"><ele>269.0</ele><time>2026-05-03T09:43:07Z</time></trkpt><trkpt lat="40.77759437286685" lon="9.059753294914236"><ele>269.0</ele><time>2026-05-03T09:43:08Z</time></trkpt><trkpt lat="40.77753116162835" lon="9.059614723250881"><ele>269.0</ele><time>2026-05-03T09:43:09Z</time></trkpt><trkpt lat="40.777445266094176" lon="9.059488582401553"><ele>268.75</ele><time>2026-05-03T09:43:10Z</time></trkpt><trkpt lat="40.77735983104924" lon="9.059364272166198"><ele>268.5</ele><time>2026-05-03T09:43:11Z</time></trkpt><trkpt lat="40.77731382722381" lon="9.059231478392313"><ele>268.25</ele><time>2026-05-03T09:43:12Z</time></trkpt><trkpt lat="40.77727750413507" lon="9.059090747274816"><ele>268.0</ele><time>2026-05-03T09:43:13Z</time></trkpt><trkpt lat="40.777329616188254" lon="9.058912349491685"><ele>268.0</ele><time>2026-05-03T09:43:14Z</time></trkpt><trkpt lat="40.77737065619932" lon="9.058713744951191"><ele>268.0</ele><time>2026-05-03T09:43:15Z</time></trkpt><trkpt lat="40.77744602431005" lon="9.05853046676725"><ele>268.0</ele><time>2026-05-03T09:43:16Z</time></trkpt><trkpt lat="40.77753370529171" lon="9.058345286437135"><ele>267.0</ele><time>2026-05-03T09:43:17Z</time></trkpt><trkpt lat="40.77764913759133" lon="9.058181319543985"><ele>266.0</ele><time>2026-05-03T09:43:18Z</time></trkpt><trkpt lat="40.77775649630746" lon="9.058039838520843"><ele>265.0</ele><time>2026-05-03T09:43:19Z</time></trkpt><trkpt lat="40.77784758630536" lon="9.057894168833991"><ele>273.75</ele><time>2026-05-03T09:43:20Z</time></trkpt><trkpt lat="40.77790181753135" lon="9.057726186809944"><ele>282.5</ele><time>2026-05-03T09:43:21Z</time></trkpt><trkpt lat="40.77788696099236" lon="9.057536381499709"><ele>291.25</ele><time>2026-05-03T09:43:22Z</time></trkpt><trkpt lat="40.777821132214676" lon="9.057358298049772"><ele>300.0</ele><time>2026-05-03T09:43:23Z</time></trkpt><trkpt lat="40.77773015386857" lon="9.057182034823356"><ele>302.0</ele><time>2026-05-03T09:43:24Z</time></trkpt><trkpt lat="40.77769578598663" lon="9.056976255573657"><ele>304.0</ele><time>2026-05-03T09:43:25Z</time></trkpt><trkpt lat="40.77768418584018" lon="9.056779936567336"><ele>306.0</ele><time>2026-05-03T09:43:26Z</time></trkpt><trkpt lat="40.77762262136431" lon="9.056552857748533"><ele>298.3333333333333</ele><time>2026-05-03T09:43:27Z</time></trkpt><trkpt lat="40.77756018257745" lon="9.056345698254056"><ele>290.66666666666663</ele><time>2026-05-03T09:43:28Z</time></trkpt><trkpt lat="40.77747060602406" lon="9.056157682542402"><ele>283.0</ele><time>2026-05-03T09:43:29Z</time></trkpt><trkpt lat="40.77744174140032" lon="9.055944373362559"><ele>284.0</ele><time>2026-05-03T09:43:30Z</time></trkpt><trkpt lat="40.777432801098065" lon="9.055736368116726"><ele>285.0</ele><time>2026-05-03T09:43:31Z</time></trkpt><trkpt lat="40.777453000852816" lon="9.055534232633258"><ele>286.0</ele><time>2026-05-03T09:43:32Z</time></trkpt><trkpt lat="40.77747992387908" lon="9.055314204907342"><ele>286.0</ele><time>2026-05-03T09:43:33Z</time></trkpt><trkpt lat="40.77748646683461" lon="9.055094536492708"><ele>286.0</ele><time>2026-05-03T09:43:34Z</time></trkpt><trkpt lat="40.77746726102582" lon="9.054879867793096"><ele>286.0</ele><time>2026-05-03T09:43:35Z</time></trkpt><trkpt lat="40.777456421059036" lon="9.054663748432365"><ele>285.75</ele><time>2026-05-03T09:43:36Z</time></trkpt><trkpt lat="40.7774392933446" lon="9.054456717547504"><ele>285.5</ele><time>2026-05-03T09:43:37Z</time></trkpt><trkpt lat="40.77742330061218" lon="9.054272425427353"><ele>285.25</ele><time>2026-05-03T09:43:38Z</time></trkpt><trkpt lat="40.77742522586583" lon="9.05407897079518"><ele>285.0</ele><time>2026-05-03T09:43:39Z</time></trkpt><trkpt lat="40.77746275520564" lon="9.053919162479968"><ele>286.75</ele><time>2026-05-03T09:43:40Z</time></trkpt><trkpt lat="40.77754835420789" lon="9.053793016988774"><ele>288.5</ele><time>2026-05-03T09:43:41Z</time></trkpt><trkpt lat="40.77767377243868" lon="9.053790163623095"><ele>290.25</ele><time>2026-05-03T09:43:42Z</time></trkpt><trkpt lat="40.77774366366465" lon="9.0538535091637"><ele>292.0</ele><time>2026-05-03T09:43:43Z</time></trkpt><trkpt lat="40.77787937112538" lon="9.053948237434742"><ele>292.0</ele><time>2026-05-03T09:43:44Z</time></trkpt><trkpt lat="40.778041013584435" lon="9.054020395571545"><ele>292.0</ele><time>2026-05-03T09:43:45Z</time></trkpt><trkpt lat="40.77820836830158" lon="9.05405954841082"><ele>292.0</ele><time>2026-05-03T09:43:46Z</time></trkpt><trkpt lat="40.77834672794699" lon="9.0540164965831"><ele>292.0</ele><time>2026-05-03T09:43:47Z</time></trkpt><trkpt lat="40.778432570728924" lon="9.053923661342605"><ele>292.0</ele><time>2026-05-03T09:43:48Z</time></trkpt><trkpt lat="40.77846955144419" lon="9.05376669440011"><ele>292.0</ele><time>2026-05-03T09:43:49Z</time></trkpt><trkpt lat="40.778454593414374" lon="9.053587028760806"><ele>292.0</ele><time>2026-05-03T09:43:50Z</time></trkpt><trkpt lat="40.7784110258405" lon="9.053387751273066"><ele>292.66666666666663</ele><time>2026-05-03T09:43:51Z</time></trkpt><trkpt lat="40.77838844864236" lon="9.05315961490737"><ele>293.3333333333333</ele><time>2026-05-03T09:43:52Z</time></trkpt><trkpt lat="40.77835569426873" lon="9.052908111984083"><ele>294.0</ele><time>2026-05-03T09:43:53Z</time></trkpt><trkpt lat="40.77837001495069" lon="9.052673129806385"><ele>294.0</ele><time>2026-05-03T09:43:54Z</time></trkpt><trkpt lat="40.7784036717733" lon="9.052485682594792"><ele>294.0</ele><time>2026-05-03T09:43:55Z</time></trkpt><trkpt lat="40.778451191600674" lon="9.05232203093705"><ele>294.0</ele><time>2026-05-03T09:43:56Z</time></trkpt><trkpt lat="40.77853036995008" lon="9.052198006913947"><ele>294.0</ele><time>2026-05-03T09:43:57Z</time></trkpt><trkpt lat="40.778646448616094" lon="9.052109602975085"><ele>295.3333333333333</ele><time>2026-05-03T09:43:58Z</time></trkpt><trkpt lat="40.778791966310756" lon="9.052051329890899"><ele>296.66666666666663</ele><time>2026-05-03T09:43:59Z</time></trkpt><trkpt lat="40.77895648841204" lon="9.0520228739434"><ele>298.0</ele><time>2026-05-03T09:44:00Z</time></trkpt><trkpt lat="40.77913287155394" lon="9.051996337415842"><ele>298.0</ele><time>2026-05-03T09:44:01Z</time></trkpt><trkpt lat="40.779309906243874" lon="9.051936140342903"><ele>298.0</ele><time>2026-05-03T09:44:02Z</time></trkpt><trkpt lat="40.77947560337661" lon="9.051827535835974"><ele>298.0</ele><time>2026-05-03T09:44:03Z</time></trkpt><trkpt lat="40.779613675338936" lon="9.051681036475713"><ele>296.0</ele><time>2026-05-03T09:44:04Z</time></trkpt><trkpt lat="40.77973418893599" lon="9.05154498084885"><ele>294.0</ele><time>2026-05-03T09:44:05Z</time></trkpt><trkpt lat="40.77988453288622" lon="9.051473761470909"><ele>292.0</ele><time>2026-05-03T09:44:06Z</time></trkpt><trkpt lat="40.780041678555264" lon="9.051501694941889"><ele>296.66666666666663</ele><time>2026-05-03T09:44:07Z</time></trkpt><trkpt lat="40.78019859029505" lon="9.051567220398876"><ele>301.3333333333333</ele><time>2026-05-03T09:44:08Z</time></trkpt><trkpt lat="40.780368412683806" lon="9.051636676371869"><ele>306.0</ele><time>2026-05-03T09:44:09Z</time></trkpt><trkpt lat="40.780535732035055" lon="9.051727131540872"><ele>306.3333333333333</ele><time>2026-05-03T09:44:10Z</time></trkpt><trkpt lat="40.78071124271284" lon="9.051819020761753"><ele>306.66666666666663</ele><time>2026-05-03T09:44:11Z</time></trkpt><trkpt lat="40.780880109428765" lon="9.051871191945482"><ele>307.0</ele><time>2026-05-03T09:44:12Z</time></trkpt><trkpt lat="40.78105716199871" lon="9.051917122086564"><ele>309.66666666666663</ele><time>2026-05-03T09:44:13Z</time></trkpt><trkpt lat="40.781228659177984" lon="9.051953635577878"><ele>312.3333333333333</ele><time>2026-05-03T09:44:14Z</time></trkpt><trkpt lat="40.78139853261005" lon="9.05197468824532"><ele>315.0</ele><time>2026-05-03T09:44:15Z</time></trkpt><trkpt lat="40.78156483678273" lon="9.051957656739383"><ele>315.0</ele><time>2026-05-03T09:44:16Z</time></trkpt><trkpt lat="40.781721894120786" lon="9.051907563686683"><ele>315.0</ele><time>2026-05-03T09:44:17Z</time></trkpt><trkpt lat="40.78188052724166" lon="9.051837251167054"><ele>315.0</ele><time>2026-05-03T09:44:18Z</time></trkpt><trkpt lat="40.78201375749971" lon="9.051726022594618"><ele>317.75</ele><time>2026-05-03T09:44:19Z</time></trkpt><trkpt lat="40.78213115611999" lon="9.05162699014247"><ele>320.5</ele><time>2026-05-03T09:44:20Z</time></trkpt><trkpt lat="40.782251703913374" lon="9.051609103266344"><ele>323.25</ele><time>2026-05-03T09:44:21Z</time></trkpt><trkpt lat="40.78235973758124" lon="9.051676876945947"><ele>326.0</ele><time>2026-05-03T09:44:22Z</time></trkpt><trkpt lat="40.782419753866485" lon="9.051829146485224"><ele>326.0</ele><time>2026-05-03T09:44:23Z</time></trkpt><trkpt lat="40.78246719615816" lon="9.052007250240791"><ele>326.0</ele><time>2026-05-03T09:44:24Z</time></trkpt><trkpt lat="40.78252292173004" lon="9.052227403915142"><ele>326.0</ele><time>2026-05-03T09:44:25Z</time></trkpt><trkpt lat="40.78258217820503" lon="9.05241581717109"><ele>328.4</ele><time>2026-05-03T09:44:26Z</time></trkpt><trkpt lat="40.78262046445342" lon="9.052559225243673"><ele>330.8</ele><time>2026-05-03T09:44:27Z</time></trkpt><trkpt lat="40.782693428719526" lon="9.052621380553813"><ele>333.2</ele><time>2026-05-03T09:44:28Z</time></trkpt><trkpt lat="40.782780818679335" lon="9.052611454162873"><ele>335.59999999999997</ele><time>2026-05-03T09:44:29Z</time></trkpt><trkpt lat="40.78286729024131" lon="9.052523257093545"><ele>338.0</ele><time>2026-05-03T09:44:30Z</time></trkpt><trkpt lat="40.782877982178924" lon="9.05237390261861"><ele>341.5</ele><time>2026-05-03T09:44:31Z</time></trkpt><trkpt lat="40.782855517501645" lon="9.052212275553602"><ele>345.0</ele><time>2026-05-03T09:44:32Z</time></trkpt><trkpt lat="40.7828592570456" lon="9.052001895485425"><ele>348.5</ele><time>2026-05-03T09:44:33Z</time></trkpt><trkpt lat="40.782891590895346" lon="9.05179595055025"><ele>352.0</ele><time>2026-05-03T09:44:34Z</time></trkpt><trkpt lat="40.78292897186945" lon="9.051597888751335"><ele>352.25</ele><time>2026-05-03T09:44:35Z</time></trkpt><trkpt lat="40.78290163292095" lon="9.051409563940695"><ele>352.5</ele><time>2026-05-03T09:44:36Z</time></trkpt><trkpt lat="40.78285052334391" lon="9.051225178857818"><ele>352.75</ele><time>2026-05-03T09:44:37Z</time></trkpt><trkpt lat="40.782820553570666" lon="9.051026840892156"><ele>353.0</ele><time>2026-05-03T09:44:38Z</time></trkpt><trkpt lat="40.78283331735189" lon="9.050817676416127"><ele>351.0</ele><time>2026-05-03T09:44:39Z</time></trkpt><trkpt lat="40.78285929586757" lon="9.050598853431351"><ele>349.0</ele><time>2026-05-03T09:44:40Z</time></trkpt><trkpt lat="40.78289164302912" lon="9.050384405481475"><ele>347.0</ele><time>2026-05-03T09:44:41Z</time></trkpt><trkpt lat="40.78291807572258" lon="9.050188012845446"><ele>347.0</ele><time>2026-05-03T09:44:42Z</time></trkpt><trkpt lat="40.78294738185488" lon="9.050023107021303"><ele>347.0</ele><time>2026-05-03T09:44:43Z</time></trkpt><trkpt lat="40.78300168326826" lon="9.049879737323671"><ele>347.0</ele><time>2026-05-03T09:44:44Z</time></trkpt><trkpt lat="40.78310997069357" lon="9.04976281943341"><ele>347.0</ele><time>2026-05-03T09:44:45Z</time></trkpt><trkpt lat="40.783248339047546" lon="9.049688338531213"><ele>342.6666666666667</ele><time>2026-05-03T09:44:46Z</time></trkpt><trkpt lat="40.783402475866566" lon="9.049659579685535"><ele>338.3333333333333</ele><time>2026-05-03T09:44:47Z</time></trkpt><trkpt lat="40.78356012215224" lon="9.049680267327572"><ele>334.0</ele><time>2026-05-03T09:44:48Z</time></trkpt><trkpt lat="40.78372380343332" lon="9.049724736127127"><ele>331.66666666666663</ele><time>2026-05-03T09:44:49Z</time></trkpt><trkpt lat="40.783899072685564" lon="9.04976390466338"><ele>329.3333333333333</ele><time>2026-05-03T09:44:50Z</time></trkpt><trkpt lat="40.784081780731626" lon="9.049804005239732"><ele>327.0</ele><time>2026-05-03T09:44:51Z</time></trkpt><trkpt lat="40.784274105520375" lon="9.049830426123487"><ele>331.0</ele><time>2026-05-03T09:44:52Z</time></trkpt><trkpt lat="40.78448175162271" lon="9.049811489263655"><ele>335.0</ele><time>2026-05-03T09:44:53Z</time></trkpt><trkpt lat="40.78467447133766" lon="9.04975145350806"><ele>339.0</ele><time>2026-05-03T09:44:54Z</time></trkpt><trkpt lat="40.784839832067895" lon="9.049664885832364"><ele>339.0</ele><time>2026-05-03T09:44:55Z</time></trkpt><trkpt lat="40.78497560513115" lon="9.049537356774419"><ele>339.0</ele><time>2026-05-03T09:44:56Z</time></trkpt><trkpt lat="40.78507208934872" lon="9.049370636127861"><ele>339.0</ele><time>2026-05-03T09:44:57Z</time></trkpt><trkpt lat="40.78513659260199" lon="9.049160124520688"><ele>338.75</ele><time>2026-05-03T09:44:58Z</time></trkpt><trkpt lat="40.78519307501889" lon="9.048961002804441"><ele>338.5</ele><time>2026-05-03T09:44:59Z</time></trkpt><trkpt lat="40.78530008529222" lon="9.048839491051439"><ele>338.25</ele><time>2026-05-03T09:45:00Z</time></trkpt><trkpt lat="40.785433682407" lon="9.048775809145774"><ele>338.0</ele><time>2026-05-03T09:45:01Z</time></trkpt><trkpt lat="40.785555473370806" lon="9.048717342063302"><ele>338.0</ele><time>2026-05-03T09:45:02Z</time></trkpt><trkpt lat="40.7856694367824" lon="9.048740775457055"><ele>338.0</ele><time>2026-05-03T09:45:03Z</time></trkpt><trkpt lat="40.785758009701595" lon="9.048871416001019"><ele>338.0</ele><time>2026-05-03T09:45:04Z</time></trkpt><trkpt lat="40.785827476039" lon="9.049019648995458"><ele>338.0</ele><time>2026-05-03T09:45:05Z</time></trkpt><trkpt lat="40.78586371072706" lon="9.049210822451961"><ele>341.33333333333337</ele><time>2026-05-03T09:45:06Z</time></trkpt><trkpt lat="40.78588326684899" lon="9.049441174716952"><ele>344.6666666666667</ele><time>2026-05-03T09:45:07Z</time></trkpt><trkpt lat="40.78593600890293" lon="9.04963524110002"><ele>348.0</ele><time>2026-05-03T09:45:08Z</time></trkpt><trkpt lat="40.78601635856162" lon="9.049773185592352"><ele>345.6666666666667</ele><time>2026-05-03T09:45:09Z</time></trkpt><trkpt lat="40.786158672205566" lon="9.049893801364346"><ele>343.33333333333337</ele><time>2026-05-03T09:45:10Z</time></trkpt><trkpt lat="40.78631301917014" lon="9.050008235980629"><ele>341.0</ele><time>2026-05-03T09:45:11Z</time></trkpt><trkpt lat="40.78641346708588" lon="9.050181291539948"><ele>341.0</ele><time>2026-05-03T09:45:12Z</time></trkpt><trkpt lat="40.786482407941314" lon="9.050378443697113"><ele>341.0</ele><time>2026-05-03T09:45:13Z</time></trkpt><trkpt lat="40.78653376720918" lon="9.050602622207046"><ele>341.0</ele><time>2026-05-03T09:45:14Z</time></trkpt><trkpt lat="40.786604410656125" lon="9.050781814910502"><ele>345.33333333333337</ele><time>2026-05-03T09:45:15Z</time></trkpt><trkpt lat="40.78669191619694" lon="9.050932051346047"><ele>349.6666666666667</ele><time>2026-05-03T09:45:16Z</time></trkpt><trkpt lat="40.786821697941704" lon="9.051036402790258"><ele>354.0</ele><time>2026-05-03T09:45:17Z</time></trkpt><trkpt lat="40.78697763533342" lon="9.051069351489613"><ele>354.0</ele><time>2026-05-03T09:45:18Z</time></trkpt><trkpt lat="40.78715349011829" lon="9.051049812856412"><ele>354.0</ele><time>2026-05-03T09:45:19Z</time></trkpt><trkpt lat="40.78731208907015" lon="9.051027645437161"><ele>354.0</ele><time>2026-05-03T09:45:20Z</time></trkpt><trkpt lat="40.78743823106421" lon="9.05103465932921"><ele>354.0</ele><time>2026-05-03T09:45:21Z</time></trkpt><trkpt lat="40.78752333442665" lon="9.051143579309139"><ele>354.0</ele><time>2026-05-03T09:45:22Z</time></trkpt><trkpt lat="40.78759437146999" lon="9.051285269203484"><ele>354.0</ele><time>2026-05-03T09:45:23Z</time></trkpt><trkpt lat="40.7876731333841" lon="9.051465455311476"><ele>354.0</ele><time>2026-05-03T09:45:24Z</time></trkpt><trkpt lat="40.78773827681007" lon="9.051648749902423"><ele>353.75</ele><time>2026-05-03T09:45:25Z</time></trkpt><trkpt lat="40.78777823485273" lon="9.051839684993006"><ele>353.5</ele><time>2026-05-03T09:45:26Z</time></trkpt><trkpt lat="40.787843499077866" lon="9.052018105954907"><ele>353.25</ele><time>2026-05-03T09:45:27Z</time></trkpt><trkpt lat="40.78791471606641" lon="9.052187445981481"><ele>353.0</ele><time>2026-05-03T09:45:28Z</time></trkpt><trkpt lat="40.788028601625584" lon="9.052291500282783"><ele>353.0</ele><time>2026-05-03T09:45:29Z</time></trkpt><trkpt lat="40.78819390605815" lon="9.052368050462192"><ele>353.0</ele><time>2026-05-03T09:45:30Z</time></trkpt><trkpt lat="40.78834965557555" lon="9.052421609098175"><ele>353.0</ele><time>2026-05-03T09:45:31Z</time></trkpt><trkpt lat="40.7885120826855" lon="9.052429615323527"><ele>354.33333333333337</ele><time>2026-05-03T09:45:32Z</time></trkpt><trkpt lat="40.78868498875412" lon="9.052378904461378"><ele>355.6666666666667</ele><time>2026-05-03T09:45:33Z</time></trkpt><trkpt lat="40.788866461939676" lon="9.052352478252164"><ele>357.0</ele><time>2026-05-03T09:45:34Z</time></trkpt><trkpt lat="40.78904010342853" lon="9.052363276618165"><ele>357.0</ele><time>2026-05-03T09:45:35Z</time></trkpt><trkpt lat="40.7891922798323" lon="9.05237808066993"><ele>357.0</ele><time>2026-05-03T09:45:36Z</time></trkpt><trkpt lat="40.78933564992907" lon="9.052360741385545"><ele>357.0</ele><time>2026-05-03T09:45:37Z</time></trkpt><trkpt lat="40.78947428150736" lon="9.05227924461724"><ele>357.0</ele><time>2026-05-03T09:45:38Z</time></trkpt><trkpt lat="40.78959110447853" lon="9.052134796248458"><ele>359.5</ele><time>2026-05-03T09:45:39Z</time></trkpt><trkpt lat="40.789685708033325" lon="9.0519893555921"><ele>362.0</ele><time>2026-05-03T09:45:40Z</time></trkpt><trkpt lat="40.78978155172687" lon="9.051910477374273"><ele>364.5</ele><time>2026-05-03T09:45:41Z</time></trkpt><trkpt lat="40.78988769394694" lon="9.051944820537154"><ele>367.0</ele><time>2026-05-03T09:45:42Z</time></trkpt><trkpt lat="40.789981712915655" lon="9.052014229207785"><ele>367.0</ele><time>2026-05-03T09:45:43Z</time></trkpt><trkpt lat="40.79011559545736" lon="9.052104031981962"><ele>367.0</ele><time>2026-05-03T09:45:44Z</time></trkpt><trkpt lat="40.79023701885798" lon="9.052206350628426"><ele>367.0</ele><time>2026-05-03T09:45:45Z</time></trkpt><trkpt lat="40.79034264722868" lon="9.052328808316325"><ele>367.0</ele><time>2026-05-03T09:45:46Z</time></trkpt><trkpt lat="40.79042980967738" lon="9.05249220890872"><ele>366.0</ele><time>2026-05-03T09:45:47Z</time></trkpt><trkpt lat="40.79050642133377" lon="9.052691116558394"><ele>365.0</ele><time>2026-05-03T09:45:48Z</time></trkpt><trkpt lat="40.79056876946421" lon="9.052916608223555"><ele>364.0</ele><time>2026-05-03T09:45:49Z</time></trkpt><trkpt lat="40.790617217578905" lon="9.053151415093659"><ele>368.0</ele><time>2026-05-03T09:45:50Z</time></trkpt><trkpt lat="40.79066056266867" lon="9.053383252504156"><ele>372.0</ele><time>2026-05-03T09:45:51Z</time></trkpt><trkpt lat="40.790705786159585" lon="9.053607952072278"><ele>376.0</ele><time>2026-05-03T09:45:52Z</time></trkpt><trkpt lat="40.7907325083264" lon="9.05381575568712"><ele>376.0</ele><time>2026-05-03T09:45:53Z</time></trkpt><trkpt lat="40.79075919234854" lon="9.054001201162885"><ele>376.0</ele><time>2026-05-03T09:45:54Z</time></trkpt><trkpt lat="40.79075426074503" lon="9.054173081706425"><ele>376.0</ele><time>2026-05-03T09:45:55Z</time></trkpt><trkpt lat="40.79070788489888" lon="9.054348633187775"><ele>376.0</ele><time>2026-05-03T09:45:56Z</time></trkpt><trkpt lat="40.79064090641631" lon="9.054535008277158"><ele>375.3333333333333</ele><time>2026-05-03T09:45:57Z</time></trkpt><trkpt lat="40.79052929237189" lon="9.054678409601532"><ele>374.6666666666667</ele><time>2026-05-03T09:45:58Z</time></trkpt><trkpt lat="40.79040719818971" lon="9.054852059555424"><ele>374.0</ele><time>2026-05-03T09:45:59Z</time></trkpt><trkpt lat="40.790329040966036" lon="9.055057167726938"><ele>374.0</ele><time>2026-05-03T09:46:00Z</time></trkpt><trkpt lat="40.79023435283645" lon="9.05526808523851"><ele>374.0</ele><time>2026-05-03T09:46:01Z</time></trkpt><trkpt lat="40.790142943482316" lon="9.055455692978684"><ele>374.0</ele><time>2026-05-03T09:46:02Z</time></trkpt><trkpt lat="40.790039584831" lon="9.055606875966683"><ele>380.79999999999995</ele><time>2026-05-03T09:46:03Z</time></trkpt><trkpt lat="40.78995388885712" lon="9.055730182921343"><ele>387.59999999999997</ele><time>2026-05-03T09:46:04Z</time></trkpt><trkpt lat="40.789917583308466" lon="9.055871452692164"><ele>394.4</ele><time>2026-05-03T09:46:05Z</time></trkpt><trkpt lat="40.789918402887814" lon="9.055990888355135"><ele>401.2</ele><time>2026-05-03T09:46:06Z</time></trkpt><trkpt lat="40.78997577716239" lon="9.056113414122969"><ele>408.0</ele><time>2026-05-03T09:46:07Z</time></trkpt><trkpt lat="40.790104584428185" lon="9.056224591280616"><ele>398.3333333333333</ele><time>2026-05-03T09:46:08Z</time></trkpt><trkpt lat="40.79025742395703" lon="9.056316443984663"><ele>388.66666666666663</ele><time>2026-05-03T09:46:09Z</time></trkpt><trkpt lat="40.79042811180932" lon="9.056405810581424"><ele>379.0</ele><time>2026-05-03T09:46:10Z</time></trkpt><trkpt lat="40.79060838065642" lon="9.056477158912198"><ele>379.0</ele><time>2026-05-03T09:46:11Z</time></trkpt><trkpt lat="40.79076639784315" lon="9.056549270408501"><ele>379.0</ele><time>2026-05-03T09:46:12Z</time></trkpt><trkpt lat="40.7909186691252" lon="9.056663049611375"><ele>379.0</ele><time>2026-05-03T09:46:13Z</time></trkpt><trkpt lat="40.79103712706007" lon="9.056792077034265"><ele>385.5</ele><time>2026-05-03T09:46:14Z</time></trkpt><trkpt lat="40.79114400091568" lon="9.056903534721314"><ele>392.0</ele><time>2026-05-03T09:46:15Z</time></trkpt><trkpt lat="40.79124956867482" lon="9.056954682625314"><ele>398.5</ele><time>2026-05-03T09:46:16Z</time></trkpt><trkpt lat="40.79135362642851" lon="9.056931851427297"><ele>405.0</ele><time>2026-05-03T09:46:17Z</time></trkpt><trkpt lat="40.791455872347136" lon="9.056833679708701"><ele>405.0</ele><time>2026-05-03T09:46:18Z</time></trkpt><trkpt lat="40.791540765056354" lon="9.056678904335607"><ele>405.0</ele><time>2026-05-03T09:46:19Z</time></trkpt><trkpt lat="40.7916188550832" lon="9.056504878763754"><ele>405.0</ele><time>2026-05-03T09:46:20Z</time></trkpt><trkpt lat="40.79170589502443" lon="9.056357582201862"><ele>405.0</ele><time>2026-05-03T09:46:21Z</time></trkpt><trkpt lat="40.79183919262803" lon="9.056261003722135"><ele>399.66666666666663</ele><time>2026-05-03T09:46:22Z</time></trkpt><trkpt lat="40.7919806374764" lon="9.05622718843686"><ele>394.3333333333333</ele><time>2026-05-03T09:46:23Z</time></trkpt><trkpt lat="40.79214887031696" lon="9.056228956976966"><ele>389.0</ele><time>2026-05-03T09:46:24Z</time></trkpt><trkpt lat="40.79231544886217" lon="9.056229348532623"><ele>389.0</ele><time>2026-05-03T09:46:25Z</time></trkpt><trkpt lat="40.792463634837674" lon="9.056227768006707"><ele>389.0</ele><time>2026-05-03T09:46:26Z</time></trkpt><trkpt lat="40.79260642784849" lon="9.05623106224216"><ele>389.0</ele><time>2026-05-03T09:46:27Z</time></trkpt><trkpt lat="40.79275297613664" lon="9.05626056085657"><ele>389.0</ele><time>2026-05-03T09:46:28Z</time></trkpt><trkpt lat="40.792881241773415" lon="9.056344118679432"><ele>390.25</ele><time>2026-05-03T09:46:29Z</time></trkpt><trkpt lat="40.79297592426692" lon="9.05647520465346"><ele>391.5</ele><time>2026-05-03T09:46:30Z</time></trkpt><trkpt lat="40.793027482338424" lon="9.056658739179348"><ele>392.75</ele><time>2026-05-03T09:46:31Z</time></trkpt><trkpt lat="40.79307771781752" lon="9.056862225094202"><ele>394.0</ele><time>2026-05-03T09:46:32Z</time></trkpt><trkpt lat="40.79312868318755" lon="9.057086770930049"><ele>394.0</ele><time>2026-05-03T09:46:33Z</time></trkpt><trkpt lat="40.79319097579534" lon="9.057315452014793"><ele>394.0</ele><time>2026-05-03T09:46:34Z</time></trkpt><trkpt lat="40.79328514917442" lon="9.057529777872796"><ele>394.0</ele><time>2026-05-03T09:46:35Z</time></trkpt><trkpt lat="40.79338870672184" lon="9.057727748066645"><ele>389.6666666666667</ele><time>2026-05-03T09:46:36Z</time></trkpt><trkpt lat="40.79351758990308" lon="9.05790977506011"><ele>385.33333333333337</ele><time>2026-05-03T09:46:37Z</time></trkpt><trkpt lat="40.7936661018562" lon="9.05807689384839"><ele>381.0</ele><time>2026-05-03T09:46:38Z</time></trkpt><trkpt lat="40.793814385459456" lon="9.05826152950068"><ele>387.33333333333337</ele><time>2026-05-03T09:46:39Z</time></trkpt><trkpt lat="40.793967906145696" lon="9.058431989590572"><ele>393.6666666666667</ele><time>2026-05-03T09:46:40Z</time></trkpt><trkpt lat="40.79412053331828" lon="9.058600309877516"><ele>400.0</ele><time>2026-05-03T09:46:41Z</time></trkpt><trkpt lat="40.794274545796796" lon="9.058748220851227"><ele>402.33333333333337</ele><time>2026-05-03T09:46:42Z</time></trkpt><trkpt lat="40.79441173217082" lon="9.05889483287972"><ele>404.66666666666663</ele><time>2026-05-03T09:46:43Z</time></trkpt><trkpt lat="40.794554902514065" lon="9.059032968016531"><ele>407.0</ele><time>2026-05-03T09:46:44Z</time></trkpt><trkpt lat="40.79470758312817" lon="9.059147622634255"><ele>407.0</ele><time>2026-05-03T09:46:45Z</time></trkpt><trkpt lat="40.79488243980276" lon="9.059229141393848"><ele>407.0</ele><time>2026-05-03T09:46:46Z</time></trkpt><trkpt lat="40.79506944563967" lon="9.059293796359757"><ele>407.0</ele><time>2026-05-03T09:46:47Z</time></trkpt><trkpt lat="40.79524158658267" lon="9.059362694961127"><ele>403.3333333333333</ele><time>2026-05-03T09:46:48Z</time></trkpt><trkpt lat="40.7953985936434" lon="9.059424875506238"><ele>399.66666666666663</ele><time>2026-05-03T09:46:49Z</time></trkpt><trkpt lat="40.79554010940535" lon="9.059486383295962"><ele>396.0</ele><time>2026-05-03T09:46:50Z</time></trkpt><trkpt lat="40.79567885024795" lon="9.059547662745446"><ele>396.0</ele><time>2026-05-03T09:46:51Z</time></trkpt><trkpt lat="40.79583430811751" lon="9.0596155121394"><ele>396.0</ele><time>2026-05-03T09:46:52Z</time></trkpt><trkpt lat="40.795991754812924" lon="9.05972175769555"><ele>396.0</ele><time>2026-05-03T09:46:53Z</time></trkpt><trkpt lat="40.79614656458206" lon="9.059878027281188"><ele>398.0</ele><time>2026-05-03T09:46:54Z</time></trkpt><trkpt lat="40.796291703255974" lon="9.060067564255204"><ele>400.0</ele><time>2026-05-03T09:46:55Z</time></trkpt><trkpt lat="40.79642101674879" lon="9.060299304399999"><ele>402.0</ele><time>2026-05-03T09:46:56Z</time></trkpt><trkpt lat="40.79654342118274" lon="9.06053013631166"><ele>402.0</ele><time>2026-05-03T09:46:57Z</time></trkpt><trkpt lat="40.796658317567896" lon="9.060740916564702"><ele>402.0</ele><time>2026-05-03T09:46:58Z</time></trkpt><trkpt lat="40.796787464457786" lon="9.06097665668909"><ele>402.0</ele><time>2026-05-03T09:46:59Z</time></trkpt><trkpt lat="40.79691390406417" lon="9.06121910965057"><ele>403.66666666666663</ele><time>2026-05-03T09:47:00Z</time></trkpt><trkpt lat="40.79704035631344" lon="9.061452532736219"><ele>405.3333333333333</ele><time>2026-05-03T09:47:01Z</time></trkpt><trkpt lat="40.79716202902729" lon="9.061673963961608"><ele>407.0</ele><time>2026-05-03T09:47:02Z</time></trkpt><trkpt lat="40.79725981144453" lon="9.061863853030315"><ele>407.0</ele><time>2026-05-03T09:47:03Z</time></trkpt><trkpt lat="40.79732602375414" lon="9.062035525525971"><ele>407.0</ele><time>2026-05-03T09:47:04Z</time></trkpt><trkpt lat="40.79731495888003" lon="9.062224507393413"><ele>407.0</ele><time>2026-05-03T09:47:05Z</time></trkpt><trkpt lat="40.797323951326845" lon="9.062401923389755"><ele>407.0</ele><time>2026-05-03T09:47:06Z</time></trkpt><trkpt lat="40.797396622471055" lon="9.06253899765114"><ele>404.3333333333333</ele><time>2026-05-03T09:47:07Z</time></trkpt><trkpt lat="40.79749353938139" lon="9.062666438291453"><ele>401.66666666666663</ele><time>2026-05-03T09:47:08Z</time></trkpt><trkpt lat="40.797614185854265" lon="9.062805029486203"><ele>399.0</ele><time>2026-05-03T09:47:09Z</time></trkpt><trkpt lat="40.79775391807287" lon="9.062954755091267"><ele>399.0</ele><time>2026-05-03T09:47:10Z</time></trkpt><trkpt lat="40.79788815584843" lon="9.06313288702941"><ele>399.0</ele><time>2026-05-03T09:47:11Z</time></trkpt><trkpt lat="40.7980253363152" lon="9.063315521434369"><ele>399.0</ele><time>2026-05-03T09:47:12Z</time></trkpt><trkpt lat="40.798167491898774" lon="9.063491748688946"><ele>403.66666666666663</ele><time>2026-05-03T09:47:13Z</time></trkpt><trkpt lat="40.79829405842183" lon="9.063652858429734"><ele>408.3333333333333</ele><time>2026-05-03T09:47:14Z</time></trkpt><trkpt lat="40.798415208639916" lon="9.063790148234567"><ele>413.0</ele><time>2026-05-03T09:47:15Z</time></trkpt><trkpt lat="40.798546552959365" lon="9.063888716390336"><ele>413.0</ele><time>2026-05-03T09:47:16Z</time></trkpt><trkpt lat="40.79871086484914" lon="9.063932949519055"><ele>413.0</ele><time>2026-05-03T09:47:17Z</time></trkpt><trkpt lat="40.79889639184816" lon="9.063942749114078"><ele>413.0</ele><time>2026-05-03T09:47:18Z</time></trkpt><trkpt lat="40.79907686261524" lon="9.0639457352678"><ele>413.0</ele><time>2026-05-03T09:47:19Z</time></trkpt><trkpt lat="40.79921756966438" lon="9.064003427714006"><ele>413.0</ele><time>2026-05-03T09:47:20Z</time></trkpt><trkpt lat="40.79939344879625" lon="9.063963619096398"><ele>413.0</ele><time>2026-05-03T09:47:21Z</time></trkpt><trkpt lat="40.79954356898975" lon="9.063878599280141"><ele>412.75</ele><time>2026-05-03T09:47:22Z</time></trkpt><trkpt lat="40.79967649940768" lon="9.063786535109113"><ele>412.5</ele><time>2026-05-03T09:47:23Z</time></trkpt><trkpt lat="40.79979923948249" lon="9.06379891967077"><ele>412.25</ele><time>2026-05-03T09:47:24Z</time></trkpt><trkpt lat="40.799883248314416" lon="9.063868987848325"><ele>412.0</ele><time>2026-05-03T09:47:25Z</time></trkpt><trkpt lat="40.799993356202606" lon="9.063972998066074"><ele>412.0</ele><time>2026-05-03T09:47:26Z</time></trkpt><trkpt lat="40.80011725822875" lon="9.064090418803753"><ele>412.0</ele><time>2026-05-03T09:47:27Z</time></trkpt><trkpt lat="40.800279118886046" lon="9.064243812596594"><ele>412.0</ele><time>2026-05-03T09:47:28Z</time></trkpt><trkpt lat="40.80042841588637" lon="9.064383821172294"><ele>410.75</ele><time>2026-05-03T09:47:29Z</time></trkpt><trkpt lat="40.80053819600644" lon="9.064533301735661"><ele>409.5</ele><time>2026-05-03T09:47:30Z</time></trkpt><trkpt lat="40.80058215217186" lon="9.06469427637926"><ele>408.25</ele><time>2026-05-03T09:47:31Z</time></trkpt><trkpt lat="40.80060739076689" lon="9.064905213637848"><ele>407.0</ele><time>2026-05-03T09:47:32Z</time></trkpt><trkpt lat="40.800686771165545" lon="9.065120264231906"><ele>412.3333333333333</ele><time>2026-05-03T09:47:33Z</time></trkpt><trkpt lat="40.80076738862719" lon="9.065331784045018"><ele>417.66666666666663</ele><time>2026-05-03T09:47:34Z</time></trkpt><trkpt lat="40.80081239548666" lon="9.065523143204697"><ele>423.0</ele><time>2026-05-03T09:47:35Z</time></trkpt><trkpt lat="40.80080559138696" lon="9.06571070930552"><ele>426.25</ele><time>2026-05-03T09:47:36Z</time></trkpt><trkpt lat="40.80078782339618" lon="9.065921769942038"><ele>429.5</ele><time>2026-05-03T09:47:37Z</time></trkpt><trkpt lat="40.80077368876764" lon="9.06611921457134"><ele>432.75</ele><time>2026-05-03T09:47:38Z</time></trkpt><trkpt lat="40.80078026655497" lon="9.066287835965056"><ele>436.0</ele><time>2026-05-03T09:47:39Z</time></trkpt><trkpt lat="40.80082315116276" lon="9.066411486351594"><ele>436.0</ele><time>2026-05-03T09:47:40Z</time></trkpt><trkpt lat="40.800919302645134" lon="9.066479506232627"><ele>436.0</ele><time>2026-05-03T09:47:41Z</time></trkpt><trkpt lat="40.801007196655775" lon="9.0664767777448"><ele>436.0</ele><time>2026-05-03T09:47:42Z</time></trkpt><trkpt lat="40.80109736617789" lon="9.066344129300658"><ele>436.0</ele><time>2026-05-03T09:47:43Z</time></trkpt><trkpt lat="40.801187441115225" lon="9.066220474693486"><ele>435.6666666666667</ele><time>2026-05-03T09:47:44Z</time></trkpt><trkpt lat="40.80131278095404" lon="9.066042440637727"><ele>435.33333333333337</ele><time>2026-05-03T09:47:45Z</time></trkpt><trkpt lat="40.80142444276187" lon="9.065856829670782"><ele>435.0</ele><time>2026-05-03T09:47:46Z</time></trkpt><trkpt lat="40.801520840325296" lon="9.065707572502953"><ele>432.6</ele><time>2026-05-03T09:47:47Z</time></trkpt><trkpt lat="40.80160101864232" lon="9.065596583368286"><ele>430.2</ele><time>2026-05-03T09:47:48Z</time></trkpt><trkpt lat="40.80169013897168" lon="9.065546254367328"><ele>427.79999999999995</ele><time>2026-05-03T09:47:49Z</time></trkpt><trkpt lat="40.80178742932453" lon="9.065608836045488"><ele>425.4</ele><time>2026-05-03T09:47:50Z</time></trkpt><trkpt lat="40.80188816524999" lon="9.065702978054524"><ele>423.0</ele><time>2026-05-03T09:47:51Z</time></trkpt><trkpt lat="40.80202050980181" lon="9.065832974508995"><ele>423.0</ele><time>2026-05-03T09:47:52Z</time></trkpt><trkpt lat="40.802176788601194" lon="9.065997745889614"><ele>423.0</ele><time>2026-05-03T09:47:53Z</time></trkpt><trkpt lat="40.80233959050577" lon="9.06616152282304"><ele>423.0</ele><time>2026-05-03T09:47:54Z</time></trkpt><trkpt lat="40.80248538411751" lon="9.066312492518318"><ele>423.0</ele><time>2026-05-03T09:47:55Z</time></trkpt><trkpt lat="40.802599292332026" lon="9.066454538173215"><ele>423.0</ele><time>2026-05-03T09:47:56Z</time></trkpt><trkpt lat="40.80267532944734" lon="9.0666166432956"><ele>423.0</ele><time>2026-05-03T09:47:57Z</time></trkpt><trkpt lat="40.80269932722398" lon="9.066783320003132"><ele>423.0</ele><time>2026-05-03T09:47:58Z</time></trkpt><trkpt lat="40.802678194211865" lon="9.066929416747316"><ele>429.0</ele><time>2026-05-03T09:47:59Z</time></trkpt><trkpt lat="40.80261996244046" lon="9.067085625060257"><ele>435.0</ele><time>2026-05-03T09:48:00Z</time></trkpt><trkpt lat="40.80254169896017" lon="9.067297954088337"><ele>441.0</ele><time>2026-05-03T09:48:01Z</time></trkpt><trkpt lat="40.802493037189656" lon="9.06756174125083"><ele>442.33333333333337</ele><time>2026-05-03T09:48:02Z</time></trkpt><trkpt lat="40.802438215456775" lon="9.067797453722337"><ele>443.6666666666667</ele><time>2026-05-03T09:48:03Z</time></trkpt><trkpt lat="40.8024195882813" lon="9.06801728440998"><ele>445.0</ele><time>2026-05-03T09:48:04Z</time></trkpt><trkpt lat="40.80246258535826" lon="9.06818897687484"><ele>445.5</ele><time>2026-05-03T09:48:05Z</time></trkpt><trkpt lat="40.802519918893516" lon="9.068299571496192"><ele>446.0</ele><time>2026-05-03T09:48:06Z</time></trkpt><trkpt lat="40.802630996374745" lon="9.068361800567898"><ele>446.5</ele><time>2026-05-03T09:48:07Z</time></trkpt><trkpt lat="40.80276968501329" lon="9.06835477463234"><ele>447.0</ele><time>2026-05-03T09:48:08Z</time></trkpt><trkpt lat="40.80288054994455" lon="9.068272309465268"><ele>442.5</ele><time>2026-05-03T09:48:09Z</time></trkpt><trkpt lat="40.80297867285293" lon="9.068132962882478"><ele>438.0</ele><time>2026-05-03T09:48:10Z</time></trkpt><trkpt lat="40.80310182412359" lon="9.068007050143752"><ele>433.5</ele><time>2026-05-03T09:48:11Z</time></trkpt><trkpt lat="40.80323474617804" lon="9.0679271516786"><ele>429.0</ele><time>2026-05-03T09:48:12Z</time></trkpt><trkpt lat="40.803357082820746" lon="9.06791964582715"><ele>429.0</ele><time>2026-05-03T09:48:13Z</time></trkpt><trkpt lat="40.8034752049608" lon="9.067980438919536"><ele>429.0</ele><time>2026-05-03T09:48:14Z</time></trkpt><trkpt lat="40.80357920144541" lon="9.06809020405348"><ele>429.0</ele><time>2026-05-03T09:48:15Z</time></trkpt><trkpt lat="40.80369936099701" lon="9.068282112643423"><ele>429.0</ele><time>2026-05-03T09:48:16Z</time></trkpt><trkpt lat="40.803843876165374" lon="9.068496301061275"><ele>431.66666666666663</ele><time>2026-05-03T09:48:17Z</time></trkpt><trkpt lat="40.80398997313742" lon="9.068739398894193"><ele>434.3333333333333</ele><time>2026-05-03T09:48:18Z</time></trkpt><trkpt lat="40.804148876147444" lon="9.068919609247844"><ele>437.0</ele><time>2026-05-03T09:48:19Z</time></trkpt><trkpt lat="40.80432319593984" lon="9.069063567941559"><ele>442.66666666666663</ele><time>2026-05-03T09:48:20Z</time></trkpt><trkpt lat="40.80449713516549" lon="9.0691499965944"><ele>448.33333333333337</ele><time>2026-05-03T09:48:21Z</time></trkpt><trkpt lat="40.804705831493685" lon="9.069186853453402"><ele>454.0</ele><time>2026-05-03T09:48:22Z</time></trkpt><trkpt lat="40.804912230849496" lon="9.069216600172897"><ele>454.0</ele><time>2026-05-03T09:48:23Z</time></trkpt><trkpt lat="40.80509684780188" lon="9.069254946522404"><ele>454.0</ele><time>2026-05-03T09:48:24Z</time></trkpt><trkpt lat="40.80526320724377" lon="9.069335375649198"><ele>454.0</ele><time>2026-05-03T09:48:25Z</time></trkpt><trkpt lat="40.8054254905981" lon="9.069434316914126"><ele>452.6666666666667</ele><time>2026-05-03T09:48:26Z</time></trkpt><trkpt lat="40.8055831885536" lon="9.069531521048807"><ele>451.33333333333337</ele><time>2026-05-03T09:48:27Z</time></trkpt><trkpt lat="40.80573436641827" lon="9.069626878292285"><ele>450.0</ele><time>2026-05-03T09:48:28Z</time></trkpt><trkpt lat="40.80587137350917" lon="9.069743859318583"><ele>453.0</ele><time>2026-05-03T09:48:29Z</time></trkpt><trkpt lat="40.806022126421766" lon="9.069847528168038"><ele>456.0</ele><time>2026-05-03T09:48:30Z</time></trkpt><trkpt lat="40.80617096105531" lon="9.069992659034975"><ele>459.0</ele><time>2026-05-03T09:48:31Z</time></trkpt><trkpt lat="40.806313547335435" lon="9.070161651039092"><ele>459.0</ele><time>2026-05-03T09:48:32Z</time></trkpt><trkpt lat="40.80644767312496" lon="9.070336891180228"><ele>459.0</ele><time>2026-05-03T09:48:33Z</time></trkpt><trkpt lat="40.80656927857645" lon="9.07050761977152"><ele>459.0</ele><time>2026-05-03T09:48:34Z</time></trkpt><trkpt lat="40.80666952243887" lon="9.070647344412482"><ele>459.0</ele><time>2026-05-03T09:48:35Z</time></trkpt><trkpt lat="40.806760221816994" lon="9.070738663006235"><ele>459.0</ele><time>2026-05-03T09:48:36Z</time></trkpt><trkpt lat="40.80687073843799" lon="9.070760103465958"><ele>459.0</ele><time>2026-05-03T09:48:37Z</time></trkpt><trkpt lat="40.806994322497346" lon="9.070709782950283"><ele>459.0</ele><time>2026-05-03T09:48:38Z</time></trkpt><trkpt lat="40.80712071174799" lon="9.070604657748202"><ele>462.25</ele><time>2026-05-03T09:48:39Z</time></trkpt><trkpt lat="40.807260615985406" lon="9.070490388458342"><ele>465.5</ele><time>2026-05-03T09:48:40Z</time></trkpt><trkpt lat="40.80739756870279" lon="9.070412028803473"><ele>468.75</ele><time>2026-05-03T09:48:41Z</time></trkpt><trkpt lat="40.807518475525214" lon="9.070374140949534"><ele>472.0</ele><time>2026-05-03T09:48:42Z</time></trkpt><trkpt lat="40.80763662664154" lon="9.07038650968562"><ele>469.75</ele><time>2026-05-03T09:48:43Z</time></trkpt><trkpt lat="40.80774791785051" lon="9.070472259525149"><ele>467.5</ele><time>2026-05-03T09:48:44Z</time></trkpt><trkpt lat="40.80783128871196" lon="9.070634799211286"><ele>465.25</ele><time>2026-05-03T09:48:45Z</time></trkpt><trkpt lat="40.80791211766299" lon="9.070814143358099"><ele>463.0</ele><time>2026-05-03T09:48:46Z</time></trkpt><trkpt lat="40.80799199866491" lon="9.071039336833998"><ele>462.0</ele><time>2026-05-03T09:48:47Z</time></trkpt><trkpt lat="40.80807352192942" lon="9.071292745967726"><ele>461.0</ele><time>2026-05-03T09:48:48Z</time></trkpt><trkpt lat="40.80817050473576" lon="9.071535726666667"><ele>460.0</ele><time>2026-05-03T09:48:49Z</time></trkpt><trkpt lat="40.80822959151908" lon="9.071748413968185"><ele>461.33333333333337</ele><time>2026-05-03T09:48:50Z</time></trkpt><trkpt lat="40.80833501937514" lon="9.07191366240712"><ele>462.66666666666663</ele><time>2026-05-03T09:48:51Z</time></trkpt><trkpt lat="40.80847980479382" lon="9.072020973039495"><ele>464.0</ele><time>2026-05-03T09:48:52Z</time></trkpt><trkpt lat="40.80865464568056" lon="9.072094225207575"><ele>464.0</ele><time>2026-05-03T09:48:53Z</time></trkpt><trkpt lat="40.808892860382045" lon="9.072130042749102"><ele>464.0</ele><time>2026-05-03T09:48:54Z</time></trkpt><trkpt lat="40.80911182219289" lon="9.072178215366282"><ele>464.0</ele><time>2026-05-03T09:48:55Z</time></trkpt><trkpt lat="40.809284373466916" lon="9.07224820646066"><ele>464.0</ele><time>2026-05-03T09:48:56Z</time></trkpt><trkpt lat="40.80943315963537" lon="9.072326669438404"><ele>464.0</ele><time>2026-05-03T09:48:57Z</time></trkpt><trkpt lat="40.809593740508525" lon="9.072339059413382"><ele>465.0</ele><time>2026-05-03T09:48:58Z</time></trkpt><trkpt lat="40.809585811265706" lon="9.072636654382507"><ele>466.0</ele><time>2026-05-03T09:48:59Z</time></trkpt><trkpt lat="40.809613196612176" lon="9.072838622436427"><ele>467.0</ele><time>2026-05-03T09:49:00Z</time></trkpt><trkpt lat="40.809679175519946" lon="9.073054932463156"><ele>470.0</ele><time>2026-05-03T09:49:01Z</time></trkpt><trkpt lat="40.80972527691127" lon="9.0732949624376"><ele>473.0</ele><time>2026-05-03T09:49:02Z</time></trkpt><trkpt lat="40.80973106143589" lon="9.073545934817192"><ele>476.0</ele><time>2026-05-03T09:49:03Z</time></trkpt><trkpt lat="40.809735048858926" lon="9.073746912175993"><ele>476.0</ele><time>2026-05-03T09:49:04Z</time></trkpt><trkpt lat="40.80974907540633" lon="9.073891867393852"><ele>476.0</ele><time>2026-05-03T09:49:05Z</time></trkpt><trkpt lat="40.80979095597767" lon="9.073982826932014"><ele>476.0</ele><time>2026-05-03T09:49:06Z</time></trkpt><trkpt lat="40.80990768716232" lon="9.074033354721596"><ele>476.0</ele><time>2026-05-03T09:49:07Z</time></trkpt><trkpt lat="40.81006054523816" lon="9.074046276494203"><ele>475.3333333333333</ele><time>2026-05-03T09:49:08Z</time></trkpt><trkpt lat="40.8102201127131" lon="9.07405605372383"><ele>474.66666666666663</ele><time>2026-05-03T09:49:09Z</time></trkpt><trkpt lat="40.8103820783168" lon="9.07410095345073"><ele>474.0</ele><time>2026-05-03T09:49:10Z</time></trkpt><trkpt lat="40.810521257763384" lon="9.074201488734055"><ele>474.0</ele><time>2026-05-03T09:49:11Z</time></trkpt><trkpt lat="40.810625483804515" lon="9.074342441407785"><ele>474.0</ele><time>2026-05-03T09:49:12Z</time></trkpt><trkpt lat="40.81074363093911" lon="9.074518427215876"><ele>474.0</ele><time>2026-05-03T09:49:13Z</time></trkpt><trkpt lat="40.81086929087204" lon="9.074732381379803"><ele>474.0</ele><time>2026-05-03T09:49:14Z</time></trkpt><trkpt lat="40.81097890246086" lon="9.074936338237935"><ele>474.0</ele><time>2026-05-03T09:49:15Z</time></trkpt><trkpt lat="40.811058496307645" lon="9.075150601340793"><ele>474.0</ele><time>2026-05-03T09:49:16Z</time></trkpt><trkpt lat="40.81111218995458" lon="9.075365658383335"><ele>473.0</ele><time>2026-05-03T09:49:17Z</time></trkpt><trkpt lat="40.811148834468376" lon="9.075554337158023"><ele>472.0</ele><time>2026-05-03T09:49:18Z</time></trkpt><trkpt lat="40.811206446645166" lon="9.075705487796762"><ele>471.0</ele><time>2026-05-03T09:49:19Z</time></trkpt><trkpt lat="40.8112993805223" lon="9.075789701503801"><ele>470.0</ele><time>2026-05-03T09:49:20Z</time></trkpt><trkpt lat="40.81142293898136" lon="9.075829542368064"><ele>470.5</ele><time>2026-05-03T09:49:21Z</time></trkpt><trkpt lat="40.81155942570117" lon="9.075857547798883"><ele>471.0</ele><time>2026-05-03T09:49:22Z</time></trkpt><trkpt lat="40.81169071747579" lon="9.075906118631657"><ele>471.5</ele><time>2026-05-03T09:49:23Z</time></trkpt><trkpt lat="40.81182489002298" lon="9.075982622766999"><ele>472.0</ele><time>2026-05-03T09:49:24Z</time></trkpt><trkpt lat="40.81193748474494" lon="9.076112239056446"><ele>472.0</ele><time>2026-05-03T09:49:25Z</time></trkpt><trkpt lat="40.812022249682464" lon="9.076258357413403"><ele>472.0</ele><time>2026-05-03T09:49:26Z</time></trkpt><trkpt lat="40.81206256402092" lon="9.076425798434487"><ele>472.0</ele><time>2026-05-03T09:49:27Z</time></trkpt><trkpt lat="40.81207828796474" lon="9.076621366092347"><ele>472.0</ele><time>2026-05-03T09:49:28Z</time></trkpt><trkpt lat="40.81208794034741" lon="9.076839626151123"><ele>475.6666666666667</ele><time>2026-05-03T09:49:29Z</time></trkpt><trkpt lat="40.81211419792799" lon="9.077073641292774"><ele>479.33333333333337</ele><time>2026-05-03T09:49:30Z</time></trkpt><trkpt lat="40.81214800803911" lon="9.077272890664505"><ele>483.0</ele><time>2026-05-03T09:49:31Z</time></trkpt><trkpt lat="40.81221234871123" lon="9.077419349179008"><ele>488.75</ele><time>2026-05-03T09:49:32Z</time></trkpt><trkpt lat="40.81228032447733" lon="9.077541988050124"><ele>494.5</ele><time>2026-05-03T09:49:33Z</time></trkpt><trkpt lat="40.81240670368957" lon="9.077614563072478"><ele>500.25</ele><time>2026-05-03T09:49:34Z</time></trkpt><trkpt lat="40.81252260954986" lon="9.07764159714164"><ele>506.0</ele><time>2026-05-03T09:49:35Z</time></trkpt><trkpt lat="40.81263162651311" lon="9.077592303818463"><ele>504.25</ele><time>2026-05-03T09:49:36Z</time></trkpt><trkpt lat="40.812739130642015" lon="9.077527322861085"><ele>502.5</ele><time>2026-05-03T09:49:37Z</time></trkpt><trkpt lat="40.81288290064419" lon="9.077493209794783"><ele>500.75</ele><time>2026-05-03T09:49:38Z</time></trkpt><trkpt lat="40.81303505443897" lon="9.077509738347448"><ele>499.0</ele><time>2026-05-03T09:49:39Z</time></trkpt><trkpt lat="40.81318139261412" lon="9.07752432070017"><ele>499.0</ele><time>2026-05-03T09:49:40Z</time></trkpt><trkpt lat="40.81331996996715" lon="9.077553169543826"><ele>499.0</ele><time>2026-05-03T09:49:41Z</time></trkpt><trkpt lat="40.81342670597117" lon="9.077617464934969"><ele>499.0</ele><time>2026-05-03T09:49:42Z</time></trkpt><trkpt lat="40.813514632514796" lon="9.077714384157712"><ele>499.0</ele><time>2026-05-03T09:49:43Z</time></trkpt><trkpt lat="40.8135345113713" lon="9.077902177529559"><ele>499.0</ele><time>2026-05-03T09:49:44Z</time></trkpt><trkpt lat="40.81359882949359" lon="9.078122153935789"><ele>499.0</ele><time>2026-05-03T09:49:45Z</time></trkpt><trkpt lat="40.81367713599471" lon="9.078264534775094"><ele>499.0</ele><time>2026-05-03T09:49:46Z</time></trkpt><trkpt lat="40.813764146984816" lon="9.07837722854485"><ele>499.0</ele><time>2026-05-03T09:49:47Z</time></trkpt><trkpt lat="40.813906637196986" lon="9.07842063649975"><ele>499.0</ele><time>2026-05-03T09:49:48Z</time></trkpt><trkpt lat="40.81402276583236" lon="9.078520702209191"><ele>499.0</ele><time>2026-05-03T09:49:49Z</time></trkpt><trkpt lat="40.814130646279914" lon="9.078599712121946"><ele>499.0</ele><time>2026-05-03T09:49:50Z</time></trkpt><trkpt lat="40.81430192923392" lon="9.078534123585273"><ele>499.0</ele><time>2026-05-03T09:49:51Z</time></trkpt><trkpt lat="40.81443382933672" lon="9.078582746071234"><ele>495.25</ele><time>2026-05-03T09:49:52Z</time></trkpt><trkpt lat="40.81456231432614" lon="9.07864320824475"><ele>491.5</ele><time>2026-05-03T09:49:53Z</time></trkpt><trkpt lat="40.81468149132815" lon="9.078737444844693"><ele>487.75</ele><time>2026-05-03T09:49:54Z</time></trkpt><trkpt lat="40.81476209488866" lon="9.07888464434774"><ele>484.0</ele><time>2026-05-03T09:49:55Z</time></trkpt><trkpt lat="40.81480686569062" lon="9.079049631507452"><ele>486.75</ele><time>2026-05-03T09:49:56Z</time></trkpt><trkpt lat="40.81482127440287" lon="9.079259536812696"><ele>489.5</ele><time>2026-05-03T09:49:57Z</time></trkpt><trkpt lat="40.814770754416685" lon="9.079426497809456"><ele>492.25</ele><time>2026-05-03T09:49:58Z</time></trkpt><trkpt lat="40.81470229221026" lon="9.079561574572287"><ele>495.0</ele><time>2026-05-03T09:49:59Z</time></trkpt><trkpt lat="40.814561287556856" lon="9.079682655038045"><ele>495.0</ele><time>2026-05-03T09:50:00Z</time></trkpt><trkpt lat="40.81440810593996" lon="9.079803984295578"><ele>495.0</ele><time>2026-05-03T09:50:01Z</time></trkpt><trkpt lat="40.81426780891184" lon="9.07993793483122"><ele>495.0</ele><time>2026-05-03T09:50:02Z</time></trkpt><trkpt lat="40.81414637951132" lon="9.080117969022217"><ele>504.0</ele><time>2026-05-03T09:50:03Z</time></trkpt><trkpt lat="40.81405729515437" lon="9.080315636708287"><ele>513.0</ele><time>2026-05-03T09:50:04Z</time></trkpt><trkpt lat="40.81403125989724" lon="9.080547514406325"><ele>522.0</ele><time>2026-05-03T09:50:05Z</time></trkpt><trkpt lat="40.81402597107755" lon="9.08075698038728"><ele>521.2</ele><time>2026-05-03T09:50:06Z</time></trkpt><trkpt lat="40.81403399003079" lon="9.080894961504933"><ele>520.4000000000001</ele><time>2026-05-03T09:50:07Z</time></trkpt><trkpt lat="40.81407460024208" lon="9.08099866486677"><ele>519.5999999999999</ele><time>2026-05-03T09:50:08Z</time></trkpt><trkpt lat="40.81415408023514" lon="9.081084131054753"><ele>518.8</ele><time>2026-05-03T09:50:09Z</time></trkpt><trkpt lat="40.8142812381348" lon="9.081110572420075"><ele>518.0</ele><time>2026-05-03T09:50:10Z</time></trkpt><trkpt lat="40.8144098846671" lon="9.081074268187546"><ele>516.25</ele><time>2026-05-03T09:50:11Z</time></trkpt><trkpt lat="40.814527564216924" lon="9.08099278175464"><ele>514.5</ele><time>2026-05-03T09:50:12Z</time></trkpt><trkpt lat="40.814624713260535" lon="9.081006766345931"><ele>512.75</ele><time>2026-05-03T09:50:13Z</time></trkpt><trkpt lat="40.81471833233696" lon="9.081082136348906"><ele>511.0</ele><time>2026-05-03T09:50:14Z</time></trkpt><trkpt lat="40.814805531937886" lon="9.081190634647772"><ele>511.0</ele><time>2026-05-03T09:50:15Z</time></trkpt><trkpt lat="40.814900259895396" lon="9.08128890344819"><ele>511.0</ele><time>2026-05-03T09:50:16Z</time></trkpt><trkpt lat="40.814995308428834" lon="9.081321389837974"><ele>511.0</ele><time>2026-05-03T09:50:17Z</time></trkpt><trkpt lat="40.815092720096665" lon="9.081245707696826"><ele>511.0</ele><time>2026-05-03T09:50:18Z</time></trkpt><trkpt lat="40.815155476810475" lon="9.081106266931812"><ele>508.5</ele><time>2026-05-03T09:50:19Z</time></trkpt><trkpt lat="40.815201897532646" lon="9.080920395076891"><ele>506.0</ele><time>2026-05-03T09:50:20Z</time></trkpt><trkpt lat="40.81527511017925" lon="9.080780002140852"><ele>503.5</ele><time>2026-05-03T09:50:21Z</time></trkpt><trkpt lat="40.81537909406059" lon="9.080681604405497"><ele>501.0</ele><time>2026-05-03T09:50:22Z</time></trkpt><trkpt lat="40.815514762390215" lon="9.08059510981668"><ele>501.0</ele><time>2026-05-03T09:50:23Z</time></trkpt><trkpt lat="40.81565903229315" lon="9.080519447244058"><ele>501.0</ele><time>2026-05-03T09:50:24Z</time></trkpt><trkpt lat="40.81580776661899" lon="9.080435500942883"><ele>501.0</ele><time>2026-05-03T09:50:25Z</time></trkpt><trkpt lat="40.81595620855227" lon="9.080353697087496"><ele>500.5</ele><time>2026-05-03T09:50:26Z</time></trkpt><trkpt lat="40.816086144285684" lon="9.080298275207202"><ele>500.0</ele><time>2026-05-03T09:50:27Z</time></trkpt><trkpt lat="40.816201188047664" lon="9.080293804599677"><ele>499.5</ele><time>2026-05-03T09:50:28Z</time></trkpt><trkpt lat="40.81631813380577" lon="9.080371834848538"><ele>499.0</ele><time>2026-05-03T09:50:29Z</time></trkpt><trkpt lat="40.81643270492509" lon="9.080487434152133"><ele>499.0</ele><time>2026-05-03T09:50:30Z</time></trkpt><trkpt lat="40.81654092160618" lon="9.080627505447953"><ele>499.0</ele><time>2026-05-03T09:50:31Z</time></trkpt><trkpt lat="40.81664622832591" lon="9.08080778677343"><ele>499.0</ele><time>2026-05-03T09:50:32Z</time></trkpt><trkpt lat="40.81672914381594" lon="9.08102613444987"><ele>501.0</ele><time>2026-05-03T09:50:33Z</time></trkpt><trkpt lat="40.81677196851566" lon="9.081247069861117"><ele>503.0</ele><time>2026-05-03T09:50:34Z</time></trkpt><trkpt lat="40.81680651308424" lon="9.08147734046209"><ele>505.0</ele><time>2026-05-03T09:50:35Z</time></trkpt><trkpt lat="40.816865502412234" lon="9.081681371512262"><ele>505.0</ele><time>2026-05-03T09:50:36Z</time></trkpt><trkpt lat="40.81695073579381" lon="9.081877244214624"><ele>505.0</ele><time>2026-05-03T09:50:37Z</time></trkpt><trkpt lat="40.81705554012264" lon="9.082063991854154"><ele>505.0</ele><time>2026-05-03T09:50:38Z</time></trkpt><trkpt lat="40.81716803066395" lon="9.082244580201579"><ele>510.6666666666667</ele><time>2026-05-03T09:50:39Z</time></trkpt><trkpt lat="40.81726335232146" lon="9.082432162898247"><ele>516.3333333333334</ele><time>2026-05-03T09:50:40Z</time></trkpt><trkpt lat="40.81733589364991" lon="9.082634131934006"><ele>522.0</ele><time>2026-05-03T09:50:41Z</time></trkpt><trkpt lat="40.81740582237872" lon="9.082805320246706"><ele>522.0</ele><time>2026-05-03T09:50:42Z</time></trkpt><trkpt lat="40.817494075524266" lon="9.082950313530207"><ele>522.0</ele><time>2026-05-03T09:50:43Z</time></trkpt><trkpt lat="40.817617674553844" lon="9.083047531843384"><ele>522.0</ele><time>2026-05-03T09:50:44Z</time></trkpt><trkpt lat="40.81777227197856" lon="9.08309435604018"><ele>522.0</ele><time>2026-05-03T09:50:45Z</time></trkpt><trkpt lat="40.81793247741393" lon="9.083133946204743"><ele>525.0</ele><time>2026-05-03T09:50:46Z</time></trkpt><trkpt lat="40.81809406548592" lon="9.083204261661294"><ele>528.0</ele><time>2026-05-03T09:50:47Z</time></trkpt><trkpt lat="40.81823393701215" lon="9.083320959768226"><ele>531.0</ele><time>2026-05-03T09:50:48Z</time></trkpt><trkpt lat="40.81836816098922" lon="9.083471132198984"><ele>524.6666666666666</ele><time>2026-05-03T09:50:49Z</time></trkpt><trkpt lat="40.81849626915641" lon="9.083645562096068"><ele>518.3333333333333</ele><time>2026-05-03T09:50:50Z</time></trkpt><trkpt lat="40.81862073421858" lon="9.083826332776546"><ele>512.0</ele><time>2026-05-03T09:50:51Z</time></trkpt><trkpt lat="40.81873821010304" lon="9.084019979442786"><ele>517.0</ele><time>2026-05-03T09:50:52Z</time></trkpt><trkpt lat="40.81884613259674" lon="9.084223480209639"><ele>522.0</ele><time>2026-05-03T09:50:53Z</time></trkpt><trkpt lat="40.818938614056414" lon="9.084422028981345"><ele>527.0</ele><time>2026-05-03T09:50:54Z</time></trkpt><trkpt lat="40.81900326497761" lon="9.084624007061484"><ele>527.0</ele><time>2026-05-03T09:50:55Z</time></trkpt><trkpt lat="40.81903204481776" lon="9.084841713951297"><ele>527.0</ele><time>2026-05-03T09:50:56Z</time></trkpt><trkpt lat="40.81902429888147" lon="9.085064225253305"><ele>527.0</ele><time>2026-05-03T09:50:57Z</time></trkpt><trkpt lat="40.81900769744573" lon="9.085273429707819"><ele>529.25</ele><time>2026-05-03T09:50:58Z</time></trkpt><trkpt lat="40.818976135538115" lon="9.085460106605744"><ele>531.5</ele><time>2026-05-03T09:50:59Z</time></trkpt><trkpt lat="40.818967070877605" lon="9.085610089952617"><ele>533.75</ele><time>2026-05-03T09:51:00Z</time></trkpt><trkpt lat="40.81899969411767" lon="9.08573623181737"><ele>536.0</ele><time>2026-05-03T09:51:01Z</time></trkpt><trkpt lat="40.819084831956296" lon="9.08582539877852"><ele>539.0</ele><time>2026-05-03T09:51:02Z</time></trkpt><trkpt lat="40.81919756855121" lon="9.085862291296028"><ele>542.0</ele><time>2026-05-03T09:51:03Z</time></trkpt><trkpt lat="40.819316205421515" lon="9.085838944063397"><ele>545.0</ele><time>2026-05-03T09:51:04Z</time></trkpt><trkpt lat="40.81944038698813" lon="9.085769263017507"><ele>548.0</ele><time>2026-05-03T09:51:05Z</time></trkpt><trkpt lat="40.81956432929309" lon="9.085675968420128"><ele>539.6666666666666</ele><time>2026-05-03T09:51:06Z</time></trkpt><trkpt lat="40.81970641104462" lon="9.085596744654117"><ele>531.3333333333334</ele><time>2026-05-03T09:51:07Z</time></trkpt><trkpt lat="40.81986087372136" lon="9.085548611516906"><ele>523.0</ele><time>2026-05-03T09:51:08Z</time></trkpt><trkpt lat="40.82003173704099" lon="9.085525391509256"><ele>522.0</ele><time>2026-05-03T09:51:09Z</time></trkpt><trkpt lat="40.820201429435166" lon="9.085536083429949"><ele>521.0</ele><time>2026-05-03T09:51:10Z</time></trkpt><trkpt lat="40.820346943599965" lon="9.085576161180626"><ele>520.0</ele><time>2026-05-03T09:51:11Z</time></trkpt><trkpt lat="40.82047036949918" lon="9.085659447555377"><ele>526.3333333333334</ele><time>2026-05-03T09:51:12Z</time></trkpt><trkpt lat="40.82057122324095" lon="9.08581014978885"><ele>532.6666666666666</ele><time>2026-05-03T09:51:13Z</time></trkpt><trkpt lat="40.8206694436031" lon="9.085999328452893"><ele>539.0</ele><time>2026-05-03T09:51:14Z</time></trkpt><trkpt lat="40.82078486843686" lon="9.08618813167132"><ele>539.0</ele><time>2026-05-03T09:51:15Z</time></trkpt><trkpt lat="40.82093057047351" lon="9.086353383466053"><ele>539.0</ele><time>2026-05-03T09:51:16Z</time></trkpt><trkpt lat="40.8211198899481" lon="9.086479784984238"><ele>539.0</ele><time>2026-05-03T09:51:17Z</time></trkpt><trkpt lat="40.8213273662529" lon="9.086601358270306"><ele>542.0</ele><time>2026-05-03T09:51:18Z</time></trkpt><trkpt lat="40.82152393450823" lon="9.08669579772827"><ele>545.0</ele><time>2026-05-03T09:51:19Z</time></trkpt><trkpt lat="40.82169065291901" lon="9.086788188514966"><ele>548.0</ele><time>2026-05-03T09:51:20Z</time></trkpt><trkpt lat="40.821814476088" lon="9.086892195534466"><ele>545.0</ele><time>2026-05-03T09:51:21Z</time></trkpt><trkpt lat="40.821923850280186" lon="9.087047202458026"><ele>542.0</ele><time>2026-05-03T09:51:22Z</time></trkpt><trkpt lat="40.82201115809136" lon="9.087249832204048"><ele>539.0</ele><time>2026-05-03T09:51:23Z</time></trkpt><trkpt lat="40.82209996510294" lon="9.087466236985007"><ele>539.0</ele><time>2026-05-03T09:51:24Z</time></trkpt><trkpt lat="40.82217737952451" lon="9.087702773588731"><ele>539.0</ele><time>2026-05-03T09:51:25Z</time></trkpt><trkpt lat="40.82223686676811" lon="9.087962485477824"><ele>539.0</ele><time>2026-05-03T09:51:26Z</time></trkpt><trkpt lat="40.82229372081739" lon="9.088234883863976"><ele>543.3333333333333</ele><time>2026-05-03T09:51:27Z</time></trkpt><trkpt lat="40.82234726666327" lon="9.08848018000217"><ele>547.6666666666666</ele><time>2026-05-03T09:51:28Z</time></trkpt><trkpt lat="40.82237445993748" lon="9.088663242169504"><ele>552.0</ele><time>2026-05-03T09:51:29Z</time></trkpt><trkpt lat="40.82236044149401" lon="9.088836381024286"><ele>552.0</ele><time>2026-05-03T09:51:30Z</time></trkpt><trkpt lat="40.822300768610205" lon="9.088992714967963"><ele>552.0</ele><time>2026-05-03T09:51:31Z</time></trkpt><trkpt lat="40.82220226557456" lon="9.08913647053337"><ele>552.0</ele><time>2026-05-03T09:51:32Z</time></trkpt><trkpt lat="40.82209862750564" lon="9.089291137759856"><ele>552.0</ele><time>2026-05-03T09:51:33Z</time></trkpt><trkpt lat="40.82201235527859" lon="9.089488846488486"><ele>552.6666666666666</ele><time>2026-05-03T09:51:34Z</time></trkpt><trkpt lat="40.821940132021666" lon="9.089709550729147"><ele>553.3333333333333</ele><time>2026-05-03T09:51:35Z</time></trkpt><trkpt lat="40.82189328303939" lon="9.089900214061249"><ele>554.0</ele><time>2026-05-03T09:51:36Z</time></trkpt><trkpt lat="40.82186323978952" lon="9.090059321753762"><ele>554.8</ele><time>2026-05-03T09:51:37Z</time></trkpt><trkpt lat="40.821898057967864" lon="9.090176813667215"><ele>555.5999999999999</ele><time>2026-05-03T09:51:38Z</time></trkpt><trkpt lat="40.82195104681557" lon="9.090294922812518"><ele>556.4</ele><time>2026-05-03T09:51:39Z</time></trkpt><trkpt lat="40.82204188414473" lon="9.090371381022855"><ele>557.1999999999999</ele><time>2026-05-03T09:51:40Z</time></trkpt><trkpt lat="40.822168811857736" lon="9.090376852830843"><ele>558.0</ele><time>2026-05-03T09:51:41Z</time></trkpt><trkpt lat="40.82229141220875" lon="9.090355633300323"><ele>558.0</ele><time>2026-05-03T09:51:42Z</time></trkpt><trkpt lat="40.822402404510775" lon="9.090381152048586"><ele>558.0</ele><time>2026-05-03T09:51:43Z</time></trkpt><trkpt lat="40.82250871256497" lon="9.090477403220627"><ele>558.0</ele><time>2026-05-03T09:51:44Z</time></trkpt><trkpt lat="40.82261925546589" lon="9.090623073320176"><ele>558.0</ele><time>2026-05-03T09:51:45Z</time></trkpt><trkpt lat="40.8227192427994" lon="9.090817494589615"><ele>562.3333333333334</ele><time>2026-05-03T09:51:46Z</time></trkpt><trkpt lat="40.822833133234816" lon="9.09103145219035"><ele>566.6666666666667</ele><time>2026-05-03T09:51:47Z</time></trkpt><trkpt lat="40.82292118233265" lon="9.091249064754932"><ele>571.0</ele><time>2026-05-03T09:51:48Z</time></trkpt><trkpt lat="40.822984710315566" lon="9.091462315784407"><ele>574.0</ele><time>2026-05-03T09:51:49Z</time></trkpt><trkpt lat="40.823042644651856" lon="9.091631376348602"><ele>577.0</ele><time>2026-05-03T09:51:50Z</time></trkpt><trkpt lat="40.82311379871684" lon="9.091754130976934"><ele>580.0</ele><time>2026-05-03T09:51:51Z</time></trkpt><trkpt lat="40.823211437704295" lon="9.091801267424822"><ele>583.0</ele><time>2026-05-03T09:51:52Z</time></trkpt><trkpt lat="40.82332362131668" lon="9.091774347689187"><ele>583.0</ele><time>2026-05-03T09:51:53Z</time></trkpt><trkpt lat="40.8234132169393" lon="9.091681624468718"><ele>583.0</ele><time>2026-05-03T09:51:54Z</time></trkpt><trkpt lat="40.82343965426328" lon="9.091542549053305"><ele>583.0</ele><time>2026-05-03T09:51:55Z</time></trkpt><trkpt lat="40.823441499168105" lon="9.091382314080505"><ele>583.0</ele><time>2026-05-03T09:51:56Z</time></trkpt><trkpt lat="40.82344315753875" lon="9.091208094830087"><ele>584.25</ele><time>2026-05-03T09:51:57Z</time></trkpt><trkpt lat="40.82349952317725" lon="9.09104547958648"><ele>585.5</ele><time>2026-05-03T09:51:58Z</time></trkpt><trkpt lat="40.82359103068085" lon="9.090889563871553"><ele>586.75</ele><time>2026-05-03T09:51:59Z</time></trkpt><trkpt lat="40.823712675571215" lon="9.09075530948652"><ele>588.0</ele><time>2026-05-03T09:52:00Z</time></trkpt><trkpt lat="40.82386855646759" lon="9.09063517529764"><ele>584.0</ele><time>2026-05-03T09:52:01Z</time></trkpt><trkpt lat="40.82402226763149" lon="9.090509534728943"><ele>580.0</ele><time>2026-05-03T09:52:02Z</time></trkpt><trkpt lat="40.824153444974925" lon="9.090397036973773"><ele>576.0</ele><time>2026-05-03T09:52:03Z</time></trkpt><trkpt lat="40.82430063559429" lon="9.090346414290678"><ele>574.25</ele><time>2026-05-03T09:52:04Z</time></trkpt><trkpt lat="40.82443200128114" lon="9.090346367050484"><ele>572.5</ele><time>2026-05-03T09:52:05Z</time></trkpt><trkpt lat="40.82455889182234" lon="9.090411044320984"><ele>570.75</ele><time>2026-05-03T09:52:06Z</time></trkpt><trkpt lat="40.82467507854377" lon="9.090529585812966"><ele>569.0</ele><time>2026-05-03T09:52:07Z</time></trkpt><trkpt lat="40.82478768424675" lon="9.090691964263707"><ele>572.3333333333333</ele><time>2026-05-03T09:52:08Z</time></trkpt><trkpt lat="40.82488884496943" lon="9.090891632911106"><ele>575.6666666666666</ele><time>2026-05-03T09:52:09Z</time></trkpt><trkpt lat="40.82497260431791" lon="9.091112319459892"><ele>579.0</ele><time>2026-05-03T09:52:10Z</time></trkpt><trkpt lat="40.82503473349849" lon="9.091317329090037"><ele>579.0</ele><time>2026-05-03T09:52:11Z</time></trkpt><trkpt lat="40.82511221649985" lon="9.09148133932873"><ele>579.0</ele><time>2026-05-03T09:52:12Z</time></trkpt><trkpt lat="40.825213960410366" lon="9.09159663856683"><ele>579.0</ele><time>2026-05-03T09:52:13Z</time></trkpt><trkpt lat="40.82533629385422" lon="9.091652163594697"><ele>579.0</ele><time>2026-05-03T09:52:14Z</time></trkpt><trkpt lat="40.82547674624201" lon="9.091665254325312"><ele>579.75</ele><time>2026-05-03T09:52:15Z</time></trkpt><trkpt lat="40.82562575671055" lon="9.091680977358573"><ele>580.5</ele><time>2026-05-03T09:52:16Z</time></trkpt><trkpt lat="40.82575364874638" lon="9.091751753679878"><ele>581.25</ele><time>2026-05-03T09:52:17Z</time></trkpt><trkpt lat="40.825862138409754" lon="9.091868513412448"><ele>582.0</ele><time>2026-05-03T09:52:18Z</time></trkpt><trkpt lat="40.82595823930415" lon="9.092026738072384"><ele>579.6666666666666</ele><time>2026-05-03T09:52:19Z</time></trkpt><trkpt lat="40.82604282531794" lon="9.092204623661445"><ele>577.3333333333333</ele><time>2026-05-03T09:52:20Z</time></trkpt><trkpt lat="40.8261470711615" lon="9.092356695967595"><ele>575.0</ele><time>2026-05-03T09:52:21Z</time></trkpt><trkpt lat="40.82627620729779" lon="9.092457132228498"><ele>579.0</ele><time>2026-05-03T09:52:22Z</time></trkpt><trkpt lat="40.82643048253017" lon="9.092502153744027"><ele>583.0</ele><time>2026-05-03T09:52:23Z</time></trkpt><trkpt lat="40.82657564453831" lon="9.092537323817242"><ele>587.0</ele><time>2026-05-03T09:52:24Z</time></trkpt><trkpt lat="40.826715774225086" lon="9.092506924480714"><ele>591.0</ele><time>2026-05-03T09:52:25Z</time></trkpt><trkpt lat="40.8268779980246" lon="9.092455476551685"><ele>591.0</ele><time>2026-05-03T09:52:26Z</time></trkpt><trkpt lat="40.827019681711626" lon="9.092425062115776"><ele>591.0</ele><time>2026-05-03T09:52:27Z</time></trkpt><trkpt lat="40.8271457648979" lon="9.092464224354284"><ele>591.0</ele><time>2026-05-03T09:52:28Z</time></trkpt><trkpt lat="40.82726876920977" lon="9.09255102154858"><ele>591.0</ele><time>2026-05-03T09:52:29Z</time></trkpt><trkpt lat="40.82740464080246" lon="9.092644938135482"><ele>591.0</ele><time>2026-05-03T09:52:30Z</time></trkpt><trkpt lat="40.82754781390755" lon="9.092724180954974"><ele>591.0</ele><time>2026-05-03T09:52:31Z</time></trkpt><trkpt lat="40.82770075360286" lon="9.092797046068517"><ele>591.0</ele><time>2026-05-03T09:52:32Z</time></trkpt><trkpt lat="40.82784143323094" lon="9.092847561327561"><ele>590.3333333333334</ele><time>2026-05-03T09:52:33Z</time></trkpt><trkpt lat="40.828003801279934" lon="9.09285462906755"><ele>589.6666666666667</ele><time>2026-05-03T09:52:34Z</time></trkpt><trkpt lat="40.82817544957191" lon="9.092827987695799"><ele>589.0</ele><time>2026-05-03T09:52:35Z</time></trkpt><trkpt lat="40.82836454452672" lon="9.092785252729765"><ele>592.6666666666667</ele><time>2026-05-03T09:52:36Z</time></trkpt><trkpt lat="40.82855669639039" lon="9.092740902748222"><ele>596.3333333333334</ele><time>2026-05-03T09:52:37Z</time></trkpt><trkpt lat="40.82875547100411" lon="9.092689614271354"><ele>600.0</ele><time>2026-05-03T09:52:38Z</time></trkpt><trkpt lat="40.82895179414649" lon="9.092636665462141"><ele>600.0</ele><time>2026-05-03T09:52:39Z</time></trkpt><trkpt lat="40.82914150560578" lon="9.09259730851224"><ele>600.0</ele><time>2026-05-03T09:52:40Z</time></trkpt><trkpt lat="40.82931143753139" lon="9.092558214712017"><ele>600.0</ele><time>2026-05-03T09:52:41Z</time></trkpt><trkpt lat="40.82947688326192" lon="9.09253873391219"><ele>599.0</ele><time>2026-05-03T09:52:42Z</time></trkpt><trkpt lat="40.8296491452533" lon="9.092570885979155"><ele>598.0</ele><time>2026-05-03T09:52:43Z</time></trkpt><trkpt lat="40.82981883818453" lon="9.092672876932573"><ele>597.0</ele><time>2026-05-03T09:52:44Z</time></trkpt><trkpt lat="40.82998664825119" lon="9.09280483868213"><ele>599.3333333333334</ele><time>2026-05-03T09:52:45Z</time></trkpt><trkpt lat="40.830157321076044" lon="9.092953566726786"><ele>601.6666666666667</ele><time>2026-05-03T09:52:46Z</time></trkpt><trkpt lat="40.83032749499363" lon="9.093126766118536"><ele>604.0</ele><time>2026-05-03T09:52:47Z</time></trkpt><trkpt lat="40.83048645784814" lon="9.093311948817073"><ele>604.0</ele><time>2026-05-03T09:52:48Z</time></trkpt><trkpt lat="40.83065278162939" lon="9.093511717155208"><ele>604.0</ele><time>2026-05-03T09:52:49Z</time></trkpt><trkpt lat="40.83081573353418" lon="9.093704448761734"><ele>604.0</ele><time>2026-05-03T09:52:50Z</time></trkpt><trkpt lat="40.830978347803764" lon="9.093878168784927"><ele>606.6666666666667</ele><time>2026-05-03T09:52:51Z</time></trkpt><trkpt lat="40.831161548528534" lon="9.09402562323314"><ele>609.3333333333334</ele><time>2026-05-03T09:52:52Z</time></trkpt><trkpt lat="40.831353852056864" lon="9.094163973957574"><ele>612.0</ele><time>2026-05-03T09:52:53Z</time></trkpt><trkpt lat="40.831545788939216" lon="9.094290932844103"><ele>612.0</ele><time>2026-05-03T09:52:54Z</time></trkpt><trkpt lat="40.83172473078836" lon="9.094417297594548"><ele>612.0</ele><time>2026-05-03T09:52:55Z</time></trkpt><trkpt lat="40.831902794893274" lon="9.094550531622229"><ele>612.0</ele><time>2026-05-03T09:52:56Z</time></trkpt><trkpt lat="40.832060688110275" lon="9.094702601696369"><ele>613.0</ele><time>2026-05-03T09:52:57Z</time></trkpt><trkpt lat="40.8322018291416" lon="9.094875902987768"><ele>614.0</ele><time>2026-05-03T09:52:58Z</time></trkpt><trkpt lat="40.83233404292313" lon="9.095061468258145"><ele>615.0</ele><time>2026-05-03T09:52:59Z</time></trkpt><trkpt lat="40.83246152057048" lon="9.095253740894549"><ele>615.0</ele><time>2026-05-03T09:53:00Z</time></trkpt><trkpt lat="40.832579674305514" lon="9.095447899883299"><ele>615.0</ele><time>2026-05-03T09:53:01Z</time></trkpt><trkpt lat="40.832690108979854" lon="9.095650278946987"><ele>615.0</ele><time>2026-05-03T09:53:02Z</time></trkpt><trkpt lat="40.832787785050854" lon="9.095870864061967"><ele>616.3333333333334</ele><time>2026-05-03T09:53:03Z</time></trkpt><trkpt lat="40.83285658488454" lon="9.096113144456927"><ele>617.6666666666667</ele><time>2026-05-03T09:53:04Z</time></trkpt><trkpt lat="40.83289386655257" lon="9.096365888377825"><ele>619.0</ele><time>2026-05-03T09:53:05Z</time></trkpt><trkpt lat="40.83293065655401" lon="9.096606326752687"><ele>620.3333333333334</ele><time>2026-05-03T09:53:06Z</time></trkpt><trkpt lat="40.83299395415173" lon="9.096823320199617"><ele>621.6666666666666</ele><time>2026-05-03T09:53:07Z</time></trkpt><trkpt lat="40.83310086144057" lon="9.097008816870588"><ele>623.0</ele><time>2026-05-03T09:53:08Z</time></trkpt><trkpt lat="40.833213380923645" lon="9.097186358277803"><ele>623.0</ele><time>2026-05-03T09:53:09Z</time></trkpt><trkpt lat="40.83332326081903" lon="9.097357006734425"><ele>623.0</ele><time>2026-05-03T09:53:10Z</time></trkpt><trkpt lat="40.83341773251958" lon="9.097547685101286"><ele>623.0</ele><time>2026-05-03T09:53:11Z</time></trkpt><trkpt lat="40.833486642802875" lon="9.097760276275816"><ele>620.3333333333333</ele><time>2026-05-03T09:53:12Z</time></trkpt><trkpt lat="40.83355146796915" lon="9.097979253310873"><ele>617.6666666666666</ele><time>2026-05-03T09:53:13Z</time></trkpt><trkpt lat="40.833613611182884" lon="9.098212179047106"><ele>615.0</ele><time>2026-05-03T09:53:14Z</time></trkpt><trkpt lat="40.83366350068591" lon="9.098444687420855"><ele>619.2</ele><time>2026-05-03T09:53:15Z</time></trkpt><trkpt lat="40.83368493818797" lon="9.098646065909898"><ele>623.4</ele><time>2026-05-03T09:53:16Z</time></trkpt><trkpt lat="40.83372820744407" lon="9.098772031544657"><ele>627.6</ele><time>2026-05-03T09:53:17Z</time></trkpt><trkpt lat="40.833793870035684" lon="9.098843777177187"><ele>631.8</ele><time>2026-05-03T09:53:18Z</time></trkpt><trkpt lat="40.833885020594295" lon="9.098869961824544"><ele>636.0</ele><time>2026-05-03T09:53:19Z</time></trkpt><trkpt lat="40.833990702863915" lon="9.098831534898988"><ele>636.0</ele><time>2026-05-03T09:53:20Z</time></trkpt><trkpt lat="40.83408269639685" lon="9.098747282500696"><ele>636.0</ele><time>2026-05-03T09:53:21Z</time></trkpt><trkpt lat="40.83417318014738" lon="9.098612485760807"><ele>636.0</ele><time>2026-05-03T09:53:22Z</time></trkpt><trkpt lat="40.834282191521176" lon="9.098467139033598"><ele>636.0</ele><time>2026-05-03T09:53:23Z</time></trkpt><trkpt lat="40.83439439735899" lon="9.098339624334336"><ele>636.25</ele><time>2026-05-03T09:53:24Z</time></trkpt><trkpt lat="40.83450921599468" lon="9.09827141680558"><ele>636.5</ele><time>2026-05-03T09:53:25Z</time></trkpt><trkpt lat="40.83464260709338" lon="9.098270877084449"><ele>636.75</ele><time>2026-05-03T09:53:26Z</time></trkpt><trkpt lat="40.834806444501965" lon="9.098349578632803"><ele>637.0</ele><time>2026-05-03T09:53:27Z</time></trkpt><trkpt lat="40.835001065735035" lon="9.098431233517"><ele>634.6666666666667</ele><time>2026-05-03T09:53:28Z</time></trkpt><trkpt lat="40.83520022621634" lon="9.098515304830004"><ele>632.3333333333334</ele><time>2026-05-03T09:53:29Z</time></trkpt><trkpt lat="40.83541981268388" lon="9.098594761040784"><ele>630.0</ele><time>2026-05-03T09:53:30Z</time></trkpt><trkpt lat="40.83565511240954" lon="9.098653910502284"><ele>630.0</ele><time>2026-05-03T09:53:31Z</time></trkpt><trkpt lat="40.83588653631119" lon="9.098680089692644"><ele>630.0</ele><time>2026-05-03T09:53:32Z</time></trkpt><trkpt lat="40.83610305686572" lon="9.098679016388905"><ele>630.0</ele><time>2026-05-03T09:53:33Z</time></trkpt><trkpt lat="40.8362940473985" lon="9.098685532342532"><ele>627.3333333333334</ele><time>2026-05-03T09:53:34Z</time></trkpt><trkpt lat="40.836456971103566" lon="9.09873489540371"><ele>624.6666666666667</ele><time>2026-05-03T09:53:35Z</time></trkpt><trkpt lat="40.83659554321746" lon="9.098837320061797"><ele>622.0</ele><time>2026-05-03T09:53:36Z</time></trkpt><trkpt lat="40.83671072068646" lon="9.098985193835492"><ele>624.0</ele><time>2026-05-03T09:53:37Z</time></trkpt><trkpt lat="40.8368200583805" lon="9.099178689638052"><ele>626.0</ele><time>2026-05-03T09:53:38Z</time></trkpt><trkpt lat="40.836942359855726" lon="9.099343011578636"><ele>628.0</ele><time>2026-05-03T09:53:39Z</time></trkpt><trkpt lat="40.83709255024898" lon="9.099487254007887"><ele>628.0</ele><time>2026-05-03T09:53:40Z</time></trkpt><trkpt lat="40.83725598238784" lon="9.099625828607644"><ele>628.0</ele><time>2026-05-03T09:53:41Z</time></trkpt><trkpt lat="40.8374218577199" lon="9.099775417886248"><ele>628.0</ele><time>2026-05-03T09:53:42Z</time></trkpt><trkpt lat="40.83758668820757" lon="9.099925476652182"><ele>633.6666666666667</ele><time>2026-05-03T09:53:43Z</time></trkpt><trkpt lat="40.837738691831575" lon="9.100056748052983"><ele>639.3333333333334</ele><time>2026-05-03T09:53:44Z</time></trkpt><trkpt lat="40.837895907365684" lon="9.100138369839671"><ele>645.0</ele><time>2026-05-03T09:53:45Z</time></trkpt><trkpt lat="40.838067205016436" lon="9.100169288483276"><ele>645.0</ele><time>2026-05-03T09:53:46Z</time></trkpt><trkpt lat="40.83823527945058" lon="9.10017336484743"><ele>645.0</ele><time>2026-05-03T09:53:47Z</time></trkpt><trkpt lat="40.838394899472156" lon="9.100197913163807"><ele>645.0</ele><time>2026-05-03T09:53:48Z</time></trkpt><trkpt lat="40.838547625733995" lon="9.100281595478682"><ele>646.0</ele><time>2026-05-03T09:53:49Z</time></trkpt><trkpt lat="40.838691923065" lon="9.100419841226161"><ele>647.0</ele><time>2026-05-03T09:53:50Z</time></trkpt><trkpt lat="40.83882831913197" lon="9.100590434367477"><ele>648.0</ele><time>2026-05-03T09:53:51Z</time></trkpt><trkpt lat="40.83895174027597" lon="9.100790933388518"><ele>648.0</ele><time>2026-05-03T09:53:52Z</time></trkpt><trkpt lat="40.839069269313185" lon="9.101002505582182"><ele>648.0</ele><time>2026-05-03T09:53:53Z</time></trkpt><trkpt lat="40.83918601312852" lon="9.101188379482053"><ele>648.0</ele><time>2026-05-03T09:53:54Z</time></trkpt><trkpt lat="40.839314832020534" lon="9.101316462646178"><ele>643.6666666666666</ele><time>2026-05-03T09:53:55Z</time></trkpt><trkpt lat="40.83946308490748" lon="9.101370136654657"><ele>639.3333333333333</ele><time>2026-05-03T09:53:56Z</time></trkpt><trkpt lat="40.83961802166458" lon="9.101375839118091"><ele>635.0</ele><time>2026-05-03T09:53:57Z</time></trkpt><trkpt lat="40.839761534938354" lon="9.101385660639647"><ele>635.0</ele><time>2026-05-03T09:53:58Z</time></trkpt><trkpt lat="40.83989388974138" lon="9.101474682816718"><ele>635.0</ele><time>2026-05-03T09:53:59Z</time></trkpt><trkpt lat="40.84000666566588" lon="9.101638305481824"><ele>635.0</ele><time>2026-05-03T09:54:00Z</time></trkpt><trkpt lat="40.840085083923874" lon="9.101859611452054"><ele>635.6666666666666</ele><time>2026-05-03T09:54:01Z</time></trkpt><trkpt lat="40.84015681965141" lon="9.102076864429756"><ele>636.3333333333334</ele><time>2026-05-03T09:54:02Z</time></trkpt><trkpt lat="40.84025207105759" lon="9.102221059826782"><ele>637.0</ele><time>2026-05-03T09:54:03Z</time></trkpt><trkpt lat="40.84038768486919" lon="9.102334572688529"><ele>642.6666666666667</ele><time>2026-05-03T09:54:04Z</time></trkpt><trkpt lat="40.84053240959219" lon="9.10247279077743"><ele>648.3333333333334</ele><time>2026-05-03T09:54:05Z</time></trkpt><trkpt lat="40.84067761996107" lon="9.102615889831567"><ele>654.0</ele><time>2026-05-03T09:54:06Z</time></trkpt><trkpt lat="40.84080929538804" lon="9.102788332714008"><ele>654.0</ele><time>2026-05-03T09:54:07Z</time></trkpt><trkpt lat="40.8409151103094" lon="9.10296315806111"><ele>654.0</ele><time>2026-05-03T09:54:08Z</time></trkpt><trkpt lat="40.84101017644941" lon="9.103116491995333"><ele>654.0</ele><time>2026-05-03T09:54:09Z</time></trkpt><trkpt lat="40.841099748237916" lon="9.103248836250545"><ele>658.75</ele><time>2026-05-03T09:54:10Z</time></trkpt><trkpt lat="40.84119367598896" lon="9.103340617630128"><ele>663.5</ele><time>2026-05-03T09:54:11Z</time></trkpt><trkpt lat="40.84130620033793" lon="9.103392402379395"><ele>668.25</ele><time>2026-05-03T09:54:12Z</time></trkpt><trkpt lat="40.84143550898866" lon="9.103376159138378"><ele>673.0</ele><time>2026-05-03T09:54:13Z</time></trkpt><trkpt lat="40.841570806929425" lon="9.103343841826366"><ele>673.0</ele><time>2026-05-03T09:54:14Z</time></trkpt><trkpt lat="40.84171522235018" lon="9.103314758339092"><ele>673.0</ele><time>2026-05-03T09:54:15Z</time></trkpt><trkpt lat="40.84187008634151" lon="9.103286292991886"><ele>673.0</ele><time>2026-05-03T09:54:16Z</time></trkpt><trkpt lat="40.84202709241149" lon="9.103256976723587"><ele>674.3333333333334</ele><time>2026-05-03T09:54:17Z</time></trkpt><trkpt lat="40.842182887764395" lon="9.103226156521432"><ele>675.6666666666666</ele><time>2026-05-03T09:54:18Z</time></trkpt><trkpt lat="40.842337357377986" lon="9.103194255627665"><ele>677.0</ele><time>2026-05-03T09:54:19Z</time></trkpt><trkpt lat="40.84247280872833" lon="9.103165766670946"><ele>677.0</ele><time>2026-05-03T09:54:20Z</time></trkpt><trkpt lat="40.842585204488955" lon="9.103149143795251"><ele>677.0</ele><time>2026-05-03T09:54:21Z</time></trkpt><trkpt lat="40.84266989343753" lon="9.103127838165047"><ele>677.0</ele><time>2026-05-03T09:54:22Z</time></trkpt><trkpt lat="40.84275210756406" lon="9.103112843623693"><ele>677.0</ele><time>2026-05-03T09:54:23Z</time></trkpt><trkpt lat="40.84284111381217" lon="9.103110856340269"><ele>677.0</ele><time>2026-05-03T09:54:24Z</time></trkpt><trkpt lat="40.84293591416328" lon="9.103090946900721"><ele>679.4000000000001</ele><time>2026-05-03T09:54:25Z</time></trkpt><trkpt lat="40.84302854663185" lon="9.103069498282157"><ele>681.8000000000001</ele><time>2026-05-03T09:54:26Z</time></trkpt><trkpt lat="40.843128889462776" lon="9.103047238023123"><ele>684.2</ele><time>2026-05-03T09:54:27Z</time></trkpt><trkpt lat="40.84323888223635" lon="9.10303946953541"><ele>686.6</ele><time>2026-05-03T09:54:28Z</time></trkpt><trkpt lat="40.84334379847659" lon="9.103023818811748"><ele>689.0</ele><time>2026-05-03T09:54:29Z</time></trkpt><trkpt lat="40.84345804449628" lon="9.103003368515287"><ele>688.5</ele><time>2026-05-03T09:54:30Z</time></trkpt><trkpt lat="40.843588365854146" lon="9.102975496108455"><ele>688.0</ele><time>2026-05-03T09:54:31Z</time></trkpt><trkpt lat="40.84373766005229" lon="9.10295051041226"><ele>687.5</ele><time>2026-05-03T09:54:32Z</time></trkpt><trkpt lat="40.84389794062757" lon="9.102920050436651"><ele>687.0</ele><time>2026-05-03T09:54:33Z</time></trkpt><trkpt lat="40.84406415831443" lon="9.102889266341524"><ele>687.0</ele><time>2026-05-03T09:54:34Z</time></trkpt><trkpt lat="40.844222544015224" lon="9.102861969083781"><ele>687.0</ele><time>2026-05-03T09:54:35Z</time></trkpt><trkpt lat="40.84436687051998" lon="9.102827655067424"><ele>687.0</ele><time>2026-05-03T09:54:36Z</time></trkpt><trkpt lat="40.84448826296939" lon="9.10280499176166"><ele>687.0</ele><time>2026-05-03T09:54:37Z</time></trkpt><trkpt lat="40.84458743717486" lon="9.102800403013324"><ele>687.0</ele><time>2026-05-03T09:54:38Z</time></trkpt><trkpt lat="40.84467484659135" lon="9.102820721654654"><ele>687.0</ele><time>2026-05-03T09:54:39Z</time></trkpt><trkpt lat="40.84473664464937" lon="9.102897792249784"><ele>687.0</ele><time>2026-05-03T09:54:40Z</time></trkpt><trkpt lat="40.84475188235469" lon="9.102997966137647"><ele>687.0</ele><time>2026-05-03T09:54:41Z</time></trkpt><trkpt lat="40.84470026165611" lon="9.103097994273746"><ele>687.0</ele><time>2026-05-03T09:54:42Z</time></trkpt><trkpt lat="40.844601639656375" lon="9.103148350375834"><ele>687.0</ele><time>2026-05-03T09:54:43Z</time></trkpt><trkpt lat="40.84446876626049" lon="9.103157498129697"><ele>687.0</ele><time>2026-05-03T09:54:44Z</time></trkpt><trkpt lat="40.84432266005066" lon="9.103174656239629"><ele>687.0</ele><time>2026-05-03T09:54:45Z</time></trkpt><trkpt lat="40.84418174655916" lon="9.10320372882357"><ele>687.0</ele><time>2026-05-03T09:54:46Z</time></trkpt><trkpt lat="40.844054640332516" lon="9.103254056237088"><ele>687.0</ele><time>2026-05-03T09:54:47Z</time></trkpt><trkpt lat="40.84392993334848" lon="9.103300302060902"><ele>680.0</ele><time>2026-05-03T09:54:48Z</time></trkpt><trkpt lat="40.84381877575443" lon="9.1033730568188"><ele>673.0</ele><time>2026-05-03T09:54:49Z</time></trkpt><trkpt lat="40.84373783703262" lon="9.103482835073788"><ele>666.0</ele><time>2026-05-03T09:54:50Z</time></trkpt><trkpt lat="40.84370253911525" lon="9.103624518802754"><ele>659.0</ele><time>2026-05-03T09:54:51Z</time></trkpt><trkpt lat="40.843713111640376" lon="9.103810847941599"><ele>659.0</ele><time>2026-05-03T09:54:52Z</time></trkpt><trkpt lat="40.843752329828035" lon="9.103998718590722"><ele>659.0</ele><time>2026-05-03T09:54:53Z</time></trkpt><trkpt lat="40.84378930590479" lon="9.104210538029479"><ele>659.0</ele><time>2026-05-03T09:54:54Z</time></trkpt><trkpt lat="40.84382779184493" lon="9.104412509253466"><ele>652.6666666666666</ele><time>2026-05-03T09:54:55Z</time></trkpt><trkpt lat="40.84385740962016" lon="9.10460771517681"><ele>646.3333333333334</ele><time>2026-05-03T09:54:56Z</time></trkpt><trkpt lat="40.84385745084176" lon="9.10480397085537"><ele>640.0</ele><time>2026-05-03T09:54:57Z</time></trkpt><trkpt lat="40.843832132615354" lon="9.105001607478082"><ele>639.0</ele><time>2026-05-03T09:54:58Z</time></trkpt><trkpt lat="40.84379325030033" lon="9.105172652733824"><ele>638.0</ele><time>2026-05-03T09:54:59Z</time></trkpt><trkpt lat="40.843768751270055" lon="9.105309102471576"><ele>637.0</ele><time>2026-05-03T09:55:00Z</time></trkpt><trkpt lat="40.843779994780114" lon="9.105431671247299"><ele>636.0</ele><time>2026-05-03T09:55:01Z</time></trkpt><trkpt lat="40.843838534616076" lon="9.105539022985203"><ele>635.0</ele><time>2026-05-03T09:55:02Z</time></trkpt><trkpt lat="40.843936539951095" lon="9.10560765199"><ele>635.0</ele><time>2026-05-03T09:55:03Z</time></trkpt><trkpt lat="40.84407556878238" lon="9.105635873444145"><ele>635.0</ele><time>2026-05-03T09:55:04Z</time></trkpt><trkpt lat="40.84422433859359" lon="9.105653994950504"><ele>635.0</ele><time>2026-05-03T09:55:05Z</time></trkpt><trkpt lat="40.84438505732775" lon="9.105719334651768"><ele>632.6666666666666</ele><time>2026-05-03T09:55:06Z</time></trkpt><trkpt lat="40.84454649693439" lon="9.105829411133191"><ele>630.3333333333334</ele><time>2026-05-03T09:55:07Z</time></trkpt><trkpt lat="40.8447198812544" lon="9.105947205005052"><ele>628.0</ele><time>2026-05-03T09:55:08Z</time></trkpt><trkpt lat="40.84492447987016" lon="9.106086909891728"><ele>628.0</ele><time>2026-05-03T09:55:09Z</time></trkpt><trkpt lat="40.8451261705487" lon="9.106222484678351"><ele>628.0</ele><time>2026-05-03T09:55:10Z</time></trkpt><trkpt lat="40.845310331432415" lon="9.106354838056111"><ele>628.0</ele><time>2026-05-03T09:55:11Z</time></trkpt><trkpt lat="40.845496322660736" lon="9.106476522484554"><ele>627.3333333333334</ele><time>2026-05-03T09:55:12Z</time></trkpt><trkpt lat="40.84567682549496" lon="9.106582293946031"><ele>626.6666666666666</ele><time>2026-05-03T09:55:13Z</time></trkpt><trkpt lat="40.84582696135502" lon="9.10668088511783"><ele>626.0</ele><time>2026-05-03T09:55:14Z</time></trkpt><trkpt lat="40.845944219535575" lon="9.106809582862628"><ele>616.0</ele><time>2026-05-03T09:55:15Z</time></trkpt><trkpt lat="40.84602916370641" lon="9.106975978701792"><ele>606.0</ele><time>2026-05-03T09:55:16Z</time></trkpt><trkpt lat="40.84608111160452" lon="9.107160456643053"><ele>596.0</ele><time>2026-05-03T09:55:17Z</time></trkpt><trkpt lat="40.84610227555182" lon="9.107364733062186"><ele>598.0</ele><time>2026-05-03T09:55:18Z</time></trkpt><trkpt lat="40.84611008601389" lon="9.107557556804903"><ele>600.0</ele><time>2026-05-03T09:55:19Z</time></trkpt><trkpt lat="40.84616076634258" lon="9.107730735486067"><ele>602.0</ele><time>2026-05-03T09:55:20Z</time></trkpt><trkpt lat="40.846256461023" lon="9.107895740145628"><ele>604.0</ele><time>2026-05-03T09:55:21Z</time></trkpt><trkpt lat="40.84637220635963" lon="9.108045427999325"><ele>604.0</ele><time>2026-05-03T09:55:22Z</time></trkpt><trkpt lat="40.846497870549385" lon="9.108160224301512"><ele>604.0</ele><time>2026-05-03T09:55:23Z</time></trkpt><trkpt lat="40.84662476119919" lon="9.10826953517396"><ele>604.0</ele><time>2026-05-03T09:55:24Z</time></trkpt><trkpt lat="40.84673041270819" lon="9.108409550451091"><ele>596.6666666666667</ele><time>2026-05-03T09:55:25Z</time></trkpt><trkpt lat="40.846810847420905" lon="9.10860284966719"><ele>589.3333333333334</ele><time>2026-05-03T09:55:26Z</time></trkpt><trkpt lat="40.84690218989448" lon="9.108795960809847"><ele>582.0</ele><time>2026-05-03T09:55:27Z</time></trkpt><trkpt lat="40.84700719281674" lon="9.108971008210299"><ele>586.5</ele><time>2026-05-03T09:55:28Z</time></trkpt><trkpt lat="40.84712518935194" lon="9.109107932578546"><ele>591.0</ele><time>2026-05-03T09:55:29Z</time></trkpt><trkpt lat="40.84724098838443" lon="9.10922469332309"><ele>595.5</ele><time>2026-05-03T09:55:30Z</time></trkpt><trkpt lat="40.84731541159406" lon="9.109388562480921"><ele>600.0</ele><time>2026-05-03T09:55:31Z</time></trkpt><trkpt lat="40.84736954647323" lon="9.109584174782517"><ele>600.0</ele><time>2026-05-03T09:55:32Z</time></trkpt><trkpt lat="40.84742470717201" lon="9.109800270610446"><ele>600.0</ele><time>2026-05-03T09:55:33Z</time></trkpt><trkpt lat="40.847477445654164" lon="9.109998664639253"><ele>600.0</ele><time>2026-05-03T09:55:34Z</time></trkpt><trkpt lat="40.84753053278369" lon="9.110198851328091"><ele>603.0</ele><time>2026-05-03T09:55:35Z</time></trkpt><trkpt lat="40.84758332233107" lon="9.110374499096359"><ele>606.0</ele><time>2026-05-03T09:55:36Z</time></trkpt><trkpt lat="40.847580349223655" lon="9.110546247386212"><ele>609.0</ele><time>2026-05-03T09:55:37Z</time></trkpt><trkpt lat="40.84751798087812" lon="9.11070078695573"><ele>612.0</ele><time>2026-05-03T09:55:38Z</time></trkpt><trkpt lat="40.847470953551365" lon="9.110866817235259"><ele>612.5</ele><time>2026-05-03T09:55:39Z</time></trkpt><trkpt lat="40.84743873425931" lon="9.111013107489493"><ele>613.0</ele><time>2026-05-03T09:55:40Z</time></trkpt><trkpt lat="40.84744259338132" lon="9.111172081967553"><ele>613.5</ele><time>2026-05-03T09:55:41Z</time></trkpt><trkpt lat="40.84749335210948" lon="9.111312498207393"><ele>614.0</ele><time>2026-05-03T09:55:42Z</time></trkpt><trkpt lat="40.847587534794606" lon="9.111418650123563"><ele>607.75</ele><time>2026-05-03T09:55:43Z</time></trkpt><trkpt lat="40.84771423162631" lon="9.111454743808864"><ele>601.5</ele><time>2026-05-03T09:55:44Z</time></trkpt><trkpt lat="40.84786554258679" lon="9.111456074484591"><ele>595.25</ele><time>2026-05-03T09:55:45Z</time></trkpt><trkpt lat="40.84802860318195" lon="9.111417552710542"><ele>589.0</ele><time>2026-05-03T09:55:46Z</time></trkpt><trkpt lat="40.848208944189466" lon="9.111351891672042"><ele>589.0</ele><time>2026-05-03T09:55:47Z</time></trkpt><trkpt lat="40.84839357714837" lon="9.111286702981424"><ele>589.0</ele><time>2026-05-03T09:55:48Z</time></trkpt><trkpt lat="40.84856400336363" lon="9.111238404579707"><ele>589.0</ele><time>2026-05-03T09:55:49Z</time></trkpt><trkpt lat="40.848735576179514" lon="9.111215018491356"><ele>586.0</ele><time>2026-05-03T09:55:50Z</time></trkpt><trkpt lat="40.84891880749089" lon="9.11124565861497"><ele>583.0</ele><time>2026-05-03T09:55:51Z</time></trkpt><trkpt lat="40.84909233819438" lon="9.111312084191061"><ele>580.0</ele><time>2026-05-03T09:55:52Z</time></trkpt><trkpt lat="40.84926736154081" lon="9.11140762755473"><ele>580.3333333333334</ele><time>2026-05-03T09:55:53Z</time></trkpt><trkpt lat="40.849430125499666" lon="9.111532869668231"><ele>580.6666666666666</ele><time>2026-05-03T09:55:54Z</time></trkpt><trkpt lat="40.84960030915814" lon="9.111657943239283"><ele>581.0</ele><time>2026-05-03T09:55:55Z</time></trkpt><trkpt lat="40.849784501316655" lon="9.11176219379198"><ele>581.0</ele><time>2026-05-03T09:55:56Z</time></trkpt><trkpt lat="40.849977060609866" lon="9.111843379580014"><ele>581.0</ele><time>2026-05-03T09:55:57Z</time></trkpt><trkpt lat="40.85016218565718" lon="9.11192131693299"><ele>581.0</ele><time>2026-05-03T09:55:58Z</time></trkpt><trkpt lat="40.85034531222455" lon="9.112021123803345"><ele>581.6666666666666</ele><time>2026-05-03T09:55:59Z</time></trkpt><trkpt lat="40.85051345487582" lon="9.112159671711451"><ele>582.3333333333334</ele><time>2026-05-03T09:56:00Z</time></trkpt><trkpt lat="40.85067660734353" lon="9.11232056942002"><ele>583.0</ele><time>2026-05-03T09:56:01Z</time></trkpt><trkpt lat="40.85084762409027" lon="9.112467440018877"><ele>574.6666666666667</ele><time>2026-05-03T09:56:02Z</time></trkpt><trkpt lat="40.851029287496225" lon="9.112598680155498"><ele>566.3333333333334</ele><time>2026-05-03T09:56:03Z</time></trkpt><trkpt lat="40.851219627084134" lon="9.112729281403269"><ele>558.0</ele><time>2026-05-03T09:56:04Z</time></trkpt><trkpt lat="40.85141396029979" lon="9.112846011920587"><ele>558.0</ele><time>2026-05-03T09:56:05Z</time></trkpt><trkpt lat="40.85159744638566" lon="9.112958606935065"><ele>558.0</ele><time>2026-05-03T09:56:06Z</time></trkpt><trkpt lat="40.85177223323628" lon="9.113076029073682"><ele>558.0</ele><time>2026-05-03T09:56:07Z</time></trkpt><trkpt lat="40.85194229212598" lon="9.113222368836583"><ele>557.3333333333334</ele><time>2026-05-03T09:56:08Z</time></trkpt><trkpt lat="40.852104531280766" lon="9.11340035263541"><ele>556.6666666666667</ele><time>2026-05-03T09:56:09Z</time></trkpt><trkpt lat="40.852271386089726" lon="9.113577604344217"><ele>556.0</ele><time>2026-05-03T09:56:10Z</time></trkpt><trkpt lat="40.852443038057245" lon="9.113729397168983"><ele>556.0</ele><time>2026-05-03T09:56:11Z</time></trkpt><trkpt lat="40.85261083407851" lon="9.11387101981482"><ele>556.0</ele><time>2026-05-03T09:56:12Z</time></trkpt><trkpt lat="40.85276225553423" lon="9.114023321685586"><ele>556.0</ele><time>2026-05-03T09:56:13Z</time></trkpt><trkpt lat="40.852907114715705" lon="9.114183275773373"><ele>552.6666666666667</ele><time>2026-05-03T09:56:14Z</time></trkpt><trkpt lat="40.853068795597835" lon="9.11432339747476"><ele>549.3333333333334</ele><time>2026-05-03T09:56:15Z</time></trkpt><trkpt lat="40.85324283328099" lon="9.114442110096805"><ele>546.0</ele><time>2026-05-03T09:56:16Z</time></trkpt><trkpt lat="40.85343813911581" lon="9.114566421140546"><ele>545.0</ele><time>2026-05-03T09:56:17Z</time></trkpt><trkpt lat="40.853619101784155" lon="9.114714639915746"><ele>544.0</ele><time>2026-05-03T09:56:18Z</time></trkpt><trkpt lat="40.85379320454622" lon="9.114880677749829"><ele>543.0</ele><time>2026-05-03T09:56:19Z</time></trkpt><trkpt lat="40.85396172264636" lon="9.115047123454259"><ele>543.0</ele><time>2026-05-03T09:56:20Z</time></trkpt><trkpt lat="40.854119798813336" lon="9.115213631824663"><ele>543.0</ele><time>2026-05-03T09:56:21Z</time></trkpt><trkpt lat="40.85427210118738" lon="9.115411297253548"><ele>543.0</ele><time>2026-05-03T09:56:22Z</time></trkpt><trkpt lat="40.85439179473408" lon="9.11563534154752"><ele>539.5</ele><time>2026-05-03T09:56:23Z</time></trkpt><trkpt lat="40.854563058521094" lon="9.115860155286335"><ele>536.0</ele><time>2026-05-03T09:56:24Z</time></trkpt><trkpt lat="40.854725532066254" lon="9.11608934380248"><ele>536.0</ele><time>2026-05-03T09:56:25Z</time></trkpt><trkpt lat="40.85488342702079" lon="9.116295497107256"><ele>536.0</ele><time>2026-05-03T09:56:26Z</time></trkpt><trkpt lat="40.85504217300882" lon="9.116478521618523"><ele>536.0</ele><time>2026-05-03T09:56:27Z</time></trkpt><trkpt lat="40.85518265709612" lon="9.11665442595257"><ele>535.0</ele><time>2026-05-03T09:56:28Z</time></trkpt><trkpt lat="40.855322644881134" lon="9.116828990276508"><ele>534.0</ele><time>2026-05-03T09:56:29Z</time></trkpt><trkpt lat="40.855460836688714" lon="9.117002897287769"><ele>533.0</ele><time>2026-05-03T09:56:30Z</time></trkpt><trkpt lat="40.85559332588417" lon="9.11717761274702"><ele>533.0</ele><time>2026-05-03T09:56:31Z</time></trkpt><trkpt lat="40.85570939927302" lon="9.117351256505971"><ele>533.0</ele><time>2026-05-03T09:56:32Z</time></trkpt><trkpt lat="40.855807293082684" lon="9.117522672756856"><ele>533.0</ele><time>2026-05-03T09:56:33Z</time></trkpt><trkpt lat="40.85589515307543" lon="9.117685462795068"><ele>532.75</ele><time>2026-05-03T09:56:34Z</time></trkpt><trkpt lat="40.85598298248067" lon="9.117837957283937"><ele>532.5</ele><time>2026-05-03T09:56:35Z</time></trkpt><trkpt lat="40.856053162733886" lon="9.117998422111686"><ele>532.25</ele><time>2026-05-03T09:56:36Z</time></trkpt><trkpt lat="40.856141991281625" lon="9.118149815560354"><ele>532.0</ele><time>2026-05-03T09:56:37Z</time></trkpt><trkpt lat="40.856238117868806" lon="9.118306997829402"><ele>536.6666666666667</ele><time>2026-05-03T09:56:38Z</time></trkpt><trkpt lat="40.856354382545234" lon="9.118460119928876"><ele>541.3333333333334</ele><time>2026-05-03T09:56:39Z</time></trkpt><trkpt lat="40.8564483409919" lon="9.11860795734961"><ele>546.0</ele><time>2026-05-03T09:56:40Z</time></trkpt><trkpt lat="40.856555942282284" lon="9.118742581824328"><ele>546.0</ele><time>2026-05-03T09:56:41Z</time></trkpt><trkpt lat="40.85667954893369" lon="9.118831743619593"><ele>546.0</ele><time>2026-05-03T09:56:42Z</time></trkpt><trkpt lat="40.85682579537731" lon="9.118861766598322"><ele>546.0</ele><time>2026-05-03T09:56:43Z</time></trkpt><trkpt lat="40.856980665888315" lon="9.118874897990143"><ele>546.0</ele><time>2026-05-03T09:56:44Z</time></trkpt><trkpt lat="40.85713127054567" lon="9.118920062616896"><ele>548.3333333333334</ele><time>2026-05-03T09:56:45Z</time></trkpt><trkpt lat="40.85727591872613" lon="9.119018098765139"><ele>550.6666666666667</ele><time>2026-05-03T09:56:46Z</time></trkpt><trkpt lat="40.857414922548024" lon="9.119160788687173"><ele>553.0</ele><time>2026-05-03T09:56:47Z</time></trkpt><trkpt lat="40.85756147420844" lon="9.119339880895511"><ele>546.0</ele><time>2026-05-03T09:56:48Z</time></trkpt><trkpt lat="40.85769677416747" lon="9.119466492341601"><ele>539.0</ele><time>2026-05-03T09:56:49Z</time></trkpt><trkpt lat="40.857821422070636" lon="9.119588831083815"><ele>532.0</ele><time>2026-05-03T09:56:50Z</time></trkpt><trkpt lat="40.857923762261414" lon="9.119728877744322"><ele>535.3333333333334</ele><time>2026-05-03T09:56:51Z</time></trkpt><trkpt lat="40.85797717216464" lon="9.119924724451126"><ele>538.6666666666666</ele><time>2026-05-03T09:56:52Z</time></trkpt><trkpt lat="40.858023663987225" lon="9.120144326388363"><ele>542.0</ele><time>2026-05-03T09:56:53Z</time></trkpt><trkpt lat="40.858072890258654" lon="9.120380559886843"><ele>542.0</ele><time>2026-05-03T09:56:54Z</time></trkpt><trkpt lat="40.858137349184105" lon="9.12062692574201"><ele>542.0</ele><time>2026-05-03T09:56:55Z</time></trkpt><trkpt lat="40.858187736824135" lon="9.12088110968559"><ele>542.0</ele><time>2026-05-03T09:56:56Z</time></trkpt><trkpt lat="40.85824175183386" lon="9.121114482364083"><ele>542.6666666666666</ele><time>2026-05-03T09:56:57Z</time></trkpt><trkpt lat="40.85828824961578" lon="9.121338544262189"><ele>543.3333333333334</ele><time>2026-05-03T09:56:58Z</time></trkpt><trkpt lat="40.858335015046784" lon="9.12155388951596"><ele>544.0</ele><time>2026-05-03T09:56:59Z</time></trkpt><trkpt lat="40.85836467565773" lon="9.121773441145875"><ele>545.6666666666667</ele><time>2026-05-03T09:57:00Z</time></trkpt><trkpt lat="40.858421281152665" lon="9.121982131963481"><ele>547.3333333333334</ele><time>2026-05-03T09:57:01Z</time></trkpt><trkpt lat="40.85846815308524" lon="9.122186463408267"><ele>549.0</ele><time>2026-05-03T09:57:02Z</time></trkpt><trkpt lat="40.85849119241251" lon="9.122376523529299"><ele>548.5</ele><time>2026-05-03T09:57:03Z</time></trkpt><trkpt lat="40.85854980945652" lon="9.122525833124625"><ele>548.0</ele><time>2026-05-03T09:57:04Z</time></trkpt><trkpt lat="40.858617748286036" lon="9.122639640892396"><ele>547.5</ele><time>2026-05-03T09:57:05Z</time></trkpt><trkpt lat="40.858725861534914" lon="9.12269192046838"><ele>547.0</ele><time>2026-05-03T09:57:06Z</time></trkpt><trkpt lat="40.85884557832642" lon="9.122706177761897"><ele>547.0</ele><time>2026-05-03T09:57:07Z</time></trkpt><trkpt lat="40.85898769336236" lon="9.122696287419581"><ele>547.0</ele><time>2026-05-03T09:57:08Z</time></trkpt><trkpt lat="40.8591416255299" lon="9.122714585979697"><ele>547.0</ele><time>2026-05-03T09:57:09Z</time></trkpt><trkpt lat="40.859294545075684" lon="9.1227230991321"><ele>547.5</ele><time>2026-05-03T09:57:10Z</time></trkpt><trkpt lat="40.85942141545694" lon="9.122733839273659"><ele>548.0</ele><time>2026-05-03T09:57:11Z</time></trkpt><trkpt lat="40.8595464103075" lon="9.122763726802752"><ele>548.5</ele><time>2026-05-03T09:57:12Z</time></trkpt><trkpt lat="40.85963832292412" lon="9.122833304249175"><ele>549.0</ele><time>2026-05-03T09:57:13Z</time></trkpt><trkpt lat="40.859710314640296" lon="9.122951513094606"><ele>549.0</ele><time>2026-05-03T09:57:14Z</time></trkpt><trkpt lat="40.85977968683642" lon="9.123147923667439"><ele>549.0</ele><time>2026-05-03T09:57:15Z</time></trkpt><trkpt lat="40.85984670275819" lon="9.123348747435424"><ele>549.0</ele><time>2026-05-03T09:57:16Z</time></trkpt><trkpt lat="40.85991921960432" lon="9.123549331188203"><ele>551.6666666666666</ele><time>2026-05-03T09:57:17Z</time></trkpt><trkpt lat="40.86001670420692" lon="9.123732383069528"><ele>554.3333333333333</ele><time>2026-05-03T09:57:18Z</time></trkpt><trkpt lat="40.86014221444713" lon="9.123883678685832"><ele>557.0</ele><time>2026-05-03T09:57:19Z</time></trkpt><trkpt lat="40.86028554796533" lon="9.12400117365644"><ele>556.75</ele><time>2026-05-03T09:57:20Z</time></trkpt><trkpt lat="40.86041850193944" lon="9.124084566979613"><ele>556.5</ele><time>2026-05-03T09:57:21Z</time></trkpt><trkpt lat="40.860548906491154" lon="9.124134546166013"><ele>556.25</ele><time>2026-05-03T09:57:22Z</time></trkpt><trkpt lat="40.86067182785349" lon="9.12416770471163"><ele>556.0</ele><time>2026-05-03T09:57:23Z</time></trkpt><trkpt lat="40.860786890414374" lon="9.124214385775673"><ele>556.0</ele><time>2026-05-03T09:57:24Z</time></trkpt><trkpt lat="40.860851265395326" lon="9.124332255044985"><ele>556.0</ele><time>2026-05-03T09:57:25Z</time></trkpt><trkpt lat="40.86087228352196" lon="9.124488723698153"><ele>556.0</ele><time>2026-05-03T09:57:26Z</time></trkpt><trkpt lat="40.8608720708871" lon="9.124662780967956"><ele>556.0</ele><time>2026-05-03T09:57:27Z</time></trkpt><trkpt lat="40.86087077905771" lon="9.12484861289416"><ele>556.0</ele><time>2026-05-03T09:57:28Z</time></trkpt><trkpt lat="40.86087315101643" lon="9.125044349258898"><ele>556.0</ele><time>2026-05-03T09:57:29Z</time></trkpt><trkpt lat="40.86087356266094" lon="9.125240123599527"><ele>556.0</ele><time>2026-05-03T09:57:30Z</time></trkpt><trkpt lat="40.86090902053371" lon="9.125435923655669"><ele>556.0</ele><time>2026-05-03T09:57:31Z</time></trkpt><trkpt lat="40.86096312671228" lon="9.125620713164249"><ele>559.5</ele><time>2026-05-03T09:57:32Z</time></trkpt><trkpt lat="40.8610243159759" lon="9.125777759112454"><ele>563.0</ele><time>2026-05-03T09:57:33Z</time></trkpt><trkpt lat="40.86108451588436" lon="9.12592115309004"><ele>566.5</ele><time>2026-05-03T09:57:34Z</time></trkpt><trkpt lat="40.861134854054136" lon="9.126048529715426"><ele>570.0</ele><time>2026-05-03T09:57:35Z</time></trkpt><trkpt lat="40.86118657116314" lon="9.12617392802657"><ele>570.0</ele><time>2026-05-03T09:57:36Z</time></trkpt><trkpt lat="40.86124287217985" lon="9.12629137526054"><ele>570.0</ele><time>2026-05-03T09:57:37Z</time></trkpt><trkpt lat="40.8613162145942" lon="9.126401231213515"><ele>570.0</ele><time>2026-05-03T09:57:38Z</time></trkpt><trkpt lat="40.86141195150009" lon="9.12649308158381"><ele>570.0</ele><time>2026-05-03T09:57:39Z</time></trkpt><trkpt lat="40.86152206357742" lon="9.126569831209935"><ele>571.0</ele><time>2026-05-03T09:57:40Z</time></trkpt><trkpt lat="40.86163313704627" lon="9.12664121994189"><ele>572.0</ele><time>2026-05-03T09:57:41Z</time></trkpt><trkpt lat="40.86174292370839" lon="9.126712409239188"><ele>573.0</ele><time>2026-05-03T09:57:42Z</time></trkpt><trkpt lat="40.86185094438928" lon="9.126810846371196"><ele>574.0</ele><time>2026-05-03T09:57:43Z</time></trkpt><trkpt lat="40.861929771156625" lon="9.126918512584076"><ele>574.0</ele><time>2026-05-03T09:57:44Z</time></trkpt><trkpt lat="40.861983985796634" lon="9.127027932149064"><ele>574.0</ele><time>2026-05-03T09:57:45Z</time></trkpt><trkpt lat="40.862026591188766" lon="9.12714026100388"><ele>574.0</ele><time>2026-05-03T09:57:46Z</time></trkpt><trkpt lat="40.862063867381856" lon="9.127267711527521"><ele>574.0</ele><time>2026-05-03T09:57:47Z</time></trkpt><trkpt lat="40.86207848918662" lon="9.127403465234655"><ele>574.0</ele><time>2026-05-03T09:57:48Z</time></trkpt><trkpt lat="40.862072325143366" lon="9.127507973798435"><ele>574.0</ele><time>2026-05-03T09:57:49Z</time></trkpt><trkpt lat="40.86204589318909" lon="9.12759186643194"><ele>574.0</ele><time>2026-05-03T09:57:50Z</time></trkpt><trkpt lat="40.86196056367795" lon="9.127437223914823"><ele>574.0</ele><time>2026-05-03T09:57:56Z</time></trkpt><trkpt lat="40.86197625922411" lon="9.12734382009525"><ele>574.0</ele><time>2026-05-03T09:57:57Z</time></trkpt><trkpt lat="40.86195854767611" lon="9.127234672055462"><ele>574.0</ele><time>2026-05-03T09:57:59Z</time></trkpt><trkpt lat="40.861958994378284" lon="9.12714465030135"><ele>574.0</ele><time>2026-05-03T10:01:24Z</time></trkpt><trkpt lat="40.86189629050522" lon="9.127058260817924"><ele>574.0</ele><time>2026-05-03T10:01:26Z</time></trkpt><trkpt lat="40.8618510686438" lon="9.126993058742542"><ele>574.0</ele><time>2026-05-03T10:01:27Z</time></trkpt><trkpt lat="40.86179316162861" lon="9.126937632243987"><ele>574.0</ele><time>2026-05-03T10:01:28Z</time></trkpt><trkpt lat="40.86174116247566" lon="9.126876323476923"><ele>574.0</ele><time>2026-05-03T10:01:29Z</time></trkpt><trkpt lat="40.86164160727612" lon="9.126808456898102"><ele>574.0</ele><time>2026-05-03T10:01:31Z</time></trkpt><trkpt lat="40.86157303965598" lon="9.126822617886347"><ele>574.0</ele><time>2026-05-03T10:01:32Z</time></trkpt><trkpt lat="40.86151297540125" lon="9.12687541952806"><ele>575.3333333333334</ele><time>2026-05-03T10:01:33Z</time></trkpt><trkpt lat="40.86148089331255" lon="9.126982434906799"><ele>576.6666666666667</ele><time>2026-05-03T10:01:34Z</time></trkpt><trkpt lat="40.861477239771524" lon="9.127079710581379"><ele>578.0</ele><time>2026-05-03T10:01:35Z</time></trkpt><trkpt lat="40.86153637605349" lon="9.127176958663407"><ele>579.3333333333334</ele><time>2026-05-03T10:01:36Z</time></trkpt><trkpt lat="40.8615739273765" lon="9.127263983295709"><ele>580.6666666666666</ele><time>2026-05-03T10:01:37Z</time></trkpt><trkpt lat="40.86161001872934" lon="9.12735394619572"><ele>582.0</ele><time>2026-05-03T10:01:38Z</time></trkpt><trkpt lat="40.86164711245974" lon="9.127441292885548"><ele>584.0</ele><time>2026-05-03T10:01:39Z</time></trkpt><trkpt lat="40.86168020729704" lon="9.127528882664166"><ele>586.0</ele><time>2026-05-03T10:01:40Z</time></trkpt><trkpt lat="40.8617180298883" lon="9.127622988693377"><ele>588.0</ele><time>2026-05-03T10:01:41Z</time></trkpt><trkpt lat="40.86175229342257" lon="9.127730478776888"><ele>590.0</ele><time>2026-05-03T10:01:42Z</time></trkpt><trkpt lat="40.861770990713225" lon="9.127842234979807"><ele>592.0</ele><time>2026-05-03T10:01:43Z</time></trkpt><trkpt lat="40.861742442422006" lon="9.127943837367404"><ele>594.0</ele><time>2026-05-03T10:01:44Z</time></trkpt><trkpt lat="40.86170716444248" lon="9.128015947114022"><ele>594.0</ele><time>2026-05-03T10:01:45Z</time></trkpt><trkpt lat="40.86160814840303" lon="9.128051782348885"><ele>594.0</ele><time>2026-05-03T10:01:47Z</time></trkpt><trkpt lat="40.86155153531535" lon="9.127950075991732"><ele>594.0</ele><time>2026-05-03T10:01:49Z</time></trkpt><trkpt lat="40.86152182293284" lon="9.127857544989824"><ele>594.0</ele><time>2026-05-03T10:01:50Z</time></trkpt><trkpt lat="40.861486084590915" lon="9.127747237901895"><ele>594.0</ele><time>2026-05-03T10:01:51Z</time></trkpt><trkpt lat="40.86142284616169" lon="9.127620353555567"><ele>594.0</ele><time>2026-05-03T10:01:52Z</time></trkpt><trkpt lat="40.86132231179562" lon="9.12750749238762"><ele>594.0</ele><time>2026-05-03T10:01:53Z</time></trkpt><trkpt lat="40.86120336899243" lon="9.127432081039544"><ele>594.0</ele><time>2026-05-03T10:01:54Z</time></trkpt><trkpt lat="40.861084822897254" lon="9.127338495963382"><ele>594.0</ele><time>2026-05-03T10:01:55Z</time></trkpt><trkpt lat="40.86098789403599" lon="9.127268935414254"><ele>595.0</ele><time>2026-05-03T10:01:56Z</time></trkpt><trkpt lat="40.86091751314551" lon="9.127198554990146"><ele>596.0</ele><time>2026-05-03T10:01:57Z</time></trkpt><trkpt lat="40.860834310870636" lon="9.12721686267201"><ele>597.0</ele><time>2026-05-03T10:01:58Z</time></trkpt><trkpt lat="40.86078456752733" lon="9.127319323529214"><ele>598.0</ele><time>2026-05-03T10:01:59Z</time></trkpt><trkpt lat="40.86081445029528" lon="9.127450968454118"><ele>599.0</ele><time>2026-05-03T10:02:00Z</time></trkpt><trkpt lat="40.86091749901023" lon="9.127535238729783"><ele>597.75</ele><time>2026-05-03T10:02:01Z</time></trkpt><trkpt lat="40.86100323866603" lon="9.127636434886586"><ele>596.5</ele><time>2026-05-03T10:02:02Z</time></trkpt><trkpt lat="40.861090344815544" lon="9.127777196530808"><ele>595.25</ele><time>2026-05-03T10:02:03Z</time></trkpt><trkpt lat="40.861124209245105" lon="9.127953875678577"><ele>594.0</ele><time>2026-05-03T10:02:04Z</time></trkpt><trkpt lat="40.86117349829246" lon="9.128143554076171"><ele>596.5</ele><time>2026-05-03T10:02:05Z</time></trkpt><trkpt lat="40.86121587550024" lon="9.128330910940342"><ele>599.0</ele><time>2026-05-03T10:02:06Z</time></trkpt><trkpt lat="40.86124791894221" lon="9.128465166194106"><ele>601.5</ele><time>2026-05-03T10:02:07Z</time></trkpt><trkpt lat="40.86119406607323" lon="9.128554216640708"><ele>604.0</ele><time>2026-05-03T10:02:09Z</time></trkpt><trkpt lat="40.86107299615082" lon="9.128487538589031"><ele>604.0</ele><time>2026-05-03T10:02:11Z</time></trkpt><trkpt lat="40.86100902833054" lon="9.128342964762442"><ele>604.0</ele><time>2026-05-03T10:02:12Z</time></trkpt><trkpt lat="40.860917630505654" lon="9.12819040890704"><ele>604.0</ele><time>2026-05-03T10:02:13Z</time></trkpt><trkpt lat="40.860828424473944" lon="9.128005804215528"><ele>604.0</ele><time>2026-05-03T10:02:14Z</time></trkpt><trkpt lat="40.860726934172014" lon="9.127818567771108"><ele>602.3333333333334</ele><time>2026-05-03T10:02:15Z</time></trkpt><trkpt lat="40.86061938468829" lon="9.127608639312486"><ele>600.6666666666666</ele><time>2026-05-03T10:02:16Z</time></trkpt><trkpt lat="40.86049262906199" lon="9.127403903442657"><ele>599.0</ele><time>2026-05-03T10:02:17Z</time></trkpt><trkpt lat="40.86036707386693" lon="9.127193030386065"><ele>599.0</ele><time>2026-05-03T10:02:18Z</time></trkpt><trkpt lat="40.860254025565325" lon="9.126999831752176"><ele>599.0</ele><time>2026-05-03T10:02:19Z</time></trkpt><trkpt lat="40.86014584099916" lon="9.126842870259809"><ele>599.0</ele><time>2026-05-03T10:02:20Z</time></trkpt><trkpt lat="40.860052442560054" lon="9.126687760868563"><ele>603.0</ele><time>2026-05-03T10:02:21Z</time></trkpt><trkpt lat="40.85994998818502" lon="9.126540652393858"><ele>607.0</ele><time>2026-05-03T10:02:22Z</time></trkpt><trkpt lat="40.85984668655721" lon="9.12639801983676"><ele>611.0</ele><time>2026-05-03T10:02:23Z</time></trkpt><trkpt lat="40.85973948865139" lon="9.126272442159797"><ele>615.0</ele><time>2026-05-03T10:02:24Z</time></trkpt><trkpt lat="40.85963704536991" lon="9.126142279092548"><ele>615.0</ele><time>2026-05-03T10:02:25Z</time></trkpt><trkpt lat="40.859540193263555" lon="9.126025035880387"><ele>615.0</ele><time>2026-05-03T10:02:26Z</time></trkpt><trkpt lat="40.8594484678519" lon="9.125934346527378"><ele>615.0</ele><time>2026-05-03T10:02:27Z</time></trkpt><trkpt lat="40.85936163616895" lon="9.125886890831563"><ele>615.0</ele><time>2026-05-03T10:02:28Z</time></trkpt><trkpt lat="40.85926335402329" lon="9.125934317336439"><ele>615.0</ele><time>2026-05-03T10:02:29Z</time></trkpt><trkpt lat="40.8591958524587" lon="9.126032929835574"><ele>618.0</ele><time>2026-05-03T10:02:30Z</time></trkpt><trkpt lat="40.859199141974926" lon="9.126196532248677"><ele>621.0</ele><time>2026-05-03T10:02:31Z</time></trkpt><trkpt lat="40.85919980053359" lon="9.126374479317382"><ele>624.0</ele><time>2026-05-03T10:02:32Z</time></trkpt><trkpt lat="40.85920229183108" lon="9.126574273765366"><ele>627.0</ele><time>2026-05-03T10:02:33Z</time></trkpt><trkpt lat="40.85922446240557" lon="9.126773899239758"><ele>628.3333333333334</ele><time>2026-05-03T10:02:34Z</time></trkpt><trkpt lat="40.859263974314594" lon="9.126989732057739"><ele>629.6666666666667</ele><time>2026-05-03T10:02:35Z</time></trkpt><trkpt lat="40.85935814526536" lon="9.127180301151812"><ele>631.0</ele><time>2026-05-03T10:02:36Z</time></trkpt><trkpt lat="40.8594366496087" lon="9.12740378765785"><ele>634.3333333333334</ele><time>2026-05-03T10:02:37Z</time></trkpt><trkpt lat="40.85947702109248" lon="9.127644052385493"><ele>637.6666666666666</ele><time>2026-05-03T10:02:38Z</time></trkpt><trkpt lat="40.85952261729989" lon="9.1278570181451"><ele>641.0</ele><time>2026-05-03T10:02:39Z</time></trkpt><trkpt lat="40.859587171246666" lon="9.128080016481839"><ele>644.3333333333333</ele><time>2026-05-03T10:02:40Z</time></trkpt><trkpt lat="40.859626616771706" lon="9.12830155320235"><ele>647.6666666666666</ele><time>2026-05-03T10:02:41Z</time></trkpt><trkpt lat="40.859627100468465" lon="9.12850275040395"><ele>651.0</ele><time>2026-05-03T10:02:42Z</time></trkpt><trkpt lat="40.85961648993366" lon="9.128674289394954"><ele>651.0</ele><time>2026-05-03T10:02:43Z</time></trkpt><trkpt lat="40.859587480716286" lon="9.12890459039275"><ele>651.0</ele><time>2026-05-03T10:02:44Z</time></trkpt><trkpt lat="40.85956392320396" lon="9.129106814512468"><ele>651.0</ele><time>2026-05-03T10:02:45Z</time></trkpt><trkpt lat="40.85951630061577" lon="9.12929218624253"><ele>652.75</ele><time>2026-05-03T10:02:46Z</time></trkpt><trkpt lat="40.85948156672074" lon="9.129478464758954"><ele>654.5</ele><time>2026-05-03T10:02:47Z</time></trkpt><trkpt lat="40.85944526343634" lon="9.129673067971831"><ele>656.25</ele><time>2026-05-03T10:02:48Z</time></trkpt><trkpt lat="40.85941070611841" lon="9.129856513194868"><ele>658.0</ele><time>2026-05-03T10:02:49Z</time></trkpt><trkpt lat="40.85938326050837" lon="9.129998998990297"><ele>658.5999999999999</ele><time>2026-05-03T10:02:50Z</time></trkpt><trkpt lat="40.85935551720772" lon="9.130101486916358"><ele>659.1999999999999</ele><time>2026-05-03T10:02:51Z</time></trkpt><trkpt lat="40.859295499206894" lon="9.130186787062845"><ele>659.8</ele><time>2026-05-03T10:02:53Z</time></trkpt><trkpt lat="40.85922195056952" lon="9.13007514676295"><ele>660.4</ele><time>2026-05-03T10:02:55Z</time></trkpt><trkpt lat="40.859226594432535" lon="9.129946115305408"><ele>661.0</ele><time>2026-05-03T10:02:56Z</time></trkpt><trkpt lat="40.85924338525519" lon="9.129802856141296"><ele>665.75</ele><time>2026-05-03T10:02:57Z</time></trkpt><trkpt lat="40.8592321526219" lon="9.129658014590815"><ele>670.5</ele><time>2026-05-03T10:02:58Z</time></trkpt><trkpt lat="40.85918673079656" lon="9.129522017914876"><ele>675.25</ele><time>2026-05-03T10:02:59Z</time></trkpt><trkpt lat="40.85910749359824" lon="9.12937794816335"><ele>680.0</ele><time>2026-05-03T10:03:00Z</time></trkpt><trkpt lat="40.85901017829242" lon="9.129291086078089"><ele>680.0</ele><time>2026-05-03T10:03:01Z</time></trkpt><trkpt lat="40.858921116798996" lon="9.129240246909044"><ele>680.0</ele><time>2026-05-03T10:03:02Z</time></trkpt><trkpt lat="40.85884335463779" lon="9.129208728049344"><ele>680.0</ele><time>2026-05-03T10:03:03Z</time></trkpt><trkpt lat="40.85876544799528" lon="9.12920402752355"><ele>680.0</ele><time>2026-05-03T10:03:04Z</time></trkpt><trkpt lat="40.85866538957214" lon="9.129314021347895"><ele>680.0</ele><time>2026-05-03T10:03:06Z</time></trkpt><trkpt lat="40.85866404282078" lon="9.129434143355697"><ele>680.0</ele><time>2026-05-03T10:03:07Z</time></trkpt><trkpt lat="40.85873267349044" lon="9.129536189815159"><ele>680.0</ele><time>2026-05-03T10:03:08Z</time></trkpt><trkpt lat="40.8587737610176" lon="9.129655723078438"><ele>680.0</ele><time>2026-05-03T10:03:09Z</time></trkpt><trkpt lat="40.858808524499764" lon="9.129807562166704"><ele>680.0</ele><time>2026-05-03T10:03:10Z</time></trkpt><trkpt lat="40.858810347651996" lon="9.129946029666609"><ele>680.0</ele><time>2026-05-03T10:03:11Z</time></trkpt><trkpt lat="40.85880538464954" lon="9.130051198505106"><ele>681.1666666666666</ele><time>2026-05-03T10:03:12Z</time></trkpt><trkpt lat="40.85880574091017" lon="9.130136234316991"><ele>682.3333333333333</ele><time>2026-05-03T10:03:13Z</time></trkpt><trkpt lat="40.858789989983215" lon="9.130232319454615"><ele>683.5</ele><time>2026-05-03T10:03:15Z</time></trkpt><trkpt lat="40.85876287577203" lon="9.130314039749098"><ele>684.6666666666666</ele><time>2026-05-03T10:03:17Z</time></trkpt><trkpt lat="40.85868614968923" lon="9.130303409810072"><ele>685.8333333333334</ele><time>2026-05-03T10:03:19Z</time></trkpt><trkpt lat="40.85866675736162" lon="9.130188552865205"><ele>687.0</ele><time>2026-05-03T10:03:20Z</time></trkpt><trkpt lat="40.858612875929715" lon="9.13010098530815"><ele>687.0</ele><time>2026-05-03T10:03:21Z</time></trkpt><trkpt lat="40.85854371489514" lon="9.129998728949944"><ele>687.0</ele><time>2026-05-03T10:03:22Z</time></trkpt><trkpt lat="40.858438656675375" lon="9.12990547181578"><ele>687.0</ele><time>2026-05-03T10:03:23Z</time></trkpt><trkpt lat="40.858307445275805" lon="9.129877558884333"><ele>687.0</ele><time>2026-05-03T10:03:24Z</time></trkpt><trkpt lat="40.85820754823457" lon="9.129833497888413"><ele>686.2</ele><time>2026-05-03T10:03:25Z</time></trkpt><trkpt lat="40.85812958126849" lon="9.129794960923805"><ele>685.4000000000001</ele><time>2026-05-03T10:03:26Z</time></trkpt><trkpt lat="40.858061803177094" lon="9.129805997954373"><ele>684.5999999999999</ele><time>2026-05-03T10:03:27Z</time></trkpt><trkpt lat="40.858017306583534" lon="9.129870588959463"><ele>683.8</ele><time>2026-05-03T10:03:28Z</time></trkpt><trkpt lat="40.858010804784655" lon="9.130083523548109"><ele>683.0</ele><time>2026-05-03T10:03:30Z</time></trkpt><trkpt lat="40.85812802139831" lon="9.130142409504218"><ele>685.8333333333333</ele><time>2026-05-03T10:03:31Z</time></trkpt><trkpt lat="40.85821139614518" lon="9.130187461264702"><ele>688.6666666666666</ele><time>2026-05-03T10:03:32Z</time></trkpt><trkpt lat="40.85828936429731" lon="9.13022970991594"><ele>691.5</ele><time>2026-05-03T10:03:33Z</time></trkpt><trkpt lat="40.85832091015851" lon="9.130320052462013"><ele>694.3333333333334</ele><time>2026-05-03T10:03:34Z</time></trkpt><trkpt lat="40.85832628226621" lon="9.130445303122395"><ele>697.1666666666667</ele><time>2026-05-03T10:03:35Z</time></trkpt><trkpt lat="40.858304534541276" lon="9.130566884858816"><ele>700.0</ele><time>2026-05-03T10:03:36Z</time></trkpt><trkpt lat="40.858257828790975" lon="9.130676686638246"><ele>700.0</ele><time>2026-05-03T10:03:37Z</time></trkpt><trkpt lat="40.85816769997072" lon="9.130721935227335"><ele>700.0</ele><time>2026-05-03T10:03:38Z</time></trkpt><trkpt lat="40.85807779993984" lon="9.13072590783401"><ele>700.0</ele><time>2026-05-03T10:03:39Z</time></trkpt><trkpt lat="40.85799075203108" lon="9.130684588458438"><ele>700.0</ele><time>2026-05-03T10:03:40Z</time></trkpt><trkpt lat="40.85790608013043" lon="9.13064013752973"><ele>700.0</ele><time>2026-05-03T10:03:41Z</time></trkpt><trkpt lat="40.857814285636884" lon="9.130604099303978"><ele>700.0</ele><time>2026-05-03T10:03:42Z</time></trkpt><trkpt lat="40.85772028688167" lon="9.130670659353605"><ele>700.0</ele><time>2026-05-03T10:03:43Z</time></trkpt><trkpt lat="40.85768337085489" lon="9.13080361401193"><ele>700.0</ele><time>2026-05-03T10:03:44Z</time></trkpt><trkpt lat="40.85771850195862" lon="9.130951123592633"><ele>700.0</ele><time>2026-05-03T10:03:45Z</time></trkpt><trkpt lat="40.857813937188546" lon="9.131041457042667"><ele>700.0</ele><time>2026-05-03T10:03:46Z</time></trkpt><trkpt lat="40.857906999827684" lon="9.131137645097365"><ele>703.8</ele><time>2026-05-03T10:03:47Z</time></trkpt><trkpt lat="40.858025401952965" lon="9.13121160496823"><ele>707.6</ele><time>2026-05-03T10:03:48Z</time></trkpt><trkpt lat="40.85810695200543" lon="9.131296087272036"><ele>711.4000000000001</ele><time>2026-05-03T10:03:49Z</time></trkpt><trkpt lat="40.858176611360484" lon="9.131334749555114"><ele>715.2</ele><time>2026-05-03T10:03:50Z</time></trkpt><trkpt lat="40.858173900199134" lon="9.131459071964997"><ele>719.0</ele><time>2026-05-03T10:03:52Z</time></trkpt><trkpt lat="40.858111106740765" lon="9.131496707738526"><ele>719.0</ele><time>2026-05-03T10:03:53Z</time></trkpt><trkpt lat="40.85802118666135" lon="9.131455675775765"><ele>719.0</ele><time>2026-05-03T10:03:54Z</time></trkpt><trkpt lat="40.857909753938486" lon="9.131432993607541"><ele>719.0</ele><time>2026-05-03T10:03:55Z</time></trkpt><trkpt lat="40.857772061800226" lon="9.131437650419056"><ele>719.0</ele><time>2026-05-03T10:03:56Z</time></trkpt><trkpt lat="40.857625289229354" lon="9.131433732869866"><ele>719.0</ele><time>2026-05-03T10:03:57Z</time></trkpt><trkpt lat="40.85748698546205" lon="9.131443044444822"><ele>719.0</ele><time>2026-05-03T10:03:58Z</time></trkpt><trkpt lat="40.8573823610039" lon="9.131457860446062"><ele>719.0</ele><time>2026-05-03T10:03:59Z</time></trkpt><trkpt lat="40.85729213233437" lon="9.13144410445739"><ele>719.0</ele><time>2026-05-03T10:04:00Z</time></trkpt><trkpt lat="40.85722003776923" lon="9.131519883807496"><ele>719.0</ele><time>2026-05-03T10:04:02Z</time></trkpt><trkpt lat="40.8572164418167" lon="9.131624553852083"><ele>725.0</ele><time>2026-05-03T10:04:03Z</time></trkpt><trkpt lat="40.85731757403874" lon="9.131712134592007"><ele>731.0</ele><time>2026-05-03T10:04:04Z</time></trkpt><trkpt lat="40.857440270724844" lon="9.131757104161531"><ele>737.0</ele><time>2026-05-03T10:04:05Z</time></trkpt><trkpt lat="40.85757225638408" lon="9.131803072455469"><ele>743.0</ele><time>2026-05-03T10:04:06Z</time></trkpt><trkpt lat="40.85771669374457" lon="9.1318507957669"><ele>743.0</ele><time>2026-05-03T10:04:07Z</time></trkpt><trkpt lat="40.85784437477047" lon="9.13189557696564"><ele>743.0</ele><time>2026-05-03T10:04:08Z</time></trkpt><trkpt lat="40.85795507767896" lon="9.131934885277056"><ele>743.0</ele><time>2026-05-03T10:04:09Z</time></trkpt><trkpt lat="40.858022581146884" lon="9.131965745025369"><ele>743.0</ele><time>2026-05-03T10:04:10Z</time></trkpt><trkpt lat="40.8580188130744" lon="9.132072747808428"><ele>743.0</ele><time>2026-05-03T10:04:13Z</time></trkpt><trkpt lat="40.85792822586488" lon="9.132087615336442"><ele>743.0</ele><time>2026-05-03T10:04:14Z</time></trkpt><trkpt lat="40.857821191942335" lon="9.132055500972703"><ele>743.0</ele><time>2026-05-03T10:04:15Z</time></trkpt><trkpt lat="40.85768409267285" lon="9.132010482924793"><ele>743.0</ele><time>2026-05-03T10:04:16Z</time></trkpt><trkpt lat="40.85755595488772" lon="9.131991027469338"><ele>743.0</ele><time>2026-05-03T10:04:17Z</time></trkpt><trkpt lat="40.85746049422402" lon="9.131972304244444"><ele>743.2</ele><time>2026-05-03T10:04:18Z</time></trkpt><trkpt lat="40.857384624168915" lon="9.131975795452687"><ele>743.4</ele><time>2026-05-03T10:04:19Z</time></trkpt><trkpt lat="40.85732167151054" lon="9.132082385135956"><ele>743.6</ele><time>2026-05-03T10:04:21Z</time></trkpt><trkpt lat="40.857333985289486" lon="9.13218478871414"><ele>743.8000000000001</ele><time>2026-05-03T10:04:22Z</time></trkpt><trkpt lat="40.8574317038382" lon="9.132261594960598"><ele>744.0</ele><time>2026-05-03T10:04:23Z</time></trkpt><trkpt lat="40.85754377542041" lon="9.132307656319961"><ele>743.8000000000001</ele><time>2026-05-03T10:04:24Z</time></trkpt><trkpt lat="40.85768056420666" lon="9.13233795937839"><ele>743.6</ele><time>2026-05-03T10:04:25Z</time></trkpt><trkpt lat="40.857807463061626" lon="9.132368989592798"><ele>743.4</ele><time>2026-05-03T10:04:26Z</time></trkpt><trkpt lat="40.857884476377315" lon="9.132388427958393"><ele>743.2</ele><time>2026-05-03T10:04:27Z</time></trkpt><trkpt lat="40.857966969009105" lon="9.132411596514059"><ele>743.0</ele><time>2026-05-03T10:04:28Z</time></trkpt><trkpt lat="40.858033051790166" lon="9.132471584789654"><ele>748.5</ele><time>2026-05-03T10:04:30Z</time></trkpt><trkpt lat="40.85789895350559" lon="9.132581291799395"><ele>754.0</ele><time>2026-05-03T10:04:32Z</time></trkpt><trkpt lat="40.8577724013001" lon="9.132579451929468"><ele>759.5</ele><time>2026-05-03T10:04:33Z</time></trkpt><trkpt lat="40.857636107806236" lon="9.132559931971409"><ele>765.0</ele><time>2026-05-03T10:04:34Z</time></trkpt><trkpt lat="40.857514915711675" lon="9.132524112988456"><ele>766.8</ele><time>2026-05-03T10:04:35Z</time></trkpt><trkpt lat="40.85742336063641" lon="9.132485325210737"><ele>768.6</ele><time>2026-05-03T10:04:36Z</time></trkpt><trkpt lat="40.857355571357736" lon="9.132460432828772"><ele>770.4000000000001</ele><time>2026-05-03T10:04:37Z</time></trkpt><trkpt lat="40.857289759019146" lon="9.13255051551972"><ele>772.2</ele><time>2026-05-03T10:04:39Z</time></trkpt><trkpt lat="40.85728801938941" lon="9.132647978336651"><ele>774.0</ele><time>2026-05-03T10:04:40Z</time></trkpt><trkpt lat="40.85739453536518" lon="9.132734183147118"><ele>774.0</ele><time>2026-05-03T10:04:41Z</time></trkpt><trkpt lat="40.85749651587993" lon="9.132813631118836"><ele>774.0</ele><time>2026-05-03T10:04:42Z</time></trkpt><trkpt lat="40.8576121577071" lon="9.132901390224427"><ele>774.0</ele><time>2026-05-03T10:04:43Z</time></trkpt><trkpt lat="40.85773054482493" lon="9.133012267190564"><ele>774.0</ele><time>2026-05-03T10:04:44Z</time></trkpt><trkpt lat="40.85784560063018" lon="9.133103900382162"><ele>777.0</ele><time>2026-05-03T10:04:45Z</time></trkpt><trkpt lat="40.857977198430646" lon="9.133225194846023"><ele>780.0</ele><time>2026-05-03T10:04:46Z</time></trkpt><trkpt lat="40.858094175385986" lon="9.133338337595811"><ele>783.0</ele><time>2026-05-03T10:04:47Z</time></trkpt><trkpt lat="40.858179388602515" lon="9.133473881027864"><ele>786.0</ele><time>2026-05-03T10:04:48Z</time></trkpt><trkpt lat="40.8582062950328" lon="9.133642388942237"><ele>786.0</ele><time>2026-05-03T10:04:49Z</time></trkpt><trkpt lat="40.8582545532619" lon="9.13385962196964"><ele>786.0</ele><time>2026-05-03T10:04:50Z</time></trkpt><trkpt lat="40.85831101496106" lon="9.134102962063244"><ele>786.0</ele><time>2026-05-03T10:04:51Z</time></trkpt><trkpt lat="40.85836249527102" lon="9.134343942737889"><ele>789.0</ele><time>2026-05-03T10:04:52Z</time></trkpt><trkpt lat="40.85840596253339" lon="9.134534700223567"><ele>792.0</ele><time>2026-05-03T10:04:53Z</time></trkpt><trkpt lat="40.858447260500085" lon="9.134687143119466"><ele>795.0</ele><time>2026-05-03T10:04:54Z</time></trkpt><trkpt lat="40.85846431717113" lon="9.134805221039535"><ele>798.0</ele><time>2026-05-03T10:04:55Z</time></trkpt><trkpt lat="40.85844513841831" lon="9.134896238460408"><ele>801.0</ele><time>2026-05-03T10:04:56Z</time></trkpt><trkpt lat="40.858392369667555" lon="9.13496739277206"><ele>801.0</ele><time>2026-05-03T10:04:57Z</time></trkpt><trkpt lat="40.85831054243285" lon="9.134966972353512"><ele>801.0</ele><time>2026-05-03T10:04:58Z</time></trkpt><trkpt lat="40.85821985231174" lon="9.134943271533832"><ele>801.0</ele><time>2026-05-03T10:04:59Z</time></trkpt><trkpt lat="40.85811482057559" lon="9.13489801037766"><ele>801.0</ele><time>2026-05-03T10:05:00Z</time></trkpt><trkpt lat="40.858043079515184" lon="9.134782246020496"><ele>801.0</ele><time>2026-05-03T10:05:01Z</time></trkpt><trkpt lat="40.8579890603073" lon="9.13462647753593"><ele>801.0</ele><time>2026-05-03T10:05:02Z</time></trkpt><trkpt lat="40.85792200036774" lon="9.134452244219098"><ele>801.0</ele><time>2026-05-03T10:05:03Z</time></trkpt><trkpt lat="40.857854276600065" lon="9.134267888906987"><ele>801.0</ele><time>2026-05-03T10:05:04Z</time></trkpt><trkpt lat="40.857749126310885" lon="9.134113882147307"><ele>801.25</ele><time>2026-05-03T10:05:05Z</time></trkpt><trkpt lat="40.85765022520546" lon="9.134002466018808"><ele>801.5</ele><time>2026-05-03T10:05:06Z</time></trkpt><trkpt lat="40.85752131816347" lon="9.133891811125386"><ele>801.75</ele><time>2026-05-03T10:05:07Z</time></trkpt><trkpt lat="40.85736955120692" lon="9.133825847178178"><ele>802.0</ele><time>2026-05-03T10:05:08Z</time></trkpt><trkpt lat="40.85721869241267" lon="9.133754680231684"><ele>802.0</ele><time>2026-05-03T10:05:09Z</time></trkpt><trkpt lat="40.85708622248044" lon="9.133705088104813"><ele>802.0</ele><time>2026-05-03T10:05:10Z</time></trkpt><trkpt lat="40.85696101853584" lon="9.13365701894318"><ele>802.0</ele><time>2026-05-03T10:05:11Z</time></trkpt><trkpt lat="40.85685766296668" lon="9.133625459712082"><ele>802.0</ele><time>2026-05-03T10:05:12Z</time></trkpt><trkpt lat="40.8567724612753" lon="9.133615395286736"><ele>802.0</ele><time>2026-05-03T10:05:13Z</time></trkpt><trkpt lat="40.856705724590256" lon="9.133673649293367"><ele>802.0</ele><time>2026-05-03T10:05:14Z</time></trkpt><trkpt lat="40.85667734209705" lon="9.133792821515614"><ele>802.0</ele><time>2026-05-03T10:05:15Z</time></trkpt><trkpt lat="40.85675586645564" lon="9.133917516366113"><ele>802.0</ele><time>2026-05-03T10:05:16Z</time></trkpt><trkpt lat="40.85683877322854" lon="9.134025509617636"><ele>802.0</ele><time>2026-05-03T10:05:17Z</time></trkpt><trkpt lat="40.85694641517205" lon="9.134149017344784"><ele>808.0</ele><time>2026-05-03T10:05:18Z</time></trkpt><trkpt lat="40.85704859191125" lon="9.134311522175931"><ele>814.0</ele><time>2026-05-03T10:05:19Z</time></trkpt><trkpt lat="40.85713082785572" lon="9.13451593899977"><ele>820.0</ele><time>2026-05-03T10:05:20Z</time></trkpt><trkpt lat="40.85720131180101" lon="9.134715321659431"><ele>822.6</ele><time>2026-05-03T10:05:21Z</time></trkpt><trkpt lat="40.85724836935274" lon="9.134888145442785"><ele>825.2</ele><time>2026-05-03T10:05:22Z</time></trkpt><trkpt lat="40.85726204347809" lon="9.135034037906449"><ele>827.8</ele><time>2026-05-03T10:05:23Z</time></trkpt><trkpt lat="40.85722687385201" lon="9.135142065537195"><ele>830.4</ele><time>2026-05-03T10:05:24Z</time></trkpt><trkpt lat="40.85715217854506" lon="9.135071034465884"><ele>833.0</ele><time>2026-05-03T10:05:27Z</time></trkpt><trkpt lat="40.85709617314866" lon="9.134981998759676"><ele>835.0</ele><time>2026-05-03T10:05:28Z</time></trkpt><trkpt lat="40.85699378160572" lon="9.134858273636913"><ele>837.0</ele><time>2026-05-03T10:05:29Z</time></trkpt><trkpt lat="40.85686733854662" lon="9.134731879672367"><ele>839.0</ele><time>2026-05-03T10:05:30Z</time></trkpt><trkpt lat="40.85674614820637" lon="9.134608002790811"><ele>839.0</ele><time>2026-05-03T10:05:31Z</time></trkpt><trkpt lat="40.85661758321959" lon="9.13454060542618"><ele>839.0</ele><time>2026-05-03T10:05:32Z</time></trkpt><trkpt lat="40.85649364395572" lon="9.134529385206543"><ele>839.0</ele><time>2026-05-03T10:05:33Z</time></trkpt><trkpt lat="40.856362551307654" lon="9.13456275133903"><ele>839.0</ele><time>2026-05-03T10:05:34Z</time></trkpt><trkpt lat="40.856270688129506" lon="9.13462637844367"><ele>839.0</ele><time>2026-05-03T10:05:35Z</time></trkpt><trkpt lat="40.856221041343666" lon="9.13469772700796"><ele>839.0</ele><time>2026-05-03T10:05:36Z</time></trkpt><trkpt lat="40.85625712026027" lon="9.134827750038918"><ele>839.0</ele><time>2026-05-03T10:05:37Z</time></trkpt><trkpt lat="40.8563274788382" lon="9.13491049607243"><ele>839.0</ele><time>2026-05-03T10:05:38Z</time></trkpt><trkpt lat="40.85643875479145" lon="9.134978841771462"><ele>839.0</ele><time>2026-05-03T10:05:39Z</time></trkpt><trkpt lat="40.85655912030498" lon="9.1350470446864"><ele>842.0000000000001</ele><time>2026-05-03T10:05:40Z</time></trkpt><trkpt lat="40.856628364220064" lon="9.135123513921426"><ele>845.0</ele><time>2026-05-03T10:05:41Z</time></trkpt><trkpt lat="40.85664452842639" lon="9.135217493306229"><ele>848.0</ele><time>2026-05-03T10:05:42Z</time></trkpt><trkpt lat="40.85657222511057" lon="9.135281729221925"><ele>851.0</ele><time>2026-05-03T10:05:43Z</time></trkpt><trkpt lat="40.8564999230583" lon="9.135264798643474"><ele>854.0000000000001</ele><time>2026-05-03T10:05:44Z</time></trkpt><trkpt lat="40.85642579795135" lon="9.13521450303171"><ele>857.0</ele><time>2026-05-03T10:05:45Z</time></trkpt><trkpt lat="40.85629993040077" lon="9.135191429955688"><ele>857.0</ele><time>2026-05-03T10:05:46Z</time></trkpt><trkpt lat="40.8561655161899" lon="9.135169562824087"><ele>857.0</ele><time>2026-05-03T10:05:47Z</time></trkpt><trkpt lat="40.85606699117002" lon="9.135185365152001"><ele>857.0</ele><time>2026-05-03T10:05:48Z</time></trkpt><trkpt lat="40.856003821987535" lon="9.135228842795764"><ele>857.0</ele><time>2026-05-03T10:05:49Z</time></trkpt><trkpt lat="40.855989351111376" lon="9.13536975004061"><ele>857.0</ele><time>2026-05-03T10:05:50Z</time></trkpt><trkpt lat="40.856084626673265" lon="9.135512349494013"><ele>857.0</ele><time>2026-05-03T10:05:51Z</time></trkpt><trkpt lat="40.856166904098195" lon="9.135635701693205"><ele>857.0</ele><time>2026-05-03T10:05:52Z</time></trkpt><trkpt lat="40.85620879348666" lon="9.135804554640666"><ele>857.0</ele><time>2026-05-03T10:05:53Z</time></trkpt><trkpt lat="40.85621749346441" lon="9.136002251981008"><ele>857.0</ele><time>2026-05-03T10:05:54Z</time></trkpt><trkpt lat="40.85621546199656" lon="9.13622402658329"><ele>859.3333333333334</ele><time>2026-05-03T10:05:55Z</time></trkpt><trkpt lat="40.856232851084926" lon="9.1364574213885"><ele>861.6666666666667</ele><time>2026-05-03T10:05:56Z</time></trkpt><trkpt lat="40.85624289712518" lon="9.136704655941237"><ele>864.0</ele><time>2026-05-03T10:05:57Z</time></trkpt><trkpt lat="40.856285107999206" lon="9.136939757037108"><ele>865.75</ele><time>2026-05-03T10:05:58Z</time></trkpt><trkpt lat="40.85634619764526" lon="9.137124642975975"><ele>867.5</ele><time>2026-05-03T10:05:59Z</time></trkpt><trkpt lat="40.85639588504564" lon="9.137283132834975"><ele>869.25</ele><time>2026-05-03T10:06:00Z</time></trkpt><trkpt lat="40.85640619524823" lon="9.137366828793251"><ele>871.0</ele><time>2026-05-03T10:06:01Z</time></trkpt><trkpt lat="40.85630642412907" lon="9.137427006389476"><ele>871.0</ele><time>2026-05-03T10:06:03Z</time></trkpt><trkpt lat="40.85622407574836" lon="9.137363607884716"><ele>871.0</ele><time>2026-05-03T10:06:04Z</time></trkpt><trkpt lat="40.85617663642604" lon="9.137225781861261"><ele>871.0</ele><time>2026-05-03T10:06:05Z</time></trkpt><trkpt lat="40.85609230145557" lon="9.13707637244498"><ele>871.0</ele><time>2026-05-03T10:06:06Z</time></trkpt><trkpt lat="40.85598446075041" lon="9.136914601408142"><ele>876.6666666666666</ele><time>2026-05-03T10:06:07Z</time></trkpt><trkpt lat="40.85588285289093" lon="9.136747168064064"><ele>882.3333333333333</ele><time>2026-05-03T10:06:08Z</time></trkpt><trkpt lat="40.855754425288254" lon="9.136544197658726"><ele>888.0</ele><time>2026-05-03T10:06:09Z</time></trkpt><trkpt lat="40.85562072923176" lon="9.136375717306874"><ele>888.0</ele><time>2026-05-03T10:06:10Z</time></trkpt><trkpt lat="40.85550042070757" lon="9.136209128120564"><ele>888.0</ele><time>2026-05-03T10:06:11Z</time></trkpt><trkpt lat="40.85542013592882" lon="9.136086121711848"><ele>888.0</ele><time>2026-05-03T10:06:12Z</time></trkpt><trkpt lat="40.85534734916068" lon="9.13603112370234"><ele>888.0</ele><time>2026-05-03T10:06:13Z</time></trkpt><trkpt lat="40.85526361693931" lon="9.136146550461616"><ele>888.0</ele><time>2026-05-03T10:06:15Z</time></trkpt><trkpt lat="40.855262877827556" lon="9.136301419828024"><ele>888.0</ele><time>2026-05-03T10:06:16Z</time></trkpt><trkpt lat="40.855316989941265" lon="9.136452691592456"><ele>888.0</ele><time>2026-05-03T10:06:17Z</time></trkpt><trkpt lat="40.855414621921135" lon="9.13658794011023"><ele>888.0</ele><time>2026-05-03T10:06:18Z</time></trkpt><trkpt lat="40.85548775746352" lon="9.136726498023002"><ele>890.0</ele><time>2026-05-03T10:06:19Z</time></trkpt><trkpt lat="40.85552944793006" lon="9.136814866009317"><ele>892.0</ele><time>2026-05-03T10:06:20Z</time></trkpt><trkpt lat="40.85547244905932" lon="9.136884368199487"><ele>894.0</ele><time>2026-05-03T10:06:22Z</time></trkpt><trkpt lat="40.85538778041327" lon="9.136846126413912"><ele>896.0</ele><time>2026-05-03T10:06:24Z</time></trkpt><trkpt lat="40.85534857918467" lon="9.136733656256235"><ele>898.0</ele><time>2026-05-03T10:06:25Z</time></trkpt><trkpt lat="40.855255968231575" lon="9.136608204828482"><ele>894.6666666666666</ele><time>2026-05-03T10:06:26Z</time></trkpt><trkpt lat="40.85514065680698" lon="9.136479798996067"><ele>891.3333333333333</ele><time>2026-05-03T10:06:27Z</time></trkpt><trkpt lat="40.855016533839624" lon="9.136342949597257"><ele>888.0</ele><time>2026-05-03T10:06:28Z</time></trkpt><trkpt lat="40.85487672989956" lon="9.136205316647615"><ele>895.3333333333333</ele><time>2026-05-03T10:06:29Z</time></trkpt><trkpt lat="40.85472678783584" lon="9.1360495298698"><ele>902.6666666666666</ele><time>2026-05-03T10:06:30Z</time></trkpt><trkpt lat="40.8545788979758" lon="9.135888143575405"><ele>910.0</ele><time>2026-05-03T10:06:31Z</time></trkpt><trkpt lat="40.854448627068614" lon="9.13575373005097"><ele>911.2</ele><time>2026-05-03T10:06:32Z</time></trkpt><trkpt lat="40.854377399317706" lon="9.13565216100303"><ele>912.4</ele><time>2026-05-03T10:06:33Z</time></trkpt><trkpt lat="40.85428508460086" lon="9.135667540229637"><ele>913.5999999999999</ele><time>2026-05-03T10:06:35Z</time></trkpt><trkpt lat="40.85422816269038" lon="9.135768248780375"><ele>914.8</ele><time>2026-05-03T10:06:36Z</time></trkpt><trkpt lat="40.85425258675147" lon="9.135950786515917"><ele>916.0</ele><time>2026-05-03T10:06:37Z</time></trkpt><trkpt lat="40.8542643083897" lon="9.13613777923023"><ele>917.3333333333333</ele><time>2026-05-03T10:06:38Z</time></trkpt><trkpt lat="40.8542858087974" lon="9.136337457806816"><ele>918.6666666666667</ele><time>2026-05-03T10:06:39Z</time></trkpt><trkpt lat="40.85430917152942" lon="9.136556621962837"><ele>920.0</ele><time>2026-05-03T10:06:40Z</time></trkpt><trkpt lat="40.85434522493326" lon="9.136799084349676"><ele>920.0</ele><time>2026-05-03T10:06:41Z</time></trkpt><trkpt lat="40.85441976450703" lon="9.13702887481994"><ele>920.0</ele><time>2026-05-03T10:06:42Z</time></trkpt><trkpt lat="40.854491117382054" lon="9.137249814969971"><ele>920.0</ele><time>2026-05-03T10:06:43Z</time></trkpt><trkpt lat="40.8545387019686" lon="9.137450347630248"><ele>922.2</ele><time>2026-05-03T10:06:44Z</time></trkpt><trkpt lat="40.85459195888099" lon="9.137611179226067"><ele>924.4</ele><time>2026-05-03T10:06:45Z</time></trkpt><trkpt lat="40.854636325813686" lon="9.13773864762965"><ele>926.5999999999999</ele><time>2026-05-03T10:06:46Z</time></trkpt><trkpt lat="40.854620881572146" lon="9.13786558766126"><ele>928.8</ele><time>2026-05-03T10:06:48Z</time></trkpt><trkpt lat="40.85451671464907" lon="9.137868674179844"><ele>931.0</ele><time>2026-05-03T10:06:50Z</time></trkpt><trkpt lat="40.854447214832476" lon="9.137775585111688"><ele>931.0</ele><time>2026-05-03T10:06:51Z</time></trkpt><trkpt lat="40.854364705218835" lon="9.137672764490226"><ele>931.0</ele><time>2026-05-03T10:06:52Z</time></trkpt><trkpt lat="40.85424689937439" lon="9.137564529135831"><ele>931.0</ele><time>2026-05-03T10:06:53Z</time></trkpt><trkpt lat="40.854127430924095" lon="9.137426146509654"><ele>931.0</ele><time>2026-05-03T10:06:54Z</time></trkpt><trkpt lat="40.85399147157314" lon="9.137280398155612"><ele>935.0</ele><time>2026-05-03T10:06:55Z</time></trkpt><trkpt lat="40.853850931157666" lon="9.137126314777426"><ele>939.0</ele><time>2026-05-03T10:06:56Z</time></trkpt><trkpt lat="40.85368978947902" lon="9.136986405011871"><ele>943.0</ele><time>2026-05-03T10:06:57Z</time></trkpt><trkpt lat="40.853538047348685" lon="9.13686375673393"><ele>948.0</ele><time>2026-05-03T10:06:58Z</time></trkpt><trkpt lat="40.853390166221246" lon="9.136770520851176"><ele>953.0</ele><time>2026-05-03T10:06:59Z</time></trkpt><trkpt lat="40.853219734725215" lon="9.136715168489204"><ele>958.0</ele><time>2026-05-03T10:07:00Z</time></trkpt><trkpt lat="40.853029502376" lon="9.136679293344546"><ele>958.0</ele><time>2026-05-03T10:07:01Z</time></trkpt><trkpt lat="40.852838203823644" lon="9.13662463666266"><ele>958.0</ele><time>2026-05-03T10:07:02Z</time></trkpt><trkpt lat="40.85266125207697" lon="9.136576171854854"><ele>958.0</ele><time>2026-05-03T10:07:03Z</time></trkpt><trkpt lat="40.8525037284864" lon="9.136541403297967"><ele>960.6666666666666</ele><time>2026-05-03T10:07:04Z</time></trkpt><trkpt lat="40.85233205875969" lon="9.136587939147777"><ele>963.3333333333333</ele><time>2026-05-03T10:07:05Z</time></trkpt><trkpt lat="40.85216078653885" lon="9.136626961160783"><ele>966.0</ele><time>2026-05-03T10:07:06Z</time></trkpt><trkpt lat="40.85200360376664" lon="9.136719708282014"><ele>966.0</ele><time>2026-05-03T10:07:07Z</time></trkpt><trkpt lat="40.85185929249328" lon="9.136786490742534"><ele>966.0</ele><time>2026-05-03T10:07:08Z</time></trkpt><trkpt lat="40.851724976091035" lon="9.136858893712713"><ele>966.0</ele><time>2026-05-03T10:07:09Z</time></trkpt><trkpt lat="40.85160594681753" lon="9.136934080360843"><ele>966.0</ele><time>2026-05-03T10:07:10Z</time></trkpt><trkpt lat="40.85151352103126" lon="9.137066534839985"><ele>967.0</ele><time>2026-05-03T10:07:11Z</time></trkpt><trkpt lat="40.85144859742797" lon="9.137262062363074"><ele>968.0</ele><time>2026-05-03T10:07:12Z</time></trkpt><trkpt lat="40.85137772224447" lon="9.13748089538685"><ele>969.0</ele><time>2026-05-03T10:07:13Z</time></trkpt><trkpt lat="40.85129835710162" lon="9.13766936500406"><ele>971.0</ele><time>2026-05-03T10:07:14Z</time></trkpt><trkpt lat="40.8512365522074" lon="9.137826611212663"><ele>973.0</ele><time>2026-05-03T10:07:15Z</time></trkpt><trkpt lat="40.85121427527399" lon="9.137953544743626"><ele>975.0</ele><time>2026-05-03T10:07:16Z</time></trkpt><trkpt lat="40.85121974356513" lon="9.138077656400887"><ele>977.0</ele><time>2026-05-03T10:07:17Z</time></trkpt><trkpt lat="40.85132412221365" lon="9.138199782642154"><ele>979.5</ele><time>2026-05-03T10:07:18Z</time></trkpt><trkpt lat="40.85144376354895" lon="9.138319285978024"><ele>982.0</ele><time>2026-05-03T10:07:19Z</time></trkpt><trkpt lat="40.85155739299117" lon="9.138446509651665"><ele>984.5</ele><time>2026-05-03T10:07:20Z</time></trkpt><trkpt lat="40.851607341715166" lon="9.138612517751675"><ele>987.0</ele><time>2026-05-03T10:07:21Z</time></trkpt><trkpt lat="40.85162696145871" lon="9.138785996356686"><ele>987.0</ele><time>2026-05-03T10:07:22Z</time></trkpt><trkpt lat="40.85162191764904" lon="9.138970707382787"><ele>987.0</ele><time>2026-05-03T10:07:23Z</time></trkpt><trkpt lat="40.85158741591604" lon="9.139154565452936"><ele>987.0</ele><time>2026-05-03T10:07:24Z</time></trkpt><trkpt lat="40.85153196320517" lon="9.13930712047581"><ele>987.0</ele><time>2026-05-03T10:07:25Z</time></trkpt><trkpt lat="40.851469451956135" lon="9.139432647347139"><ele>988.5</ele><time>2026-05-03T10:07:26Z</time></trkpt><trkpt lat="40.851382437573406" lon="9.139539349747313"><ele>990.0</ele><time>2026-05-03T10:07:27Z</time></trkpt><trkpt lat="40.85126435359584" lon="9.139613277352423"><ele>991.5</ele><time>2026-05-03T10:07:28Z</time></trkpt><trkpt lat="40.85110620825555" lon="9.139706308814672"><ele>993.0</ele><time>2026-05-03T10:07:29Z</time></trkpt><trkpt lat="40.85093181423997" lon="9.139809148824996"><ele>996.0</ele><time>2026-05-03T10:07:30Z</time></trkpt><trkpt lat="40.85077157556074" lon="9.139900002589494"><ele>999.0</ele><time>2026-05-03T10:07:31Z</time></trkpt><trkpt lat="40.85064553067518" lon="9.139982366435847"><ele>1002.0</ele><time>2026-05-03T10:07:32Z</time></trkpt><trkpt lat="40.85056973761749" lon="9.140057497751188"><ele>1005.0</ele><time>2026-05-03T10:07:33Z</time></trkpt><trkpt lat="40.8505320016098" lon="9.140161057733785"><ele>1005.0</ele><time>2026-05-03T10:07:34Z</time></trkpt><trkpt lat="40.8505719946412" lon="9.14028566950111"><ele>1005.0</ele><time>2026-05-03T10:07:35Z</time></trkpt><trkpt lat="40.85069748991188" lon="9.140353678389127"><ele>1005.0</ele><time>2026-05-03T10:07:36Z</time></trkpt><trkpt lat="40.85082147493238" lon="9.140398167504658"><ele>1005.0</ele><time>2026-05-03T10:07:37Z</time></trkpt><trkpt lat="40.85096886567128" lon="9.140423672127046"><ele>1005.6666666666667</ele><time>2026-05-03T10:07:38Z</time></trkpt><trkpt lat="40.85112887674749" lon="9.140450134929262"><ele>1006.3333333333334</ele><time>2026-05-03T10:07:39Z</time></trkpt><trkpt lat="40.85130693363642" lon="9.1404757072241"><ele>1007.0</ele><time>2026-05-03T10:07:40Z</time></trkpt><trkpt lat="40.851498733469825" lon="9.140506999285135"><ele>1007.0</ele><time>2026-05-03T10:07:41Z</time></trkpt><trkpt lat="40.85169758085666" lon="9.140546887330576"><ele>1007.0</ele><time>2026-05-03T10:07:42Z</time></trkpt><trkpt lat="40.8519060452426" lon="9.140586547127308"><ele>1007.0</ele><time>2026-05-03T10:07:43Z</time></trkpt><trkpt lat="40.852110515403616" lon="9.140626102850542"><ele>1007.0</ele><time>2026-05-03T10:07:44Z</time></trkpt><trkpt lat="40.8522889218424" lon="9.14066117118438"><ele>1007.0</ele><time>2026-05-03T10:07:45Z</time></trkpt><trkpt lat="40.85244288124954" lon="9.140688219697202"><ele>1007.0</ele><time>2026-05-03T10:07:46Z</time></trkpt><trkpt lat="40.852588229254806" lon="9.140709519261728"><ele>1010.75</ele><time>2026-05-03T10:07:47Z</time></trkpt><trkpt lat="40.85273098813986" lon="9.14073688617032"><ele>1014.5</ele><time>2026-05-03T10:07:48Z</time></trkpt><trkpt lat="40.85285533042092" lon="9.140761477327345"><ele>1018.25</ele><time>2026-05-03T10:07:49Z</time></trkpt><trkpt lat="40.85295544400011" lon="9.14080534507653"><ele>1022.0</ele><time>2026-05-03T10:07:50Z</time></trkpt><trkpt lat="40.85299541410641" lon="9.140913627826166"><ele>1022.0</ele><time>2026-05-03T10:07:51Z</time></trkpt><trkpt lat="40.853007329181594" lon="9.141006107195324"><ele>1022.0</ele><time>2026-05-03T10:07:52Z</time></trkpt><trkpt lat="40.85297963269461" lon="9.14110778202336"><ele>1022.0</ele><time>2026-05-03T10:07:53Z</time></trkpt><trkpt lat="40.852913533381454" lon="9.141210420255932"><ele>1022.0</ele><time>2026-05-03T10:07:54Z</time></trkpt><trkpt lat="40.85281352409615" lon="9.141288097485267"><ele>1022.0</ele><time>2026-05-03T10:07:55Z</time></trkpt><trkpt lat="40.85269031524526" lon="9.141395828352424"><ele>1021.0</ele><time>2026-05-03T10:07:56Z</time></trkpt><trkpt lat="40.85255514756484" lon="9.141514502849308"><ele>1020.0</ele><time>2026-05-03T10:07:57Z</time></trkpt><trkpt lat="40.85240996972183" lon="9.141663281071649"><ele>1019.0</ele><time>2026-05-03T10:07:58Z</time></trkpt><trkpt lat="40.85223602817235" lon="9.141771797332408"><ele>1021.3333333333334</ele><time>2026-05-03T10:07:59Z</time></trkpt><trkpt lat="40.85205591309163" lon="9.141887864485101"><ele>1023.6666666666667</ele><time>2026-05-03T10:08:00Z</time></trkpt><trkpt lat="40.851864885845394" lon="9.142008398957126"><ele>1026.0</ele><time>2026-05-03T10:08:01Z</time></trkpt><trkpt lat="40.851691891671436" lon="9.142125242010058"><ele>1027.3333333333333</ele><time>2026-05-03T10:08:02Z</time></trkpt><trkpt lat="40.851539451976784" lon="9.142236300777007"><ele>1028.6666666666665</ele><time>2026-05-03T10:08:03Z</time></trkpt><trkpt lat="40.85139432649048" lon="9.14234444940517"><ele>1030.0</ele><time>2026-05-03T10:08:04Z</time></trkpt><trkpt lat="40.85125549882657" lon="9.142455677401953"><ele>1031.25</ele><time>2026-05-03T10:08:05Z</time></trkpt><trkpt lat="40.85115980787463" lon="9.142590646756986"><ele>1032.5</ele><time>2026-05-03T10:08:06Z</time></trkpt><trkpt lat="40.85106481585627" lon="9.142720527954374"><ele>1033.75</ele><time>2026-05-03T10:08:07Z</time></trkpt><trkpt lat="40.85104727276029" lon="9.142890858096527"><ele>1035.0</ele><time>2026-05-03T10:08:08Z</time></trkpt><trkpt lat="40.85105421889585" lon="9.143054502244876"><ele>1034.3333333333333</ele><time>2026-05-03T10:08:09Z</time></trkpt><trkpt lat="40.851069612537025" lon="9.143240299789536"><ele>1033.6666666666665</ele><time>2026-05-03T10:08:10Z</time></trkpt><trkpt lat="40.85106520420654" lon="9.143436303595811"><ele>1033.0</ele><time>2026-05-03T10:08:11Z</time></trkpt><trkpt lat="40.85104720239967" lon="9.14364782077253"><ele>1033.0</ele><time>2026-05-03T10:08:12Z</time></trkpt><trkpt lat="40.85099111368113" lon="9.143859586990752"><ele>1033.0</ele><time>2026-05-03T10:08:13Z</time></trkpt><trkpt lat="40.850953497552894" lon="9.144088388432996"><ele>1033.0</ele><time>2026-05-03T10:08:14Z</time></trkpt><trkpt lat="40.850904098151396" lon="9.144304475569866"><ele>1039.6666666666665</ele><time>2026-05-03T10:08:15Z</time></trkpt><trkpt lat="40.85086825075641" lon="9.144518198058089"><ele>1046.3333333333333</ele><time>2026-05-03T10:08:16Z</time></trkpt><trkpt lat="40.850854102837395" lon="9.144732120469484"><ele>1053.0</ele><time>2026-05-03T10:08:17Z</time></trkpt><trkpt lat="40.85086144751806" lon="9.144948519145474"><ele>1053.0</ele><time>2026-05-03T10:08:18Z</time></trkpt><trkpt lat="40.850878307691445" lon="9.145162255171583"><ele>1053.0</ele><time>2026-05-03T10:08:19Z</time></trkpt><trkpt lat="40.85089423781845" lon="9.145372153412339"><ele>1053.0</ele><time>2026-05-03T10:08:20Z</time></trkpt><trkpt lat="40.850912250933796" lon="9.145564502662276"><ele>1054.5</ele><time>2026-05-03T10:08:21Z</time></trkpt><trkpt lat="40.8509279258432" lon="9.145741968261722"><ele>1056.0</ele><time>2026-05-03T10:08:22Z</time></trkpt><trkpt lat="40.85093813995265" lon="9.145903783047224"><ele>1057.5</ele><time>2026-05-03T10:08:23Z</time></trkpt><trkpt lat="40.8509556059573" lon="9.146051752126326"><ele>1059.0</ele><time>2026-05-03T10:08:24Z</time></trkpt><trkpt lat="40.85097748530571" lon="9.14619592252958"><ele>1053.75</ele><time>2026-05-03T10:08:25Z</time></trkpt><trkpt lat="40.85100009790032" lon="9.146344087149773"><ele>1048.5</ele><time>2026-05-03T10:08:26Z</time></trkpt><trkpt lat="40.85101841817777" lon="9.146506907596352"><ele>1043.25</ele><time>2026-05-03T10:08:27Z</time></trkpt><trkpt lat="40.85099988436039" lon="9.146676344184044"><ele>1038.0</ele><time>2026-05-03T10:08:28Z</time></trkpt><trkpt lat="40.85096656425517" lon="9.14685094433585"><ele>1045.0</ele><time>2026-05-03T10:08:29Z</time></trkpt><trkpt lat="40.8509047631811" lon="9.147042909722094"><ele>1052.0</ele><time>2026-05-03T10:08:30Z</time></trkpt><trkpt lat="40.850850130588704" lon="9.147266586217638"><ele>1059.0</ele><time>2026-05-03T10:08:31Z</time></trkpt><trkpt lat="40.85080698645891" lon="9.1475224473605"><ele>1059.0</ele><time>2026-05-03T10:08:32Z</time></trkpt><trkpt lat="40.85077851470068" lon="9.14779371644883"><ele>1059.0</ele><time>2026-05-03T10:08:33Z</time></trkpt><trkpt lat="40.850760558436555" lon="9.148085917319344"><ele>1059.0</ele><time>2026-05-03T10:08:34Z</time></trkpt><trkpt lat="40.850743502627296" lon="9.148342259586842"><ele>1058.0</ele><time>2026-05-03T10:08:35Z</time></trkpt><trkpt lat="40.85071962045643" lon="9.148569309437816"><ele>1057.0</ele><time>2026-05-03T10:08:36Z</time></trkpt><trkpt lat="40.85069709420192" lon="9.148765810172696"><ele>1056.0</ele><time>2026-05-03T10:08:37Z</time></trkpt><trkpt lat="40.850672787641685" lon="9.148950997232802"><ele>1055.75</ele><time>2026-05-03T10:08:38Z</time></trkpt><trkpt lat="40.850658564868134" lon="9.149124805591136"><ele>1055.5</ele><time>2026-05-03T10:08:39Z</time></trkpt><trkpt lat="40.85066870024015" lon="9.149288483596235"><ele>1055.25</ele><time>2026-05-03T10:08:40Z</time></trkpt><trkpt lat="40.850711533562055" lon="9.149469569908256"><ele>1055.0</ele><time>2026-05-03T10:08:41Z</time></trkpt><trkpt lat="40.85079644622603" lon="9.149664830395118"><ele>1055.3333333333335</ele><time>2026-05-03T10:08:42Z</time></trkpt><trkpt lat="40.85088315806207" lon="9.149916544291878"><ele>1055.6666666666667</ele><time>2026-05-03T10:08:43Z</time></trkpt><trkpt lat="40.850980124808686" lon="9.150157327402544"><ele>1056.0</ele><time>2026-05-03T10:08:44Z</time></trkpt><trkpt lat="40.851040291689245" lon="9.15038971684888"><ele>1055.0</ele><time>2026-05-03T10:08:45Z</time></trkpt><trkpt lat="40.85110673831866" lon="9.15060524603747"><ele>1054.0</ele><time>2026-05-03T10:08:46Z</time></trkpt><trkpt lat="40.85117137725606" lon="9.1508149964943"><ele>1053.0</ele><time>2026-05-03T10:08:47Z</time></trkpt><trkpt lat="40.851237385851114" lon="9.151011681173804"><ele>1053.0</ele><time>2026-05-03T10:08:48Z</time></trkpt><trkpt lat="40.85129815888312" lon="9.151190240823425"><ele>1053.0</ele><time>2026-05-03T10:08:49Z</time></trkpt><trkpt lat="40.85134829257288" lon="9.151335035636194"><ele>1053.0</ele><time>2026-05-03T10:08:50Z</time></trkpt><trkpt lat="40.85138059119576" lon="9.151473351508296"><ele>1053.0</ele><time>2026-05-03T10:08:51Z</time></trkpt><trkpt lat="40.85139708570305" lon="9.151607895893232"><ele>1053.3333333333333</ele><time>2026-05-03T10:08:52Z</time></trkpt><trkpt lat="40.85140308995956" lon="9.151734264711513"><ele>1053.6666666666667</ele><time>2026-05-03T10:08:53Z</time></trkpt><trkpt lat="40.85139858484327" lon="9.151850228555492"><ele>1054.0</ele><time>2026-05-03T10:08:54Z</time></trkpt><trkpt lat="40.85139118093701" lon="9.151959947453093"><ele>1054.3333333333335</ele><time>2026-05-03T10:08:55Z</time></trkpt><trkpt lat="40.85138066969523" lon="9.152072880857277"><ele>1054.6666666666667</ele><time>2026-05-03T10:08:56Z</time></trkpt><trkpt lat="40.851375330384556" lon="9.15219410068228"><ele>1055.0</ele><time>2026-05-03T10:08:57Z</time></trkpt><trkpt lat="40.851378362472396" lon="9.152321449296334"><ele>1055.6</ele><time>2026-05-03T10:08:58Z</time></trkpt><trkpt lat="40.851393656954784" lon="9.152448222060558"><ele>1056.2</ele><time>2026-05-03T10:08:59Z</time></trkpt><trkpt lat="40.85139067761293" lon="9.152567066804117"><ele>1056.8</ele><time>2026-05-03T10:09:00Z</time></trkpt><trkpt lat="40.85140710324464" lon="9.152692404358765"><ele>1057.4</ele><time>2026-05-03T10:09:01Z</time></trkpt><trkpt lat="40.85141603410957" lon="9.152814127789226"><ele>1058.0</ele><time>2026-05-03T10:09:02Z</time></trkpt><trkpt lat="40.851412949086544" lon="9.152943305127945"><ele>1058.0</ele><time>2026-05-03T10:09:03Z</time></trkpt><trkpt lat="40.851390792263004" lon="9.153068393690038"><ele>1058.0</ele><time>2026-05-03T10:09:04Z</time></trkpt><trkpt lat="40.851358669825025" lon="9.153195727536255"><ele>1058.0</ele><time>2026-05-03T10:09:05Z</time></trkpt><trkpt lat="40.85133497707174" lon="9.153324608425189"><ele>1058.0</ele><time>2026-05-03T10:09:06Z</time></trkpt><trkpt lat="40.851343539230136" lon="9.153448919534855"><ele>1058.0</ele><time>2026-05-03T10:09:07Z</time></trkpt><trkpt lat="40.8513803332693" lon="9.153565377477175"><ele>1058.8</ele><time>2026-05-03T10:09:08Z</time></trkpt><trkpt lat="40.85144887878774" lon="9.153642925962481"><ele>1059.6</ele><time>2026-05-03T10:09:09Z</time></trkpt><trkpt lat="40.8515215079823" lon="9.153712358542121"><ele>1060.4</ele><time>2026-05-03T10:09:10Z</time></trkpt><trkpt lat="40.851592869833425" lon="9.153807542726412"><ele>1061.2</ele><time>2026-05-03T10:09:11Z</time></trkpt><trkpt lat="40.85167671443746" lon="9.153886503102106"><ele>1062.0</ele><time>2026-05-03T10:09:12Z</time></trkpt><trkpt lat="40.85176660578497" lon="9.15397211467287"><ele>1064.25</ele><time>2026-05-03T10:09:13Z</time></trkpt><trkpt lat="40.8518598063584" lon="9.154062377706074"><ele>1066.5</ele><time>2026-05-03T10:09:14Z</time></trkpt><trkpt lat="40.85198170662233" lon="9.154180435836574"><ele>1068.75</ele><time>2026-05-03T10:09:15Z</time></trkpt><trkpt lat="40.852088115997326" lon="9.154283747329222"><ele>1071.0</ele><time>2026-05-03T10:09:16Z</time></trkpt><trkpt lat="40.85218970018676" lon="9.154385195579051"><ele>1071.0</ele><time>2026-05-03T10:09:17Z</time></trkpt><trkpt lat="40.8522895880854" lon="9.154485518985439"><ele>1071.0</ele><time>2026-05-03T10:09:18Z</time></trkpt><trkpt lat="40.85238919747992" lon="9.154581024799752"><ele>1071.0</ele><time>2026-05-03T10:09:19Z</time></trkpt><trkpt lat="40.852493262111" lon="9.154680802429553"><ele>1071.0</ele><time>2026-05-03T10:09:20Z</time></trkpt><trkpt lat="40.85259824580743" lon="9.154781613178447"><ele>1071.75</ele><time>2026-05-03T10:09:21Z</time></trkpt><trkpt lat="40.85271075518617" lon="9.15488985399626"><ele>1072.5</ele><time>2026-05-03T10:09:22Z</time></trkpt><trkpt lat="40.85281929815485" lon="9.154994278874165"><ele>1073.25</ele><time>2026-05-03T10:09:23Z</time></trkpt><trkpt lat="40.852922018504756" lon="9.155093109869643"><ele>1074.0</ele><time>2026-05-03T10:09:24Z</time></trkpt><trkpt lat="40.853007613265866" lon="9.155175528672059"><ele>1074.0</ele><time>2026-05-03T10:09:25Z</time></trkpt><trkpt lat="40.853106997567004" lon="9.155270016277242"><ele>1074.0</ele><time>2026-05-03T10:09:26Z</time></trkpt><trkpt lat="40.85320950428938" lon="9.155359327744275"><ele>1074.0</ele><time>2026-05-03T10:09:27Z</time></trkpt><trkpt lat="40.853308198896094" lon="9.155426762666547"><ele>1074.0</ele><time>2026-05-03T10:09:28Z</time></trkpt><trkpt lat="40.853407155648" lon="9.155485514679372"><ele>1071.5</ele><time>2026-05-03T10:09:29Z</time></trkpt><trkpt lat="40.85351417428571" lon="9.155526919931976"><ele>1069.0</ele><time>2026-05-03T10:09:30Z</time></trkpt><trkpt lat="40.85363252593311" lon="9.155537115709892"><ele>1066.5</ele><time>2026-05-03T10:09:31Z</time></trkpt><trkpt lat="40.85375341432597" lon="9.155557323688564"><ele>1064.0</ele><time>2026-05-03T10:09:32Z</time></trkpt><trkpt lat="40.85387699489352" lon="9.155573863047021"><ele>1064.0</ele><time>2026-05-03T10:09:33Z</time></trkpt><trkpt lat="40.85400289922012" lon="9.155588574288966"><ele>1064.0</ele><time>2026-05-03T10:09:34Z</time></trkpt><trkpt lat="40.85413316779298" lon="9.15560770971473"><ele>1064.0</ele><time>2026-05-03T10:09:35Z</time></trkpt><trkpt lat="40.85426318808702" lon="9.155628876179646"><ele>1064.0</ele><time>2026-05-03T10:09:36Z</time></trkpt><trkpt lat="40.854396171833514" lon="9.155646787930248"><ele>1063.5</ele><time>2026-05-03T10:09:37Z</time></trkpt><trkpt lat="40.854538838453564" lon="9.155659042495731"><ele>1063.0</ele><time>2026-05-03T10:09:38Z</time></trkpt><trkpt lat="40.85468656857086" lon="9.155678467907475"><ele>1062.5</ele><time>2026-05-03T10:09:39Z</time></trkpt><trkpt lat="40.854837291881644" lon="9.15570450719782"><ele>1062.0</ele><time>2026-05-03T10:09:40Z</time></trkpt><trkpt lat="40.85498430902143" lon="9.155718426384848"><ele>1062.0</ele><time>2026-05-03T10:09:41Z</time></trkpt><trkpt lat="40.855115299791" lon="9.155740069907521"><ele>1062.0</ele><time>2026-05-03T10:09:42Z</time></trkpt><trkpt lat="40.855246374033044" lon="9.155772606173903"><ele>1062.0</ele><time>2026-05-03T10:09:43Z</time></trkpt><trkpt lat="40.85537816025664" lon="9.155807101176421"><ele>1062.0</ele><time>2026-05-03T10:09:44Z</time></trkpt><trkpt lat="40.855510619859764" lon="9.155832071762726"><ele>1058.6666666666667</ele><time>2026-05-03T10:09:45Z</time></trkpt><trkpt lat="40.855647705561765" lon="9.155847430396141"><ele>1055.3333333333335</ele><time>2026-05-03T10:09:46Z</time></trkpt><trkpt lat="40.85581104384623" lon="9.155847942694441"><ele>1052.0</ele><time>2026-05-03T10:09:47Z</time></trkpt><trkpt lat="40.85597634557291" lon="9.155811955533444"><ele>1048.5</ele><time>2026-05-03T10:09:48Z</time></trkpt><trkpt lat="40.85611270607801" lon="9.15580720585542"><ele>1045.0</ele><time>2026-05-03T10:09:49Z</time></trkpt><trkpt lat="40.856263853232406" lon="9.155802467317345"><ele>1041.5</ele><time>2026-05-03T10:09:50Z</time></trkpt><trkpt lat="40.85641261760269" lon="9.155830075135286"><ele>1038.0</ele><time>2026-05-03T10:09:51Z</time></trkpt><trkpt lat="40.85656147354761" lon="9.155862379767346"><ele>1038.0</ele><time>2026-05-03T10:09:52Z</time></trkpt><trkpt lat="40.8567028317474" lon="9.155892517256682"><ele>1038.0</ele><time>2026-05-03T10:09:53Z</time></trkpt><trkpt lat="40.85683619550997" lon="9.155978140602402"><ele>1038.0</ele><time>2026-05-03T10:09:54Z</time></trkpt><trkpt lat="40.856967286832386" lon="9.156055301306305"><ele>1038.0</ele><time>2026-05-03T10:09:55Z</time></trkpt><trkpt lat="40.857093023006826" lon="9.156156322651096"><ele>1036.3333333333333</ele><time>2026-05-03T10:09:56Z</time></trkpt><trkpt lat="40.85721855795297" lon="9.15627623474086"><ele>1034.6666666666665</ele><time>2026-05-03T10:09:57Z</time></trkpt><trkpt lat="40.85733612031486" lon="9.156421409998016"><ele>1033.0</ele><time>2026-05-03T10:09:58Z</time></trkpt><trkpt lat="40.8574523672556" lon="9.156585988953498"><ele>1032.6666666666665</ele><time>2026-05-03T10:09:59Z</time></trkpt><trkpt lat="40.857561937987114" lon="9.156759755161286"><ele>1032.3333333333333</ele><time>2026-05-03T10:10:00Z</time></trkpt><trkpt lat="40.85767083552839" lon="9.156930498956127"><ele>1032.0</ele><time>2026-05-03T10:10:01Z</time></trkpt><trkpt lat="40.857783543717666" lon="9.157102706211685"><ele>1032.5</ele><time>2026-05-03T10:10:02Z</time></trkpt><trkpt lat="40.85789653473249" lon="9.157247185807567"><ele>1033.0</ele><time>2026-05-03T10:10:03Z</time></trkpt><trkpt lat="40.85800682431558" lon="9.157362860549702"><ele>1033.5</ele><time>2026-05-03T10:10:04Z</time></trkpt><trkpt lat="40.8580988355557" lon="9.15742966693659"><ele>1034.0</ele><time>2026-05-03T10:10:05Z</time></trkpt><trkpt lat="40.85817854021721" lon="9.157477200203452"><ele>1034.0</ele><time>2026-05-03T10:10:06Z</time></trkpt><trkpt lat="40.85825567377284" lon="9.157521791220436"><ele>1034.0</ele><time>2026-05-03T10:10:07Z</time></trkpt><trkpt lat="40.858325874074424" lon="9.157576588913129"><ele>1034.0</ele><time>2026-05-03T10:10:08Z</time></trkpt><trkpt lat="40.85842215280746" lon="9.157633052510167"><ele>1034.0</ele><time>2026-05-03T10:10:09Z</time></trkpt><trkpt lat="40.8585102071314" lon="9.157685566106943"><ele>1034.0</ele><time>2026-05-03T10:10:10Z</time></trkpt><trkpt lat="40.8586072733501" lon="9.157754105044011"><ele>1036.5</ele><time>2026-05-03T10:10:11Z</time></trkpt><trkpt lat="40.85870233380507" lon="9.157826943930374"><ele>1039.0</ele><time>2026-05-03T10:10:12Z</time></trkpt><trkpt lat="40.858767133709975" lon="9.157948519390809"><ele>1041.5</ele><time>2026-05-03T10:10:13Z</time></trkpt><trkpt lat="40.858817903078204" lon="9.158070034099971"><ele>1044.0</ele><time>2026-05-03T10:10:14Z</time></trkpt><trkpt lat="40.858880200746135" lon="9.158216855383221"><ele>1044.0</ele><time>2026-05-03T10:10:15Z</time></trkpt><trkpt lat="40.858946110521686" lon="9.158388290072613"><ele>1044.0</ele><time>2026-05-03T10:10:16Z</time></trkpt><trkpt lat="40.859018370664714" lon="9.158560891598535"><ele>1044.0</ele><time>2026-05-03T10:10:17Z</time></trkpt><trkpt lat="40.859075361308356" lon="9.158728526673764"><ele>1044.0</ele><time>2026-05-03T10:10:18Z</time></trkpt><trkpt lat="40.85914457089278" lon="9.158907565809127"><ele>1045.3333333333333</ele><time>2026-05-03T10:10:19Z</time></trkpt><trkpt lat="40.859222745419444" lon="9.159069235497645"><ele>1046.6666666666665</ele><time>2026-05-03T10:10:20Z</time></trkpt><trkpt lat="40.8592976009248" lon="9.159240964006912"><ele>1048.0</ele><time>2026-05-03T10:10:21Z</time></trkpt><trkpt lat="40.859401341115216" lon="9.159398187728376"><ele>1050.3333333333333</ele><time>2026-05-03T10:10:22Z</time></trkpt><trkpt lat="40.85951342392101" lon="9.159534739189432"><ele>1052.6666666666667</ele><time>2026-05-03T10:10:23Z</time></trkpt><trkpt lat="40.85963420323137" lon="9.159665733669673"><ele>1055.0</ele><time>2026-05-03T10:10:24Z</time></trkpt><trkpt lat="40.85975809959292" lon="9.15979315440579"><ele>1055.0</ele><time>2026-05-03T10:10:25Z</time></trkpt><trkpt lat="40.85987887842968" lon="9.159926685084644"><ele>1055.0</ele><time>2026-05-03T10:10:26Z</time></trkpt><trkpt lat="40.85999690935774" lon="9.160067651089227"><ele>1055.0</ele><time>2026-05-03T10:10:27Z</time></trkpt><trkpt lat="40.860117371134116" lon="9.160210078253659"><ele>1059.0</ele><time>2026-05-03T10:10:28Z</time></trkpt><trkpt lat="40.86023555050622" lon="9.160348113196866"><ele>1063.0</ele><time>2026-05-03T10:10:29Z</time></trkpt><trkpt lat="40.860349825696716" lon="9.160483480635191"><ele>1067.0</ele><time>2026-05-03T10:10:30Z</time></trkpt><trkpt lat="40.86045100199613" lon="9.160617529093924"><ele>1065.75</ele><time>2026-05-03T10:10:31Z</time></trkpt><trkpt lat="40.86053469438608" lon="9.160760152716858"><ele>1064.5</ele><time>2026-05-03T10:10:32Z</time></trkpt><trkpt lat="40.86057349854392" lon="9.160929098402546"><ele>1063.25</ele><time>2026-05-03T10:10:33Z</time></trkpt><trkpt lat="40.86061217489464" lon="9.16106463460094"><ele>1062.0</ele><time>2026-05-03T10:10:34Z</time></trkpt><trkpt lat="40.86062947916249" lon="9.16119520494186"><ele>1062.0</ele><time>2026-05-03T10:10:35Z</time></trkpt><trkpt lat="40.86061108940992" lon="9.161310598771374"><ele>1062.0</ele><time>2026-05-03T10:10:36Z</time></trkpt><trkpt lat="40.860578650860916" lon="9.161414672747126"><ele>1062.0</ele><time>2026-05-03T10:10:37Z</time></trkpt><trkpt lat="40.86051778121157" lon="9.161496352351975"><ele>1062.0</ele><time>2026-05-03T10:10:38Z</time></trkpt><trkpt lat="40.86044606007199" lon="9.16155251847608"><ele>1062.0</ele><time>2026-05-03T10:10:39Z</time></trkpt><trkpt lat="40.86036187100441" lon="9.161589190838013"><ele>1062.0</ele><time>2026-05-03T10:10:40Z</time></trkpt><trkpt lat="40.86026859201771" lon="9.161590794293794"><ele>1062.25</ele><time>2026-05-03T10:10:41Z</time></trkpt><trkpt lat="40.86016522720209" lon="9.161545439789279"><ele>1062.5</ele><time>2026-05-03T10:10:42Z</time></trkpt><trkpt lat="40.86007906755841" lon="9.16146764279508"><ele>1062.75</ele><time>2026-05-03T10:10:43Z</time></trkpt><trkpt lat="40.85996434733525" lon="9.161381146832621"><ele>1063.0</ele><time>2026-05-03T10:10:44Z</time></trkpt><trkpt lat="40.859849138346014" lon="9.161294282375215"><ele>1062.0</ele><time>2026-05-03T10:10:45Z</time></trkpt><trkpt lat="40.8597195667331" lon="9.161213944266567"><ele>1061.0</ele><time>2026-05-03T10:10:46Z</time></trkpt><trkpt lat="40.85960468868693" lon="9.16109025434277"><ele>1060.0</ele><time>2026-05-03T10:10:47Z</time></trkpt><trkpt lat="40.859501225494085" lon="9.160936912861292"><ele>1059.0</ele><time>2026-05-03T10:10:48Z</time></trkpt><trkpt lat="40.859383108172956" lon="9.160786229603474"><ele>1058.25</ele><time>2026-05-03T10:10:49Z</time></trkpt><trkpt lat="40.8592629696854" lon="9.160646785615912"><ele>1057.5</ele><time>2026-05-03T10:10:50Z</time></trkpt><trkpt lat="40.85914594364411" lon="9.160539190186526"><ele>1056.75</ele><time>2026-05-03T10:10:51Z</time></trkpt><trkpt lat="40.85903040571409" lon="9.16046635220945"><ele>1056.0</ele><time>2026-05-03T10:10:52Z</time></trkpt><trkpt lat="40.858918706447845" lon="9.16041490509966"><ele>1056.0</ele><time>2026-05-03T10:10:53Z</time></trkpt><trkpt lat="40.858801802034904" lon="9.160379486828067"><ele>1056.0</ele><time>2026-05-03T10:10:54Z</time></trkpt><trkpt lat="40.858699708049805" lon="9.160425244236976"><ele>1056.0</ele><time>2026-05-03T10:10:55Z</time></trkpt><trkpt lat="40.858617509795444" lon="9.160448040389555"><ele>1056.0</ele><time>2026-05-03T10:10:56Z</time></trkpt><trkpt lat="40.85855260464214" lon="9.160540644834775"><ele>1056.0</ele><time>2026-05-03T10:10:57Z</time></trkpt><trkpt lat="40.858493502834854" lon="9.160640013987129"><ele>1059.75</ele><time>2026-05-03T10:10:58Z</time></trkpt><trkpt lat="40.858432242363875" lon="9.160741456401723"><ele>1063.5</ele><time>2026-05-03T10:10:59Z</time></trkpt><trkpt lat="40.85837091881373" lon="9.160851979379958"><ele>1067.25</ele><time>2026-05-03T10:11:00Z</time></trkpt><trkpt lat="40.85828048986537" lon="9.160973566015263"><ele>1071.0</ele><time>2026-05-03T10:11:01Z</time></trkpt><trkpt lat="40.858188497600175" lon="9.161103473606211"><ele>1071.0</ele><time>2026-05-03T10:11:02Z</time></trkpt><trkpt lat="40.858087150599765" lon="9.161240531186579"><ele>1071.0</ele><time>2026-05-03T10:11:03Z</time></trkpt><trkpt lat="40.85798856714727" lon="9.161374347694213"><ele>1071.0</ele><time>2026-05-03T10:11:04Z</time></trkpt><trkpt lat="40.85790059135437" lon="9.161509741704407"><ele>1071.0</ele><time>2026-05-03T10:11:05Z</time></trkpt><trkpt lat="40.85780830397" lon="9.161644920435405"><ele>1074.0</ele><time>2026-05-03T10:11:06Z</time></trkpt><trkpt lat="40.85771697780762" lon="9.161783326518966"><ele>1077.0</ele><time>2026-05-03T10:11:07Z</time></trkpt><trkpt lat="40.85762072562309" lon="9.161920257719926"><ele>1080.0</ele><time>2026-05-03T10:11:08Z</time></trkpt><trkpt lat="40.857523334785554" lon="9.162062670517221"><ele>1083.0</ele><time>2026-05-03T10:11:09Z</time></trkpt><trkpt lat="40.857431506081326" lon="9.1622195983563"><ele>1086.25</ele><time>2026-05-03T10:11:10Z</time></trkpt><trkpt lat="40.85735233330192" lon="9.162380339480645"><ele>1089.5</ele><time>2026-05-03T10:11:11Z</time></trkpt><trkpt lat="40.85727910294255" lon="9.162555866755797"><ele>1092.75</ele><time>2026-05-03T10:11:12Z</time></trkpt><trkpt lat="40.85720578987514" lon="9.16272544209486"><ele>1096.0</ele><time>2026-05-03T10:11:13Z</time></trkpt><trkpt lat="40.857151668280466" lon="9.162905968692161"><ele>1096.0</ele><time>2026-05-03T10:11:14Z</time></trkpt><trkpt lat="40.85708451360177" lon="9.163035552262814"><ele>1096.0</ele><time>2026-05-03T10:11:15Z</time></trkpt><trkpt lat="40.85704720596504" lon="9.163135444982855"><ele>1096.0</ele><time>2026-05-03T10:11:16Z</time></trkpt><trkpt lat="40.85701441797258" lon="9.163251089073961"><ele>1096.0</ele><time>2026-05-03T10:11:17Z</time></trkpt><trkpt lat="40.85700538376739" lon="9.163375746548557"><ele>1096.0</ele><time>2026-05-03T10:11:18Z</time></trkpt><trkpt lat="40.857039881721306" lon="9.163496332871793"><ele>1098.6</ele><time>2026-05-03T10:11:19Z</time></trkpt><trkpt lat="40.8571041171625" lon="9.16359873583439"><ele>1101.1999999999998</ele><time>2026-05-03T10:11:20Z</time></trkpt><trkpt lat="40.85719150871451" lon="9.163670984104037"><ele>1103.8000000000002</ele><time>2026-05-03T10:11:21Z</time></trkpt><trkpt lat="40.85729460467747" lon="9.163701399142832"><ele>1106.4</ele><time>2026-05-03T10:11:22Z</time></trkpt><trkpt lat="40.857398191778834" lon="9.163689250131602"><ele>1109.0</ele><time>2026-05-03T10:11:23Z</time></trkpt><trkpt lat="40.85749104720604" lon="9.163633908973145"><ele>1109.0</ele><time>2026-05-03T10:11:24Z</time></trkpt><trkpt lat="40.857566278029765" lon="9.163545144557178"><ele>1109.0</ele><time>2026-05-03T10:11:25Z</time></trkpt><trkpt lat="40.85764124272268" lon="9.163470594234951"><ele>1109.0</ele><time>2026-05-03T10:11:26Z</time></trkpt><trkpt lat="40.857716405068416" lon="9.16344941922569"><ele>1109.0</ele><time>2026-05-03T10:11:27Z</time></trkpt><trkpt lat="40.85778238203338" lon="9.163490590133863"><ele>1109.0</ele><time>2026-05-03T10:11:28Z</time></trkpt><trkpt lat="40.85784896137012" lon="9.163581868753907"><ele>1109.0</ele><time>2026-05-03T10:11:29Z</time></trkpt><trkpt lat="40.85788716669593" lon="9.163675361512638"><ele>1109.2</ele><time>2026-05-03T10:11:30Z</time></trkpt><trkpt lat="40.857917082768644" lon="9.163805933855782"><ele>1109.4</ele><time>2026-05-03T10:11:31Z</time></trkpt><trkpt lat="40.8579074485589" lon="9.16391411621757"><ele>1109.6</ele><time>2026-05-03T10:11:32Z</time></trkpt><trkpt lat="40.85783610207242" lon="9.164017651565688"><ele>1109.8</ele><time>2026-05-03T10:11:33Z</time></trkpt><trkpt lat="40.85776367105074" lon="9.164111872230562"><ele>1110.0</ele><time>2026-05-03T10:11:34Z</time></trkpt><trkpt lat="40.85767374443283" lon="9.16422504396173"><ele>1112.75</ele><time>2026-05-03T10:11:35Z</time></trkpt><trkpt lat="40.85758658951956" lon="9.164354990974962"><ele>1115.5</ele><time>2026-05-03T10:11:36Z</time></trkpt><trkpt lat="40.8574863440752" lon="9.164494230000418"><ele>1118.25</ele><time>2026-05-03T10:11:37Z</time></trkpt><trkpt lat="40.857385289413656" lon="9.164647809701071"><ele>1121.0</ele><time>2026-05-03T10:11:38Z</time></trkpt><trkpt lat="40.85726886095836" lon="9.164808345784335"><ele>1125.6666666666667</ele><time>2026-05-03T10:11:39Z</time></trkpt><trkpt lat="40.85714318034903" lon="9.164948200561433"><ele>1130.3333333333333</ele><time>2026-05-03T10:11:40Z</time></trkpt><trkpt lat="40.85699063495024" lon="9.165073524617135"><ele>1135.0</ele><time>2026-05-03T10:11:41Z</time></trkpt><trkpt lat="40.85683198162609" lon="9.165188833987918"><ele>1133.3333333333333</ele><time>2026-05-03T10:11:42Z</time></trkpt><trkpt lat="40.856681821332174" lon="9.165292613194746"><ele>1131.6666666666667</ele><time>2026-05-03T10:11:43Z</time></trkpt><trkpt lat="40.8565571538335" lon="9.165378193310756"><ele>1130.0</ele><time>2026-05-03T10:11:44Z</time></trkpt><trkpt lat="40.85643378202131" lon="9.165466405341492"><ele>1130.0</ele><time>2026-05-03T10:11:45Z</time></trkpt><trkpt lat="40.85630561193325" lon="9.165564532287263"><ele>1130.0</ele><time>2026-05-03T10:11:46Z</time></trkpt><trkpt lat="40.856170963384734" lon="9.16566431782866"><ele>1130.0</ele><time>2026-05-03T10:11:47Z</time></trkpt><trkpt lat="40.856035796854066" lon="9.165776193864707"><ele>1136.3333333333335</ele><time>2026-05-03T10:11:48Z</time></trkpt><trkpt lat="40.85590041301254" lon="9.165894754516074"><ele>1142.6666666666667</ele><time>2026-05-03T10:11:49Z</time></trkpt><trkpt lat="40.85577482262234" lon="9.166025505135893"><ele>1149.0</ele><time>2026-05-03T10:11:50Z</time></trkpt><trkpt lat="40.85563782586284" lon="9.166126789337627"><ele>1149.0</ele><time>2026-05-03T10:11:51Z</time></trkpt><trkpt lat="40.85552000596171" lon="9.166228082744556"><ele>1149.0</ele><time>2026-05-03T10:11:52Z</time></trkpt><trkpt lat="40.855416630832586" lon="9.166308376811742"><ele>1149.0</ele><time>2026-05-03T10:11:53Z</time></trkpt><trkpt lat="40.85533772403187" lon="9.166391746753211"><ele>1149.0</ele><time>2026-05-03T10:11:54Z</time></trkpt><trkpt lat="40.85528867832495" lon="9.166476626453907"><ele>1149.0</ele><time>2026-05-03T10:11:55Z</time></trkpt><trkpt lat="40.85529009147102" lon="9.166588003455699"><ele>1151.8</ele><time>2026-05-03T10:11:56Z</time></trkpt><trkpt lat="40.8553478361436" lon="9.166670818817519"><ele>1154.6000000000001</ele><time>2026-05-03T10:11:57Z</time></trkpt><trkpt lat="40.85541787557744" lon="9.166723534495166"><ele>1157.4</ele><time>2026-05-03T10:11:58Z</time></trkpt><trkpt lat="40.85550751178676" lon="9.166725330381539"><ele>1160.2</ele><time>2026-05-03T10:11:59Z</time></trkpt><trkpt lat="40.855612057000236" lon="9.166698478711105"><ele>1163.0</ele><time>2026-05-03T10:12:00Z</time></trkpt><trkpt lat="40.85573877639195" lon="9.166672805406751"><ele>1163.0</ele><time>2026-05-03T10:12:01Z</time></trkpt><trkpt lat="40.85587411361017" lon="9.166672155756318"><ele>1163.0</ele><time>2026-05-03T10:12:02Z</time></trkpt><trkpt lat="40.85599371414999" lon="9.166664864234466"><ele>1163.0</ele><time>2026-05-03T10:12:03Z</time></trkpt><trkpt lat="40.85612045156191" lon="9.166686612073354"><ele>1163.0</ele><time>2026-05-03T10:12:04Z</time></trkpt><trkpt lat="40.85625063923814" lon="9.166732554925035"><ele>1163.5</ele><time>2026-05-03T10:12:05Z</time></trkpt><trkpt lat="40.856387078413" lon="9.16680242086941"><ele>1164.0</ele><time>2026-05-03T10:12:06Z</time></trkpt><trkpt lat="40.85652559979932" lon="9.166876989236808"><ele>1164.5</ele><time>2026-05-03T10:12:07Z</time></trkpt><trkpt lat="40.856658357356174" lon="9.166944939124424"><ele>1165.0</ele><time>2026-05-03T10:12:08Z</time></trkpt><trkpt lat="40.85677167744278" lon="9.167000984800511"><ele>1166.2</ele><time>2026-05-03T10:12:09Z</time></trkpt><trkpt lat="40.856875913303945" lon="9.167048905002781"><ele>1167.4</ele><time>2026-05-03T10:12:10Z</time></trkpt><trkpt lat="40.85694314882321" lon="9.167117669527187"><ele>1168.6</ele><time>2026-05-03T10:12:11Z</time></trkpt><trkpt lat="40.85694868918549" lon="9.167214540726551"><ele>1169.8</ele><time>2026-05-03T10:12:12Z</time></trkpt><trkpt lat="40.85687646466156" lon="9.167335283546308"><ele>1171.0</ele><time>2026-05-03T10:12:14Z</time></trkpt><trkpt lat="40.8568098966318" lon="9.167362701242102"><ele>1173.5</ele><time>2026-05-03T10:12:15Z</time></trkpt><trkpt lat="40.85672167418129" lon="9.167386661989088"><ele>1176.0</ele><time>2026-05-03T10:12:16Z</time></trkpt><trkpt lat="40.85660876613401" lon="9.16741424077672"><ele>1178.5</ele><time>2026-05-03T10:12:17Z</time></trkpt><trkpt lat="40.85647892626727" lon="9.167445676871464"><ele>1181.0</ele><time>2026-05-03T10:12:18Z</time></trkpt><trkpt lat="40.85634469310097" lon="9.167478505787418"><ele>1181.0</ele><time>2026-05-03T10:12:19Z</time></trkpt><trkpt lat="40.856218693865124" lon="9.16750932097439"><ele>1181.0</ele><time>2026-05-03T10:12:20Z</time></trkpt><trkpt lat="40.8561003176446" lon="9.167541512002252"><ele>1181.0</ele><time>2026-05-03T10:12:21Z</time></trkpt><trkpt lat="40.8559965019629" lon="9.167573395964299"><ele>1181.0</ele><time>2026-05-03T10:12:22Z</time></trkpt><trkpt lat="40.85590878026114" lon="9.167604697982581"><ele>1181.0</ele><time>2026-05-03T10:12:23Z</time></trkpt><trkpt lat="40.85584052947308" lon="9.167642519367524"><ele>1181.0</ele><time>2026-05-03T10:12:24Z</time></trkpt><trkpt lat="40.855788713106094" lon="9.167703460759924"><ele>1181.0</ele><time>2026-05-03T10:12:25Z</time></trkpt><trkpt lat="40.855783514882695" lon="9.167808853216096"><ele>1181.0</ele><time>2026-05-03T10:12:26Z</time></trkpt><trkpt lat="40.85579559392477" lon="9.167900498438073"><ele>1181.0</ele><time>2026-05-03T10:12:27Z</time></trkpt><trkpt lat="40.855848806593336" lon="9.167975129176883"><ele>1181.0</ele><time>2026-05-03T10:12:28Z</time></trkpt><trkpt lat="40.855931247358996" lon="9.16801932413725"><ele>1181.0</ele><time>2026-05-03T10:12:29Z</time></trkpt><trkpt lat="40.85603629896524" lon="9.168039137437798"><ele>1181.0</ele><time>2026-05-03T10:12:30Z</time></trkpt><trkpt lat="40.85613927615009" lon="9.168061155415621"><ele>1181.0</ele><time>2026-05-03T10:12:31Z</time></trkpt><trkpt lat="40.85624245747052" lon="9.16808707106503"><ele>1181.0</ele><time>2026-05-03T10:12:32Z</time></trkpt><trkpt lat="40.856322555822274" lon="9.168107230774266"><ele>1181.0</ele><time>2026-05-03T10:12:33Z</time></trkpt><trkpt lat="40.85641430065683" lon="9.168174304898423"><ele>1181.0</ele><time>2026-05-03T10:12:35Z</time></trkpt><trkpt lat="40.85636716227281" lon="9.168356728937544"><ele>1184.3999999999999</ele><time>2026-05-03T10:12:37Z</time></trkpt><trkpt lat="40.856314255864845" lon="9.168422476365155"><ele>1187.8</ele><time>2026-05-03T10:12:38Z</time></trkpt><trkpt lat="40.85621568002785" lon="9.1684636472546"><ele>1191.1999999999998</ele><time>2026-05-03T10:12:39Z</time></trkpt><trkpt lat="40.856097358930874" lon="9.168452487257984"><ele>1194.6</ele><time>2026-05-03T10:12:40Z</time></trkpt><trkpt lat="40.855968350216635" lon="9.168462450497529"><ele>1198.0</ele><time>2026-05-03T10:12:41Z</time></trkpt><trkpt lat="40.85581776063227" lon="9.168463486708848"><ele>1198.0</ele><time>2026-05-03T10:12:42Z</time></trkpt><trkpt lat="40.855657734948586" lon="9.168467379328936"><ele>1198.0</ele><time>2026-05-03T10:12:43Z</time></trkpt><trkpt lat="40.85548983808301" lon="9.168478020220862"><ele>1198.0</ele><time>2026-05-03T10:12:44Z</time></trkpt><trkpt lat="40.8553199617394" lon="9.168508672362108"><ele>1198.0</ele><time>2026-05-03T10:12:45Z</time></trkpt><trkpt lat="40.85516385898323" lon="9.168562699917313"><ele>1198.0</ele><time>2026-05-03T10:12:46Z</time></trkpt><trkpt lat="40.85502572722524" lon="9.168666835870637"><ele>1198.0</ele><time>2026-05-03T10:12:47Z</time></trkpt><trkpt lat="40.85489398841762" lon="9.168770900898469"><ele>1200.0</ele><time>2026-05-03T10:12:48Z</time></trkpt><trkpt lat="40.85476806775989" lon="9.168885471354272"><ele>1202.0</ele><time>2026-05-03T10:12:49Z</time></trkpt><trkpt lat="40.854624467711886" lon="9.16892631478635"><ele>1204.0</ele><time>2026-05-03T10:12:50Z</time></trkpt><trkpt lat="40.85447195432155" lon="9.168975002068949"><ele>1204.0</ele><time>2026-05-03T10:12:51Z</time></trkpt><trkpt lat="40.854321924675446" lon="9.169014177107288"><ele>1204.0</ele><time>2026-05-03T10:12:52Z</time></trkpt><trkpt lat="40.85417155056098" lon="9.169080180377605"><ele>1204.0</ele><time>2026-05-03T10:12:53Z</time></trkpt><trkpt lat="40.85402575772626" lon="9.16915423558012"><ele>1211.0</ele><time>2026-05-03T10:12:54Z</time></trkpt><trkpt lat="40.853881911603615" lon="9.169242377409157"><ele>1218.0</ele><time>2026-05-03T10:12:55Z</time></trkpt><trkpt lat="40.85374775631107" lon="9.169338849309037"><ele>1225.0</ele><time>2026-05-03T10:12:56Z</time></trkpt><trkpt lat="40.85361585668155" lon="9.169431435736401"><ele>1225.0</ele><time>2026-05-03T10:12:57Z</time></trkpt><trkpt lat="40.8534902214252" lon="9.169508757475084"><ele>1225.0</ele><time>2026-05-03T10:12:58Z</time></trkpt><trkpt lat="40.853370123361266" lon="9.169558621974835"><ele>1225.0</ele><time>2026-05-03T10:12:59Z</time></trkpt><trkpt lat="40.85324987184353" lon="9.169577311716306"><ele>1225.0</ele><time>2026-05-03T10:13:00Z</time></trkpt><trkpt lat="40.85310687620923" lon="9.169565457320392"><ele>1226.75</ele><time>2026-05-03T10:13:01Z</time></trkpt><trkpt lat="40.852979202971774" lon="9.169548314577796"><ele>1228.5</ele><time>2026-05-03T10:13:02Z</time></trkpt><trkpt lat="40.852850508660836" lon="9.169531179288555"><ele>1230.25</ele><time>2026-05-03T10:13:03Z</time></trkpt><trkpt lat="40.852719564644296" lon="9.169565333513251"><ele>1232.0</ele><time>2026-05-03T10:13:04Z</time></trkpt><trkpt lat="40.85258790296856" lon="9.169593943537038"><ele>1235.25</ele><time>2026-05-03T10:13:05Z</time></trkpt><trkpt lat="40.852457476524435" lon="9.169624075794731"><ele>1238.5</ele><time>2026-05-03T10:13:06Z</time></trkpt><trkpt lat="40.85233276621468" lon="9.169703969073325"><ele>1241.75</ele><time>2026-05-03T10:13:07Z</time></trkpt><trkpt lat="40.85221089684898" lon="9.169781857630985"><ele>1245.0</ele><time>2026-05-03T10:13:08Z</time></trkpt><trkpt lat="40.85208496281314" lon="9.169830774251288"><ele>1246.25</ele><time>2026-05-03T10:13:09Z</time></trkpt><trkpt lat="40.85197263166098" lon="9.169897821592244"><ele>1247.5</ele><time>2026-05-03T10:13:10Z</time></trkpt><trkpt lat="40.85187197976962" lon="9.1699662703242"><ele>1248.75</ele><time>2026-05-03T10:13:11Z</time></trkpt><trkpt lat="40.85177782509506" lon="9.170037810687719"><ele>1250.0</ele><time>2026-05-03T10:13:12Z</time></trkpt><trkpt lat="40.85168829770026" lon="9.170113165452582"><ele>1250.8</ele><time>2026-05-03T10:13:13Z</time></trkpt><trkpt lat="40.85160743289144" lon="9.17019483190349"><ele>1251.6</ele><time>2026-05-03T10:13:14Z</time></trkpt><trkpt lat="40.85153483797882" lon="9.170281258286971"><ele>1252.4</ele><time>2026-05-03T10:13:15Z</time></trkpt><trkpt lat="40.851465421446214" lon="9.1703699279841"><ele>1253.2</ele><time>2026-05-03T10:13:16Z</time></trkpt><trkpt lat="40.85139986153853" lon="9.170455444645008"><ele>1254.0</ele><time>2026-05-03T10:13:17Z</time></trkpt><trkpt lat="40.85133038717941" lon="9.170557334385961"><ele>1254.0</ele><time>2026-05-03T10:13:18Z</time></trkpt><trkpt lat="40.85127351482532" lon="9.170673381330504"><ele>1254.0</ele><time>2026-05-03T10:13:19Z</time></trkpt><trkpt lat="40.85123093461789" lon="9.170808558014185"><ele>1254.0</ele><time>2026-05-03T10:13:20Z</time></trkpt><trkpt lat="40.85121538036977" lon="9.170949165454262"><ele>1254.0</ele><time>2026-05-03T10:13:21Z</time></trkpt><trkpt lat="40.85122527131059" lon="9.171092546262116"><ele>1254.0</ele><time>2026-05-03T10:13:22Z</time></trkpt><trkpt lat="40.851295020780654" lon="9.171256829300814"><ele>1256.75</ele><time>2026-05-03T10:13:23Z</time></trkpt><trkpt lat="40.851368215357745" lon="9.171384263344017"><ele>1259.5</ele><time>2026-05-03T10:13:24Z</time></trkpt><trkpt lat="40.85142048151127" lon="9.171528938060574"><ele>1262.25</ele><time>2026-05-03T10:13:25Z</time></trkpt><trkpt lat="40.85149137576816" lon="9.171670652158191"><ele>1265.0</ele><time>2026-05-03T10:13:26Z</time></trkpt><trkpt lat="40.85156830661886" lon="9.171804225358146"><ele>1267.25</ele><time>2026-05-03T10:13:27Z</time></trkpt><trkpt lat="40.85166184411054" lon="9.171898587867753"><ele>1269.5</ele><time>2026-05-03T10:13:28Z</time></trkpt><trkpt lat="40.85175948422275" lon="9.171980596399274"><ele>1271.75</ele><time>2026-05-03T10:13:29Z</time></trkpt><trkpt lat="40.8518706532645" lon="9.172036979768915"><ele>1274.0</ele><time>2026-05-03T10:13:30Z</time></trkpt><trkpt lat="40.85199342307708" lon="9.17208460768026"><ele>1274.0</ele><time>2026-05-03T10:13:31Z</time></trkpt><trkpt lat="40.852115593390046" lon="9.17213326854737"><ele>1274.0</ele><time>2026-05-03T10:13:32Z</time></trkpt><trkpt lat="40.852233270986794" lon="9.172172220492552"><ele>1274.0</ele><time>2026-05-03T10:13:33Z</time></trkpt><trkpt lat="40.85235105935027" lon="9.172208266218442"><ele>1274.0</ele><time>2026-05-03T10:13:34Z</time></trkpt><trkpt lat="40.8524594697499" lon="9.172222534459738"><ele>1274.0</ele><time>2026-05-03T10:13:35Z</time></trkpt><trkpt lat="40.85256918315329" lon="9.172254874518934"><ele>1274.0</ele><time>2026-05-03T10:13:36Z</time></trkpt><trkpt lat="40.852679529958166" lon="9.172272692679448"><ele>1274.0</ele><time>2026-05-03T10:13:37Z</time></trkpt><trkpt lat="40.85278602631485" lon="9.17228795564717"><ele>1274.0</ele><time>2026-05-03T10:13:38Z</time></trkpt><trkpt lat="40.85289426444866" lon="9.172304853343295"><ele>1274.0</ele><time>2026-05-03T10:13:39Z</time></trkpt><trkpt lat="40.853001819984655" lon="9.172319928570742"><ele>1274.6666666666667</ele><time>2026-05-03T10:13:40Z</time></trkpt><trkpt lat="40.85309951413464" lon="9.17231866608351"><ele>1275.3333333333335</ele><time>2026-05-03T10:13:41Z</time></trkpt><trkpt lat="40.85319299526609" lon="9.17230902314977"><ele>1276.0</ele><time>2026-05-03T10:13:42Z</time></trkpt><trkpt lat="40.85327591985333" lon="9.172287062959741"><ele>1276.6666666666667</ele><time>2026-05-03T10:13:43Z</time></trkpt><trkpt lat="40.85335519450859" lon="9.17227086107099"><ele>1277.3333333333333</ele><time>2026-05-03T10:13:44Z</time></trkpt><trkpt lat="40.85342929410635" lon="9.17227660648816"><ele>1278.0</ele><time>2026-05-03T10:13:45Z</time></trkpt><trkpt lat="40.853481539836714" lon="9.172327808123633"><ele>1281.6</ele><time>2026-05-03T10:13:46Z</time></trkpt><trkpt lat="40.8534768899977" lon="9.172478988482872"><ele>1285.1999999999998</ele><time>2026-05-03T10:13:48Z</time></trkpt><trkpt lat="40.8533926444506" lon="9.17253020622001"><ele>1288.8</ele><time>2026-05-03T10:13:49Z</time></trkpt><trkpt lat="40.85331108764638" lon="9.172595812681585"><ele>1292.3999999999999</ele><time>2026-05-03T10:13:50Z</time></trkpt><trkpt lat="40.853214054217005" lon="9.172669214436807"><ele>1296.0</ele><time>2026-05-03T10:13:51Z</time></trkpt><trkpt lat="40.85311988721366" lon="9.172738416946165"><ele>1296.0</ele><time>2026-05-03T10:13:52Z</time></trkpt><trkpt lat="40.85305487103192" lon="9.172811267372158"><ele>1296.0</ele><time>2026-05-03T10:13:53Z</time></trkpt><trkpt lat="40.8529908019736" lon="9.172883617094643"><ele>1296.0</ele><time>2026-05-03T10:13:54Z</time></trkpt><trkpt lat="40.852972803217185" lon="9.172981498123567"><ele>1296.0</ele><time>2026-05-03T10:13:55Z</time></trkpt><trkpt lat="40.85300125575516" lon="9.173074225272682"><ele>1296.0</ele><time>2026-05-03T10:13:56Z</time></trkpt><trkpt lat="40.85306385452026" lon="9.173143779518618"><ele>1296.0</ele><time>2026-05-03T10:13:57Z</time></trkpt><trkpt lat="40.85315443864951" lon="9.173191944272771"><ele>1298.8</ele><time>2026-05-03T10:13:58Z</time></trkpt><trkpt lat="40.85326456479616" lon="9.17323785127834"><ele>1301.6</ele><time>2026-05-03T10:13:59Z</time></trkpt><trkpt lat="40.85337099779655" lon="9.173258527624993"><ele>1304.4</ele><time>2026-05-03T10:14:00Z</time></trkpt><trkpt lat="40.8534420503053" lon="9.173304530197399"><ele>1307.2</ele><time>2026-05-03T10:14:01Z</time></trkpt><trkpt lat="40.853530220307356" lon="9.17331657230444"><ele>1310.0</ele><time>2026-05-03T10:14:03Z</time></trkpt><trkpt lat="40.85354547702278" lon="9.17342003449106"><ele>1310.0</ele><time>2026-05-03T10:14:06Z</time></trkpt><trkpt lat="40.85346183204648" lon="9.17342290921989"><ele>1310.0</ele><time>2026-05-03T10:14:08Z</time></trkpt><trkpt lat="40.85338816693227" lon="9.173449296765925"><ele>1310.0</ele><time>2026-05-03T10:14:09Z</time></trkpt><trkpt lat="40.85330268868422" lon="9.173489580751081"><ele>1310.0</ele><time>2026-05-03T10:14:10Z</time></trkpt><trkpt lat="40.853201928354956" lon="9.173523849560723"><ele>1310.0</ele><time>2026-05-03T10:14:11Z</time></trkpt><trkpt lat="40.85309951642922" lon="9.173556670810665"><ele>1310.0</ele><time>2026-05-03T10:14:12Z</time></trkpt><trkpt lat="40.853003077255906" lon="9.173590340573597"><ele>1310.0</ele><time>2026-05-03T10:14:13Z</time></trkpt><trkpt lat="40.852924159970016" lon="9.173616183727509"><ele>1310.0</ele><time>2026-05-03T10:14:14Z</time></trkpt><trkpt lat="40.85285508252254" lon="9.173625904468132"><ele>1310.0</ele><time>2026-05-03T10:14:15Z</time></trkpt><trkpt lat="40.852779552094" lon="9.173629344672515"><ele>1310.0</ele><time>2026-05-03T10:14:16Z</time></trkpt><trkpt lat="40.852707517908264" lon="9.173649888894166"><ele>1310.0</ele><time>2026-05-03T10:14:17Z</time></trkpt><trkpt lat="40.85262727521722" lon="9.17367281352923"><ele>1311.2</ele><time>2026-05-03T10:14:18Z</time></trkpt><trkpt lat="40.85254397629155" lon="9.173736092725314"><ele>1312.4</ele><time>2026-05-03T10:14:19Z</time></trkpt><trkpt lat="40.85246975083853" lon="9.173833724865684"><ele>1313.6</ele><time>2026-05-03T10:14:20Z</time></trkpt><trkpt lat="40.85238298777921" lon="9.173925486117492"><ele>1314.8</ele><time>2026-05-03T10:14:21Z</time></trkpt><trkpt lat="40.85230011393797" lon="9.174029553766328"><ele>1316.0</ele><time>2026-05-03T10:14:22Z</time></trkpt><trkpt lat="40.85221001206606" lon="9.174134529657882"><ele>1316.0</ele><time>2026-05-03T10:14:23Z</time></trkpt><trkpt lat="40.85211278984926" lon="9.174233615928626"><ele>1316.0</ele><time>2026-05-03T10:14:24Z</time></trkpt><trkpt lat="40.85201284320975" lon="9.174332411655735"><ele>1316.0</ele><time>2026-05-03T10:14:25Z</time></trkpt><trkpt lat="40.851912976625094" lon="9.17443023367312"><ele>1316.0</ele><time>2026-05-03T10:14:26Z</time></trkpt><trkpt lat="40.85181363286523" lon="9.174525534177873"><ele>1315.4</ele><time>2026-05-03T10:14:27Z</time></trkpt><trkpt lat="40.8517287561296" lon="9.174633561565317"><ele>1314.8</ele><time>2026-05-03T10:14:28Z</time></trkpt><trkpt lat="40.85163776794962" lon="9.174721137099182"><ele>1314.2</ele><time>2026-05-03T10:14:29Z</time></trkpt><trkpt lat="40.85156244726455" lon="9.17481473492834"><ele>1313.6000000000001</ele><time>2026-05-03T10:14:30Z</time></trkpt><trkpt lat="40.85150294701228" lon="9.174917971000431"><ele>1313.0</ele><time>2026-05-03T10:14:31Z</time></trkpt><trkpt lat="40.85144731941946" lon="9.17502372301673"><ele>1315.6000000000001</ele><time>2026-05-03T10:14:32Z</time></trkpt><trkpt lat="40.851418722906594" lon="9.175149705650993"><ele>1318.2</ele><time>2026-05-03T10:14:33Z</time></trkpt><trkpt lat="40.85143145271998" lon="9.175281865324383"><ele>1320.8</ele><time>2026-05-03T10:14:34Z</time></trkpt><trkpt lat="40.85145530705041" lon="9.175387504418904"><ele>1323.4</ele><time>2026-05-03T10:14:35Z</time></trkpt><trkpt lat="40.851514002390644" lon="9.175471238806045"><ele>1326.0</ele><time>2026-05-03T10:14:36Z</time></trkpt><trkpt lat="40.85159075851715" lon="9.175527191500457"><ele>1326.0</ele><time>2026-05-03T10:14:37Z</time></trkpt><trkpt lat="40.8516818819016" lon="9.175548493638003"><ele>1326.0</ele><time>2026-05-03T10:14:38Z</time></trkpt><trkpt lat="40.85177143749235" lon="9.1755638266097"><ele>1326.0</ele><time>2026-05-03T10:14:39Z</time></trkpt><trkpt lat="40.85185575107899" lon="9.17557834901213"><ele>1326.0</ele><time>2026-05-03T10:14:40Z</time></trkpt><trkpt lat="40.85193795753774" lon="9.17559327677548"><ele>1326.0</ele><time>2026-05-03T10:14:41Z</time></trkpt><trkpt lat="40.85201606412327" lon="9.175605010208153"><ele>1326.0</ele><time>2026-05-03T10:14:42Z</time></trkpt><trkpt lat="40.85208776287169" lon="9.17560481323604"><ele>1326.3333333333333</ele><time>2026-05-03T10:14:43Z</time></trkpt><trkpt lat="40.85216552823677" lon="9.175614206934517"><ele>1326.6666666666667</ele><time>2026-05-03T10:14:44Z</time></trkpt><trkpt lat="40.852242065643274" lon="9.175619553116878"><ele>1327.0</ele><time>2026-05-03T10:14:45Z</time></trkpt><trkpt lat="40.852314666451846" lon="9.175624955490147"><ele>1327.3333333333335</ele><time>2026-05-03T10:14:46Z</time></trkpt><trkpt lat="40.85238538770921" lon="9.175619373140089"><ele>1327.6666666666667</ele><time>2026-05-03T10:14:47Z</time></trkpt><trkpt lat="40.85249215832632" lon="9.175601194461928"><ele>1328.0</ele><time>2026-05-03T10:14:49Z</time></trkpt><trkpt lat="40.85255573814742" lon="9.175571892391263"><ele>1328.0</ele><time>2026-05-03T10:14:51Z</time></trkpt><trkpt lat="40.85262666545541" lon="9.17553470244988"><ele>1328.0</ele><time>2026-05-03T10:14:54Z</time></trkpt><trkpt lat="40.85259902797878" lon="9.175399383314844"><ele>1328.0</ele><time>2026-05-03T10:16:16Z</time></trkpt><trkpt lat="40.85257655832748" lon="9.175479029698248"><ele>1328.0</ele><time>2026-05-03T10:27:07Z</time></trkpt><trkpt lat="40.85257467836452" lon="9.175569542171793"><ele>1328.0</ele><time>2026-05-03T10:27:10Z</time></trkpt><trkpt lat="40.85250762873454" lon="9.17559123670169"><ele>1328.0</ele><time>2026-05-03T10:27:54Z</time></trkpt><trkpt lat="40.852404205520145" lon="9.175611500768492"><ele>1328.0</ele><time>2026-05-03T10:27:57Z</time></trkpt><trkpt lat="40.85228523804682" lon="9.175590065145078"><ele>1328.0</ele><time>2026-05-03T10:27:59Z</time></trkpt><trkpt lat="40.852218904937935" lon="9.175587967464208"><ele>1328.0</ele><time>2026-05-03T10:28:00Z</time></trkpt><trkpt lat="40.85214461781049" lon="9.175582675240781"><ele>1328.0</ele><time>2026-05-03T10:28:01Z</time></trkpt><trkpt lat="40.85206953555833" lon="9.175576579831924"><ele>1328.0</ele><time>2026-05-03T10:28:02Z</time></trkpt><trkpt lat="40.851990880126294" lon="9.17556653259316"><ele>1328.0</ele><time>2026-05-03T10:28:03Z</time></trkpt><trkpt lat="40.85191363929839" lon="9.175551162899684"><ele>1328.0</ele><time>2026-05-03T10:28:04Z</time></trkpt><trkpt lat="40.85184739956041" lon="9.175538293998764"><ele>1328.0</ele><time>2026-05-03T10:28:05Z</time></trkpt><trkpt lat="40.851783340272206" lon="9.17552584870551"><ele>1328.0</ele><time>2026-05-03T10:28:06Z</time></trkpt><trkpt lat="40.85172073382406" lon="9.175513685674265"><ele>1328.0</ele><time>2026-05-03T10:28:07Z</time></trkpt><trkpt lat="40.8516054322525" lon="9.175484192702228"><ele>1328.0</ele><time>2026-05-03T10:28:09Z</time></trkpt><trkpt lat="40.851506801153334" lon="9.17540835446787"><ele>1328.0</ele><time>2026-05-03T10:28:11Z</time></trkpt><trkpt lat="40.85146940646623" lon="9.175334947254598"><ele>1327.6666666666667</ele><time>2026-05-03T10:28:12Z</time></trkpt><trkpt lat="40.85143631324696" lon="9.175250274223329"><ele>1327.3333333333335</ele><time>2026-05-03T10:28:13Z</time></trkpt><trkpt lat="40.85144178030171" lon="9.175148848500386"><ele>1327.0</ele><time>2026-05-03T10:28:14Z</time></trkpt><trkpt lat="40.8514677382" lon="9.175051759435487"><ele>1326.6666666666667</ele><time>2026-05-03T10:28:15Z</time></trkpt><trkpt lat="40.85150517132954" lon="9.174951976958381"><ele>1326.3333333333333</ele><time>2026-05-03T10:28:16Z</time></trkpt><trkpt lat="40.85156069174958" lon="9.174855547841059"><ele>1326.0</ele><time>2026-05-03T10:28:17Z</time></trkpt><trkpt lat="40.851626959435364" lon="9.1747609376161"><ele>1324.0</ele><time>2026-05-03T10:28:18Z</time></trkpt><trkpt lat="40.85170550807849" lon="9.174671906178693"><ele>1322.0</ele><time>2026-05-03T10:28:19Z</time></trkpt><trkpt lat="40.851795901551846" lon="9.174589899725056"><ele>1320.0</ele><time>2026-05-03T10:28:20Z</time></trkpt><trkpt lat="40.851887336879855" lon="9.174504980874733"><ele>1318.0</ele><time>2026-05-03T10:28:21Z</time></trkpt><trkpt lat="40.85198027111079" lon="9.17441320754788"><ele>1316.0</ele><time>2026-05-03T10:28:22Z</time></trkpt><trkpt lat="40.85207539751895" lon="9.174317865378159"><ele>1316.0</ele><time>2026-05-03T10:28:23Z</time></trkpt><trkpt lat="40.85216926205928" lon="9.174226278293856"><ele>1316.0</ele><time>2026-05-03T10:28:24Z</time></trkpt><trkpt lat="40.85225222672908" lon="9.174137211271688"><ele>1316.0</ele><time>2026-05-03T10:28:25Z</time></trkpt><trkpt lat="40.85232893601145" lon="9.174043152098603"><ele>1316.0</ele><time>2026-05-03T10:28:26Z</time></trkpt><trkpt lat="40.852401786195955" lon="9.17395012832182"><ele>1316.0</ele><time>2026-05-03T10:28:27Z</time></trkpt><trkpt lat="40.85247019363782" lon="9.173858870382078"><ele>1315.0</ele><time>2026-05-03T10:28:28Z</time></trkpt><trkpt lat="40.85254101957716" lon="9.173777492807556"><ele>1314.0</ele><time>2026-05-03T10:28:29Z</time></trkpt><trkpt lat="40.85261726893645" lon="9.173718864311716"><ele>1313.0</ele><time>2026-05-03T10:28:30Z</time></trkpt><trkpt lat="40.852700132816146" lon="9.173684570930927"><ele>1312.0</ele><time>2026-05-03T10:28:31Z</time></trkpt><trkpt lat="40.85278169467019" lon="9.173668516347044"><ele>1311.0</ele><time>2026-05-03T10:28:32Z</time></trkpt><trkpt lat="40.85286545938364" lon="9.17366429253555"><ele>1310.0</ele><time>2026-05-03T10:28:33Z</time></trkpt><trkpt lat="40.85295277971308" lon="9.173649819147537"><ele>1310.0</ele><time>2026-05-03T10:28:34Z</time></trkpt><trkpt lat="40.853044359326965" lon="9.173617722923257"><ele>1310.0</ele><time>2026-05-03T10:28:35Z</time></trkpt><trkpt lat="40.853138414323105" lon="9.173587203870767"><ele>1310.0</ele><time>2026-05-03T10:28:36Z</time></trkpt><trkpt lat="40.85323098871741" lon="9.173562315891859"><ele>1310.0</ele><time>2026-05-03T10:28:37Z</time></trkpt><trkpt lat="40.85331697021268" lon="9.173530897247433"><ele>1310.0</ele><time>2026-05-03T10:28:38Z</time></trkpt><trkpt lat="40.85339572322249" lon="9.173500744930031"><ele>1310.0</ele><time>2026-05-03T10:28:39Z</time></trkpt><trkpt lat="40.853500555158156" lon="9.17345755756054"><ele>1310.0</ele><time>2026-05-03T10:28:41Z</time></trkpt><trkpt lat="40.8535582543361" lon="9.173413466155148"><ele>1310.0</ele><time>2026-05-03T10:28:43Z</time></trkpt><trkpt lat="40.85357017215072" lon="9.173313400452006"><ele>1310.0</ele><time>2026-05-03T10:28:45Z</time></trkpt><trkpt lat="40.85350504950462" lon="9.173285351088586"><ele>1310.0</ele><time>2026-05-03T10:28:46Z</time></trkpt><trkpt lat="40.853441279410596" lon="9.173273940989574"><ele>1310.0</ele><time>2026-05-03T10:28:47Z</time></trkpt><trkpt lat="40.8533749656625" lon="9.173234623424626"><ele>1310.0</ele><time>2026-05-03T10:28:48Z</time></trkpt><trkpt lat="40.85329501592947" lon="9.17320444442136"><ele>1310.0</ele><time>2026-05-03T10:28:49Z</time></trkpt><trkpt lat="40.85320543991455" lon="9.173170631738921"><ele>1310.0</ele><time>2026-05-03T10:28:50Z</time></trkpt><trkpt lat="40.85312140316183" lon="9.173128724982005"><ele>1310.0</ele><time>2026-05-03T10:28:51Z</time></trkpt><trkpt lat="40.853050572695594" lon="9.17307437653857"><ele>1310.0</ele><time>2026-05-03T10:28:52Z</time></trkpt><trkpt lat="40.8530103792651" lon="9.173001284285279"><ele>1310.0</ele><time>2026-05-03T10:28:53Z</time></trkpt><trkpt lat="40.85301821045378" lon="9.172901379443124"><ele>1307.6666666666667</ele><time>2026-05-03T10:28:54Z</time></trkpt><trkpt lat="40.8530659339377" lon="9.172816559023529"><ele>1305.3333333333335</ele><time>2026-05-03T10:28:55Z</time></trkpt><trkpt lat="40.85314648670847" lon="9.172759634976051"><ele>1303.0</ele><time>2026-05-03T10:28:56Z</time></trkpt><trkpt lat="40.853229986914116" lon="9.17270719569925"><ele>1300.6666666666667</ele><time>2026-05-03T10:28:57Z</time></trkpt><trkpt lat="40.85331164755944" lon="9.17265039956368"><ele>1298.3333333333333</ele><time>2026-05-03T10:28:58Z</time></trkpt><trkpt lat="40.853384311208366" lon="9.172595468334341"><ele>1296.0</ele><time>2026-05-03T10:28:59Z</time></trkpt><trkpt lat="40.853451245523544" lon="9.172537558291781"><ele>1297.5</ele><time>2026-05-03T10:29:00Z</time></trkpt><trkpt lat="40.853498569580566" lon="9.172460084936338"><ele>1299.0</ele><time>2026-05-03T10:29:01Z</time></trkpt><trkpt lat="40.85350817096663" lon="9.172364636075244"><ele>1300.5</ele><time>2026-05-03T10:29:02Z</time></trkpt><trkpt lat="40.853490639236156" lon="9.172275023941049"><ele>1302.0</ele><time>2026-05-03T10:29:03Z</time></trkpt><trkpt lat="40.85341397684415" lon="9.172226519499565"><ele>1303.5</ele><time>2026-05-03T10:29:04Z</time></trkpt><trkpt lat="40.8533236522764" lon="9.172237244589319"><ele>1305.0</ele><time>2026-05-03T10:29:05Z</time></trkpt><trkpt lat="40.85322563015124" lon="9.17226205849606"><ele>1299.6</ele><time>2026-05-03T10:29:06Z</time></trkpt><trkpt lat="40.853121786279296" lon="9.172279995558881"><ele>1294.2</ele><time>2026-05-03T10:29:07Z</time></trkpt><trkpt lat="40.85300824311701" lon="9.172280780529906"><ele>1288.8</ele><time>2026-05-03T10:29:08Z</time></trkpt><trkpt lat="40.85289736687707" lon="9.172269240099025"><ele>1283.4</ele><time>2026-05-03T10:29:09Z</time></trkpt><trkpt lat="40.85279128772285" lon="9.172256959992275"><ele>1278.0</ele><time>2026-05-03T10:29:10Z</time></trkpt><trkpt lat="40.85269022887282" lon="9.172241909474815"><ele>1277.2</ele><time>2026-05-03T10:29:11Z</time></trkpt><trkpt lat="40.8525939386398" lon="9.172224600026276"><ele>1276.4</ele><time>2026-05-03T10:29:12Z</time></trkpt><trkpt lat="40.85250387887378" lon="9.172202420314482"><ele>1275.6000000000001</ele><time>2026-05-03T10:29:13Z</time></trkpt><trkpt lat="40.85241732792826" lon="9.172175490718432"><ele>1274.8</ele><time>2026-05-03T10:29:14Z</time></trkpt><trkpt lat="40.852326971459064" lon="9.172147385310222"><ele>1274.0</ele><time>2026-05-03T10:29:15Z</time></trkpt><trkpt lat="40.8522172843305" lon="9.17211326705995"><ele>1274.0</ele><time>2026-05-03T10:29:16Z</time></trkpt><trkpt lat="40.85209452451206" lon="9.172073334107036"><ele>1274.0</ele><time>2026-05-03T10:29:17Z</time></trkpt><trkpt lat="40.85196142231088" lon="9.172034187166789"><ele>1274.0</ele><time>2026-05-03T10:29:18Z</time></trkpt><trkpt lat="40.85183968058476" lon="9.1719930903068"><ele>1274.0</ele><time>2026-05-03T10:29:19Z</time></trkpt><trkpt lat="40.85173109469881" lon="9.171928249482866"><ele>1274.2</ele><time>2026-05-03T10:29:20Z</time></trkpt><trkpt lat="40.851635291979186" lon="9.171844050356894"><ele>1274.4</ele><time>2026-05-03T10:29:21Z</time></trkpt><trkpt lat="40.851566053788126" lon="9.171734689049304"><ele>1274.6</ele><time>2026-05-03T10:29:22Z</time></trkpt><trkpt lat="40.85150445441774" lon="9.171617055384473"><ele>1274.8</ele><time>2026-05-03T10:29:23Z</time></trkpt><trkpt lat="40.851441549131515" lon="9.171491310795645"><ele>1275.0</ele><time>2026-05-03T10:29:24Z</time></trkpt><trkpt lat="40.85137863442142" lon="9.171364612994132"><ele>1273.0</ele><time>2026-05-03T10:29:25Z</time></trkpt><trkpt lat="40.85131291628345" lon="9.171232340025247"><ele>1271.0</ele><time>2026-05-03T10:29:26Z</time></trkpt><trkpt lat="40.85126138310908" lon="9.171113108052333"><ele>1269.0</ele><time>2026-05-03T10:29:27Z</time></trkpt><trkpt lat="40.85125011139891" lon="9.170985058204662"><ele>1267.0</ele><time>2026-05-03T10:29:28Z</time></trkpt><trkpt lat="40.85125927497684" lon="9.170849021055883"><ele>1265.0</ele><time>2026-05-03T10:29:29Z</time></trkpt><trkpt lat="40.85131202026881" lon="9.170689432481195"><ele>1262.25</ele><time>2026-05-03T10:29:30Z</time></trkpt><trkpt lat="40.851375424185925" lon="9.170560006163699"><ele>1259.5</ele><time>2026-05-03T10:29:31Z</time></trkpt><trkpt lat="40.85145507521574" lon="9.170437771622911"><ele>1256.75</ele><time>2026-05-03T10:29:32Z</time></trkpt><trkpt lat="40.85154320795817" lon="9.170322846919776"><ele>1254.0</ele><time>2026-05-03T10:29:33Z</time></trkpt><trkpt lat="40.851637025424296" lon="9.170212657152632"><ele>1254.0</ele><time>2026-05-03T10:29:34Z</time></trkpt><trkpt lat="40.851735469419175" lon="9.170111331953585"><ele>1254.0</ele><time>2026-05-03T10:29:35Z</time></trkpt><trkpt lat="40.85183731235284" lon="9.170025452576313"><ele>1254.0</ele><time>2026-05-03T10:29:36Z</time></trkpt><trkpt lat="40.85194814965103" lon="9.169942331197998"><ele>1254.0</ele><time>2026-05-03T10:29:37Z</time></trkpt><trkpt lat="40.85206790754474" lon="9.169888357472054"><ele>1251.75</ele><time>2026-05-03T10:29:38Z</time></trkpt><trkpt lat="40.85217832417301" lon="9.169804538264097"><ele>1249.5</ele><time>2026-05-03T10:29:39Z</time></trkpt><trkpt lat="40.85229721962152" lon="9.16974600331106"><ele>1247.25</ele><time>2026-05-03T10:29:40Z</time></trkpt><trkpt lat="40.852415936732335" lon="9.16969179601505"><ele>1245.0</ele><time>2026-05-03T10:29:41Z</time></trkpt><trkpt lat="40.852526276017244" lon="9.169646755633458"><ele>1242.4</ele><time>2026-05-03T10:29:42Z</time></trkpt><trkpt lat="40.8526336410496" lon="9.169610618007072"><ele>1239.8</ele><time>2026-05-03T10:29:43Z</time></trkpt><trkpt lat="40.852747675769876" lon="9.16959340352656"><ele>1237.2</ele><time>2026-05-03T10:29:44Z</time></trkpt><trkpt lat="40.85285914591636" lon="9.169575847909094"><ele>1234.6</ele><time>2026-05-03T10:29:45Z</time></trkpt><trkpt lat="40.85296456300139" lon="9.169582475335455"><ele>1232.0</ele><time>2026-05-03T10:29:46Z</time></trkpt><trkpt lat="40.85306675361152" lon="9.169603422600238"><ele>1232.0</ele><time>2026-05-03T10:29:47Z</time></trkpt><trkpt lat="40.853164668162115" lon="9.16962607893969"><ele>1232.0</ele><time>2026-05-03T10:29:48Z</time></trkpt><trkpt lat="40.853267351850285" lon="9.16963373309866"><ele>1232.0</ele><time>2026-05-03T10:29:49Z</time></trkpt><trkpt lat="40.85336971311488" lon="9.169612548779115"><ele>1232.0</ele><time>2026-05-03T10:29:50Z</time></trkpt><trkpt lat="40.85347027054203" lon="9.169567919498828"><ele>1232.0</ele><time>2026-05-03T10:29:51Z</time></trkpt><trkpt lat="40.85356078292875" lon="9.169502598554855"><ele>1230.25</ele><time>2026-05-03T10:29:52Z</time></trkpt><trkpt lat="40.85365566963011" lon="9.169436782618748"><ele>1228.5</ele><time>2026-05-03T10:29:53Z</time></trkpt><trkpt lat="40.85375529511102" lon="9.169369832148547"><ele>1226.75</ele><time>2026-05-03T10:29:54Z</time></trkpt><trkpt lat="40.85385827188506" lon="9.169300921624775"><ele>1225.0</ele><time>2026-05-03T10:29:55Z</time></trkpt><trkpt lat="40.85396471912782" lon="9.16922963064173"><ele>1225.0</ele><time>2026-05-03T10:29:56Z</time></trkpt><trkpt lat="40.85407584869175" lon="9.169158858406798"><ele>1225.0</ele><time>2026-05-03T10:29:57Z</time></trkpt><trkpt lat="40.854192753487766" lon="9.169094903102772"><ele>1225.0</ele><time>2026-05-03T10:29:58Z</time></trkpt><trkpt lat="40.854314373678044" lon="9.169039662615791"><ele>1225.0</ele><time>2026-05-03T10:29:59Z</time></trkpt><trkpt lat="40.854445543422216" lon="9.169025249148024"><ele>1219.75</ele><time>2026-05-03T10:30:00Z</time></trkpt><trkpt lat="40.854580813491935" lon="9.168982372050056"><ele>1214.5</ele><time>2026-05-03T10:30:01Z</time></trkpt><trkpt lat="40.85470697982737" lon="9.168938267252118"><ele>1209.25</ele><time>2026-05-03T10:30:02Z</time></trkpt><trkpt lat="40.85482697837957" lon="9.16887065682161"><ele>1204.0</ele><time>2026-05-03T10:30:03Z</time></trkpt><trkpt lat="40.85494328722051" lon="9.168785737206019"><ele>1204.0</ele><time>2026-05-03T10:30:04Z</time></trkpt><trkpt lat="40.85504866739297" lon="9.16868247586147"><ele>1204.0</ele><time>2026-05-03T10:30:05Z</time></trkpt><trkpt lat="40.85515795302807" lon="9.16860748765698"><ele>1204.0</ele><time>2026-05-03T10:30:06Z</time></trkpt><trkpt lat="40.85527422150828" lon="9.168551725549234"><ele>1204.0</ele><time>2026-05-03T10:30:07Z</time></trkpt><trkpt lat="40.85540199296827" lon="9.168520320776999"><ele>1202.5</ele><time>2026-05-03T10:30:08Z</time></trkpt><trkpt lat="40.85553503277549" lon="9.168511814130706"><ele>1201.0</ele><time>2026-05-03T10:30:09Z</time></trkpt><trkpt lat="40.85566618055435" lon="9.168508377486676"><ele>1199.5</ele><time>2026-05-03T10:30:10Z</time></trkpt><trkpt lat="40.85579464198809" lon="9.168508271690355"><ele>1198.0</ele><time>2026-05-03T10:30:11Z</time></trkpt><trkpt lat="40.85591689262252" lon="9.16850588833033"><ele>1198.25</ele><time>2026-05-03T10:30:12Z</time></trkpt><trkpt lat="40.85603751076351" lon="9.168496576784818"><ele>1198.5</ele><time>2026-05-03T10:30:13Z</time></trkpt><trkpt lat="40.85615636306222" lon="9.168492850281742"><ele>1198.75</ele><time>2026-05-03T10:30:14Z</time></trkpt><trkpt lat="40.85627056010181" lon="9.1684773508818"><ele>1199.0</ele><time>2026-05-03T10:30:15Z</time></trkpt><trkpt lat="40.856359134091484" lon="9.16842087809902"><ele>1199.0</ele><time>2026-05-03T10:30:16Z</time></trkpt><trkpt lat="40.856411239347125" lon="9.16832312831524"><ele>1199.0</ele><time>2026-05-03T10:30:17Z</time></trkpt><trkpt lat="40.85642056340382" lon="9.168221882792578"><ele>1199.0</ele><time>2026-05-03T10:30:18Z</time></trkpt><trkpt lat="40.85631023602114" lon="9.16808722677328"><ele>1199.0</ele><time>2026-05-03T10:30:20Z</time></trkpt><trkpt lat="40.85622718753375" lon="9.168061714146688"><ele>1199.0</ele><time>2026-05-03T10:30:21Z</time></trkpt><trkpt lat="40.856135274592745" lon="9.168019239276115"><ele>1196.3333333333335</ele><time>2026-05-03T10:30:22Z</time></trkpt><trkpt lat="40.85603264414923" lon="9.167993695087015"><ele>1193.6666666666667</ele><time>2026-05-03T10:30:23Z</time></trkpt><trkpt lat="40.855937486098135" lon="9.16797001074725"><ele>1191.0</ele><time>2026-05-03T10:30:24Z</time></trkpt><trkpt lat="40.855863010467345" lon="9.16793863123263"><ele>1188.3333333333333</ele><time>2026-05-03T10:30:25Z</time></trkpt><trkpt lat="40.85581689794496" lon="9.167875520098555"><ele>1185.6666666666665</ele><time>2026-05-03T10:30:26Z</time></trkpt><trkpt lat="40.85581823996288" lon="9.167739862375425"><ele>1183.0</ele><time>2026-05-03T10:30:28Z</time></trkpt><trkpt lat="40.85591107904763" lon="9.167628985574927"><ele>1182.6</ele><time>2026-05-03T10:30:30Z</time></trkpt><trkpt lat="40.85600048429372" lon="9.167603038113636"><ele>1182.1999999999998</ele><time>2026-05-03T10:30:31Z</time></trkpt><trkpt lat="40.856103910612426" lon="9.167580176547597"><ele>1181.8</ele><time>2026-05-03T10:30:32Z</time></trkpt><trkpt lat="40.856218977174585" lon="9.167554984820283"><ele>1181.3999999999999</ele><time>2026-05-03T10:30:33Z</time></trkpt><trkpt lat="40.85634265713179" lon="9.167522433845908"><ele>1181.0</ele><time>2026-05-03T10:30:34Z</time></trkpt><trkpt lat="40.85647531245468" lon="9.167489672895769"><ele>1181.0</ele><time>2026-05-03T10:30:35Z</time></trkpt><trkpt lat="40.85660662038667" lon="9.16745501817422"><ele>1181.0</ele><time>2026-05-03T10:30:36Z</time></trkpt><trkpt lat="40.85672450960732" lon="9.167411409270471"><ele>1181.0</ele><time>2026-05-03T10:30:37Z</time></trkpt><trkpt lat="40.85682510330371" lon="9.167388488539821"><ele>1181.0</ele><time>2026-05-03T10:30:38Z</time></trkpt><trkpt lat="40.85690953362072" lon="9.16732717295266"><ele>1179.0</ele><time>2026-05-03T10:30:39Z</time></trkpt><trkpt lat="40.85693756932047" lon="9.167173464719205"><ele>1177.0</ele><time>2026-05-03T10:30:41Z</time></trkpt><trkpt lat="40.85693431528857" lon="9.167078050198352"><ele>1175.0</ele><time>2026-05-03T10:30:42Z</time></trkpt><trkpt lat="40.85684687621623" lon="9.166993557146045"><ele>1173.0</ele><time>2026-05-03T10:30:43Z</time></trkpt><trkpt lat="40.85675369644775" lon="9.166948839401138"><ele>1171.0</ele><time>2026-05-03T10:30:44Z</time></trkpt><trkpt lat="40.85665941369644" lon="9.166902754332256"><ele>1169.8</ele><time>2026-05-03T10:30:45Z</time></trkpt><trkpt lat="40.85656029689397" lon="9.166854306446167"><ele>1168.6</ele><time>2026-05-03T10:30:46Z</time></trkpt><trkpt lat="40.85645504095657" lon="9.166802857862912"><ele>1167.4</ele><time>2026-05-03T10:30:47Z</time></trkpt><trkpt lat="40.85634907483585" lon="9.166748441427647"><ele>1166.2</ele><time>2026-05-03T10:30:48Z</time></trkpt><trkpt lat="40.85623941886764" lon="9.166696123898204"><ele>1165.0</ele><time>2026-05-03T10:30:49Z</time></trkpt><trkpt lat="40.856126607300865" lon="9.166654118746592"><ele>1165.0</ele><time>2026-05-03T10:30:50Z</time></trkpt><trkpt lat="40.85600578302552" lon="9.166631318387081"><ele>1165.0</ele><time>2026-05-03T10:30:51Z</time></trkpt><trkpt lat="40.85587854159924" lon="9.166630260320488"><ele>1165.0</ele><time>2026-05-03T10:30:52Z</time></trkpt><trkpt lat="40.85575529444235" lon="9.166640602956512"><ele>1165.0</ele><time>2026-05-03T10:30:53Z</time></trkpt><trkpt lat="40.85564017823104" lon="9.166651847874942"><ele>1164.6666666666665</ele><time>2026-05-03T10:30:54Z</time></trkpt><trkpt lat="40.85553018156805" lon="9.166660603164017"><ele>1164.3333333333333</ele><time>2026-05-03T10:30:55Z</time></trkpt><trkpt lat="40.85545104651296" lon="9.166661326763547"><ele>1164.0</ele><time>2026-05-03T10:30:56Z</time></trkpt><trkpt lat="40.85537271234689" lon="9.166614444658114"><ele>1163.6666666666667</ele><time>2026-05-03T10:30:58Z</time></trkpt><trkpt lat="40.85532810131574" lon="9.166493210872527"><ele>1163.3333333333335</ele><time>2026-05-03T10:31:00Z</time></trkpt><trkpt lat="40.8553638069846" lon="9.166422139723043"><ele>1163.0</ele><time>2026-05-03T10:31:01Z</time></trkpt><trkpt lat="40.85542833916467" lon="9.16635855474646"><ele>1160.2</ele><time>2026-05-03T10:31:02Z</time></trkpt><trkpt lat="40.8555059975523" lon="9.166295186345637"><ele>1157.4</ele><time>2026-05-03T10:31:03Z</time></trkpt><trkpt lat="40.8555908131209" lon="9.166227676526296"><ele>1154.6000000000001</ele><time>2026-05-03T10:31:04Z</time></trkpt><trkpt lat="40.85567958525507" lon="9.166149329691585"><ele>1151.8</ele><time>2026-05-03T10:31:05Z</time></trkpt><trkpt lat="40.85576503372941" lon="9.166062013977758"><ele>1149.0</ele><time>2026-05-03T10:31:06Z</time></trkpt><trkpt lat="40.85584239393894" lon="9.165973587949464"><ele>1149.0</ele><time>2026-05-03T10:31:07Z</time></trkpt><trkpt lat="40.85592130636777" lon="9.165888400329576"><ele>1149.0</ele><time>2026-05-03T10:31:08Z</time></trkpt><trkpt lat="40.8560061106212" lon="9.16581205068659"><ele>1149.0</ele><time>2026-05-03T10:31:09Z</time></trkpt><trkpt lat="40.85609483971618" lon="9.16574473582032"><ele>1149.0</ele><time>2026-05-03T10:31:10Z</time></trkpt><trkpt lat="40.85618469939778" lon="9.165678664393894"><ele>1149.0</ele><time>2026-05-03T10:31:11Z</time></trkpt><trkpt lat="40.85627836102489" lon="9.165610990523414"><ele>1144.25</ele><time>2026-05-03T10:31:12Z</time></trkpt><trkpt lat="40.85637337602527" lon="9.165541993636232"><ele>1139.5</ele><time>2026-05-03T10:31:13Z</time></trkpt><trkpt lat="40.85648174979722" lon="9.165464944210768"><ele>1134.75</ele><time>2026-05-03T10:31:14Z</time></trkpt><trkpt lat="40.85659484495901" lon="9.16538463550801"><ele>1130.0</ele><time>2026-05-03T10:31:15Z</time></trkpt><trkpt lat="40.85671103988647" lon="9.165296448853455"><ele>1131.25</ele><time>2026-05-03T10:31:16Z</time></trkpt><trkpt lat="40.85683173654372" lon="9.16520019018596"><ele>1132.5</ele><time>2026-05-03T10:31:17Z</time></trkpt><trkpt lat="40.856951520151874" lon="9.165108719765097"><ele>1133.75</ele><time>2026-05-03T10:31:18Z</time></trkpt><trkpt lat="40.85707036205439" lon="9.165022611968276"><ele>1135.0</ele><time>2026-05-03T10:31:19Z</time></trkpt><trkpt lat="40.85717932101519" lon="9.164923542954178"><ele>1131.5</ele><time>2026-05-03T10:31:20Z</time></trkpt><trkpt lat="40.85728228222381" lon="9.164806478520934"><ele>1128.0</ele><time>2026-05-03T10:31:21Z</time></trkpt><trkpt lat="40.8573805588595" lon="9.164674350427843"><ele>1124.5</ele><time>2026-05-03T10:31:22Z</time></trkpt><trkpt lat="40.857468800492455" lon="9.164542474765353"><ele>1121.0</ele><time>2026-05-03T10:31:23Z</time></trkpt><trkpt lat="40.85755558796702" lon="9.164414658735687"><ele>1119.75</ele><time>2026-05-03T10:31:24Z</time></trkpt><trkpt lat="40.85764431249553" lon="9.164293221395553"><ele>1118.5</ele><time>2026-05-03T10:31:25Z</time></trkpt><trkpt lat="40.85773055200798" lon="9.164179227499318"><ele>1117.25</ele><time>2026-05-03T10:31:26Z</time></trkpt><trkpt lat="40.85780864287694" lon="9.164073687454325"><ele>1116.0</ele><time>2026-05-03T10:31:27Z</time></trkpt><trkpt lat="40.85787388399372" lon="9.16396948797744"><ele>1115.0</ele><time>2026-05-03T10:31:28Z</time></trkpt><trkpt lat="40.857914661023" lon="9.163870375127434"><ele>1114.0</ele><time>2026-05-03T10:31:29Z</time></trkpt><trkpt lat="40.85792250890719" lon="9.163764243403786"><ele>1113.0</ele><time>2026-05-03T10:31:30Z</time></trkpt><trkpt lat="40.85790543205479" lon="9.163663184720125"><ele>1112.0</ele><time>2026-05-03T10:31:31Z</time></trkpt><trkpt lat="40.857872329154354" lon="9.163563905815472"><ele>1111.0</ele><time>2026-05-03T10:31:32Z</time></trkpt><trkpt lat="40.857801170502256" lon="9.163481703450941"><ele>1110.0</ele><time>2026-05-03T10:31:33Z</time></trkpt><trkpt lat="40.85771595295225" lon="9.163428739750888"><ele>1109.8</ele><time>2026-05-03T10:31:34Z</time></trkpt><trkpt lat="40.85758694244652" lon="9.163432300531179"><ele>1109.6</ele><time>2026-05-03T10:31:35Z</time></trkpt><trkpt lat="40.857495296369166" lon="9.163527071261814"><ele>1109.4</ele><time>2026-05-03T10:31:36Z</time></trkpt><trkpt lat="40.857418127297926" lon="9.163596617037696"><ele>1109.2</ele><time>2026-05-03T10:31:37Z</time></trkpt><trkpt lat="40.85734501803354" lon="9.163628257134912"><ele>1109.0</ele><time>2026-05-03T10:31:38Z</time></trkpt><trkpt lat="40.857272786872265" lon="9.163624562763404"><ele>1109.0</ele><time>2026-05-03T10:31:39Z</time></trkpt><trkpt lat="40.85720337946483" lon="9.163596089663633"><ele>1109.0</ele><time>2026-05-03T10:31:40Z</time></trkpt><trkpt lat="40.8571336812154" lon="9.163536790470582"><ele>1109.0</ele><time>2026-05-03T10:31:41Z</time></trkpt><trkpt lat="40.857077714569634" lon="9.163440811683898"><ele>1109.0</ele><time>2026-05-03T10:31:42Z</time></trkpt><trkpt lat="40.85704694417446" lon="9.163331937239736"><ele>1109.0</ele><time>2026-05-03T10:31:43Z</time></trkpt><trkpt lat="40.85703956802614" lon="9.163207149731754"><ele>1109.0</ele><time>2026-05-03T10:31:44Z</time></trkpt><trkpt lat="40.85707491135474" lon="9.163091033603608"><ele>1105.75</ele><time>2026-05-03T10:31:45Z</time></trkpt><trkpt lat="40.85712987720177" lon="9.162964654494168"><ele>1102.5</ele><time>2026-05-03T10:31:46Z</time></trkpt><trkpt lat="40.85719766590201" lon="9.16282756507828"><ele>1099.25</ele><time>2026-05-03T10:31:47Z</time></trkpt><trkpt lat="40.85726379460242" lon="9.162681214421372"><ele>1096.0</ele><time>2026-05-03T10:31:48Z</time></trkpt><trkpt lat="40.857324953961914" lon="9.162537436570576"><ele>1096.0</ele><time>2026-05-03T10:31:49Z</time></trkpt><trkpt lat="40.85738751913964" lon="9.162392402934989"><ele>1096.0</ele><time>2026-05-03T10:31:50Z</time></trkpt><trkpt lat="40.85745106226188" lon="9.162249096074591"><ele>1096.0</ele><time>2026-05-03T10:31:51Z</time></trkpt><trkpt lat="40.857520803413486" lon="9.162108988120648"><ele>1096.0</ele><time>2026-05-03T10:31:52Z</time></trkpt><trkpt lat="40.85760063125381" lon="9.161977993702596"><ele>1092.75</ele><time>2026-05-03T10:31:53Z</time></trkpt><trkpt lat="40.8576873090996" lon="9.161852866837497"><ele>1089.5</ele><time>2026-05-03T10:31:54Z</time></trkpt><trkpt lat="40.85777694841001" lon="9.16172590656364"><ele>1086.25</ele><time>2026-05-03T10:31:55Z</time></trkpt><trkpt lat="40.85786896475638" lon="9.16159619934251"><ele>1083.0</ele><time>2026-05-03T10:31:56Z</time></trkpt><trkpt lat="40.85796085959177" lon="9.16146125047828"><ele>1080.0</ele><time>2026-05-03T10:31:57Z</time></trkpt><trkpt lat="40.858056005633536" lon="9.161319237732464"><ele>1077.0</ele><time>2026-05-03T10:31:58Z</time></trkpt><trkpt lat="40.858149592629886" lon="9.161182644981759"><ele>1074.0</ele><time>2026-05-03T10:31:59Z</time></trkpt><trkpt lat="40.85824246195818" lon="9.161048267131706"><ele>1071.0</ele><time>2026-05-03T10:32:00Z</time></trkpt><trkpt lat="40.85833667383511" lon="9.16091374677651"><ele>1071.0</ele><time>2026-05-03T10:32:01Z</time></trkpt><trkpt lat="40.85842994239408" lon="9.160780721852335"><ele>1071.0</ele><time>2026-05-03T10:32:02Z</time></trkpt><trkpt lat="40.858518506834656" lon="9.160650243941436"><ele>1071.0</ele><time>2026-05-03T10:32:03Z</time></trkpt><trkpt lat="40.858601896467945" lon="9.160540958354431"><ele>1071.0</ele><time>2026-05-03T10:32:04Z</time></trkpt><trkpt lat="40.85868642752465" lon="9.160469732027394"><ele>1068.0</ele><time>2026-05-03T10:32:05Z</time></trkpt><trkpt lat="40.858780051236664" lon="9.16043246335716"><ele>1065.0</ele><time>2026-05-03T10:32:06Z</time></trkpt><trkpt lat="40.85887781489711" lon="9.160442728402233"><ele>1062.0</ele><time>2026-05-03T10:32:07Z</time></trkpt><trkpt lat="40.85897597529191" lon="9.160480777847761"><ele>1059.0</ele><time>2026-05-03T10:32:08Z</time></trkpt><trkpt lat="40.85907298851849" lon="9.160540162945033"><ele>1056.0</ele><time>2026-05-03T10:32:09Z</time></trkpt><trkpt lat="40.859169615260285" lon="9.160611361064186"><ele>1056.75</ele><time>2026-05-03T10:32:10Z</time></trkpt><trkpt lat="40.85926349019205" lon="9.160701152894827"><ele>1057.5</ele><time>2026-05-03T10:32:11Z</time></trkpt><trkpt lat="40.85935290777792" lon="9.160805070762668"><ele>1058.25</ele><time>2026-05-03T10:32:12Z</time></trkpt><trkpt lat="40.859434721599094" lon="9.160917739505114"><ele>1059.0</ele><time>2026-05-03T10:32:13Z</time></trkpt><trkpt lat="40.85952008245237" lon="9.16102798317524"><ele>1059.0</ele><time>2026-05-03T10:32:14Z</time></trkpt><trkpt lat="40.859607796134206" lon="9.161133754631546"><ele>1059.0</ele><time>2026-05-03T10:32:15Z</time></trkpt><trkpt lat="40.859699421879995" lon="9.161240014055267"><ele>1059.0</ele><time>2026-05-03T10:32:16Z</time></trkpt><trkpt lat="40.85980336659064" lon="9.161328649199096"><ele>1059.0</ele><time>2026-05-03T10:32:17Z</time></trkpt><trkpt lat="40.85991287524828" lon="9.161410051958073"><ele>1059.0</ele><time>2026-05-03T10:32:18Z</time></trkpt><trkpt lat="40.86002109577057" lon="9.161496769105726"><ele>1059.0</ele><time>2026-05-03T10:32:19Z</time></trkpt><trkpt lat="40.86012142273257" lon="9.161575036464834"><ele>1059.0</ele><time>2026-05-03T10:32:20Z</time></trkpt><trkpt lat="40.860217532881606" lon="9.161637228314097"><ele>1059.0</ele><time>2026-05-03T10:32:21Z</time></trkpt><trkpt lat="40.86031218999902" lon="9.161650622536527"><ele>1059.0</ele><time>2026-05-03T10:32:22Z</time></trkpt><trkpt lat="40.86040365313752" lon="9.161633523468918"><ele>1059.6000000000001</ele><time>2026-05-03T10:32:23Z</time></trkpt><trkpt lat="40.860492762201126" lon="9.161575330019637"><ele>1060.2</ele><time>2026-05-03T10:32:24Z</time></trkpt><trkpt lat="40.86057052109118" lon="9.161477265031868"><ele>1060.8000000000002</ele><time>2026-05-03T10:32:25Z</time></trkpt><trkpt lat="40.86061737244434" lon="9.161354099286216"><ele>1061.4</ele><time>2026-05-03T10:32:26Z</time></trkpt><trkpt lat="40.86065524562797" lon="9.161227993952886"><ele>1062.0</ele><time>2026-05-03T10:32:27Z</time></trkpt><trkpt lat="40.86064998136864" lon="9.161082788273974"><ele>1062.0</ele><time>2026-05-03T10:32:28Z</time></trkpt><trkpt lat="40.86061202746404" lon="9.160938273288314"><ele>1062.0</ele><time>2026-05-03T10:32:29Z</time></trkpt><trkpt lat="40.860566139898516" lon="9.160793543535846"><ele>1062.0</ele><time>2026-05-03T10:32:30Z</time></trkpt><trkpt lat="40.86050388809509" lon="9.160653556073873"><ele>1062.0</ele><time>2026-05-03T10:32:31Z</time></trkpt><trkpt lat="40.86042802393946" lon="9.160525819522611"><ele>1063.25</ele><time>2026-05-03T10:32:32Z</time></trkpt><trkpt lat="40.860334749169375" lon="9.160409456963922"><ele>1064.5</ele><time>2026-05-03T10:32:33Z</time></trkpt><trkpt lat="40.86022670655991" lon="9.160310239461365"><ele>1065.75</ele><time>2026-05-03T10:32:34Z</time></trkpt><trkpt lat="40.86012803067847" lon="9.16018989782811"><ele>1067.0</ele><time>2026-05-03T10:32:35Z</time></trkpt><trkpt lat="40.86003112854988" lon="9.16005213023119"><ele>1064.0</ele><time>2026-05-03T10:32:36Z</time></trkpt><trkpt lat="40.85991272499278" lon="9.159938600281835"><ele>1061.0</ele><time>2026-05-03T10:32:37Z</time></trkpt><trkpt lat="40.859806152897576" lon="9.15980877941777"><ele>1058.0</ele><time>2026-05-03T10:32:38Z</time></trkpt><trkpt lat="40.859706755194864" lon="9.159690971843162"><ele>1055.0</ele><time>2026-05-03T10:32:39Z</time></trkpt><trkpt lat="40.8596140584601" lon="9.15956957496984"><ele>1055.0</ele><time>2026-05-03T10:32:40Z</time></trkpt><trkpt lat="40.85952184624672" lon="9.159457676576203"><ele>1055.0</ele><time>2026-05-03T10:32:41Z</time></trkpt><trkpt lat="40.859436291975086" lon="9.159350228121722"><ele>1055.0</ele><time>2026-05-03T10:32:42Z</time></trkpt><trkpt lat="40.85935747136161" lon="9.15923875432061"><ele>1055.0</ele><time>2026-05-03T10:32:43Z</time></trkpt><trkpt lat="40.8592844903902" lon="9.159125778027947"><ele>1052.25</ele><time>2026-05-03T10:32:44Z</time></trkpt><trkpt lat="40.85920872797912" lon="9.159011452470994"><ele>1049.5</ele><time>2026-05-03T10:32:45Z</time></trkpt><trkpt lat="40.85914964859797" lon="9.158879248802856"><ele>1046.75</ele><time>2026-05-03T10:32:46Z</time></trkpt><trkpt lat="40.859098622333505" lon="9.158739541271451"><ele>1044.0</ele><time>2026-05-03T10:32:47Z</time></trkpt><trkpt lat="40.85904687991548" lon="9.158600076191663"><ele>1044.0</ele><time>2026-05-03T10:32:48Z</time></trkpt><trkpt lat="40.858993874425046" lon="9.158459162961735"><ele>1044.0</ele><time>2026-05-03T10:32:49Z</time></trkpt><trkpt lat="40.85894254743352" lon="9.158320696435014"><ele>1044.0</ele><time>2026-05-03T10:32:50Z</time></trkpt><trkpt lat="40.85888862752839" lon="9.1581840206075"><ele>1044.0</ele><time>2026-05-03T10:32:51Z</time></trkpt><trkpt lat="40.858837503172225" lon="9.158044757523617"><ele>1044.75</ele><time>2026-05-03T10:32:52Z</time></trkpt><trkpt lat="40.8587761181835" lon="9.157914701493203"><ele>1045.5</ele><time>2026-05-03T10:32:53Z</time></trkpt><trkpt lat="40.85869606025781" lon="9.157797943301007"><ele>1046.25</ele><time>2026-05-03T10:32:54Z</time></trkpt><trkpt lat="40.858600274195354" lon="9.157697640118654"><ele>1047.0</ele><time>2026-05-03T10:32:55Z</time></trkpt><trkpt lat="40.85848970016477" lon="9.15761566996555"><ele>1044.25</ele><time>2026-05-03T10:32:56Z</time></trkpt><trkpt lat="40.858375294383386" lon="9.157524255934522"><ele>1041.5</ele><time>2026-05-03T10:32:57Z</time></trkpt><trkpt lat="40.8582463685398" lon="9.157444538646377"><ele>1038.75</ele><time>2026-05-03T10:32:58Z</time></trkpt><trkpt lat="40.85812781354413" lon="9.157376001823962"><ele>1036.0</ele><time>2026-05-03T10:32:59Z</time></trkpt><trkpt lat="40.85803716724613" lon="9.157314413342567"><ele>1036.0</ele><time>2026-05-03T10:33:00Z</time></trkpt><trkpt lat="40.8579553905641" lon="9.15725086465051"><ele>1036.0</ele><time>2026-05-03T10:33:01Z</time></trkpt><trkpt lat="40.85788147370937" lon="9.157176713112927"><ele>1036.0</ele><time>2026-05-03T10:33:02Z</time></trkpt><trkpt lat="40.85781727987572" lon="9.157088971045136"><ele>1036.0</ele><time>2026-05-03T10:33:03Z</time></trkpt><trkpt lat="40.857759268873956" lon="9.157000584484393"><ele>1036.0</ele><time>2026-05-03T10:33:04Z</time></trkpt><trkpt lat="40.85768377175904" lon="9.156882567777137"><ele>1035.25</ele><time>2026-05-03T10:33:05Z</time></trkpt><trkpt lat="40.85760596988139" lon="9.15676057979333"><ele>1034.5</ele><time>2026-05-03T10:33:06Z</time></trkpt><trkpt lat="40.857521937560506" lon="9.15662659830386"><ele>1033.75</ele><time>2026-05-03T10:33:07Z</time></trkpt><trkpt lat="40.85742819851117" lon="9.15648342507635"><ele>1033.0</ele><time>2026-05-03T10:33:08Z</time></trkpt><trkpt lat="40.857322699972634" lon="9.156370477737008"><ele>1033.0</ele><time>2026-05-03T10:33:09Z</time></trkpt><trkpt lat="40.85721983806954" lon="9.15624703017662"><ele>1033.0</ele><time>2026-05-03T10:33:10Z</time></trkpt><trkpt lat="40.85711163717297" lon="9.15611992986806"><ele>1033.0</ele><time>2026-05-03T10:33:11Z</time></trkpt><trkpt lat="40.856989354265416" lon="9.156021243784458"><ele>1033.0</ele><time>2026-05-03T10:33:12Z</time></trkpt><trkpt lat="40.85685240856969" lon="9.15593941541933"><ele>1034.25</ele><time>2026-05-03T10:33:13Z</time></trkpt><trkpt lat="40.85671015290573" lon="9.155887184601463"><ele>1035.5</ele><time>2026-05-03T10:33:14Z</time></trkpt><trkpt lat="40.856571612525016" lon="9.15581854909158"><ele>1036.75</ele><time>2026-05-03T10:33:15Z</time></trkpt><trkpt lat="40.856430045311804" lon="9.155779541005991"><ele>1038.0</ele><time>2026-05-03T10:33:16Z</time></trkpt><trkpt lat="40.85629702673632" lon="9.15575887890707"><ele>1038.0</ele><time>2026-05-03T10:33:17Z</time></trkpt><trkpt lat="40.8561654502107" lon="9.155749664789736"><ele>1038.0</ele><time>2026-05-03T10:33:18Z</time></trkpt><trkpt lat="40.85603593088556" lon="9.15575424088432"><ele>1038.0</ele><time>2026-05-03T10:33:19Z</time></trkpt><trkpt lat="40.85591321504743" lon="9.155766103878573"><ele>1038.0</ele><time>2026-05-03T10:33:20Z</time></trkpt><trkpt lat="40.85578962492786" lon="9.155778856393141"><ele>1041.5</ele><time>2026-05-03T10:33:21Z</time></trkpt><trkpt lat="40.85567161866678" lon="9.155790167961296"><ele>1045.0</ele><time>2026-05-03T10:33:22Z</time></trkpt><trkpt lat="40.855556876767636" lon="9.155792070435576"><ele>1048.5</ele><time>2026-05-03T10:33:23Z</time></trkpt><trkpt lat="40.85544501815934" lon="9.155778888007674"><ele>1052.0</ele><time>2026-05-03T10:33:24Z</time></trkpt><trkpt lat="40.85532690918631" lon="9.155754353565323"><ele>1052.0</ele><time>2026-05-03T10:33:25Z</time></trkpt><trkpt lat="40.85520100376713" lon="9.155725256765125"><ele>1052.0</ele><time>2026-05-03T10:33:26Z</time></trkpt><trkpt lat="40.855066517170414" lon="9.155699123603432"><ele>1052.0</ele><time>2026-05-03T10:33:27Z</time></trkpt><trkpt lat="40.854930674230474" lon="9.155677652872653"><ele>1052.0</ele><time>2026-05-03T10:33:28Z</time></trkpt><trkpt lat="40.85479644834438" lon="9.155660948328697"><ele>1051.75</ele><time>2026-05-03T10:33:29Z</time></trkpt><trkpt lat="40.854660984377524" lon="9.155643789036498"><ele>1051.5</ele><time>2026-05-03T10:33:30Z</time></trkpt><trkpt lat="40.8545289748884" lon="9.155627025926027"><ele>1051.25</ele><time>2026-05-03T10:33:31Z</time></trkpt><trkpt lat="40.85440014821377" lon="9.15561066698927"><ele>1051.0</ele><time>2026-05-03T10:33:32Z</time></trkpt><trkpt lat="40.85426785833439" lon="9.155594022437004"><ele>1054.25</ele><time>2026-05-03T10:33:33Z</time></trkpt><trkpt lat="40.85413595149273" lon="9.155599139171457"><ele>1057.5</ele><time>2026-05-03T10:33:34Z</time></trkpt><trkpt lat="40.853999930910454" lon="9.155581051810547"><ele>1060.75</ele><time>2026-05-03T10:33:35Z</time></trkpt><trkpt lat="40.85386258817683" lon="9.155561479703877"><ele>1064.0</ele><time>2026-05-03T10:33:36Z</time></trkpt><trkpt lat="40.853724610545974" lon="9.155542578155362"><ele>1064.0</ele><time>2026-05-03T10:33:37Z</time></trkpt><trkpt lat="40.85359060255029" lon="9.155523356611218"><ele>1064.0</ele><time>2026-05-03T10:33:38Z</time></trkpt><trkpt lat="40.853467634728695" lon="9.15546605219154"><ele>1064.0</ele><time>2026-05-03T10:33:39Z</time></trkpt><trkpt lat="40.85335536687824" lon="9.155407817448216"><ele>1064.0</ele><time>2026-05-03T10:33:40Z</time></trkpt><trkpt lat="40.85323062413579" lon="9.155324699161431"><ele>1066.5</ele><time>2026-05-03T10:33:41Z</time></trkpt><trkpt lat="40.85311314836749" lon="9.155222127738874"><ele>1069.0</ele><time>2026-05-03T10:33:42Z</time></trkpt><trkpt lat="40.85300117929465" lon="9.155114985268884"><ele>1071.5</ele><time>2026-05-03T10:33:43Z</time></trkpt><trkpt lat="40.85289569877823" lon="9.155013448782404"><ele>1074.0</ele><time>2026-05-03T10:33:44Z</time></trkpt><trkpt lat="40.852791898328874" lon="9.154913586855224"><ele>1073.25</ele><time>2026-05-03T10:33:45Z</time></trkpt><trkpt lat="40.85269549755913" lon="9.15482084359159"><ele>1072.5</ele><time>2026-05-03T10:33:46Z</time></trkpt><trkpt lat="40.85257745425134" lon="9.154733370127492"><ele>1071.75</ele><time>2026-05-03T10:33:47Z</time></trkpt><trkpt lat="40.852482053913704" lon="9.154638793685374"><ele>1071.0</ele><time>2026-05-03T10:33:48Z</time></trkpt><trkpt lat="40.85239247396461" lon="9.154550250072118"><ele>1071.0</ele><time>2026-05-03T10:33:49Z</time></trkpt><trkpt lat="40.85231082989356" lon="9.154456632344194"><ele>1071.0</ele><time>2026-05-03T10:33:50Z</time></trkpt><trkpt lat="40.85222539828316" lon="9.154365769892143"><ele>1071.0</ele><time>2026-05-03T10:33:51Z</time></trkpt><trkpt lat="40.85213458999464" lon="9.154275856795214"><ele>1071.0</ele><time>2026-05-03T10:33:52Z</time></trkpt><trkpt lat="40.85204127468204" lon="9.154185924007598"><ele>1071.0</ele><time>2026-05-03T10:33:53Z</time></trkpt><trkpt lat="40.85194169769561" lon="9.15410145195464"><ele>1069.2</ele><time>2026-05-03T10:33:54Z</time></trkpt><trkpt lat="40.851845007014724" lon="9.154008321215748"><ele>1067.3999999999999</ele><time>2026-05-03T10:33:55Z</time></trkpt><trkpt lat="40.85175210136133" lon="9.153921944879404"><ele>1065.6</ele><time>2026-05-03T10:33:56Z</time></trkpt><trkpt lat="40.851666117440836" lon="9.15383853342388"><ele>1063.8</ele><time>2026-05-03T10:33:57Z</time></trkpt><trkpt lat="40.851584532961155" lon="9.153764163468592"><ele>1062.0</ele><time>2026-05-03T10:33:58Z</time></trkpt><trkpt lat="40.85151284412654" lon="9.153682524792544"><ele>1062.0</ele><time>2026-05-03T10:33:59Z</time></trkpt><trkpt lat="40.851438058567446" lon="9.153618714744367"><ele>1062.0</ele><time>2026-05-03T10:34:00Z</time></trkpt><trkpt lat="40.85140150778701" lon="9.15352389195489"><ele>1062.0</ele><time>2026-05-03T10:34:01Z</time></trkpt><trkpt lat="40.85137802046452" lon="9.153445771391784"><ele>1062.0</ele><time>2026-05-03T10:34:02Z</time></trkpt><trkpt lat="40.851369656238866" lon="9.153291630935875"><ele>1062.0</ele><time>2026-05-03T10:34:04Z</time></trkpt><trkpt lat="40.85141852659364" lon="9.15310140631718"><ele>1061.0</ele><time>2026-05-03T10:34:06Z</time></trkpt><trkpt lat="40.851445685522116" lon="9.152954644313425"><ele>1060.0</ele><time>2026-05-03T10:34:07Z</time></trkpt><trkpt lat="40.85144830669035" lon="9.152793806607479"><ele>1059.0</ele><time>2026-05-03T10:34:08Z</time></trkpt><trkpt lat="40.851433865640516" lon="9.152640012500957"><ele>1058.0</ele><time>2026-05-03T10:34:09Z</time></trkpt><trkpt lat="40.85141669109313" lon="9.152500115985072"><ele>1058.0</ele><time>2026-05-03T10:34:10Z</time></trkpt><trkpt lat="40.85140459152829" lon="9.152377158978686"><ele>1058.0</ele><time>2026-05-03T10:34:11Z</time></trkpt><trkpt lat="40.85138051254846" lon="9.152268627824489"><ele>1058.0</ele><time>2026-05-03T10:34:12Z</time></trkpt><trkpt lat="40.8513871042861" lon="9.152179018801995"><ele>1058.0</ele><time>2026-05-03T10:34:13Z</time></trkpt><trkpt lat="40.85139179797044" lon="9.152076562569098"><ele>1058.0</ele><time>2026-05-03T10:34:14Z</time></trkpt><trkpt lat="40.8514039105413" lon="9.151971646869645"><ele>1058.0</ele><time>2026-05-03T10:34:15Z</time></trkpt><trkpt lat="40.851418538875244" lon="9.15185588668823"><ele>1057.25</ele><time>2026-05-03T10:34:16Z</time></trkpt><trkpt lat="40.85142312308157" lon="9.15172598210747"><ele>1056.5</ele><time>2026-05-03T10:34:17Z</time></trkpt><trkpt lat="40.85141628800635" lon="9.151580501416152"><ele>1055.75</ele><time>2026-05-03T10:34:18Z</time></trkpt><trkpt lat="40.85139334006257" lon="9.151422572724904"><ele>1055.0</ele><time>2026-05-03T10:34:19Z</time></trkpt><trkpt lat="40.851351664609254" lon="9.15126081911569"><ele>1054.5</ele><time>2026-05-03T10:34:20Z</time></trkpt><trkpt lat="40.851299463389836" lon="9.151092658929675"><ele>1054.0</ele><time>2026-05-03T10:34:21Z</time></trkpt><trkpt lat="40.85124064967588" lon="9.150913393259438"><ele>1053.5</ele><time>2026-05-03T10:34:22Z</time></trkpt><trkpt lat="40.85118745816762" lon="9.150722364996373"><ele>1053.0</ele><time>2026-05-03T10:34:23Z</time></trkpt><trkpt lat="40.85111546795038" lon="9.150531118789031"><ele>1052.0</ele><time>2026-05-03T10:34:24Z</time></trkpt><trkpt lat="40.851048843684794" lon="9.150332833640103"><ele>1051.0</ele><time>2026-05-03T10:34:25Z</time></trkpt><trkpt lat="40.85097875288019" lon="9.150135419831093"><ele>1050.0</ele><time>2026-05-03T10:34:26Z</time></trkpt><trkpt lat="40.85092301893932" lon="9.149926349073068"><ele>1051.25</ele><time>2026-05-03T10:34:27Z</time></trkpt><trkpt lat="40.850856419937" lon="9.14973104209451"><ele>1052.5</ele><time>2026-05-03T10:34:28Z</time></trkpt><trkpt lat="40.850798059593096" lon="9.149559895631295"><ele>1053.75</ele><time>2026-05-03T10:34:29Z</time></trkpt><trkpt lat="40.85072979985501" lon="9.149404648618933"><ele>1055.0</ele><time>2026-05-03T10:34:30Z</time></trkpt><trkpt lat="40.85068835671853" lon="9.149248218561484"><ele>1055.0</ele><time>2026-05-03T10:34:31Z</time></trkpt><trkpt lat="40.85067306294437" lon="9.149077845054686"><ele>1055.0</ele><time>2026-05-03T10:34:32Z</time></trkpt><trkpt lat="40.850701695780614" lon="9.14890716519278"><ele>1055.0</ele><time>2026-05-03T10:34:33Z</time></trkpt><trkpt lat="40.85072280203712" lon="9.148719979082765"><ele>1055.0</ele><time>2026-05-03T10:34:34Z</time></trkpt><trkpt lat="40.85072712146617" lon="9.148522734432767"><ele>1055.3333333333335</ele><time>2026-05-03T10:34:35Z</time></trkpt><trkpt lat="40.85075461149245" lon="9.148335308488967"><ele>1055.6666666666667</ele><time>2026-05-03T10:34:36Z</time></trkpt><trkpt lat="40.850777079637304" lon="9.148126618928117"><ele>1056.0</ele><time>2026-05-03T10:34:37Z</time></trkpt><trkpt lat="40.85079851459895" lon="9.147923696966506"><ele>1057.0</ele><time>2026-05-03T10:34:38Z</time></trkpt><trkpt lat="40.850818962219975" lon="9.14771788300723"><ele>1058.0</ele><time>2026-05-03T10:34:39Z</time></trkpt><trkpt lat="40.85082870388753" lon="9.147503851974882"><ele>1059.0</ele><time>2026-05-03T10:34:40Z</time></trkpt><trkpt lat="40.85086683127406" lon="9.14730269143154"><ele>1059.5</ele><time>2026-05-03T10:34:41Z</time></trkpt><trkpt lat="40.85091820727908" lon="9.147106381706129"><ele>1060.0</ele><time>2026-05-03T10:34:42Z</time></trkpt><trkpt lat="40.85097130202078" lon="9.146933119342565"><ele>1060.5</ele><time>2026-05-03T10:34:43Z</time></trkpt><trkpt lat="40.85101467319743" lon="9.146769330222282"><ele>1061.0</ele><time>2026-05-03T10:34:44Z</time></trkpt><trkpt lat="40.8510309927053" lon="9.146595998342343"><ele>1060.5</ele><time>2026-05-03T10:34:45Z</time></trkpt><trkpt lat="40.85101943504971" lon="9.146418976266984"><ele>1060.0</ele><time>2026-05-03T10:34:46Z</time></trkpt><trkpt lat="40.850998873888386" lon="9.146241859562902"><ele>1059.5</ele><time>2026-05-03T10:34:47Z</time></trkpt><trkpt lat="40.85097532221545" lon="9.146060434094924"><ele>1059.0</ele><time>2026-05-03T10:34:48Z</time></trkpt><trkpt lat="40.85095013654621" lon="9.14587217480976"><ele>1057.0</ele><time>2026-05-03T10:34:49Z</time></trkpt><trkpt lat="40.85094105873685" lon="9.145674317907933"><ele>1055.0</ele><time>2026-05-03T10:34:50Z</time></trkpt><trkpt lat="40.85092459532373" lon="9.145474505476756"><ele>1053.0</ele><time>2026-05-03T10:34:51Z</time></trkpt><trkpt lat="40.85090722332879" lon="9.145272751801404"><ele>1053.0</ele><time>2026-05-03T10:34:52Z</time></trkpt><trkpt lat="40.85089016570909" lon="9.145083313611709"><ele>1053.0</ele><time>2026-05-03T10:34:53Z</time></trkpt><trkpt lat="40.85087549247066" lon="9.144905992945844"><ele>1053.0</ele><time>2026-05-03T10:34:54Z</time></trkpt><trkpt lat="40.85086889381577" lon="9.144738185955626"><ele>1053.0</ele><time>2026-05-03T10:34:55Z</time></trkpt><trkpt lat="40.8508732669694" lon="9.144575972229202"><ele>1053.0</ele><time>2026-05-03T10:34:56Z</time></trkpt><trkpt lat="40.85090282464323" lon="9.144409512001067"><ele>1053.0</ele><time>2026-05-03T10:34:57Z</time></trkpt><trkpt lat="40.85094184801601" lon="9.144240994092637"><ele>1053.0</ele><time>2026-05-03T10:34:58Z</time></trkpt><trkpt lat="40.850983361502095" lon="9.144060886836401"><ele>1053.0</ele><time>2026-05-03T10:34:59Z</time></trkpt><trkpt lat="40.85102313577983" lon="9.143872583087127"><ele>1046.3333333333333</ele><time>2026-05-03T10:35:00Z</time></trkpt><trkpt lat="40.851055067084026" lon="9.143677507788285"><ele>1039.6666666666665</ele><time>2026-05-03T10:35:01Z</time></trkpt><trkpt lat="40.8510729423207" lon="9.143475054584489"><ele>1033.0</ele><time>2026-05-03T10:35:02Z</time></trkpt><trkpt lat="40.851075773731885" lon="9.143273052537946"><ele>1033.5</ele><time>2026-05-03T10:35:03Z</time></trkpt><trkpt lat="40.85107645699714" lon="9.143092427702877"><ele>1034.0</ele><time>2026-05-03T10:35:04Z</time></trkpt><trkpt lat="40.85107859105288" lon="9.142929629879044"><ele>1034.5</ele><time>2026-05-03T10:35:05Z</time></trkpt><trkpt lat="40.85109389954501" lon="9.142772726574895"><ele>1035.0</ele><time>2026-05-03T10:35:06Z</time></trkpt><trkpt lat="40.85115224323292" lon="9.142633266191629"><ele>1035.0</ele><time>2026-05-03T10:35:07Z</time></trkpt><trkpt lat="40.851248488548435" lon="9.142507016165096"><ele>1035.0</ele><time>2026-05-03T10:35:08Z</time></trkpt><trkpt lat="40.851376627581395" lon="9.142404158378671"><ele>1035.0</ele><time>2026-05-03T10:35:09Z</time></trkpt><trkpt lat="40.85151969526649" lon="9.142303652140477"><ele>1035.0</ele><time>2026-05-03T10:35:10Z</time></trkpt><trkpt lat="40.85167279342792" lon="9.142190415377149"><ele>1032.0</ele><time>2026-05-03T10:35:11Z</time></trkpt><trkpt lat="40.85184099127058" lon="9.142066502825207"><ele>1029.0</ele><time>2026-05-03T10:35:12Z</time></trkpt><trkpt lat="40.852018273168476" lon="9.141943313180152"><ele>1026.0</ele><time>2026-05-03T10:35:13Z</time></trkpt><trkpt lat="40.85220040136358" lon="9.141827545624995"><ele>1026.0</ele><time>2026-05-03T10:35:14Z</time></trkpt><trkpt lat="40.852369366719465" lon="9.141714561192058"><ele>1026.0</ele><time>2026-05-03T10:35:15Z</time></trkpt><trkpt lat="40.852525429006874" lon="9.141592190157517"><ele>1026.0</ele><time>2026-05-03T10:35:16Z</time></trkpt><trkpt lat="40.852660313462536" lon="9.141482103149313"><ele>1025.2</ele><time>2026-05-03T10:35:17Z</time></trkpt><trkpt lat="40.852770123543024" lon="9.141385450921861"><ele>1024.3999999999999</ele><time>2026-05-03T10:35:18Z</time></trkpt><trkpt lat="40.85286712615833" lon="9.14130325724536"><ele>1023.6</ele><time>2026-05-03T10:35:19Z</time></trkpt><trkpt lat="40.85294211976385" lon="9.14121521738579"><ele>1022.8</ele><time>2026-05-03T10:35:20Z</time></trkpt><trkpt lat="40.85299583570996" lon="9.141104313857472"><ele>1022.0</ele><time>2026-05-03T10:35:21Z</time></trkpt><trkpt lat="40.853014433790825" lon="9.140987106571398"><ele>1022.0</ele><time>2026-05-03T10:35:22Z</time></trkpt><trkpt lat="40.85299323120659" lon="9.140875075596899"><ele>1022.0</ele><time>2026-05-03T10:35:23Z</time></trkpt><trkpt lat="40.85294161489715" lon="9.140779943613417"><ele>1022.0</ele><time>2026-05-03T10:35:24Z</time></trkpt><trkpt lat="40.85283753717671" lon="9.140729481305623"><ele>1022.0</ele><time>2026-05-03T10:35:25Z</time></trkpt><trkpt lat="40.85271995409312" lon="9.140704867000084"><ele>1022.0</ele><time>2026-05-03T10:35:26Z</time></trkpt><trkpt lat="40.85259052787642" lon="9.1406771876303"><ele>1018.25</ele><time>2026-05-03T10:35:27Z</time></trkpt><trkpt lat="40.852455103278196" lon="9.140650574409399"><ele>1014.5</ele><time>2026-05-03T10:35:28Z</time></trkpt><trkpt lat="40.85231013034927" lon="9.140625818745171"><ele>1010.75</ele><time>2026-05-03T10:35:29Z</time></trkpt><trkpt lat="40.85215747526034" lon="9.140599580320284"><ele>1007.0</ele><time>2026-05-03T10:35:30Z</time></trkpt><trkpt lat="40.85199971235906" lon="9.140571326211626"><ele>1007.0</ele><time>2026-05-03T10:35:31Z</time></trkpt><trkpt lat="40.851834242645296" lon="9.140541691869178"><ele>1007.0</ele><time>2026-05-03T10:35:32Z</time></trkpt><trkpt lat="40.85166170100406" lon="9.14053205265872"><ele>1007.0</ele><time>2026-05-03T10:35:33Z</time></trkpt><trkpt lat="40.85149112643201" lon="9.140498316942626"><ele>1007.0</ele><time>2026-05-03T10:35:34Z</time></trkpt><trkpt lat="40.85132765827325" lon="9.14046233731491"><ele>1007.0</ele><time>2026-05-03T10:35:35Z</time></trkpt><trkpt lat="40.85117589568269" lon="9.140431050901134"><ele>1007.0</ele><time>2026-05-03T10:35:36Z</time></trkpt><trkpt lat="40.851029321579205" lon="9.140400143499436"><ele>1006.5</ele><time>2026-05-03T10:35:37Z</time></trkpt><trkpt lat="40.85088822492942" lon="9.140344556863695"><ele>1006.0</ele><time>2026-05-03T10:35:38Z</time></trkpt><trkpt lat="40.85075410664661" lon="9.140296316692673"><ele>1005.5</ele><time>2026-05-03T10:35:39Z</time></trkpt><trkpt lat="40.85066525838411" lon="9.14024299341952"><ele>1005.0</ele><time>2026-05-03T10:35:40Z</time></trkpt><trkpt lat="40.85059518717928" lon="9.140199845800094"><ele>1005.0</ele><time>2026-05-03T10:35:41Z</time></trkpt><trkpt lat="40.85063570076955" lon="9.140052699767"><ele>1005.0</ele><time>2026-05-03T10:35:43Z</time></trkpt><trkpt lat="40.85072065703852" lon="9.139995458282987"><ele>1005.0</ele><time>2026-05-03T10:35:44Z</time></trkpt><trkpt lat="40.850831827116274" lon="9.139935236946723"><ele>1005.0</ele><time>2026-05-03T10:35:45Z</time></trkpt><trkpt lat="40.85096738373633" lon="9.13986338724225"><ele>1003.0</ele><time>2026-05-03T10:35:46Z</time></trkpt><trkpt lat="40.851103635378664" lon="9.139787608816546"><ele>1001.0</ele><time>2026-05-03T10:35:47Z</time></trkpt><trkpt lat="40.85122256917369" lon="9.139705152869839"><ele>999.0</ele><time>2026-05-03T10:35:48Z</time></trkpt><trkpt lat="40.85133955432373" lon="9.139630442189642"><ele>997.0</ele><time>2026-05-03T10:35:49Z</time></trkpt><trkpt lat="40.85144818540749" lon="9.139540146915998"><ele>997.0</ele><time>2026-05-03T10:35:50Z</time></trkpt><trkpt lat="40.851538471237546" lon="9.13941984822613"><ele>997.0</ele><time>2026-05-03T10:35:51Z</time></trkpt><trkpt lat="40.85160583603908" lon="9.139265140942696"><ele>997.0</ele><time>2026-05-03T10:35:52Z</time></trkpt><trkpt lat="40.851651329207385" lon="9.139101800998933"><ele>997.0</ele><time>2026-05-03T10:35:53Z</time></trkpt><trkpt lat="40.85167613832271" lon="9.138933110786335"><ele>994.5</ele><time>2026-05-03T10:35:54Z</time></trkpt><trkpt lat="40.85167722212666" lon="9.13875733688595"><ele>992.0</ele><time>2026-05-03T10:35:55Z</time></trkpt><trkpt lat="40.851647268868014" lon="9.138579942946983"><ele>989.5</ele><time>2026-05-03T10:35:56Z</time></trkpt><trkpt lat="40.851568542130195" lon="9.13841486661992"><ele>987.0</ele><time>2026-05-03T10:35:57Z</time></trkpt><trkpt lat="40.85145631223312" lon="9.138280344181695"><ele>984.5</ele><time>2026-05-03T10:35:58Z</time></trkpt><trkpt lat="40.85136724188282" lon="9.138141204204908"><ele>982.0</ele><time>2026-05-03T10:35:59Z</time></trkpt><trkpt lat="40.85128678310949" lon="9.138031037407757"><ele>979.5</ele><time>2026-05-03T10:36:00Z</time></trkpt><trkpt lat="40.85124499280786" lon="9.137922539243513"><ele>977.0</ele><time>2026-05-03T10:36:01Z</time></trkpt><trkpt lat="40.85126828150386" lon="9.137787251032544"><ele>977.0</ele><time>2026-05-03T10:36:02Z</time></trkpt><trkpt lat="40.851322748418895" lon="9.137657444501919"><ele>977.0</ele><time>2026-05-03T10:36:03Z</time></trkpt><trkpt lat="40.85139087372974" lon="9.137511204948167"><ele>977.0</ele><time>2026-05-03T10:36:04Z</time></trkpt><trkpt lat="40.85146352938411" lon="9.137348020004344"><ele>977.0</ele><time>2026-05-03T10:36:05Z</time></trkpt><trkpt lat="40.85153683041426" lon="9.137178949478916"><ele>975.0</ele><time>2026-05-03T10:36:06Z</time></trkpt><trkpt lat="40.851611592569924" lon="9.137020969601766"><ele>973.0</ele><time>2026-05-03T10:36:07Z</time></trkpt><trkpt lat="40.851717542114365" lon="9.136902541749597"><ele>971.0</ele><time>2026-05-03T10:36:08Z</time></trkpt><trkpt lat="40.851847727224964" lon="9.136826150819259"><ele>969.0</ele><time>2026-05-03T10:36:09Z</time></trkpt><trkpt lat="40.851978861921225" lon="9.136781355558242"><ele>968.0</ele><time>2026-05-03T10:36:10Z</time></trkpt><trkpt lat="40.85212390472803" lon="9.136729451208181"><ele>967.0</ele><time>2026-05-03T10:36:11Z</time></trkpt><trkpt lat="40.85227438858565" lon="9.136675529106522"><ele>966.0</ele><time>2026-05-03T10:36:12Z</time></trkpt><trkpt lat="40.85243099328651" lon="9.13663330220068"><ele>966.0</ele><time>2026-05-03T10:36:13Z</time></trkpt><trkpt lat="40.85258853933943" lon="9.13662071602938"><ele>966.0</ele><time>2026-05-03T10:36:14Z</time></trkpt><trkpt lat="40.85274408633829" lon="9.136636344291576"><ele>966.0</ele><time>2026-05-03T10:36:15Z</time></trkpt><trkpt lat="40.85289550019326" lon="9.136675407313138"><ele>963.3333333333333</ele><time>2026-05-03T10:36:16Z</time></trkpt><trkpt lat="40.85304226135624" lon="9.136721479590154"><ele>960.6666666666666</ele><time>2026-05-03T10:36:17Z</time></trkpt><trkpt lat="40.85319100214983" lon="9.136766524995373"><ele>958.0</ele><time>2026-05-03T10:36:18Z</time></trkpt><trkpt lat="40.85333410229691" lon="9.136820195005212"><ele>954.25</ele><time>2026-05-03T10:36:19Z</time></trkpt><trkpt lat="40.85346963374889" lon="9.13688624940057"><ele>950.5</ele><time>2026-05-03T10:36:20Z</time></trkpt><trkpt lat="40.853598823380615" lon="9.13696967509614"><ele>946.75</ele><time>2026-05-03T10:36:21Z</time></trkpt><trkpt lat="40.853723780547426" lon="9.137081233939377"><ele>943.0</ele><time>2026-05-03T10:36:22Z</time></trkpt><trkpt lat="40.853848426799395" lon="9.137197744167004"><ele>943.0</ele><time>2026-05-03T10:36:23Z</time></trkpt><trkpt lat="40.85397655289958" lon="9.137319402726536"><ele>943.0</ele><time>2026-05-03T10:36:24Z</time></trkpt><trkpt lat="40.85409461262355" lon="9.137457834357656"><ele>943.0</ele><time>2026-05-03T10:36:25Z</time></trkpt><trkpt lat="40.85421949905458" lon="9.137566494525226"><ele>940.5999999999999</ele><time>2026-05-03T10:36:26Z</time></trkpt><trkpt lat="40.85433192520744" lon="9.13768209431094"><ele>938.1999999999999</ele><time>2026-05-03T10:36:27Z</time></trkpt><trkpt lat="40.854425197167025" lon="9.137791345556439"><ele>935.8</ele><time>2026-05-03T10:36:28Z</time></trkpt><trkpt lat="40.854495774715645" lon="9.137871635170974"><ele>933.4</ele><time>2026-05-03T10:36:29Z</time></trkpt><trkpt lat="40.85455550436678" lon="9.137905422578461"><ele>931.0</ele><time>2026-05-03T10:36:30Z</time></trkpt><trkpt lat="40.85465418306925" lon="9.1378339524409"><ele>931.0</ele><time>2026-05-03T10:36:32Z</time></trkpt><trkpt lat="40.85466085585156" lon="9.137742793322003"><ele>930.9999999999999</ele><time>2026-05-03T10:36:33Z</time></trkpt><trkpt lat="40.85462551619797" lon="9.137636708760452"><ele>930.9999999999999</ele><time>2026-05-03T10:36:34Z</time></trkpt><trkpt lat="40.854578876871656" lon="9.137507022410265"><ele>931.0</ele><time>2026-05-03T10:36:35Z</time></trkpt><trkpt lat="40.85453087483253" lon="9.13733945132433"><ele>931.0</ele><time>2026-05-03T10:36:36Z</time></trkpt><trkpt lat="40.854478459958564" lon="9.137151761753133"><ele>928.25</ele><time>2026-05-03T10:36:37Z</time></trkpt><trkpt lat="40.85442152770598" lon="9.136962906488503"><ele>925.5</ele><time>2026-05-03T10:36:38Z</time></trkpt><trkpt lat="40.85437303853056" lon="9.136794594484527"><ele>922.75</ele><time>2026-05-03T10:36:39Z</time></trkpt><trkpt lat="40.85434460879866" lon="9.136611551005037"><ele>920.0</ele><time>2026-05-03T10:36:40Z</time></trkpt><trkpt lat="40.854321473796944" lon="9.13641879634618"><ele>917.5</ele><time>2026-05-03T10:36:41Z</time></trkpt><trkpt lat="40.85430096158269" lon="9.136228794119939"><ele>915.0</ele><time>2026-05-03T10:36:42Z</time></trkpt><trkpt lat="40.854274859514064" lon="9.136055757718632"><ele>912.5</ele><time>2026-05-03T10:36:43Z</time></trkpt><trkpt lat="40.8542709615477" lon="9.135905752180816"><ele>910.0</ele><time>2026-05-03T10:36:44Z</time></trkpt><trkpt lat="40.85426192654594" lon="9.135797781053313"><ele>910.0</ele><time>2026-05-03T10:36:45Z</time></trkpt><trkpt lat="40.85430135571713" lon="9.135731568263182"><ele>910.0</ele><time>2026-05-03T10:36:46Z</time></trkpt><trkpt lat="40.8544250884081" lon="9.135755677336252"><ele>910.0</ele><time>2026-05-03T10:36:48Z</time></trkpt><trkpt lat="40.854496121188724" lon="9.135836339212506"><ele>910.0</ele><time>2026-05-03T10:36:49Z</time></trkpt><trkpt lat="40.85458284850481" lon="9.135929282027703"><ele>910.0</ele><time>2026-05-03T10:36:50Z</time></trkpt><trkpt lat="40.854687663887795" lon="9.136031170627772"><ele>910.0</ele><time>2026-05-03T10:36:51Z</time></trkpt><trkpt lat="40.85480461543534" lon="9.136147472201248"><ele>910.0</ele><time>2026-05-03T10:36:52Z</time></trkpt><trkpt lat="40.85493403339825" lon="9.136277467641126"><ele>910.0</ele><time>2026-05-03T10:36:53Z</time></trkpt><trkpt lat="40.85505583043102" lon="9.136421587277187"><ele>907.0</ele><time>2026-05-03T10:36:54Z</time></trkpt><trkpt lat="40.855168485887084" lon="9.136554844391533"><ele>904.0</ele><time>2026-05-03T10:36:55Z</time></trkpt><trkpt lat="40.85526442702659" lon="9.13668525013542"><ele>901.0</ele><time>2026-05-03T10:36:56Z</time></trkpt><trkpt lat="40.855338397603035" lon="9.136797429144808"><ele>898.0</ele><time>2026-05-03T10:36:57Z</time></trkpt><trkpt lat="40.855395960849364" lon="9.136885411016896"><ele>897.9999999999999</ele><time>2026-05-03T10:36:58Z</time></trkpt><trkpt lat="40.85545731453861" lon="9.136918634320228"><ele>898.0</ele><time>2026-05-03T10:36:59Z</time></trkpt><trkpt lat="40.85553353392484" lon="9.13681253148146"><ele>898.0</ele><time>2026-05-03T10:37:01Z</time></trkpt><trkpt lat="40.85551421239768" lon="9.136721358355144"><ele>898.0</ele><time>2026-05-03T10:37:02Z</time></trkpt><trkpt lat="40.85546181947339" lon="9.136642890841207"><ele>897.9999999999999</ele><time>2026-05-03T10:37:03Z</time></trkpt><trkpt lat="40.85542273985207" lon="9.136536723417436"><ele>898.0</ele><time>2026-05-03T10:37:04Z</time></trkpt><trkpt lat="40.855365944284415" lon="9.136433811407713"><ele>896.3333333333333</ele><time>2026-05-03T10:37:05Z</time></trkpt><trkpt lat="40.85531412365731" lon="9.136336253634955"><ele>894.6666666666666</ele><time>2026-05-03T10:37:06Z</time></trkpt><trkpt lat="40.85532452254212" lon="9.136184211680494"><ele>893.0</ele><time>2026-05-03T10:37:08Z</time></trkpt><trkpt lat="40.8553857018984" lon="9.136138423380617"><ele>891.3333333333333</ele><time>2026-05-03T10:37:09Z</time></trkpt><trkpt lat="40.855453368013414" lon="9.13616280034048"><ele>889.6666666666666</ele><time>2026-05-03T10:37:10Z</time></trkpt><trkpt lat="40.85548810790881" lon="9.136263101340376"><ele>888.0</ele><time>2026-05-03T10:37:11Z</time></trkpt><trkpt lat="40.85556256014523" lon="9.136372242092186"><ele>888.0</ele><time>2026-05-03T10:37:12Z</time></trkpt><trkpt lat="40.85565218540124" lon="9.136482572611653"><ele>888.0</ele><time>2026-05-03T10:37:13Z</time></trkpt><trkpt lat="40.85574757126035" lon="9.136631302660977"><ele>888.0</ele><time>2026-05-03T10:37:14Z</time></trkpt><trkpt lat="40.85585135499686" lon="9.136782123663698"><ele>888.0</ele><time>2026-05-03T10:37:15Z</time></trkpt><trkpt lat="40.85595112058768" lon="9.136925366317715"><ele>888.0</ele><time>2026-05-03T10:37:16Z</time></trkpt><trkpt lat="40.856044106657265" lon="9.13706620991157"><ele>888.0</ele><time>2026-05-03T10:37:17Z</time></trkpt><trkpt lat="40.85612559202987" lon="9.137201808172582"><ele>888.0</ele><time>2026-05-03T10:37:18Z</time></trkpt><trkpt lat="40.856189844435335" lon="9.13732332469469"><ele>888.0</ele><time>2026-05-03T10:37:19Z</time></trkpt><trkpt lat="40.856247496385954" lon="9.137413277698151"><ele>888.0</ele><time>2026-05-03T10:37:20Z</time></trkpt><trkpt lat="40.856318477686074" lon="9.137439032490533"><ele>888.0</ele><time>2026-05-03T10:37:21Z</time></trkpt><trkpt lat="40.85638220653646" lon="9.137407403178553"><ele>888.0</ele><time>2026-05-03T10:37:22Z</time></trkpt><trkpt lat="40.85641364227151" lon="9.13732255595673"><ele>888.0</ele><time>2026-05-03T10:37:23Z</time></trkpt><trkpt lat="40.85640176662834" lon="9.137213391632589"><ele>888.0</ele><time>2026-05-03T10:37:24Z</time></trkpt><trkpt lat="40.856360946852874" lon="9.137090421315643"><ele>888.0</ele><time>2026-05-03T10:37:25Z</time></trkpt><trkpt lat="40.85630709435301" lon="9.136951528321386"><ele>883.75</ele><time>2026-05-03T10:37:26Z</time></trkpt><trkpt lat="40.856274220399634" lon="9.136774042895647"><ele>879.5</ele><time>2026-05-03T10:37:27Z</time></trkpt><trkpt lat="40.856255653122155" lon="9.136580494282157"><ele>875.25</ele><time>2026-05-03T10:37:28Z</time></trkpt><trkpt lat="40.856234640748575" lon="9.13637424694846"><ele>871.0</ele><time>2026-05-03T10:37:29Z</time></trkpt><trkpt lat="40.85624351589142" lon="9.1361750282805"><ele>869.25</ele><time>2026-05-03T10:37:30Z</time></trkpt><trkpt lat="40.856248296163315" lon="9.135983664945448"><ele>867.5</ele><time>2026-05-03T10:37:31Z</time></trkpt><trkpt lat="40.8562325911495" lon="9.135796076221553"><ele>865.75</ele><time>2026-05-03T10:37:32Z</time></trkpt><trkpt lat="40.85618796752332" lon="9.13562864353389"><ele>864.0</ele><time>2026-05-03T10:37:33Z</time></trkpt><trkpt lat="40.856134966083175" lon="9.135483973928304"><ele>862.8333333333334</ele><time>2026-05-03T10:37:34Z</time></trkpt><trkpt lat="40.85606922697836" lon="9.135409927548247"><ele>861.6666666666667</ele><time>2026-05-03T10:37:35Z</time></trkpt><trkpt lat="40.85605277605376" lon="9.135324286707363"><ele>860.5</ele><time>2026-05-03T10:37:36Z</time></trkpt><trkpt lat="40.856077019672085" lon="9.135244138878377"><ele>859.3333333333334</ele><time>2026-05-03T10:37:37Z</time></trkpt><trkpt lat="40.85613830619948" lon="9.135202082143179"><ele>858.1666666666667</ele><time>2026-05-03T10:37:38Z</time></trkpt><trkpt lat="40.85623142174376" lon="9.135209567784658"><ele>857.0</ele><time>2026-05-03T10:37:39Z</time></trkpt><trkpt lat="40.85633867142188" lon="9.135242087698114"><ele>857.0000000000001</ele><time>2026-05-03T10:37:40Z</time></trkpt><trkpt lat="40.85644362306398" lon="9.135278065188551"><ele>857.0</ele><time>2026-05-03T10:37:41Z</time></trkpt><trkpt lat="40.85653114289547" lon="9.135312475122431"><ele>857.0</ele><time>2026-05-03T10:37:42Z</time></trkpt><trkpt lat="40.856599707109226" lon="9.135294547889805"><ele>857.0</ele><time>2026-05-03T10:37:43Z</time></trkpt><trkpt lat="40.856639496861185" lon="9.135219231491405"><ele>857.0000000000001</ele><time>2026-05-03T10:37:44Z</time></trkpt><trkpt lat="40.85663310904309" lon="9.1351212087128"><ele>857.0</ele><time>2026-05-03T10:37:45Z</time></trkpt><trkpt lat="40.856598486455916" lon="9.135014587410476"><ele>857.0</ele><time>2026-05-03T10:37:46Z</time></trkpt><trkpt lat="40.85650052317904" lon="9.134943120625596"><ele>857.0</ele><time>2026-05-03T10:37:47Z</time></trkpt><trkpt lat="40.85641251276953" lon="9.134869841108683"><ele>857.0</ele><time>2026-05-03T10:37:48Z</time></trkpt><trkpt lat="40.85634501884689" lon="9.134807894786054"><ele>857.0</ele><time>2026-05-03T10:37:49Z</time></trkpt><trkpt lat="40.85631009754151" lon="9.134675882635747"><ele>857.0</ele><time>2026-05-03T10:37:51Z</time></trkpt><trkpt lat="40.85637557434171" lon="9.134617500154704"><ele>852.5</ele><time>2026-05-03T10:37:52Z</time></trkpt><trkpt lat="40.8564808272885" lon="9.134593191823615"><ele>848.0</ele><time>2026-05-03T10:37:53Z</time></trkpt><trkpt lat="40.85660473217731" lon="9.134591989985504"><ele>843.5</ele><time>2026-05-03T10:37:54Z</time></trkpt><trkpt lat="40.856731176565496" lon="9.134643454086616"><ele>839.0</ele><time>2026-05-03T10:37:55Z</time></trkpt><trkpt lat="40.85685244955719" lon="9.134747762841425"><ele>837.5</ele><time>2026-05-03T10:37:56Z</time></trkpt><trkpt lat="40.85695901269473" lon="9.134881449841398"><ele>836.0</ele><time>2026-05-03T10:37:57Z</time></trkpt><trkpt lat="40.85705007110482" lon="9.13501636579029"><ele>834.5</ele><time>2026-05-03T10:37:58Z</time></trkpt><trkpt lat="40.8571280824968" lon="9.135115700667857"><ele>833.0</ele><time>2026-05-03T10:37:59Z</time></trkpt><trkpt lat="40.85724899741815" lon="9.135128409542583"><ele>833.0</ele><time>2026-05-03T10:38:01Z</time></trkpt><trkpt lat="40.857294216736534" lon="9.135053761629688"><ele>833.0</ele><time>2026-05-03T10:38:02Z</time></trkpt><trkpt lat="40.85729609844479" lon="9.13494649724783"><ele>833.0</ele><time>2026-05-03T10:38:03Z</time></trkpt><trkpt lat="40.85725884650195" lon="9.134829494840693"><ele>833.0</ele><time>2026-05-03T10:38:04Z</time></trkpt><trkpt lat="40.85720051057514" lon="9.134683719289246"><ele>833.0</ele><time>2026-05-03T10:38:05Z</time></trkpt><trkpt lat="40.85715357832154" lon="9.134509558277244"><ele>829.75</ele><time>2026-05-03T10:38:06Z</time></trkpt><trkpt lat="40.85708686015356" lon="9.134347491982346"><ele>826.5</ele><time>2026-05-03T10:38:07Z</time></trkpt><trkpt lat="40.85701433582715" lon="9.134201513413773"><ele>823.25</ele><time>2026-05-03T10:38:08Z</time></trkpt><trkpt lat="40.85692768267848" lon="9.134069265771407"><ele>820.0</ele><time>2026-05-03T10:38:09Z</time></trkpt><trkpt lat="40.85684915210324" lon="9.13396179840552"><ele>819.6666666666666</ele><time>2026-05-03T10:38:10Z</time></trkpt><trkpt lat="40.85678732218017" lon="9.133877185016987"><ele>819.3333333333333</ele><time>2026-05-03T10:38:11Z</time></trkpt><trkpt lat="40.85673076006372" lon="9.133823607317765"><ele>819.0</ele><time>2026-05-03T10:38:12Z</time></trkpt><trkpt lat="40.85673673020811" lon="9.133736445533659"><ele>818.6666666666667</ele><time>2026-05-03T10:38:13Z</time></trkpt><trkpt lat="40.856776649709374" lon="9.133671308207306"><ele>818.3333333333334</ele><time>2026-05-03T10:38:14Z</time></trkpt><trkpt lat="40.856846437596815" lon="9.133650612008006"><ele>818.0</ele><time>2026-05-03T10:38:15Z</time></trkpt><trkpt lat="40.85693638696902" lon="9.13367892356693"><ele>814.0</ele><time>2026-05-03T10:38:16Z</time></trkpt><trkpt lat="40.857042419910094" lon="9.133733790729973"><ele>810.0</ele><time>2026-05-03T10:38:17Z</time></trkpt><trkpt lat="40.8571652048858" lon="9.133793906932764"><ele>806.0</ele><time>2026-05-03T10:38:18Z</time></trkpt><trkpt lat="40.8573003871871" lon="9.133849448692247"><ele>802.0</ele><time>2026-05-03T10:38:19Z</time></trkpt><trkpt lat="40.857437291983466" lon="9.133910539677135"><ele>802.0</ele><time>2026-05-03T10:38:20Z</time></trkpt><trkpt lat="40.857564598420495" lon="9.133990576627133"><ele>802.0</ele><time>2026-05-03T10:38:21Z</time></trkpt><trkpt lat="40.85767897784999" lon="9.134093423072674"><ele>802.0</ele><time>2026-05-03T10:38:22Z</time></trkpt><trkpt lat="40.85777909917279" lon="9.134219212747745"><ele>802.0</ele><time>2026-05-03T10:38:23Z</time></trkpt><trkpt lat="40.857867184871594" lon="9.134370469071277"><ele>801.75</ele><time>2026-05-03T10:38:24Z</time></trkpt><trkpt lat="40.85793423968621" lon="9.134535750364753"><ele>801.5</ele><time>2026-05-03T10:38:25Z</time></trkpt><trkpt lat="40.857985907596415" lon="9.134706187062053"><ele>801.25</ele><time>2026-05-03T10:38:26Z</time></trkpt><trkpt lat="40.858048860926424" lon="9.134854839036517"><ele>801.0</ele><time>2026-05-03T10:38:27Z</time></trkpt><trkpt lat="40.858130981887804" lon="9.134957889072464"><ele>801.5999999999999</ele><time>2026-05-03T10:38:28Z</time></trkpt><trkpt lat="40.858234646626784" lon="9.135012003849853"><ele>802.2</ele><time>2026-05-03T10:38:29Z</time></trkpt><trkpt lat="40.858335321547855" lon="9.135018585176278"><ele>802.8</ele><time>2026-05-03T10:38:30Z</time></trkpt><trkpt lat="40.8584242338875" lon="9.134979217375648"><ele>803.4000000000001</ele><time>2026-05-03T10:38:31Z</time></trkpt><trkpt lat="40.85847650240543" lon="9.134893487120141"><ele>804.0</ele><time>2026-05-03T10:38:32Z</time></trkpt><trkpt lat="40.858502146439335" lon="9.13478387408963"><ele>804.0</ele><time>2026-05-03T10:38:33Z</time></trkpt><trkpt lat="40.85846643734315" lon="9.134642976156808"><ele>804.0</ele><time>2026-05-03T10:38:34Z</time></trkpt><trkpt lat="40.85843002054645" lon="9.134486031256563"><ele>804.0</ele><time>2026-05-03T10:38:35Z</time></trkpt><trkpt lat="40.85837494325066" lon="9.134302038771441"><ele>804.0</ele><time>2026-05-03T10:38:36Z</time></trkpt><trkpt lat="40.858330181879126" lon="9.134101450263396"><ele>798.0</ele><time>2026-05-03T10:38:37Z</time></trkpt><trkpt lat="40.85829706135548" lon="9.133890454848792"><ele>792.0</ele><time>2026-05-03T10:38:38Z</time></trkpt><trkpt lat="40.85823891001462" lon="9.133710101633133"><ele>786.0</ele><time>2026-05-03T10:38:39Z</time></trkpt><trkpt lat="40.85820507125856" lon="9.133504312933617"><ele>786.0</ele><time>2026-05-03T10:38:40Z</time></trkpt><trkpt lat="40.858130870564985" lon="9.133331207619273"><ele>786.0</ele><time>2026-05-03T10:38:41Z</time></trkpt><trkpt lat="40.85801320809836" lon="9.133204094022648"><ele>786.0</ele><time>2026-05-03T10:38:42Z</time></trkpt><trkpt lat="40.85788741115698" lon="9.133092956409941"><ele>782.0</ele><time>2026-05-03T10:38:43Z</time></trkpt><trkpt lat="40.857752682741804" lon="9.13297878653736"><ele>778.0</ele><time>2026-05-03T10:38:44Z</time></trkpt><trkpt lat="40.85761611188792" lon="9.132865162406977"><ele>774.0</ele><time>2026-05-03T10:38:45Z</time></trkpt><trkpt lat="40.857502385968615" lon="9.132773596098202"><ele>774.0</ele><time>2026-05-03T10:38:46Z</time></trkpt><trkpt lat="40.85740936954299" lon="9.132699319432534"><ele>774.0</ele><time>2026-05-03T10:38:47Z</time></trkpt><trkpt lat="40.85730849611173" lon="9.132621227468293"><ele>774.0</ele><time>2026-05-03T10:38:49Z</time></trkpt><trkpt lat="40.85736570502921" lon="9.13250879611881"><ele>774.0</ele><time>2026-05-03T10:38:51Z</time></trkpt><trkpt lat="40.857442422007246" lon="9.132506919518944"><ele>774.0</ele><time>2026-05-03T10:38:52Z</time></trkpt><trkpt lat="40.85752807045197" lon="9.132581720810528"><ele>772.2</ele><time>2026-05-03T10:38:53Z</time></trkpt><trkpt lat="40.85764125685831" lon="9.132601902399712"><ele>770.4000000000001</ele><time>2026-05-03T10:38:54Z</time></trkpt><trkpt lat="40.85776970318935" lon="9.132593892230124"><ele>768.6</ele><time>2026-05-03T10:38:55Z</time></trkpt><trkpt lat="40.857882357003355" lon="9.132606732625767"><ele>766.8</ele><time>2026-05-03T10:38:56Z</time></trkpt><trkpt lat="40.857975048578" lon="9.13259366649403"><ele>765.0</ele><time>2026-05-03T10:38:57Z</time></trkpt><trkpt lat="40.85803667670765" lon="9.132550834175094"><ele>765.0</ele><time>2026-05-03T10:38:58Z</time></trkpt><trkpt lat="40.858048992123706" lon="9.132399072511436"><ele>765.0</ele><time>2026-05-03T10:39:00Z</time></trkpt><trkpt lat="40.85797739004631" lon="9.132333086919152"><ele>765.0</ele><time>2026-05-03T10:39:01Z</time></trkpt><trkpt lat="40.85785663435623" lon="9.13234107150319"><ele>765.0</ele><time>2026-05-03T10:39:02Z</time></trkpt><trkpt lat="40.857734032313964" lon="9.132323972244544"><ele>765.0</ele><time>2026-05-03T10:39:03Z</time></trkpt><trkpt lat="40.857605804973275" lon="9.132276703669193"><ele>760.8</ele><time>2026-05-03T10:39:04Z</time></trkpt><trkpt lat="40.857494214687186" lon="9.132246779873908"><ele>756.6</ele><time>2026-05-03T10:39:05Z</time></trkpt><trkpt lat="40.857413173083145" lon="9.132202204313353"><ele>752.4000000000001</ele><time>2026-05-03T10:39:06Z</time></trkpt><trkpt lat="40.85733821572115" lon="9.132105674031505"><ele>748.2</ele><time>2026-05-03T10:39:08Z</time></trkpt><trkpt lat="40.85742671004433" lon="9.132017224847038"><ele>744.0</ele><time>2026-05-03T10:39:10Z</time></trkpt><trkpt lat="40.85751511602562" lon="9.132022529983667"><ele>743.75</ele><time>2026-05-03T10:39:11Z</time></trkpt><trkpt lat="40.85762335999197" lon="9.132044589018056"><ele>743.5</ele><time>2026-05-03T10:39:12Z</time></trkpt><trkpt lat="40.85775675025322" lon="9.13207713679251"><ele>743.25</ele><time>2026-05-03T10:39:13Z</time></trkpt><trkpt lat="40.857875829933604" lon="9.132119746315047"><ele>743.0</ele><time>2026-05-03T10:39:14Z</time></trkpt><trkpt lat="40.857971433402895" lon="9.132149636692708"><ele>743.0</ele><time>2026-05-03T10:39:15Z</time></trkpt><trkpt lat="40.85803420324675" lon="9.132143215507506"><ele>743.0</ele><time>2026-05-03T10:39:16Z</time></trkpt><trkpt lat="40.858095667956015" lon="9.13201354938405"><ele>743.0</ele><time>2026-05-03T10:39:18Z</time></trkpt><trkpt lat="40.858053995282255" lon="9.13192440718673"><ele>743.0</ele><time>2026-05-03T10:39:19Z</time></trkpt><trkpt lat="40.85793107212802" lon="9.131887649993681"><ele>743.0</ele><time>2026-05-03T10:39:20Z</time></trkpt><trkpt lat="40.85781630640585" lon="9.131854255264921"><ele>743.0</ele><time>2026-05-03T10:39:21Z</time></trkpt><trkpt lat="40.85768470674475" lon="9.131809495533616"><ele>743.0</ele><time>2026-05-03T10:39:22Z</time></trkpt><trkpt lat="40.85754707328836" lon="9.131761840846684"><ele>743.0</ele><time>2026-05-03T10:39:23Z</time></trkpt><trkpt lat="40.857425659969635" lon="9.131720449756486"><ele>743.0</ele><time>2026-05-03T10:39:24Z</time></trkpt><trkpt lat="40.857325660707076" lon="9.131680172306666"><ele>743.2</ele><time>2026-05-03T10:39:25Z</time></trkpt><trkpt lat="40.857266853679775" lon="9.131618314384976"><ele>743.4</ele><time>2026-05-03T10:39:26Z</time></trkpt><trkpt lat="40.85727954015825" lon="9.131494980415358"><ele>743.6</ele><time>2026-05-03T10:39:28Z</time></trkpt><trkpt lat="40.8573457658329" lon="9.131488619998523"><ele>743.8000000000001</ele><time>2026-05-03T10:39:29Z</time></trkpt><trkpt lat="40.8574536477939" lon="9.131482549956456"><ele>744.0</ele><time>2026-05-03T10:39:30Z</time></trkpt><trkpt lat="40.857582958056746" lon="9.13147608042946"><ele>737.75</ele><time>2026-05-03T10:39:31Z</time></trkpt><trkpt lat="40.85772913817804" lon="9.13146960637084"><ele>731.5</ele><time>2026-05-03T10:39:32Z</time></trkpt><trkpt lat="40.85788293910825" lon="9.131476402405918"><ele>725.25</ele><time>2026-05-03T10:39:33Z</time></trkpt><trkpt lat="40.85801902375416" lon="9.131503339118767"><ele>719.0</ele><time>2026-05-03T10:39:34Z</time></trkpt><trkpt lat="40.85811321133279" lon="9.131512701802642"><ele>719.0</ele><time>2026-05-03T10:39:35Z</time></trkpt><trkpt lat="40.85818030127221" lon="9.131503058955083"><ele>719.0</ele><time>2026-05-03T10:39:36Z</time></trkpt><trkpt lat="40.85821726821465" lon="9.13136878395006"><ele>719.0</ele><time>2026-05-03T10:39:38Z</time></trkpt><trkpt lat="40.858166544307124" lon="9.131298566411129"><ele>719.0</ele><time>2026-05-03T10:39:39Z</time></trkpt><trkpt lat="40.85807628295564" lon="9.131226631169431"><ele>719.0</ele><time>2026-05-03T10:39:40Z</time></trkpt><trkpt lat="40.85797236117669" lon="9.131155542800904"><ele>719.0</ele><time>2026-05-03T10:39:41Z</time></trkpt><trkpt lat="40.85786841276548" lon="9.131072379736345"><ele>719.0</ele><time>2026-05-03T10:39:42Z</time></trkpt><trkpt lat="40.857781037997" lon="9.130987910810106"><ele>719.0</ele><time>2026-05-03T10:39:43Z</time></trkpt><trkpt lat="40.85773000891768" lon="9.130892136440346"><ele>719.0</ele><time>2026-05-03T10:39:44Z</time></trkpt><trkpt lat="40.85771383589451" lon="9.130790895492572"><ele>719.0</ele><time>2026-05-03T10:39:45Z</time></trkpt><trkpt lat="40.857758274857225" lon="9.130712222657461"><ele>719.0</ele><time>2026-05-03T10:39:46Z</time></trkpt><trkpt lat="40.857835283436664" lon="9.13065039800482"><ele>719.0</ele><time>2026-05-03T10:39:47Z</time></trkpt><trkpt lat="40.85792547303749" lon="9.130674316472664"><ele>719.0</ele><time>2026-05-03T10:39:48Z</time></trkpt><trkpt lat="40.858018772669595" lon="9.130721472760351"><ele>719.0</ele><time>2026-05-03T10:39:49Z</time></trkpt><trkpt lat="40.85811641072161" lon="9.130783259455546"><ele>719.0</ele><time>2026-05-03T10:39:50Z</time></trkpt><trkpt lat="40.858219635472274" lon="9.13073188177134"><ele>715.2</ele><time>2026-05-03T10:39:51Z</time></trkpt><trkpt lat="40.858302444368604" lon="9.13065533739425"><ele>711.4000000000001</ele><time>2026-05-03T10:39:52Z</time></trkpt><trkpt lat="40.858339583050366" lon="9.13053285956694"><ele>707.6</ele><time>2026-05-03T10:39:53Z</time></trkpt><trkpt lat="40.858355120060914" lon="9.130383183257454"><ele>703.8</ele><time>2026-05-03T10:39:54Z</time></trkpt><trkpt lat="40.858303188470245" lon="9.13025129442267"><ele>700.0</ele><time>2026-05-03T10:39:55Z</time></trkpt><trkpt lat="40.85823265826145" lon="9.130151682321832"><ele>700.0</ele><time>2026-05-03T10:39:56Z</time></trkpt><trkpt lat="40.858146064213855" lon="9.130105856146871"><ele>700.0</ele><time>2026-05-03T10:39:57Z</time></trkpt><trkpt lat="40.85806187099957" lon="9.130076752519088"><ele>700.0</ele><time>2026-05-03T10:39:58Z</time></trkpt><trkpt lat="40.858010946818254" lon="9.129969780344538"><ele>700.0</ele><time>2026-05-03T10:40:00Z</time></trkpt><trkpt lat="40.85808856872827" lon="9.12987876495549"><ele>700.0</ele><time>2026-05-03T10:40:02Z</time></trkpt><trkpt lat="40.85817298755728" lon="9.12988092530743"><ele>700.0</ele><time>2026-05-03T10:40:03Z</time></trkpt><trkpt lat="40.85826902294158" lon="9.129911923734824"><ele>700.0</ele><time>2026-05-03T10:40:04Z</time></trkpt><trkpt lat="40.858385859217705" lon="9.129943848075124"><ele>700.0</ele><time>2026-05-03T10:40:05Z</time></trkpt><trkpt lat="40.85849648653225" lon="9.130005041303958"><ele>700.0</ele><time>2026-05-03T10:40:06Z</time></trkpt><trkpt lat="40.858577649020894" lon="9.130108624099112"><ele>697.4</ele><time>2026-05-03T10:40:07Z</time></trkpt><trkpt lat="40.858641009550546" lon="9.13022473370106"><ele>694.8</ele><time>2026-05-03T10:40:08Z</time></trkpt><trkpt lat="40.8586917321757" lon="9.1303113619624"><ele>692.2</ele><time>2026-05-03T10:40:09Z</time></trkpt><trkpt lat="40.858753529146824" lon="9.130344926816509"><ele>689.6</ele><time>2026-05-03T10:40:10Z</time></trkpt><trkpt lat="40.858842586108146" lon="9.130218240571965"><ele>687.0</ele><time>2026-05-03T10:40:12Z</time></trkpt><trkpt lat="40.858855229037225" lon="9.130083599750987"><ele>687.0</ele><time>2026-05-03T10:40:13Z</time></trkpt><trkpt lat="40.85886421623731" lon="9.129931289429303"><ele>687.0</ele><time>2026-05-03T10:40:14Z</time></trkpt><trkpt lat="40.85885030970771" lon="9.129774032045864"><ele>687.0</ele><time>2026-05-03T10:40:15Z</time></trkpt><trkpt lat="40.85880585133586" lon="9.129645638272084"><ele>687.0</ele><time>2026-05-03T10:40:16Z</time></trkpt><trkpt lat="40.85876807514858" lon="9.129522532074306"><ele>687.0</ele><time>2026-05-03T10:40:17Z</time></trkpt><trkpt lat="40.85871812631473" lon="9.12943292371899"><ele>685.6</ele><time>2026-05-03T10:40:18Z</time></trkpt><trkpt lat="40.85871109622989" lon="9.129350098516776"><ele>684.2</ele><time>2026-05-03T10:40:19Z</time></trkpt><trkpt lat="40.85873806846998" lon="9.129272185527975"><ele>682.8</ele><time>2026-05-03T10:40:20Z</time></trkpt><trkpt lat="40.85886478822685" lon="9.129233251707344"><ele>681.4</ele><time>2026-05-03T10:40:22Z</time></trkpt><trkpt lat="40.85894722184988" lon="9.12930619629738"><ele>680.0</ele><time>2026-05-03T10:40:23Z</time></trkpt><trkpt lat="40.859041744314304" lon="9.129387178906478"><ele>680.0</ele><time>2026-05-03T10:40:24Z</time></trkpt><trkpt lat="40.85911843569134" lon="9.129492255759429"><ele>680.0</ele><time>2026-05-03T10:40:25Z</time></trkpt><trkpt lat="40.859175237165346" lon="9.12961877321716"><ele>680.0</ele><time>2026-05-03T10:40:26Z</time></trkpt><trkpt lat="40.859204003586854" lon="9.129754525111442"><ele>680.0</ele><time>2026-05-03T10:40:27Z</time></trkpt><trkpt lat="40.859210238133876" lon="9.129900817464002"><ele>680.0</ele><time>2026-05-03T10:40:28Z</time></trkpt><trkpt lat="40.85921228496223" lon="9.130038294671818"><ele>681.4</ele><time>2026-05-03T10:40:29Z</time></trkpt><trkpt lat="40.8592309225746" lon="9.130142897751258"><ele>682.8</ele><time>2026-05-03T10:40:30Z</time></trkpt><trkpt lat="40.85932756732371" lon="9.130187801889697"><ele>684.2</ele><time>2026-05-03T10:40:32Z</time></trkpt><trkpt lat="40.85938868185572" lon="9.130149820073546"><ele>685.6</ele><time>2026-05-03T10:40:33Z</time></trkpt><trkpt lat="40.85941636446151" lon="9.130005897050673"><ele>687.0</ele><time>2026-05-03T10:40:34Z</time></trkpt><trkpt lat="40.85944508132154" lon="9.129856244313451"><ele>679.75</ele><time>2026-05-03T10:40:35Z</time></trkpt><trkpt lat="40.85947681083131" lon="9.129687810545073"><ele>672.5</ele><time>2026-05-03T10:40:36Z</time></trkpt><trkpt lat="40.859509943406565" lon="9.129510298935706"><ele>665.25</ele><time>2026-05-03T10:40:37Z</time></trkpt><trkpt lat="40.85953615801734" lon="9.129307501777946"><ele>658.0</ele><time>2026-05-03T10:40:38Z</time></trkpt><trkpt lat="40.859589206847275" lon="9.129102694234541"><ele>655.6666666666667</ele><time>2026-05-03T10:40:39Z</time></trkpt><trkpt lat="40.859625241315165" lon="9.128900205853371"><ele>653.3333333333334</ele><time>2026-05-03T10:40:40Z</time></trkpt><trkpt lat="40.85965581739896" lon="9.128702728553211"><ele>651.0</ele><time>2026-05-03T10:40:41Z</time></trkpt><trkpt lat="40.859685503869905" lon="9.128518252500164"><ele>651.0</ele><time>2026-05-03T10:40:42Z</time></trkpt><trkpt lat="40.85968036119966" lon="9.128319827660489"><ele>651.0</ele><time>2026-05-03T10:40:43Z</time></trkpt><trkpt lat="40.8596502482016" lon="9.128134125792752"><ele>651.0</ele><time>2026-05-03T10:40:44Z</time></trkpt><trkpt lat="40.859611263434786" lon="9.127948419936239"><ele>651.0</ele><time>2026-05-03T10:40:45Z</time></trkpt><trkpt lat="40.85957114465915" lon="9.12777151643308"><ele>648.5</ele><time>2026-05-03T10:40:46Z</time></trkpt><trkpt lat="40.859531854095295" lon="9.127598455657932"><ele>646.0</ele><time>2026-05-03T10:40:47Z</time></trkpt><trkpt lat="40.8594956827136" lon="9.127428217955964"><ele>643.5</ele><time>2026-05-03T10:40:48Z</time></trkpt><trkpt lat="40.859447515925645" lon="9.127260731095394"><ele>641.0</ele><time>2026-05-03T10:40:49Z</time></trkpt><trkpt lat="40.85938233039879" lon="9.127104398068075"><ele>639.5</ele><time>2026-05-03T10:40:50Z</time></trkpt><trkpt lat="40.8593039760143" lon="9.126968029698483"><ele>638.0</ele><time>2026-05-03T10:40:51Z</time></trkpt><trkpt lat="40.85925017429741" lon="9.126818736541523"><ele>636.5</ele><time>2026-05-03T10:40:52Z</time></trkpt><trkpt lat="40.85925043183996" lon="9.126635872601703"><ele>635.0</ele><time>2026-05-03T10:40:53Z</time></trkpt><trkpt lat="40.859233892274794" lon="9.126457753659523"><ele>633.4</ele><time>2026-05-03T10:40:54Z</time></trkpt><trkpt lat="40.859223182474715" lon="9.12628534261504"><ele>631.8</ele><time>2026-05-03T10:40:55Z</time></trkpt><trkpt lat="40.85921859757725" lon="9.126148419147091"><ele>630.2</ele><time>2026-05-03T10:40:56Z</time></trkpt><trkpt lat="40.85921903307284" lon="9.126036047771395"><ele>628.6</ele><time>2026-05-03T10:40:57Z</time></trkpt><trkpt lat="40.85927382112052" lon="9.125953503332997"><ele>627.0</ele><time>2026-05-03T10:40:58Z</time></trkpt><trkpt lat="40.85935244605937" lon="9.125928499912654"><ele>624.0</ele><time>2026-05-03T10:40:59Z</time></trkpt><trkpt lat="40.859431254368424" lon="9.12596350348492"><ele>621.0</ele><time>2026-05-03T10:41:00Z</time></trkpt><trkpt lat="40.85952054471041" lon="9.126046724492305"><ele>618.0</ele><time>2026-05-03T10:41:01Z</time></trkpt><trkpt lat="40.859634379824044" lon="9.126191455140685"><ele>615.0</ele><time>2026-05-03T10:41:02Z</time></trkpt><trkpt lat="40.859751146258006" lon="9.126335643868725"><ele>615.0</ele><time>2026-05-03T10:41:03Z</time></trkpt><trkpt lat="40.85987529813148" lon="9.126490557117275"><ele>615.0</ele><time>2026-05-03T10:41:04Z</time></trkpt><trkpt lat="40.859995906033326" lon="9.126651483132369"><ele>615.0</ele><time>2026-05-03T10:41:05Z</time></trkpt><trkpt lat="40.86010519134552" lon="9.126820635678179"><ele>609.6666666666666</ele><time>2026-05-03T10:41:06Z</time></trkpt><trkpt lat="40.86021150507712" lon="9.126994003312422"><ele>604.3333333333333</ele><time>2026-05-03T10:41:07Z</time></trkpt><trkpt lat="40.860316082188824" lon="9.127168489620512"><ele>599.0</ele><time>2026-05-03T10:41:08Z</time></trkpt><trkpt lat="40.86042163202614" lon="9.127345646381093"><ele>604.3333333333333</ele><time>2026-05-03T10:41:09Z</time></trkpt><trkpt lat="40.860527568708285" lon="9.127518158892375"><ele>609.6666666666666</ele><time>2026-05-03T10:41:10Z</time></trkpt><trkpt lat="40.86062682641453" lon="9.127684477369884"><ele>615.0</ele><time>2026-05-03T10:41:11Z</time></trkpt><trkpt lat="40.86071813510908" lon="9.127846510436829"><ele>615.0</ele><time>2026-05-03T10:41:12Z</time></trkpt><trkpt lat="40.860804473173694" lon="9.1280006104566"><ele>615.0</ele><time>2026-05-03T10:41:13Z</time></trkpt><trkpt lat="40.86087453743596" lon="9.12815301448736"><ele>615.0</ele><time>2026-05-03T10:41:14Z</time></trkpt><trkpt lat="40.86093417325828" lon="9.128297273981163"><ele>615.0</ele><time>2026-05-03T10:41:15Z</time></trkpt><trkpt lat="40.86099394328894" lon="9.128435174174319"><ele>613.1666666666666</ele><time>2026-05-03T10:41:16Z</time></trkpt><trkpt lat="40.86106066049125" lon="9.128544453377774"><ele>611.3333333333334</ele><time>2026-05-03T10:41:17Z</time></trkpt><trkpt lat="40.861126696971894" lon="9.12860051474302"><ele>609.5</ele><time>2026-05-03T10:41:18Z</time></trkpt><trkpt lat="40.8611907370795" lon="9.128599851149449"><ele>607.6666666666667</ele><time>2026-05-03T10:41:19Z</time></trkpt><trkpt lat="40.861251411042595" lon="9.128549160070955"><ele>605.8333333333334</ele><time>2026-05-03T10:41:20Z</time></trkpt><trkpt lat="40.86128004170066" lon="9.128453326509664"><ele>604.0</ele><time>2026-05-03T10:41:21Z</time></trkpt><trkpt lat="40.86126355443168" lon="9.128340172375657"><ele>601.5</ele><time>2026-05-03T10:41:22Z</time></trkpt><trkpt lat="40.86122810446306" lon="9.128222936130019"><ele>599.0</ele><time>2026-05-03T10:41:23Z</time></trkpt><trkpt lat="40.86118603575313" lon="9.128080414132008"><ele>596.5</ele><time>2026-05-03T10:41:24Z</time></trkpt><trkpt lat="40.86114123690257" lon="9.12792267244853"><ele>594.0</ele><time>2026-05-03T10:41:25Z</time></trkpt><trkpt lat="40.861096706004915" lon="9.12775908477586"><ele>594.0</ele><time>2026-05-03T10:41:26Z</time></trkpt><trkpt lat="40.86101409944392" lon="9.127629355071026"><ele>594.0</ele><time>2026-05-03T10:41:27Z</time></trkpt><trkpt lat="40.86093018575141" lon="9.127518103604274"><ele>594.0</ele><time>2026-05-03T10:41:28Z</time></trkpt><trkpt lat="40.860864084502275" lon="9.127429545066951"><ele>594.0</ele><time>2026-05-03T10:41:29Z</time></trkpt><trkpt lat="40.86082502278564" lon="9.127357639059197"><ele>594.0</ele><time>2026-05-03T10:41:30Z</time></trkpt><trkpt lat="40.860870034172116" lon="9.127237229277458"><ele>594.0</ele><time>2026-05-03T10:41:32Z</time></trkpt><trkpt lat="40.86093756206641" lon="9.127231879178414"><ele>594.0</ele><time>2026-05-03T10:41:33Z</time></trkpt><trkpt lat="40.8610164903666" lon="9.1273214202469"><ele>594.0</ele><time>2026-05-03T10:41:34Z</time></trkpt><trkpt lat="40.8611288315646" lon="9.127406826540287"><ele>594.0</ele><time>2026-05-03T10:41:35Z</time></trkpt><trkpt lat="40.86125972780358" lon="9.127489461948889"><ele>594.0</ele><time>2026-05-03T10:41:36Z</time></trkpt><trkpt lat="40.86137004230683" lon="9.127598344147039"><ele>594.0</ele><time>2026-05-03T10:41:37Z</time></trkpt><trkpt lat="40.86146031110103" lon="9.127733519210585"><ele>594.0</ele><time>2026-05-03T10:41:38Z</time></trkpt><trkpt lat="40.86149309263939" lon="9.127880666443243"><ele>594.0</ele><time>2026-05-03T10:41:39Z</time></trkpt><trkpt lat="40.8615492072861" lon="9.128000399782097"><ele>594.0</ele><time>2026-05-03T10:41:40Z</time></trkpt><trkpt lat="40.861591732006765" lon="9.128087616083935"><ele>594.0</ele><time>2026-05-03T10:41:41Z</time></trkpt><trkpt lat="40.861658683976025" lon="9.128118236522695"><ele>594.0</ele><time>2026-05-03T10:41:42Z</time></trkpt><trkpt lat="40.86172291935629" lon="9.128091766135634"><ele>594.0</ele><time>2026-05-03T10:41:43Z</time></trkpt><trkpt lat="40.8617693907786" lon="9.128014845208284"><ele>594.0</ele><time>2026-05-03T10:41:44Z</time></trkpt><trkpt lat="40.86178282916119" lon="9.127885955601293"><ele>594.0</ele><time>2026-05-03T10:41:45Z</time></trkpt><trkpt lat="40.86176644782067" lon="9.127743246244622"><ele>594.0</ele><time>2026-05-03T10:41:46Z</time></trkpt><trkpt lat="40.861725572515326" lon="9.12759241842963"><ele>594.0</ele><time>2026-05-03T10:41:47Z</time></trkpt><trkpt lat="40.861665390123726" lon="9.127439439334815"><ele>594.0</ele><time>2026-05-03T10:41:48Z</time></trkpt><trkpt lat="40.8616128627348" lon="9.127304528140346"><ele>594.0</ele><time>2026-05-03T10:41:49Z</time></trkpt><trkpt lat="40.86156353692408" lon="9.127184740650112"><ele>594.0</ele><time>2026-05-03T10:41:50Z</time></trkpt><trkpt lat="40.86153545537584" lon="9.127070451685908"><ele>594.0</ele><time>2026-05-03T10:41:51Z</time></trkpt><trkpt lat="40.861504832282115" lon="9.126982915220912"><ele>591.6</ele><time>2026-05-03T10:41:52Z</time></trkpt><trkpt lat="40.86153540119012" lon="9.126896847130112"><ele>589.2</ele><time>2026-05-03T10:41:53Z</time></trkpt><trkpt lat="40.8615978557902" lon="9.12684774234296"><ele>586.8000000000001</ele><time>2026-05-03T10:41:54Z</time></trkpt><trkpt lat="40.86169132208413" lon="9.126864806770305"><ele>584.4</ele><time>2026-05-03T10:41:55Z</time></trkpt><trkpt lat="40.861778157077545" lon="9.126940242245537"><ele>582.0</ele><time>2026-05-03T10:41:56Z</time></trkpt><trkpt lat="40.86186350426624" lon="9.127050012488775"><ele>580.4</ele><time>2026-05-03T10:41:57Z</time></trkpt><trkpt lat="40.86191338026192" lon="9.127180646561177"><ele>578.8000000000001</ele><time>2026-05-03T10:41:58Z</time></trkpt><trkpt lat="40.861944497994955" lon="9.12728753899793"><ele>577.2</ele><time>2026-05-03T10:41:59Z</time></trkpt><trkpt lat="40.8619683877375" lon="9.12739252585666"><ele>575.6</ele><time>2026-05-03T10:42:00Z</time></trkpt><trkpt lat="40.86197535555613" lon="9.12749930555237"><ele>574.0</ele><time>2026-05-03T10:42:01Z</time></trkpt><trkpt lat="40.861997546864764" lon="9.127615396881957"><ele>573.8</ele><time>2026-05-03T10:42:02Z</time></trkpt><trkpt lat="40.86199822692412" lon="9.127717761227546"><ele>573.5999999999999</ele><time>2026-05-03T10:42:03Z</time></trkpt><trkpt lat="40.861986598326176" lon="9.127903968791564"><ele>573.4</ele><time>2026-05-03T10:42:05Z</time></trkpt><trkpt lat="40.8619726842999" lon="9.12802376022233"><ele>573.1999999999999</ele><time>2026-05-03T10:42:06Z</time></trkpt><trkpt lat="40.861953614929554" lon="9.12815241449777"><ele>573.0</ele><time>2026-05-03T10:42:07Z</time></trkpt><trkpt lat="40.86194533747197" lon="9.128286269051877"><ele>573.8</ele><time>2026-05-03T10:42:08Z</time></trkpt><trkpt lat="40.86202560253605" lon="9.128396666153467"><ele>574.5999999999999</ele><time>2026-05-03T10:42:09Z</time></trkpt><trkpt lat="40.86209942987474" lon="9.128497876216361"><ele>575.4000000000001</ele><time>2026-05-03T10:42:10Z</time></trkpt><trkpt lat="40.8622094702211" lon="9.128529911036122"><ele>576.2</ele><time>2026-05-03T10:42:11Z</time></trkpt><trkpt lat="40.862310209950664" lon="9.128512048991455"><ele>577.0</ele><time>2026-05-03T10:42:12Z</time></trkpt><trkpt lat="40.86240835590477" lon="9.128560543559358"><ele>577.0</ele><time>2026-05-03T10:42:13Z</time></trkpt><trkpt lat="40.862507312335545" lon="9.128625441881804"><ele>577.0</ele><time>2026-05-03T10:42:14Z</time></trkpt><trkpt lat="40.86260716623992" lon="9.128726701823362"><ele>577.0</ele><time>2026-05-03T10:42:15Z</time></trkpt><trkpt lat="40.86271973546879" lon="9.12883335052863"><ele>577.0</ele><time>2026-05-03T10:42:16Z</time></trkpt><trkpt lat="40.86282029679929" lon="9.128954092524932"><ele>578.25</ele><time>2026-05-03T10:42:17Z</time></trkpt><trkpt lat="40.86292037357142" lon="9.129092868552064"><ele>579.5</ele><time>2026-05-03T10:42:18Z</time></trkpt><trkpt lat="40.86302068371291" lon="9.129232248970883"><ele>580.75</ele><time>2026-05-03T10:42:19Z</time></trkpt><trkpt lat="40.86310949374372" lon="9.12935874597345"><ele>582.0</ele><time>2026-05-03T10:42:20Z</time></trkpt><trkpt lat="40.86319416662427" lon="9.1294781402967"><ele>582.0</ele><time>2026-05-03T10:42:21Z</time></trkpt><trkpt lat="40.8632943871406" lon="9.12956651784848"><ele>582.0</ele><time>2026-05-03T10:42:22Z</time></trkpt><trkpt lat="40.86340989815706" lon="9.129605196371909"><ele>582.0</ele><time>2026-05-03T10:42:23Z</time></trkpt><trkpt lat="40.86353641459468" lon="9.129570295489648"><ele>582.0</ele><time>2026-05-03T10:42:24Z</time></trkpt><trkpt lat="40.863662265264495" lon="9.129499767988973"><ele>581.25</ele><time>2026-05-03T10:42:25Z</time></trkpt><trkpt lat="40.86377634670043" lon="9.129393288489826"><ele>580.5</ele><time>2026-05-03T10:42:26Z</time></trkpt><trkpt lat="40.86388670021403" lon="9.129295127155554"><ele>579.75</ele><time>2026-05-03T10:42:27Z</time></trkpt><trkpt lat="40.86401508498774" lon="9.129221660818459"><ele>579.0</ele><time>2026-05-03T10:42:28Z</time></trkpt><trkpt lat="40.86413919280192" lon="9.129114519423553"><ele>579.0</ele><time>2026-05-03T10:42:29Z</time></trkpt><trkpt lat="40.864225383612215" lon="9.128956073596608"><ele>579.0</ele><time>2026-05-03T10:42:30Z</time></trkpt><trkpt lat="40.86431715300256" lon="9.12882111344013"><ele>579.0</ele><time>2026-05-03T10:42:31Z</time></trkpt><trkpt lat="40.864355835040136" lon="9.128616596285235"><ele>579.0</ele><time>2026-05-03T10:42:32Z</time></trkpt><trkpt lat="40.86443361404837" lon="9.128428156125162"><ele>578.5</ele><time>2026-05-03T10:42:33Z</time></trkpt><trkpt lat="40.86449285939654" lon="9.128249887475018"><ele>578.0</ele><time>2026-05-03T10:42:34Z</time></trkpt><trkpt lat="40.86456093966099" lon="9.128118164911264"><ele>577.5</ele><time>2026-05-03T10:42:35Z</time></trkpt><trkpt lat="40.864651644813364" lon="9.12805277924986"><ele>577.0</ele><time>2026-05-03T10:42:36Z</time></trkpt><trkpt lat="40.86475893679377" lon="9.128021521132629"><ele>577.0</ele><time>2026-05-03T10:42:37Z</time></trkpt><trkpt lat="40.8648880264726" lon="9.128021415030757"><ele>577.0</ele><time>2026-05-03T10:42:38Z</time></trkpt><trkpt lat="40.865048206508796" lon="9.128048425781701"><ele>577.0</ele><time>2026-05-03T10:42:39Z</time></trkpt><trkpt lat="40.86521221531443" lon="9.128109996522749"><ele>575.6666666666667</ele><time>2026-05-03T10:42:40Z</time></trkpt><trkpt lat="40.86538591917312" lon="9.128188657361545"><ele>574.3333333333334</ele><time>2026-05-03T10:42:41Z</time></trkpt><trkpt lat="40.86555144477979" lon="9.12826733942482"><ele>573.0</ele><time>2026-05-03T10:42:42Z</time></trkpt><trkpt lat="40.86571489803363" lon="9.128343392843998"><ele>573.0</ele><time>2026-05-03T10:42:43Z</time></trkpt><trkpt lat="40.86588857021444" lon="9.128419058011328"><ele>573.0</ele><time>2026-05-03T10:42:44Z</time></trkpt><trkpt lat="40.86606838719537" lon="9.128472099564696"><ele>573.0</ele><time>2026-05-03T10:42:45Z</time></trkpt><trkpt lat="40.86624912823323" lon="9.128509808686415"><ele>573.3333333333334</ele><time>2026-05-03T10:42:46Z</time></trkpt><trkpt lat="40.866411977086976" lon="9.128544246381955"><ele>573.6666666666667</ele><time>2026-05-03T10:42:47Z</time></trkpt><trkpt lat="40.86658196085761" lon="9.12855842482498"><ele>574.0</ele><time>2026-05-03T10:42:48Z</time></trkpt><trkpt lat="40.86675495010429" lon="9.128581190625859"><ele>573.3333333333334</ele><time>2026-05-03T10:42:49Z</time></trkpt><trkpt lat="40.86692783910678" lon="9.128581786179407"><ele>572.6666666666666</ele><time>2026-05-03T10:42:50Z</time></trkpt><trkpt lat="40.867105087517196" lon="9.128564443181414"><ele>572.0</ele><time>2026-05-03T10:42:51Z</time></trkpt><trkpt lat="40.867284520229866" lon="9.128548456401676"><ele>572.0</ele><time>2026-05-03T10:42:52Z</time></trkpt><trkpt lat="40.86746259715286" lon="9.128525961470384"><ele>572.0</ele><time>2026-05-03T10:42:53Z</time></trkpt><trkpt lat="40.867639119962845" lon="9.128508321983496"><ele>572.0</ele><time>2026-05-03T10:42:54Z</time></trkpt><trkpt lat="40.86781525196376" lon="9.128506523740397"><ele>571.3333333333333</ele><time>2026-05-03T10:42:55Z</time></trkpt><trkpt lat="40.86798981090253" lon="9.128528959950255"><ele>570.6666666666666</ele><time>2026-05-03T10:42:56Z</time></trkpt><trkpt lat="40.8681579730211" lon="9.128574855009218"><ele>570.0</ele><time>2026-05-03T10:42:57Z</time></trkpt><trkpt lat="40.86832558889506" lon="9.128613948108733"><ele>569.6666666666666</ele><time>2026-05-03T10:42:58Z</time></trkpt><trkpt lat="40.868494179016935" lon="9.128630499113003"><ele>569.3333333333333</ele><time>2026-05-03T10:42:59Z</time></trkpt><trkpt lat="40.86866300017175" lon="9.1286250118661"><ele>569.0</ele><time>2026-05-03T10:43:00Z</time></trkpt><trkpt lat="40.86882983324805" lon="9.128592457152566"><ele>569.0</ele><time>2026-05-03T10:43:01Z</time></trkpt><trkpt lat="40.868990999960474" lon="9.12855431050031"><ele>569.0</ele><time>2026-05-03T10:43:02Z</time></trkpt><trkpt lat="40.8691545201874" lon="9.128549380219145"><ele>569.0</ele><time>2026-05-03T10:43:03Z</time></trkpt><trkpt lat="40.869317255611634" lon="9.128582051171694"><ele>567.3333333333333</ele><time>2026-05-03T10:43:04Z</time></trkpt><trkpt lat="40.86947908951975" lon="9.128641414645932"><ele>565.6666666666666</ele><time>2026-05-03T10:43:05Z</time></trkpt><trkpt lat="40.86963925144002" lon="9.128724327960807"><ele>564.0</ele><time>2026-05-03T10:43:06Z</time></trkpt><trkpt lat="40.869799846230364" lon="9.128807972462141"><ele>564.0</ele><time>2026-05-03T10:43:07Z</time></trkpt><trkpt lat="40.86995357087052" lon="9.128868825016387"><ele>564.0</ele><time>2026-05-03T10:43:08Z</time></trkpt><trkpt lat="40.870104689396825" lon="9.128903055476222"><ele>564.0</ele><time>2026-05-03T10:43:09Z</time></trkpt><trkpt lat="40.870255112422086" lon="9.12887855403273"><ele>562.75</ele><time>2026-05-03T10:43:10Z</time></trkpt><trkpt lat="40.87038370529664" lon="9.128792711284488"><ele>561.5</ele><time>2026-05-03T10:43:11Z</time></trkpt><trkpt lat="40.87051243327523" lon="9.128692599368682"><ele>560.25</ele><time>2026-05-03T10:43:12Z</time></trkpt><trkpt lat="40.870635350840445" lon="9.128600505544144"><ele>559.0</ele><time>2026-05-03T10:43:13Z</time></trkpt><trkpt lat="40.87076823971166" lon="9.128552583207107"><ele>559.0</ele><time>2026-05-03T10:43:14Z</time></trkpt><trkpt lat="40.87090322705839" lon="9.128576031617513"><ele>559.0</ele><time>2026-05-03T10:43:15Z</time></trkpt><trkpt lat="40.87103218018137" lon="9.128643928856627"><ele>559.0</ele><time>2026-05-03T10:43:16Z</time></trkpt><trkpt lat="40.871151229145404" lon="9.128695675541266"><ele>559.0</ele><time>2026-05-03T10:43:17Z</time></trkpt><trkpt lat="40.87127736179025" lon="9.128693449677394"><ele>557.5</ele><time>2026-05-03T10:43:18Z</time></trkpt><trkpt lat="40.87140210070161" lon="9.128631765498218"><ele>556.0</ele><time>2026-05-03T10:43:19Z</time></trkpt><trkpt lat="40.871505345082895" lon="9.128547860322147"><ele>554.5</ele><time>2026-05-03T10:43:20Z</time></trkpt><trkpt lat="40.871616046151686" lon="9.128515071364834"><ele>553.0</ele><time>2026-05-03T10:43:21Z</time></trkpt><trkpt lat="40.87171965019" lon="9.128564245116237"><ele>553.25</ele><time>2026-05-03T10:43:22Z</time></trkpt><trkpt lat="40.87180360575424" lon="9.12867172070457"><ele>553.5</ele><time>2026-05-03T10:43:23Z</time></trkpt><trkpt lat="40.87190096251282" lon="9.128796581383872"><ele>553.75</ele><time>2026-05-03T10:43:24Z</time></trkpt><trkpt lat="40.872007110226" lon="9.128923849350429"><ele>554.0</ele><time>2026-05-03T10:43:25Z</time></trkpt><trkpt lat="40.87212262255154" lon="9.12905194877329"><ele>550.25</ele><time>2026-05-03T10:43:26Z</time></trkpt><trkpt lat="40.872250715215955" lon="9.12916879341909"><ele>546.5</ele><time>2026-05-03T10:43:27Z</time></trkpt><trkpt lat="40.872381966118354" lon="9.129254692883714"><ele>542.75</ele><time>2026-05-03T10:43:28Z</time></trkpt><trkpt lat="40.87251397493526" lon="9.129321168373682"><ele>539.0</ele><time>2026-05-03T10:43:29Z</time></trkpt><trkpt lat="40.87264344055832" lon="9.129378643361033"><ele>537.25</ele><time>2026-05-03T10:43:30Z</time></trkpt><trkpt lat="40.87277904013246" lon="9.129413778807525"><ele>535.5</ele><time>2026-05-03T10:43:31Z</time></trkpt><trkpt lat="40.87292482659251" lon="9.129398411914886"><ele>533.75</ele><time>2026-05-03T10:43:32Z</time></trkpt><trkpt lat="40.87307673785389" lon="9.129326948047984"><ele>532.0</ele><time>2026-05-03T10:43:33Z</time></trkpt><trkpt lat="40.873227598909914" lon="9.12922195612456"><ele>532.0</ele><time>2026-05-03T10:43:34Z</time></trkpt><trkpt lat="40.87336645403245" lon="9.129112335101915"><ele>532.0</ele><time>2026-05-03T10:43:35Z</time></trkpt><trkpt lat="40.873491616281996" lon="9.129003100908923"><ele>532.0</ele><time>2026-05-03T10:43:36Z</time></trkpt><trkpt lat="40.873607202440816" lon="9.128866397249038"><ele>529.6666666666667</ele><time>2026-05-03T10:43:37Z</time></trkpt><trkpt lat="40.873693375316094" lon="9.12867590491982"><ele>527.3333333333334</ele><time>2026-05-03T10:43:38Z</time></trkpt><trkpt lat="40.873744264331" lon="9.12845004842043"><ele>525.0</ele><time>2026-05-03T10:43:39Z</time></trkpt><trkpt lat="40.873785120865534" lon="9.128216108098124"><ele>525.0</ele><time>2026-05-03T10:43:40Z</time></trkpt><trkpt lat="40.87382621351339" lon="9.127996966720413"><ele>525.0</ele><time>2026-05-03T10:43:41Z</time></trkpt><trkpt lat="40.87388455726045" lon="9.127802546068125"><ele>525.0</ele><time>2026-05-03T10:43:42Z</time></trkpt><trkpt lat="40.87397741482112" lon="9.127643194019848"><ele>525.0</ele><time>2026-05-03T10:43:43Z</time></trkpt><trkpt lat="40.87411602832313" lon="9.127527059990673"><ele>525.0</ele><time>2026-05-03T10:43:44Z</time></trkpt><trkpt lat="40.874269364330985" lon="9.127452603756659"><ele>525.0</ele><time>2026-05-03T10:43:45Z</time></trkpt><trkpt lat="40.87443041076319" lon="9.127415722585118"><ele>525.25</ele><time>2026-05-03T10:43:46Z</time></trkpt><trkpt lat="40.874568993084395" lon="9.127415757088672"><ele>525.5</ele><time>2026-05-03T10:43:47Z</time></trkpt><trkpt lat="40.874716224192454" lon="9.127458500406686"><ele>525.75</ele><time>2026-05-03T10:43:48Z</time></trkpt><trkpt lat="40.87484668585051" lon="9.127556540996284"><ele>526.0</ele><time>2026-05-03T10:43:49Z</time></trkpt><trkpt lat="40.87497679756588" lon="9.127670138207286"><ele>524.6666666666667</ele><time>2026-05-03T10:43:50Z</time></trkpt><trkpt lat="40.87511252332034" lon="9.12778932508691"><ele>523.3333333333334</ele><time>2026-05-03T10:43:51Z</time></trkpt><trkpt lat="40.87525463951727" lon="9.127910766463083"><ele>522.0</ele><time>2026-05-03T10:43:52Z</time></trkpt><trkpt lat="40.87540146499061" lon="9.128036193540817"><ele>522.0</ele><time>2026-05-03T10:43:53Z</time></trkpt><trkpt lat="40.87554476745044" lon="9.128153622879895"><ele>522.0</ele><time>2026-05-03T10:43:54Z</time></trkpt><trkpt lat="40.87568548485345" lon="9.128263294922109"><ele>522.0</ele><time>2026-05-03T10:43:55Z</time></trkpt><trkpt lat="40.87583588371947" lon="9.12836296628223"><ele>520.3333333333334</ele><time>2026-05-03T10:43:56Z</time></trkpt><trkpt lat="40.875994806776895" lon="9.128429204427666"><ele>518.6666666666667</ele><time>2026-05-03T10:43:57Z</time></trkpt><trkpt lat="40.876161605561855" lon="9.128440442738084"><ele>517.0</ele><time>2026-05-03T10:43:58Z</time></trkpt><trkpt lat="40.87633386071719" lon="9.128431936936183"><ele>517.0</ele><time>2026-05-03T10:43:59Z</time></trkpt><trkpt lat="40.87651298193132" lon="9.128424704220816"><ele>517.0</ele><time>2026-05-03T10:44:00Z</time></trkpt><trkpt lat="40.876700383527314" lon="9.128415147605926"><ele>517.0</ele><time>2026-05-03T10:44:01Z</time></trkpt><trkpt lat="40.876891405892955" lon="9.128407834160397"><ele>516.6666666666667</ele><time>2026-05-03T10:44:02Z</time></trkpt><trkpt lat="40.87708403065741" lon="9.128401978878019"><ele>516.3333333333334</ele><time>2026-05-03T10:44:03Z</time></trkpt><trkpt lat="40.877277758314925" lon="9.1283926615094"><ele>516.0</ele><time>2026-05-03T10:44:04Z</time></trkpt><trkpt lat="40.87747180941647" lon="9.128380643549077"><ele>517.0</ele><time>2026-05-03T10:44:05Z</time></trkpt><trkpt lat="40.877663547622866" lon="9.128372614805789"><ele>518.0</ele><time>2026-05-03T10:44:06Z</time></trkpt><trkpt lat="40.87784830211081" lon="9.128353238651506"><ele>519.0</ele><time>2026-05-03T10:44:07Z</time></trkpt><trkpt lat="40.878016726974025" lon="9.128301254428951"><ele>519.0</ele><time>2026-05-03T10:44:08Z</time></trkpt><trkpt lat="40.87816518251816" lon="9.128226548886698"><ele>519.0</ele><time>2026-05-03T10:44:09Z</time></trkpt><trkpt lat="40.878294075009876" lon="9.128138990252141"><ele>519.0</ele><time>2026-05-03T10:44:10Z</time></trkpt><trkpt lat="40.87840703480369" lon="9.1280408016362"><ele>519.0</ele><time>2026-05-03T10:44:11Z</time></trkpt><trkpt lat="40.87851954450801" lon="9.127931753745086"><ele>520.3333333333334</ele><time>2026-05-03T10:44:12Z</time></trkpt><trkpt lat="40.878642091320884" lon="9.127819310022522"><ele>521.6666666666667</ele><time>2026-05-03T10:44:13Z</time></trkpt><trkpt lat="40.87877392638251" lon="9.127708878887917"><ele>523.0</ele><time>2026-05-03T10:44:14Z</time></trkpt><trkpt lat="40.87891775762552" lon="9.12760240746203"><ele>523.0</ele><time>2026-05-03T10:44:15Z</time></trkpt><trkpt lat="40.87907032773126" lon="9.127500141949312"><ele>523.0</ele><time>2026-05-03T10:44:16Z</time></trkpt><trkpt lat="40.87922807558743" lon="9.127401878679452"><ele>523.0</ele><time>2026-05-03T10:44:17Z</time></trkpt><trkpt lat="40.87939479203042" lon="9.127313834534968"><ele>523.0</ele><time>2026-05-03T10:44:18Z</time></trkpt><trkpt lat="40.87956783004951" lon="9.127237348800524"><ele>523.0</ele><time>2026-05-03T10:44:19Z</time></trkpt><trkpt lat="40.87974631322287" lon="9.12717759584616"><ele>523.0</ele><time>2026-05-03T10:44:20Z</time></trkpt><trkpt lat="40.87992771948341" lon="9.127119690229703"><ele>522.6666666666667</ele><time>2026-05-03T10:44:21Z</time></trkpt><trkpt lat="40.880108615763255" lon="9.127058050979803"><ele>522.3333333333334</ele><time>2026-05-03T10:44:22Z</time></trkpt><trkpt lat="40.88028970392832" lon="9.126996885940303"><ele>522.0</ele><time>2026-05-03T10:44:23Z</time></trkpt><trkpt lat="40.8804703178426" lon="9.126934081855655"><ele>522.0</ele><time>2026-05-03T10:44:24Z</time></trkpt><trkpt lat="40.88064432116852" lon="9.126879973306178"><ele>522.0</ele><time>2026-05-03T10:44:25Z</time></trkpt><trkpt lat="40.880805193882914" lon="9.126822701597602"><ele>522.0</ele><time>2026-05-03T10:44:26Z</time></trkpt><trkpt lat="40.880960632944685" lon="9.126764142551918"><ele>521.6666666666666</ele><time>2026-05-03T10:44:27Z</time></trkpt><trkpt lat="40.88111105579211" lon="9.126707051000286"><ele>521.3333333333333</ele><time>2026-05-03T10:44:28Z</time></trkpt><trkpt lat="40.88126399319847" lon="9.126644682501336"><ele>521.0</ele><time>2026-05-03T10:44:29Z</time></trkpt><trkpt lat="40.88142516205473" lon="9.126610619158184"><ele>519.6666666666666</ele><time>2026-05-03T10:44:30Z</time></trkpt><trkpt lat="40.88158417155531" lon="9.126553172136498"><ele>518.3333333333334</ele><time>2026-05-03T10:44:31Z</time></trkpt><trkpt lat="40.88174835967528" lon="9.126484933312668"><ele>517.0</ele><time>2026-05-03T10:44:32Z</time></trkpt><trkpt lat="40.88190475387356" lon="9.126398172875794"><ele>515.3333333333334</ele><time>2026-05-03T10:44:33Z</time></trkpt><trkpt lat="40.88205711069345" lon="9.126282644232585"><ele>513.6666666666666</ele><time>2026-05-03T10:44:34Z</time></trkpt><trkpt lat="40.882191831720064" lon="9.126144958174834"><ele>512.0</ele><time>2026-05-03T10:44:35Z</time></trkpt><trkpt lat="40.88231896289663" lon="9.125985187212104"><ele>512.0</ele><time>2026-05-03T10:44:36Z</time></trkpt><trkpt lat="40.88243444246225" lon="9.125854105543008"><ele>512.0</ele><time>2026-05-03T10:44:37Z</time></trkpt><trkpt lat="40.882546417451096" lon="9.12571959645405"><ele>512.0</ele><time>2026-05-03T10:44:38Z</time></trkpt><trkpt lat="40.88264614793493" lon="9.125602344188222"><ele>512.0</ele><time>2026-05-03T10:44:39Z</time></trkpt><trkpt lat="40.88273371060455" lon="9.12549827757292"><ele>513.5</ele><time>2026-05-03T10:44:40Z</time></trkpt><trkpt lat="40.882818694299694" lon="9.12539596366606"><ele>515.0</ele><time>2026-05-03T10:44:41Z</time></trkpt><trkpt lat="40.88290294313248" lon="9.125293598893181"><ele>516.5</ele><time>2026-05-03T10:44:42Z</time></trkpt><trkpt lat="40.882985463884076" lon="9.125192457002528"><ele>518.0</ele><time>2026-05-03T10:44:43Z</time></trkpt><trkpt lat="40.8830644770671" lon="9.125088865204726"><ele>518.0</ele><time>2026-05-03T10:44:44Z</time></trkpt><trkpt lat="40.88314883074926" lon="9.124989220748365"><ele>518.0</ele><time>2026-05-03T10:44:45Z</time></trkpt><trkpt lat="40.883238775728564" lon="9.124891003016053"><ele>518.0</ele><time>2026-05-03T10:44:46Z</time></trkpt><trkpt lat="40.8833345470343" lon="9.124799295961529"><ele>518.0</ele><time>2026-05-03T10:44:47Z</time></trkpt><trkpt lat="40.883437886464726" lon="9.124714008828162"><ele>519.25</ele><time>2026-05-03T10:44:48Z</time></trkpt><trkpt lat="40.88354749931997" lon="9.124636115042447"><ele>520.5</ele><time>2026-05-03T10:44:49Z</time></trkpt><trkpt lat="40.88366570499713" lon="9.124570216402878"><ele>521.75</ele><time>2026-05-03T10:44:50Z</time></trkpt><trkpt lat="40.88378831095891" lon="9.124517422667305"><ele>523.0</ele><time>2026-05-03T10:44:51Z</time></trkpt><trkpt lat="40.883918663354656" lon="9.124480105564011"><ele>523.0</ele><time>2026-05-03T10:44:52Z</time></trkpt><trkpt lat="40.88403930331396" lon="9.124445523856854"><ele>523.0</ele><time>2026-05-03T10:44:53Z</time></trkpt><trkpt lat="40.88414821129317" lon="9.124417983349169"><ele>523.0</ele><time>2026-05-03T10:44:54Z</time></trkpt><trkpt lat="40.884258531447536" lon="9.12439108684947"><ele>523.0</ele><time>2026-05-03T10:44:55Z</time></trkpt><trkpt lat="40.88437132759996" lon="9.124366740189595"><ele>523.25</ele><time>2026-05-03T10:44:56Z</time></trkpt><trkpt lat="40.884484909123344" lon="9.12434461950871"><ele>523.5</ele><time>2026-05-03T10:44:57Z</time></trkpt><trkpt lat="40.88459888421271" lon="9.124326113089612"><ele>523.75</ele><time>2026-05-03T10:44:58Z</time></trkpt><trkpt lat="40.884712615711145" lon="9.124304382181219"><ele>524.0</ele><time>2026-05-03T10:44:59Z</time></trkpt><trkpt lat="40.88482397827822" lon="9.124281413157947"><ele>524.0</ele><time>2026-05-03T10:45:00Z</time></trkpt><trkpt lat="40.88494366338114" lon="9.124261033914836"><ele>524.0</ele><time>2026-05-03T10:45:01Z</time></trkpt><trkpt lat="40.88506849292873" lon="9.124235769271218"><ele>524.0</ele><time>2026-05-03T10:45:02Z</time></trkpt><trkpt lat="40.885202174840984" lon="9.124210422839743"><ele>524.0</ele><time>2026-05-03T10:45:03Z</time></trkpt><trkpt lat="40.8853429260138" lon="9.124180370961872"><ele>525.0</ele><time>2026-05-03T10:45:04Z</time></trkpt><trkpt lat="40.88549067942107" lon="9.124138654023728"><ele>526.0</ele><time>2026-05-03T10:45:05Z</time></trkpt><trkpt lat="40.885643301465905" lon="9.124077674090818"><ele>527.0</ele><time>2026-05-03T10:45:06Z</time></trkpt><trkpt lat="40.885790093930744" lon="9.123997700278135"><ele>524.6666666666666</ele><time>2026-05-03T10:45:07Z</time></trkpt><trkpt lat="40.88593157746216" lon="9.123866765438674"><ele>522.3333333333334</ele><time>2026-05-03T10:45:08Z</time></trkpt><trkpt lat="40.88606055069901" lon="9.12373517589983"><ele>520.0</ele><time>2026-05-03T10:45:09Z</time></trkpt><trkpt lat="40.8861670292746" lon="9.123596134922833"><ele>520.0</ele><time>2026-05-03T10:45:10Z</time></trkpt><trkpt lat="40.88624764534353" lon="9.123445301975554"><ele>520.0</ele><time>2026-05-03T10:45:11Z</time></trkpt><trkpt lat="40.886283180568455" lon="9.123275766751354"><ele>520.0</ele><time>2026-05-03T10:45:12Z</time></trkpt><trkpt lat="40.88630063934155" lon="9.123096002989556"><ele>520.0</ele><time>2026-05-03T10:45:13Z</time></trkpt><trkpt lat="40.886279715704845" lon="9.122916369684145"><ele>518.75</ele><time>2026-05-03T10:45:14Z</time></trkpt><trkpt lat="40.88623261013539" lon="9.122758048740643"><ele>517.5</ele><time>2026-05-03T10:45:15Z</time></trkpt><trkpt lat="40.8861826213884" lon="9.122606281792123"><ele>516.25</ele><time>2026-05-03T10:45:16Z</time></trkpt><trkpt lat="40.8861468064603" lon="9.122462712889014"><ele>515.0</ele><time>2026-05-03T10:45:17Z</time></trkpt><trkpt lat="40.886141080955134" lon="9.12231839983959"><ele>514.5</ele><time>2026-05-03T10:45:18Z</time></trkpt><trkpt lat="40.88619047027618" lon="9.122186403068174"><ele>514.0</ele><time>2026-05-03T10:45:19Z</time></trkpt><trkpt lat="40.886279301966084" lon="9.122100174814566"><ele>513.5</ele><time>2026-05-03T10:45:20Z</time></trkpt><trkpt lat="40.886384412467486" lon="9.122025467437314"><ele>513.0</ele><time>2026-05-03T10:45:21Z</time></trkpt><trkpt lat="40.886485885292686" lon="9.121945809965224"><ele>513.0</ele><time>2026-05-03T10:45:22Z</time></trkpt><trkpt lat="40.886591910531266" lon="9.121858743733267"><ele>513.0</ele><time>2026-05-03T10:45:23Z</time></trkpt><trkpt lat="40.88669120211366" lon="9.121756252531254"><ele>513.0</ele><time>2026-05-03T10:45:24Z</time></trkpt><trkpt lat="40.88676485562247" lon="9.121609691327597"><ele>513.0</ele><time>2026-05-03T10:45:25Z</time></trkpt><trkpt lat="40.88682105455885" lon="9.12145163282383"><ele>511.75</ele><time>2026-05-03T10:45:26Z</time></trkpt><trkpt lat="40.88685113044092" lon="9.12129689138675"><ele>510.5</ele><time>2026-05-03T10:45:27Z</time></trkpt><trkpt lat="40.88685109974292" lon="9.12113732002874"><ele>509.25</ele><time>2026-05-03T10:45:28Z</time></trkpt><trkpt lat="40.88680969641552" lon="9.120993698723778"><ele>508.0</ele><time>2026-05-03T10:45:29Z</time></trkpt><trkpt lat="40.88673859393211" lon="9.120874357660279"><ele>508.0</ele><time>2026-05-03T10:45:30Z</time></trkpt><trkpt lat="40.88666975232128" lon="9.120743144436133"><ele>508.0</ele><time>2026-05-03T10:45:31Z</time></trkpt><trkpt lat="40.88657484386887" lon="9.120623789803041"><ele>508.0</ele><time>2026-05-03T10:45:32Z</time></trkpt><trkpt lat="40.88648195139844" lon="9.120499129351025"><ele>508.0</ele><time>2026-05-03T10:45:33Z</time></trkpt><trkpt lat="40.886402240143525" lon="9.120369585805552"><ele>506.5</ele><time>2026-05-03T10:45:34Z</time></trkpt><trkpt lat="40.88634395814457" lon="9.120234389874062"><ele>505.0</ele><time>2026-05-03T10:45:35Z</time></trkpt><trkpt lat="40.88630076215623" lon="9.120093244840561"><ele>503.5</ele><time>2026-05-03T10:45:36Z</time></trkpt><trkpt lat="40.88629790867641" lon="9.119941661198698"><ele>502.0</ele><time>2026-05-03T10:45:37Z</time></trkpt><trkpt lat="40.8863127577138" lon="9.119795825082045"><ele>502.0</ele><time>2026-05-03T10:45:38Z</time></trkpt><trkpt lat="40.88634335101617" lon="9.119647939851"><ele>502.0</ele><time>2026-05-03T10:45:39Z</time></trkpt><trkpt lat="40.8863724796006" lon="9.119503575012832"><ele>502.0</ele><time>2026-05-03T10:45:40Z</time></trkpt><trkpt lat="40.88640266625008" lon="9.119352805377684"><ele>502.0</ele><time>2026-05-03T10:45:41Z</time></trkpt><trkpt lat="40.886431202587254" lon="9.11919422385274"><ele>502.5</ele><time>2026-05-03T10:45:42Z</time></trkpt><trkpt lat="40.88645882645469" lon="9.119030580685221"><ele>503.0</ele><time>2026-05-03T10:45:43Z</time></trkpt><trkpt lat="40.88645732631403" lon="9.118864161796392"><ele>503.5</ele><time>2026-05-03T10:45:44Z</time></trkpt><trkpt lat="40.88642007589538" lon="9.118698084711236"><ele>504.0</ele><time>2026-05-03T10:45:45Z</time></trkpt><trkpt lat="40.886360062076506" lon="9.118540050691779"><ele>504.0</ele><time>2026-05-03T10:45:46Z</time></trkpt><trkpt lat="40.88628298119762" lon="9.118395001543593"><ele>504.0</ele><time>2026-05-03T10:45:47Z</time></trkpt><trkpt lat="40.88620122793924" lon="9.118253478719556"><ele>504.0</ele><time>2026-05-03T10:45:48Z</time></trkpt><trkpt lat="40.88613366349206" lon="9.11811468365875"><ele>504.0</ele><time>2026-05-03T10:45:49Z</time></trkpt><trkpt lat="40.886098361180615" lon="9.117962564676308"><ele>504.25</ele><time>2026-05-03T10:45:50Z</time></trkpt><trkpt lat="40.886103155434164" lon="9.11780345553718"><ele>504.5</ele><time>2026-05-03T10:45:51Z</time></trkpt><trkpt lat="40.88613285116548" lon="9.117642488589874"><ele>504.75</ele><time>2026-05-03T10:45:52Z</time></trkpt><trkpt lat="40.886168857673056" lon="9.117473415700864"><ele>505.0</ele><time>2026-05-03T10:45:53Z</time></trkpt><trkpt lat="40.88621264360311" lon="9.117287327055886"><ele>506.0</ele><time>2026-05-03T10:45:54Z</time></trkpt><trkpt lat="40.88626249069887" lon="9.117095125667296"><ele>507.0</ele><time>2026-05-03T10:45:55Z</time></trkpt><trkpt lat="40.88631819255324" lon="9.11689174509785"><ele>508.0</ele><time>2026-05-03T10:45:56Z</time></trkpt><trkpt lat="40.88637829448625" lon="9.116681165016551"><ele>509.6666666666667</ele><time>2026-05-03T10:45:57Z</time></trkpt><trkpt lat="40.88644418740145" lon="9.116469648985749"><ele>511.33333333333337</ele><time>2026-05-03T10:45:58Z</time></trkpt><trkpt lat="40.886454586494175" lon="9.116255479238404"><ele>513.0</ele><time>2026-05-03T10:45:59Z</time></trkpt><trkpt lat="40.88649677102523" lon="9.11604211379246"><ele>513.0</ele><time>2026-05-03T10:46:00Z</time></trkpt><trkpt lat="40.886540726693596" lon="9.11583786780534"><ele>513.0</ele><time>2026-05-03T10:46:01Z</time></trkpt><trkpt lat="40.886580987642155" lon="9.115641907887692"><ele>513.0</ele><time>2026-05-03T10:46:02Z</time></trkpt><trkpt lat="40.88661866752178" lon="9.115457025570437"><ele>513.75</ele><time>2026-05-03T10:46:03Z</time></trkpt><trkpt lat="40.886657382741845" lon="9.115273525228336"><ele>514.5</ele><time>2026-05-03T10:46:04Z</time></trkpt><trkpt lat="40.886699357557035" lon="9.11509215337742"><ele>515.25</ele><time>2026-05-03T10:46:05Z</time></trkpt><trkpt lat="40.88674516469455" lon="9.114910280453005"><ele>516.0</ele><time>2026-05-03T10:46:06Z</time></trkpt><trkpt lat="40.88680185092919" lon="9.114724018631815"><ele>518.3333333333334</ele><time>2026-05-03T10:46:07Z</time></trkpt><trkpt lat="40.886876564985656" lon="9.114539605752125"><ele>520.6666666666667</ele><time>2026-05-03T10:46:08Z</time></trkpt><trkpt lat="40.886963506234046" lon="9.11435873278602"><ele>523.0</ele><time>2026-05-03T10:46:09Z</time></trkpt><trkpt lat="40.88705379580679" lon="9.11418458752825"><ele>523.0</ele><time>2026-05-03T10:46:10Z</time></trkpt><trkpt lat="40.88714178077894" lon="9.114032677727181"><ele>523.0</ele><time>2026-05-03T10:46:11Z</time></trkpt><trkpt lat="40.88721994392527" lon="9.113879530758615"><ele>523.0</ele><time>2026-05-03T10:46:12Z</time></trkpt><trkpt lat="40.88731948577849" lon="9.113729438734666"><ele>523.0</ele><time>2026-05-03T10:46:13Z</time></trkpt><trkpt lat="40.88740792115093" lon="9.113575982795801"><ele>523.0</ele><time>2026-05-03T10:46:14Z</time></trkpt><trkpt lat="40.88749723700841" lon="9.113414710996693"><ele>523.0</ele><time>2026-05-03T10:46:15Z</time></trkpt><trkpt lat="40.887578257898156" lon="9.113243606770626"><ele>523.0</ele><time>2026-05-03T10:46:16Z</time></trkpt><trkpt lat="40.88764786867195" lon="9.113061293028846"><ele>522.3333333333334</ele><time>2026-05-03T10:46:17Z</time></trkpt><trkpt lat="40.88770775207746" lon="9.112865423551911"><ele>521.6666666666666</ele><time>2026-05-03T10:46:18Z</time></trkpt><trkpt lat="40.88775850210164" lon="9.112663585598515"><ele>521.0</ele><time>2026-05-03T10:46:19Z</time></trkpt><trkpt lat="40.887807183995726" lon="9.112459184420349"><ele>521.3333333333333</ele><time>2026-05-03T10:46:20Z</time></trkpt><trkpt lat="40.88785007500457" lon="9.112252350130467"><ele>521.6666666666666</ele><time>2026-05-03T10:46:21Z</time></trkpt><trkpt lat="40.88787903056523" lon="9.112050654533501"><ele>522.0</ele><time>2026-05-03T10:46:22Z</time></trkpt><trkpt lat="40.88789221709912" lon="9.111868194822048"><ele>522.0</ele><time>2026-05-03T10:46:23Z</time></trkpt><trkpt lat="40.887885574724486" lon="9.111693631787803"><ele>522.0</ele><time>2026-05-03T10:46:24Z</time></trkpt><trkpt lat="40.88779180891182" lon="9.111449315901567"><ele>522.0</ele><time>2026-05-03T10:46:25Z</time></trkpt><trkpt lat="40.88774084917946" lon="9.111243474851173"><ele>522.0</ele><time>2026-05-03T10:46:26Z</time></trkpt><trkpt lat="40.88767417574086" lon="9.111037836355592"><ele>522.0</ele><time>2026-05-03T10:46:27Z</time></trkpt><trkpt lat="40.88760855232919" lon="9.110832827109528"><ele>522.0</ele><time>2026-05-03T10:46:28Z</time></trkpt><trkpt lat="40.88754951622248" lon="9.110621110181665"><ele>523.3333333333334</ele><time>2026-05-03T10:46:29Z</time></trkpt><trkpt lat="40.887489098705935" lon="9.110406723535315"><ele>524.6666666666667</ele><time>2026-05-03T10:46:30Z</time></trkpt><trkpt lat="40.88742675134614" lon="9.110189930659272"><ele>526.0</ele><time>2026-05-03T10:46:31Z</time></trkpt><trkpt lat="40.88736311260746" lon="9.109970280720319"><ele>525.3333333333334</ele><time>2026-05-03T10:46:32Z</time></trkpt><trkpt lat="40.88730197096131" lon="9.109748614236711"><ele>524.6666666666666</ele><time>2026-05-03T10:46:33Z</time></trkpt><trkpt lat="40.887243394310275" lon="9.109528663164344"><ele>524.0</ele><time>2026-05-03T10:46:34Z</time></trkpt><trkpt lat="40.8871834246984" lon="9.10931287639881"><ele>524.0</ele><time>2026-05-03T10:46:35Z</time></trkpt><trkpt lat="40.88712634864823" lon="9.109097184756346"><ele>524.0</ele><time>2026-05-03T10:46:36Z</time></trkpt><trkpt lat="40.887066447313636" lon="9.108885286270777"><ele>524.0</ele><time>2026-05-03T10:46:37Z</time></trkpt><trkpt lat="40.887010738312696" lon="9.108683866733"><ele>523.75</ele><time>2026-05-03T10:46:38Z</time></trkpt><trkpt lat="40.88695987171506" lon="9.108501677152471"><ele>523.5</ele><time>2026-05-03T10:46:39Z</time></trkpt><trkpt lat="40.886914616765374" lon="9.10832976411228"><ele>523.25</ele><time>2026-05-03T10:46:40Z</time></trkpt><trkpt lat="40.886870040860074" lon="9.108159550872925"><ele>523.0</ele><time>2026-05-03T10:46:41Z</time></trkpt><trkpt lat="40.88681913688366" lon="9.107985758007914"><ele>523.0</ele><time>2026-05-03T10:46:42Z</time></trkpt><trkpt lat="40.88676960901925" lon="9.107806470364238"><ele>523.0</ele><time>2026-05-03T10:46:43Z</time></trkpt><trkpt lat="40.88671853174061" lon="9.107625325499859"><ele>523.0</ele><time>2026-05-03T10:46:44Z</time></trkpt><trkpt lat="40.88667499052829" lon="9.1074478016586"><ele>523.0</ele><time>2026-05-03T10:46:45Z</time></trkpt><trkpt lat="40.886640540174376" lon="9.107272204749924"><ele>523.25</ele><time>2026-05-03T10:46:46Z</time></trkpt><trkpt lat="40.88664222176341" lon="9.107084680415527"><ele>523.5</ele><time>2026-05-03T10:46:47Z</time></trkpt><trkpt lat="40.88668331466345" lon="9.106909630513922"><ele>523.75</ele><time>2026-05-03T10:46:48Z</time></trkpt><trkpt lat="40.886753910404195" lon="9.106758896567877"><ele>524.0</ele><time>2026-05-03T10:46:49Z</time></trkpt><trkpt lat="40.886861059244445" lon="9.10664261172628"><ele>525.5</ele><time>2026-05-03T10:46:50Z</time></trkpt><trkpt lat="40.88698186704472" lon="9.10654681432308"><ele>527.0</ele><time>2026-05-03T10:46:51Z</time></trkpt><trkpt lat="40.88711083696375" lon="9.106473902402628"><ele>528.5</ele><time>2026-05-03T10:46:52Z</time></trkpt><trkpt lat="40.887248799257826" lon="9.106424312812143"><ele>530.0</ele><time>2026-05-03T10:46:53Z</time></trkpt><trkpt lat="40.88739351760195" lon="9.106397184207374"><ele>530.0</ele><time>2026-05-03T10:46:54Z</time></trkpt><trkpt lat="40.88754236800514" lon="9.106384851440483"><ele>530.0</ele><time>2026-05-03T10:46:55Z</time></trkpt><trkpt lat="40.8876945310273" lon="9.106387842428148"><ele>530.0</ele><time>2026-05-03T10:46:56Z</time></trkpt><trkpt lat="40.88785053565469" lon="9.106389729060444"><ele>529.3333333333333</ele><time>2026-05-03T10:46:57Z</time></trkpt><trkpt lat="40.88800961971284" lon="9.106390147871698"><ele>528.6666666666666</ele><time>2026-05-03T10:46:58Z</time></trkpt><trkpt lat="40.88817120706655" lon="9.106387115095472"><ele>528.0</ele><time>2026-05-03T10:46:59Z</time></trkpt><trkpt lat="40.88833713000696" lon="9.106385998464523"><ele>527.6666666666666</ele><time>2026-05-03T10:47:00Z</time></trkpt><trkpt lat="40.8884964425656" lon="9.106387856009638"><ele>527.3333333333333</ele><time>2026-05-03T10:47:01Z</time></trkpt><trkpt lat="40.8886471459945" lon="9.106378830194386"><ele>527.0</ele><time>2026-05-03T10:47:02Z</time></trkpt><trkpt lat="40.88879421914303" lon="9.106316897680031"><ele>527.0</ele><time>2026-05-03T10:47:03Z</time></trkpt><trkpt lat="40.888921348637986" lon="9.106207901479639"><ele>527.0</ele><time>2026-05-03T10:47:04Z</time></trkpt><trkpt lat="40.889016155546706" lon="9.106059174189093"><ele>527.0</ele><time>2026-05-03T10:47:05Z</time></trkpt><trkpt lat="40.88908537625036" lon="9.105882991107991"><ele>527.0</ele><time>2026-05-03T10:47:06Z</time></trkpt><trkpt lat="40.88914671034657" lon="9.105685087159117"><ele>527.6666666666666</ele><time>2026-05-03T10:47:07Z</time></trkpt><trkpt lat="40.88921848619559" lon="9.105468355401415"><ele>528.3333333333334</ele><time>2026-05-03T10:47:08Z</time></trkpt><trkpt lat="40.88931006579212" lon="9.105257271062152"><ele>529.0</ele><time>2026-05-03T10:47:09Z</time></trkpt><trkpt lat="40.88942494546698" lon="9.10506190304696"><ele>528.0</ele><time>2026-05-03T10:47:10Z</time></trkpt><trkpt lat="40.8895745489706" lon="9.104884177998152"><ele>527.0</ele><time>2026-05-03T10:47:11Z</time></trkpt><trkpt lat="40.88975209026677" lon="9.104727294549305"><ele>526.0</ele><time>2026-05-03T10:47:12Z</time></trkpt><trkpt lat="40.88992345129556" lon="9.104595781269383"><ele>526.0</ele><time>2026-05-03T10:47:13Z</time></trkpt><trkpt lat="40.89008329619368" lon="9.104467073519444"><ele>526.0</ele><time>2026-05-03T10:47:14Z</time></trkpt><trkpt lat="40.890234164831554" lon="9.104344466398189"><ele>526.0</ele><time>2026-05-03T10:47:15Z</time></trkpt><trkpt lat="40.890376439149485" lon="9.104244873331046"><ele>524.3333333333334</ele><time>2026-05-03T10:47:16Z</time></trkpt><trkpt lat="40.8905160359945" lon="9.104176234114625"><ele>522.6666666666666</ele><time>2026-05-03T10:47:17Z</time></trkpt><trkpt lat="40.89066893865838" lon="9.104167168014481"><ele>521.0</ele><time>2026-05-03T10:47:18Z</time></trkpt><trkpt lat="40.89083946861478" lon="9.104202630578179"><ele>521.6666666666666</ele><time>2026-05-03T10:47:19Z</time></trkpt><trkpt lat="40.891024484877754" lon="9.104268236054155"><ele>522.3333333333334</ele><time>2026-05-03T10:47:20Z</time></trkpt><trkpt lat="40.89119408540326" lon="9.104335675023554"><ele>523.0</ele><time>2026-05-03T10:47:21Z</time></trkpt><trkpt lat="40.89135145238901" lon="9.104384503581661"><ele>523.0</ele><time>2026-05-03T10:47:22Z</time></trkpt><trkpt lat="40.89150108704933" lon="9.104391895512626"><ele>523.0</ele><time>2026-05-03T10:47:23Z</time></trkpt><trkpt lat="40.89163302524685" lon="9.104339853041731"><ele>523.0</ele><time>2026-05-03T10:47:24Z</time></trkpt><trkpt lat="40.891728042705346" lon="9.104236392872304"><ele>523.0</ele><time>2026-05-03T10:47:25Z</time></trkpt><trkpt lat="40.891804539011055" lon="9.10410034545726"><ele>523.25</ele><time>2026-05-03T10:47:26Z</time></trkpt><trkpt lat="40.89187296598327" lon="9.103952206100232"><ele>523.5</ele><time>2026-05-03T10:47:27Z</time></trkpt><trkpt lat="40.89194784264993" lon="9.10379892796274"><ele>523.75</ele><time>2026-05-03T10:47:28Z</time></trkpt><trkpt lat="40.89201815935428" lon="9.103663266696907"><ele>524.0</ele><time>2026-05-03T10:47:29Z</time></trkpt><trkpt lat="40.89209263713591" lon="9.103535613579991"><ele>524.0</ele><time>2026-05-03T10:47:30Z</time></trkpt><trkpt lat="40.892185258051015" lon="9.103425252484088"><ele>524.0</ele><time>2026-05-03T10:47:31Z</time></trkpt><trkpt lat="40.89229651509716" lon="9.103350157273246"><ele>524.0</ele><time>2026-05-03T10:47:32Z</time></trkpt><trkpt lat="40.89240990620803" lon="9.103304043056157"><ele>524.0</ele><time>2026-05-03T10:47:33Z</time></trkpt><trkpt lat="40.8925335544488" lon="9.1032847516746"><ele>524.5</ele><time>2026-05-03T10:47:34Z</time></trkpt><trkpt lat="40.89266694188013" lon="9.103277161743796"><ele>525.0</ele><time>2026-05-03T10:47:35Z</time></trkpt><trkpt lat="40.8928100675728" lon="9.10327865032075"><ele>525.5</ele><time>2026-05-03T10:47:36Z</time></trkpt><trkpt lat="40.89296130599837" lon="9.103283093296005"><ele>526.0</ele><time>2026-05-03T10:47:37Z</time></trkpt><trkpt lat="40.893113184746575" lon="9.103286692414427"><ele>526.0</ele><time>2026-05-03T10:47:38Z</time></trkpt><trkpt lat="40.893266075260435" lon="9.103283750190046"><ele>526.0</ele><time>2026-05-03T10:47:39Z</time></trkpt><trkpt lat="40.89341952896382" lon="9.103276763164503"><ele>526.0</ele><time>2026-05-03T10:47:40Z</time></trkpt><trkpt lat="40.89357526209511" lon="9.103276278767819"><ele>525.3333333333334</ele><time>2026-05-03T10:47:41Z</time></trkpt><trkpt lat="40.89373313806558" lon="9.103273467522532"><ele>524.6666666666666</ele><time>2026-05-03T10:47:42Z</time></trkpt><trkpt lat="40.893890081898896" lon="9.103268697182965"><ele>524.0</ele><time>2026-05-03T10:47:43Z</time></trkpt><trkpt lat="40.89404714828415" lon="9.103258730608712"><ele>524.0</ele><time>2026-05-03T10:47:44Z</time></trkpt><trkpt lat="40.89420519894311" lon="9.103250138659698"><ele>524.0</ele><time>2026-05-03T10:47:45Z</time></trkpt><trkpt lat="40.89436345180759" lon="9.103248557485191"><ele>524.0</ele><time>2026-05-03T10:47:46Z</time></trkpt><trkpt lat="40.89451972747741" lon="9.103253599438396"><ele>525.25</ele><time>2026-05-03T10:47:47Z</time></trkpt><trkpt lat="40.89465966536987" lon="9.103273662283717"><ele>526.5</ele><time>2026-05-03T10:47:48Z</time></trkpt><trkpt lat="40.894777596667026" lon="9.103334900618986"><ele>527.75</ele><time>2026-05-03T10:47:49Z</time></trkpt><trkpt lat="40.89486628659995" lon="9.103447696175008"><ele>529.0</ele><time>2026-05-03T10:47:50Z</time></trkpt><trkpt lat="40.894936530153934" lon="9.103604219456761"><ele>529.0</ele><time>2026-05-03T10:47:51Z</time></trkpt><trkpt lat="40.89498868893454" lon="9.103768359106866"><ele>529.0</ele><time>2026-05-03T10:47:52Z</time></trkpt><trkpt lat="40.895041923982596" lon="9.103946497113268"><ele>529.0</ele><time>2026-05-03T10:47:53Z</time></trkpt><trkpt lat="40.895089322466504" lon="9.104128009990863"><ele>529.0</ele><time>2026-05-03T10:47:54Z</time></trkpt><trkpt lat="40.89511156307114" lon="9.10430415723394"><ele>533.0</ele><time>2026-05-03T10:47:55Z</time></trkpt><trkpt lat="40.8951255635516" lon="9.104460596583042"><ele>537.0</ele><time>2026-05-03T10:47:56Z</time></trkpt><trkpt lat="40.89515206787149" lon="9.104604284937203"><ele>541.0</ele><time>2026-05-03T10:47:57Z</time></trkpt><trkpt lat="40.89522199760597" lon="9.104748126237405"><ele>545.0</ele><time>2026-05-03T10:47:58Z</time></trkpt><trkpt lat="40.895314705166754" lon="9.104879287585904"><ele>544.25</ele><time>2026-05-03T10:47:59Z</time></trkpt><trkpt lat="40.89541574001337" lon="9.10499202629001"><ele>543.5</ele><time>2026-05-03T10:48:00Z</time></trkpt><trkpt lat="40.89551737935065" lon="9.1050941304939"><ele>542.75</ele><time>2026-05-03T10:48:01Z</time></trkpt><trkpt lat="40.89560755442271" lon="9.105205104615505"><ele>542.0</ele><time>2026-05-03T10:48:02Z</time></trkpt><trkpt lat="40.89568377739665" lon="9.105323776575958"><ele>542.0</ele><time>2026-05-03T10:48:03Z</time></trkpt><trkpt lat="40.895731293575714" lon="9.105441587384572"><ele>542.0</ele><time>2026-05-03T10:48:04Z</time></trkpt><trkpt lat="40.89574082076569" lon="9.105576945630476"><ele>542.0</ele><time>2026-05-03T10:48:05Z</time></trkpt><trkpt lat="40.89572993888279" lon="9.105729709937"><ele>542.0</ele><time>2026-05-03T10:48:06Z</time></trkpt><trkpt lat="40.89574215648868" lon="9.105879602670441"><ele>542.0</ele><time>2026-05-03T10:48:07Z</time></trkpt><trkpt lat="40.8957364854627" lon="9.106002254260419"><ele>542.0</ele><time>2026-05-03T10:48:08Z</time></trkpt><trkpt lat="40.89553161066087" lon="9.10585075722707"><ele>542.0</ele><time>2026-05-03T10:48:09Z</time></trkpt><trkpt lat="40.89543932153811" lon="9.105834210513542"><ele>542.0</ele><time>2026-05-03T10:48:10Z</time></trkpt><trkpt lat="40.89535707160304" lon="9.105771596516231"><ele>542.0</ele><time>2026-05-03T10:48:11Z</time></trkpt><trkpt lat="40.8952577760205" lon="9.105705692241067"><ele>542.0</ele><time>2026-05-03T10:48:12Z</time></trkpt><trkpt lat="40.89515801197144" lon="9.105652168024232"><ele>542.0</ele><time>2026-05-03T10:48:13Z</time></trkpt><trkpt lat="40.895048367222856" lon="9.105657328898538"><ele>542.0</ele><time>2026-05-03T10:48:14Z</time></trkpt><trkpt lat="40.89494940555324" lon="9.105754496620957"><ele>542.0</ele><time>2026-05-03T10:48:15Z</time></trkpt><trkpt lat="40.894888376178685" lon="9.105866834883697"><ele>542.0</ele><time>2026-05-03T10:48:16Z</time></trkpt><trkpt lat="40.89487483046544" lon="9.105985400722545"><ele>541.5</ele><time>2026-05-03T10:48:17Z</time></trkpt><trkpt lat="40.894912145750595" lon="9.106100079615121"><ele>541.0</ele><time>2026-05-03T10:48:18Z</time></trkpt><trkpt lat="40.894992556776295" lon="9.106197220501784"><ele>540.5</ele><time>2026-05-03T10:48:19Z</time></trkpt><trkpt lat="40.89512179969567" lon="9.10628897615018"><ele>540.0</ele><time>2026-05-03T10:48:20Z</time></trkpt><trkpt lat="40.895297512946286" lon="9.106388037639338"><ele>540.0</ele><time>2026-05-03T10:48:21Z</time></trkpt><trkpt lat="40.89545412773807" lon="9.106466435879232"><ele>540.0</ele><time>2026-05-03T10:48:22Z</time></trkpt><trkpt lat="40.89558791469421" lon="9.10650483665526"><ele>540.0</ele><time>2026-05-03T10:48:23Z</time></trkpt><trkpt lat="40.89571130617087" lon="9.10651884778793"><ele>540.0</ele><time>2026-05-03T10:48:24Z</time></trkpt><trkpt lat="40.89583427163992" lon="9.106508335058205"><ele>542.0</ele><time>2026-05-03T10:48:25Z</time></trkpt><trkpt lat="40.89597255429711" lon="9.106455099704657"><ele>544.0</ele><time>2026-05-03T10:48:26Z</time></trkpt><trkpt lat="40.89612029631252" lon="9.106393465752614"><ele>546.0</ele><time>2026-05-03T10:48:27Z</time></trkpt><trkpt lat="40.89627417123078" lon="9.10633097569575"><ele>546.0</ele><time>2026-05-03T10:48:28Z</time></trkpt><trkpt lat="40.89642728387992" lon="9.106264478435552"><ele>546.0</ele><time>2026-05-03T10:48:29Z</time></trkpt><trkpt lat="40.89657191091776" lon="9.106179559799708"><ele>546.0</ele><time>2026-05-03T10:48:30Z</time></trkpt><trkpt lat="40.89680145360977" lon="9.105959195748817"><ele>546.0</ele><time>2026-05-03T10:48:32Z</time></trkpt><trkpt lat="40.896871405215784" lon="9.105853674027417"><ele>546.0</ele><time>2026-05-03T10:48:33Z</time></trkpt><trkpt lat="40.89691708367731" lon="9.105731343449385"><ele>546.0</ele><time>2026-05-03T10:48:34Z</time></trkpt><trkpt lat="40.89689749068244" lon="9.105566554507998"><ele>546.0</ele><time>2026-05-03T10:48:35Z</time></trkpt><trkpt lat="40.896807792166875" lon="9.105421711678396"><ele>547.0</ele><time>2026-05-03T10:48:36Z</time></trkpt><trkpt lat="40.89667797259699" lon="9.105336321926018"><ele>548.0</ele><time>2026-05-03T10:48:37Z</time></trkpt><trkpt lat="40.89657218562238" lon="9.105260868111609"><ele>549.0</ele><time>2026-05-03T10:48:38Z</time></trkpt><trkpt lat="40.896483469986" lon="9.10518567669916"><ele>550.0</ele><time>2026-05-03T10:48:39Z</time></trkpt><trkpt lat="40.896414545970906" lon="9.105100989170367"><ele>550.0</ele><time>2026-05-03T10:48:40Z</time></trkpt><trkpt lat="40.89638877046902" lon="9.104996918013052"><ele>550.0</ele><time>2026-05-03T10:48:41Z</time></trkpt><trkpt lat="40.89639107551457" lon="9.104886845012231"><ele>550.0</ele><time>2026-05-03T10:48:42Z</time></trkpt><trkpt lat="40.896427502881714" lon="9.104784797924161"><ele>550.0</ele><time>2026-05-03T10:48:43Z</time></trkpt><trkpt lat="40.896486269817224" lon="9.104722051960703"><ele>550.0</ele><time>2026-05-03T10:48:44Z</time></trkpt><trkpt lat="40.896565644717" lon="9.104682975038513"><ele>550.0</ele><time>2026-05-03T10:48:45Z</time></trkpt><trkpt lat="40.896660993733384" lon="9.104690087241208"><ele>552.25</ele><time>2026-05-03T10:48:46Z</time></trkpt><trkpt lat="40.896785716450616" lon="9.104683344842579"><ele>554.5</ele><time>2026-05-03T10:48:47Z</time></trkpt><trkpt lat="40.89692805768908" lon="9.104712926255973"><ele>556.75</ele><time>2026-05-03T10:48:48Z</time></trkpt><trkpt lat="40.897073956923506" lon="9.10475333997879"><ele>559.0</ele><time>2026-05-03T10:48:49Z</time></trkpt><trkpt lat="40.897189641702724" lon="9.104795355674185"><ele>559.0</ele><time>2026-05-03T10:48:50Z</time></trkpt><trkpt lat="40.89729748177499" lon="9.104806952153908"><ele>559.0</ele><time>2026-05-03T10:48:51Z</time></trkpt><trkpt lat="40.89740149929195" lon="9.104735157556835"><ele>559.0</ele><time>2026-05-03T10:48:52Z</time></trkpt><trkpt lat="40.89747839794322" lon="9.104615886867544"><ele>559.0</ele><time>2026-05-03T10:48:53Z</time></trkpt><trkpt lat="40.89753229019565" lon="9.10447547271932"><ele>558.25</ele><time>2026-05-03T10:48:54Z</time></trkpt><trkpt lat="40.897596878413665" lon="9.104315456043553"><ele>557.5</ele><time>2026-05-03T10:48:55Z</time></trkpt><trkpt lat="40.89767616153932" lon="9.104150527059884"><ele>556.75</ele><time>2026-05-03T10:48:56Z</time></trkpt><trkpt lat="40.89775803718467" lon="9.103998325729599"><ele>556.0</ele><time>2026-05-03T10:48:57Z</time></trkpt><trkpt lat="40.897856925960845" lon="9.103887507001852"><ele>558.0</ele><time>2026-05-03T10:48:58Z</time></trkpt><trkpt lat="40.89797741775222" lon="9.103788346601606"><ele>560.0</ele><time>2026-05-03T10:48:59Z</time></trkpt><trkpt lat="40.89811401650073" lon="9.103707325929252"><ele>562.0</ele><time>2026-05-03T10:49:00Z</time></trkpt><trkpt lat="40.898256270214304" lon="9.103640464535045"><ele>564.0</ele><time>2026-05-03T10:49:01Z</time></trkpt><trkpt lat="40.89839633520467" lon="9.103581154933384"><ele>563.75</ele><time>2026-05-03T10:49:02Z</time></trkpt><trkpt lat="40.898543183528595" lon="9.103523116174141"><ele>563.5</ele><time>2026-05-03T10:49:03Z</time></trkpt><trkpt lat="40.898689010972646" lon="9.10346156189631"><ele>563.25</ele><time>2026-05-03T10:49:04Z</time></trkpt><trkpt lat="40.89881950628059" lon="9.103402968876823"><ele>563.0</ele><time>2026-05-03T10:49:05Z</time></trkpt><trkpt lat="40.89893682844829" lon="9.103350788886392"><ele>563.0</ele><time>2026-05-03T10:49:06Z</time></trkpt><trkpt lat="40.89904456612435" lon="9.103318909070223"><ele>563.0</ele><time>2026-05-03T10:49:07Z</time></trkpt><trkpt lat="40.8991256790997" lon="9.103309037016311"><ele>563.0</ele><time>2026-05-03T10:49:08Z</time></trkpt><trkpt lat="40.89919137106516" lon="9.103308988925876"><ele>563.0</ele><time>2026-05-03T10:49:09Z</time></trkpt><trkpt lat="40.899272239199306" lon="9.103341554149129"><ele>563.0</ele><time>2026-05-03T10:49:11Z</time></trkpt><trkpt lat="40.89947765635866" lon="9.103228137699"><ele>565.3333333333333</ele><time>2026-05-03T10:49:14Z</time></trkpt><trkpt lat="40.89954939141455" lon="9.103164479522873"><ele>567.6666666666666</ele><time>2026-05-03T10:49:15Z</time></trkpt><trkpt lat="40.89962252716747" lon="9.103102808633793"><ele>570.0</ele><time>2026-05-03T10:49:16Z</time></trkpt><trkpt lat="40.89967412896986" lon="9.103020094042249"><ele>572.3333333333334</ele><time>2026-05-03T10:49:17Z</time></trkpt><trkpt lat="40.89970893441754" lon="9.102932155228412"><ele>574.6666666666667</ele><time>2026-05-03T10:49:18Z</time></trkpt><trkpt lat="40.89973709890548" lon="9.102849316401144"><ele>577.0</ele><time>2026-05-03T10:49:19Z</time></trkpt><trkpt lat="40.89976552830019" lon="9.102767288716123"><ele>577.0</ele><time>2026-05-03T10:49:20Z</time></trkpt><trkpt lat="40.89979805063533" lon="9.102674391298963"><ele>577.0</ele><time>2026-05-03T10:49:21Z</time></trkpt><trkpt lat="40.89982548586194" lon="9.102571237207522"><ele>577.0</ele><time>2026-05-03T10:49:22Z</time></trkpt><trkpt lat="40.899844705075736" lon="9.102463190457216"><ele>577.0</ele><time>2026-05-03T10:49:23Z</time></trkpt><trkpt lat="40.89988709695881" lon="9.1022473078705"><ele>577.0</ele><time>2026-05-03T10:49:25Z</time></trkpt><trkpt lat="40.899905087358995" lon="9.102149578668877"><ele>577.1666666666667</ele><time>2026-05-03T10:49:26Z</time></trkpt><trkpt lat="40.89992668588924" lon="9.102067091834021"><ele>577.3333333333334</ele><time>2026-05-03T10:49:27Z</time></trkpt><trkpt lat="40.89997311109521" lon="9.101921833296705"><ele>577.5</ele><time>2026-05-03T10:49:29Z</time></trkpt><trkpt lat="40.90000376609089" lon="9.101818305172642"><ele>577.6666666666666</ele><time>2026-05-03T10:49:31Z</time></trkpt><trkpt lat="40.900031231329756" lon="9.101731282283435"><ele>577.8333333333333</ele><time>2026-05-03T10:49:33Z</time></trkpt><trkpt lat="40.90006696275045" lon="9.101612075607347"><ele>578.0</ele><time>2026-05-03T10:49:35Z</time></trkpt><trkpt lat="40.90011290824905" lon="9.101495443580804"><ele>575.0</ele><time>2026-05-03T10:49:37Z</time></trkpt><trkpt lat="40.900152967023885" lon="9.101408283716044"><ele>572.0</ele><time>2026-05-03T10:49:39Z</time></trkpt><trkpt lat="40.90024114888412" lon="9.101347818050028"><ele>569.0</ele><time>2026-05-03T10:49:42Z</time></trkpt><trkpt lat="40.90034747057051" lon="9.101401506104974"><ele>566.0</ele><time>2026-05-03T10:49:44Z</time></trkpt><trkpt lat="40.90042015962446" lon="9.101441640336558"><ele>563.0</ele><time>2026-05-03T10:49:45Z</time></trkpt><trkpt lat="40.90049624800252" lon="9.101486558328283"><ele>563.0</ele><time>2026-05-03T10:49:46Z</time></trkpt><trkpt lat="40.900570263134355" lon="9.101528290942179"><ele>563.0</ele><time>2026-05-03T10:49:47Z</time></trkpt><trkpt lat="40.90063615899415" lon="9.101570563819338"><ele>563.0</ele><time>2026-05-03T10:49:48Z</time></trkpt><trkpt lat="40.90069771917909" lon="9.10161361172758"><ele>563.0</ele><time>2026-05-03T10:49:49Z</time></trkpt><trkpt lat="40.90075882822189" lon="9.1016578030505"><ele>563.0</ele><time>2026-05-03T10:49:50Z</time></trkpt><trkpt lat="40.900817675138924" lon="9.10169375996278"><ele>563.0</ele><time>2026-05-03T10:49:51Z</time></trkpt><trkpt lat="40.90092747245916" lon="9.10176313732051"><ele>563.8333333333333</ele><time>2026-05-03T10:49:53Z</time></trkpt><trkpt lat="40.90102110699832" lon="9.101844918144149"><ele>564.6666666666666</ele><time>2026-05-03T10:49:55Z</time></trkpt><trkpt lat="40.9010743000676" lon="9.101921345439356"><ele>565.5</ele><time>2026-05-03T10:49:57Z</time></trkpt><trkpt lat="40.90112409510635" lon="9.101991907518318"><ele>566.3333333333334</ele><time>2026-05-03T10:50:01Z</time></trkpt><trkpt lat="40.90117665472445" lon="9.102044111838978"><ele>567.1666666666667</ele><time>2026-05-03T10:50:04Z</time></trkpt><trkpt lat="40.901218361011274" lon="9.102108394233179"><ele>568.0</ele><time>2026-05-03T10:50:08Z</time></trkpt><trkpt lat="40.90128341983921" lon="9.102079310827312"><ele>568.0</ele><time>2026-05-03T10:50:13Z</time></trkpt><trkpt lat="40.901351137369204" lon="9.102053264893359"><ele>568.0</ele><time>2026-05-03T10:50:16Z</time></trkpt><trkpt lat="40.90137202032038" lon="9.101865819141612"><ele>568.0</ele><time>2026-05-03T10:50:17Z</time></trkpt><trkpt lat="40.90140845770292" lon="9.10174752259602"><ele>568.0</ele><time>2026-05-03T10:50:19Z</time></trkpt><trkpt lat="40.90145905099489" lon="9.101627544949846"><ele>568.0</ele><time>2026-05-03T10:50:21Z</time></trkpt><trkpt lat="40.90157082522323" lon="9.101549331456642"><ele>566.0</ele><time>2026-05-03T10:50:23Z</time></trkpt><trkpt lat="40.90163456529886" lon="9.10153216959689"><ele>564.0</ele><time>2026-05-03T10:50:24Z</time></trkpt><trkpt lat="40.90170337289774" lon="9.101527011290164"><ele>562.0</ele><time>2026-05-03T10:50:25Z</time></trkpt><trkpt lat="40.901768763791544" lon="9.101524395332737"><ele>560.0</ele><time>2026-05-03T10:50:26Z</time></trkpt><trkpt lat="40.90183322006768" lon="9.101524882192345"><ele>558.0</ele><time>2026-05-03T10:50:27Z</time></trkpt><trkpt lat="40.90189629388713" lon="9.101528517112493"><ele>556.0</ele><time>2026-05-03T10:50:28Z</time></trkpt><trkpt lat="40.90195978067382" lon="9.101533259297707"><ele>554.0</ele><time>2026-05-03T10:50:29Z</time></trkpt><trkpt lat="40.90202873442787" lon="9.10154175972998"><ele>553.6666666666666</ele><time>2026-05-03T10:50:30Z</time></trkpt><trkpt lat="40.90209963890415" lon="9.10155743487173"><ele>553.3333333333333</ele><time>2026-05-03T10:50:31Z</time></trkpt><trkpt lat="40.902184715825484" lon="9.101572816889004"><ele>553.0</ele><time>2026-05-03T10:50:32Z</time></trkpt><trkpt lat="40.90225443564762" lon="9.101580725606162"><ele>552.6666666666666</ele><time>2026-05-03T10:50:33Z</time></trkpt><trkpt lat="40.902338981952155" lon="9.101609616512901"><ele>552.3333333333334</ele><time>2026-05-03T10:50:35Z</time></trkpt><trkpt lat="40.9024483429823" lon="9.101675076935297"><ele>552.0</ele><time>2026-05-03T10:50:37Z</time></trkpt><trkpt lat="40.90254806544414" lon="9.101698106569183"><ele>553.0</ele><time>2026-05-03T10:50:38Z</time></trkpt><trkpt lat="40.90264822728611" lon="9.101740915672805"><ele>554.0</ele><time>2026-05-03T10:50:39Z</time></trkpt><trkpt lat="40.90274890756669" lon="9.101779049026812"><ele>555.0</ele><time>2026-05-03T10:50:40Z</time></trkpt><trkpt lat="40.90284122538302" lon="9.10180496171382"><ele>556.0</ele><time>2026-05-03T10:50:41Z</time></trkpt><trkpt lat="40.90292735325863" lon="9.101806942270734"><ele>557.0</ele><time>2026-05-03T10:50:42Z</time></trkpt><trkpt lat="40.90301475700548" lon="9.101820211056758"><ele>557.0</ele><time>2026-05-03T10:50:43Z</time></trkpt><trkpt lat="40.90309539778418" lon="9.101808933886351"><ele>557.0</ele><time>2026-05-03T10:50:44Z</time></trkpt><trkpt lat="40.90317250168848" lon="9.101804980612963"><ele>557.0</ele><time>2026-05-03T10:50:45Z</time></trkpt><trkpt lat="40.90324538155947" lon="9.101787036542289"><ele>557.0</ele><time>2026-05-03T10:50:46Z</time></trkpt><trkpt lat="40.903319162210245" lon="9.101746550149038"><ele>557.0</ele><time>2026-05-03T10:50:47Z</time></trkpt><trkpt lat="40.903390519459556" lon="9.101693454813974"><ele>557.0</ele><time>2026-05-03T10:50:48Z</time></trkpt><trkpt lat="40.90346366539846" lon="9.101630365665327"><ele>556.0</ele><time>2026-05-03T10:50:49Z</time></trkpt><trkpt lat="40.90353463081317" lon="9.101565840067822"><ele>555.0</ele><time>2026-05-03T10:50:50Z</time></trkpt><trkpt lat="40.90360218780822" lon="9.101514275718758"><ele>554.0</ele><time>2026-05-03T10:50:51Z</time></trkpt><trkpt lat="40.90367525670042" lon="9.10145350038389"><ele>553.0</ele><time>2026-05-03T10:50:52Z</time></trkpt><trkpt lat="40.90375213063342" lon="9.10138500194635"><ele>552.0</ele><time>2026-05-03T10:50:53Z</time></trkpt><trkpt lat="40.90382196352107" lon="9.10133014748514"><ele>551.0</ele><time>2026-05-03T10:50:54Z</time></trkpt><trkpt lat="40.9038839994128" lon="9.101280325447014"><ele>551.0</ele><time>2026-05-03T10:50:55Z</time></trkpt><trkpt lat="40.90393941557731" lon="9.101232905720725"><ele>551.0</ele><time>2026-05-03T10:50:56Z</time></trkpt><trkpt lat="40.903989634796474" lon="9.1011815067809"><ele>551.0</ele><time>2026-05-03T10:50:57Z</time></trkpt><trkpt lat="40.90408761655975" lon="9.101095992765488"><ele>551.0</ele><time>2026-05-03T10:50:59Z</time></trkpt><trkpt lat="40.90421548176374" lon="9.10101125174109"><ele>551.0</ele><time>2026-05-03T10:51:01Z</time></trkpt><trkpt lat="40.9042891597101" lon="9.10093175919078"><ele>551.0</ele><time>2026-05-03T10:51:02Z</time></trkpt><trkpt lat="40.90438054805672" lon="9.100860499625272"><ele>551.0</ele><time>2026-05-03T10:51:03Z</time></trkpt><trkpt lat="40.904482288727266" lon="9.10077685124587"><ele>551.0</ele><time>2026-05-03T10:51:04Z</time></trkpt><trkpt lat="40.90459163407458" lon="9.10068243466204"><ele>551.0</ele><time>2026-05-03T10:51:05Z</time></trkpt><trkpt lat="40.904705941164394" lon="9.100581937817767"><ele>550.0</ele><time>2026-05-03T10:51:06Z</time></trkpt><trkpt lat="40.90482697623317" lon="9.100495616028674"><ele>549.0</ele><time>2026-05-03T10:51:07Z</time></trkpt><trkpt lat="40.90494303879028" lon="9.100421247953609"><ele>548.0</ele><time>2026-05-03T10:51:08Z</time></trkpt><trkpt lat="40.9050422545788" lon="9.100344623908784"><ele>547.0</ele><time>2026-05-03T10:51:09Z</time></trkpt><trkpt lat="40.90512746608167" lon="9.100283828435982"><ele>547.0</ele><time>2026-05-03T10:51:10Z</time></trkpt><trkpt lat="40.905195666644026" lon="9.100235355536922"><ele>547.0</ele><time>2026-05-03T10:51:11Z</time></trkpt><trkpt lat="40.905295351429686" lon="9.100176122255409"><ele>547.0</ele><time>2026-05-03T10:51:13Z</time></trkpt><trkpt lat="40.90539153640001" lon="9.1001019423971"><ele>547.0</ele><time>2026-05-03T10:51:15Z</time></trkpt><trkpt lat="40.90542776764251" lon="9.100030590304778"><ele>547.0</ele><time>2026-05-03T10:51:16Z</time></trkpt><trkpt lat="40.90544332382925" lon="9.099927947341406"><ele>547.0</ele><time>2026-05-03T10:51:17Z</time></trkpt><trkpt lat="40.905444127386374" lon="9.099822736865608"><ele>546.0</ele><time>2026-05-03T10:51:18Z</time></trkpt><trkpt lat="40.90544930461636" lon="9.099730554159345"><ele>545.0</ele><time>2026-05-03T10:51:19Z</time></trkpt><trkpt lat="40.90541874999503" lon="9.099584035694697"><ele>544.0</ele><time>2026-05-03T10:51:21Z</time></trkpt><trkpt lat="40.90535462892404" lon="9.099502309510966"><ele>543.0</ele><time>2026-05-03T10:51:23Z</time></trkpt><trkpt lat="40.90547482269749" lon="9.099461623672676"><ele>542.0</ele><time>2026-05-03T10:51:25Z</time></trkpt><trkpt lat="40.90531239297105" lon="9.099368471945812"><ele>542.0</ele><time>2026-05-03T10:51:27Z</time></trkpt><trkpt lat="40.90547784207167" lon="9.099406786702813"><ele>542.0</ele><time>2026-05-03T10:56:39.001Z</time></trkpt><trkpt lat="40.90529934335492" lon="9.099370823310743"><ele>542.0</ele><time>2026-05-03T10:56:45Z</time></trkpt><trkpt lat="40.90547980734815" lon="9.099376578129066"><ele>542.0</ele><time>2026-05-03T10:57:09Z</time></trkpt><trkpt lat="40.90529195158244" lon="9.099357534858413"><ele>542.0</ele><time>2026-05-03T10:57:10Z</time></trkpt><trkpt lat="40.905246085951994" lon="9.099294565732343"><ele>542.0</ele><time>2026-05-03T10:57:55Z</time></trkpt><trkpt lat="40.90524972577014" lon="9.099417557600479"><ele>542.0</ele><time>2026-05-03T10:58:04Z</time></trkpt><trkpt lat="40.90529176425815" lon="9.09948347683546"><ele>542.0</ele><time>2026-05-03T10:58:06Z</time></trkpt><trkpt lat="40.90534837879451" lon="9.099543558796872"><ele>542.0</ele><time>2026-05-03T10:58:09Z</time></trkpt><trkpt lat="40.90540849718497" lon="9.099611034698084"><ele>542.0</ele><time>2026-05-03T10:58:20Z</time></trkpt><trkpt lat="40.90549053356233" lon="9.099571394781517"><ele>542.0</ele><time>2026-05-03T10:58:23Z</time></trkpt><trkpt lat="40.90550584769121" lon="9.099459673083219"><ele>542.0</ele><time>2026-05-03T10:58:24Z</time></trkpt><trkpt lat="40.90549292138245" lon="9.099347897486902"><ele>542.0</ele><time>2026-05-03T10:58:25Z</time></trkpt><trkpt lat="40.90549685834145" lon="9.0991788024143"><ele>542.0</ele><time>2026-05-03T10:58:27Z</time></trkpt><trkpt lat="40.90549971938702" lon="9.099084434325553"><ele>542.0</ele><time>2026-05-03T10:58:28Z</time></trkpt><trkpt lat="40.905502791755296" lon="9.098980814683152"><ele>542.0</ele><time>2026-05-03T10:58:29Z</time></trkpt><trkpt lat="40.90550670664121" lon="9.098873980752145"><ele>542.0</ele><time>2026-05-03T10:58:30Z</time></trkpt><trkpt lat="40.905509116959294" lon="9.098766547352113"><ele>542.0</ele><time>2026-05-03T10:58:31Z</time></trkpt><trkpt lat="40.905507685857955" lon="9.098672432135322"><ele>542.0</ele><time>2026-05-03T10:58:32Z</time></trkpt><trkpt lat="40.90550985410734" lon="9.098584413429432"><ele>541.3333333333333</ele><time>2026-05-03T10:58:33Z</time></trkpt><trkpt lat="40.90552097758615" lon="9.098482845390466"><ele>540.6666666666666</ele><time>2026-05-03T10:58:35Z</time></trkpt><trkpt lat="40.905510323847544" lon="9.098583647040732"><ele>540.0</ele><time>2026-05-03T10:58:44Z</time></trkpt><trkpt lat="40.90546770704521" lon="9.09873366735574"><ele>539.3333333333334</ele><time>2026-05-03T10:58:46Z</time></trkpt><trkpt lat="40.90547122245009" lon="9.098831461322696"><ele>538.6666666666667</ele><time>2026-05-03T10:58:47Z</time></trkpt><trkpt lat="40.905479643770235" lon="9.098944509970275"><ele>538.0</ele><time>2026-05-03T10:58:48Z</time></trkpt><trkpt lat="40.905480524085476" lon="9.0990830585959"><ele>539.0</ele><time>2026-05-03T10:58:49Z</time></trkpt><trkpt lat="40.90547370972522" lon="9.099239607831894"><ele>540.0</ele><time>2026-05-03T10:58:50Z</time></trkpt><trkpt lat="40.90546387062387" lon="9.099396198343168"><ele>541.0</ele><time>2026-05-03T10:58:51Z</time></trkpt><trkpt lat="40.9054506422956" lon="9.099547715872038"><ele>542.0</ele><time>2026-05-03T10:58:52Z</time></trkpt><trkpt lat="40.9054393874486" lon="9.099676772651465"><ele>542.0</ele><time>2026-05-03T10:58:53Z</time></trkpt><trkpt lat="40.90542649259142" lon="9.099776828426393"><ele>542.0</ele><time>2026-05-03T10:58:54Z</time></trkpt><trkpt lat="40.90537158640006" lon="9.09991041274165"><ele>542.0</ele><time>2026-05-03T10:58:56Z</time></trkpt><trkpt lat="40.90530298654907" lon="9.099997896351507"><ele>542.0</ele><time>2026-05-03T10:58:58Z</time></trkpt><trkpt lat="40.905299289973144" lon="9.100105040612005"><ele>542.0</ele><time>2026-05-03T10:59:00Z</time></trkpt><trkpt lat="40.90533086939556" lon="9.100191361039188"><ele>542.0</ele><time>2026-05-03T10:59:02Z</time></trkpt><trkpt lat="40.90542216530476" lon="9.100229327998298"><ele>542.8333333333333</ele><time>2026-05-03T10:59:03Z</time></trkpt><trkpt lat="40.90546950764683" lon="9.100290425585603"><ele>543.6666666666666</ele><time>2026-05-03T10:59:04Z</time></trkpt><trkpt lat="40.90551645402665" lon="9.100370168511894"><ele>544.5</ele><time>2026-05-03T10:59:05Z</time></trkpt><trkpt lat="40.90557042842052" lon="9.100455166161037"><ele>545.3333333333334</ele><time>2026-05-03T10:59:06Z</time></trkpt><trkpt lat="40.905629671540666" lon="9.100545128482903"><ele>546.1666666666667</ele><time>2026-05-03T10:59:07Z</time></trkpt><trkpt lat="40.905690547033416" lon="9.100641064178511"><ele>547.0</ele><time>2026-05-03T10:59:08Z</time></trkpt><trkpt lat="40.90575831690134" lon="9.10074158451176"><ele>547.8000000000001</ele><time>2026-05-03T10:59:09Z</time></trkpt><trkpt lat="40.90582544516543" lon="9.100846828145656"><ele>548.6</ele><time>2026-05-03T10:59:10Z</time></trkpt><trkpt lat="40.90589228976046" lon="9.100953880292337"><ele>549.4000000000001</ele><time>2026-05-03T10:59:11Z</time></trkpt><trkpt lat="40.90595759616696" lon="9.101059041869997"><ele>550.2</ele><time>2026-05-03T10:59:12Z</time></trkpt><trkpt lat="40.90601838134787" lon="9.101155324367994"><ele>551.0</ele><time>2026-05-03T10:59:13Z</time></trkpt><trkpt lat="40.90607797061747" lon="9.10125285367214"><ele>549.6</ele><time>2026-05-03T10:59:14Z</time></trkpt><trkpt lat="40.90612974300684" lon="9.101359143339568"><ele>548.2</ele><time>2026-05-03T10:59:15Z</time></trkpt><trkpt lat="40.90616516413244" lon="9.10148198072191"><ele>546.8</ele><time>2026-05-03T10:59:16Z</time></trkpt><trkpt lat="40.90618096062472" lon="9.101614961320681"><ele>545.4</ele><time>2026-05-03T10:59:17Z</time></trkpt><trkpt lat="40.90615248971607" lon="9.101749082489755"><ele>544.0</ele><time>2026-05-03T10:59:18Z</time></trkpt><trkpt lat="40.90611262663197" lon="9.101892659855183"><ele>544.0</ele><time>2026-05-03T10:59:19Z</time></trkpt><trkpt lat="40.90607472384207" lon="9.10201847815062"><ele>544.0</ele><time>2026-05-03T10:59:20Z</time></trkpt><trkpt lat="40.90604315997138" lon="9.102126147261817"><ele>544.0</ele><time>2026-05-03T10:59:21Z</time></trkpt><trkpt lat="40.90602002760566" lon="9.10222012579472"><ele>544.0</ele><time>2026-05-03T10:59:22Z</time></trkpt><trkpt lat="40.90599746022978" lon="9.102373310515018"><ele>544.0</ele><time>2026-05-03T10:59:24Z</time></trkpt><trkpt lat="40.906000548034356" lon="9.102520296878538"><ele>544.2</ele><time>2026-05-03T10:59:26Z</time></trkpt><trkpt lat="40.90600204078223" lon="9.10267623382227"><ele>544.4</ele><time>2026-05-03T10:59:28Z</time></trkpt><trkpt lat="40.90601486585305" lon="9.102820112921059"><ele>544.6</ele><time>2026-05-03T10:59:30Z</time></trkpt><trkpt lat="40.906013400714286" lon="9.102906650772212"><ele>544.8</ele><time>2026-05-03T10:59:31Z</time></trkpt><trkpt lat="40.90600676388343" lon="9.103008894180002"><ele>545.0</ele><time>2026-05-03T10:59:32Z</time></trkpt><trkpt lat="40.905994819718536" lon="9.10313181631447"><ele>545.0</ele><time>2026-05-03T10:59:33Z</time></trkpt><trkpt lat="40.905945412141214" lon="9.103244622644874"><ele>545.0</ele><time>2026-05-03T10:59:34Z</time></trkpt><trkpt lat="40.90587812349361" lon="9.103334337347208"><ele>545.0</ele><time>2026-05-03T10:59:35Z</time></trkpt><trkpt lat="40.90579298502753" lon="9.103411668446244"><ele>545.0</ele><time>2026-05-03T10:59:36Z</time></trkpt><trkpt lat="40.90569931548304" lon="9.103458225396936"><ele>545.0</ele><time>2026-05-03T10:59:37Z</time></trkpt><trkpt lat="40.90560668946355" lon="9.103499806625612"><ele>546.8</ele><time>2026-05-03T10:59:38Z</time></trkpt><trkpt lat="40.90551906915101" lon="9.103539077123104"><ele>548.6</ele><time>2026-05-03T10:59:39Z</time></trkpt><trkpt lat="40.905435556948404" lon="9.103576506506371"><ele>550.4</ele><time>2026-05-03T10:59:40Z</time></trkpt><trkpt lat="40.905354367842804" lon="9.103612894610844"><ele>552.2</ele><time>2026-05-03T10:59:41Z</time></trkpt><trkpt lat="40.905265102750604" lon="9.103652902865369"><ele>554.0</ele><time>2026-05-03T10:59:42Z</time></trkpt><trkpt lat="40.90517171077528" lon="9.103707358659705"><ele>554.0</ele><time>2026-05-03T10:59:43Z</time></trkpt><trkpt lat="40.905079377534236" lon="9.103765109445499"><ele>554.0</ele><time>2026-05-03T10:59:44Z</time></trkpt><trkpt lat="40.904992108493786" lon="9.103847167993322"><ele>554.0</ele><time>2026-05-03T10:59:45Z</time></trkpt><trkpt lat="40.90492641890101" lon="9.103980135037663"><ele>554.0</ele><time>2026-05-03T10:59:46Z</time></trkpt><trkpt lat="40.90487341689363" lon="9.10411102293051"><ele>554.0</ele><time>2026-05-03T10:59:47Z</time></trkpt><trkpt lat="40.90482141465073" lon="9.10423748185091"><ele>554.75</ele><time>2026-05-03T10:59:48Z</time></trkpt><trkpt lat="40.90476548759109" lon="9.10437317114847"><ele>555.5</ele><time>2026-05-03T10:59:49Z</time></trkpt><trkpt lat="40.904707412551396" lon="9.104513560650298"><ele>556.25</ele><time>2026-05-03T10:59:50Z</time></trkpt><trkpt lat="40.90465330503078" lon="9.104657252117173"><ele>557.0</ele><time>2026-05-03T10:59:51Z</time></trkpt><trkpt lat="40.90461316022923" lon="9.10479453989097"><ele>557.0</ele><time>2026-05-03T10:59:52Z</time></trkpt><trkpt lat="40.90462804105243" lon="9.104951170545524"><ele>557.0</ele><time>2026-05-03T10:59:53Z</time></trkpt><trkpt lat="40.90463325110044" lon="9.105107789057605"><ele>557.0</ele><time>2026-05-03T10:59:54Z</time></trkpt><trkpt lat="40.90467693065562" lon="9.105257549548973"><ele>557.0</ele><time>2026-05-03T10:59:55Z</time></trkpt><trkpt lat="40.90472747745753" lon="9.105387835412802"><ele>557.0</ele><time>2026-05-03T10:59:56Z</time></trkpt><trkpt lat="40.90475586681446" lon="9.105531106946726"><ele>557.0</ele><time>2026-05-03T10:59:57Z</time></trkpt><trkpt lat="40.90475172853995" lon="9.105679287138596"><ele>557.0</ele><time>2026-05-03T10:59:58Z</time></trkpt><trkpt lat="40.90474529276452" lon="9.105828473565687"><ele>557.0</ele><time>2026-05-03T10:59:59Z</time></trkpt><trkpt lat="40.904734889015494" lon="9.105982399437565"><ele>557.75</ele><time>2026-05-03T11:00:00Z</time></trkpt><trkpt lat="40.904723367301024" lon="9.106140396726765"><ele>558.5</ele><time>2026-05-03T11:00:01Z</time></trkpt><trkpt lat="40.90471113069703" lon="9.106303679114037"><ele>559.25</ele><time>2026-05-03T11:00:02Z</time></trkpt><trkpt lat="40.904698794720204" lon="9.106467580463944"><ele>560.0</ele><time>2026-05-03T11:00:03Z</time></trkpt><trkpt lat="40.904683920452705" lon="9.106629067076494"><ele>560.0</ele><time>2026-05-03T11:00:04Z</time></trkpt><trkpt lat="40.90466432816039" lon="9.106786992840869"><ele>560.0</ele><time>2026-05-03T11:00:05Z</time></trkpt><trkpt lat="40.90462402284658" lon="9.106922112452379"><ele>560.0</ele><time>2026-05-03T11:00:06Z</time></trkpt><trkpt lat="40.90458447213223" lon="9.107058898503235"><ele>560.0</ele><time>2026-05-03T11:00:07Z</time></trkpt><trkpt lat="40.90449922531494" lon="9.107144171163455"><ele>560.0</ele><time>2026-05-03T11:00:08Z</time></trkpt><trkpt lat="40.90443139110312" lon="9.107235776246204"><ele>560.0</ele><time>2026-05-03T11:00:09Z</time></trkpt><trkpt lat="40.90433462268576" lon="9.107282200985646"><ele>560.0</ele><time>2026-05-03T11:00:10Z</time></trkpt><trkpt lat="40.904225375992134" lon="9.107288264001983"><ele>560.0</ele><time>2026-05-03T11:00:11Z</time></trkpt><trkpt lat="40.904121298633406" lon="9.107220705540048"><ele>560.0</ele><time>2026-05-03T11:00:12Z</time></trkpt><trkpt lat="40.90401280050626" lon="9.107166971281886"><ele>560.0</ele><time>2026-05-03T11:00:13Z</time></trkpt><trkpt lat="40.903897433283944" lon="9.10710694327489"><ele>560.25</ele><time>2026-05-03T11:00:14Z</time></trkpt><trkpt lat="40.903769617847054" lon="9.107062212445486"><ele>560.5</ele><time>2026-05-03T11:00:15Z</time></trkpt><trkpt lat="40.90365490167537" lon="9.107007986745304"><ele>560.75</ele><time>2026-05-03T11:00:16Z</time></trkpt><trkpt lat="40.90354858392785" lon="9.106950920062124"><ele>561.0</ele><time>2026-05-03T11:00:17Z</time></trkpt><trkpt lat="40.90343132230668" lon="9.106924486869532"><ele>560.25</ele><time>2026-05-03T11:00:18Z</time></trkpt><trkpt lat="40.903311862955206" lon="9.106900143365719"><ele>559.5</ele><time>2026-05-03T11:00:19Z</time></trkpt><trkpt lat="40.90319109689451" lon="9.1068722863774"><ele>558.75</ele><time>2026-05-03T11:00:20Z</time></trkpt><trkpt lat="40.90307555840385" lon="9.106830194936263"><ele>558.0</ele><time>2026-05-03T11:00:21Z</time></trkpt><trkpt lat="40.90297122079054" lon="9.106783400301161"><ele>558.0</ele><time>2026-05-03T11:00:22Z</time></trkpt><trkpt lat="40.90289229927788" lon="9.106687001125458"><ele>558.0</ele><time>2026-05-03T11:00:23Z</time></trkpt><trkpt lat="40.90284429379147" lon="9.106556683442745"><ele>558.0</ele><time>2026-05-03T11:00:24Z</time></trkpt><trkpt lat="40.902810764875106" lon="9.106432920137095"><ele>558.0</ele><time>2026-05-03T11:00:25Z</time></trkpt><trkpt lat="40.90275970191813" lon="9.106317549683872"><ele>558.0</ele><time>2026-05-03T11:00:26Z</time></trkpt><trkpt lat="40.90272435867898" lon="9.106196489229411"><ele>557.1999999999999</ele><time>2026-05-03T11:00:27Z</time></trkpt><trkpt lat="40.902684145353646" lon="9.106082199829146"><ele>556.4</ele><time>2026-05-03T11:00:28Z</time></trkpt><trkpt lat="40.90264700848252" lon="9.105965465950032"><ele>555.5999999999999</ele><time>2026-05-03T11:00:29Z</time></trkpt><trkpt lat="40.90256713132855" lon="9.105884104872313"><ele>554.8</ele><time>2026-05-03T11:00:30Z</time></trkpt><trkpt lat="40.90246242338748" lon="9.105856164076048"><ele>554.0</ele><time>2026-05-03T11:00:31Z</time></trkpt><trkpt lat="40.902362014122254" lon="9.10585484480918"><ele>554.0</ele><time>2026-05-03T11:00:32Z</time></trkpt><trkpt lat="40.902264554592804" lon="9.105876772997687"><ele>554.0</ele><time>2026-05-03T11:00:33Z</time></trkpt><trkpt lat="40.90216751116248" lon="9.105937223818033"><ele>554.0</ele><time>2026-05-03T11:00:34Z</time></trkpt><trkpt lat="40.90208310549012" lon="9.106037318576988"><ele>554.0</ele><time>2026-05-03T11:00:35Z</time></trkpt><trkpt lat="40.901999338033185" lon="9.10612907651645"><ele>554.0</ele><time>2026-05-03T11:00:36Z</time></trkpt><trkpt lat="40.901921617461134" lon="9.106234113801845"><ele>554.0</ele><time>2026-05-03T11:00:37Z</time></trkpt><trkpt lat="40.901853027009416" lon="9.106350853739162"><ele>554.0</ele><time>2026-05-03T11:00:38Z</time></trkpt><trkpt lat="40.901794402126576" lon="9.106477090594364"><ele>554.0</ele><time>2026-05-03T11:00:39Z</time></trkpt><trkpt lat="40.90174865765231" lon="9.106616980239094"><ele>554.0</ele><time>2026-05-03T11:00:40Z</time></trkpt><trkpt lat="40.90171393619493" lon="9.10676727222743"><ele>553.25</ele><time>2026-05-03T11:00:41Z</time></trkpt><trkpt lat="40.901687739194855" lon="9.10692841896096"><ele>552.5</ele><time>2026-05-03T11:00:42Z</time></trkpt><trkpt lat="40.9016690882448" lon="9.107096293370581"><ele>551.75</ele><time>2026-05-03T11:00:43Z</time></trkpt><trkpt lat="40.901672156985256" lon="9.107271403771245"><ele>551.0</ele><time>2026-05-03T11:00:44Z</time></trkpt><trkpt lat="40.90170187131289" lon="9.107453498925906"><ele>549.75</ele><time>2026-05-03T11:00:45Z</time></trkpt><trkpt lat="40.90173077142801" lon="9.107630384498714"><ele>548.5</ele><time>2026-05-03T11:00:46Z</time></trkpt><trkpt lat="40.90176543794315" lon="9.107806425804426"><ele>547.25</ele><time>2026-05-03T11:00:47Z</time></trkpt><trkpt lat="40.90180180573638" lon="9.107981132745428"><ele>546.0</ele><time>2026-05-03T11:00:48Z</time></trkpt><trkpt lat="40.90184265794978" lon="9.108162397665202"><ele>542.75</ele><time>2026-05-03T11:00:49Z</time></trkpt><trkpt lat="40.90189030254309" lon="9.108340761456207"><ele>539.5</ele><time>2026-05-03T11:00:50Z</time></trkpt><trkpt lat="40.90194468592013" lon="9.108517411730984"><ele>536.25</ele><time>2026-05-03T11:00:51Z</time></trkpt><trkpt lat="40.902015062789474" lon="9.108680053270342"><ele>533.0</ele><time>2026-05-03T11:00:52Z</time></trkpt><trkpt lat="40.90209242507797" lon="9.10883722024301"><ele>533.0</ele><time>2026-05-03T11:00:53Z</time></trkpt><trkpt lat="40.90216943511868" lon="9.108993957837782"><ele>533.0</ele><time>2026-05-03T11:00:54Z</time></trkpt><trkpt lat="40.90225302581908" lon="9.10914402494706"><ele>533.0</ele><time>2026-05-03T11:00:55Z</time></trkpt><trkpt lat="40.90234616302632" lon="9.109284393368528"><ele>533.0</ele><time>2026-05-03T11:00:56Z</time></trkpt><trkpt lat="40.902446589696424" lon="9.109418509990016"><ele>533.0</ele><time>2026-05-03T11:00:57Z</time></trkpt><trkpt lat="40.90255075962814" lon="9.10954601652073"><ele>533.0</ele><time>2026-05-03T11:00:58Z</time></trkpt><trkpt lat="40.9026557249412" lon="9.109665080404879"><ele>533.0</ele><time>2026-05-03T11:00:59Z</time></trkpt><trkpt lat="40.902762619424635" lon="9.109780549316453"><ele>533.0</ele><time>2026-05-03T11:01:00Z</time></trkpt><trkpt lat="40.902873091563784" lon="9.109890584744695"><ele>530.5</ele><time>2026-05-03T11:01:01Z</time></trkpt><trkpt lat="40.90298062685041" lon="9.110001415377127"><ele>528.0</ele><time>2026-05-03T11:01:02Z</time></trkpt><trkpt lat="40.903088835100995" lon="9.110107958822963"><ele>525.5</ele><time>2026-05-03T11:01:03Z</time></trkpt><trkpt lat="40.90320323283341" lon="9.110201013675903"><ele>523.0</ele><time>2026-05-03T11:01:04Z</time></trkpt><trkpt lat="40.903321490252594" lon="9.110282697729234"><ele>522.0</ele><time>2026-05-03T11:01:05Z</time></trkpt><trkpt lat="40.90343838580379" lon="9.1103646295297"><ele>521.0</ele><time>2026-05-03T11:01:06Z</time></trkpt><trkpt lat="40.90355158936287" lon="9.110450424404878"><ele>520.0</ele><time>2026-05-03T11:01:07Z</time></trkpt><trkpt lat="40.90365871843403" lon="9.110550431213369"><ele>519.0</ele><time>2026-05-03T11:01:08Z</time></trkpt><trkpt lat="40.903748139142756" lon="9.110674084231345"><ele>518.75</ele><time>2026-05-03T11:01:09Z</time></trkpt><trkpt lat="40.90381158412335" lon="9.110837708851152"><ele>518.5</ele><time>2026-05-03T11:01:10Z</time></trkpt><trkpt lat="40.903859709676965" lon="9.111019133159923"><ele>518.25</ele><time>2026-05-03T11:01:11Z</time></trkpt><trkpt lat="40.90390640860665" lon="9.111207318523249"><ele>518.0</ele><time>2026-05-03T11:01:12Z</time></trkpt><trkpt lat="40.90395013115673" lon="9.111397629733686"><ele>517.0</ele><time>2026-05-03T11:01:13Z</time></trkpt><trkpt lat="40.90399067801419" lon="9.11157416823161"><ele>516.0</ele><time>2026-05-03T11:01:14Z</time></trkpt><trkpt lat="40.90402881903444" lon="9.111732377735597"><ele>515.0</ele><time>2026-05-03T11:01:15Z</time></trkpt><trkpt lat="40.90405391457339" lon="9.111847240232855"><ele>514.0</ele><time>2026-05-03T11:01:16Z</time></trkpt><trkpt lat="40.90406866558083" lon="9.11194221882213"><ele>513.0</ele><time>2026-05-03T11:01:17Z</time></trkpt><trkpt lat="40.904066535185095" lon="9.11210668854672"><ele>513.0</ele><time>2026-05-03T11:01:19Z</time></trkpt><trkpt lat="40.90402694375888" lon="9.112251575950191"><ele>513.0</ele><time>2026-05-03T11:01:21Z</time></trkpt><trkpt lat="40.903997720184705" lon="9.112348092611002"><ele>513.0</ele><time>2026-05-03T11:01:23Z</time></trkpt><trkpt lat="40.903967535719" lon="9.112431674524053"><ele>513.0</ele><time>2026-05-03T11:02:06Z</time></trkpt><trkpt lat="40.90398389156186" lon="9.112344075980536"><ele>513.0</ele><time>2026-05-03T11:02:16Z</time></trkpt><trkpt lat="40.90401400416057" lon="9.112243548550671"><ele>513.0</ele><time>2026-05-03T11:02:18Z</time></trkpt><trkpt lat="40.904042061578004" lon="9.112149881836503"><ele>513.0</ele><time>2026-05-03T11:02:21Z</time></trkpt><trkpt lat="40.90408548497454" lon="9.112028268239731"><ele>513.0</ele><time>2026-05-03T11:02:25Z</time></trkpt><trkpt lat="40.904078023862176" lon="9.111868122754064"><ele>513.0</ele><time>2026-05-03T11:02:27Z</time></trkpt><trkpt lat="40.90402237715576" lon="9.111703122112424"><ele>513.0</ele><time>2026-05-03T11:02:28Z</time></trkpt><trkpt lat="40.90401509660117" lon="9.111578220969333"><ele>514.0</ele><time>2026-05-03T11:02:29Z</time></trkpt><trkpt lat="40.9039866772213" lon="9.11145437772034"><ele>515.0</ele><time>2026-05-03T11:02:30Z</time></trkpt><trkpt lat="40.903954397204735" lon="9.111323241583158"><ele>516.0</ele><time>2026-05-03T11:02:31Z</time></trkpt><trkpt lat="40.903919587149815" lon="9.111181698967853"><ele>517.0</ele><time>2026-05-03T11:02:32Z</time></trkpt><trkpt lat="40.90388174596404" lon="9.111032693848825"><ele>518.0</ele><time>2026-05-03T11:02:33Z</time></trkpt><trkpt lat="40.90384355980102" lon="9.110882465313663"><ele>518.25</ele><time>2026-05-03T11:02:34Z</time></trkpt><trkpt lat="40.90379760462577" lon="9.110738220318511"><ele>518.5</ele><time>2026-05-03T11:02:35Z</time></trkpt><trkpt lat="40.90373748109792" lon="9.110609019219243"><ele>518.75</ele><time>2026-05-03T11:02:36Z</time></trkpt><trkpt lat="40.903654919541104" lon="9.110502514414252"><ele>519.0</ele><time>2026-05-03T11:02:37Z</time></trkpt><trkpt lat="40.90355345287895" lon="9.110416702253827"><ele>519.0</ele><time>2026-05-03T11:02:38Z</time></trkpt><trkpt lat="40.903442512728816" lon="9.110338392790553"><ele>519.0</ele><time>2026-05-03T11:02:39Z</time></trkpt><trkpt lat="40.9033307049191" lon="9.110259645799403"><ele>519.0</ele><time>2026-05-03T11:02:40Z</time></trkpt><trkpt lat="40.90321730866371" lon="9.110174291716646"><ele>519.0</ele><time>2026-05-03T11:02:41Z</time></trkpt><trkpt lat="40.90310540218178" lon="9.110080913212668"><ele>519.25</ele><time>2026-05-03T11:02:42Z</time></trkpt><trkpt lat="40.90300464610053" lon="9.109957155441105"><ele>519.5</ele><time>2026-05-03T11:02:43Z</time></trkpt><trkpt lat="40.90289300665683" lon="9.109849299018123"><ele>519.75</ele><time>2026-05-03T11:02:44Z</time></trkpt><trkpt lat="40.90278420939238" lon="9.10973404291237"><ele>520.0</ele><time>2026-05-03T11:02:45Z</time></trkpt><trkpt lat="40.902671476842336" lon="9.109605172770515"><ele>524.3333333333334</ele><time>2026-05-03T11:02:46Z</time></trkpt><trkpt lat="40.90255394741357" lon="9.109467785730505"><ele>528.6666666666666</ele><time>2026-05-03T11:02:47Z</time></trkpt><trkpt lat="40.90243611669498" lon="9.109324059407138"><ele>533.0</ele><time>2026-05-03T11:02:48Z</time></trkpt><trkpt lat="40.902326361781526" lon="9.109168763698381"><ele>533.0</ele><time>2026-05-03T11:02:49Z</time></trkpt><trkpt lat="40.90222571689042" lon="9.109011366215189"><ele>533.0</ele><time>2026-05-03T11:02:50Z</time></trkpt><trkpt lat="40.902115268223675" lon="9.108858371579485"><ele>533.0</ele><time>2026-05-03T11:02:51Z</time></trkpt><trkpt lat="40.9020374505315" lon="9.108682070834107"><ele>533.0</ele><time>2026-05-03T11:02:52Z</time></trkpt><trkpt lat="40.901967889582735" lon="9.108509729513639"><ele>533.0</ele><time>2026-05-03T11:02:53Z</time></trkpt><trkpt lat="40.90191317646209" lon="9.10833204769848"><ele>533.0</ele><time>2026-05-03T11:02:54Z</time></trkpt><trkpt lat="40.90186243850872" lon="9.108151520689361"><ele>533.0</ele><time>2026-05-03T11:02:55Z</time></trkpt><trkpt lat="40.90181627063935" lon="9.107964069233823"><ele>534.25</ele><time>2026-05-03T11:02:56Z</time></trkpt><trkpt lat="40.90177545020125" lon="9.107772012899362"><ele>535.5</ele><time>2026-05-03T11:02:57Z</time></trkpt><trkpt lat="40.90174039534332" lon="9.107577234614885"><ele>536.75</ele><time>2026-05-03T11:02:58Z</time></trkpt><trkpt lat="40.90171663369863" lon="9.107385513255917"><ele>538.0</ele><time>2026-05-03T11:02:59Z</time></trkpt><trkpt lat="40.90170481128622" lon="9.107192180165129"><ele>540.5</ele><time>2026-05-03T11:03:00Z</time></trkpt><trkpt lat="40.90171778845411" lon="9.107013044442063"><ele>543.0</ele><time>2026-05-03T11:03:01Z</time></trkpt><trkpt lat="40.90173839718697" lon="9.106854652487655"><ele>545.5</ele><time>2026-05-03T11:03:02Z</time></trkpt><trkpt lat="40.90176444039138" lon="9.106694742509719"><ele>548.0</ele><time>2026-05-03T11:03:03Z</time></trkpt><trkpt lat="40.90180391540519" lon="9.10654377203446"><ele>549.1999999999999</ele><time>2026-05-03T11:03:04Z</time></trkpt><trkpt lat="40.90185915780771" lon="9.10640276946332"><ele>550.4</ele><time>2026-05-03T11:03:05Z</time></trkpt><trkpt lat="40.90191990785851" lon="9.106289693249073"><ele>551.5999999999999</ele><time>2026-05-03T11:03:06Z</time></trkpt><trkpt lat="40.901983995616895" lon="9.106198566705856"><ele>552.8</ele><time>2026-05-03T11:03:07Z</time></trkpt><trkpt lat="40.902058599236554" lon="9.106114697605847"><ele>554.0</ele><time>2026-05-03T11:03:08Z</time></trkpt><trkpt lat="40.90214115045662" lon="9.106033306246534"><ele>554.0</ele><time>2026-05-03T11:03:09Z</time></trkpt><trkpt lat="40.902231877473405" lon="9.10595869873965"><ele>554.0</ele><time>2026-05-03T11:03:10Z</time></trkpt><trkpt lat="40.902332141523296" lon="9.105911291939247"><ele>554.0</ele><time>2026-05-03T11:03:11Z</time></trkpt><trkpt lat="40.90243470463481" lon="9.105910828041429"><ele>554.0</ele><time>2026-05-03T11:03:12Z</time></trkpt><trkpt lat="40.902525942469595" lon="9.105936179006445"><ele>554.0</ele><time>2026-05-03T11:03:13Z</time></trkpt><trkpt lat="40.902609691968316" lon="9.10600586514681"><ele>554.8</ele><time>2026-05-03T11:03:14Z</time></trkpt><trkpt lat="40.90267385829631" lon="9.10610463069573"><ele>555.5999999999999</ele><time>2026-05-03T11:03:15Z</time></trkpt><trkpt lat="40.90271611596576" lon="9.106227277183539"><ele>556.4</ele><time>2026-05-03T11:03:16Z</time></trkpt><trkpt lat="40.90275152739321" lon="9.10635424513972"><ele>557.1999999999999</ele><time>2026-05-03T11:03:17Z</time></trkpt><trkpt lat="40.902788488074734" lon="9.106478673747953"><ele>558.0</ele><time>2026-05-03T11:03:18Z</time></trkpt><trkpt lat="40.90281901249282" lon="9.106579790453962"><ele>558.0</ele><time>2026-05-03T11:03:19Z</time></trkpt><trkpt lat="40.90285992343392" lon="9.106673841446508"><ele>558.0</ele><time>2026-05-03T11:03:20Z</time></trkpt><trkpt lat="40.90291854203677" lon="9.10676743303745"><ele>558.0</ele><time>2026-05-03T11:03:21Z</time></trkpt><trkpt lat="40.90299548935882" lon="9.106845317819884"><ele>558.0</ele><time>2026-05-03T11:03:22Z</time></trkpt><trkpt lat="40.90308702396713" lon="9.10689495102981"><ele>558.0</ele><time>2026-05-03T11:03:23Z</time></trkpt><trkpt lat="40.90318612745573" lon="9.106924399981414"><ele>558.0</ele><time>2026-05-03T11:03:24Z</time></trkpt><trkpt lat="40.903285096714384" lon="9.106949593012704"><ele>558.0</ele><time>2026-05-03T11:03:25Z</time></trkpt><trkpt lat="40.903384472485634" lon="9.106968376354901"><ele>558.0</ele><time>2026-05-03T11:03:26Z</time></trkpt><trkpt lat="40.903481652740616" lon="9.106991883160688"><ele>558.0</ele><time>2026-05-03T11:03:27Z</time></trkpt><trkpt lat="40.90357645922649" lon="9.107023656999397"><ele>558.0</ele><time>2026-05-03T11:03:28Z</time></trkpt><trkpt lat="40.90367130310369" lon="9.107058395829704"><ele>558.6</ele><time>2026-05-03T11:03:29Z</time></trkpt><trkpt lat="40.903765340964" lon="9.107100974922972"><ele>559.1999999999999</ele><time>2026-05-03T11:03:30Z</time></trkpt><trkpt lat="40.90385723522242" lon="9.107140333169745"><ele>559.8</ele><time>2026-05-03T11:03:31Z</time></trkpt><trkpt lat="40.90394954204207" lon="9.107181316527228"><ele>560.4</ele><time>2026-05-03T11:03:32Z</time></trkpt><trkpt lat="40.90404024146185" lon="9.107225100016352"><ele>561.0</ele><time>2026-05-03T11:03:33Z</time></trkpt><trkpt lat="40.90413063398624" lon="9.107272243195325"><ele>561.0</ele><time>2026-05-03T11:03:34Z</time></trkpt><trkpt lat="40.904222390710444" lon="9.10730363089118"><ele>561.0</ele><time>2026-05-03T11:03:35Z</time></trkpt><trkpt lat="40.904318244481935" lon="9.107315182566895"><ele>561.0</ele><time>2026-05-03T11:03:36Z</time></trkpt><trkpt lat="40.90441477718079" lon="9.107285863560268"><ele>561.0</ele><time>2026-05-03T11:03:37Z</time></trkpt><trkpt lat="40.904502328311914" lon="9.107221186320121"><ele>561.0</ele><time>2026-05-03T11:03:38Z</time></trkpt><trkpt lat="40.904573791766516" lon="9.107132649743573"><ele>560.8333333333334</ele><time>2026-05-03T11:03:39Z</time></trkpt><trkpt lat="40.90463121037408" lon="9.107030923110091"><ele>560.6666666666666</ele><time>2026-05-03T11:03:40Z</time></trkpt><trkpt lat="40.90467369523858" lon="9.106923254852951"><ele>560.5</ele><time>2026-05-03T11:03:41Z</time></trkpt><trkpt lat="40.90469797891237" lon="9.10682428667776"><ele>560.3333333333333</ele><time>2026-05-03T11:03:42Z</time></trkpt><trkpt lat="40.90471568471035" lon="9.10673210291759"><ele>560.1666666666666</ele><time>2026-05-03T11:03:43Z</time></trkpt><trkpt lat="40.904725804414284" lon="9.10663435315914"><ele>560.0</ele><time>2026-05-03T11:03:44Z</time></trkpt><trkpt lat="40.90473026270443" lon="9.106525007112285"><ele>560.0</ele><time>2026-05-03T11:03:45Z</time></trkpt><trkpt lat="40.90473824049211" lon="9.106386824358157"><ele>560.0</ele><time>2026-05-03T11:03:46Z</time></trkpt><trkpt lat="40.90475401127193" lon="9.106253675375774"><ele>560.0</ele><time>2026-05-03T11:03:47Z</time></trkpt><trkpt lat="40.904770840173285" lon="9.106110414953202"><ele>560.0</ele><time>2026-05-03T11:03:48Z</time></trkpt><trkpt lat="40.90478320511808" lon="9.105975216882719"><ele>560.0</ele><time>2026-05-03T11:03:49Z</time></trkpt><trkpt lat="40.90478695991223" lon="9.105853328947802"><ele>559.5714285714286</ele><time>2026-05-03T11:03:50Z</time></trkpt><trkpt lat="40.904786662560625" lon="9.105739908457355"><ele>559.1428571428571</ele><time>2026-05-03T11:03:51Z</time></trkpt><trkpt lat="40.9047824101638" lon="9.10563497531067"><ele>558.7142857142858</ele><time>2026-05-03T11:03:52Z</time></trkpt><trkpt lat="40.90477507979493" lon="9.105539799117565"><ele>558.2857142857142</ele><time>2026-05-03T11:03:53Z</time></trkpt><trkpt lat="40.90476044815536" lon="9.105449723436553"><ele>557.8571428571429</ele><time>2026-05-03T11:03:54Z</time></trkpt><trkpt lat="40.90474065834318" lon="9.105362062794612"><ele>557.4285714285714</ele><time>2026-05-03T11:03:55Z</time></trkpt><trkpt lat="40.90471555814572" lon="9.105279578100955"><ele>557.0</ele><time>2026-05-03T11:03:56Z</time></trkpt><trkpt lat="40.90469020132128" lon="9.105197020425278"><ele>557.0</ele><time>2026-05-03T11:03:57Z</time></trkpt><trkpt lat="40.904655442888235" lon="9.105054899978207"><ele>557.0</ele><time>2026-05-03T11:03:59Z</time></trkpt><trkpt lat="40.90464212670352" lon="9.10492305970393"><ele>557.0</ele><time>2026-05-03T11:04:01Z</time></trkpt><trkpt lat="40.904653689919044" lon="9.104761764176677"><ele>557.0</ele><time>2026-05-03T11:04:03Z</time></trkpt><trkpt lat="40.90468268760506" lon="9.10466947613083"><ele>557.0</ele><time>2026-05-03T11:04:04Z</time></trkpt><trkpt lat="40.90472010682406" lon="9.104572169605849"><ele>557.0</ele><time>2026-05-03T11:04:05Z</time></trkpt><trkpt lat="40.904759195300755" lon="9.104475967539324"><ele>557.0</ele><time>2026-05-03T11:04:06Z</time></trkpt><trkpt lat="40.90479306910521" lon="9.104387565245707"><ele>557.0</ele><time>2026-05-03T11:04:07Z</time></trkpt><trkpt lat="40.90485014107789" lon="9.104245401985866"><ele>557.0</ele><time>2026-05-03T11:04:09Z</time></trkpt><trkpt lat="40.904907695550996" lon="9.104118813180325"><ele>557.0</ele><time>2026-05-03T11:04:11Z</time></trkpt><trkpt lat="40.90497053031591" lon="9.10398242534071"><ele>556.5</ele><time>2026-05-03T11:04:13Z</time></trkpt><trkpt lat="40.90501616844401" lon="9.103903162599519"><ele>556.0</ele><time>2026-05-03T11:04:14Z</time></trkpt><trkpt lat="40.90507334949395" lon="9.10383116675339"><ele>555.5</ele><time>2026-05-03T11:04:15Z</time></trkpt><trkpt lat="40.905142018664634" lon="9.103770776799367"><ele>555.0</ele><time>2026-05-03T11:04:16Z</time></trkpt><trkpt lat="40.90522863983755" lon="9.103724885998671"><ele>554.5</ele><time>2026-05-03T11:04:17Z</time></trkpt><trkpt lat="40.90531802911024" lon="9.10368301032004"><ele>554.0</ele><time>2026-05-03T11:04:18Z</time></trkpt><trkpt lat="40.905405099334835" lon="9.103643565744148"><ele>554.0</ele><time>2026-05-03T11:04:19Z</time></trkpt><trkpt lat="40.90548751137558" lon="9.103611428682862"><ele>554.0</ele><time>2026-05-03T11:04:20Z</time></trkpt><trkpt lat="40.90556578378673" lon="9.103576567693493"><ele>554.0</ele><time>2026-05-03T11:04:21Z</time></trkpt><trkpt lat="40.90563979302336" lon="9.103529467656642"><ele>554.0</ele><time>2026-05-03T11:04:22Z</time></trkpt><trkpt lat="40.90571825623628" lon="9.10348864213781"><ele>554.0</ele><time>2026-05-03T11:04:23Z</time></trkpt><trkpt lat="40.905788062849865" lon="9.103446713505445"><ele>554.0</ele><time>2026-05-03T11:04:24Z</time></trkpt><trkpt lat="40.90584708243785" lon="9.103401983015596"><ele>554.0</ele><time>2026-05-03T11:04:25Z</time></trkpt><trkpt lat="40.90589982295922" lon="9.103352067574928"><ele>554.0</ele><time>2026-05-03T11:04:26Z</time></trkpt><trkpt lat="40.90594494869615" lon="9.103290480276923"><ele>554.0</ele><time>2026-05-03T11:04:27Z</time></trkpt><trkpt lat="40.905980812177376" lon="9.103218192719511"><ele>554.0</ele><time>2026-05-03T11:04:28Z</time></trkpt><trkpt lat="40.90600303770533" lon="9.10312955874789"><ele>554.0</ele><time>2026-05-03T11:04:29Z</time></trkpt><trkpt lat="40.90601768324781" lon="9.103031148976088"><ele>554.0</ele><time>2026-05-03T11:04:30Z</time></trkpt><trkpt lat="40.906025477594056" lon="9.10293020821542"><ele>554.0</ele><time>2026-05-03T11:04:31Z</time></trkpt><trkpt lat="40.906029304847365" lon="9.10281975369168"><ele>552.5</ele><time>2026-05-03T11:04:32Z</time></trkpt><trkpt lat="40.906027356505014" lon="9.10270618862735"><ele>551.0</ele><time>2026-05-03T11:04:33Z</time></trkpt><trkpt lat="40.90602414353852" lon="9.102586376943103"><ele>549.5</ele><time>2026-05-03T11:04:34Z</time></trkpt><trkpt lat="40.90602851680698" lon="9.102465965690739"><ele>548.0</ele><time>2026-05-03T11:04:35Z</time></trkpt><trkpt lat="40.906042824508056" lon="9.10234908976575"><ele>546.5</ele><time>2026-05-03T11:04:36Z</time></trkpt><trkpt lat="40.90606349788998" lon="9.10223839286437"><ele>545.0</ele><time>2026-05-03T11:04:37Z</time></trkpt><trkpt lat="40.90608961671731" lon="9.102122479139355"><ele>544.75</ele><time>2026-05-03T11:04:38Z</time></trkpt><trkpt lat="40.90612108320197" lon="9.101975013584974"><ele>544.5</ele><time>2026-05-03T11:04:39Z</time></trkpt><trkpt lat="40.906170571894265" lon="9.101804206116519"><ele>544.25</ele><time>2026-05-03T11:04:40Z</time></trkpt><trkpt lat="40.90620215968891" lon="9.101634099244075"><ele>544.0</ele><time>2026-05-03T11:04:41Z</time></trkpt><trkpt lat="40.906201128880944" lon="9.101489609171924"><ele>543.25</ele><time>2026-05-03T11:04:42Z</time></trkpt><trkpt lat="40.906162826825124" lon="9.101376903889186"><ele>542.5</ele><time>2026-05-03T11:04:43Z</time></trkpt><trkpt lat="40.90610735417212" lon="9.101252945480958"><ele>541.75</ele><time>2026-05-03T11:04:44Z</time></trkpt><trkpt lat="40.906017237677396" lon="9.10110458791718"><ele>541.0</ele><time>2026-05-03T11:04:45Z</time></trkpt><trkpt lat="40.905940241251315" lon="9.100978738792147"><ele>542.2</ele><time>2026-05-03T11:04:46Z</time></trkpt><trkpt lat="40.90586627831985" lon="9.100861648859684"><ele>543.4000000000001</ele><time>2026-05-03T11:04:47Z</time></trkpt><trkpt lat="40.905792738447076" lon="9.10077487062744"><ele>544.6</ele><time>2026-05-03T11:04:48Z</time></trkpt><trkpt lat="40.90573564757312" lon="9.100677830176643"><ele>545.8000000000001</ele><time>2026-05-03T11:04:49Z</time></trkpt><trkpt lat="40.90568013361679" lon="9.10058608026253"><ele>547.0</ele><time>2026-05-03T11:04:50Z</time></trkpt><trkpt lat="40.90562876941187" lon="9.100501394479716"><ele>547.0</ele><time>2026-05-03T11:04:51Z</time></trkpt><trkpt lat="40.90558273873139" lon="9.100424327492897"><ele>547.0</ele><time>2026-05-03T11:04:52Z</time></trkpt><trkpt lat="40.905538353495594" lon="9.10034160745623"><ele>547.0</ele><time>2026-05-03T11:04:53Z</time></trkpt><trkpt lat="40.90549836401543" lon="9.100266707128231"><ele>547.0</ele><time>2026-05-03T11:04:54Z</time></trkpt><trkpt lat="40.90545693182385" lon="9.100136169497528"><ele>547.0</ele><time>2026-05-03T11:04:56Z</time></trkpt><trkpt lat="40.905448847400244" lon="9.100011958753901"><ele>547.0</ele><time>2026-05-03T11:04:58Z</time></trkpt><trkpt lat="40.90544960279913" lon="9.099813208065603"><ele>545.75</ele><time>2026-05-03T11:05:00Z</time></trkpt><trkpt lat="40.905456614144235" lon="9.099674501681855"><ele>544.5</ele><time>2026-05-03T11:05:01Z</time></trkpt><trkpt lat="40.90546538684348" lon="9.099507291060732"><ele>543.25</ele><time>2026-05-03T11:05:02Z</time></trkpt><trkpt lat="40.905473755924845" lon="9.09932441721807"><ele>542.0</ele><time>2026-05-03T11:05:03Z</time></trkpt><trkpt lat="40.905480461559904" lon="9.099125370570716"><ele>540.6666666666666</ele><time>2026-05-03T11:05:04Z</time></trkpt><trkpt lat="40.905486981453635" lon="9.098913394316202"><ele>539.3333333333334</ele><time>2026-05-03T11:05:05Z</time></trkpt><trkpt lat="40.905494611759224" lon="9.098694405383101"><ele>538.0</ele><time>2026-05-03T11:05:06Z</time></trkpt><trkpt lat="40.90551746459109" lon="9.098497086313174"><ele>538.0</ele><time>2026-05-03T11:05:07Z</time></trkpt><trkpt lat="40.90551485958558" lon="9.098312508720726"><ele>538.0</ele><time>2026-05-03T11:05:08Z</time></trkpt><trkpt lat="40.90555103863572" lon="9.0981356660705"><ele>538.0</ele><time>2026-05-03T11:05:09Z</time></trkpt><trkpt lat="40.9056177745026" lon="9.097960927739019"><ele>538.0</ele><time>2026-05-03T11:05:10Z</time></trkpt><trkpt lat="40.90570244085699" lon="9.097790982093118"><ele>535.6666666666667</ele><time>2026-05-03T11:05:11Z</time></trkpt><trkpt lat="40.90579281970225" lon="9.09761422732122"><ele>533.3333333333334</ele><time>2026-05-03T11:05:12Z</time></trkpt><trkpt lat="40.90588527341662" lon="9.097430859552963"><ele>531.0</ele><time>2026-05-03T11:05:13Z</time></trkpt><trkpt lat="40.90597577189402" lon="9.097246651838939"><ele>529.5</ele><time>2026-05-03T11:05:14Z</time></trkpt><trkpt lat="40.906057374267284" lon="9.097076825534781"><ele>528.0</ele><time>2026-05-03T11:05:15Z</time></trkpt><trkpt lat="40.90613041348018" lon="9.0969377878787"><ele>526.5</ele><time>2026-05-03T11:05:16Z</time></trkpt><trkpt lat="40.90620813277051" lon="9.096825759178572"><ele>525.0</ele><time>2026-05-03T11:05:17Z</time></trkpt><trkpt lat="40.906310305740966" lon="9.096758564928379"><ele>525.0</ele><time>2026-05-03T11:05:18Z</time></trkpt><trkpt lat="40.906422401476455" lon="9.09676127281968"><ele>525.0</ele><time>2026-05-03T11:05:19Z</time></trkpt><trkpt lat="40.90653727599573" lon="9.09681063536581"><ele>525.0</ele><time>2026-05-03T11:05:20Z</time></trkpt><trkpt lat="40.90667226477834" lon="9.096864529334969"><ele>525.0</ele><time>2026-05-03T11:05:21Z</time></trkpt><trkpt lat="40.90681228896983" lon="9.096891978427351"><ele>524.5</ele><time>2026-05-03T11:05:22Z</time></trkpt><trkpt lat="40.906942273188065" lon="9.096875409967955"><ele>524.0</ele><time>2026-05-03T11:05:23Z</time></trkpt><trkpt lat="40.90705594987815" lon="9.096827351341549"><ele>523.5</ele><time>2026-05-03T11:05:24Z</time></trkpt><trkpt lat="40.907139355887544" lon="9.096736094143585"><ele>523.0</ele><time>2026-05-03T11:05:25Z</time></trkpt><trkpt lat="40.907185685309834" lon="9.096601096591055"><ele>520.5</ele><time>2026-05-03T11:05:26Z</time></trkpt><trkpt lat="40.9071920198932" lon="9.096448663286056"><ele>518.0</ele><time>2026-05-03T11:05:27Z</time></trkpt><trkpt lat="40.90718805657238" lon="9.096282031574233"><ele>515.5</ele><time>2026-05-03T11:05:28Z</time></trkpt><trkpt lat="40.907186440013426" lon="9.096117823435229"><ele>513.0</ele><time>2026-05-03T11:05:29Z</time></trkpt><trkpt lat="40.90721889113148" lon="9.095968910312513"><ele>513.0</ele><time>2026-05-03T11:05:30Z</time></trkpt><trkpt lat="40.90728576439325" lon="9.09584395293786"><ele>513.0</ele><time>2026-05-03T11:05:31Z</time></trkpt><trkpt lat="40.90737113281988" lon="9.09574847305876"><ele>513.0</ele><time>2026-05-03T11:05:32Z</time></trkpt><trkpt lat="40.90747153057598" lon="9.095709314965621"><ele>513.0</ele><time>2026-05-03T11:05:33Z</time></trkpt><trkpt lat="40.90756923187452" lon="9.095734502516391"><ele>513.0</ele><time>2026-05-03T11:05:34Z</time></trkpt><trkpt lat="40.90765038983234" lon="9.095818188363817"><ele>511.75</ele><time>2026-05-03T11:05:35Z</time></trkpt><trkpt lat="40.9077177948314" lon="9.095941132596048"><ele>510.5</ele><time>2026-05-03T11:05:36Z</time></trkpt><trkpt lat="40.90779254855765" lon="9.096066842461806"><ele>509.25</ele><time>2026-05-03T11:05:37Z</time></trkpt><trkpt lat="40.90790195724261" lon="9.096153237579015"><ele>508.0</ele><time>2026-05-03T11:05:38Z</time></trkpt><trkpt lat="40.90803564202748" lon="9.096175417187576"><ele>508.0</ele><time>2026-05-03T11:05:39Z</time></trkpt><trkpt lat="40.90816805428612" lon="9.096143265337702"><ele>508.0</ele><time>2026-05-03T11:05:40Z</time></trkpt><trkpt lat="40.90829698362602" lon="9.096073806316623"><ele>508.0</ele><time>2026-05-03T11:05:41Z</time></trkpt><trkpt lat="40.9084258440693" lon="9.095991858462224"><ele>508.0</ele><time>2026-05-03T11:05:42Z</time></trkpt><trkpt lat="40.908559957853285" lon="9.095941184181013"><ele>506.0</ele><time>2026-05-03T11:05:43Z</time></trkpt><trkpt lat="40.90870236610991" lon="9.09594049260816"><ele>504.0</ele><time>2026-05-03T11:05:44Z</time></trkpt><trkpt lat="40.90885440484147" lon="9.09596922119284"><ele>502.0</ele><time>2026-05-03T11:05:45Z</time></trkpt><trkpt lat="40.90901193376502" lon="9.095993471945658"><ele>502.0</ele><time>2026-05-03T11:05:46Z</time></trkpt><trkpt lat="40.909170261865626" lon="9.096013573588413"><ele>502.0</ele><time>2026-05-03T11:05:47Z</time></trkpt><trkpt lat="40.90931653584969" lon="9.096031750834387"><ele>502.0</ele><time>2026-05-03T11:05:48Z</time></trkpt><trkpt lat="40.90945447287476" lon="9.096068341841757"><ele>502.0</ele><time>2026-05-03T11:05:49Z</time></trkpt><trkpt lat="40.909589149806486" lon="9.09614003873083"><ele>499.6666666666667</ele><time>2026-05-03T11:05:50Z</time></trkpt><trkpt lat="40.90971715605844" lon="9.096240467536834"><ele>497.33333333333337</ele><time>2026-05-03T11:05:51Z</time></trkpt><trkpt lat="40.90984755439076" lon="9.096340295189574"><ele>495.0</ele><time>2026-05-03T11:05:52Z</time></trkpt><trkpt lat="40.909980261716186" lon="9.096434753046616"><ele>494.5</ele><time>2026-05-03T11:05:53Z</time></trkpt><trkpt lat="40.91010113282742" lon="9.096531380664194"><ele>494.0</ele><time>2026-05-03T11:05:54Z</time></trkpt><trkpt lat="40.91021088434281" lon="9.096641264730735"><ele>493.5</ele><time>2026-05-03T11:05:55Z</time></trkpt><trkpt lat="40.910306717655594" lon="9.09676516959926"><ele>493.0</ele><time>2026-05-03T11:05:56Z</time></trkpt><trkpt lat="40.91041674845492" lon="9.096870090771787"><ele>493.0</ele><time>2026-05-03T11:05:57Z</time></trkpt><trkpt lat="40.91054606136827" lon="9.09692893683258"><ele>493.0</ele><time>2026-05-03T11:05:58Z</time></trkpt><trkpt lat="40.91068883133194" lon="9.09694006610895"><ele>493.0</ele><time>2026-05-03T11:05:59Z</time></trkpt><trkpt lat="40.91082967345097" lon="9.096925671911672"><ele>493.0</ele><time>2026-05-03T11:06:00Z</time></trkpt><trkpt lat="40.91096132050128" lon="9.096895001131726"><ele>492.5</ele><time>2026-05-03T11:06:01Z</time></trkpt><trkpt lat="40.9110812100041" lon="9.0968266160635"><ele>492.0</ele><time>2026-05-03T11:06:02Z</time></trkpt><trkpt lat="40.91117133486062" lon="9.096700480025183"><ele>491.5</ele><time>2026-05-03T11:06:03Z</time></trkpt><trkpt lat="40.91123460860439" lon="9.096543861460859"><ele>491.0</ele><time>2026-05-03T11:06:04Z</time></trkpt><trkpt lat="40.91127962532289" lon="9.0963768900561"><ele>488.0</ele><time>2026-05-03T11:06:05Z</time></trkpt><trkpt lat="40.911348077069626" lon="9.096222571917131"><ele>485.0</ele><time>2026-05-03T11:06:06Z</time></trkpt><trkpt lat="40.91144924283439" lon="9.096115717602608"><ele>482.0</ele><time>2026-05-03T11:06:07Z</time></trkpt><trkpt lat="40.91157400619744" lon="9.096078547884886"><ele>479.0</ele><time>2026-05-03T11:06:08Z</time></trkpt><trkpt lat="40.91172302808272" lon="9.096098476371791"><ele>477.0</ele><time>2026-05-03T11:06:09Z</time></trkpt><trkpt lat="40.91187618547818" lon="9.096137193044278"><ele>475.0</ele><time>2026-05-03T11:06:10Z</time></trkpt><trkpt lat="40.91203655336098" lon="9.096178604592854"><ele>473.0</ele><time>2026-05-03T11:06:11Z</time></trkpt><trkpt lat="40.912200465190736" lon="9.096225880868102"><ele>473.0</ele><time>2026-05-03T11:06:12Z</time></trkpt><trkpt lat="40.91235438892375" lon="9.096312040958487"><ele>473.0</ele><time>2026-05-03T11:06:13Z</time></trkpt><trkpt lat="40.912494914027704" lon="9.096414584302206"><ele>473.0</ele><time>2026-05-03T11:06:14Z</time></trkpt><trkpt lat="40.912641945632465" lon="9.096484436071627"><ele>470.3333333333333</ele><time>2026-05-03T11:06:15Z</time></trkpt><trkpt lat="40.91279609215835" lon="9.096479361456055"><ele>467.66666666666663</ele><time>2026-05-03T11:06:16Z</time></trkpt><trkpt lat="40.912946078880715" lon="9.096451687054863"><ele>465.0</ele><time>2026-05-03T11:06:17Z</time></trkpt><trkpt lat="40.913105929209905" lon="9.096471094784832"><ele>465.0</ele><time>2026-05-03T11:06:18Z</time></trkpt><trkpt lat="40.91326956814666" lon="9.096535679723186"><ele>465.0</ele><time>2026-05-03T11:06:19Z</time></trkpt><trkpt lat="40.913432292072784" lon="9.09661813439057"><ele>465.0</ele><time>2026-05-03T11:06:20Z</time></trkpt><trkpt lat="40.91359993463332" lon="9.096700148815499"><ele>466.66666666666663</ele><time>2026-05-03T11:06:21Z</time></trkpt><trkpt lat="40.91376399944944" lon="9.09678230248646"><ele>468.3333333333333</ele><time>2026-05-03T11:06:22Z</time></trkpt><trkpt lat="40.913919332979724" lon="9.096847409923777"><ele>470.0</ele><time>2026-05-03T11:06:23Z</time></trkpt><trkpt lat="40.91406021921414" lon="9.096866607723097"><ele>470.0</ele><time>2026-05-03T11:06:24Z</time></trkpt><trkpt lat="40.91419567587239" lon="9.096823909593791"><ele>470.0</ele><time>2026-05-03T11:06:25Z</time></trkpt><trkpt lat="40.91432041638436" lon="9.096726522483474"><ele>470.0</ele><time>2026-05-03T11:06:26Z</time></trkpt><trkpt lat="40.914442801145825" lon="9.09661273040639"><ele>470.0</ele><time>2026-05-03T11:06:27Z</time></trkpt><trkpt lat="40.91458065105903" lon="9.096517191015897"><ele>468.3333333333333</ele><time>2026-05-03T11:06:28Z</time></trkpt><trkpt lat="40.91474160234967" lon="9.096473627584167"><ele>466.66666666666663</ele><time>2026-05-03T11:06:29Z</time></trkpt><trkpt lat="40.91491167658621" lon="9.096470031270274"><ele>465.0</ele><time>2026-05-03T11:06:30Z</time></trkpt><trkpt lat="40.91509202811779" lon="9.096468886243674"><ele>465.0</ele><time>2026-05-03T11:06:31Z</time></trkpt><trkpt lat="40.91527354296645" lon="9.096466368370185"><ele>465.0</ele><time>2026-05-03T11:06:32Z</time></trkpt><trkpt lat="40.915448472945364" lon="9.096451256047786"><ele>465.0</ele><time>2026-05-03T11:06:33Z</time></trkpt><trkpt lat="40.915609790242165" lon="9.096417419201634"><ele>465.0</ele><time>2026-05-03T11:06:34Z</time></trkpt><trkpt lat="40.91575422298139" lon="9.096347393811365"><ele>465.0</ele><time>2026-05-03T11:06:35Z</time></trkpt><trkpt lat="40.91588476169679" lon="9.096255181423315"><ele>465.0</ele><time>2026-05-03T11:06:36Z</time></trkpt><trkpt lat="40.91600889622761" lon="9.096170366580344"><ele>465.0</ele><time>2026-05-03T11:06:37Z</time></trkpt><trkpt lat="40.91612565529208" lon="9.096078717156871"><ele>465.75</ele><time>2026-05-03T11:06:38Z</time></trkpt><trkpt lat="40.9162253529821" lon="9.095961510697371"><ele>466.5</ele><time>2026-05-03T11:06:39Z</time></trkpt><trkpt lat="40.91629653753108" lon="9.09580220981851"><ele>467.25</ele><time>2026-05-03T11:06:40Z</time></trkpt><trkpt lat="40.91633052631707" lon="9.095623284601524"><ele>468.0</ele><time>2026-05-03T11:06:41Z</time></trkpt><trkpt lat="40.91636597420593" lon="9.095463308173404"><ele>465.5</ele><time>2026-05-03T11:06:42Z</time></trkpt><trkpt lat="40.916444264163886" lon="9.09534254964325"><ele>463.0</ele><time>2026-05-03T11:06:43Z</time></trkpt><trkpt lat="40.91655252711168" lon="9.095276971591044"><ele>460.5</ele><time>2026-05-03T11:06:44Z</time></trkpt><trkpt lat="40.916681871895825" lon="9.095278304805927"><ele>458.0</ele><time>2026-05-03T11:06:45Z</time></trkpt><trkpt lat="40.91682012793548" lon="9.095309729053316"><ele>457.0</ele><time>2026-05-03T11:06:46Z</time></trkpt><trkpt lat="40.916950101513685" lon="9.095382620389072"><ele>456.0</ele><time>2026-05-03T11:06:47Z</time></trkpt><trkpt lat="40.9170514685057" lon="9.095489874334623"><ele>455.0</ele><time>2026-05-03T11:06:48Z</time></trkpt><trkpt lat="40.91715374005654" lon="9.095551976757623"><ele>454.0</ele><time>2026-05-03T11:06:49Z</time></trkpt><trkpt lat="40.91726087354598" lon="9.095538822746516"><ele>454.0</ele><time>2026-05-03T11:06:50Z</time></trkpt><trkpt lat="40.91735364323956" lon="9.095456816691158"><ele>454.0</ele><time>2026-05-03T11:06:51Z</time></trkpt><trkpt lat="40.91745057901663" lon="9.095351012819739"><ele>454.0</ele><time>2026-05-03T11:06:52Z</time></trkpt><trkpt lat="40.91758252171244" lon="9.095268731899527"><ele>454.0</ele><time>2026-05-03T11:06:53Z</time></trkpt><trkpt lat="40.91773636881241" lon="9.095206366530016"><ele>455.0</ele><time>2026-05-03T11:06:54Z</time></trkpt><trkpt lat="40.917909600513724" lon="9.095146539003307"><ele>456.0</ele><time>2026-05-03T11:06:55Z</time></trkpt><trkpt lat="40.918095061162084" lon="9.095090415204162"><ele>457.0</ele><time>2026-05-03T11:06:56Z</time></trkpt><trkpt lat="40.91828767139342" lon="9.0950213522628"><ele>458.0</ele><time>2026-05-03T11:06:57Z</time></trkpt><trkpt lat="40.91848592546411" lon="9.094950481820494"><ele>459.0</ele><time>2026-05-03T11:06:58Z</time></trkpt><trkpt lat="40.918671061559294" lon="9.094893228339442"><ele>460.0</ele><time>2026-05-03T11:06:59Z</time></trkpt><trkpt lat="40.918848346548444" lon="9.094835759301775"><ele>456.0</ele><time>2026-05-03T11:07:00Z</time></trkpt><trkpt lat="40.91901403333026" lon="9.094773998308659"><ele>452.0</ele><time>2026-05-03T11:07:01Z</time></trkpt><trkpt lat="40.91917440674176" lon="9.094699004603735"><ele>448.0</ele><time>2026-05-03T11:07:02Z</time></trkpt><trkpt lat="40.919320730429305" lon="9.09457748853151"><ele>448.0</ele><time>2026-05-03T11:07:03Z</time></trkpt><trkpt lat="40.919434547993305" lon="9.094400031120752"><ele>448.0</ele><time>2026-05-03T11:07:04Z</time></trkpt><trkpt lat="40.91953846969379" lon="9.094247062971894"><ele>448.0</ele><time>2026-05-03T11:07:05Z</time></trkpt><trkpt lat="40.919646837847786" lon="9.094138780759776"><ele>448.0</ele><time>2026-05-03T11:07:06Z</time></trkpt><trkpt lat="40.91977343774707" lon="9.09412763861543"><ele>448.0</ele><time>2026-05-03T11:07:07Z</time></trkpt><trkpt lat="40.91991224562447" lon="9.094125621850276"><ele>448.0</ele><time>2026-05-03T11:07:08Z</time></trkpt><trkpt lat="40.920065339040434" lon="9.094120053134905"><ele>448.0</ele><time>2026-05-03T11:07:09Z</time></trkpt><trkpt lat="40.920205329234584" lon="9.094107463660453"><ele>445.33333333333337</ele><time>2026-05-03T11:07:10Z</time></trkpt><trkpt lat="40.92034731763919" lon="9.09405002065426"><ele>442.66666666666663</ele><time>2026-05-03T11:07:11Z</time></trkpt><trkpt lat="40.920468032759594" lon="9.09390506586612"><ele>440.0</ele><time>2026-05-03T11:07:12Z</time></trkpt><trkpt lat="40.92057802039798" lon="9.093752730052072"><ele>440.0</ele><time>2026-05-03T11:07:13Z</time></trkpt><trkpt lat="40.92066847437791" lon="9.09360812750468"><ele>440.0</ele><time>2026-05-03T11:07:14Z</time></trkpt><trkpt lat="40.92076607821738" lon="9.09352908698537"><ele>440.0</ele><time>2026-05-03T11:07:15Z</time></trkpt><trkpt lat="40.920880385876174" lon="9.093483487521976"><ele>440.0</ele><time>2026-05-03T11:07:16Z</time></trkpt><trkpt lat="40.92101905163578" lon="9.093473304728265"><ele>440.66666666666663</ele><time>2026-05-03T11:07:17Z</time></trkpt><trkpt lat="40.921180024236385" lon="9.09346002944317"><ele>441.33333333333337</ele><time>2026-05-03T11:07:18Z</time></trkpt><trkpt lat="40.92134618829234" lon="9.093434966198684"><ele>442.0</ele><time>2026-05-03T11:07:19Z</time></trkpt><trkpt lat="40.92149322403252" lon="9.09342264316103"><ele>442.0</ele><time>2026-05-03T11:07:20Z</time></trkpt><trkpt lat="40.921627757991736" lon="9.093410459566423"><ele>442.0</ele><time>2026-05-03T11:07:21Z</time></trkpt><trkpt lat="40.92174872502792" lon="9.093371051783993"><ele>442.0</ele><time>2026-05-03T11:07:22Z</time></trkpt><trkpt lat="40.921846411827254" lon="9.093267254066667"><ele>442.0</ele><time>2026-05-03T11:07:23Z</time></trkpt><trkpt lat="40.921916631621635" lon="9.093108645841792"><ele>442.25</ele><time>2026-05-03T11:07:24Z</time></trkpt><trkpt lat="40.92197407566012" lon="9.092928409704635"><ele>442.5</ele><time>2026-05-03T11:07:25Z</time></trkpt><trkpt lat="40.92202538183175" lon="9.092746744507771"><ele>442.75</ele><time>2026-05-03T11:07:26Z</time></trkpt><trkpt lat="40.92208952139736" lon="9.092585882156046"><ele>443.0</ele><time>2026-05-03T11:07:27Z</time></trkpt><trkpt lat="40.92218977384907" lon="9.09245770639117"><ele>438.66666666666663</ele><time>2026-05-03T11:07:28Z</time></trkpt><trkpt lat="40.92232452811828" lon="9.092354602170229"><ele>434.33333333333337</ele><time>2026-05-03T11:07:29Z</time></trkpt><trkpt lat="40.92247216345449" lon="9.092267799087653"><ele>430.0</ele><time>2026-05-03T11:07:30Z</time></trkpt><trkpt lat="40.922634277160704" lon="9.092183913466702"><ele>430.0</ele><time>2026-05-03T11:07:31Z</time></trkpt><trkpt lat="40.92280911806053" lon="9.092119028158452"><ele>430.0</ele><time>2026-05-03T11:07:32Z</time></trkpt><trkpt lat="40.92298952482693" lon="9.092051038031954"><ele>430.0</ele><time>2026-05-03T11:07:33Z</time></trkpt><trkpt lat="40.92315110460251" lon="9.091985352923325"><ele>430.0</ele><time>2026-05-03T11:07:34Z</time></trkpt><trkpt lat="40.923285190447" lon="9.091924664347786"><ele>430.0</ele><time>2026-05-03T11:07:35Z</time></trkpt><trkpt lat="40.92339528640412" lon="9.091888301323902"><ele>430.0</ele><time>2026-05-03T11:07:36Z</time></trkpt><trkpt lat="40.923494691071625" lon="9.091908483053427"><ele>430.0</ele><time>2026-05-03T11:07:37Z</time></trkpt><trkpt lat="40.92358034777479" lon="9.091996106811997"><ele>429.6666666666667</ele><time>2026-05-03T11:07:38Z</time></trkpt><trkpt lat="40.923660326758906" lon="9.092138174620327"><ele>429.33333333333337</ele><time>2026-05-03T11:07:39Z</time></trkpt><trkpt lat="40.92374640202516" lon="9.092306445125725"><ele>429.0</ele><time>2026-05-03T11:07:40Z</time></trkpt><trkpt lat="40.92384721883215" lon="9.092486183276309"><ele>429.0</ele><time>2026-05-03T11:07:41Z</time></trkpt><trkpt lat="40.92395750541091" lon="9.092673597016065"><ele>429.0</ele><time>2026-05-03T11:07:42Z</time></trkpt><trkpt lat="40.92405945963473" lon="9.092853232012676"><ele>429.0</ele><time>2026-05-03T11:07:43Z</time></trkpt><trkpt lat="40.92415277834903" lon="9.093018497859791"><ele>430.0</ele><time>2026-05-03T11:07:44Z</time></trkpt><trkpt lat="40.924239704581645" lon="9.093155224580759"><ele>431.0</ele><time>2026-05-03T11:07:45Z</time></trkpt><trkpt lat="40.924341929490495" lon="9.093247412368404"><ele>432.0</ele><time>2026-05-03T11:07:46Z</time></trkpt><trkpt lat="40.92446015920864" lon="9.093273374651123"><ele>433.0</ele><time>2026-05-03T11:07:47Z</time></trkpt><trkpt lat="40.924570191085515" lon="9.09323461366252"><ele>433.0</ele><time>2026-05-03T11:07:48Z</time></trkpt><trkpt lat="40.92466944733348" lon="9.093192441917793"><ele>433.0</ele><time>2026-05-03T11:07:49Z</time></trkpt><trkpt lat="40.92476790819834" lon="9.093208830890719"><ele>433.0</ele><time>2026-05-03T11:07:50Z</time></trkpt><trkpt lat="40.924856306560564" lon="9.093303116309608"><ele>433.0</ele><time>2026-05-03T11:07:51Z</time></trkpt><trkpt lat="40.9249375940527" lon="9.093442986455994"><ele>433.0</ele><time>2026-05-03T11:07:52Z</time></trkpt><trkpt lat="40.92503380763838" lon="9.093604680326104"><ele>433.0</ele><time>2026-05-03T11:07:53Z</time></trkpt><trkpt lat="40.92513969511873" lon="9.093778485985277"><ele>433.0</ele><time>2026-05-03T11:07:54Z</time></trkpt><trkpt lat="40.92525905500158" lon="9.093960403144354"><ele>432.6666666666667</ele><time>2026-05-03T11:07:55Z</time></trkpt><trkpt lat="40.92538196546516" lon="9.094154288178416"><ele>432.33333333333337</ele><time>2026-05-03T11:07:56Z</time></trkpt><trkpt lat="40.92550910955716" lon="9.094359272933387"><ele>432.0</ele><time>2026-05-03T11:07:57Z</time></trkpt><trkpt lat="40.92563985873776" lon="9.09456783694314"><ele>432.0</ele><time>2026-05-03T11:07:58Z</time></trkpt><trkpt lat="40.925771102281566" lon="9.094761238553607"><ele>432.0</ele><time>2026-05-03T11:07:59Z</time></trkpt><trkpt lat="40.92588336866484" lon="9.094941433037365"><ele>432.0</ele><time>2026-05-03T11:08:00Z</time></trkpt><trkpt lat="40.925993785893766" lon="9.095107408219283"><ele>432.25</ele><time>2026-05-03T11:08:01Z</time></trkpt><trkpt lat="40.92609391803092" lon="9.095264645317384"><ele>432.5</ele><time>2026-05-03T11:08:02Z</time></trkpt><trkpt lat="40.926179226925704" lon="9.095408171134183"><ele>432.75</ele><time>2026-05-03T11:08:03Z</time></trkpt><trkpt lat="40.92626799724544" lon="9.095530345749172"><ele>433.0</ele><time>2026-05-03T11:08:04Z</time></trkpt><trkpt lat="40.926360989082134" lon="9.095629586198912"><ele>433.0</ele><time>2026-05-03T11:08:05Z</time></trkpt><trkpt lat="40.92646655773823" lon="9.095662244652368"><ele>433.0</ele><time>2026-05-03T11:08:06Z</time></trkpt><trkpt lat="40.926601381958335" lon="9.095667195929252"><ele>433.0</ele><time>2026-05-03T11:08:07Z</time></trkpt><trkpt lat="40.926747679237465" lon="9.09566030321975"><ele>433.0</ele><time>2026-05-03T11:08:08Z</time></trkpt><trkpt lat="40.92690637359632" lon="9.095645029022105"><ele>433.6666666666667</ele><time>2026-05-03T11:08:09Z</time></trkpt><trkpt lat="40.92706465716928" lon="9.09563210149646"><ele>434.33333333333337</ele><time>2026-05-03T11:08:10Z</time></trkpt><trkpt lat="40.92722317299231" lon="9.09562374016745"><ele>435.0</ele><time>2026-05-03T11:08:11Z</time></trkpt><trkpt lat="40.92736083188481" lon="9.095635093930559"><ele>435.0</ele><time>2026-05-03T11:08:12Z</time></trkpt><trkpt lat="40.92751314778988" lon="9.095675350825005"><ele>435.0</ele><time>2026-05-03T11:08:13Z</time></trkpt><trkpt lat="40.927686713588834" lon="9.095744499368912"><ele>435.0</ele><time>2026-05-03T11:08:14Z</time></trkpt><trkpt lat="40.92786870188483" lon="9.09583245877986"><ele>435.0</ele><time>2026-05-03T11:08:15Z</time></trkpt><trkpt lat="40.928059782350424" lon="9.09592352739268"><ele>435.0</ele><time>2026-05-03T11:08:16Z</time></trkpt><trkpt lat="40.92825531368295" lon="9.096018177447169"><ele>435.0</ele><time>2026-05-03T11:08:17Z</time></trkpt><trkpt lat="40.92844794408522" lon="9.096110580520495"><ele>436.66666666666663</ele><time>2026-05-03T11:08:18Z</time></trkpt><trkpt lat="40.92863526441708" lon="9.096197765612333"><ele>438.3333333333333</ele><time>2026-05-03T11:08:19Z</time></trkpt><trkpt lat="40.92882336198367" lon="9.096283368288425"><ele>440.0</ele><time>2026-05-03T11:08:20Z</time></trkpt><trkpt lat="40.9290131818499" lon="9.096369719954572"><ele>440.0</ele><time>2026-05-03T11:08:21Z</time></trkpt><trkpt lat="40.92920569890562" lon="9.096457851472978"><ele>440.0</ele><time>2026-05-03T11:08:22Z</time></trkpt><trkpt lat="40.92940081570172" lon="9.09654382758361"><ele>440.0</ele><time>2026-05-03T11:08:23Z</time></trkpt><trkpt lat="40.929603326022" lon="9.096628191917238"><ele>440.0</ele><time>2026-05-03T11:08:24Z</time></trkpt><trkpt lat="40.929809278718736" lon="9.096704259877283"><ele>440.0</ele><time>2026-05-03T11:08:25Z</time></trkpt><trkpt lat="40.9300142725444" lon="9.096764253724535"><ele>440.0</ele><time>2026-05-03T11:08:26Z</time></trkpt><trkpt lat="40.93021705672992" lon="9.09681261458191"><ele>439.66666666666663</ele><time>2026-05-03T11:08:27Z</time></trkpt><trkpt lat="40.93041746110892" lon="9.096854970681154"><ele>439.33333333333337</ele><time>2026-05-03T11:08:28Z</time></trkpt><trkpt lat="40.930617905653655" lon="9.096885258607173"><ele>439.0</ele><time>2026-05-03T11:08:29Z</time></trkpt><trkpt lat="40.930817494659394" lon="9.096907737093614"><ele>437.6666666666667</ele><time>2026-05-03T11:08:30Z</time></trkpt><trkpt lat="40.931021336320114" lon="9.096919317299715"><ele>436.33333333333337</ele><time>2026-05-03T11:08:31Z</time></trkpt><trkpt lat="40.931231699347144" lon="9.096916258914368"><ele>435.0</ele><time>2026-05-03T11:08:32Z</time></trkpt><trkpt lat="40.93144524640222" lon="9.096895638242637"><ele>435.0</ele><time>2026-05-03T11:08:33Z</time></trkpt><trkpt lat="40.93166430541388" lon="9.09685780623796"><ele>435.0</ele><time>2026-05-03T11:08:34Z</time></trkpt><trkpt lat="40.93188599017403" lon="9.096805886379402"><ele>435.0</ele><time>2026-05-03T11:08:35Z</time></trkpt><trkpt lat="40.93210960402111" lon="9.09673977323509"><ele>430.0</ele><time>2026-05-03T11:08:36Z</time></trkpt><trkpt lat="40.93233543630233" lon="9.096660901877517"><ele>425.0</ele><time>2026-05-03T11:08:37Z</time></trkpt><trkpt lat="40.93256429778278" lon="9.096565397478162"><ele>422.0</ele><time>2026-05-03T11:08:38Z</time></trkpt><trkpt lat="40.93279092151093" lon="9.096450494110197"><ele>419.0</ele><time>2026-05-03T11:08:39Z</time></trkpt><trkpt lat="40.93301144108896" lon="9.096321151098618"><ele>419.0</ele><time>2026-05-03T11:08:40Z</time></trkpt><trkpt lat="40.93322960988225" lon="9.096174616916906"><ele>419.0</ele><time>2026-05-03T11:08:41Z</time></trkpt><trkpt lat="40.93344204427073" lon="9.096021821609071"><ele>415.5</ele><time>2026-05-03T11:08:42Z</time></trkpt><trkpt lat="40.933649382165505" lon="9.095865336127094"><ele>412.0</ele><time>2026-05-03T11:08:43Z</time></trkpt><trkpt lat="40.93384956972501" lon="9.095709940624152"><ele>412.0</ele><time>2026-05-03T11:08:44Z</time></trkpt><trkpt lat="40.93404608696768" lon="9.095552866287498"><ele>412.0</ele><time>2026-05-03T11:08:45Z</time></trkpt><trkpt lat="40.93424050525702" lon="9.095400496803556"><ele>416.0</ele><time>2026-05-03T11:08:46Z</time></trkpt><trkpt lat="40.934432941117095" lon="9.095250517266871"><ele>420.0</ele><time>2026-05-03T11:08:47Z</time></trkpt><trkpt lat="40.934625861717585" lon="9.095100144480785"><ele>424.0</ele><time>2026-05-03T11:08:48Z</time></trkpt><trkpt lat="40.93481980366615" lon="9.094946397604208"><ele>424.0</ele><time>2026-05-03T11:08:49Z</time></trkpt><trkpt lat="40.9350164715905" lon="9.094789525609462"><ele>424.0</ele><time>2026-05-03T11:08:50Z</time></trkpt><trkpt lat="40.9352158034292" lon="9.094634116337376"><ele>429.0</ele><time>2026-05-03T11:08:51Z</time></trkpt><trkpt lat="40.93541921251149" lon="9.094483813436659"><ele>434.0</ele><time>2026-05-03T11:08:52Z</time></trkpt><trkpt lat="40.935627514901924" lon="9.094342550309564"><ele>434.0</ele><time>2026-05-03T11:08:53Z</time></trkpt><trkpt lat="40.93584329698999" lon="9.094212298432016"><ele>434.0</ele><time>2026-05-03T11:08:54Z</time></trkpt><trkpt lat="40.93606471856483" lon="9.094090147056244"><ele>432.0</ele><time>2026-05-03T11:08:55Z</time></trkpt><trkpt lat="40.93629014514056" lon="9.093976586471374"><ele>430.0</ele><time>2026-05-03T11:08:56Z</time></trkpt><trkpt lat="40.9365209664918" lon="9.09387164269627"><ele>430.0</ele><time>2026-05-03T11:08:57Z</time></trkpt><trkpt lat="40.93675489176856" lon="9.093777435990772"><ele>430.0</ele><time>2026-05-03T11:08:58Z</time></trkpt><trkpt lat="40.93698875026328" lon="9.09369414048057"><ele>430.0</ele><time>2026-05-03T11:08:59Z</time></trkpt><trkpt lat="40.93721936994781" lon="9.093617457420404"><ele>430.0</ele><time>2026-05-03T11:09:00Z</time></trkpt><trkpt lat="40.93744745975645" lon="9.093549790338113"><ele>431.5</ele><time>2026-05-03T11:09:01Z</time></trkpt><trkpt lat="40.937673089015085" lon="9.093493580992384"><ele>433.0</ele><time>2026-05-03T11:09:02Z</time></trkpt><trkpt lat="40.937899435433636" lon="9.093452989366254"><ele>433.0</ele><time>2026-05-03T11:09:03Z</time></trkpt><trkpt lat="40.93812661679026" lon="9.093424649207723"><ele>433.0</ele><time>2026-05-03T11:09:04Z</time></trkpt><trkpt lat="40.938358637201716" lon="9.093402704545948"><ele>435.5</ele><time>2026-05-03T11:09:05Z</time></trkpt><trkpt lat="40.9385608558841" lon="9.093491814633964"><ele>438.0</ele><time>2026-05-03T11:09:06Z</time></trkpt><trkpt lat="40.93883373564215" lon="9.093358526868352"><ele>438.0</ele><time>2026-05-03T11:09:07Z</time></trkpt><trkpt lat="40.9390748458764" lon="9.093330092349786"><ele>438.0</ele><time>2026-05-03T11:09:08Z</time></trkpt><trkpt lat="40.93931132744921" lon="9.09330298362285"><ele>440.0</ele><time>2026-05-03T11:09:09Z</time></trkpt><trkpt lat="40.93954581377173" lon="9.093277639017163"><ele>442.0</ele><time>2026-05-03T11:09:10Z</time></trkpt><trkpt lat="40.9397783236719" lon="9.093249796288834"><ele>443.5</ele><time>2026-05-03T11:09:11Z</time></trkpt><trkpt lat="40.94000856841975" lon="9.093225309293171"><ele>445.0</ele><time>2026-05-03T11:09:12Z</time></trkpt><trkpt lat="40.94023883936083" lon="9.093200208208302"><ele>445.0</ele><time>2026-05-03T11:09:13Z</time></trkpt><trkpt lat="40.94046774413287" lon="9.093174319804204"><ele>445.0</ele><time>2026-05-03T11:09:14Z</time></trkpt><trkpt lat="40.94067990135292" lon="9.093150563958828"><ele>445.0</ele><time>2026-05-03T11:09:15Z</time></trkpt><trkpt lat="40.940882302847385" lon="9.09313097342085"><ele>442.0</ele><time>2026-05-03T11:09:16Z</time></trkpt><trkpt lat="40.941033925917935" lon="9.09311568758887"><ele>439.0</ele><time>2026-05-03T11:09:17Z</time></trkpt><trkpt lat="40.941196395421805" lon="9.093096900707286"><ele>436.0</ele><time>2026-05-03T11:09:18Z</time></trkpt><trkpt lat="40.94135078893146" lon="9.093071378800019"><ele>436.0</ele><time>2026-05-03T11:09:19Z</time></trkpt><trkpt lat="40.941497095284824" lon="9.093019548922019"><ele>436.0</ele><time>2026-05-03T11:09:20Z</time></trkpt><trkpt lat="40.941632967547314" lon="9.092940551341618"><ele>436.0</ele><time>2026-05-03T11:09:21Z</time></trkpt><trkpt lat="40.941759549876345" lon="9.092802888483313"><ele>432.6666666666667</ele><time>2026-05-03T11:09:22Z</time></trkpt><trkpt lat="40.941880012874506" lon="9.092624737848825"><ele>429.33333333333337</ele><time>2026-05-03T11:09:23Z</time></trkpt><trkpt lat="40.94198908749415" lon="9.09243897081946"><ele>426.0</ele><time>2026-05-03T11:09:24Z</time></trkpt><trkpt lat="40.94209528712282" lon="9.092262496873003"><ele>426.0</ele><time>2026-05-03T11:09:25Z</time></trkpt><trkpt lat="40.942186721778796" lon="9.092072374052497"><ele>426.0</ele><time>2026-05-03T11:09:26Z</time></trkpt><trkpt lat="40.94225242858897" lon="9.091867836401144"><ele>426.0</ele><time>2026-05-03T11:09:27Z</time></trkpt><trkpt lat="40.942280429099846" lon="9.09165448100322"><ele>426.5</ele><time>2026-05-03T11:09:28Z</time></trkpt><trkpt lat="40.942267783464025" lon="9.09145592879993"><ele>427.0</ele><time>2026-05-03T11:09:29Z</time></trkpt><trkpt lat="40.94224506354001" lon="9.091295697320732"><ele>427.5</ele><time>2026-05-03T11:09:30Z</time></trkpt><trkpt lat="40.942238649469424" lon="9.091174121034626"><ele>428.0</ele><time>2026-05-03T11:09:31Z</time></trkpt><trkpt lat="40.942286283125235" lon="9.091051222549034"><ele>428.0</ele><time>2026-05-03T11:09:32Z</time></trkpt><trkpt lat="40.94237152233177" lon="9.090988996235565"><ele>427.99999999999994</ele><time>2026-05-03T11:09:33Z</time></trkpt><trkpt lat="40.942472871295394" lon="9.090998199973715"><ele>427.99999999999994</ele><time>2026-05-03T11:09:34Z</time></trkpt><trkpt lat="40.9425699157118" lon="9.09106307056617"><ele>428.0</ele><time>2026-05-03T11:09:35Z</time></trkpt><trkpt lat="40.94264509297922" lon="9.091198280467927"><ele>428.0</ele><time>2026-05-03T11:09:36Z</time></trkpt><trkpt lat="40.94270678061926" lon="9.091362592408343"><ele>427.66666666666663</ele><time>2026-05-03T11:09:37Z</time></trkpt><trkpt lat="40.94277643430027" lon="9.091563798294944"><ele>427.33333333333337</ele><time>2026-05-03T11:09:38Z</time></trkpt><trkpt lat="40.94285680759075" lon="9.09176493505169"><ele>427.0</ele><time>2026-05-03T11:09:39Z</time></trkpt><trkpt lat="40.94293974438143" lon="9.091947826867342"><ele>427.0</ele><time>2026-05-03T11:09:40Z</time></trkpt><trkpt lat="40.94301940637926" lon="9.092096714256282"><ele>427.0</ele><time>2026-05-03T11:09:41Z</time></trkpt><trkpt lat="40.94312097296466" lon="9.092206299992835"><ele>427.0</ele><time>2026-05-03T11:09:42Z</time></trkpt><trkpt lat="40.94324033570376" lon="9.092242961441068"><ele>427.0</ele><time>2026-05-03T11:09:43Z</time></trkpt><trkpt lat="40.943362135379985" lon="9.092211662632893"><ele>426.5</ele><time>2026-05-03T11:09:44Z</time></trkpt><trkpt lat="40.943496945611045" lon="9.09212449219797"><ele>426.0</ele><time>2026-05-03T11:09:45Z</time></trkpt><trkpt lat="40.94362516699696" lon="9.092017867194235"><ele>425.5</ele><time>2026-05-03T11:09:46Z</time></trkpt><trkpt lat="40.94374856727766" lon="9.091922346907785"><ele>425.0</ele><time>2026-05-03T11:09:47Z</time></trkpt><trkpt lat="40.943866540773364" lon="9.091855050390896"><ele>425.0</ele><time>2026-05-03T11:09:48Z</time></trkpt><trkpt lat="40.94398893804946" lon="9.09186678025148"><ele>425.0</ele><time>2026-05-03T11:09:49Z</time></trkpt><trkpt lat="40.94408314189344" lon="9.091965994245372"><ele>425.0</ele><time>2026-05-03T11:09:50Z</time></trkpt><trkpt lat="40.94413530445995" lon="9.0921071969521"><ele>425.0</ele><time>2026-05-03T11:09:51Z</time></trkpt><trkpt lat="40.944162810678655" lon="9.092282779170283"><ele>424.66666666666663</ele><time>2026-05-03T11:09:52Z</time></trkpt><trkpt lat="40.944187274941015" lon="9.092509958715828"><ele>424.33333333333337</ele><time>2026-05-03T11:09:53Z</time></trkpt><trkpt lat="40.94424335997837" lon="9.092722609164168"><ele>424.0</ele><time>2026-05-03T11:09:54Z</time></trkpt><trkpt lat="40.94432306455694" lon="9.092950321177492"><ele>424.0</ele><time>2026-05-03T11:09:55Z</time></trkpt><trkpt lat="40.944415462460846" lon="9.093159177209019"><ele>424.0</ele><time>2026-05-03T11:09:56Z</time></trkpt><trkpt lat="40.94451868875222" lon="9.09330442939994"><ele>424.0</ele><time>2026-05-03T11:09:57Z</time></trkpt><trkpt lat="40.94464366916696" lon="9.093380726193235"><ele>423.25</ele><time>2026-05-03T11:09:58Z</time></trkpt><trkpt lat="40.944783137748736" lon="9.093397881979786"><ele>422.5</ele><time>2026-05-03T11:09:59Z</time></trkpt><trkpt lat="40.94492891246288" lon="9.093349050234957"><ele>421.75</ele><time>2026-05-03T11:10:00Z</time></trkpt><trkpt lat="40.94506234839227" lon="9.093244716646527"><ele>421.0</ele><time>2026-05-03T11:10:01Z</time></trkpt><trkpt lat="40.945163023420335" lon="9.09308529632983"><ele>419.0</ele><time>2026-05-03T11:10:02Z</time></trkpt><trkpt lat="40.94522250151164" lon="9.092896581417502"><ele>417.0</ele><time>2026-05-03T11:10:03Z</time></trkpt><trkpt lat="40.94526413548435" lon="9.0926751792357"><ele>415.0</ele><time>2026-05-03T11:10:04Z</time></trkpt><trkpt lat="40.94530477309556" lon="9.09247553081829"><ele>417.33333333333337</ele><time>2026-05-03T11:10:05Z</time></trkpt><trkpt lat="40.94536016920458" lon="9.092290604897764"><ele>419.66666666666663</ele><time>2026-05-03T11:10:06Z</time></trkpt><trkpt lat="40.94544940528436" lon="9.092134769381426"><ele>422.0</ele><time>2026-05-03T11:10:07Z</time></trkpt><trkpt lat="40.94557619212312" lon="9.092022682398905"><ele>422.0</ele><time>2026-05-03T11:10:08Z</time></trkpt><trkpt lat="40.94573012559528" lon="9.091926002590787"><ele>422.0</ele><time>2026-05-03T11:10:09Z</time></trkpt><trkpt lat="40.945872693597956" lon="9.091836388923097"><ele>422.0</ele><time>2026-05-03T11:10:10Z</time></trkpt><trkpt lat="40.946003782925224" lon="9.0917722198402"><ele>421.25</ele><time>2026-05-03T11:10:11Z</time></trkpt><trkpt lat="40.94614101000625" lon="9.091700757114191"><ele>420.5</ele><time>2026-05-03T11:10:12Z</time></trkpt><trkpt lat="40.94626528856254" lon="9.09161917362928"><ele>419.75</ele><time>2026-05-03T11:10:13Z</time></trkpt><trkpt lat="40.94639189418914" lon="9.091510669795616"><ele>419.0</ele><time>2026-05-03T11:10:14Z</time></trkpt><trkpt lat="40.94651699969995" lon="9.0913612530594"><ele>419.0</ele><time>2026-05-03T11:10:15Z</time></trkpt><trkpt lat="40.94663659849123" lon="9.091197014962075"><ele>419.0</ele><time>2026-05-03T11:10:16Z</time></trkpt><trkpt lat="40.946742162092974" lon="9.091019288608825"><ele>419.0</ele><time>2026-05-03T11:10:17Z</time></trkpt><trkpt lat="40.94682857099067" lon="9.090849770322267"><ele>418.5</ele><time>2026-05-03T11:10:18Z</time></trkpt><trkpt lat="40.946872947834535" lon="9.090660964192747"><ele>418.0</ele><time>2026-05-03T11:10:19Z</time></trkpt><trkpt lat="40.946906852320005" lon="9.090497319677779"><ele>417.5</ele><time>2026-05-03T11:10:20Z</time></trkpt><trkpt lat="40.94695028312561" lon="9.090365277195653"><ele>417.0</ele><time>2026-05-03T11:10:21Z</time></trkpt><trkpt lat="40.947027959615156" lon="9.090275551072462"><ele>417.0</ele><time>2026-05-03T11:10:22Z</time></trkpt><trkpt lat="40.94713530014036" lon="9.090243636210728"><ele>417.0</ele><time>2026-05-03T11:10:23Z</time></trkpt><trkpt lat="40.94725318377914" lon="9.090278229984651"><ele>417.0</ele><time>2026-05-03T11:10:24Z</time></trkpt><trkpt lat="40.947357304658446" lon="9.090384458685591"><ele>417.0</ele><time>2026-05-03T11:10:25Z</time></trkpt><trkpt lat="40.94741308802554" lon="9.090535749704715"><ele>417.0</ele><time>2026-05-03T11:10:26Z</time></trkpt><trkpt lat="40.94743803729862" lon="9.090720638738294"><ele>417.0</ele><time>2026-05-03T11:10:27Z</time></trkpt><trkpt lat="40.94747731162662" lon="9.090904585149765"><ele>417.0</ele><time>2026-05-03T11:10:28Z</time></trkpt><trkpt lat="40.94755092632048" lon="9.091078964068325"><ele>417.0</ele><time>2026-05-03T11:10:29Z</time></trkpt><trkpt lat="40.94766175539654" lon="9.091220237846738"><ele>419.0</ele><time>2026-05-03T11:10:30Z</time></trkpt><trkpt lat="40.94776483052532" lon="9.091354713594294"><ele>421.0</ele><time>2026-05-03T11:10:31Z</time></trkpt><trkpt lat="40.9478160833125" lon="9.09148679405411"><ele>423.0</ele><time>2026-05-03T11:10:32Z</time></trkpt><trkpt lat="40.94780409075011" lon="9.091650446140322"><ele>425.0</ele><time>2026-05-03T11:10:33Z</time></trkpt><trkpt lat="40.94779307995502" lon="9.09182752969472"><ele>425.25</ele><time>2026-05-03T11:10:34Z</time></trkpt><trkpt lat="40.94784031613894" lon="9.09199276179267"><ele>425.5</ele><time>2026-05-03T11:10:35Z</time></trkpt><trkpt lat="40.947923610121" lon="9.092161444014746"><ele>425.75</ele><time>2026-05-03T11:10:36Z</time></trkpt><trkpt lat="40.9479871467958" lon="9.09234290065506"><ele>426.0</ele><time>2026-05-03T11:10:37Z</time></trkpt><trkpt lat="40.948002018002995" lon="9.092557333111651"><ele>426.66666666666663</ele><time>2026-05-03T11:10:38Z</time></trkpt><trkpt lat="40.94800791187585" lon="9.092779869187947"><ele>427.3333333333333</ele><time>2026-05-03T11:10:39Z</time></trkpt><trkpt lat="40.9480369712061" lon="9.09301827016696"><ele>428.0</ele><time>2026-05-03T11:10:40Z</time></trkpt><trkpt lat="40.94808772577652" lon="9.093253727570275"><ele>428.0</ele><time>2026-05-03T11:10:41Z</time></trkpt><trkpt lat="40.94816643062835" lon="9.093484654336892"><ele>428.0</ele><time>2026-05-03T11:10:42Z</time></trkpt><trkpt lat="40.94827257651638" lon="9.093705627320906"><ele>428.0</ele><time>2026-05-03T11:10:43Z</time></trkpt><trkpt lat="40.94838595612656" lon="9.093929212196107"><ele>429.3333333333333</ele><time>2026-05-03T11:10:44Z</time></trkpt><trkpt lat="40.94848729667983" lon="9.0941396890215"><ele>430.66666666666663</ele><time>2026-05-03T11:10:45Z</time></trkpt><trkpt lat="40.94857804458312" lon="9.094327512997669"><ele>432.0</ele><time>2026-05-03T11:10:46Z</time></trkpt><trkpt lat="40.94867869189899" lon="9.094493924388109"><ele>432.0</ele><time>2026-05-03T11:10:47Z</time></trkpt><trkpt lat="40.94881161652189" lon="9.094651707579489"><ele>432.0</ele><time>2026-05-03T11:10:48Z</time></trkpt><trkpt lat="40.948967615612176" lon="9.094800596108586"><ele>432.0</ele><time>2026-05-03T11:10:49Z</time></trkpt><trkpt lat="40.94913058371599" lon="9.094956131311282"><ele>431.33333333333337</ele><time>2026-05-03T11:10:50Z</time></trkpt><trkpt lat="40.94929998349433" lon="9.09511924096533"><ele>430.6666666666667</ele><time>2026-05-03T11:10:51Z</time></trkpt><trkpt lat="40.94947132534221" lon="9.0952953539713"><ele>430.0</ele><time>2026-05-03T11:10:52Z</time></trkpt><trkpt lat="40.949647981380814" lon="9.095475854875028"><ele>430.0</ele><time>2026-05-03T11:10:53Z</time></trkpt><trkpt lat="40.949834154206954" lon="9.09565788291945"><ele>430.0</ele><time>2026-05-03T11:10:54Z</time></trkpt><trkpt lat="40.95002081610152" lon="9.09584220718904"><ele>429.6666666666667</ele><time>2026-05-03T11:10:55Z</time></trkpt><trkpt lat="40.950195098078474" lon="9.096011926796887"><ele>429.33333333333337</ele><time>2026-05-03T11:10:56Z</time></trkpt><trkpt lat="40.95035070943496" lon="9.09617183106279"><ele>429.0</ele><time>2026-05-03T11:10:57Z</time></trkpt><trkpt lat="40.95049345707101" lon="9.096312716712005"><ele>429.0</ele><time>2026-05-03T11:10:58Z</time></trkpt><trkpt lat="40.95062103049012" lon="9.096431218554097"><ele>429.0</ele><time>2026-05-03T11:10:59Z</time></trkpt><trkpt lat="40.95074789260936" lon="9.096523059329144"><ele>429.0</ele><time>2026-05-03T11:11:00Z</time></trkpt><trkpt lat="40.950890896414144" lon="9.096566249576984"><ele>429.0</ele><time>2026-05-03T11:11:01Z</time></trkpt><trkpt lat="40.95104511585088" lon="9.09653587989748"><ele>426.66666666666663</ele><time>2026-05-03T11:11:02Z</time></trkpt><trkpt lat="40.95120466424627" lon="9.096461685429576"><ele>424.3333333333333</ele><time>2026-05-03T11:11:03Z</time></trkpt><trkpt lat="40.95137353201359" lon="9.096348094351818"><ele>422.0</ele><time>2026-05-03T11:11:04Z</time></trkpt><trkpt lat="40.95155746693727" lon="9.096241529774465"><ele>422.0</ele><time>2026-05-03T11:11:05Z</time></trkpt><trkpt lat="40.95173200000621" lon="9.096155671888061"><ele>422.0</ele><time>2026-05-03T11:11:06Z</time></trkpt><trkpt lat="40.95188343641462" lon="9.096080672575436"><ele>422.0</ele><time>2026-05-03T11:11:07Z</time></trkpt><trkpt lat="40.952013404695684" lon="9.09602308207272"><ele>422.0</ele><time>2026-05-03T11:11:08Z</time></trkpt><trkpt lat="40.95213727570784" lon="9.096005493313369"><ele>422.0</ele><time>2026-05-03T11:11:09Z</time></trkpt><trkpt lat="40.952245992898895" lon="9.096059430324738"><ele>422.0</ele><time>2026-05-03T11:11:10Z</time></trkpt><trkpt lat="40.952313279874" lon="9.096178728042906"><ele>422.0</ele><time>2026-05-03T11:11:11Z</time></trkpt><trkpt lat="40.95234439988457" lon="9.096353870749232"><ele>422.0</ele><time>2026-05-03T11:11:12Z</time></trkpt><trkpt lat="40.95236639882733" lon="9.0965603131347"><ele>422.0</ele><time>2026-05-03T11:11:13Z</time></trkpt><trkpt lat="40.95239460502932" lon="9.09679628028015"><ele>422.0</ele><time>2026-05-03T11:11:14Z</time></trkpt><trkpt lat="40.95243116381994" lon="9.097051612759001"><ele>421.66666666666663</ele><time>2026-05-03T11:11:15Z</time></trkpt><trkpt lat="40.95246490796458" lon="9.0972870253378"><ele>421.33333333333337</ele><time>2026-05-03T11:11:16Z</time></trkpt><trkpt lat="40.95249672635462" lon="9.097497940526733"><ele>421.0</ele><time>2026-05-03T11:11:17Z</time></trkpt><trkpt lat="40.95254841481556" lon="9.097701867832194"><ele>421.0</ele><time>2026-05-03T11:11:18Z</time></trkpt><trkpt lat="40.95263795834957" lon="9.097892221643328"><ele>421.0</ele><time>2026-05-03T11:11:19Z</time></trkpt><trkpt lat="40.95276590883798" lon="9.098055340459242"><ele>421.0</ele><time>2026-05-03T11:11:20Z</time></trkpt><trkpt lat="40.95291347851373" lon="9.098193747087414"><ele>420.33333333333337</ele><time>2026-05-03T11:11:21Z</time></trkpt><trkpt lat="40.95307858812395" lon="9.09831010003929"><ele>419.66666666666663</ele><time>2026-05-03T11:11:22Z</time></trkpt><trkpt lat="40.953249272117326" lon="9.098436331236147"><ele>419.0</ele><time>2026-05-03T11:11:23Z</time></trkpt><trkpt lat="40.953427458555716" lon="9.098571551055754"><ele>418.3333333333333</ele><time>2026-05-03T11:11:24Z</time></trkpt><trkpt lat="40.95360324121081" lon="9.098707731434525"><ele>417.66666666666663</ele><time>2026-05-03T11:11:25Z</time></trkpt><trkpt lat="40.953783274132576" lon="9.098846684457394"><ele>417.0</ele><time>2026-05-03T11:11:26Z</time></trkpt><trkpt lat="40.95396423354843" lon="9.098987915349403"><ele>417.0</ele><time>2026-05-03T11:11:27Z</time></trkpt><trkpt lat="40.954144617818926" lon="9.099126163446073"><ele>417.0</ele><time>2026-05-03T11:11:28Z</time></trkpt><trkpt lat="40.95432368899652" lon="9.099264007424695"><ele>417.0</ele><time>2026-05-03T11:11:29Z</time></trkpt><trkpt lat="40.954500211981596" lon="9.099399606893055"><ele>416.0</ele><time>2026-05-03T11:11:30Z</time></trkpt><trkpt lat="40.954676243508175" lon="9.099534115056688"><ele>415.0</ele><time>2026-05-03T11:11:31Z</time></trkpt><trkpt lat="40.9548501439007" lon="9.099667385397629"><ele>414.0</ele><time>2026-05-03T11:11:32Z</time></trkpt><trkpt lat="40.95502200291225" lon="9.099803503512248"><ele>413.66666666666663</ele><time>2026-05-03T11:11:33Z</time></trkpt><trkpt lat="40.95519327158753" lon="9.099940596536594"><ele>413.3333333333333</ele><time>2026-05-03T11:11:34Z</time></trkpt><trkpt lat="40.955363990158034" lon="9.10007619530966"><ele>413.0</ele><time>2026-05-03T11:11:35Z</time></trkpt><trkpt lat="40.955529084252355" lon="9.100204421059422"><ele>413.0</ele><time>2026-05-03T11:11:36Z</time></trkpt><trkpt lat="40.955683303355066" lon="9.10031933750161"><ele>413.0</ele><time>2026-05-03T11:11:37Z</time></trkpt><trkpt lat="40.955834171899376" lon="9.10042730917177"><ele>413.0</ele><time>2026-05-03T11:11:38Z</time></trkpt><trkpt lat="40.955980861542024" lon="9.100531552915118"><ele>412.0</ele><time>2026-05-03T11:11:39Z</time></trkpt><trkpt lat="40.956115329502865" lon="9.10063498686564"><ele>411.0</ele><time>2026-05-03T11:11:40Z</time></trkpt><trkpt lat="40.95623807312358" lon="9.100728542584184"><ele>410.0</ele><time>2026-05-03T11:11:41Z</time></trkpt><trkpt lat="40.95633969148483" lon="9.100811355774603"><ele>409.0</ele><time>2026-05-03T11:11:42Z</time></trkpt><trkpt lat="40.956435329986654" lon="9.100885768342831"><ele>408.6</ele><time>2026-05-03T11:11:43Z</time></trkpt><trkpt lat="40.95651356850909" lon="9.100934192581864"><ele>408.2</ele><time>2026-05-03T11:11:44Z</time></trkpt><trkpt lat="40.95656855857619" lon="9.100998640687326"><ele>407.8</ele><time>2026-05-03T11:11:45Z</time></trkpt><trkpt lat="40.95669987909658" lon="9.100830447519451"><ele>407.40000000000003</ele><time>2026-05-03T11:11:47Z</time></trkpt><trkpt lat="40.95673403627309" lon="9.100704391788272"><ele>407.0</ele><time>2026-05-03T11:11:48Z</time></trkpt><trkpt lat="40.95676356549039" lon="9.100560547103793"><ele>408.3333333333333</ele><time>2026-05-03T11:11:49Z</time></trkpt><trkpt lat="40.95681386357532" lon="9.100398298262302"><ele>409.66666666666663</ele><time>2026-05-03T11:11:50Z</time></trkpt><trkpt lat="40.95687409155768" lon="9.100199675941061"><ele>411.0</ele><time>2026-05-03T11:11:51Z</time></trkpt><trkpt lat="40.95693737303245" lon="9.099989392909581"><ele>411.66666666666663</ele><time>2026-05-03T11:11:52Z</time></trkpt><trkpt lat="40.957008639386906" lon="9.09976261220355"><ele>412.3333333333333</ele><time>2026-05-03T11:11:53Z</time></trkpt><trkpt lat="40.95708363389794" lon="9.099523167818525"><ele>413.0</ele><time>2026-05-03T11:11:54Z</time></trkpt><trkpt lat="40.95721273611135" lon="9.099312322393896"><ele>413.0</ele><time>2026-05-03T11:11:55Z</time></trkpt><trkpt lat="40.957391374775035" lon="9.099155301952896"><ele>413.0</ele><time>2026-05-03T11:11:56Z</time></trkpt><trkpt lat="40.95758475133443" lon="9.09899787306263"><ele>413.0</ele><time>2026-05-03T11:11:57Z</time></trkpt><trkpt lat="40.957785642248616" lon="9.098811463334622"><ele>414.5</ele><time>2026-05-03T11:11:58Z</time></trkpt><trkpt lat="40.95799636054275" lon="9.09865565949844"><ele>416.0</ele><time>2026-05-03T11:11:59Z</time></trkpt><trkpt lat="40.95820860821555" lon="9.098485973951156"><ele>416.5</ele><time>2026-05-03T11:12:00Z</time></trkpt><trkpt lat="40.958416708512736" lon="9.098319403171793"><ele>417.0</ele><time>2026-05-03T11:12:01Z</time></trkpt><trkpt lat="40.95861900462992" lon="9.098156063476054"><ele>418.5</ele><time>2026-05-03T11:12:02Z</time></trkpt><trkpt lat="40.95882088868804" lon="9.097993106328085"><ele>420.0</ele><time>2026-05-03T11:12:03Z</time></trkpt><trkpt lat="40.95902005581019" lon="9.097829882003868"><ele>421.0</ele><time>2026-05-03T11:12:04Z</time></trkpt><trkpt lat="40.95921713369255" lon="9.097669800945697"><ele>422.0</ele><time>2026-05-03T11:12:05Z</time></trkpt><trkpt lat="40.95941070251822" lon="9.09751264003865"><ele>422.66666666666663</ele><time>2026-05-03T11:12:06Z</time></trkpt><trkpt lat="40.959602421131855" lon="9.097359555893616"><ele>423.33333333333337</ele><time>2026-05-03T11:12:07Z</time></trkpt><trkpt lat="40.959790942865375" lon="9.097208159363298"><ele>424.0</ele><time>2026-05-03T11:12:08Z</time></trkpt><trkpt lat="40.95998307381042" lon="9.097052217121705"><ele>426.0</ele><time>2026-05-03T11:12:09Z</time></trkpt><trkpt lat="40.96017730520645" lon="9.096898241821815"><ele>428.0</ele><time>2026-05-03T11:12:10Z</time></trkpt><trkpt lat="40.960372398675545" lon="9.096740353016825"><ele>429.0</ele><time>2026-05-03T11:12:11Z</time></trkpt><trkpt lat="40.96056809311096" lon="9.096580839393699"><ele>430.0</ele><time>2026-05-03T11:12:12Z</time></trkpt><trkpt lat="40.96076083598683" lon="9.096421149321232"><ele>430.5</ele><time>2026-05-03T11:12:13Z</time></trkpt><trkpt lat="40.96095495436395" lon="9.096266491041279"><ele>431.0</ele><time>2026-05-03T11:12:14Z</time></trkpt><trkpt lat="40.96115251250969" lon="9.096114540943043"><ele>431.0</ele><time>2026-05-03T11:12:15Z</time></trkpt><trkpt lat="40.96135694798895" lon="9.09597251116637"><ele>431.0</ele><time>2026-05-03T11:12:16Z</time></trkpt><trkpt lat="40.96156988640202" lon="9.09584719982416"><ele>433.0</ele><time>2026-05-03T11:12:17Z</time></trkpt><trkpt lat="40.96179076803345" lon="9.095737782959876"><ele>435.0</ele><time>2026-05-03T11:12:18Z</time></trkpt><trkpt lat="40.96201861356914" lon="9.095644031784946"><ele>435.0</ele><time>2026-05-03T11:12:19Z</time></trkpt><trkpt lat="40.9622474275785" lon="9.095560108146518"><ele>435.0</ele><time>2026-05-03T11:12:20Z</time></trkpt><trkpt lat="40.96248337466108" lon="9.095480070860035"><ele>434.0</ele><time>2026-05-03T11:12:21Z</time></trkpt><trkpt lat="40.962725133072276" lon="9.095403029071472"><ele>433.0</ele><time>2026-05-03T11:12:22Z</time></trkpt><trkpt lat="40.96296853303932" lon="9.095333065475407"><ele>433.0</ele><time>2026-05-03T11:12:23Z</time></trkpt><trkpt lat="40.963211798262016" lon="9.095254798160846"><ele>433.0</ele><time>2026-05-03T11:12:24Z</time></trkpt><trkpt lat="40.96346255775097" lon="9.09517662868228"><ele>430.0</ele><time>2026-05-03T11:12:25Z</time></trkpt><trkpt lat="40.963709312606305" lon="9.095094941066838"><ele>427.0</ele><time>2026-05-03T11:12:26Z</time></trkpt><trkpt lat="40.963962968126346" lon="9.095015815018984"><ele>428.0</ele><time>2026-05-03T11:12:27Z</time></trkpt><trkpt lat="40.96421701359721" lon="9.094935153697445"><ele>429.0</ele><time>2026-05-03T11:12:28Z</time></trkpt><trkpt lat="40.96447413017031" lon="9.09485048271378"><ele>429.0</ele><time>2026-05-03T11:12:29Z</time></trkpt><trkpt lat="40.96473225975661" lon="9.094770808328693"><ele>429.0</ele><time>2026-05-03T11:12:30Z</time></trkpt><trkpt lat="40.96498913037553" lon="9.094689857614844"><ele>424.0</ele><time>2026-05-03T11:12:31Z</time></trkpt><trkpt lat="40.965239088379185" lon="9.094609857370525"><ele>419.0</ele><time>2026-05-03T11:12:32Z</time></trkpt><trkpt lat="40.96548732252321" lon="9.094526953719445"><ele>419.0</ele><time>2026-05-03T11:12:33Z</time></trkpt><trkpt lat="40.965727873332895" lon="9.094441551943389"><ele>419.0</ele><time>2026-05-03T11:12:34Z</time></trkpt><trkpt lat="40.96596581578308" lon="9.09436530017431"><ele>418.0</ele><time>2026-05-03T11:12:35Z</time></trkpt><trkpt lat="40.96620536679915" lon="9.094289363076918"><ele>417.0</ele><time>2026-05-03T11:12:36Z</time></trkpt><trkpt lat="40.96644114239637" lon="9.09421656777104"><ele>417.0</ele><time>2026-05-03T11:12:37Z</time></trkpt><trkpt lat="40.966677104256995" lon="9.09414628064723"><ele>417.0</ele><time>2026-05-03T11:12:38Z</time></trkpt><trkpt lat="40.966921852087296" lon="9.094057904826718"><ele>417.5</ele><time>2026-05-03T11:12:39Z</time></trkpt><trkpt lat="40.96716485951143" lon="9.093981140479439"><ele>418.0</ele><time>2026-05-03T11:12:40Z</time></trkpt><trkpt lat="40.96741042640936" lon="9.093903515193611"><ele>418.5</ele><time>2026-05-03T11:12:41Z</time></trkpt><trkpt lat="40.967657164456156" lon="9.093824073500922"><ele>419.0</ele><time>2026-05-03T11:12:42Z</time></trkpt><trkpt lat="40.96790435025353" lon="9.093745653123134"><ele>419.0</ele><time>2026-05-03T11:12:43Z</time></trkpt><trkpt lat="40.96815328195661" lon="9.093668006795815"><ele>419.0</ele><time>2026-05-03T11:12:44Z</time></trkpt><trkpt lat="40.96840015809336" lon="9.093589884469319"><ele>418.5</ele><time>2026-05-03T11:12:45Z</time></trkpt><trkpt lat="40.968647600120335" lon="9.093514326715663"><ele>418.0</ele><time>2026-05-03T11:12:46Z</time></trkpt><trkpt lat="40.968892305544045" lon="9.09343955618813"><ele>418.0</ele><time>2026-05-03T11:12:47Z</time></trkpt><trkpt lat="40.9691322981313" lon="9.093363163720301"><ele>418.0</ele><time>2026-05-03T11:12:48Z</time></trkpt><trkpt lat="40.969371746264606" lon="9.093287241502358"><ele>415.5</ele><time>2026-05-03T11:12:49Z</time></trkpt><trkpt lat="40.96961425620791" lon="9.093209660509158"><ele>413.0</ele><time>2026-05-03T11:12:50Z</time></trkpt><trkpt lat="40.96985899532147" lon="9.093132167959032"><ele>413.0</ele><time>2026-05-03T11:12:51Z</time></trkpt><trkpt lat="40.970105189989866" lon="9.09305589595677"><ele>413.0</ele><time>2026-05-03T11:12:52Z</time></trkpt><trkpt lat="40.970353197900806" lon="9.092980141727946"><ele>413.0</ele><time>2026-05-03T11:12:53Z</time></trkpt><trkpt lat="40.97060230982376" lon="9.092900812350713"><ele>413.0</ele><time>2026-05-03T11:12:54Z</time></trkpt><trkpt lat="40.97085319757793" lon="9.092817063784022"><ele>412.5</ele><time>2026-05-03T11:12:55Z</time></trkpt><trkpt lat="40.9710999536242" lon="9.092739470355582"><ele>412.0</ele><time>2026-05-03T11:12:56Z</time></trkpt><trkpt lat="40.97135313497262" lon="9.092659085162731"><ele>412.0</ele><time>2026-05-03T11:12:57Z</time></trkpt><trkpt lat="40.971611738376154" lon="9.092587537727912"><ele>412.0</ele><time>2026-05-03T11:12:58Z</time></trkpt><trkpt lat="40.97185674691755" lon="9.092540284778039"><ele>411.5</ele><time>2026-05-03T11:12:59Z</time></trkpt><trkpt lat="40.972091766926134" lon="9.092524208197235"><ele>411.0</ele><time>2026-05-03T11:13:00Z</time></trkpt><trkpt lat="40.97232148863139" lon="9.092487411447832"><ele>413.5</ele><time>2026-05-03T11:13:01Z</time></trkpt><trkpt lat="40.97256576029857" lon="9.092596307400829"><ele>416.0</ele><time>2026-05-03T11:13:02Z</time></trkpt><trkpt lat="40.97279250463872" lon="9.092680794664822"><ele>416.0</ele><time>2026-05-03T11:13:03Z</time></trkpt><trkpt lat="40.97300156613019" lon="9.092784386791138"><ele>416.0</ele><time>2026-05-03T11:13:04Z</time></trkpt><trkpt lat="40.97320101333635" lon="9.092908974208973"><ele>416.0</ele><time>2026-05-03T11:13:05Z</time></trkpt><trkpt lat="40.97338226100867" lon="9.093062757513824"><ele>414.66666666666663</ele><time>2026-05-03T11:13:06Z</time></trkpt><trkpt lat="40.97355687596939" lon="9.093245503479759"><ele>413.33333333333337</ele><time>2026-05-03T11:13:07Z</time></trkpt><trkpt lat="40.97373629660056" lon="9.093429540001544"><ele>412.0</ele><time>2026-05-03T11:13:08Z</time></trkpt><trkpt lat="40.97391334183099" lon="9.093609269720757"><ele>412.0</ele><time>2026-05-03T11:13:09Z</time></trkpt><trkpt lat="40.97407960868981" lon="9.093785981771589"><ele>412.0</ele><time>2026-05-03T11:13:10Z</time></trkpt><trkpt lat="40.974236271757405" lon="9.093953960801693"><ele>412.0</ele><time>2026-05-03T11:13:11Z</time></trkpt><trkpt lat="40.97438860629083" lon="9.094094591153072"><ele>410.33333333333337</ele><time>2026-05-03T11:13:12Z</time></trkpt><trkpt lat="40.974541144011006" lon="9.09419504140757"><ele>408.66666666666663</ele><time>2026-05-03T11:13:13Z</time></trkpt><trkpt lat="40.9747037780885" lon="9.094267545484374"><ele>407.0</ele><time>2026-05-03T11:13:14Z</time></trkpt><trkpt lat="40.974876086005004" lon="9.094297654016799"><ele>406.3333333333333</ele><time>2026-05-03T11:13:15Z</time></trkpt><trkpt lat="40.975027559677336" lon="9.094298758983424"><ele>405.66666666666663</ele><time>2026-05-03T11:13:16Z</time></trkpt><trkpt lat="40.9751989424091" lon="9.094252354767363"><ele>405.0</ele><time>2026-05-03T11:13:17Z</time></trkpt><trkpt lat="40.975370198020386" lon="9.094138681533483"><ele>405.66666666666663</ele><time>2026-05-03T11:13:18Z</time></trkpt><trkpt lat="40.975518772451885" lon="9.093997495484095"><ele>406.3333333333333</ele><time>2026-05-03T11:13:19Z</time></trkpt><trkpt lat="40.97564866201373" lon="9.093820909932141"><ele>407.0</ele><time>2026-05-03T11:13:20Z</time></trkpt><trkpt lat="40.9757544128895" lon="9.093602455320676"><ele>404.3333333333333</ele><time>2026-05-03T11:13:21Z</time></trkpt><trkpt lat="40.97585993232136" lon="9.093385317418619"><ele>401.66666666666663</ele><time>2026-05-03T11:13:22Z</time></trkpt><trkpt lat="40.9759812079226" lon="9.093161906729602"><ele>399.0</ele><time>2026-05-03T11:13:23Z</time></trkpt><trkpt lat="40.97610471719261" lon="9.092914504297564"><ele>399.0</ele><time>2026-05-03T11:13:24Z</time></trkpt><trkpt lat="40.9762310866663" lon="9.092660785953127"><ele>399.0</ele><time>2026-05-03T11:13:25Z</time></trkpt><trkpt lat="40.97636251048325" lon="9.092393887019034"><ele>400.5</ele><time>2026-05-03T11:13:26Z</time></trkpt><trkpt lat="40.97650254222225" lon="9.092118028080288"><ele>402.0</ele><time>2026-05-03T11:13:27Z</time></trkpt><trkpt lat="40.97664671286185" lon="9.091841696978701"><ele>401.0</ele><time>2026-05-03T11:13:28Z</time></trkpt><trkpt lat="40.976789944532754" lon="9.091564730538582"><ele>400.0</ele><time>2026-05-03T11:13:29Z</time></trkpt><trkpt lat="40.97693018138704" lon="9.091290709947927"><ele>400.0</ele><time>2026-05-03T11:13:30Z</time></trkpt><trkpt lat="40.977066251947136" lon="9.091020376662756"><ele>400.0</ele><time>2026-05-03T11:13:31Z</time></trkpt><trkpt lat="40.9771993032581" lon="9.090753314616435"><ele>401.5</ele><time>2026-05-03T11:13:32Z</time></trkpt><trkpt lat="40.97732764621777" lon="9.09049962945265"><ele>403.0</ele><time>2026-05-03T11:13:33Z</time></trkpt><trkpt lat="40.97745583625496" lon="9.090256388943384"><ele>401.6666666666667</ele><time>2026-05-03T11:13:34Z</time></trkpt><trkpt lat="40.977595263347624" lon="9.09002881457824"><ele>400.33333333333337</ele><time>2026-05-03T11:13:35Z</time></trkpt><trkpt lat="40.977751058924746" lon="9.089838700829159"><ele>399.0</ele><time>2026-05-03T11:13:36Z</time></trkpt><trkpt lat="40.97792635264526" lon="9.089664342802115"><ele>399.0</ele><time>2026-05-03T11:13:37Z</time></trkpt><trkpt lat="40.97811059350072" lon="9.089497166888368"><ele>399.0</ele><time>2026-05-03T11:13:38Z</time></trkpt><trkpt lat="40.97829856665703" lon="9.089324727051986"><ele>399.0</ele><time>2026-05-03T11:13:39Z</time></trkpt><trkpt lat="40.97848927735145" lon="9.089151400440393"><ele>399.0</ele><time>2026-05-03T11:13:40Z</time></trkpt><trkpt lat="40.97868255861232" lon="9.088975986612033"><ele>399.0</ele><time>2026-05-03T11:13:41Z</time></trkpt><trkpt lat="40.97887789823569" lon="9.08879994539097"><ele>399.0</ele><time>2026-05-03T11:13:42Z</time></trkpt><trkpt lat="40.97907519440637" lon="9.088624560002469"><ele>398.0</ele><time>2026-05-03T11:13:43Z</time></trkpt><trkpt lat="40.97927576638664" lon="9.088444794006174"><ele>397.0</ele><time>2026-05-03T11:13:44Z</time></trkpt><trkpt lat="40.97947744272462" lon="9.088265883208946"><ele>397.0</ele><time>2026-05-03T11:13:45Z</time></trkpt><trkpt lat="40.97968406659031" lon="9.08808599598871"><ele>397.0</ele><time>2026-05-03T11:13:46Z</time></trkpt><trkpt lat="40.97989338593078" lon="9.087908845465485"><ele>396.5</ele><time>2026-05-03T11:13:47Z</time></trkpt><trkpt lat="40.98010721531332" lon="9.087734563041542"><ele>396.0</ele><time>2026-05-03T11:13:48Z</time></trkpt><trkpt lat="40.980323336724005" lon="9.087566374442554"><ele>395.0</ele><time>2026-05-03T11:13:49Z</time></trkpt><trkpt lat="40.98054060708825" lon="9.087397978467354"><ele>394.0</ele><time>2026-05-03T11:13:50Z</time></trkpt><trkpt lat="40.98075961909051" lon="9.087230003627042"><ele>395.0</ele><time>2026-05-03T11:13:51Z</time></trkpt><trkpt lat="40.98097897587975" lon="9.087058806416474"><ele>396.0</ele><time>2026-05-03T11:13:52Z</time></trkpt><trkpt lat="40.98119878223427" lon="9.086887127795425"><ele>396.0</ele><time>2026-05-03T11:13:53Z</time></trkpt><trkpt lat="40.98141800344061" lon="9.086716616987692"><ele>396.0</ele><time>2026-05-03T11:13:54Z</time></trkpt><trkpt lat="40.98163690170182" lon="9.086546271899953"><ele>397.5</ele><time>2026-05-03T11:13:55Z</time></trkpt><trkpt lat="40.98185335637524" lon="9.086376604101794"><ele>399.0</ele><time>2026-05-03T11:13:56Z</time></trkpt><trkpt lat="40.9820682517158" lon="9.086208765992925"><ele>399.0</ele><time>2026-05-03T11:13:57Z</time></trkpt><trkpt lat="40.98228084110353" lon="9.086042997921721"><ele>399.0</ele><time>2026-05-03T11:13:58Z</time></trkpt><trkpt lat="40.982480323764655" lon="9.08588593254366"><ele>399.33333333333337</ele><time>2026-05-03T11:13:59Z</time></trkpt><trkpt lat="40.982666690451715" lon="9.085740968088036"><ele>399.6666666666667</ele><time>2026-05-03T11:14:00Z</time></trkpt><trkpt lat="40.98284459413718" lon="9.085606539362741"><ele>400.0</ele><time>2026-05-03T11:14:01Z</time></trkpt><trkpt lat="40.98301743203511" lon="9.085486363029434"><ele>400.0</ele><time>2026-05-03T11:14:02Z</time></trkpt><trkpt lat="40.983199722779624" lon="9.085394719922403"><ele>400.0</ele><time>2026-05-03T11:14:03Z</time></trkpt><trkpt lat="40.98339571158551" lon="9.085343220395865"><ele>400.0</ele><time>2026-05-03T11:14:04Z</time></trkpt><trkpt lat="40.983595753706695" lon="9.0853301221926"><ele>399.33333333333337</ele><time>2026-05-03T11:14:05Z</time></trkpt><trkpt lat="40.983799584723826" lon="9.085330446286969"><ele>398.66666666666663</ele><time>2026-05-03T11:14:06Z</time></trkpt><trkpt lat="40.983994528457615" lon="9.085338735422159"><ele>398.0</ele><time>2026-05-03T11:14:07Z</time></trkpt><trkpt lat="40.98417871095308" lon="9.085329319717895"><ele>399.66666666666663</ele><time>2026-05-03T11:14:08Z</time></trkpt><trkpt lat="40.98436640102423" lon="9.085287282220818"><ele>401.33333333333337</ele><time>2026-05-03T11:14:09Z</time></trkpt><trkpt lat="40.98454741347358" lon="9.08519626338664"><ele>403.0</ele><time>2026-05-03T11:14:10Z</time></trkpt><trkpt lat="40.98470568267608" lon="9.08505764974259"><ele>401.6666666666667</ele><time>2026-05-03T11:14:11Z</time></trkpt><trkpt lat="40.98485005095274" lon="9.084877159879177"><ele>400.33333333333337</ele><time>2026-05-03T11:14:12Z</time></trkpt><trkpt lat="40.98497926526931" lon="9.084677133075935"><ele>399.0</ele><time>2026-05-03T11:14:13Z</time></trkpt><trkpt lat="40.985111288156986" lon="9.084468724346733"><ele>402.0</ele><time>2026-05-03T11:14:14Z</time></trkpt><trkpt lat="40.98524536481417" lon="9.084252754115287"><ele>405.0</ele><time>2026-05-03T11:14:15Z</time></trkpt><trkpt lat="40.98538798812237" lon="9.084036296069613"><ele>408.0</ele><time>2026-05-03T11:14:16Z</time></trkpt><trkpt lat="40.98553112545239" lon="9.083820036156906"><ele>408.0</ele><time>2026-05-03T11:14:17Z</time></trkpt><trkpt lat="40.98566234876719" lon="9.083624835588276"><ele>408.0</ele><time>2026-05-03T11:14:18Z</time></trkpt><trkpt lat="40.98578733920669" lon="9.083433758041943"><ele>408.0</ele><time>2026-05-03T11:14:19Z</time></trkpt><trkpt lat="40.98591642479769" lon="9.08327006173618"><ele>405.33333333333337</ele><time>2026-05-03T11:14:20Z</time></trkpt><trkpt lat="40.98606549095268" lon="9.083136569002168"><ele>402.6666666666667</ele><time>2026-05-03T11:14:21Z</time></trkpt><trkpt lat="40.98623200618967" lon="9.083029984278358"><ele>400.0</ele><time>2026-05-03T11:14:22Z</time></trkpt><trkpt lat="40.98641406074885" lon="9.082953214688834"><ele>400.0</ele><time>2026-05-03T11:14:23Z</time></trkpt><trkpt lat="40.98661644255048" lon="9.082897693133686"><ele>400.0</ele><time>2026-05-03T11:14:24Z</time></trkpt><trkpt lat="40.98682574249744" lon="9.08283348422097"><ele>400.0</ele><time>2026-05-03T11:14:25Z</time></trkpt><trkpt lat="40.987042366121315" lon="9.082770692815673"><ele>401.5</ele><time>2026-05-03T11:14:26Z</time></trkpt><trkpt lat="40.987265471499356" lon="9.0827008512861"><ele>403.0</ele><time>2026-05-03T11:14:27Z</time></trkpt><trkpt lat="40.98749017192209" lon="9.082618478699908"><ele>403.0</ele><time>2026-05-03T11:14:28Z</time></trkpt><trkpt lat="40.987709008645595" lon="9.082512147802985"><ele>403.0</ele><time>2026-05-03T11:14:29Z</time></trkpt><trkpt lat="40.98792340904315" lon="9.082382784888571"><ele>401.5</ele><time>2026-05-03T11:14:30Z</time></trkpt><trkpt lat="40.98813246719689" lon="9.082236258226027"><ele>400.0</ele><time>2026-05-03T11:14:31Z</time></trkpt><trkpt lat="40.98833862803161" lon="9.082088782049054"><ele>399.5</ele><time>2026-05-03T11:14:32Z</time></trkpt><trkpt lat="40.98854928509068" lon="9.081949963398278"><ele>399.0</ele><time>2026-05-03T11:14:33Z</time></trkpt><trkpt lat="40.988760178453504" lon="9.081828688662183"><ele>399.0</ele><time>2026-05-03T11:14:34Z</time></trkpt><trkpt lat="40.98897651026856" lon="9.081737123452152"><ele>399.0</ele><time>2026-05-03T11:14:35Z</time></trkpt><trkpt lat="40.98919804298322" lon="9.081649324764646"><ele>398.5</ele><time>2026-05-03T11:14:36Z</time></trkpt><trkpt lat="40.989423678719675" lon="9.081569606617672"><ele>398.0</ele><time>2026-05-03T11:14:37Z</time></trkpt><trkpt lat="40.989648887910036" lon="9.081488664298101"><ele>398.0</ele><time>2026-05-03T11:14:38Z</time></trkpt><trkpt lat="40.989869451096055" lon="9.08140967010016"><ele>398.0</ele><time>2026-05-03T11:14:39Z</time></trkpt><trkpt lat="40.990092524847896" lon="9.081324759787321"><ele>399.5</ele><time>2026-05-03T11:14:40Z</time></trkpt><trkpt lat="40.99031558302331" lon="9.081243173804248"><ele>401.0</ele><time>2026-05-03T11:14:41Z</time></trkpt><trkpt lat="40.990539004924756" lon="9.081169971074424"><ele>401.0</ele><time>2026-05-03T11:14:42Z</time></trkpt><trkpt lat="40.99076304961175" lon="9.081110269862744"><ele>401.0</ele><time>2026-05-03T11:14:43Z</time></trkpt><trkpt lat="40.99098240509204" lon="9.081064819614333"><ele>402.0</ele><time>2026-05-03T11:14:44Z</time></trkpt><trkpt lat="40.99119754740394" lon="9.08102757930094"><ele>403.0</ele><time>2026-05-03T11:14:45Z</time></trkpt><trkpt lat="40.991403553073425" lon="9.081001841460544"><ele>404.0</ele><time>2026-05-03T11:14:46Z</time></trkpt><trkpt lat="40.99159999610171" lon="9.08101530315682"><ele>403.0</ele><time>2026-05-03T11:14:47Z</time></trkpt><trkpt lat="40.99180109641806" lon="9.081069604918342"><ele>402.0</ele><time>2026-05-03T11:14:48Z</time></trkpt><trkpt lat="40.99200120134847" lon="9.081164239848219"><ele>401.0</ele><time>2026-05-03T11:14:49Z</time></trkpt><trkpt lat="40.99220651093771" lon="9.081285499534808"><ele>401.0</ele><time>2026-05-03T11:14:50Z</time></trkpt><trkpt lat="40.992422228871135" lon="9.081417958309753"><ele>401.0</ele><time>2026-05-03T11:14:51Z</time></trkpt><trkpt lat="40.99264612586691" lon="9.081548906734785"><ele>401.5</ele><time>2026-05-03T11:14:52Z</time></trkpt><trkpt lat="40.992874491254454" lon="9.081684742498489"><ele>402.0</ele><time>2026-05-03T11:14:53Z</time></trkpt><trkpt lat="40.993100453853046" lon="9.081819706677187"><ele>402.0</ele><time>2026-05-03T11:14:54Z</time></trkpt><trkpt lat="40.99332399767397" lon="9.08195544127309"><ele>402.0</ele><time>2026-05-03T11:14:55Z</time></trkpt><trkpt lat="40.993552752451734" lon="9.082090329612374"><ele>397.5</ele><time>2026-05-03T11:14:56Z</time></trkpt><trkpt lat="40.99378837254254" lon="9.082218593063747"><ele>393.0</ele><time>2026-05-03T11:14:57Z</time></trkpt><trkpt lat="40.99403021800021" lon="9.082327466876333"><ele>394.0</ele><time>2026-05-03T11:14:58Z</time></trkpt><trkpt lat="40.994275853534035" lon="9.082430400686077"><ele>395.0</ele><time>2026-05-03T11:14:59Z</time></trkpt><trkpt lat="40.994524888167426" lon="9.082532216673169"><ele>395.0</ele><time>2026-05-03T11:15:00Z</time></trkpt><trkpt lat="40.994777451951386" lon="9.08263245166266"><ele>395.0</ele><time>2026-05-03T11:15:01Z</time></trkpt><trkpt lat="40.99503620668071" lon="9.082737061986508"><ele>396.0</ele><time>2026-05-03T11:15:02Z</time></trkpt><trkpt lat="40.99529190279955" lon="9.08284404647146"><ele>397.0</ele><time>2026-05-03T11:15:03Z</time></trkpt><trkpt lat="40.995551317326225" lon="9.08294844070495"><ele>397.0</ele><time>2026-05-03T11:15:04Z</time></trkpt><trkpt lat="40.99581237845373" lon="9.08304504950432"><ele>397.0</ele><time>2026-05-03T11:15:05Z</time></trkpt><trkpt lat="40.99607340550664" lon="9.083136652699293"><ele>395.5</ele><time>2026-05-03T11:15:06Z</time></trkpt><trkpt lat="40.996334529336885" lon="9.083220578749359"><ele>394.0</ele><time>2026-05-03T11:15:07Z</time></trkpt><trkpt lat="40.99659346898796" lon="9.083299814858336"><ele>393.0</ele><time>2026-05-03T11:15:08Z</time></trkpt><trkpt lat="40.99685263242923" lon="9.083383078304067"><ele>392.0</ele><time>2026-05-03T11:15:09Z</time></trkpt><trkpt lat="40.99710940415552" lon="9.083466660337313"><ele>392.0</ele><time>2026-05-03T11:15:10Z</time></trkpt><trkpt lat="40.99735729580433" lon="9.083547700987571"><ele>392.0</ele><time>2026-05-03T11:15:11Z</time></trkpt><trkpt lat="40.997601749324346" lon="9.083623704866774"><ele>392.0</ele><time>2026-05-03T11:15:12Z</time></trkpt><trkpt lat="40.99784217903201" lon="9.08369916931184"><ele>392.0</ele><time>2026-05-03T11:15:13Z</time></trkpt><trkpt lat="40.998080920504194" lon="9.083775104121402"><ele>392.0</ele><time>2026-05-03T11:15:14Z</time></trkpt><trkpt lat="40.9983209102762" lon="9.083852296525743"><ele>392.0</ele><time>2026-05-03T11:15:15Z</time></trkpt><trkpt lat="40.99856711471726" lon="9.08393062877232"><ele>390.0</ele><time>2026-05-03T11:15:16Z</time></trkpt><trkpt lat="40.99881983023849" lon="9.084010762933977"><ele>388.0</ele><time>2026-05-03T11:15:17Z</time></trkpt><trkpt lat="40.99907877020839" lon="9.084092108827237"><ele>389.0</ele><time>2026-05-03T11:15:18Z</time></trkpt><trkpt lat="40.99934111253146" lon="9.084175879670104"><ele>390.0</ele><time>2026-05-03T11:15:19Z</time></trkpt><trkpt lat="40.99960550404682" lon="9.084259665299623"><ele>390.0</ele><time>2026-05-03T11:15:20Z</time></trkpt><trkpt lat="40.99987226906588" lon="9.084344574933242"><ele>390.0</ele><time>2026-05-03T11:15:21Z</time></trkpt><trkpt lat="41.000142577028846" lon="9.084428216117248"><ele>390.0</ele><time>2026-05-03T11:15:22Z</time></trkpt><trkpt lat="41.000415023115735" lon="9.084512076325721"><ele>390.0</ele><time>2026-05-03T11:15:23Z</time></trkpt><trkpt lat="41.00068547271492" lon="9.084596220884318"><ele>390.0</ele><time>2026-05-03T11:15:24Z</time></trkpt><trkpt lat="41.000954703097676" lon="9.084683459029023"><ele>390.0</ele><time>2026-05-03T11:15:25Z</time></trkpt><trkpt lat="41.001220441334745" lon="9.084769160528028"><ele>390.0</ele><time>2026-05-03T11:15:26Z</time></trkpt><trkpt lat="41.001488909971776" lon="9.08485266536534"><ele>390.0</ele><time>2026-05-03T11:15:27Z</time></trkpt><trkpt lat="41.00174717408273" lon="9.084937159679951"><ele>392.5</ele><time>2026-05-03T11:15:28Z</time></trkpt><trkpt lat="41.00199949080161" lon="9.08501750420455"><ele>395.0</ele><time>2026-05-03T11:15:29Z</time></trkpt><trkpt lat="41.00225100739101" lon="9.08509747269475"><ele>393.0</ele><time>2026-05-03T11:15:30Z</time></trkpt><trkpt lat="41.00250263857904" lon="9.085175699397347"><ele>391.0</ele><time>2026-05-03T11:15:31Z</time></trkpt><trkpt lat="41.00275526802715" lon="9.085255799002367"><ele>391.0</ele><time>2026-05-03T11:15:32Z</time></trkpt><trkpt lat="41.00300856721463" lon="9.085335766481792"><ele>391.0</ele><time>2026-05-03T11:15:33Z</time></trkpt><trkpt lat="41.00326198706848" lon="9.085416363744079"><ele>392.0</ele><time>2026-05-03T11:15:34Z</time></trkpt><trkpt lat="41.00351966670103" lon="9.085497556317462"><ele>393.0</ele><time>2026-05-03T11:15:35Z</time></trkpt><trkpt lat="41.003782714612306" lon="9.085578548241124"><ele>393.0</ele><time>2026-05-03T11:15:36Z</time></trkpt><trkpt lat="41.00405116736698" lon="9.085661923974868"><ele>393.0</ele><time>2026-05-03T11:15:37Z</time></trkpt><trkpt lat="41.00432179469195" lon="9.08574492529395"><ele>394.5</ele><time>2026-05-03T11:15:38Z</time></trkpt><trkpt lat="41.00458700300822" lon="9.085827347323214"><ele>396.0</ele><time>2026-05-03T11:15:39Z</time></trkpt><trkpt lat="41.00484296655461" lon="9.085907903887815"><ele>396.0</ele><time>2026-05-03T11:15:40Z</time></trkpt><trkpt lat="41.00509276513371" lon="9.085986818025651"><ele>396.0</ele><time>2026-05-03T11:15:41Z</time></trkpt><trkpt lat="41.005337987809355" lon="9.086065108528977"><ele>396.0</ele><time>2026-05-03T11:15:42Z</time></trkpt><trkpt lat="41.00558315361518" lon="9.086145259643207"><ele>396.0</ele><time>2026-05-03T11:15:43Z</time></trkpt><trkpt lat="41.00583330996645" lon="9.086225548801535"><ele>397.0</ele><time>2026-05-03T11:15:44Z</time></trkpt><trkpt lat="41.00608833329957" lon="9.086304306379901"><ele>398.0</ele><time>2026-05-03T11:15:45Z</time></trkpt><trkpt lat="41.00634313611174" lon="9.086382668696222"><ele>398.0</ele><time>2026-05-03T11:15:46Z</time></trkpt><trkpt lat="41.00659415068201" lon="9.086462206315506"><ele>398.0</ele><time>2026-05-03T11:15:47Z</time></trkpt><trkpt lat="41.00684371140206" lon="9.086543498291297"><ele>398.5</ele><time>2026-05-03T11:15:48Z</time></trkpt><trkpt lat="41.00709461687612" lon="9.086623704193926"><ele>399.0</ele><time>2026-05-03T11:15:49Z</time></trkpt><trkpt lat="41.00734360489017" lon="9.086701690793008"><ele>401.0</ele><time>2026-05-03T11:15:50Z</time></trkpt><trkpt lat="41.007587052236666" lon="9.086776432467358"><ele>403.0</ele><time>2026-05-03T11:15:51Z</time></trkpt><trkpt lat="41.00781456152514" lon="9.086849141889838"><ele>403.0</ele><time>2026-05-03T11:15:52Z</time></trkpt><trkpt lat="41.0080419872082" lon="9.08692757241787"><ele>403.0</ele><time>2026-05-03T11:15:53Z</time></trkpt><trkpt lat="41.00824592213908" lon="9.087028946999027"><ele>403.0</ele><time>2026-05-03T11:15:54Z</time></trkpt><trkpt lat="41.0084366259401" lon="9.087169472053505"><ele>403.0</ele><time>2026-05-03T11:15:55Z</time></trkpt><trkpt lat="41.00861673671535" lon="9.087350502207574"><ele>403.0</ele><time>2026-05-03T11:15:56Z</time></trkpt><trkpt lat="41.00879263911797" lon="9.087545230997634"><ele>403.0</ele><time>2026-05-03T11:15:57Z</time></trkpt><trkpt lat="41.00896240617804" lon="9.087731388966386"><ele>403.0</ele><time>2026-05-03T11:15:58Z</time></trkpt><trkpt lat="41.00913014636444" lon="9.087910777220863"><ele>403.0</ele><time>2026-05-03T11:15:59Z</time></trkpt><trkpt lat="41.00929650757844" lon="9.088068367555216"><ele>405.33333333333337</ele><time>2026-05-03T11:16:00Z</time></trkpt><trkpt lat="41.0094607438909" lon="9.0882010136256"><ele>407.66666666666663</ele><time>2026-05-03T11:16:01Z</time></trkpt><trkpt lat="41.00963041043769" lon="9.088310445687114"><ele>410.0</ele><time>2026-05-03T11:16:02Z</time></trkpt><trkpt lat="41.00981246021329" lon="9.088393905975444"><ele>413.66666666666663</ele><time>2026-05-03T11:16:03Z</time></trkpt><trkpt lat="41.01000852423844" lon="9.088451824579481"><ele>417.33333333333337</ele><time>2026-05-03T11:16:04Z</time></trkpt><trkpt lat="41.01022200103447" lon="9.088483354924039"><ele>421.0</ele><time>2026-05-03T11:16:05Z</time></trkpt><trkpt lat="41.01044738545599" lon="9.088494976184473"><ele>421.0</ele><time>2026-05-03T11:16:06Z</time></trkpt><trkpt lat="41.010683033198916" lon="9.088497340213573"><ele>421.0</ele><time>2026-05-03T11:16:07Z</time></trkpt><trkpt lat="41.01092384781235" lon="9.088503208479299"><ele>424.6666666666667</ele><time>2026-05-03T11:16:08Z</time></trkpt><trkpt lat="41.011156694489884" lon="9.088513003757399"><ele>428.33333333333337</ele><time>2026-05-03T11:16:09Z</time></trkpt><trkpt lat="41.01137036288366" lon="9.088492737858047"><ele>432.0</ele><time>2026-05-03T11:16:10Z</time></trkpt><trkpt lat="41.01158248167077" lon="9.088441585910934"><ele>432.33333333333337</ele><time>2026-05-03T11:16:11Z</time></trkpt><trkpt lat="41.01178316625498" lon="9.088375702374396"><ele>432.6666666666667</ele><time>2026-05-03T11:16:12Z</time></trkpt><trkpt lat="41.01196469072012" lon="9.08831752327899"><ele>433.0</ele><time>2026-05-03T11:16:13Z</time></trkpt><trkpt lat="41.01213527607075" lon="9.088291018791287"><ele>433.0</ele><time>2026-05-03T11:16:14Z</time></trkpt><trkpt lat="41.012313604064296" lon="9.088305474654007"><ele>433.0</ele><time>2026-05-03T11:16:15Z</time></trkpt><trkpt lat="41.01249055819621" lon="9.088382086472896"><ele>433.0</ele><time>2026-05-03T11:16:16Z</time></trkpt><trkpt lat="41.012643211162676" lon="9.088529317206683"><ele>434.33333333333337</ele><time>2026-05-03T11:16:17Z</time></trkpt><trkpt lat="41.01277493849032" lon="9.08870736645357"><ele>435.66666666666663</ele><time>2026-05-03T11:16:18Z</time></trkpt><trkpt lat="41.012904266684885" lon="9.088913445983536"><ele>437.0</ele><time>2026-05-03T11:16:19Z</time></trkpt><trkpt lat="41.01302760248266" lon="9.089120252065417"><ele>437.0</ele><time>2026-05-03T11:16:20Z</time></trkpt><trkpt lat="41.01309685765987" lon="9.08936151587901"><ele>437.0</ele><time>2026-05-03T11:16:21Z</time></trkpt><trkpt lat="41.01317619592651" lon="9.089543427609708"><ele>437.0</ele><time>2026-05-03T11:16:22Z</time></trkpt><trkpt lat="41.013257696100105" lon="9.089723286513149"><ele>435.66666666666663</ele><time>2026-05-03T11:16:23Z</time></trkpt><trkpt lat="41.01320574931504" lon="9.090039333665066"><ele>434.33333333333337</ele><time>2026-05-03T11:16:24Z</time></trkpt><trkpt lat="41.01332276554961" lon="9.090242127329116"><ele>433.0</ele><time>2026-05-03T11:16:25Z</time></trkpt><trkpt lat="41.01345740731139" lon="9.090438164121405"><ele>434.0</ele><time>2026-05-03T11:16:26Z</time></trkpt><trkpt lat="41.013585999090495" lon="9.09061441764961"><ele>435.0</ele><time>2026-05-03T11:16:27Z</time></trkpt><trkpt lat="41.013735823315685" lon="9.090778000475153"><ele>436.0</ele><time>2026-05-03T11:16:28Z</time></trkpt><trkpt lat="41.01389993156827" lon="9.090922132084273"><ele>436.0</ele><time>2026-05-03T11:16:29Z</time></trkpt><trkpt lat="41.014088485728934" lon="9.091035077701648"><ele>436.0</ele><time>2026-05-03T11:16:30Z</time></trkpt><trkpt lat="41.01428884755546" lon="9.091125212805618"><ele>436.0</ele><time>2026-05-03T11:16:31Z</time></trkpt><trkpt lat="41.01448264873655" lon="9.091234891991295"><ele>442.33333333333337</ele><time>2026-05-03T11:16:32Z</time></trkpt><trkpt lat="41.0146680727429" lon="9.09136952611038"><ele>448.66666666666663</ele><time>2026-05-03T11:16:33Z</time></trkpt><trkpt lat="41.01484168641855" lon="9.091497693816947"><ele>455.0</ele><time>2026-05-03T11:16:34Z</time></trkpt><trkpt lat="41.01502226813437" lon="9.091584330779027"><ele>453.66666666666663</ele><time>2026-05-03T11:16:35Z</time></trkpt><trkpt lat="41.015213321192384" lon="9.09163635722927"><ele>452.33333333333337</ele><time>2026-05-03T11:16:36Z</time></trkpt><trkpt lat="41.01540126656848" lon="9.09167260172335"><ele>451.0</ele><time>2026-05-03T11:16:37Z</time></trkpt><trkpt lat="41.01558363153358" lon="9.091749571398598"><ele>451.0</ele><time>2026-05-03T11:16:38Z</time></trkpt><trkpt lat="41.015750679441545" lon="9.09186680446635"><ele>451.0</ele><time>2026-05-03T11:16:39Z</time></trkpt><trkpt lat="41.01589535754607" lon="9.092011084866224"><ele>451.0</ele><time>2026-05-03T11:16:40Z</time></trkpt><trkpt lat="41.01602098170574" lon="9.092193557438428"><ele>449.6666666666667</ele><time>2026-05-03T11:16:41Z</time></trkpt><trkpt lat="41.0161424458532" lon="9.092390635755088"><ele>448.33333333333337</ele><time>2026-05-03T11:16:42Z</time></trkpt><trkpt lat="41.016271863849965" lon="9.092584726971804"><ele>447.0</ele><time>2026-05-03T11:16:43Z</time></trkpt><trkpt lat="41.016423829857466" lon="9.092769386424903"><ele>447.0</ele><time>2026-05-03T11:16:44Z</time></trkpt><trkpt lat="41.01657934030794" lon="9.092941163519987"><ele>447.0</ele><time>2026-05-03T11:16:45Z</time></trkpt><trkpt lat="41.0167184165212" lon="9.093105142094517"><ele>447.0</ele><time>2026-05-03T11:16:46Z</time></trkpt><trkpt lat="41.016848418558766" lon="9.093278598098516"><ele>450.66666666666663</ele><time>2026-05-03T11:16:47Z</time></trkpt><trkpt lat="41.01697976286584" lon="9.093456805342129"><ele>454.3333333333333</ele><time>2026-05-03T11:16:48Z</time></trkpt><trkpt lat="41.01711706380475" lon="9.093624067956862"><ele>458.0</ele><time>2026-05-03T11:16:49Z</time></trkpt><trkpt lat="41.01725634460905" lon="9.093756561961198"><ele>458.0</ele><time>2026-05-03T11:16:50Z</time></trkpt><trkpt lat="41.01743052948338" lon="9.09386549053591"><ele>458.0</ele><time>2026-05-03T11:16:51Z</time></trkpt><trkpt lat="41.01762352036005" lon="9.09394793339174"><ele>458.0</ele><time>2026-05-03T11:16:52Z</time></trkpt><trkpt lat="41.017827734054734" lon="9.094015830599194"><ele>456.3333333333333</ele><time>2026-05-03T11:16:53Z</time></trkpt><trkpt lat="41.01804268549773" lon="9.094076146660393"><ele>454.66666666666663</ele><time>2026-05-03T11:16:54Z</time></trkpt><trkpt lat="41.018264569588986" lon="9.094131560268591"><ele>453.0</ele><time>2026-05-03T11:16:55Z</time></trkpt><trkpt lat="41.018482590313866" lon="9.094194168172443"><ele>457.66666666666663</ele><time>2026-05-03T11:16:56Z</time></trkpt><trkpt lat="41.01869446822304" lon="9.09429535836927"><ele>462.3333333333333</ele><time>2026-05-03T11:16:57Z</time></trkpt><trkpt lat="41.018898596119065" lon="9.094417014626869"><ele>467.0</ele><time>2026-05-03T11:16:58Z</time></trkpt><trkpt lat="41.019102225401454" lon="9.094515653438418"><ele>472.3333333333333</ele><time>2026-05-03T11:16:59Z</time></trkpt><trkpt lat="41.01931044802057" lon="9.094592427455515"><ele>477.66666666666663</ele><time>2026-05-03T11:17:00Z</time></trkpt><trkpt lat="41.01951062042328" lon="9.094666722745208"><ele>483.0</ele><time>2026-05-03T11:17:01Z</time></trkpt><trkpt lat="41.019698697319804" lon="9.094757564482123"><ele>483.0</ele><time>2026-05-03T11:17:02Z</time></trkpt><trkpt lat="41.01988259273943" lon="9.094865473984648"><ele>483.0</ele><time>2026-05-03T11:17:03Z</time></trkpt><trkpt lat="41.0200503207942" lon="9.094991430698178"><ele>483.0</ele><time>2026-05-03T11:17:04Z</time></trkpt><trkpt lat="41.02020557838974" lon="9.095111858402472"><ele>478.0</ele><time>2026-05-03T11:17:05Z</time></trkpt><trkpt lat="41.020359425563555" lon="9.09520498842241"><ele>473.0</ele><time>2026-05-03T11:17:06Z</time></trkpt><trkpt lat="41.02052360179154" lon="9.095252002740441"><ele>468.0</ele><time>2026-05-03T11:17:07Z</time></trkpt><trkpt lat="41.02070687673466" lon="9.09525052783372"><ele>468.33333333333337</ele><time>2026-05-03T11:17:08Z</time></trkpt><trkpt lat="41.020892891191515" lon="9.09522412181105"><ele>468.6666666666667</ele><time>2026-05-03T11:17:09Z</time></trkpt><trkpt lat="41.021071471211066" lon="9.095197160879609"><ele>469.0</ele><time>2026-05-03T11:17:10Z</time></trkpt><trkpt lat="41.02124591930756" lon="9.095177079532643"><ele>469.0</ele><time>2026-05-03T11:17:11Z</time></trkpt><trkpt lat="41.02142572360268" lon="9.095185307640111"><ele>469.0</ele><time>2026-05-03T11:17:12Z</time></trkpt><trkpt lat="41.02159391011156" lon="9.095221317490639"><ele>469.0</ele><time>2026-05-03T11:17:13Z</time></trkpt><trkpt lat="41.021780915465094" lon="9.095295337107556"><ele>468.0</ele><time>2026-05-03T11:17:14Z</time></trkpt><trkpt lat="41.02197329847667" lon="9.095406878911675"><ele>467.0</ele><time>2026-05-03T11:17:15Z</time></trkpt><trkpt lat="41.0221716299233" lon="9.095535791537108"><ele>466.0</ele><time>2026-05-03T11:17:16Z</time></trkpt><trkpt lat="41.02237970680199" lon="9.095673237976623"><ele>463.0</ele><time>2026-05-03T11:17:17Z</time></trkpt><trkpt lat="41.022596691646434" lon="9.095799686714532"><ele>460.0</ele><time>2026-05-03T11:17:18Z</time></trkpt><trkpt lat="41.022822279181256" lon="9.095915836956578"><ele>460.0</ele><time>2026-05-03T11:17:19Z</time></trkpt><trkpt lat="41.02303601812603" lon="9.096036749033837"><ele>460.0</ele><time>2026-05-03T11:17:20Z</time></trkpt><trkpt lat="41.02323563434222" lon="9.096157825978986"><ele>459.0</ele><time>2026-05-03T11:17:21Z</time></trkpt><trkpt lat="41.02342839275675" lon="9.096271355500743"><ele>458.0</ele><time>2026-05-03T11:17:22Z</time></trkpt><trkpt lat="41.0236221138244" lon="9.096388697097776"><ele>457.0</ele><time>2026-05-03T11:17:23Z</time></trkpt><trkpt lat="41.02381747470708" lon="9.096523093402332"><ele>456.33333333333337</ele><time>2026-05-03T11:17:24Z</time></trkpt><trkpt lat="41.02400053064262" lon="9.09668176763269"><ele>455.66666666666663</ele><time>2026-05-03T11:17:25Z</time></trkpt><trkpt lat="41.02418082311419" lon="9.096860340356045"><ele>455.0</ele><time>2026-05-03T11:17:26Z</time></trkpt><trkpt lat="41.024355416646756" lon="9.09703871781777"><ele>454.3333333333333</ele><time>2026-05-03T11:17:27Z</time></trkpt><trkpt lat="41.02452013967844" lon="9.09720375419992"><ele>453.66666666666663</ele><time>2026-05-03T11:17:28Z</time></trkpt><trkpt lat="41.0246824624166" lon="9.097360734259519"><ele>453.0</ele><time>2026-05-03T11:17:29Z</time></trkpt><trkpt lat="41.024827812774305" lon="9.097514454807113"><ele>452.33333333333337</ele><time>2026-05-03T11:17:30Z</time></trkpt><trkpt lat="41.02495694986644" lon="9.09769899119028"><ele>451.6666666666667</ele><time>2026-05-03T11:17:31Z</time></trkpt><trkpt lat="41.025065871823706" lon="9.097921809835283"><ele>451.0</ele><time>2026-05-03T11:17:32Z</time></trkpt><trkpt lat="41.02516889851679" lon="9.09816903374607"><ele>448.0</ele><time>2026-05-03T11:17:33Z</time></trkpt><trkpt lat="41.025278984436" lon="9.098419095798299"><ele>445.0</ele><time>2026-05-03T11:17:34Z</time></trkpt><trkpt lat="41.02539195076526" lon="9.098672908128044"><ele>442.0</ele><time>2026-05-03T11:17:35Z</time></trkpt><trkpt lat="41.02550273964822" lon="9.098916645134334"><ele>439.0</ele><time>2026-05-03T11:17:36Z</time></trkpt><trkpt lat="41.02560841040887" lon="9.09914817398542"><ele>436.0</ele><time>2026-05-03T11:17:37Z</time></trkpt><trkpt lat="41.02570720304771" lon="9.099353671090052"><ele>433.0</ele><time>2026-05-03T11:17:38Z</time></trkpt><trkpt lat="41.02581918586474" lon="9.099539658146565"><ele>432.0</ele><time>2026-05-03T11:17:39Z</time></trkpt><trkpt lat="41.025955761646486" lon="9.099694661369504"><ele>431.0</ele><time>2026-05-03T11:17:40Z</time></trkpt><trkpt lat="41.0261073195565" lon="9.099810704962646"><ele>430.0</ele><time>2026-05-03T11:17:41Z</time></trkpt><trkpt lat="41.02625674037813" lon="9.099909613107906"><ele>429.33333333333337</ele><time>2026-05-03T11:17:42Z</time></trkpt><trkpt lat="41.02639136732221" lon="9.100023902628346"><ele>428.66666666666663</ele><time>2026-05-03T11:17:43Z</time></trkpt><trkpt lat="41.02650594150157" lon="9.10017266623701"><ele>428.0</ele><time>2026-05-03T11:17:44Z</time></trkpt><trkpt lat="41.02659663180715" lon="9.100348039753559"><ele>426.0</ele><time>2026-05-03T11:17:45Z</time></trkpt><trkpt lat="41.02666983291983" lon="9.100523786233454"><ele>424.0</ele><time>2026-05-03T11:17:46Z</time></trkpt><trkpt lat="41.02673219464285" lon="9.1006916941456"><ele>422.0</ele><time>2026-05-03T11:17:47Z</time></trkpt><trkpt lat="41.02679886436835" lon="9.100845312917466"><ele>420.0</ele><time>2026-05-03T11:17:48Z</time></trkpt><trkpt lat="41.02688186131321" lon="9.100965361101565"><ele>420.0</ele><time>2026-05-03T11:17:49Z</time></trkpt><trkpt lat="41.026978051803" lon="9.101036014532005"><ele>420.0</ele><time>2026-05-03T11:17:50Z</time></trkpt><trkpt lat="41.02707623093096" lon="9.101037803326276"><ele>420.0</ele><time>2026-05-03T11:17:51Z</time></trkpt><trkpt lat="41.02714945214291" lon="9.100978643638207"><ele>420.0</ele><time>2026-05-03T11:17:52Z</time></trkpt><trkpt lat="41.027225254230366" lon="9.100861678859145"><ele>420.0</ele><time>2026-05-03T11:17:53Z</time></trkpt><trkpt lat="41.02725595260698" lon="9.10071385795222"><ele>419.33333333333337</ele><time>2026-05-03T11:17:54Z</time></trkpt><trkpt lat="41.027228503563116" lon="9.100544643994052"><ele>418.6666666666667</ele><time>2026-05-03T11:17:55Z</time></trkpt><trkpt lat="41.027165017221826" lon="9.100360635796838"><ele>418.0</ele><time>2026-05-03T11:17:56Z</time></trkpt><trkpt lat="41.02708209536985" lon="9.100143830956188"><ele>418.0</ele><time>2026-05-03T11:17:57Z</time></trkpt><trkpt lat="41.0269950102894" lon="9.099953064976397"><ele>418.0</ele><time>2026-05-03T11:17:58Z</time></trkpt><trkpt lat="41.02688413802548" lon="9.099770774739376"><ele>418.0</ele><time>2026-05-03T11:17:59Z</time></trkpt><trkpt lat="41.02677385354295" lon="9.099629943735536"><ele>416.2</ele><time>2026-05-03T11:18:00Z</time></trkpt><trkpt lat="41.026685487411534" lon="9.099502206822562"><ele>414.4</ele><time>2026-05-03T11:18:01Z</time></trkpt><trkpt lat="41.0266500660473" lon="9.09936093836615"><ele>412.59999999999997</ele><time>2026-05-03T11:18:02Z</time></trkpt><trkpt lat="41.02666308009687" lon="9.099219199881981"><ele>410.79999999999995</ele><time>2026-05-03T11:18:03Z</time></trkpt><trkpt lat="41.02671024095685" lon="9.099114635809112"><ele>409.0</ele><time>2026-05-03T11:18:04Z</time></trkpt><trkpt lat="41.02679185416067" lon="9.09905388875401"><ele>409.0</ele><time>2026-05-03T11:18:05Z</time></trkpt><trkpt lat="41.02689061360438" lon="9.099060989130548"><ele>409.0</ele><time>2026-05-03T11:18:06Z</time></trkpt><trkpt lat="41.02698187816552" lon="9.099123396593063"><ele>409.0</ele><time>2026-05-03T11:18:07Z</time></trkpt><trkpt lat="41.0270615396835" lon="9.099242219005506"><ele>409.0</ele><time>2026-05-03T11:18:08Z</time></trkpt><trkpt lat="41.027124016458686" lon="9.099408417892391"><ele>409.0</ele><time>2026-05-03T11:18:09Z</time></trkpt><trkpt lat="41.02718712749426" lon="9.099560742513438"><ele>409.0</ele><time>2026-05-03T11:18:10Z</time></trkpt><trkpt lat="41.02728887561928" lon="9.099682715860972"><ele>409.0</ele><time>2026-05-03T11:18:11Z</time></trkpt><trkpt lat="41.02741997734753" lon="9.099761329519177"><ele>409.0</ele><time>2026-05-03T11:18:12Z</time></trkpt><trkpt lat="41.02756536668618" lon="9.099789873754856"><ele>407.0</ele><time>2026-05-03T11:18:13Z</time></trkpt><trkpt lat="41.027702756962434" lon="9.099782759407463"><ele>405.0</ele><time>2026-05-03T11:18:14Z</time></trkpt><trkpt lat="41.02784019841369" lon="9.099791918182776"><ele>403.0</ele><time>2026-05-03T11:18:15Z</time></trkpt><trkpt lat="41.027965919235264" lon="9.09984557059131"><ele>401.0</ele><time>2026-05-03T11:18:16Z</time></trkpt><trkpt lat="41.02807336762444" lon="9.09995399601791"><ele>401.0</ele><time>2026-05-03T11:18:17Z</time></trkpt><trkpt lat="41.02815621933119" lon="9.100126547884287"><ele>401.0</ele><time>2026-05-03T11:18:18Z</time></trkpt><trkpt lat="41.02819986016357" lon="9.10031960217612"><ele>401.0</ele><time>2026-05-03T11:18:19Z</time></trkpt><trkpt lat="41.028204139758834" lon="9.100513193879957"><ele>401.0</ele><time>2026-05-03T11:18:20Z</time></trkpt><trkpt lat="41.0281743937402" lon="9.100697549684396"><ele>401.0</ele><time>2026-05-03T11:18:21Z</time></trkpt><trkpt lat="41.02813218646848" lon="9.10086931668166"><ele>401.0</ele><time>2026-05-03T11:18:22Z</time></trkpt><trkpt lat="41.02812344109286" lon="9.101031724632962"><ele>401.0</ele><time>2026-05-03T11:18:23Z</time></trkpt><trkpt lat="41.02815773651224" lon="9.101174502035981"><ele>403.0</ele><time>2026-05-03T11:18:24Z</time></trkpt><trkpt lat="41.02823589788502" lon="9.101273492080159"><ele>405.0</ele><time>2026-05-03T11:18:25Z</time></trkpt><trkpt lat="41.02834786684363" lon="9.101313374271687"><ele>407.0</ele><time>2026-05-03T11:18:26Z</time></trkpt><trkpt lat="41.02845678124496" lon="9.101287094062439"><ele>409.0</ele><time>2026-05-03T11:18:27Z</time></trkpt><trkpt lat="41.02854855174113" lon="9.10120751423466"><ele>411.0</ele><time>2026-05-03T11:18:28Z</time></trkpt><trkpt lat="41.028594851169075" lon="9.101068462189161"><ele>405.0</ele><time>2026-05-03T11:18:29Z</time></trkpt><trkpt lat="41.02860246959691" lon="9.100901432769918"><ele>399.0</ele><time>2026-05-03T11:18:30Z</time></trkpt><trkpt lat="41.02860241736683" lon="9.100713581148531"><ele>393.0</ele><time>2026-05-03T11:18:31Z</time></trkpt><trkpt lat="41.0286099249139" lon="9.100496672763727"><ele>387.0</ele><time>2026-05-03T11:18:32Z</time></trkpt><trkpt lat="41.02863074353362" lon="9.100246454421969"><ele>386.0</ele><time>2026-05-03T11:18:33Z</time></trkpt><trkpt lat="41.02865617808268" lon="9.099984512009568"><ele>385.0</ele><time>2026-05-03T11:18:34Z</time></trkpt><trkpt lat="41.02867523305865" lon="9.09971022448237"><ele>384.0</ele><time>2026-05-03T11:18:35Z</time></trkpt><trkpt lat="41.028696609837795" lon="9.099448417864574"><ele>383.0</ele><time>2026-05-03T11:18:36Z</time></trkpt><trkpt lat="41.02871318251756" lon="9.099199683287676"><ele>382.0</ele><time>2026-05-03T11:18:37Z</time></trkpt><trkpt lat="41.028704343715596" lon="9.098951698053675"><ele>381.0</ele><time>2026-05-03T11:18:38Z</time></trkpt><trkpt lat="41.02866761230732" lon="9.098703096194976"><ele>377.6666666666667</ele><time>2026-05-03T11:18:39Z</time></trkpt><trkpt lat="41.02860096305005" lon="9.0984504087875"><ele>374.33333333333337</ele><time>2026-05-03T11:18:40Z</time></trkpt><trkpt lat="41.02851416892671" lon="9.098204243021302"><ele>371.0</ele><time>2026-05-03T11:18:41Z</time></trkpt><trkpt lat="41.02842983390258" lon="9.097970301313298"><ele>370.0</ele><time>2026-05-03T11:18:42Z</time></trkpt><trkpt lat="41.02836392683976" lon="9.09774240458294"><ele>369.0</ele><time>2026-05-03T11:18:43Z</time></trkpt><trkpt lat="41.028319347536375" lon="9.097503003253088"><ele>368.0</ele><time>2026-05-03T11:18:44Z</time></trkpt><trkpt lat="41.028296607260984" lon="9.097254617707241"><ele>368.0</ele><time>2026-05-03T11:18:45Z</time></trkpt><trkpt lat="41.028300712884736" lon="9.097000047109331"><ele>368.0</ele><time>2026-05-03T11:18:46Z</time></trkpt><trkpt lat="41.02831330305236" lon="9.096761340846097"><ele>368.0</ele><time>2026-05-03T11:18:47Z</time></trkpt><trkpt lat="41.02832745176933" lon="9.096529035364078"><ele>364.0</ele><time>2026-05-03T11:18:48Z</time></trkpt><trkpt lat="41.02835797184499" lon="9.096310562568169"><ele>360.0</ele><time>2026-05-03T11:18:49Z</time></trkpt><trkpt lat="41.02842004931699" lon="9.096108667641419"><ele>356.0</ele><time>2026-05-03T11:18:50Z</time></trkpt><trkpt lat="41.028511611416675" lon="9.095922990865235"><ele>357.33333333333337</ele><time>2026-05-03T11:18:51Z</time></trkpt><trkpt lat="41.028637485803415" lon="9.095752466641382"><ele>358.6666666666667</ele><time>2026-05-03T11:18:52Z</time></trkpt><trkpt lat="41.02877832450221" lon="9.095586607231455"><ele>360.0</ele><time>2026-05-03T11:18:53Z</time></trkpt><trkpt lat="41.02891917758415" lon="9.095398768788089"><ele>360.0</ele><time>2026-05-03T11:18:54Z</time></trkpt><trkpt lat="41.02905781695" lon="9.09520679213627"><ele>360.0</ele><time>2026-05-03T11:18:55Z</time></trkpt><trkpt lat="41.02918561493347" lon="9.094997942021564"><ele>360.0</ele><time>2026-05-03T11:18:56Z</time></trkpt><trkpt lat="41.02930651016447" lon="9.094790038867304"><ele>358.6666666666667</ele><time>2026-05-03T11:18:57Z</time></trkpt><trkpt lat="41.02942361070596" lon="9.094602462214539"><ele>357.33333333333337</ele><time>2026-05-03T11:18:58Z</time></trkpt><trkpt lat="41.029539145962275" lon="9.094447527767432"><ele>356.0</ele><time>2026-05-03T11:18:59Z</time></trkpt><trkpt lat="41.0296493998372" lon="9.094348973535187"><ele>356.0</ele><time>2026-05-03T11:19:00Z</time></trkpt><trkpt lat="41.02977205871013" lon="9.094279339508915"><ele>356.0</ele><time>2026-05-03T11:19:01Z</time></trkpt><trkpt lat="41.02990534095568" lon="9.094232594017235"><ele>356.0</ele><time>2026-05-03T11:19:02Z</time></trkpt><trkpt lat="41.030061609475865" lon="9.094200922667795"><ele>356.0</ele><time>2026-05-03T11:19:03Z</time></trkpt><trkpt lat="41.030236885538905" lon="9.0941873357713"><ele>353.0</ele><time>2026-05-03T11:19:04Z</time></trkpt><trkpt lat="41.03042767855269" lon="9.094164891489639"><ele>350.0</ele><time>2026-05-03T11:19:05Z</time></trkpt><trkpt lat="41.03063662410265" lon="9.094159256466959"><ele>347.0</ele><time>2026-05-03T11:19:06Z</time></trkpt><trkpt lat="41.030833774108146" lon="9.094130846755428"><ele>346.33333333333337</ele><time>2026-05-03T11:19:07Z</time></trkpt><trkpt lat="41.03101670315698" lon="9.094092251416926"><ele>345.6666666666667</ele><time>2026-05-03T11:19:08Z</time></trkpt><trkpt lat="41.031217852214624" lon="9.09403843717825"><ele>345.0</ele><time>2026-05-03T11:19:09Z</time></trkpt><trkpt lat="41.03141587831249" lon="9.09397464260545"><ele>345.0</ele><time>2026-05-03T11:19:10Z</time></trkpt><trkpt lat="41.03162486651601" lon="9.093904455339725"><ele>345.0</ele><time>2026-05-03T11:19:11Z</time></trkpt><trkpt lat="41.03180933588661" lon="9.093847743152207"><ele>345.0</ele><time>2026-05-03T11:19:12Z</time></trkpt><trkpt lat="41.03199598891455" lon="9.093837733742612"><ele>345.0</ele><time>2026-05-03T11:19:13Z</time></trkpt><trkpt lat="41.03218847312137" lon="9.09386272288533"><ele>345.0</ele><time>2026-05-03T11:19:14Z</time></trkpt><trkpt lat="41.0323791648845" lon="9.09393829957429"><ele>345.0</ele><time>2026-05-03T11:19:15Z</time></trkpt><trkpt lat="41.0325698814382" lon="9.094036731075706"><ele>350.3333333333333</ele><time>2026-05-03T11:19:16Z</time></trkpt><trkpt lat="41.03276360937241" lon="9.094137458482741"><ele>355.66666666666663</ele><time>2026-05-03T11:19:17Z</time></trkpt><trkpt lat="41.03296249092026" lon="9.094238607057513"><ele>361.0</ele><time>2026-05-03T11:19:18Z</time></trkpt><trkpt lat="41.03315722248303" lon="9.094315106208557"><ele>360.0</ele><time>2026-05-03T11:19:19Z</time></trkpt><trkpt lat="41.0333320912415" lon="9.094366441621405"><ele>359.0</ele><time>2026-05-03T11:19:20Z</time></trkpt><trkpt lat="41.033492469084266" lon="9.09440604190771"><ele>358.0</ele><time>2026-05-03T11:19:21Z</time></trkpt><trkpt lat="41.03362813830743" lon="9.094435640844502"><ele>358.0</ele><time>2026-05-03T11:19:22Z</time></trkpt><trkpt lat="41.03373739789449" lon="9.094485128210945"><ele>358.0</ele><time>2026-05-03T11:19:23Z</time></trkpt><trkpt lat="41.03381041296013" lon="9.094576679811064"><ele>358.0</ele><time>2026-05-03T11:19:24Z</time></trkpt><trkpt lat="41.03384614465624" lon="9.094709039860419"><ele>358.0</ele><time>2026-05-03T11:19:25Z</time></trkpt><trkpt lat="41.03383779696888" lon="9.094844200470227"><ele>358.0</ele><time>2026-05-03T11:19:26Z</time></trkpt><trkpt lat="41.033776742691465" lon="9.09495843754197"><ele>358.0</ele><time>2026-05-03T11:19:27Z</time></trkpt><trkpt lat="41.03367770996562" lon="9.095029768091608"><ele>358.0</ele><time>2026-05-03T11:19:28Z</time></trkpt><trkpt lat="41.03355978694145" lon="9.09503355004061"><ele>358.0</ele><time>2026-05-03T11:19:29Z</time></trkpt><trkpt lat="41.033445466851184" lon="9.094968703054265"><ele>358.0</ele><time>2026-05-03T11:19:30Z</time></trkpt><trkpt lat="41.033339873506804" lon="9.094847653495343"><ele>359.0</ele><time>2026-05-03T11:19:31Z</time></trkpt><trkpt lat="41.03321723187824" lon="9.094725498875716"><ele>360.0</ele><time>2026-05-03T11:19:32Z</time></trkpt><trkpt lat="41.03306917806713" lon="9.094620346017585"><ele>361.0</ele><time>2026-05-03T11:19:33Z</time></trkpt><trkpt lat="41.03291371997188" lon="9.094559552619167"><ele>361.0</ele><time>2026-05-03T11:19:34Z</time></trkpt><trkpt lat="41.03276960849564" lon="9.094536816752376"><ele>361.0</ele><time>2026-05-03T11:19:35Z</time></trkpt><trkpt lat="41.032619919803125" lon="9.094528742408812"><ele>361.0</ele><time>2026-05-03T11:19:36Z</time></trkpt><trkpt lat="41.03248887402878" lon="9.094547798217588"><ele>361.0</ele><time>2026-05-03T11:19:37Z</time></trkpt><trkpt lat="41.032378077173654" lon="9.094604186032141"><ele>360.0</ele><time>2026-05-03T11:19:38Z</time></trkpt><trkpt lat="41.032298497796845" lon="9.094712348832486"><ele>359.0</ele><time>2026-05-03T11:19:39Z</time></trkpt><trkpt lat="41.03227117420582" lon="9.094850633002979"><ele>358.0</ele><time>2026-05-03T11:19:40Z</time></trkpt><trkpt lat="41.03229251761515" lon="9.095000331270114"><ele>357.0</ele><time>2026-05-03T11:19:41Z</time></trkpt><trkpt lat="41.03235990182781" lon="9.095111870195653"><ele>356.0</ele><time>2026-05-03T11:19:42Z</time></trkpt><trkpt lat="41.032463612078466" lon="9.095179525068042"><ele>360.75</ele><time>2026-05-03T11:19:43Z</time></trkpt><trkpt lat="41.0325979131933" lon="9.095213420023507"><ele>365.5</ele><time>2026-05-03T11:19:44Z</time></trkpt><trkpt lat="41.03274704358772" lon="9.095233175722933"><ele>370.25</ele><time>2026-05-03T11:19:45Z</time></trkpt><trkpt lat="41.03290516887916" lon="9.09524331410277"><ele>375.0</ele><time>2026-05-03T11:19:46Z</time></trkpt><trkpt lat="41.033065171090904" lon="9.095280357586773"><ele>375.0</ele><time>2026-05-03T11:19:47Z</time></trkpt><trkpt lat="41.033225953952176" lon="9.09536150602857"><ele>375.0</ele><time>2026-05-03T11:19:48Z</time></trkpt><trkpt lat="41.03337448058172" lon="9.095485286400388"><ele>375.0</ele><time>2026-05-03T11:19:49Z</time></trkpt><trkpt lat="41.033506733742996" lon="9.095651121773326"><ele>378.33333333333337</ele><time>2026-05-03T11:19:50Z</time></trkpt><trkpt lat="41.03363371165118" lon="9.095840820103636"><ele>381.6666666666667</ele><time>2026-05-03T11:19:51Z</time></trkpt><trkpt lat="41.03376215536186" lon="9.096036614716105"><ele>385.0</ele><time>2026-05-03T11:19:52Z</time></trkpt><trkpt lat="41.03389773579482" lon="9.096226298330912"><ele>385.0</ele><time>2026-05-03T11:19:53Z</time></trkpt><trkpt lat="41.03404647103461" lon="9.096403699842652"><ele>385.0</ele><time>2026-05-03T11:19:54Z</time></trkpt><trkpt lat="41.03421173607586" lon="9.096566458849376"><ele>385.0</ele><time>2026-05-03T11:19:55Z</time></trkpt><trkpt lat="41.034395383186364" lon="9.096697995531848"><ele>388.33333333333337</ele><time>2026-05-03T11:19:56Z</time></trkpt><trkpt lat="41.03458907059308" lon="9.096805746424595"><ele>391.66666666666663</ele><time>2026-05-03T11:19:57Z</time></trkpt><trkpt lat="41.034793815685084" lon="9.096874436152014"><ele>395.0</ele><time>2026-05-03T11:19:58Z</time></trkpt><trkpt lat="41.034999879774816" lon="9.096909363552378"><ele>396.3333333333333</ele><time>2026-05-03T11:19:59Z</time></trkpt><trkpt lat="41.035188973574456" lon="9.096899742167064"><ele>397.66666666666663</ele><time>2026-05-03T11:20:00Z</time></trkpt><trkpt lat="41.03536240363626" lon="9.096893072866722"><ele>399.0</ele><time>2026-05-03T11:20:01Z</time></trkpt><trkpt lat="41.03553086161691" lon="9.096929843713141"><ele>399.0</ele><time>2026-05-03T11:20:02Z</time></trkpt><trkpt lat="41.03569529818923" lon="9.097004198017673"><ele>399.0</ele><time>2026-05-03T11:20:03Z</time></trkpt><trkpt lat="41.035879818553774" lon="9.097059217457781"><ele>399.0</ele><time>2026-05-03T11:20:04Z</time></trkpt><trkpt lat="41.03606935061349" lon="9.097102486721528"><ele>400.33333333333337</ele><time>2026-05-03T11:20:05Z</time></trkpt><trkpt lat="41.03626714948738" lon="9.097141830955684"><ele>401.6666666666667</ele><time>2026-05-03T11:20:06Z</time></trkpt><trkpt lat="41.03646769732031" lon="9.097211398668152"><ele>403.0</ele><time>2026-05-03T11:20:07Z</time></trkpt><trkpt lat="41.03665602949588" lon="9.0972932654254"><ele>406.0</ele><time>2026-05-03T11:20:08Z</time></trkpt><trkpt lat="41.036833078762655" lon="9.097380458493557"><ele>409.0</ele><time>2026-05-03T11:20:09Z</time></trkpt><trkpt lat="41.03699204915828" lon="9.09747784349665"><ele>412.0</ele><time>2026-05-03T11:20:10Z</time></trkpt><trkpt lat="41.03712898591175" lon="9.097592433976104"><ele>416.6666666666667</ele><time>2026-05-03T11:20:11Z</time></trkpt><trkpt lat="41.03724661623204" lon="9.097748527942025"><ele>421.33333333333337</ele><time>2026-05-03T11:20:12Z</time></trkpt><trkpt lat="41.037343554923225" lon="9.097936856259084"><ele>426.0</ele><time>2026-05-03T11:20:13Z</time></trkpt><trkpt lat="41.037425402412" lon="9.098148353949078"><ele>428.66666666666663</ele><time>2026-05-03T11:20:14Z</time></trkpt><trkpt lat="41.037497207703886" lon="9.09838155184388"><ele>431.3333333333333</ele><time>2026-05-03T11:20:15Z</time></trkpt><trkpt lat="41.037566839448786" lon="9.098630078317877"><ele>434.0</ele><time>2026-05-03T11:20:16Z</time></trkpt><trkpt lat="41.03764672224295" lon="9.09888612950452"><ele>435.3333333333333</ele><time>2026-05-03T11:20:17Z</time></trkpt><trkpt lat="41.037742417241255" lon="9.099146211923863"><ele>436.66666666666663</ele><time>2026-05-03T11:20:18Z</time></trkpt><trkpt lat="41.03785877453479" lon="9.099402288045358"><ele>438.0</ele><time>2026-05-03T11:20:19Z</time></trkpt><trkpt lat="41.03799375113078" lon="9.099646070412392"><ele>438.0</ele><time>2026-05-03T11:20:20Z</time></trkpt><trkpt lat="41.03814299550659" lon="9.099874944198326"><ele>438.0</ele><time>2026-05-03T11:20:21Z</time></trkpt><trkpt lat="41.03827805864473" lon="9.100084858542505"><ele>438.0</ele><time>2026-05-03T11:20:22Z</time></trkpt><trkpt lat="41.03840845198756" lon="9.100297565573479"><ele>439.66666666666663</ele><time>2026-05-03T11:20:23Z</time></trkpt><trkpt lat="41.038533236290434" lon="9.100503234757074"><ele>441.3333333333333</ele><time>2026-05-03T11:20:24Z</time></trkpt><trkpt lat="41.03865021347504" lon="9.100698601593272"><ele>443.0</ele><time>2026-05-03T11:20:25Z</time></trkpt><trkpt lat="41.03874881195955" lon="9.100883802723656"><ele>446.3333333333333</ele><time>2026-05-03T11:20:26Z</time></trkpt><trkpt lat="41.038829950341785" lon="9.101091763707641"><ele>449.66666666666663</ele><time>2026-05-03T11:20:27Z</time></trkpt><trkpt lat="41.03888461899122" lon="9.101322223824045"><ele>453.0</ele><time>2026-05-03T11:20:28Z</time></trkpt><trkpt lat="41.038906699789834" lon="9.101549366778862"><ele>454.33333333333337</ele><time>2026-05-03T11:20:29Z</time></trkpt><trkpt lat="41.03889913030083" lon="9.101790962941793"><ele>455.6666666666667</ele><time>2026-05-03T11:20:30Z</time></trkpt><trkpt lat="41.03887905038494" lon="9.102055520971344"><ele>457.0</ele><time>2026-05-03T11:20:31Z</time></trkpt><trkpt lat="41.038863940892405" lon="9.102333444549206"><ele>457.33333333333337</ele><time>2026-05-03T11:20:32Z</time></trkpt><trkpt lat="41.03885266402726" lon="9.102616386013642"><ele>457.66666666666663</ele><time>2026-05-03T11:20:33Z</time></trkpt><trkpt lat="41.038854263348654" lon="9.102891328600197"><ele>458.0</ele><time>2026-05-03T11:20:34Z</time></trkpt><trkpt lat="41.03888257682489" lon="9.10314835318713"><ele>459.3333333333333</ele><time>2026-05-03T11:20:35Z</time></trkpt><trkpt lat="41.0389481179845" lon="9.103380885117188"><ele>460.66666666666663</ele><time>2026-05-03T11:20:36Z</time></trkpt><trkpt lat="41.03905399397118" lon="9.103608244703324"><ele>462.0</ele><time>2026-05-03T11:20:37Z</time></trkpt><trkpt lat="41.0391872629055" lon="9.103815198411255"><ele>462.0</ele><time>2026-05-03T11:20:38Z</time></trkpt><trkpt lat="41.03934637526022" lon="9.103997269339638"><ele>462.0</ele><time>2026-05-03T11:20:39Z</time></trkpt><trkpt lat="41.03951361573964" lon="9.104187860323353"><ele>462.0</ele><time>2026-05-03T11:20:40Z</time></trkpt><trkpt lat="41.0396877255056" lon="9.104387849971504"><ele>463.5</ele><time>2026-05-03T11:20:41Z</time></trkpt><trkpt lat="41.03986215949149" lon="9.104606035571475"><ele>465.0</ele><time>2026-05-03T11:20:42Z</time></trkpt><trkpt lat="41.040035513607705" lon="9.104827356584297"><ele>466.5</ele><time>2026-05-03T11:20:43Z</time></trkpt><trkpt lat="41.040212934364156" lon="9.10505359464004"><ele>468.0</ele><time>2026-05-03T11:20:44Z</time></trkpt><trkpt lat="41.040391400475094" lon="9.105274534089057"><ele>468.0</ele><time>2026-05-03T11:20:45Z</time></trkpt><trkpt lat="41.040569005833504" lon="9.1054922743513"><ele>468.0</ele><time>2026-05-03T11:20:46Z</time></trkpt><trkpt lat="41.040744013082694" lon="9.105704136598847"><ele>470.5</ele><time>2026-05-03T11:20:47Z</time></trkpt><trkpt lat="41.040913543225855" lon="9.10591248949188"><ele>473.0</ele><time>2026-05-03T11:20:48Z</time></trkpt><trkpt lat="41.041079103943005" lon="9.106109489610112"><ele>473.0</ele><time>2026-05-03T11:20:49Z</time></trkpt><trkpt lat="41.04124981306521" lon="9.106300299570117"><ele>473.0</ele><time>2026-05-03T11:20:50Z</time></trkpt><trkpt lat="41.041426007119895" lon="9.10647625888598"><ele>473.0</ele><time>2026-05-03T11:20:51Z</time></trkpt><trkpt lat="41.04160034320475" lon="9.106638021900107"><ele>474.3333333333333</ele><time>2026-05-03T11:20:52Z</time></trkpt><trkpt lat="41.04178372960297" lon="9.106796301843852"><ele>475.66666666666663</ele><time>2026-05-03T11:20:53Z</time></trkpt><trkpt lat="41.041965385997976" lon="9.106973631202342"><ele>477.0</ele><time>2026-05-03T11:20:54Z</time></trkpt><trkpt lat="41.04213272047803" lon="9.107175238831996"><ele>477.0</ele><time>2026-05-03T11:20:55Z</time></trkpt><trkpt lat="41.04228638183726" lon="9.107387543979728"><ele>477.0</ele><time>2026-05-03T11:20:56Z</time></trkpt><trkpt lat="41.04244296456428" lon="9.10760169926992"><ele>477.0</ele><time>2026-05-03T11:20:57Z</time></trkpt><trkpt lat="41.042583397630125" lon="9.10779533131687"><ele>478.66666666666663</ele><time>2026-05-03T11:20:58Z</time></trkpt><trkpt lat="41.04271696793609" lon="9.107978181435332"><ele>480.3333333333333</ele><time>2026-05-03T11:20:59Z</time></trkpt><trkpt lat="41.04285665872287" lon="9.108154043975906"><ele>482.0</ele><time>2026-05-03T11:21:00Z</time></trkpt><trkpt lat="41.042994602024386" lon="9.108293753469727"><ele>482.0</ele><time>2026-05-03T11:21:01Z</time></trkpt><trkpt lat="41.043144065847734" lon="9.108395637982017"><ele>482.0</ele><time>2026-05-03T11:21:02Z</time></trkpt><trkpt lat="41.04330977526159" lon="9.108446302495425"><ele>482.0</ele><time>2026-05-03T11:21:03Z</time></trkpt><trkpt lat="41.043485282067785" lon="9.10844796595818"><ele>483.66666666666663</ele><time>2026-05-03T11:21:04Z</time></trkpt><trkpt lat="41.04367198384401" lon="9.108416006525797"><ele>485.33333333333337</ele><time>2026-05-03T11:21:05Z</time></trkpt><trkpt lat="41.04386685871958" lon="9.108369987220417"><ele>487.0</ele><time>2026-05-03T11:21:06Z</time></trkpt><trkpt lat="41.0440666139027" lon="9.108323489140567"><ele>487.6666666666667</ele><time>2026-05-03T11:21:07Z</time></trkpt><trkpt lat="41.044269841510406" lon="9.10830815469483"><ele>488.33333333333337</ele><time>2026-05-03T11:21:08Z</time></trkpt><trkpt lat="41.044460461014445" lon="9.10833101443933"><ele>489.0</ele><time>2026-05-03T11:21:09Z</time></trkpt><trkpt lat="41.044633675515264" lon="9.108395743087192"><ele>489.0</ele><time>2026-05-03T11:21:10Z</time></trkpt><trkpt lat="41.04480657754664" lon="9.108494357850022"><ele>489.0</ele><time>2026-05-03T11:21:11Z</time></trkpt><trkpt lat="41.04497936051296" lon="9.108639463996905"><ele>489.0</ele><time>2026-05-03T11:21:12Z</time></trkpt><trkpt lat="41.04515775003932" lon="9.10879353708635"><ele>488.66666666666663</ele><time>2026-05-03T11:21:13Z</time></trkpt><trkpt lat="41.04533820041653" lon="9.1089412029015"><ele>488.3333333333333</ele><time>2026-05-03T11:21:14Z</time></trkpt><trkpt lat="41.04550787040473" lon="9.109071519311929"><ele>488.0</ele><time>2026-05-03T11:21:15Z</time></trkpt><trkpt lat="41.045672949032976" lon="9.109195235068096"><ele>483.66666666666663</ele><time>2026-05-03T11:21:16Z</time></trkpt><trkpt lat="41.045823197831076" lon="9.109332786620032"><ele>479.33333333333337</ele><time>2026-05-03T11:21:17Z</time></trkpt><trkpt lat="41.04596438308782" lon="9.109503168410406"><ele>475.0</ele><time>2026-05-03T11:21:18Z</time></trkpt><trkpt lat="41.046092854352274" lon="9.109712950063265"><ele>474.33333333333337</ele><time>2026-05-03T11:21:19Z</time></trkpt><trkpt lat="41.04621695774091" lon="9.109952893657791"><ele>473.66666666666663</ele><time>2026-05-03T11:21:20Z</time></trkpt><trkpt lat="41.04634374049178" lon="9.110205363998652"><ele>473.0</ele><time>2026-05-03T11:21:21Z</time></trkpt><trkpt lat="41.046471601974275" lon="9.110449488251987"><ele>473.0</ele><time>2026-05-03T11:21:22Z</time></trkpt><trkpt lat="41.04660346658348" lon="9.110694834340665"><ele>473.0</ele><time>2026-05-03T11:21:23Z</time></trkpt><trkpt lat="41.04672709592136" lon="9.110924458745647"><ele>473.0</ele><time>2026-05-03T11:21:24Z</time></trkpt><trkpt lat="41.04684341081938" lon="9.111143804030307"><ele>470.3333333333333</ele><time>2026-05-03T11:21:25Z</time></trkpt><trkpt lat="41.04696011156823" lon="9.111356727461054"><ele>467.66666666666663</ele><time>2026-05-03T11:21:26Z</time></trkpt><trkpt lat="41.04707099565964" lon="9.111559316876509"><ele>465.0</ele><time>2026-05-03T11:21:27Z</time></trkpt><trkpt lat="41.04718938387835" lon="9.11173729525851"><ele>464.33333333333337</ele><time>2026-05-03T11:21:28Z</time></trkpt><trkpt lat="41.047329780876446" lon="9.111870974836998"><ele>463.6666666666667</ele><time>2026-05-03T11:21:29Z</time></trkpt><trkpt lat="41.04748243293775" lon="9.111968405165646"><ele>463.0</ele><time>2026-05-03T11:21:30Z</time></trkpt><trkpt lat="41.04764949064499" lon="9.112029634215517"><ele>461.0</ele><time>2026-05-03T11:21:31Z</time></trkpt><trkpt lat="41.047819566127345" lon="9.112065917023092"><ele>459.0</ele><time>2026-05-03T11:21:32Z</time></trkpt><trkpt lat="41.04799228164152" lon="9.11206721845588"><ele>457.0</ele><time>2026-05-03T11:21:33Z</time></trkpt><trkpt lat="41.048155509027815" lon="9.112030676975058"><ele>455.0</ele><time>2026-05-03T11:21:34Z</time></trkpt><trkpt lat="41.04831120400956" lon="9.111950433035828"><ele>453.0</ele><time>2026-05-03T11:21:35Z</time></trkpt><trkpt lat="41.04846153398715" lon="9.1118293220641"><ele>451.0</ele><time>2026-05-03T11:21:36Z</time></trkpt><trkpt lat="41.04860210009545" lon="9.111672806107538"><ele>449.6666666666667</ele><time>2026-05-03T11:21:37Z</time></trkpt><trkpt lat="41.04874558158989" lon="9.111507889854785"><ele>448.33333333333337</ele><time>2026-05-03T11:21:38Z</time></trkpt><trkpt lat="41.04889846192379" lon="9.111344857016956"><ele>447.0</ele><time>2026-05-03T11:21:39Z</time></trkpt><trkpt lat="41.04905166432758" lon="9.111198308393961"><ele>444.66666666666663</ele><time>2026-05-03T11:21:40Z</time></trkpt><trkpt lat="41.049211100379765" lon="9.111065670616425"><ele>442.3333333333333</ele><time>2026-05-03T11:21:41Z</time></trkpt><trkpt lat="41.04937868386838" lon="9.110949695240306"><ele>440.0</ele><time>2026-05-03T11:21:42Z</time></trkpt><trkpt lat="41.049564266099054" lon="9.110851446111823"><ele>440.0</ele><time>2026-05-03T11:21:43Z</time></trkpt><trkpt lat="41.04976511260645" lon="9.11077397809931"><ele>440.0</ele><time>2026-05-03T11:21:44Z</time></trkpt><trkpt lat="41.049978741683475" lon="9.110704080488707"><ele>440.0</ele><time>2026-05-03T11:21:45Z</time></trkpt><trkpt lat="41.0501857837045" lon="9.11062610502927"><ele>438.3333333333333</ele><time>2026-05-03T11:21:46Z</time></trkpt><trkpt lat="41.0503798108288" lon="9.110550650949794"><ele>436.66666666666663</ele><time>2026-05-03T11:21:47Z</time></trkpt><trkpt lat="41.050583742920274" lon="9.110498207208462"><ele>435.0</ele><time>2026-05-03T11:21:48Z</time></trkpt><trkpt lat="41.050776546313855" lon="9.11049973868681"><ele>435.33333333333337</ele><time>2026-05-03T11:21:49Z</time></trkpt><trkpt lat="41.05096315811841" lon="9.11055514498009"><ele>435.6666666666667</ele><time>2026-05-03T11:21:50Z</time></trkpt><trkpt lat="41.051136598291706" lon="9.11065639002986"><ele>436.0</ele><time>2026-05-03T11:21:51Z</time></trkpt><trkpt lat="41.05130446000956" lon="9.110798599560772"><ele>434.6666666666667</ele><time>2026-05-03T11:21:52Z</time></trkpt><trkpt lat="41.051472665551195" lon="9.110956938417864"><ele>433.33333333333337</ele><time>2026-05-03T11:21:53Z</time></trkpt><trkpt lat="41.05165115406605" lon="9.111117005463603"><ele>432.0</ele><time>2026-05-03T11:21:54Z</time></trkpt><trkpt lat="41.05183517500706" lon="9.11128141733672"><ele>432.0</ele><time>2026-05-03T11:21:55Z</time></trkpt><trkpt lat="41.05202175033594" lon="9.111445407871551"><ele>432.0</ele><time>2026-05-03T11:21:56Z</time></trkpt><trkpt lat="41.05221173501546" lon="9.111593541010171"><ele>432.0</ele><time>2026-05-03T11:21:57Z</time></trkpt><trkpt lat="41.052407945470875" lon="9.111712365818823"><ele>431.0</ele><time>2026-05-03T11:21:58Z</time></trkpt><trkpt lat="41.052612511019944" lon="9.111801292017683"><ele>430.0</ele><time>2026-05-03T11:21:59Z</time></trkpt><trkpt lat="41.05283513217245" lon="9.111885743633637"><ele>429.0</ele><time>2026-05-03T11:22:00Z</time></trkpt><trkpt lat="41.05306298374071" lon="9.111972482980939"><ele>425.0</ele><time>2026-05-03T11:22:01Z</time></trkpt><trkpt lat="41.05329483293452" lon="9.112066014103478"><ele>421.0</ele><time>2026-05-03T11:22:02Z</time></trkpt><trkpt lat="41.05352948361484" lon="9.11216263713578"><ele>421.0</ele><time>2026-05-03T11:22:03Z</time></trkpt><trkpt lat="41.05376387866545" lon="9.112253525446345"><ele>421.0</ele><time>2026-05-03T11:22:04Z</time></trkpt><trkpt lat="41.054005006219334" lon="9.1123436708739"><ele>420.0</ele><time>2026-05-03T11:22:05Z</time></trkpt><trkpt lat="41.054236692383384" lon="9.112431970112569"><ele>419.0</ele><time>2026-05-03T11:22:06Z</time></trkpt><trkpt lat="41.05447021176538" lon="9.112524602458027"><ele>419.0</ele><time>2026-05-03T11:22:07Z</time></trkpt><trkpt lat="41.05470628398406" lon="9.112617060697126"><ele>419.0</ele><time>2026-05-03T11:22:08Z</time></trkpt><trkpt lat="41.05494432818908" lon="9.112708974055924"><ele>418.5</ele><time>2026-05-03T11:22:09Z</time></trkpt><trkpt lat="41.05518494797258" lon="9.112800768195658"><ele>418.0</ele><time>2026-05-03T11:22:10Z</time></trkpt><trkpt lat="41.055426773986106" lon="9.11289376877141"><ele>418.0</ele><time>2026-05-03T11:22:11Z</time></trkpt><trkpt lat="41.05567125221879" lon="9.112987445465738"><ele>418.0</ele><time>2026-05-03T11:22:12Z</time></trkpt><trkpt lat="41.055918633946405" lon="9.113080502796508"><ele>418.5</ele><time>2026-05-03T11:22:13Z</time></trkpt><trkpt lat="41.056166761483496" lon="9.11317662412871"><ele>419.0</ele><time>2026-05-03T11:22:14Z</time></trkpt><trkpt lat="41.05640185992988" lon="9.11326665414675"><ele>412.5</ele><time>2026-05-03T11:22:15Z</time></trkpt><trkpt lat="41.05662528450196" lon="9.11335174229817"><ele>406.0</ele><time>2026-05-03T11:22:16Z</time></trkpt><trkpt lat="41.05683613530421" lon="9.113450132892261"><ele>406.0</ele><time>2026-05-03T11:22:17Z</time></trkpt><trkpt lat="41.05702793946013" lon="9.113581816277904"><ele>406.0</ele><time>2026-05-03T11:22:18Z</time></trkpt><trkpt lat="41.05720221656056" lon="9.113767454903398"><ele>406.0</ele><time>2026-05-03T11:22:19Z</time></trkpt><trkpt lat="41.05737680774619" lon="9.113976047358507"><ele>403.0</ele><time>2026-05-03T11:22:20Z</time></trkpt><trkpt lat="41.05755365162821" lon="9.114190970419655"><ele>400.0</ele><time>2026-05-03T11:22:21Z</time></trkpt><trkpt lat="41.05772887747491" lon="9.11440276304028"><ele>400.0</ele><time>2026-05-03T11:22:22Z</time></trkpt><trkpt lat="41.05790756406773" lon="9.114613298964946"><ele>400.0</ele><time>2026-05-03T11:22:23Z</time></trkpt><trkpt lat="41.05807791978681" lon="9.11481006480888"><ele>399.33333333333337</ele><time>2026-05-03T11:22:24Z</time></trkpt><trkpt lat="41.05823906748874" lon="9.11499043926811"><ele>398.66666666666663</ele><time>2026-05-03T11:22:25Z</time></trkpt><trkpt lat="41.058385739224526" lon="9.11516232322352"><ele>398.0</ele><time>2026-05-03T11:22:26Z</time></trkpt><trkpt lat="41.058530303487835" lon="9.115330974934354"><ele>397.66666666666663</ele><time>2026-05-03T11:22:27Z</time></trkpt><trkpt lat="41.058671173713975" lon="9.115499218565907"><ele>397.33333333333337</ele><time>2026-05-03T11:22:28Z</time></trkpt><trkpt lat="41.05878804330438" lon="9.115645567882076"><ele>397.0</ele><time>2026-05-03T11:22:29Z</time></trkpt><trkpt lat="41.05889402588678" lon="9.115770341039916"><ele>396.6666666666667</ele><time>2026-05-03T11:22:30Z</time></trkpt><trkpt lat="41.059014135537254" lon="9.115885832203274"><ele>396.33333333333337</ele><time>2026-05-03T11:22:31Z</time></trkpt><trkpt lat="41.05914774310394" lon="9.115980530853765"><ele>396.0</ele><time>2026-05-03T11:22:32Z</time></trkpt><trkpt lat="41.05930284959199" lon="9.116042757996555"><ele>395.66666666666663</ele><time>2026-05-03T11:22:33Z</time></trkpt><trkpt lat="41.059465303526096" lon="9.116058047643564"><ele>395.3333333333333</ele><time>2026-05-03T11:22:34Z</time></trkpt><trkpt lat="41.05963515429482" lon="9.116026051274702"><ele>395.0</ele><time>2026-05-03T11:22:35Z</time></trkpt><trkpt lat="41.059801751366095" lon="9.11595717698089"><ele>395.66666666666663</ele><time>2026-05-03T11:22:36Z</time></trkpt><trkpt lat="41.05996595823269" lon="9.11586286999825"><ele>396.33333333333337</ele><time>2026-05-03T11:22:37Z</time></trkpt><trkpt lat="41.060133357334465" lon="9.115754762559195"><ele>397.0</ele><time>2026-05-03T11:22:38Z</time></trkpt><trkpt lat="41.060311210575314" lon="9.115648777058844"><ele>397.0</ele><time>2026-05-03T11:22:39Z</time></trkpt><trkpt lat="41.06050474281376" lon="9.115550428659013"><ele>397.0</ele><time>2026-05-03T11:22:40Z</time></trkpt><trkpt lat="41.06069482356475" lon="9.115445566382533"><ele>397.0</ele><time>2026-05-03T11:22:41Z</time></trkpt><trkpt lat="41.06086690303017" lon="9.115344543212311"><ele>399.6666666666667</ele><time>2026-05-03T11:22:42Z</time></trkpt><trkpt lat="41.06102403321133" lon="9.11526969651792"><ele>402.33333333333337</ele><time>2026-05-03T11:22:43Z</time></trkpt><trkpt lat="41.0611854284682" lon="9.11524179082774"><ele>405.0</ele><time>2026-05-03T11:22:44Z</time></trkpt><trkpt lat="41.06134466975553" lon="9.11528741886173"><ele>405.0</ele><time>2026-05-03T11:22:45Z</time></trkpt><trkpt lat="41.06148565905919" lon="9.115389640748798"><ele>405.0</ele><time>2026-05-03T11:22:46Z</time></trkpt><trkpt lat="41.06161522639747" lon="9.115537083378861"><ele>405.0</ele><time>2026-05-03T11:22:47Z</time></trkpt><trkpt lat="41.0617276039203" lon="9.115724190059758"><ele>408.66666666666663</ele><time>2026-05-03T11:22:48Z</time></trkpt><trkpt lat="41.061843775375415" lon="9.11590418988752"><ele>412.3333333333333</ele><time>2026-05-03T11:22:49Z</time></trkpt><trkpt lat="41.06197389764092" lon="9.116090182321177"><ele>416.0</ele><time>2026-05-03T11:22:50Z</time></trkpt><trkpt lat="41.06211707751874" lon="9.116268298996873"><ele>416.0</ele><time>2026-05-03T11:22:51Z</time></trkpt><trkpt lat="41.062274040999625" lon="9.1164068747448"><ele>416.0</ele><time>2026-05-03T11:22:52Z</time></trkpt><trkpt lat="41.062445684448434" lon="9.116501526640533"><ele>416.0</ele><time>2026-05-03T11:22:53Z</time></trkpt><trkpt lat="41.062641195216564" lon="9.116552387651607"><ele>419.66666666666663</ele><time>2026-05-03T11:22:54Z</time></trkpt><trkpt lat="41.06283581655525" lon="9.116577953094458"><ele>423.33333333333337</ele><time>2026-05-03T11:22:55Z</time></trkpt><trkpt lat="41.06304608965315" lon="9.116601873916283"><ele>427.0</ele><time>2026-05-03T11:22:56Z</time></trkpt><trkpt lat="41.063263279111865" lon="9.116624080551109"><ele>425.6666666666667</ele><time>2026-05-03T11:22:57Z</time></trkpt><trkpt lat="41.06348039688012" lon="9.116651900856047"><ele>424.33333333333337</ele><time>2026-05-03T11:22:58Z</time></trkpt><trkpt lat="41.06369518913632" lon="9.116679312280338"><ele>423.0</ele><time>2026-05-03T11:22:59Z</time></trkpt><trkpt lat="41.06390937341971" lon="9.116712345566636"><ele>423.0</ele><time>2026-05-03T11:23:00Z</time></trkpt><trkpt lat="41.06412262479343" lon="9.1167690138882"><ele>423.0</ele><time>2026-05-03T11:23:01Z</time></trkpt><trkpt lat="41.064313971819054" lon="9.116859136391017"><ele>423.0</ele><time>2026-05-03T11:23:02Z</time></trkpt><trkpt lat="41.06450039190271" lon="9.116994960705213"><ele>423.0</ele><time>2026-05-03T11:23:03Z</time></trkpt><trkpt lat="41.064682230604014" lon="9.117136982212083"><ele>423.0</ele><time>2026-05-03T11:23:04Z</time></trkpt><trkpt lat="41.06486758763798" lon="9.117275502643045"><ele>423.0</ele><time>2026-05-03T11:23:05Z</time></trkpt><trkpt lat="41.06506127104506" lon="9.117411448746525"><ele>422.0</ele><time>2026-05-03T11:23:06Z</time></trkpt><trkpt lat="41.06525742984567" lon="9.117526867652723"><ele>421.0</ele><time>2026-05-03T11:23:07Z</time></trkpt><trkpt lat="41.06546391360109" lon="9.117628372458864"><ele>420.0</ele><time>2026-05-03T11:23:08Z</time></trkpt><trkpt lat="41.06568458589231" lon="9.117716542463889"><ele>420.5</ele><time>2026-05-03T11:23:09Z</time></trkpt><trkpt lat="41.06592236325438" lon="9.117798496291647"><ele>421.0</ele><time>2026-05-03T11:23:10Z</time></trkpt><trkpt lat="41.06617198958903" lon="9.117889922104172"><ele>421.0</ele><time>2026-05-03T11:23:11Z</time></trkpt><trkpt lat="41.06642822643417" lon="9.117991728905325"><ele>421.0</ele><time>2026-05-03T11:23:12Z</time></trkpt><trkpt lat="41.06668574573325" lon="9.118090361994781"><ele>421.0</ele><time>2026-05-03T11:23:13Z</time></trkpt><trkpt lat="41.0669503076545" lon="9.118189964250927"><ele>421.0</ele><time>2026-05-03T11:23:14Z</time></trkpt><trkpt lat="41.067217923291054" lon="9.11829272851949"><ele>419.0</ele><time>2026-05-03T11:23:15Z</time></trkpt><trkpt lat="41.06748861461807" lon="9.118395707443812"><ele>417.0</ele><time>2026-05-03T11:23:16Z</time></trkpt><trkpt lat="41.067760197653634" lon="9.118500198807151"><ele>417.0</ele><time>2026-05-03T11:23:17Z</time></trkpt><trkpt lat="41.068031094270715" lon="9.11860283955891"><ele>417.0</ele><time>2026-05-03T11:23:18Z</time></trkpt><trkpt lat="41.06830106305262" lon="9.118705145359895"><ele>414.5</ele><time>2026-05-03T11:23:19Z</time></trkpt><trkpt lat="41.068564152069946" lon="9.118805635580333"><ele>412.0</ele><time>2026-05-03T11:23:20Z</time></trkpt><trkpt lat="41.06882050581803" lon="9.11890627886138"><ele>412.0</ele><time>2026-05-03T11:23:21Z</time></trkpt><trkpt lat="41.06907172000496" lon="9.119001407108353"><ele>412.0</ele><time>2026-05-03T11:23:22Z</time></trkpt><trkpt lat="41.069322082335546" lon="9.11909661053541"><ele>411.0</ele><time>2026-05-03T11:23:23Z</time></trkpt><trkpt lat="41.0695715122427" lon="9.119191287443925"><ele>410.0</ele><time>2026-05-03T11:23:24Z</time></trkpt><trkpt lat="41.069805832155005" lon="9.11929039500294"><ele>410.5</ele><time>2026-05-03T11:23:25Z</time></trkpt><trkpt lat="41.0700501548191" lon="9.119381661138803"><ele>411.0</ele><time>2026-05-03T11:23:26Z</time></trkpt><trkpt lat="41.07028568393942" lon="9.11947104647001"><ele>411.0</ele><time>2026-05-03T11:23:27Z</time></trkpt><trkpt lat="41.070508772081006" lon="9.11955538464009"><ele>411.0</ele><time>2026-05-03T11:23:28Z</time></trkpt><trkpt lat="41.07072489261362" lon="9.119636497062885"><ele>410.66666666666663</ele><time>2026-05-03T11:23:29Z</time></trkpt><trkpt lat="41.07092394003285" lon="9.119713340806934"><ele>410.3333333333333</ele><time>2026-05-03T11:23:30Z</time></trkpt><trkpt lat="41.07111857124324" lon="9.11978120895808"><ele>410.0</ele><time>2026-05-03T11:23:31Z</time></trkpt><trkpt lat="41.07130477810411" lon="9.1198266599686"><ele>410.0</ele><time>2026-05-03T11:23:32Z</time></trkpt><trkpt lat="41.07148857149834" lon="9.119900351916657"><ele>410.0</ele><time>2026-05-03T11:23:33Z</time></trkpt><trkpt lat="41.0716686512327" lon="9.119955453545396"><ele>410.0</ele><time>2026-05-03T11:23:34Z</time></trkpt><trkpt lat="41.071894961908065" lon="9.119735039833294"><ele>410.0</ele><time>2026-05-03T11:23:35Z</time></trkpt><trkpt lat="41.072091016349255" lon="9.119627097268687"><ele>410.0</ele><time>2026-05-03T11:23:36Z</time></trkpt><trkpt lat="41.07229018852352" lon="9.119491175989365"><ele>410.0</ele><time>2026-05-03T11:23:37Z</time></trkpt><trkpt lat="41.07249100572771" lon="9.119349886182848"><ele>410.0</ele><time>2026-05-03T11:23:38Z</time></trkpt><trkpt lat="41.072700684270345" lon="9.119207772359324"><ele>410.0</ele><time>2026-05-03T11:23:39Z</time></trkpt><trkpt lat="41.072914755724064" lon="9.119067462834623"><ele>410.0</ele><time>2026-05-03T11:23:40Z</time></trkpt><trkpt lat="41.07313303115394" lon="9.118924915851917"><ele>410.0</ele><time>2026-05-03T11:23:41Z</time></trkpt><trkpt lat="41.073345186753095" lon="9.118779236783892"><ele>410.0</ele><time>2026-05-03T11:23:42Z</time></trkpt><trkpt lat="41.073554901447594" lon="9.11864354934205"><ele>410.0</ele><time>2026-05-03T11:23:43Z</time></trkpt><trkpt lat="41.07376031583069" lon="9.118501432601281"><ele>410.0</ele><time>2026-05-03T11:23:44Z</time></trkpt><trkpt lat="41.073964566681575" lon="9.118362485994945"><ele>410.0</ele><time>2026-05-03T11:23:45Z</time></trkpt><trkpt lat="41.0741704333665" lon="9.11821970934109"><ele>408.0</ele><time>2026-05-03T11:23:46Z</time></trkpt><trkpt lat="41.074367862443516" lon="9.11808750037858"><ele>406.0</ele><time>2026-05-03T11:23:47Z</time></trkpt><trkpt lat="41.074571629459435" lon="9.117945591906526"><ele>406.0</ele><time>2026-05-03T11:23:48Z</time></trkpt><trkpt lat="41.07478101594796" lon="9.117804196756369"><ele>406.0</ele><time>2026-05-03T11:23:49Z</time></trkpt><trkpt lat="41.07499434948022" lon="9.117662269922375"><ele>401.5</ele><time>2026-05-03T11:23:50Z</time></trkpt><trkpt lat="41.07520612559238" lon="9.117519262794541"><ele>397.0</ele><time>2026-05-03T11:23:51Z</time></trkpt><trkpt lat="41.075422454086045" lon="9.117370913225054"><ele>396.5</ele><time>2026-05-03T11:23:52Z</time></trkpt><trkpt lat="41.07564126612783" lon="9.117221071879714"><ele>396.0</ele><time>2026-05-03T11:23:53Z</time></trkpt><trkpt lat="41.07586862415594" lon="9.117061679695707"><ele>390.0</ele><time>2026-05-03T11:23:54Z</time></trkpt><trkpt lat="41.076096593270606" lon="9.116911817082507"><ele>384.0</ele><time>2026-05-03T11:23:55Z</time></trkpt><trkpt lat="41.07631073991176" lon="9.116767530090616"><ele>384.0</ele><time>2026-05-03T11:23:56Z</time></trkpt><trkpt lat="41.07651831227639" lon="9.116624012428"><ele>384.0</ele><time>2026-05-03T11:23:57Z</time></trkpt><trkpt lat="41.07671774483224" lon="9.116488598632722"><ele>382.3333333333333</ele><time>2026-05-03T11:23:58Z</time></trkpt><trkpt lat="41.07691199243422" lon="9.116356226908508"><ele>380.66666666666663</ele><time>2026-05-03T11:23:59Z</time></trkpt><trkpt lat="41.07711770962311" lon="9.11623558789357"><ele>379.0</ele><time>2026-05-03T11:24:00Z</time></trkpt><trkpt lat="41.07733467162654" lon="9.116148705891048"><ele>384.0</ele><time>2026-05-03T11:24:01Z</time></trkpt><trkpt lat="41.077566935347605" lon="9.116102231290373"><ele>389.0</ele><time>2026-05-03T11:24:02Z</time></trkpt><trkpt lat="41.07780658664047" lon="9.116078390179577"><ele>389.0</ele><time>2026-05-03T11:24:03Z</time></trkpt><trkpt lat="41.07804837751975" lon="9.116099011039484"><ele>389.0</ele><time>2026-05-03T11:24:04Z</time></trkpt><trkpt lat="41.07829288152683" lon="9.116140709670104"><ele>387.5</ele><time>2026-05-03T11:24:05Z</time></trkpt><trkpt lat="41.07854735980393" lon="9.116178194774378"><ele>386.0</ele><time>2026-05-03T11:24:06Z</time></trkpt><trkpt lat="41.07879778241591" lon="9.11621329593197"><ele>386.0</ele><time>2026-05-03T11:24:07Z</time></trkpt><trkpt lat="41.079052118481634" lon="9.116249244599876"><ele>386.0</ele><time>2026-05-03T11:24:08Z</time></trkpt><trkpt lat="41.07930644361129" lon="9.11628686580791"><ele>385.0</ele><time>2026-05-03T11:24:09Z</time></trkpt><trkpt lat="41.079558707738386" lon="9.116325875651627"><ele>384.0</ele><time>2026-05-03T11:24:10Z</time></trkpt><trkpt lat="41.07981318126734" lon="9.116357828904473"><ele>387.5</ele><time>2026-05-03T11:24:11Z</time></trkpt><trkpt lat="41.08006104365233" lon="9.116399364863542"><ele>391.0</ele><time>2026-05-03T11:24:12Z</time></trkpt><trkpt lat="41.08030578846477" lon="9.116434934126943"><ele>391.0</ele><time>2026-05-03T11:24:13Z</time></trkpt><trkpt lat="41.080552126425445" lon="9.116470506773437"><ele>391.0</ele><time>2026-05-03T11:24:14Z</time></trkpt><trkpt lat="41.080797141671816" lon="9.116502351826531"><ele>390.0</ele><time>2026-05-03T11:24:15Z</time></trkpt><trkpt lat="41.0810663442314" lon="9.116543811905474"><ele>389.0</ele><time>2026-05-03T11:24:16Z</time></trkpt><trkpt lat="41.08133319504336" lon="9.116581039881781"><ele>386.5</ele><time>2026-05-03T11:24:17Z</time></trkpt><trkpt lat="41.08162051826615" lon="9.116607465057065"><ele>384.0</ele><time>2026-05-03T11:24:18Z</time></trkpt><trkpt lat="41.0818986530796" lon="9.116650341516062"><ele>384.0</ele><time>2026-05-03T11:24:19Z</time></trkpt><trkpt lat="41.082157367787396" lon="9.116706657509317"><ele>384.0</ele><time>2026-05-03T11:24:20Z</time></trkpt><trkpt lat="41.082398735592484" lon="9.116751780599902"><ele>387.0</ele><time>2026-05-03T11:24:21Z</time></trkpt><trkpt lat="41.08262135762925" lon="9.116788471141412"><ele>390.0</ele><time>2026-05-03T11:24:22Z</time></trkpt><trkpt lat="41.08285156298067" lon="9.116819265417206"><ele>390.0</ele><time>2026-05-03T11:24:23Z</time></trkpt><trkpt lat="41.083079517541016" lon="9.116853081107825"><ele>390.0</ele><time>2026-05-03T11:24:24Z</time></trkpt><trkpt lat="41.08330373593642" lon="9.116893667635962"><ele>394.0</ele><time>2026-05-03T11:24:25Z</time></trkpt><trkpt lat="41.08352856679166" lon="9.116947004618533"><ele>398.0</ele><time>2026-05-03T11:24:26Z</time></trkpt><trkpt lat="41.08375973387719" lon="9.117013835441893"><ele>398.0</ele><time>2026-05-03T11:24:27Z</time></trkpt><trkpt lat="41.08399710131719" lon="9.11709270912095"><ele>398.0</ele><time>2026-05-03T11:24:28Z</time></trkpt><trkpt lat="41.08424256356739" lon="9.11717680697842"><ele>402.0</ele><time>2026-05-03T11:24:29Z</time></trkpt><trkpt lat="41.084496647450514" lon="9.117263768142259"><ele>406.0</ele><time>2026-05-03T11:24:30Z</time></trkpt><trkpt lat="41.084753830224784" lon="9.117354339975138"><ele>394.5</ele><time>2026-05-03T11:24:31Z</time></trkpt><trkpt lat="41.08501395657613" lon="9.117446552863107"><ele>383.0</ele><time>2026-05-03T11:24:32Z</time></trkpt><trkpt lat="41.08527880104988" lon="9.117534416950438"><ele>383.0</ele><time>2026-05-03T11:24:33Z</time></trkpt><trkpt lat="41.085541014094304" lon="9.117615567707265"><ele>383.0</ele><time>2026-05-03T11:24:34Z</time></trkpt><trkpt lat="41.08580994015811" lon="9.117699774727255"><ele>384.0</ele><time>2026-05-03T11:24:35Z</time></trkpt><trkpt lat="41.08607403981417" lon="9.117788282790796"><ele>385.0</ele><time>2026-05-03T11:24:36Z</time></trkpt><trkpt lat="41.0863383385515" lon="9.117871354730491"><ele>388.0</ele><time>2026-05-03T11:24:37Z</time></trkpt><trkpt lat="41.086596900779895" lon="9.117964511375757"><ele>391.0</ele><time>2026-05-03T11:24:38Z</time></trkpt><trkpt lat="41.08685419352603" lon="9.118055746816758"><ele>391.0</ele><time>2026-05-03T11:24:39Z</time></trkpt><trkpt lat="41.08710958837053" lon="9.118144057573248"><ele>391.0</ele><time>2026-05-03T11:24:40Z</time></trkpt><trkpt lat="41.08736089648999" lon="9.11822173716488"><ele>379.5</ele><time>2026-05-03T11:24:41Z</time></trkpt><trkpt lat="41.08760493265304" lon="9.118302868649147"><ele>368.0</ele><time>2026-05-03T11:24:42Z</time></trkpt><trkpt lat="41.0878343317626" lon="9.118376468293441"><ele>368.0</ele><time>2026-05-03T11:24:43Z</time></trkpt><trkpt lat="41.08805368858031" lon="9.11844591970398"><ele>368.0</ele><time>2026-05-03T11:24:44Z</time></trkpt><trkpt lat="41.088258105068654" lon="9.118490957298553"><ele>368.0</ele><time>2026-05-03T11:24:45Z</time></trkpt><trkpt lat="41.08845407364084" lon="9.118489848805224"><ele>369.0</ele><time>2026-05-03T11:24:46Z</time></trkpt><trkpt lat="41.08863755936992" lon="9.118432898468063"><ele>370.0</ele><time>2026-05-03T11:24:47Z</time></trkpt><trkpt lat="41.088813082407654" lon="9.118319849450243"><ele>371.0</ele><time>2026-05-03T11:24:48Z</time></trkpt><trkpt lat="41.088968511839845" lon="9.118169387331369"><ele>369.33333333333337</ele><time>2026-05-03T11:24:49Z</time></trkpt><trkpt lat="41.08909549176151" lon="9.1179821184387"><ele>367.6666666666667</ele><time>2026-05-03T11:24:50Z</time></trkpt><trkpt lat="41.08918738270522" lon="9.117766185998228"><ele>366.0</ele><time>2026-05-03T11:24:51Z</time></trkpt><trkpt lat="41.08923911884189" lon="9.117507539231342"><ele>364.0</ele><time>2026-05-03T11:24:52Z</time></trkpt><trkpt lat="41.08924605337326" lon="9.11724053260444"><ele>362.0</ele><time>2026-05-03T11:24:53Z</time></trkpt><trkpt lat="41.089219482429314" lon="9.116959120715189"><ele>360.0</ele><time>2026-05-03T11:24:54Z</time></trkpt><trkpt lat="41.08919674955055" lon="9.116668461358795"><ele>358.5</ele><time>2026-05-03T11:24:55Z</time></trkpt><trkpt lat="41.08917502805291" lon="9.116366562130398"><ele>357.0</ele><time>2026-05-03T11:24:56Z</time></trkpt><trkpt lat="41.08915528656804" lon="9.116066445788759"><ele>357.0</ele><time>2026-05-03T11:24:57Z</time></trkpt><trkpt lat="41.08913977364126" lon="9.115769434058379"><ele>357.0</ele><time>2026-05-03T11:24:58Z</time></trkpt><trkpt lat="41.08911955258146" lon="9.115477648447223"><ele>357.0</ele><time>2026-05-03T11:24:59Z</time></trkpt><trkpt lat="41.08907765366453" lon="9.115190845579734"><ele>357.6666666666667</ele><time>2026-05-03T11:25:00Z</time></trkpt><trkpt lat="41.08900931306265" lon="9.114925360842568"><ele>358.33333333333337</ele><time>2026-05-03T11:25:01Z</time></trkpt><trkpt lat="41.088913354292764" lon="9.11466461853667"><ele>359.0</ele><time>2026-05-03T11:25:02Z</time></trkpt><trkpt lat="41.08879141084161" lon="9.114412115708257"><ele>359.0</ele><time>2026-05-03T11:25:03Z</time></trkpt><trkpt lat="41.08866254191798" lon="9.114154931855634"><ele>359.0</ele><time>2026-05-03T11:25:04Z</time></trkpt><trkpt lat="41.08852866654181" lon="9.113888208706129"><ele>359.5</ele><time>2026-05-03T11:25:05Z</time></trkpt><trkpt lat="41.088392412332894" lon="9.113608188701503"><ele>360.0</ele><time>2026-05-03T11:25:06Z</time></trkpt><trkpt lat="41.088257781123644" lon="9.1133244606194"><ele>357.5</ele><time>2026-05-03T11:25:07Z</time></trkpt><trkpt lat="41.088133177649986" lon="9.113062039492299"><ele>355.0</ele><time>2026-05-03T11:25:08Z</time></trkpt><trkpt lat="41.0880149420629" lon="9.112816965217078"><ele>355.0</ele><time>2026-05-03T11:25:09Z</time></trkpt><trkpt lat="41.08789878570592" lon="9.112578083891286"><ele>355.0</ele><time>2026-05-03T11:25:10Z</time></trkpt><trkpt lat="41.0877870459514" lon="9.112334153821598"><ele>355.0</ele><time>2026-05-03T11:25:11Z</time></trkpt><trkpt lat="41.08768760196663" lon="9.112092485067885"><ele>353.3333333333333</ele><time>2026-05-03T11:25:12Z</time></trkpt><trkpt lat="41.08762783295732" lon="9.11181379324356"><ele>351.6666666666667</ele><time>2026-05-03T11:25:13Z</time></trkpt><trkpt lat="41.087594685835576" lon="9.1115119236726"><ele>350.0</ele><time>2026-05-03T11:25:14Z</time></trkpt><trkpt lat="41.08756491837536" lon="9.111195543245753"><ele>348.0</ele><time>2026-05-03T11:25:15Z</time></trkpt><trkpt lat="41.08752754696056" lon="9.110869411315786"><ele>346.0</ele><time>2026-05-03T11:25:16Z</time></trkpt><trkpt lat="41.087486000457304" lon="9.11053878865282"><ele>343.0</ele><time>2026-05-03T11:25:17Z</time></trkpt><trkpt lat="41.08744368271086" lon="9.110201755398196"><ele>340.0</ele><time>2026-05-03T11:25:18Z</time></trkpt><trkpt lat="41.0874064584533" lon="9.109884651032436"><ele>335.5</ele><time>2026-05-03T11:25:19Z</time></trkpt><trkpt lat="41.08736983700816" lon="9.109580243917135"><ele>331.0</ele><time>2026-05-03T11:25:20Z</time></trkpt><trkpt lat="41.087334458557976" lon="9.10928596961792"><ele>327.66666666666663</ele><time>2026-05-03T11:25:21Z</time></trkpt><trkpt lat="41.087302400125076" lon="9.108997981374928"><ele>324.3333333333333</ele><time>2026-05-03T11:25:22Z</time></trkpt><trkpt lat="41.087300022993716" lon="9.108718921346279"><ele>321.0</ele><time>2026-05-03T11:25:23Z</time></trkpt><trkpt lat="41.0873315425891" lon="9.108452025208917"><ele>319.3333333333333</ele><time>2026-05-03T11:25:24Z</time></trkpt><trkpt lat="41.08739753936502" lon="9.108203875349792"><ele>317.66666666666663</ele><time>2026-05-03T11:25:25Z</time></trkpt><trkpt lat="41.08749285010702" lon="9.107978807673337"><ele>316.0</ele><time>2026-05-03T11:25:26Z</time></trkpt><trkpt lat="41.0876239491782" lon="9.107776652457078"><ele>316.0</ele><time>2026-05-03T11:25:27Z</time></trkpt><trkpt lat="41.087779833763506" lon="9.107587154760312"><ele>316.0</ele><time>2026-05-03T11:25:28Z</time></trkpt><trkpt lat="41.08794435645523" lon="9.107387294475563"><ele>316.0</ele><time>2026-05-03T11:25:29Z</time></trkpt><trkpt lat="41.08812518038191" lon="9.107159051505297"><ele>314.5</ele><time>2026-05-03T11:25:30Z</time></trkpt><trkpt lat="41.088306721880286" lon="9.106929961534462"><ele>313.0</ele><time>2026-05-03T11:25:31Z</time></trkpt><trkpt lat="41.088484935101015" lon="9.10670119003312"><ele>311.5</ele><time>2026-05-03T11:25:32Z</time></trkpt><trkpt lat="41.08867026802543" lon="9.10646397209426"><ele>310.0</ele><time>2026-05-03T11:25:33Z</time></trkpt><trkpt lat="41.088848421490155" lon="9.106250023114752"><ele>310.0</ele><time>2026-05-03T11:25:34Z</time></trkpt><trkpt lat="41.08901960380162" lon="9.10604831863872"><ele>310.0</ele><time>2026-05-03T11:25:35Z</time></trkpt><trkpt lat="41.0891809584398" lon="9.105846452272676"><ele>310.0</ele><time>2026-05-03T11:25:36Z</time></trkpt><trkpt lat="41.0893287698969" lon="9.105641163967686"><ele>310.0</ele><time>2026-05-03T11:25:37Z</time></trkpt><trkpt lat="41.08945324927808" lon="9.105424980118967"><ele>310.0</ele><time>2026-05-03T11:25:38Z</time></trkpt><trkpt lat="41.08953722752271" lon="9.105180186790726"><ele>310.0</ele><time>2026-05-03T11:25:39Z</time></trkpt><trkpt lat="41.089588481503355" lon="9.104927112693463"><ele>310.0</ele><time>2026-05-03T11:25:40Z</time></trkpt><trkpt lat="41.08959464490788" lon="9.10466912795118"><ele>310.0</ele><time>2026-05-03T11:25:41Z</time></trkpt><trkpt lat="41.089561149928464" lon="9.104393198302787"><ele>304.5</ele><time>2026-05-03T11:25:42Z</time></trkpt><trkpt lat="41.08949622252997" lon="9.104116023637328"><ele>299.0</ele><time>2026-05-03T11:25:43Z</time></trkpt><trkpt lat="41.089413471796945" lon="9.103817218035973"><ele>297.0</ele><time>2026-05-03T11:25:44Z</time></trkpt><trkpt lat="41.0893355362354" lon="9.103501719151986"><ele>295.0</ele><time>2026-05-03T11:25:45Z</time></trkpt><trkpt lat="41.08925463915396" lon="9.103168476468186"><ele>294.5</ele><time>2026-05-03T11:25:46Z</time></trkpt><trkpt lat="41.0891733740681" lon="9.102831610502916"><ele>294.0</ele><time>2026-05-03T11:25:47Z</time></trkpt><trkpt lat="41.08909411839032" lon="9.102491289622339"><ele>285.0</ele><time>2026-05-03T11:25:48Z</time></trkpt><trkpt lat="41.08901891193943" lon="9.102172789936148"><ele>276.0</ele><time>2026-05-03T11:25:49Z</time></trkpt><trkpt lat="41.08894640159426" lon="9.10187843940567"><ele>276.0</ele><time>2026-05-03T11:25:50Z</time></trkpt><trkpt lat="41.08887379027102" lon="9.101587302322232"><ele>276.0</ele><time>2026-05-03T11:25:51Z</time></trkpt><trkpt lat="41.088803551697865" lon="9.101307783791736"><ele>273.6666666666667</ele><time>2026-05-03T11:25:52Z</time></trkpt><trkpt lat="41.088743257331224" lon="9.101033126166332"><ele>271.33333333333337</ele><time>2026-05-03T11:25:53Z</time></trkpt><trkpt lat="41.088704441177654" lon="9.1007350883038"><ele>269.0</ele><time>2026-05-03T11:25:54Z</time></trkpt><trkpt lat="41.08870215253122" lon="9.100430532947634"><ele>266.6666666666667</ele><time>2026-05-03T11:25:55Z</time></trkpt><trkpt lat="41.0887318382935" lon="9.100143042624117"><ele>264.3333333333333</ele><time>2026-05-03T11:25:56Z</time></trkpt><trkpt lat="41.088793156638154" lon="9.099877115358964"><ele>262.0</ele><time>2026-05-03T11:25:57Z</time></trkpt><trkpt lat="41.08888103990038" lon="9.099624295003062"><ele>264.66666666666663</ele><time>2026-05-03T11:25:58Z</time></trkpt><trkpt lat="41.089005694280814" lon="9.099386969081692"><ele>267.3333333333333</ele><time>2026-05-03T11:25:59Z</time></trkpt><trkpt lat="41.089146860588436" lon="9.0991509435132"><ele>270.0</ele><time>2026-05-03T11:26:00Z</time></trkpt><trkpt lat="41.089322449264024" lon="9.09894557160583"><ele>259.0</ele><time>2026-05-03T11:26:01Z</time></trkpt><trkpt lat="41.08951025581271" lon="9.098751715798825"><ele>248.0</ele><time>2026-05-03T11:26:02Z</time></trkpt><trkpt lat="41.089699877595585" lon="9.098555086527861"><ele>248.0</ele><time>2026-05-03T11:26:03Z</time></trkpt><trkpt lat="41.08988219508053" lon="9.098367410813154"><ele>248.0</ele><time>2026-05-03T11:26:04Z</time></trkpt><trkpt lat="41.090056911681486" lon="9.09818321902051"><ele>246.66666666666669</ele><time>2026-05-03T11:26:05Z</time></trkpt><trkpt lat="41.09023408018662" lon="9.09799939719132"><ele>245.33333333333331</ele><time>2026-05-03T11:26:06Z</time></trkpt><trkpt lat="41.09040434862096" lon="9.097825596571058"><ele>244.0</ele><time>2026-05-03T11:26:07Z</time></trkpt><trkpt lat="41.09060478717431" lon="9.097679134628555"><ele>247.5</ele><time>2026-05-03T11:26:08Z</time></trkpt><trkpt lat="41.09083537785023" lon="9.09756056850513"><ele>251.0</ele><time>2026-05-03T11:26:09Z</time></trkpt><trkpt lat="41.09107499991264" lon="9.097463204493248"><ele>241.5</ele><time>2026-05-03T11:26:10Z</time></trkpt><trkpt lat="41.091328824536234" lon="9.09736631413799"><ele>232.0</ele><time>2026-05-03T11:26:11Z</time></trkpt><trkpt lat="41.09158472030387" lon="9.097256575636038"><ele>234.0</ele><time>2026-05-03T11:26:12Z</time></trkpt><trkpt lat="41.09184409504106" lon="9.097144842365422"><ele>236.0</ele><time>2026-05-03T11:26:13Z</time></trkpt><trkpt lat="41.09210361677087" lon="9.097031293202233"><ele>236.0</ele><time>2026-05-03T11:26:14Z</time></trkpt><trkpt lat="41.09234648042214" lon="9.096928958730023"><ele>236.0</ele><time>2026-05-03T11:26:15Z</time></trkpt><trkpt lat="41.09257714095864" lon="9.096834244618735"><ele>235.0</ele><time>2026-05-03T11:26:16Z</time></trkpt><trkpt lat="41.09279765346464" lon="9.096742340746099"><ele>234.0</ele><time>2026-05-03T11:26:17Z</time></trkpt><trkpt lat="41.093007886234375" lon="9.096649158929942"><ele>230.66666666666669</ele><time>2026-05-03T11:26:18Z</time></trkpt><trkpt lat="41.09321345089449" lon="9.09658133558976"><ele>227.33333333333334</ele><time>2026-05-03T11:26:19Z</time></trkpt><trkpt lat="41.09342629790621" lon="9.096543750458393"><ele>224.0</ele><time>2026-05-03T11:26:20Z</time></trkpt><trkpt lat="41.0936408762041" lon="9.096561864997057"><ele>226.66666666666669</ele><time>2026-05-03T11:26:21Z</time></trkpt><trkpt lat="41.093848227136625" lon="9.096641145514024"><ele>229.33333333333331</ele><time>2026-05-03T11:26:22Z</time></trkpt><trkpt lat="41.094027712393775" lon="9.096771059930395"><ele>232.0</ele><time>2026-05-03T11:26:23Z</time></trkpt><trkpt lat="41.094190620449176" lon="9.096953410708998"><ele>232.0</ele><time>2026-05-03T11:26:24Z</time></trkpt><trkpt lat="41.09432653705058" lon="9.097176845019906"><ele>232.0</ele><time>2026-05-03T11:26:25Z</time></trkpt><trkpt lat="41.094431377685126" lon="9.097433936160089"><ele>232.0</ele><time>2026-05-03T11:26:26Z</time></trkpt><trkpt lat="41.094529674889834" lon="9.097713439080756"><ele>235.5</ele><time>2026-05-03T11:26:27Z</time></trkpt><trkpt lat="41.09463642652759" lon="9.098008749925851"><ele>239.0</ele><time>2026-05-03T11:26:28Z</time></trkpt><trkpt lat="41.0947441949681" lon="9.0983191065096"><ele>239.5</ele><time>2026-05-03T11:26:29Z</time></trkpt><trkpt lat="41.09486052877501" lon="9.098623007339176"><ele>240.0</ele><time>2026-05-03T11:26:30Z</time></trkpt><trkpt lat="41.09497000356303" lon="9.098908448607675"><ele>234.66666666666669</ele><time>2026-05-03T11:26:31Z</time></trkpt><trkpt lat="41.09508490689807" lon="9.099171892113796"><ele>229.33333333333334</ele><time>2026-05-03T11:26:32Z</time></trkpt><trkpt lat="41.09518402748565" lon="9.099426981807518"><ele>224.0</ele><time>2026-05-03T11:26:33Z</time></trkpt><trkpt lat="41.095270663244506" lon="9.0996618581728"><ele>224.0</ele><time>2026-05-03T11:26:34Z</time></trkpt><trkpt lat="41.09540942195797" lon="9.09984149245347"><ele>224.0</ele><time>2026-05-03T11:26:35Z</time></trkpt><trkpt lat="41.09555377556963" lon="9.100004908392838"><ele>224.0</ele><time>2026-05-03T11:26:36Z</time></trkpt><trkpt lat="41.09572004341997" lon="9.100122396364013"><ele>220.0</ele><time>2026-05-03T11:26:37Z</time></trkpt><trkpt lat="41.09588868294002" lon="9.100205283805375"><ele>216.0</ele><time>2026-05-03T11:26:38Z</time></trkpt><trkpt lat="41.09606518325804" lon="9.10025129564392"><ele>212.0</ele><time>2026-05-03T11:26:39Z</time></trkpt><trkpt lat="41.09623981344164" lon="9.10024808269253"><ele>212.0</ele><time>2026-05-03T11:26:40Z</time></trkpt><trkpt lat="41.096422897572545" lon="9.100212264800781"><ele>212.0</ele><time>2026-05-03T11:26:41Z</time></trkpt><trkpt lat="41.0966143509942" lon="9.100147268839336"><ele>212.0</ele><time>2026-05-03T11:26:42Z</time></trkpt><trkpt lat="41.09681676075999" lon="9.10007190082596"><ele>210.33333333333334</ele><time>2026-05-03T11:26:43Z</time></trkpt><trkpt lat="41.09702760646896" lon="9.099997982466913"><ele>208.66666666666669</ele><time>2026-05-03T11:26:44Z</time></trkpt><trkpt lat="41.09723487761264" lon="9.099933469410054"><ele>207.0</ele><time>2026-05-03T11:26:45Z</time></trkpt><trkpt lat="41.09742864220716" lon="9.0998681690969"><ele>205.33333333333331</ele><time>2026-05-03T11:26:46Z</time></trkpt><trkpt lat="41.097612431730134" lon="9.099801611635733"><ele>203.66666666666666</ele><time>2026-05-03T11:26:47Z</time></trkpt><trkpt lat="41.09778814486058" lon="9.099714023301932"><ele>202.0</ele><time>2026-05-03T11:26:48Z</time></trkpt><trkpt lat="41.097953115193334" lon="9.09958022819393"><ele>202.0</ele><time>2026-05-03T11:26:49Z</time></trkpt><trkpt lat="41.098101293287364" lon="9.099405058224638"><ele>202.0</ele><time>2026-05-03T11:26:50Z</time></trkpt><trkpt lat="41.09823084039516" lon="9.099196302857537"><ele>202.0</ele><time>2026-05-03T11:26:51Z</time></trkpt><trkpt lat="41.09833193057099" lon="9.098960657442056"><ele>197.66666666666666</ele><time>2026-05-03T11:26:52Z</time></trkpt><trkpt lat="41.098399255472664" lon="9.098707584944231"><ele>193.33333333333331</ele><time>2026-05-03T11:26:53Z</time></trkpt><trkpt lat="41.09843806667854" lon="9.098430766098385"><ele>189.0</ele><time>2026-05-03T11:26:54Z</time></trkpt><trkpt lat="41.09845440987449" lon="9.098139301586643"><ele>187.0</ele><time>2026-05-03T11:26:55Z</time></trkpt><trkpt lat="41.098458658392886" lon="9.097836427849"><ele>185.0</ele><time>2026-05-03T11:26:56Z</time></trkpt><trkpt lat="41.0984568159643" lon="9.097518124079242"><ele>184.5</ele><time>2026-05-03T11:26:57Z</time></trkpt><trkpt lat="41.09846418285903" lon="9.097192500677975"><ele>184.0</ele><time>2026-05-03T11:26:58Z</time></trkpt><trkpt lat="41.098477168318745" lon="9.096861919457147"><ele>182.5</ele><time>2026-05-03T11:26:59Z</time></trkpt><trkpt lat="41.09848778026356" lon="9.096526712894379"><ele>181.0</ele><time>2026-05-03T11:27:00Z</time></trkpt><trkpt lat="41.09849747171179" lon="9.096188539735834"><ele>181.0</ele><time>2026-05-03T11:27:01Z</time></trkpt><trkpt lat="41.09850377423003" lon="9.09584663561069"><ele>181.0</ele><time>2026-05-03T11:27:02Z</time></trkpt><trkpt lat="41.09850920477764" lon="9.095499403086729"><ele>178.5</ele><time>2026-05-03T11:27:03Z</time></trkpt><trkpt lat="41.09852044168832" lon="9.095144150989977"><ele>176.0</ele><time>2026-05-03T11:27:04Z</time></trkpt><trkpt lat="41.09852879997669" lon="9.09478730037154"><ele>172.0</ele><time>2026-05-03T11:27:05Z</time></trkpt><trkpt lat="41.09854353416673" lon="9.094428350044856"><ele>168.0</ele><time>2026-05-03T11:27:06Z</time></trkpt><trkpt lat="41.0985578765643" lon="9.09407609444952"><ele>164.5</ele><time>2026-05-03T11:27:07Z</time></trkpt><trkpt lat="41.098571306646015" lon="9.093734856099514"><ele>161.0</ele><time>2026-05-03T11:27:08Z</time></trkpt><trkpt lat="41.09856817043509" lon="9.093407546567038"><ele>157.5</ele><time>2026-05-03T11:27:09Z</time></trkpt><trkpt lat="41.098568176022084" lon="9.093069592531725"><ele>154.0</ele><time>2026-05-03T11:27:10Z</time></trkpt><trkpt lat="41.098562553063296" lon="9.092729414014963"><ele>151.0</ele><time>2026-05-03T11:27:11Z</time></trkpt><trkpt lat="41.09854363918022" lon="9.092388768606304"><ele>148.0</ele><time>2026-05-03T11:27:12Z</time></trkpt><trkpt lat="41.09849704787159" lon="9.092052483593093"><ele>148.0</ele><time>2026-05-03T11:27:13Z</time></trkpt><trkpt lat="41.098445900269965" lon="9.091715610151416"><ele>148.0</ele><time>2026-05-03T11:27:14Z</time></trkpt><trkpt lat="41.09838639452514" lon="9.09133875695418"><ele>148.0</ele><time>2026-05-03T11:27:15Z</time></trkpt><trkpt lat="41.09832925227794" lon="9.090949893394438"><ele>148.0</ele><time>2026-05-03T11:27:16Z</time></trkpt><trkpt lat="41.098273231355776" lon="9.090560927261945"><ele>141.0</ele><time>2026-05-03T11:27:17Z</time></trkpt><trkpt lat="41.09822322245777" lon="9.090202104317502"><ele>134.0</ele><time>2026-05-03T11:27:18Z</time></trkpt><trkpt lat="41.09817543274493" lon="9.089862591886705"><ele>134.0</ele><time>2026-05-03T11:27:19Z</time></trkpt><trkpt lat="41.09812664775769" lon="9.089543254697386"><ele>134.0</ele><time>2026-05-03T11:27:20Z</time></trkpt><trkpt lat="41.098078426921234" lon="9.089237244770334"><ele>132.5</ele><time>2026-05-03T11:27:21Z</time></trkpt><trkpt lat="41.09803318081433" lon="9.088934085527233"><ele>131.0</ele><time>2026-05-03T11:27:22Z</time></trkpt><trkpt lat="41.0980155814366" lon="9.088647184899413"><ele>131.0</ele><time>2026-05-03T11:27:23Z</time></trkpt><trkpt lat="41.0980173994514" lon="9.088363669928716"><ele>131.0</ele><time>2026-05-03T11:27:24Z</time></trkpt><trkpt lat="41.09805247244795" lon="9.088067756105062"><ele>131.0</ele><time>2026-05-03T11:27:25Z</time></trkpt><trkpt lat="41.09810895478015" lon="9.087749626325198"><ele>130.0</ele><time>2026-05-03T11:27:26Z</time></trkpt><trkpt lat="41.098170544645725" lon="9.087414957211452"><ele>129.0</ele><time>2026-05-03T11:27:27Z</time></trkpt><trkpt lat="41.09822556153856" lon="9.087065522599454"><ele>129.5</ele><time>2026-05-03T11:27:28Z</time></trkpt><trkpt lat="41.09829354280097" lon="9.086719053594623"><ele>130.0</ele><time>2026-05-03T11:27:29Z</time></trkpt><trkpt lat="41.09835810957149" lon="9.086368794897373"><ele>130.0</ele><time>2026-05-03T11:27:30Z</time></trkpt><trkpt lat="41.0984227147643" lon="9.086014859304608"><ele>130.0</ele><time>2026-05-03T11:27:31Z</time></trkpt><trkpt lat="41.09848245986259" lon="9.085668273147398"><ele>128.0</ele><time>2026-05-03T11:27:32Z</time></trkpt><trkpt lat="41.09856591238704" lon="9.085337526054948"><ele>126.0</ele><time>2026-05-03T11:27:33Z</time></trkpt><trkpt lat="41.098670854558435" lon="9.08503752436996"><ele>122.5</ele><time>2026-05-03T11:27:34Z</time></trkpt><trkpt lat="41.098790340662575" lon="9.084770246590335"><ele>119.0</ele><time>2026-05-03T11:27:35Z</time></trkpt><trkpt lat="41.098901994779915" lon="9.084494304443071"><ele>119.0</ele><time>2026-05-03T11:27:36Z</time></trkpt><trkpt lat="41.099006202906295" lon="9.08421260218647"><ele>119.0</ele><time>2026-05-03T11:27:37Z</time></trkpt><trkpt lat="41.099101044666284" lon="9.08393978029277"><ele>123.33333333333333</ele><time>2026-05-03T11:27:38Z</time></trkpt><trkpt lat="41.09919111683461" lon="9.08370277326452"><ele>127.66666666666666</ele><time>2026-05-03T11:27:39Z</time></trkpt><trkpt lat="41.099285323349775" lon="9.08347763117817"><ele>132.0</ele><time>2026-05-03T11:27:40Z</time></trkpt><trkpt lat="41.09940511378686" lon="9.083282282142438"><ele>131.33333333333334</ele><time>2026-05-03T11:27:41Z</time></trkpt><trkpt lat="41.099563466215" lon="9.083118675426912"><ele>130.66666666666669</ele><time>2026-05-03T11:27:42Z</time></trkpt><trkpt lat="41.09973693238904" lon="9.082998487503966"><ele>130.0</ele><time>2026-05-03T11:27:43Z</time></trkpt><trkpt lat="41.09992608221114" lon="9.08291850949885"><ele>131.33333333333334</ele><time>2026-05-03T11:27:44Z</time></trkpt><trkpt lat="41.100135374476444" lon="9.082903400744406"><ele>132.66666666666666</ele><time>2026-05-03T11:27:45Z</time></trkpt><trkpt lat="41.10034801267566" lon="9.082942938749893"><ele>134.0</ele><time>2026-05-03T11:27:46Z</time></trkpt><trkpt lat="41.100564969808424" lon="9.083090501196779"><ele>134.0</ele><time>2026-05-03T11:27:47Z</time></trkpt><trkpt lat="41.100754851802044" lon="9.08322590830417"><ele>134.0</ele><time>2026-05-03T11:27:48Z</time></trkpt><trkpt lat="41.10095248526208" lon="9.083372928354462"><ele>134.0</ele><time>2026-05-03T11:27:49Z</time></trkpt><trkpt lat="41.10115172953673" lon="9.08350858030151"><ele>134.0</ele><time>2026-05-03T11:27:50Z</time></trkpt><trkpt lat="41.10136613544631" lon="9.083632066392786"><ele>134.0</ele><time>2026-05-03T11:27:51Z</time></trkpt><trkpt lat="41.101561110701155" lon="9.083788039706759"><ele>134.5</ele><time>2026-05-03T11:27:52Z</time></trkpt><trkpt lat="41.10174410793493" lon="9.083986373111795"><ele>135.0</ele><time>2026-05-03T11:27:53Z</time></trkpt><trkpt lat="41.10190898850115" lon="9.084210373370391"><ele>135.0</ele><time>2026-05-03T11:27:54Z</time></trkpt><trkpt lat="41.10207679813849" lon="9.084433519721522"><ele>135.0</ele><time>2026-05-03T11:27:55Z</time></trkpt><trkpt lat="41.10224975873932" lon="9.084657245730257"><ele>135.0</ele><time>2026-05-03T11:27:56Z</time></trkpt><trkpt lat="41.10243211186986" lon="9.084888258320479"><ele>135.0</ele><time>2026-05-03T11:27:57Z</time></trkpt><trkpt lat="41.10262088094934" lon="9.085123972403846"><ele>135.0</ele><time>2026-05-03T11:27:58Z</time></trkpt><trkpt lat="41.1028161370319" lon="9.085365801856467"><ele>135.0</ele><time>2026-05-03T11:27:59Z</time></trkpt><trkpt lat="41.1030033983002" lon="9.08560106531557"><ele>130.0</ele><time>2026-05-03T11:28:00Z</time></trkpt><trkpt lat="41.10316803549924" lon="9.085824781781927"><ele>125.0</ele><time>2026-05-03T11:28:01Z</time></trkpt><trkpt lat="41.10333071514336" lon="9.086033402909484"><ele>125.0</ele><time>2026-05-03T11:28:02Z</time></trkpt><trkpt lat="41.10348815155064" lon="9.086221348021194"><ele>125.0</ele><time>2026-05-03T11:28:03Z</time></trkpt><trkpt lat="41.10365567664629" lon="9.086384698320446"><ele>125.0</ele><time>2026-05-03T11:28:04Z</time></trkpt><trkpt lat="41.10384717779773" lon="9.086505638875197"><ele>125.0</ele><time>2026-05-03T11:28:05Z</time></trkpt><trkpt lat="41.10404724306068" lon="9.086574249459389"><ele>125.0</ele><time>2026-05-03T11:28:06Z</time></trkpt><trkpt lat="41.104244941993855" lon="9.086573600715733"><ele>125.0</ele><time>2026-05-03T11:28:07Z</time></trkpt><trkpt lat="41.10445994315345" lon="9.086535295387415"><ele>121.5</ele><time>2026-05-03T11:28:08Z</time></trkpt><trkpt lat="41.10467894320614" lon="9.086468196131236"><ele>118.0</ele><time>2026-05-03T11:28:09Z</time></trkpt><trkpt lat="41.10491392258226" lon="9.086401631371697"><ele>118.0</ele><time>2026-05-03T11:28:10Z</time></trkpt><trkpt lat="41.105144146975135" lon="9.086350660890442"><ele>118.0</ele><time>2026-05-03T11:28:11Z</time></trkpt><trkpt lat="41.105367938735434" lon="9.086314498191049"><ele>118.0</ele><time>2026-05-03T11:28:12Z</time></trkpt><trkpt lat="41.10557908698461" lon="9.086275954353242"><ele>118.0</ele><time>2026-05-03T11:28:13Z</time></trkpt><trkpt lat="41.10579593877719" lon="9.086202666354694"><ele>118.0</ele><time>2026-05-03T11:28:14Z</time></trkpt><trkpt lat="41.10600148898843" lon="9.086086010124781"><ele>118.5</ele><time>2026-05-03T11:28:15Z</time></trkpt><trkpt lat="41.106200125834384" lon="9.085913650781928"><ele>119.0</ele><time>2026-05-03T11:28:16Z</time></trkpt><trkpt lat="41.106405816438205" lon="9.08572702354674"><ele>115.0</ele><time>2026-05-03T11:28:17Z</time></trkpt><trkpt lat="41.1066163938422" lon="9.085532326124241"><ele>111.0</ele><time>2026-05-03T11:28:18Z</time></trkpt><trkpt lat="41.10684174938556" lon="9.08535006281506"><ele>111.0</ele><time>2026-05-03T11:28:19Z</time></trkpt><trkpt lat="41.107078585508106" lon="9.0851607383355"><ele>111.0</ele><time>2026-05-03T11:28:20Z</time></trkpt><trkpt lat="41.107305727841606" lon="9.084962060657455"><ele>107.0</ele><time>2026-05-03T11:28:21Z</time></trkpt><trkpt lat="41.107536954488324" lon="9.08476847764032"><ele>103.0</ele><time>2026-05-03T11:28:22Z</time></trkpt><trkpt lat="41.107767136835655" lon="9.084573875120512"><ele>103.0</ele><time>2026-05-03T11:28:23Z</time></trkpt><trkpt lat="41.10799620513635" lon="9.084381370633187"><ele>103.0</ele><time>2026-05-03T11:28:24Z</time></trkpt><trkpt lat="41.10822323422593" lon="9.084185808296828"><ele>105.5</ele><time>2026-05-03T11:28:25Z</time></trkpt><trkpt lat="41.1084511173128" lon="9.083990287869664"><ele>108.0</ele><time>2026-05-03T11:28:26Z</time></trkpt><trkpt lat="41.1086779430225" lon="9.083803112318519"><ele>108.0</ele><time>2026-05-03T11:28:27Z</time></trkpt><trkpt lat="41.10889196921119" lon="9.083625527304164"><ele>108.0</ele><time>2026-05-03T11:28:28Z</time></trkpt><trkpt lat="41.10909201913617" lon="9.08345934585932"><ele>108.0</ele><time>2026-05-03T11:28:29Z</time></trkpt><trkpt lat="41.109292278923746" lon="9.083286301128432"><ele>108.0</ele><time>2026-05-03T11:28:30Z</time></trkpt><trkpt lat="41.109490571951866" lon="9.083088099226863"><ele>108.0</ele><time>2026-05-03T11:28:31Z</time></trkpt><trkpt lat="41.10966358826574" lon="9.082869525635921"><ele>108.0</ele><time>2026-05-03T11:28:32Z</time></trkpt><trkpt lat="41.10983353124145" lon="9.082633685128727"><ele>103.5</ele><time>2026-05-03T11:28:33Z</time></trkpt><trkpt lat="41.11000668241638" lon="9.082402019753093"><ele>99.0</ele><time>2026-05-03T11:28:34Z</time></trkpt><trkpt lat="41.110180062034715" lon="9.082169777829924"><ele>99.0</ele><time>2026-05-03T11:28:35Z</time></trkpt><trkpt lat="41.11036131669548" lon="9.081936770026921"><ele>99.0</ele><time>2026-05-03T11:28:36Z</time></trkpt><trkpt lat="41.11054380911367" lon="9.081703864747539"><ele>98.0</ele><time>2026-05-03T11:28:37Z</time></trkpt><trkpt lat="41.11074061261641" lon="9.081463462187894"><ele>97.0</ele><time>2026-05-03T11:28:38Z</time></trkpt><trkpt lat="41.11095029682119" lon="9.081217778638962"><ele>95.0</ele><time>2026-05-03T11:28:39Z</time></trkpt><trkpt lat="41.11109738706687" lon="9.080984688651405"><ele>93.0</ele><time>2026-05-03T11:28:40Z</time></trkpt><trkpt lat="41.11128554522212" lon="9.080735374560348"><ele>92.0</ele><time>2026-05-03T11:28:41Z</time></trkpt><trkpt lat="41.11146474571711" lon="9.080489015134395"><ele>91.0</ele><time>2026-05-03T11:28:42Z</time></trkpt><trkpt lat="41.11164623024158" lon="9.080249846839013"><ele>89.5</ele><time>2026-05-03T11:28:43Z</time></trkpt><trkpt lat="41.1118376903628" lon="9.079989656544779"><ele>88.0</ele><time>2026-05-03T11:28:44Z</time></trkpt><trkpt lat="41.11202391986801" lon="9.079724398051981"><ele>87.0</ele><time>2026-05-03T11:28:45Z</time></trkpt><trkpt lat="41.112207861155866" lon="9.079448585514745"><ele>86.0</ele><time>2026-05-03T11:28:46Z</time></trkpt><trkpt lat="41.112390773833894" lon="9.079169278142274"><ele>84.5</ele><time>2026-05-03T11:28:47Z</time></trkpt><trkpt lat="41.112577115278526" lon="9.078896234254193"><ele>83.0</ele><time>2026-05-03T11:28:48Z</time></trkpt><trkpt lat="41.11275346771988" lon="9.078618519752544"><ele>83.0</ele><time>2026-05-03T11:28:49Z</time></trkpt><trkpt lat="41.112942426078526" lon="9.07834416820136"><ele>83.0</ele><time>2026-05-03T11:28:50Z</time></trkpt><trkpt lat="41.11312316643656" lon="9.078088912261023"><ele>79.5</ele><time>2026-05-03T11:28:51Z</time></trkpt><trkpt lat="41.11329022689326" lon="9.077838802013668"><ele>76.0</ele><time>2026-05-03T11:28:52Z</time></trkpt><trkpt lat="41.11344958347264" lon="9.077596961227485"><ele>75.5</ele><time>2026-05-03T11:28:53Z</time></trkpt><trkpt lat="41.113599879925815" lon="9.077360654348016"><ele>75.0</ele><time>2026-05-03T11:28:54Z</time></trkpt><trkpt lat="41.113761237768585" lon="9.077126159620958"><ele>75.0</ele><time>2026-05-03T11:28:55Z</time></trkpt><trkpt lat="41.11394117761648" lon="9.076901987262897"><ele>75.0</ele><time>2026-05-03T11:28:56Z</time></trkpt><trkpt lat="41.11412810700271" lon="9.076680552642271"><ele>71.0</ele><time>2026-05-03T11:28:57Z</time></trkpt><trkpt lat="41.114338760822356" lon="9.076484066168451"><ele>67.0</ele><time>2026-05-03T11:28:58Z</time></trkpt><trkpt lat="41.114562137303075" lon="9.07629476835792"><ele>67.0</ele><time>2026-05-03T11:28:59Z</time></trkpt><trkpt lat="41.1147886273308" lon="9.076103901698541"><ele>67.0</ele><time>2026-05-03T11:29:00Z</time></trkpt><trkpt lat="41.115019025699056" lon="9.075913433094096"><ele>64.5</ele><time>2026-05-03T11:29:01Z</time></trkpt><trkpt lat="41.1152443267567" lon="9.075702592513176"><ele>62.0</ele><time>2026-05-03T11:29:02Z</time></trkpt><trkpt lat="41.11548070002554" lon="9.075531140644987"><ele>62.0</ele><time>2026-05-03T11:29:03Z</time></trkpt><trkpt lat="41.11572216636256" lon="9.075325315668636"><ele>62.0</ele><time>2026-05-03T11:29:04Z</time></trkpt><trkpt lat="41.11595754408085" lon="9.075127487729553"><ele>61.5</ele><time>2026-05-03T11:29:05Z</time></trkpt><trkpt lat="41.11618218974026" lon="9.074903780375516"><ele>61.0</ele><time>2026-05-03T11:29:06Z</time></trkpt><trkpt lat="41.11641863566038" lon="9.07471042252432"><ele>60.5</ele><time>2026-05-03T11:29:07Z</time></trkpt><trkpt lat="41.11665962983208" lon="9.074526694790176"><ele>60.0</ele><time>2026-05-03T11:29:08Z</time></trkpt><trkpt lat="41.11690416902349" lon="9.074354573836368"><ele>60.0</ele><time>2026-05-03T11:29:09Z</time></trkpt><trkpt lat="41.11715122909336" lon="9.07419572472218"><ele>60.0</ele><time>2026-05-03T11:29:10Z</time></trkpt><trkpt lat="41.11739456228961" lon="9.074036669345448"><ele>56.5</ele><time>2026-05-03T11:29:11Z</time></trkpt><trkpt lat="41.11762592622175" lon="9.073884337735038"><ele>53.0</ele><time>2026-05-03T11:29:12Z</time></trkpt><trkpt lat="41.117854827055616" lon="9.073729048894915"><ele>53.0</ele><time>2026-05-03T11:29:13Z</time></trkpt><trkpt lat="41.118084985593605" lon="9.073577361304817"><ele>53.0</ele><time>2026-05-03T11:29:14Z</time></trkpt><trkpt lat="41.118313814006775" lon="9.073422989173313"><ele>51.5</ele><time>2026-05-03T11:29:15Z</time></trkpt><trkpt lat="41.1185266514131" lon="9.07328280521497"><ele>50.0</ele><time>2026-05-03T11:29:16Z</time></trkpt><trkpt lat="41.11873457594232" lon="9.073128208154454"><ele>48.5</ele><time>2026-05-03T11:29:17Z</time></trkpt><trkpt lat="41.11894663192514" lon="9.07295513579812"><ele>47.0</ele><time>2026-05-03T11:29:18Z</time></trkpt><trkpt lat="41.1191456042151" lon="9.072761892491378"><ele>45.5</ele><time>2026-05-03T11:29:19Z</time></trkpt><trkpt lat="41.119323256068924" lon="9.072537550019364"><ele>44.0</ele><time>2026-05-03T11:29:20Z</time></trkpt><trkpt lat="41.11948253405191" lon="9.072295119106714"><ele>42.0</ele><time>2026-05-03T11:29:21Z</time></trkpt><trkpt lat="41.119651900024365" lon="9.07202273062266"><ele>40.0</ele><time>2026-05-03T11:29:22Z</time></trkpt><trkpt lat="41.11983731575287" lon="9.071790782572991"><ele>38.0</ele><time>2026-05-03T11:29:23Z</time></trkpt><trkpt lat="41.120005506467784" lon="9.071568557126856"><ele>36.0</ele><time>2026-05-03T11:29:24Z</time></trkpt><trkpt lat="41.120153882571245" lon="9.071369771001402"><ele>34.0</ele><time>2026-05-03T11:29:25Z</time></trkpt><trkpt lat="41.12030614985276" lon="9.07116078997838"><ele>34.0</ele><time>2026-05-03T11:29:26Z</time></trkpt><trkpt lat="41.12046827108224" lon="9.070945629088655"><ele>34.0</ele><time>2026-05-03T11:29:27Z</time></trkpt><trkpt lat="41.1206427373788" lon="9.070726872800723"><ele>29.0</ele><time>2026-05-03T11:29:28Z</time></trkpt><trkpt lat="41.12083496503316" lon="9.07051755610231"><ele>24.0</ele><time>2026-05-03T11:29:29Z</time></trkpt><trkpt lat="41.12103968411919" lon="9.070320246141813"><ele>24.0</ele><time>2026-05-03T11:29:30Z</time></trkpt><trkpt lat="41.12124939734029" lon="9.070144133880765"><ele>24.0</ele><time>2026-05-03T11:29:31Z</time></trkpt><trkpt lat="41.12145363192731" lon="9.06998181929723"><ele>20.666666666666668</ele><time>2026-05-03T11:29:32Z</time></trkpt><trkpt lat="41.12164221568416" lon="9.069830913869904"><ele>17.333333333333336</ele><time>2026-05-03T11:29:33Z</time></trkpt><trkpt lat="41.121823568523496" lon="9.069684251201211"><ele>14.0</ele><time>2026-05-03T11:29:34Z</time></trkpt><trkpt lat="41.12200710994107" lon="9.069524213671622"><ele>14.0</ele><time>2026-05-03T11:29:35Z</time></trkpt><trkpt lat="41.12217861317107" lon="9.069385041728673"><ele>14.0</ele><time>2026-05-03T11:29:36Z</time></trkpt><trkpt lat="41.12233284147717" lon="9.069260423750453"><ele>14.0</ele><time>2026-05-03T11:29:37Z</time></trkpt><trkpt lat="41.122469651418406" lon="9.069154504486198"><ele>13.6</ele><time>2026-05-03T11:29:38Z</time></trkpt><trkpt lat="41.122575432691136" lon="9.069070755027486"><ele>13.2</ele><time>2026-05-03T11:29:39Z</time></trkpt><trkpt lat="41.122661042766865" lon="9.069025104585757"><ele>12.799999999999999</ele><time>2026-05-03T11:29:40Z</time></trkpt><trkpt lat="41.122758048122265" lon="9.069014323059575"><ele>12.399999999999999</ele><time>2026-05-03T11:29:42Z</time></trkpt><trkpt lat="41.122850740668696" lon="9.069023557035155"><ele>12.0</ele><time>2026-05-03T11:29:44Z</time></trkpt><trkpt lat="41.12292832236281" lon="9.069047299154828"><ele>12.0</ele><time>2026-05-03T11:29:45Z</time></trkpt><trkpt lat="41.12301763699811" lon="9.069086896607775"><ele>12.0</ele><time>2026-05-03T11:29:46Z</time></trkpt><trkpt lat="41.12312501820526" lon="9.069173342445193"><ele>12.0</ele><time>2026-05-03T11:29:47Z</time></trkpt><trkpt lat="41.12323669026233" lon="9.06930151158805"><ele>12.0</ele><time>2026-05-03T11:29:48Z</time></trkpt><trkpt lat="41.12335161387712" lon="9.069448395698675"><ele>12.0</ele><time>2026-05-03T11:29:49Z</time></trkpt><trkpt lat="41.123479147828235" lon="9.069608392561793"><ele>12.0</ele><time>2026-05-03T11:29:50Z</time></trkpt><trkpt lat="41.12362181644101" lon="9.069792399117482"><ele>12.0</ele><time>2026-05-03T11:29:51Z</time></trkpt><trkpt lat="41.12377313707431" lon="9.069997335486896"><ele>12.5</ele><time>2026-05-03T11:29:52Z</time></trkpt><trkpt lat="41.123936170671605" lon="9.07020305641604"><ele>13.0</ele><time>2026-05-03T11:29:53Z</time></trkpt><trkpt lat="41.12409290596404" lon="9.070427565195384"><ele>13.5</ele><time>2026-05-03T11:29:54Z</time></trkpt><trkpt lat="41.124241751974346" lon="9.070672749734092"><ele>14.0</ele><time>2026-05-03T11:29:55Z</time></trkpt><trkpt lat="41.124378425859554" lon="9.070943228937105"><ele>14.0</ele><time>2026-05-03T11:29:56Z</time></trkpt><trkpt lat="41.12451069703441" lon="9.071238711776823"><ele>14.0</ele><time>2026-05-03T11:29:57Z</time></trkpt><trkpt lat="41.124624035202885" lon="9.07154255652193"><ele>15.5</ele><time>2026-05-03T11:29:58Z</time></trkpt><trkpt lat="41.12472009004608" lon="9.071848394648274"><ele>17.0</ele><time>2026-05-03T11:29:59Z</time></trkpt><trkpt lat="41.12479757415774" lon="9.072162352940357"><ele>18.0</ele><time>2026-05-03T11:30:00Z</time></trkpt><trkpt lat="41.12485680026934" lon="9.072482808396138"><ele>19.0</ele><time>2026-05-03T11:30:01Z</time></trkpt><trkpt lat="41.124904712390475" lon="9.0728042150885"><ele>17.5</ele><time>2026-05-03T11:30:02Z</time></trkpt><trkpt lat="41.12494056612733" lon="9.073128627591293"><ele>16.0</ele><time>2026-05-03T11:30:03Z</time></trkpt><trkpt lat="41.12495915619548" lon="9.073457667109883"><ele>16.0</ele><time>2026-05-03T11:30:04Z</time></trkpt><trkpt lat="41.12497175572762" lon="9.073789074036306"><ele>16.0</ele><time>2026-05-03T11:30:05Z</time></trkpt><trkpt lat="41.12498379431659" lon="9.074120615054271"><ele>16.0</ele><time>2026-05-03T11:30:06Z</time></trkpt><trkpt lat="41.124994650688606" lon="9.074447340950677"><ele>16.0</ele><time>2026-05-03T11:30:07Z</time></trkpt><trkpt lat="41.12500611856579" lon="9.074767848533856"><ele>15.5</ele><time>2026-05-03T11:30:08Z</time></trkpt><trkpt lat="41.12501894563856" lon="9.075082624944905"><ele>15.0</ele><time>2026-05-03T11:30:09Z</time></trkpt><trkpt lat="41.1250326487283" lon="9.075391380550254"><ele>15.0</ele><time>2026-05-03T11:30:10Z</time></trkpt><trkpt lat="41.125046351076094" lon="9.075700487246475"><ele>15.0</ele><time>2026-05-03T11:30:11Z</time></trkpt><trkpt lat="41.125062188518235" lon="9.076013911090199"><ele>13.5</ele><time>2026-05-03T11:30:12Z</time></trkpt><trkpt lat="41.125076580935016" lon="9.07632840404364"><ele>12.0</ele><time>2026-05-03T11:30:13Z</time></trkpt><trkpt lat="41.12508880835149" lon="9.076653723695769"><ele>11.5</ele><time>2026-05-03T11:30:14Z</time></trkpt><trkpt lat="41.12510128170427" lon="9.076987521545785"><ele>11.0</ele><time>2026-05-03T11:30:15Z</time></trkpt><trkpt lat="41.12511417355054" lon="9.077326252249115"><ele>11.0</ele><time>2026-05-03T11:30:16Z</time></trkpt><trkpt lat="41.125128349599734" lon="9.07766895357695"><ele>11.0</ele><time>2026-05-03T11:30:17Z</time></trkpt><trkpt lat="41.12514353516352" lon="9.078018423643865"><ele>11.5</ele><time>2026-05-03T11:30:18Z</time></trkpt><trkpt lat="41.12515907346648" lon="9.078374050631105"><ele>12.0</ele><time>2026-05-03T11:30:19Z</time></trkpt><trkpt lat="41.125170181092706" lon="9.078734440651361"><ele>11.5</ele><time>2026-05-03T11:30:20Z</time></trkpt><trkpt lat="41.125185164373846" lon="9.079102866480069"><ele>11.0</ele><time>2026-05-03T11:30:21Z</time></trkpt><trkpt lat="41.12520333794039" lon="9.0794710357529"><ele>11.0</ele><time>2026-05-03T11:30:22Z</time></trkpt><trkpt lat="41.125221407609075" lon="9.079840107224632"><ele>11.0</ele><time>2026-05-03T11:30:23Z</time></trkpt><trkpt lat="41.12523640864835" lon="9.080203415739135"><ele>11.5</ele><time>2026-05-03T11:30:24Z</time></trkpt><trkpt lat="41.125251149607706" lon="9.080562774254448"><ele>12.0</ele><time>2026-05-03T11:30:25Z</time></trkpt><trkpt lat="41.12526500196237" lon="9.080919135558498"><ele>12.5</ele><time>2026-05-03T11:30:26Z</time></trkpt><trkpt lat="41.12527851787534" lon="9.08127375460523"><ele>13.0</ele><time>2026-05-03T11:30:27Z</time></trkpt><trkpt lat="41.12529248137151" lon="9.081630197842669"><ele>13.5</ele><time>2026-05-03T11:30:28Z</time></trkpt><trkpt lat="41.12530729293137" lon="9.081986587862216"><ele>14.0</ele><time>2026-05-03T11:30:29Z</time></trkpt><trkpt lat="41.12532297668449" lon="9.082342200325895"><ele>15.0</ele><time>2026-05-03T11:30:30Z</time></trkpt><trkpt lat="41.12534039838939" lon="9.082699563762253"><ele>16.0</ele><time>2026-05-03T11:30:31Z</time></trkpt><trkpt lat="41.12535865307105" lon="9.083055344242666"><ele>16.5</ele><time>2026-05-03T11:30:32Z</time></trkpt><trkpt lat="41.125387808583575" lon="9.08341559418599"><ele>17.0</ele><time>2026-05-03T11:30:33Z</time></trkpt><trkpt lat="41.125426590201236" lon="9.083773840191913"><ele>16.5</ele><time>2026-05-03T11:30:34Z</time></trkpt><trkpt lat="41.125476838847206" lon="9.084131877625728"><ele>16.0</ele><time>2026-05-03T11:30:35Z</time></trkpt><trkpt lat="41.1255395440452" lon="9.084488701173695"><ele>16.0</ele><time>2026-05-03T11:30:36Z</time></trkpt><trkpt lat="41.12561455579355" lon="9.084841577052124"><ele>16.0</ele><time>2026-05-03T11:30:37Z</time></trkpt><trkpt lat="41.125698312625474" lon="9.085192672722513"><ele>16.0</ele><time>2026-05-03T11:30:38Z</time></trkpt><trkpt lat="41.12579045807451" lon="9.085541262037703"><ele>16.0</ele><time>2026-05-03T11:30:39Z</time></trkpt><trkpt lat="41.12588623801453" lon="9.08588831149446"><ele>15.5</ele><time>2026-05-03T11:30:40Z</time></trkpt><trkpt lat="41.12598016685763" lon="9.086240142875932"><ele>15.0</ele><time>2026-05-03T11:30:41Z</time></trkpt><trkpt lat="41.12607298766718" lon="9.086591373703305"><ele>15.0</ele><time>2026-05-03T11:30:42Z</time></trkpt><trkpt lat="41.12616766740893" lon="9.08694574150302"><ele>15.0</ele><time>2026-05-03T11:30:43Z</time></trkpt><trkpt lat="41.12626339362729" lon="9.087298676312564"><ele>15.5</ele><time>2026-05-03T11:30:44Z</time></trkpt><trkpt lat="41.12635913872213" lon="9.087655718191074"><ele>16.0</ele><time>2026-05-03T11:30:45Z</time></trkpt><trkpt lat="41.1264564183944" lon="9.088013372960473"><ele>15.5</ele><time>2026-05-03T11:30:46Z</time></trkpt><trkpt lat="41.12655587913837" lon="9.088371644847767"><ele>15.0</ele><time>2026-05-03T11:30:47Z</time></trkpt><trkpt lat="41.1266551169819" lon="9.088730528013878"><ele>13.0</ele><time>2026-05-03T11:30:48Z</time></trkpt><trkpt lat="41.12675616950234" lon="9.089091161821134"><ele>11.0</ele><time>2026-05-03T11:30:49Z</time></trkpt><trkpt lat="41.12685613615099" lon="9.089456469779856"><ele>10.5</ele><time>2026-05-03T11:30:50Z</time></trkpt><trkpt lat="41.126956209376594" lon="9.089824230729597"><ele>10.0</ele><time>2026-05-03T11:30:51Z</time></trkpt><trkpt lat="41.12705612404271" lon="9.09019301225105"><ele>10.0</ele><time>2026-05-03T11:30:52Z</time></trkpt><trkpt lat="41.127155841055455" lon="9.090558158598707"><ele>10.0</ele><time>2026-05-03T11:30:53Z</time></trkpt><trkpt lat="41.127254181381275" lon="9.090921164118729"><ele>10.0</ele><time>2026-05-03T11:30:54Z</time></trkpt><trkpt lat="41.127347077136" lon="9.091279666983885"><ele>10.0</ele><time>2026-05-03T11:30:55Z</time></trkpt><trkpt lat="41.12742975502017" lon="9.091638425146765"><ele>16.0</ele><time>2026-05-03T11:30:56Z</time></trkpt><trkpt lat="41.12750123281341" lon="9.09199828959433"><ele>22.0</ele><time>2026-05-03T11:30:57Z</time></trkpt><trkpt lat="41.12756013525627" lon="9.092355940397432"><ele>24.5</ele><time>2026-05-03T11:30:58Z</time></trkpt><trkpt lat="41.12759738550274" lon="9.092718707028915"><ele>27.0</ele><time>2026-05-03T11:30:59Z</time></trkpt><trkpt lat="41.127617877341144" lon="9.093079632595565"><ele>29.0</ele><time>2026-05-03T11:31:00Z</time></trkpt><trkpt lat="41.12762048704497" lon="9.093439149578305"><ele>31.0</ele><time>2026-05-03T11:31:01Z</time></trkpt><trkpt lat="41.12760807161211" lon="9.09379916139738"><ele>34.0</ele><time>2026-05-03T11:31:02Z</time></trkpt><trkpt lat="41.1275868862633" lon="9.094158668813813"><ele>37.0</ele><time>2026-05-03T11:31:03Z</time></trkpt><trkpt lat="41.127562881065664" lon="9.094517230694303"><ele>37.0</ele><time>2026-05-03T11:31:04Z</time></trkpt><trkpt lat="41.12753893580718" lon="9.094878504554645"><ele>37.0</ele><time>2026-05-03T11:31:05Z</time></trkpt><trkpt lat="41.1275184711016" lon="9.095240409831712"><ele>40.5</ele><time>2026-05-03T11:31:06Z</time></trkpt><trkpt lat="41.12749899214102" lon="9.095607215997978"><ele>44.0</ele><time>2026-05-03T11:31:07Z</time></trkpt><trkpt lat="41.12747430522056" lon="9.095970277667002"><ele>46.5</ele><time>2026-05-03T11:31:08Z</time></trkpt><trkpt lat="41.12744924046758" lon="9.096332828549485"><ele>49.0</ele><time>2026-05-03T11:31:09Z</time></trkpt><trkpt lat="41.127425404788326" lon="9.096689614823978"><ele>50.5</ele><time>2026-05-03T11:31:10Z</time></trkpt><trkpt lat="41.12740286296516" lon="9.09704374420269"><ele>52.0</ele><time>2026-05-03T11:31:11Z</time></trkpt><trkpt lat="41.12738368791547" lon="9.097401477928143"><ele>55.0</ele><time>2026-05-03T11:31:12Z</time></trkpt><trkpt lat="41.12737211497183" lon="9.09776015755007"><ele>58.0</ele><time>2026-05-03T11:31:13Z</time></trkpt><trkpt lat="41.127367817107036" lon="9.098126088169844"><ele>58.0</ele><time>2026-05-03T11:31:14Z</time></trkpt><trkpt lat="41.12736920029547" lon="9.098491728210458"><ele>58.0</ele><time>2026-05-03T11:31:15Z</time></trkpt><trkpt lat="41.1273730157666" lon="9.09885690400758"><ele>59.5</ele><time>2026-05-03T11:31:16Z</time></trkpt><trkpt lat="41.127378834253136" lon="9.099218307529823"><ele>61.0</ele><time>2026-05-03T11:31:17Z</time></trkpt><trkpt lat="41.127384280610585" lon="9.099578548059444"><ele>60.0</ele><time>2026-05-03T11:31:18Z</time></trkpt><trkpt lat="41.12739107389663" lon="9.099937299793957"><ele>59.0</ele><time>2026-05-03T11:31:19Z</time></trkpt><trkpt lat="41.1273974815852" lon="9.100294371331747"><ele>59.0</ele><time>2026-05-03T11:31:20Z</time></trkpt><trkpt lat="41.12740273403139" lon="9.100652077499195"><ele>59.0</ele><time>2026-05-03T11:31:21Z</time></trkpt><trkpt lat="41.127410039926986" lon="9.10101655792987"><ele>61.0</ele><time>2026-05-03T11:31:22Z</time></trkpt><trkpt lat="41.12741800981151" lon="9.101382784047049"><ele>63.0</ele><time>2026-05-03T11:31:23Z</time></trkpt><trkpt lat="41.1274259429983" lon="9.101753718043618"><ele>63.0</ele><time>2026-05-03T11:31:24Z</time></trkpt><trkpt lat="41.12743368888489" lon="9.102130651195504"><ele>63.0</ele><time>2026-05-03T11:31:25Z</time></trkpt><trkpt lat="41.127440945641496" lon="9.102512143185645"><ele>63.0</ele><time>2026-05-03T11:31:26Z</time></trkpt><trkpt lat="41.127449885787804" lon="9.102898084448952"><ele>63.0</ele><time>2026-05-03T11:31:27Z</time></trkpt><trkpt lat="41.127458921773844" lon="9.103289536742139"><ele>62.5</ele><time>2026-05-03T11:31:28Z</time></trkpt><trkpt lat="41.12746693999257" lon="9.103683850959458"><ele>62.0</ele><time>2026-05-03T11:31:29Z</time></trkpt><trkpt lat="41.12747437228699" lon="9.104081029643815"><ele>60.5</ele><time>2026-05-03T11:31:30Z</time></trkpt><trkpt lat="41.12748164810289" lon="9.10447809885301"><ele>59.0</ele><time>2026-05-03T11:31:31Z</time></trkpt><trkpt lat="41.12749027143089" lon="9.104874572375946"><ele>59.0</ele><time>2026-05-03T11:31:32Z</time></trkpt><trkpt lat="41.12749831056833" lon="9.105270427550947"><ele>59.0</ele><time>2026-05-03T11:31:33Z</time></trkpt><trkpt lat="41.1275043004489" lon="9.105662030994615"><ele>59.5</ele><time>2026-05-03T11:31:34Z</time></trkpt><trkpt lat="41.12751113277137" lon="9.106050742616455"><ele>60.0</ele><time>2026-05-03T11:31:35Z</time></trkpt><trkpt lat="41.12752068273671" lon="9.106435783675282"><ele>60.5</ele><time>2026-05-03T11:31:36Z</time></trkpt><trkpt lat="41.12753150703272" lon="9.106816720945911"><ele>61.0</ele><time>2026-05-03T11:31:37Z</time></trkpt><trkpt lat="41.12753951712131" lon="9.107196434046669"><ele>60.5</ele><time>2026-05-03T11:31:38Z</time></trkpt><trkpt lat="41.12754518920157" lon="9.107576612513991"><ele>60.0</ele><time>2026-05-03T11:31:39Z</time></trkpt><trkpt lat="41.12755013319998" lon="9.10795848077509"><ele>60.5</ele><time>2026-05-03T11:31:40Z</time></trkpt><trkpt lat="41.12755436963644" lon="9.108341982811181"><ele>61.0</ele><time>2026-05-03T11:31:41Z</time></trkpt><trkpt lat="41.12755963570034" lon="9.108724871649942"><ele>62.0</ele><time>2026-05-03T11:31:42Z</time></trkpt><trkpt lat="41.12756947857027" lon="9.109109041790934"><ele>63.0</ele><time>2026-05-03T11:31:43Z</time></trkpt><trkpt lat="41.12758686772184" lon="9.109492528489048"><ele>63.0</ele><time>2026-05-03T11:31:44Z</time></trkpt><trkpt lat="41.12761456439132" lon="9.109870885246167"><ele>63.0</ele><time>2026-05-03T11:31:45Z</time></trkpt><trkpt lat="41.12765622472882" lon="9.110240743278336"><ele>63.0</ele><time>2026-05-03T11:31:46Z</time></trkpt><trkpt lat="41.12771251479501" lon="9.110592616468363"><ele>63.0</ele><time>2026-05-03T11:31:47Z</time></trkpt><trkpt lat="41.12777535628234" lon="9.11091584418848"><ele>63.0</ele><time>2026-05-03T11:31:48Z</time></trkpt><trkpt lat="41.127848032265184" lon="9.11122889775401"><ele>63.0</ele><time>2026-05-03T11:31:49Z</time></trkpt><trkpt lat="41.12793591073848" lon="9.11152866090598"><ele>64.5</ele><time>2026-05-03T11:31:50Z</time></trkpt><trkpt lat="41.128032538954955" lon="9.11182928319007"><ele>66.0</ele><time>2026-05-03T11:31:51Z</time></trkpt><trkpt lat="41.12813748666877" lon="9.11213138713251"><ele>64.5</ele><time>2026-05-03T11:31:52Z</time></trkpt><trkpt lat="41.12825901404438" lon="9.112434437769693"><ele>63.0</ele><time>2026-05-03T11:31:53Z</time></trkpt><trkpt lat="41.12839263243665" lon="9.112738115437338"><ele>63.0</ele><time>2026-05-03T11:31:54Z</time></trkpt><trkpt lat="41.1285348101639" lon="9.113044931999099"><ele>63.0</ele><time>2026-05-03T11:31:55Z</time></trkpt><trkpt lat="41.12868393099797" lon="9.113351228039905"><ele>64.0</ele><time>2026-05-03T11:31:56Z</time></trkpt><trkpt lat="41.12883207087348" lon="9.113664347114264"><ele>65.0</ele><time>2026-05-03T11:31:57Z</time></trkpt><trkpt lat="41.12898167513884" lon="9.113984552648802"><ele>62.0</ele><time>2026-05-03T11:31:58Z</time></trkpt><trkpt lat="41.12913017729484" lon="9.114301729735255"><ele>59.0</ele><time>2026-05-03T11:31:59Z</time></trkpt><trkpt lat="41.1292772453525" lon="9.11461677172844"><ele>57.5</ele><time>2026-05-03T11:32:00Z</time></trkpt><trkpt lat="41.12942165416614" lon="9.114927052332698"><ele>56.0</ele><time>2026-05-03T11:32:01Z</time></trkpt><trkpt lat="41.12956581765341" lon="9.115236991688604"><ele>56.0</ele><time>2026-05-03T11:32:02Z</time></trkpt><trkpt lat="41.12971327322347" lon="9.115547200088184"><ele>56.0</ele><time>2026-05-03T11:32:03Z</time></trkpt><trkpt lat="41.129857099874876" lon="9.115861928068288"><ele>51.5</ele><time>2026-05-03T11:32:04Z</time></trkpt><trkpt lat="41.130000580591506" lon="9.116174778980358"><ele>47.0</ele><time>2026-05-03T11:32:05Z</time></trkpt><trkpt lat="41.130144710527134" lon="9.116485837588725"><ele>47.5</ele><time>2026-05-03T11:32:06Z</time></trkpt><trkpt lat="41.13028960064398" lon="9.116794967641887"><ele>48.0</ele><time>2026-05-03T11:32:07Z</time></trkpt><trkpt lat="41.130436490316335" lon="9.117097834067962"><ele>49.5</ele><time>2026-05-03T11:32:08Z</time></trkpt><trkpt lat="41.13057814119301" lon="9.117406783940115"><ele>51.0</ele><time>2026-05-03T11:32:09Z</time></trkpt><trkpt lat="41.13072345180125" lon="9.117714346339834"><ele>55.5</ele><time>2026-05-03T11:32:10Z</time></trkpt><trkpt lat="41.13086682972861" lon="9.118021540548257"><ele>60.0</ele><time>2026-05-03T11:32:11Z</time></trkpt><trkpt lat="41.131011479184195" lon="9.118328040687352"><ele>62.0</ele><time>2026-05-03T11:32:12Z</time></trkpt><trkpt lat="41.13115607154816" lon="9.118637093357819"><ele>64.0</ele><time>2026-05-03T11:32:13Z</time></trkpt><trkpt lat="41.13129979811414" lon="9.118944942733751"><ele>64.0</ele><time>2026-05-03T11:32:14Z</time></trkpt><trkpt lat="41.13144313809136" lon="9.11925332337957"><ele>64.0</ele><time>2026-05-03T11:32:15Z</time></trkpt><trkpt lat="41.131586808688574" lon="9.11956154559344"><ele>64.0</ele><time>2026-05-03T11:32:16Z</time></trkpt><trkpt lat="41.13173198343022" lon="9.11986912215241"><ele>64.0</ele><time>2026-05-03T11:32:17Z</time></trkpt><trkpt lat="41.13187656796083" lon="9.120176963075322"><ele>64.5</ele><time>2026-05-03T11:32:18Z</time></trkpt><trkpt lat="41.13202087298229" lon="9.120486260352711"><ele>65.0</ele><time>2026-05-03T11:32:19Z</time></trkpt><trkpt lat="41.132164978979205" lon="9.120796307135539"><ele>65.0</ele><time>2026-05-03T11:32:20Z</time></trkpt><trkpt lat="41.13230873405759" lon="9.121105873515798"><ele>65.0</ele><time>2026-05-03T11:32:21Z</time></trkpt><trkpt lat="41.132452408221944" lon="9.12141105681096"><ele>63.5</ele><time>2026-05-03T11:32:22Z</time></trkpt><trkpt lat="41.132596523635534" lon="9.121714659943839"><ele>62.0</ele><time>2026-05-03T11:32:23Z</time></trkpt><trkpt lat="41.132739941983445" lon="9.122017790999674"><ele>62.0</ele><time>2026-05-03T11:32:24Z</time></trkpt><trkpt lat="41.132883119329165" lon="9.122319660658688"><ele>62.0</ele><time>2026-05-03T11:32:25Z</time></trkpt><trkpt lat="41.13302543252678" lon="9.122625722950316"><ele>64.0</ele><time>2026-05-03T11:32:26Z</time></trkpt><trkpt lat="41.1331674936657" lon="9.122933464998608"><ele>66.0</ele><time>2026-05-03T11:32:27Z</time></trkpt><trkpt lat="41.13331231778505" lon="9.123240739386953"><ele>66.5</ele><time>2026-05-03T11:32:28Z</time></trkpt><trkpt lat="41.133463257574924" lon="9.123540088261045"><ele>67.0</ele><time>2026-05-03T11:32:29Z</time></trkpt><trkpt lat="41.1336269641404" lon="9.123827004613116"><ele>67.5</ele><time>2026-05-03T11:32:30Z</time></trkpt><trkpt lat="41.13380363208416" lon="9.124101216498756"><ele>68.0</ele><time>2026-05-03T11:32:31Z</time></trkpt><trkpt lat="41.13399125284528" lon="9.124366213712802"><ele>65.0</ele><time>2026-05-03T11:32:32Z</time></trkpt><trkpt lat="41.134187263779445" lon="9.124619531940088"><ele>62.0</ele><time>2026-05-03T11:32:33Z</time></trkpt><trkpt lat="41.134388043150786" lon="9.12485904193302"><ele>63.0</ele><time>2026-05-03T11:32:34Z</time></trkpt><trkpt lat="41.134598561620095" lon="9.125091582600135"><ele>64.0</ele><time>2026-05-03T11:32:35Z</time></trkpt><trkpt lat="41.13480953340371" lon="9.12531997586586"><ele>63.0</ele><time>2026-05-03T11:32:36Z</time></trkpt><trkpt lat="41.135021186151874" lon="9.125551340806513"><ele>62.0</ele><time>2026-05-03T11:32:37Z</time></trkpt><trkpt lat="41.13522971710189" lon="9.125785447787358"><ele>62.0</ele><time>2026-05-03T11:32:38Z</time></trkpt><trkpt lat="41.1354470019987" lon="9.12601917937316"><ele>62.0</ele><time>2026-05-03T11:32:39Z</time></trkpt><trkpt lat="41.135665901219426" lon="9.12625817832367"><ele>61.0</ele><time>2026-05-03T11:32:40Z</time></trkpt><trkpt lat="41.135888404137546" lon="9.126498663913129"><ele>60.0</ele><time>2026-05-03T11:32:41Z</time></trkpt><trkpt lat="41.1361106358292" lon="9.126743601663481"><ele>60.0</ele><time>2026-05-03T11:32:42Z</time></trkpt><trkpt lat="41.136336040892154" lon="9.126990448903676"><ele>60.0</ele><time>2026-05-03T11:32:43Z</time></trkpt><trkpt lat="41.136563285108686" lon="9.127237674382066"><ele>58.0</ele><time>2026-05-03T11:32:44Z</time></trkpt><trkpt lat="41.13679082321498" lon="9.127486857957715"><ele>56.0</ele><time>2026-05-03T11:32:45Z</time></trkpt><trkpt lat="41.137018844715506" lon="9.127734669094105"><ele>56.0</ele><time>2026-05-03T11:32:46Z</time></trkpt><trkpt lat="41.13724529301079" lon="9.127985065160114"><ele>56.0</ele><time>2026-05-03T11:32:47Z</time></trkpt><trkpt lat="41.13747083871853" lon="9.128232150591185"><ele>55.0</ele><time>2026-05-03T11:32:48Z</time></trkpt><trkpt lat="41.137696328502386" lon="9.128478569635233"><ele>54.0</ele><time>2026-05-03T11:32:49Z</time></trkpt><trkpt lat="41.13792099671099" lon="9.12872491499106"><ele>54.0</ele><time>2026-05-03T11:32:50Z</time></trkpt><trkpt lat="41.13812857583595" lon="9.128959958301582"><ele>54.0</ele><time>2026-05-03T11:32:51Z</time></trkpt><trkpt lat="41.13831312991824" lon="9.129156876753305"><ele>52.0</ele><time>2026-05-03T11:32:52Z</time></trkpt><trkpt lat="41.13848840974241" lon="9.129351863931383"><ele>50.0</ele><time>2026-05-03T11:32:53Z</time></trkpt><trkpt lat="41.13866409635625" lon="9.12954678006556"><ele>50.0</ele><time>2026-05-03T11:32:54Z</time></trkpt><trkpt lat="41.13884589853589" lon="9.129743511249712"><ele>50.0</ele><time>2026-05-03T11:32:55Z</time></trkpt><trkpt lat="41.13903412697535" lon="9.129947867582334"><ele>48.5</ele><time>2026-05-03T11:32:56Z</time></trkpt><trkpt lat="41.13922941964499" lon="9.130155797125658"><ele>47.0</ele><time>2026-05-03T11:32:57Z</time></trkpt><trkpt lat="41.13942575219905" lon="9.130370168276164"><ele>47.0</ele><time>2026-05-03T11:32:58Z</time></trkpt><trkpt lat="41.13962677244532" lon="9.130589617109099"><ele>47.0</ele><time>2026-05-03T11:32:59Z</time></trkpt><trkpt lat="41.139829270930385" lon="9.130809889396211"><ele>44.0</ele><time>2026-05-03T11:33:00Z</time></trkpt><trkpt lat="41.14003305130695" lon="9.13102771934215"><ele>41.0</ele><time>2026-05-03T11:33:01Z</time></trkpt><trkpt lat="41.14023467622594" lon="9.131251649296901"><ele>41.0</ele><time>2026-05-03T11:33:02Z</time></trkpt><trkpt lat="41.14043970845744" lon="9.131474307664904"><ele>41.0</ele><time>2026-05-03T11:33:03Z</time></trkpt><trkpt lat="41.14064498969412" lon="9.131704217574418"><ele>41.0</ele><time>2026-05-03T11:33:04Z</time></trkpt><trkpt lat="41.1408539565174" lon="9.13193475266343"><ele>41.0</ele><time>2026-05-03T11:33:05Z</time></trkpt><trkpt lat="41.141065206857576" lon="9.132165564871134"><ele>42.0</ele><time>2026-05-03T11:33:06Z</time></trkpt><trkpt lat="41.14127459852233" lon="9.132393478482888"><ele>43.0</ele><time>2026-05-03T11:33:07Z</time></trkpt><trkpt lat="41.141481520137866" lon="9.132617319724625"><ele>40.0</ele><time>2026-05-03T11:33:08Z</time></trkpt><trkpt lat="41.14168259465771" lon="9.132823586593258"><ele>37.0</ele><time>2026-05-03T11:33:09Z</time></trkpt><trkpt lat="41.141888650610426" lon="9.133011873798187"><ele>37.0</ele><time>2026-05-03T11:33:10Z</time></trkpt><trkpt lat="41.142109337643106" lon="9.133179786035875"><ele>37.0</ele><time>2026-05-03T11:33:11Z</time></trkpt><trkpt lat="41.14233993000995" lon="9.133325355439396"><ele>35.5</ele><time>2026-05-03T11:33:12Z</time></trkpt><trkpt lat="41.14258237464436" lon="9.133444636611411"><ele>34.0</ele><time>2026-05-03T11:33:13Z</time></trkpt><trkpt lat="41.14282991782406" lon="9.133542136664193"><ele>34.0</ele><time>2026-05-03T11:33:14Z</time></trkpt><trkpt lat="41.143076271354694" lon="9.133626476827372"><ele>34.0</ele><time>2026-05-03T11:33:15Z</time></trkpt><trkpt lat="41.14331810058347" lon="9.133691638111086"><ele>32.5</ele><time>2026-05-03T11:33:16Z</time></trkpt><trkpt lat="41.143556188012816" lon="9.133735650472564"><ele>31.0</ele><time>2026-05-03T11:33:17Z</time></trkpt><trkpt lat="41.14380753832025" lon="9.133777736760125"><ele>31.5</ele><time>2026-05-03T11:33:18Z</time></trkpt><trkpt lat="41.144048486880585" lon="9.133824456642838"><ele>32.0</ele><time>2026-05-03T11:33:19Z</time></trkpt><trkpt lat="41.14428552904823" lon="9.133873376345857"><ele>32.0</ele><time>2026-05-03T11:33:20Z</time></trkpt><trkpt lat="41.144525083323465" lon="9.133921572620595"><ele>32.0</ele><time>2026-05-03T11:33:21Z</time></trkpt><trkpt lat="41.144767981990135" lon="9.133967990565665"><ele>31.5</ele><time>2026-05-03T11:33:22Z</time></trkpt><trkpt lat="41.14501161734837" lon="9.134014632403312"><ele>31.0</ele><time>2026-05-03T11:33:23Z</time></trkpt><trkpt lat="41.14524735391826" lon="9.134064495426852"><ele>33.0</ele><time>2026-05-03T11:33:24Z</time></trkpt><trkpt lat="41.14548163875233" lon="9.134121727426585"><ele>35.0</ele><time>2026-05-03T11:33:25Z</time></trkpt><trkpt lat="41.14571940182728" lon="9.13419458505974"><ele>35.0</ele><time>2026-05-03T11:33:26Z</time></trkpt><trkpt lat="41.14595260171926" lon="9.13428794329384"><ele>35.0</ele><time>2026-05-03T11:33:27Z</time></trkpt><trkpt lat="41.14618154036245" lon="9.134406686046722"><ele>35.0</ele><time>2026-05-03T11:33:28Z</time></trkpt><trkpt lat="41.14640357296521" lon="9.134548662349511"><ele>35.0</ele><time>2026-05-03T11:33:29Z</time></trkpt><trkpt lat="41.14661566775782" lon="9.134711947766457"><ele>32.0</ele><time>2026-05-03T11:33:30Z</time></trkpt><trkpt lat="41.146819634214815" lon="9.134892708992982"><ele>29.0</ele><time>2026-05-03T11:33:31Z</time></trkpt><trkpt lat="41.147011930239955" lon="9.135093214843929"><ele>29.0</ele><time>2026-05-03T11:33:32Z</time></trkpt><trkpt lat="41.147193857769906" lon="9.135309408351674"><ele>29.0</ele><time>2026-05-03T11:33:33Z</time></trkpt><trkpt lat="41.147362249515055" lon="9.135534939517408"><ele>21.5</ele><time>2026-05-03T11:33:34Z</time></trkpt><trkpt lat="41.14752080219053" lon="9.135774480921418"><ele>14.0</ele><time>2026-05-03T11:33:35Z</time></trkpt><trkpt lat="41.147665577338536" lon="9.136031108600221"><ele>14.0</ele><time>2026-05-03T11:33:36Z</time></trkpt><trkpt lat="41.14780705101855" lon="9.136300780181177"><ele>14.0</ele><time>2026-05-03T11:33:37Z</time></trkpt><trkpt lat="41.14795328603855" lon="9.13657416048837"><ele>16.5</ele><time>2026-05-03T11:33:38Z</time></trkpt><trkpt lat="41.148100121832734" lon="9.136846591232036"><ele>19.0</ele><time>2026-05-03T11:33:39Z</time></trkpt><trkpt lat="41.14824279014639" lon="9.137115212367709"><ele>22.5</ele><time>2026-05-03T11:33:40Z</time></trkpt><trkpt lat="41.14838281753135" lon="9.13738589397243"><ele>26.0</ele><time>2026-05-03T11:33:41Z</time></trkpt><trkpt lat="41.14851973335178" lon="9.137650543694212"><ele>26.0</ele><time>2026-05-03T11:33:42Z</time></trkpt><trkpt lat="41.14865844548556" lon="9.137908866117929"><ele>26.0</ele><time>2026-05-03T11:33:43Z</time></trkpt><trkpt lat="41.14879780522246" lon="9.138171035608043"><ele>26.5</ele><time>2026-05-03T11:33:44Z</time></trkpt><trkpt lat="41.148941209028884" lon="9.138431789147294"><ele>27.0</ele><time>2026-05-03T11:33:45Z</time></trkpt><trkpt lat="41.14908341427353" lon="9.138694496235845"><ele>27.0</ele><time>2026-05-03T11:33:46Z</time></trkpt><trkpt lat="41.149226015205166" lon="9.138960515896784"><ele>27.0</ele><time>2026-05-03T11:33:47Z</time></trkpt><trkpt lat="41.14936533611842" lon="9.139229960263465"><ele>29.5</ele><time>2026-05-03T11:33:48Z</time></trkpt><trkpt lat="41.149498044737705" lon="9.139507762919488"><ele>32.0</ele><time>2026-05-03T11:33:49Z</time></trkpt><trkpt lat="41.14963528353093" lon="9.139780993300771"><ele>33.0</ele><time>2026-05-03T11:33:50Z</time></trkpt><trkpt lat="41.1497787254899" lon="9.140057133495317"><ele>34.0</ele><time>2026-05-03T11:33:51Z</time></trkpt><trkpt lat="41.1499272859904" lon="9.140331817604496"><ele>32.0</ele><time>2026-05-03T11:33:52Z</time></trkpt><trkpt lat="41.15007920995708" lon="9.140605164398428"><ele>30.0</ele><time>2026-05-03T11:33:53Z</time></trkpt><trkpt lat="41.15023381924116" lon="9.14087927899801"><ele>30.0</ele><time>2026-05-03T11:33:54Z</time></trkpt><trkpt lat="41.15038686438129" lon="9.14115653084265"><ele>30.0</ele><time>2026-05-03T11:33:55Z</time></trkpt><trkpt lat="41.15053901385666" lon="9.141432050212863"><ele>29.5</ele><time>2026-05-03T11:33:56Z</time></trkpt><trkpt lat="41.15068834162494" lon="9.141698548576596"><ele>29.0</ele><time>2026-05-03T11:33:57Z</time></trkpt><trkpt lat="41.150820799566006" lon="9.141973080162819"><ele>29.0</ele><time>2026-05-03T11:33:58Z</time></trkpt><trkpt lat="41.15094081737103" lon="9.142252765262565"><ele>29.0</ele><time>2026-05-03T11:33:59Z</time></trkpt><trkpt lat="41.151051504438016" lon="9.142546542110901"><ele>33.0</ele><time>2026-05-03T11:34:00Z</time></trkpt><trkpt lat="41.15115840337585" lon="9.142848723895023"><ele>37.0</ele><time>2026-05-03T11:34:01Z</time></trkpt><trkpt lat="41.15126012798679" lon="9.14315636454485"><ele>38.5</ele><time>2026-05-03T11:34:02Z</time></trkpt><trkpt lat="41.15136519358634" lon="9.143454801365934"><ele>40.0</ele><time>2026-05-03T11:34:03Z</time></trkpt><trkpt lat="41.15146956357495" lon="9.143748021552991"><ele>38.0</ele><time>2026-05-03T11:34:04Z</time></trkpt><trkpt lat="41.1515754510214" lon="9.144041971368788"><ele>36.0</ele><time>2026-05-03T11:34:05Z</time></trkpt><trkpt lat="41.15168064088571" lon="9.14433574563743"><ele>36.0</ele><time>2026-05-03T11:34:06Z</time></trkpt><trkpt lat="41.15178321680792" lon="9.14462544891981"><ele>36.0</ele><time>2026-05-03T11:34:07Z</time></trkpt><trkpt lat="41.15188892361176" lon="9.144916309666584"><ele>39.0</ele><time>2026-05-03T11:34:08Z</time></trkpt><trkpt lat="41.15199839868748" lon="9.145209599473102"><ele>42.0</ele><time>2026-05-03T11:34:09Z</time></trkpt><trkpt lat="41.15211398224074" lon="9.145500847340685"><ele>42.0</ele><time>2026-05-03T11:34:10Z</time></trkpt><trkpt lat="41.15223603000174" lon="9.145792827856358"><ele>42.0</ele><time>2026-05-03T11:34:11Z</time></trkpt><trkpt lat="41.152364630134045" lon="9.146085946495369"><ele>36.5</ele><time>2026-05-03T11:34:12Z</time></trkpt><trkpt lat="41.15249474994573" lon="9.146378665994263"><ele>31.0</ele><time>2026-05-03T11:34:13Z</time></trkpt><trkpt lat="41.152618579589706" lon="9.146658318348042"><ele>31.0</ele><time>2026-05-03T11:34:14Z</time></trkpt><trkpt lat="41.1527353091457" lon="9.146927303277298"><ele>31.0</ele><time>2026-05-03T11:34:15Z</time></trkpt><trkpt lat="41.15285246026487" lon="9.14719284325711"><ele>31.5</ele><time>2026-05-03T11:34:16Z</time></trkpt><trkpt lat="41.152969053799325" lon="9.147463304613677"><ele>32.0</ele><time>2026-05-03T11:34:17Z</time></trkpt><trkpt lat="41.15308720130678" lon="9.147737557253489"><ele>25.0</ele><time>2026-05-03T11:34:18Z</time></trkpt><trkpt lat="41.15320609319537" lon="9.148013782315351"><ele>18.0</ele><time>2026-05-03T11:34:19Z</time></trkpt><trkpt lat="41.15333125027397" lon="9.148293440584965"><ele>18.0</ele><time>2026-05-03T11:34:20Z</time></trkpt><trkpt lat="41.1534594858802" lon="9.148575018268494"><ele>18.0</ele><time>2026-05-03T11:34:21Z</time></trkpt><trkpt lat="41.153593994665606" lon="9.148858115759074"><ele>18.5</ele><time>2026-05-03T11:34:22Z</time></trkpt><trkpt lat="41.15372991801124" lon="9.149149504523892"><ele>19.0</ele><time>2026-05-03T11:34:23Z</time></trkpt><trkpt lat="41.153865464552275" lon="9.149446554418866"><ele>19.0</ele><time>2026-05-03T11:34:24Z</time></trkpt><trkpt lat="41.15397702364391" lon="9.149755602473045"><ele>19.0</ele><time>2026-05-03T11:34:25Z</time></trkpt><trkpt lat="41.154072886462686" lon="9.150041578472756"><ele>17.666666666666664</ele><time>2026-05-03T11:34:26Z</time></trkpt><trkpt lat="41.154139689001894" lon="9.150327739443222"><ele>16.333333333333332</ele><time>2026-05-03T11:34:27Z</time></trkpt><trkpt lat="41.15418913290667" lon="9.150615349821258"><ele>15.0</ele><time>2026-05-03T11:34:28Z</time></trkpt><trkpt lat="41.1542241382497" lon="9.150904884950998"><ele>15.0</ele><time>2026-05-03T11:34:29Z</time></trkpt><trkpt lat="41.15424551293213" lon="9.15119652570181"><ele>15.0</ele><time>2026-05-03T11:34:30Z</time></trkpt><trkpt lat="41.15425884854463" lon="9.151491420591586"><ele>15.0</ele><time>2026-05-03T11:34:31Z</time></trkpt><trkpt lat="41.15426571818717" lon="9.151787425956172"><ele>15.333333333333332</ele><time>2026-05-03T11:34:32Z</time></trkpt><trkpt lat="41.15427809995482" lon="9.152082457220477"><ele>15.666666666666666</ele><time>2026-05-03T11:34:33Z</time></trkpt><trkpt lat="41.154300168823625" lon="9.152369633428732"><ele>16.0</ele><time>2026-05-03T11:34:34Z</time></trkpt><trkpt lat="41.15433601605633" lon="9.1526524882323"><ele>13.0</ele><time>2026-05-03T11:34:35Z</time></trkpt><trkpt lat="41.154386808040606" lon="9.152921201932697"><ele>10.0</ele><time>2026-05-03T11:34:36Z</time></trkpt><trkpt lat="41.15445089647446" lon="9.15317628662664"><ele>7.0</ele><time>2026-05-03T11:34:37Z</time></trkpt><trkpt lat="41.15453496786274" lon="9.153410925768888"><ele>7.0</ele><time>2026-05-03T11:34:38Z</time></trkpt><trkpt lat="41.15462581226218" lon="9.153633707282314"><ele>7.0</ele><time>2026-05-03T11:34:39Z</time></trkpt><trkpt lat="41.1547150893275" lon="9.153836903946985"><ele>7.0</ele><time>2026-05-03T11:34:40Z</time></trkpt><trkpt lat="41.15481157859486" lon="9.154030970634825"><ele>9.333333333333334</ele><time>2026-05-03T11:34:41Z</time></trkpt><trkpt lat="41.154915477923296" lon="9.154214787796949"><ele>11.666666666666668</ele><time>2026-05-03T11:34:42Z</time></trkpt><trkpt lat="41.155035419680665" lon="9.154374904292425"><ele>14.0</ele><time>2026-05-03T11:34:43Z</time></trkpt><trkpt lat="41.15516584083583" lon="9.15453871382476"><ele>14.0</ele><time>2026-05-03T11:34:44Z</time></trkpt><trkpt lat="41.15530555973878" lon="9.154712046251543"><ele>14.0</ele><time>2026-05-03T11:34:45Z</time></trkpt><trkpt lat="41.1554522198576" lon="9.154892582134504"><ele>14.0</ele><time>2026-05-03T11:34:46Z</time></trkpt><trkpt lat="41.15560578767708" lon="9.155079260538033"><ele>16.666666666666668</ele><time>2026-05-03T11:34:47Z</time></trkpt><trkpt lat="41.155757975534776" lon="9.155284474098847"><ele>19.333333333333332</ele><time>2026-05-03T11:34:48Z</time></trkpt><trkpt lat="41.155896898225144" lon="9.155476745814607"><ele>22.0</ele><time>2026-05-03T11:34:49Z</time></trkpt><trkpt lat="41.15602693388554" lon="9.155672363432485"><ele>25.333333333333332</ele><time>2026-05-03T11:34:50Z</time></trkpt><trkpt lat="41.156143884775524" lon="9.155876824716211"><ele>28.666666666666664</ele><time>2026-05-03T11:34:51Z</time></trkpt><trkpt lat="41.156236625423794" lon="9.156080902809611"><ele>32.0</ele><time>2026-05-03T11:34:52Z</time></trkpt><trkpt lat="41.156333455635476" lon="9.156290651754889"><ele>32.0</ele><time>2026-05-03T11:34:53Z</time></trkpt><trkpt lat="41.15642111313582" lon="9.156499689631854"><ele>32.0</ele><time>2026-05-03T11:34:54Z</time></trkpt><trkpt lat="41.15649680774293" lon="9.156719717300708"><ele>32.0</ele><time>2026-05-03T11:34:55Z</time></trkpt><trkpt lat="41.15656378737829" lon="9.156952451142205"><ele>32.666666666666664</ele><time>2026-05-03T11:34:56Z</time></trkpt><trkpt lat="41.15662697644133" lon="9.15719367595946"><ele>33.333333333333336</ele><time>2026-05-03T11:34:57Z</time></trkpt><trkpt lat="41.156691564468844" lon="9.157433241086721"><ele>34.0</ele><time>2026-05-03T11:34:58Z</time></trkpt><trkpt lat="41.15675587480435" lon="9.157681944274149"><ele>34.0</ele><time>2026-05-03T11:34:59Z</time></trkpt><trkpt lat="41.15681995245647" lon="9.157932517794858"><ele>34.0</ele><time>2026-05-03T11:35:00Z</time></trkpt><trkpt lat="41.1568892829327" lon="9.15818590219645"><ele>34.0</ele><time>2026-05-03T11:35:01Z</time></trkpt><trkpt lat="41.15696151069664" lon="9.158442491072392"><ele>35.0</ele><time>2026-05-03T11:35:02Z</time></trkpt><trkpt lat="41.15702890195197" lon="9.15870308886662"><ele>36.0</ele><time>2026-05-03T11:35:03Z</time></trkpt><trkpt lat="41.15709634442771" lon="9.15896737156223"><ele>37.0</ele><time>2026-05-03T11:35:04Z</time></trkpt><trkpt lat="41.15716659872867" lon="9.159234210714795"><ele>37.66666666666667</ele><time>2026-05-03T11:35:05Z</time></trkpt><trkpt lat="41.15723848518165" lon="9.159502237559634"><ele>38.333333333333336</ele><time>2026-05-03T11:35:06Z</time></trkpt><trkpt lat="41.15731037684318" lon="9.159769696173477"><ele>39.0</ele><time>2026-05-03T11:35:07Z</time></trkpt><trkpt lat="41.15738292800837" lon="9.160036410538504"><ele>38.333333333333336</ele><time>2026-05-03T11:35:08Z</time></trkpt><trkpt lat="41.157449322551265" lon="9.160300144301067"><ele>37.66666666666667</ele><time>2026-05-03T11:35:09Z</time></trkpt><trkpt lat="41.15751348982969" lon="9.160554503585118"><ele>37.0</ele><time>2026-05-03T11:35:10Z</time></trkpt><trkpt lat="41.15758130110876" lon="9.160803830000377"><ele>37.0</ele><time>2026-05-03T11:35:11Z</time></trkpt><trkpt lat="41.157659871303984" lon="9.161057153616765"><ele>37.0</ele><time>2026-05-03T11:35:12Z</time></trkpt><trkpt lat="41.157737782028285" lon="9.161331816176725"><ele>37.0</ele><time>2026-05-03T11:35:13Z</time></trkpt><trkpt lat="41.157811897485175" lon="9.161627291454526"><ele>38.5</ele><time>2026-05-03T11:35:14Z</time></trkpt><trkpt lat="41.157890112996704" lon="9.161932605460137"><ele>40.0</ele><time>2026-05-03T11:35:15Z</time></trkpt><trkpt lat="41.157971845069376" lon="9.162238921201986"><ele>41.5</ele><time>2026-05-03T11:35:16Z</time></trkpt><trkpt lat="41.15805361534681" lon="9.162555778683572"><ele>43.0</ele><time>2026-05-03T11:35:17Z</time></trkpt><trkpt lat="41.158138468530204" lon="9.16287375150766"><ele>39.5</ele><time>2026-05-03T11:35:18Z</time></trkpt><trkpt lat="41.158224236784186" lon="9.163194007306728"><ele>36.0</ele><time>2026-05-03T11:35:19Z</time></trkpt><trkpt lat="41.158310854726814" lon="9.163518247403287"><ele>36.0</ele><time>2026-05-03T11:35:20Z</time></trkpt><trkpt lat="41.15839457101909" lon="9.163843602513698"><ele>36.0</ele><time>2026-05-03T11:35:21Z</time></trkpt><trkpt lat="41.15847839230091" lon="9.164167351964588"><ele>38.0</ele><time>2026-05-03T11:35:22Z</time></trkpt><trkpt lat="41.1585628267234" lon="9.164484284919604"><ele>40.0</ele><time>2026-05-03T11:35:23Z</time></trkpt><trkpt lat="41.158642582366916" lon="9.164777718849988"><ele>41.0</ele><time>2026-05-03T11:35:24Z</time></trkpt><trkpt lat="41.15872141170511" lon="9.165063363573765"><ele>42.0</ele><time>2026-05-03T11:35:25Z</time></trkpt><trkpt lat="41.15880067811165" lon="9.165355313715244"><ele>42.0</ele><time>2026-05-03T11:35:26Z</time></trkpt><trkpt lat="41.15887931684922" lon="9.165649794324718"><ele>42.0</ele><time>2026-05-03T11:35:27Z</time></trkpt><trkpt lat="41.15895551739023" lon="9.165946752119737"><ele>38.5</ele><time>2026-05-03T11:35:28Z</time></trkpt><trkpt lat="41.15903585427501" lon="9.166246466429032"><ele>35.0</ele><time>2026-05-03T11:35:29Z</time></trkpt><trkpt lat="41.15911385133832" lon="9.16654775178981"><ele>35.0</ele><time>2026-05-03T11:35:30Z</time></trkpt><trkpt lat="41.159194619106806" lon="9.16684805205865"><ele>35.0</ele><time>2026-05-03T11:35:31Z</time></trkpt><trkpt lat="41.159275535879324" lon="9.167146254356572"><ele>35.33333333333333</ele><time>2026-05-03T11:35:32Z</time></trkpt><trkpt lat="41.15935184437288" lon="9.167430815350183"><ele>35.666666666666664</ele><time>2026-05-03T11:35:33Z</time></trkpt><trkpt lat="41.15942392743248" lon="9.167696712909226"><ele>36.0</ele><time>2026-05-03T11:35:34Z</time></trkpt><trkpt lat="41.15949545145696" lon="9.167960816483138"><ele>35.666666666666664</ele><time>2026-05-03T11:35:35Z</time></trkpt><trkpt lat="41.159569032795986" lon="9.168234989251038"><ele>35.33333333333333</ele><time>2026-05-03T11:35:36Z</time></trkpt><trkpt lat="41.15964162560697" lon="9.16851508741964"><ele>35.0</ele><time>2026-05-03T11:35:37Z</time></trkpt><trkpt lat="41.159715149682405" lon="9.168798833876696"><ele>34.0</ele><time>2026-05-03T11:35:38Z</time></trkpt><trkpt lat="41.159790401665845" lon="9.169086500385502"><ele>33.0</ele><time>2026-05-03T11:35:39Z</time></trkpt><trkpt lat="41.15986841991666" lon="9.16937472097833"><ele>30.5</ele><time>2026-05-03T11:35:40Z</time></trkpt><trkpt lat="41.15995358262282" lon="9.169660177689762"><ele>28.0</ele><time>2026-05-03T11:35:41Z</time></trkpt><trkpt lat="41.16005315144116" lon="9.16994271241829"><ele>28.0</ele><time>2026-05-03T11:35:42Z</time></trkpt><trkpt lat="41.160167051809125" lon="9.170217387163769"><ele>28.0</ele><time>2026-05-03T11:35:43Z</time></trkpt><trkpt lat="41.160262674397956" lon="9.17050309426634"><ele>31.5</ele><time>2026-05-03T11:35:44Z</time></trkpt><trkpt lat="41.1604468452234" lon="9.170732980461995"><ele>35.0</ele><time>2026-05-03T11:35:45Z</time></trkpt><trkpt lat="41.16060456505451" lon="9.170981356162319"><ele>37.5</ele><time>2026-05-03T11:35:46Z</time></trkpt><trkpt lat="41.16077614355821" lon="9.171206937141136"><ele>40.0</ele><time>2026-05-03T11:35:47Z</time></trkpt><trkpt lat="41.16096311512161" lon="9.171423399654204"><ele>41.5</ele><time>2026-05-03T11:35:48Z</time></trkpt><trkpt lat="41.16115833073983" lon="9.171624262690033"><ele>43.0</ele><time>2026-05-03T11:35:49Z</time></trkpt><trkpt lat="41.16135101226068" lon="9.171797806103573"><ele>43.5</ele><time>2026-05-03T11:35:50Z</time></trkpt><trkpt lat="41.16155015378198" lon="9.171955050662847"><ele>44.0</ele><time>2026-05-03T11:35:51Z</time></trkpt><trkpt lat="41.16175457966684" lon="9.17208398267748"><ele>44.0</ele><time>2026-05-03T11:35:52Z</time></trkpt><trkpt lat="41.16195638491207" lon="9.172190806682673"><ele>44.0</ele><time>2026-05-03T11:35:53Z</time></trkpt><trkpt lat="41.16216948731199" lon="9.172284714993625"><ele>44.0</ele><time>2026-05-03T11:35:54Z</time></trkpt><trkpt lat="41.16238025738874" lon="9.172375432605334"><ele>48.0</ele><time>2026-05-03T11:35:55Z</time></trkpt><trkpt lat="41.16259582993058" lon="9.172457337004198"><ele>52.0</ele><time>2026-05-03T11:35:56Z</time></trkpt><trkpt lat="41.162815145680575" lon="9.172532054480909"><ele>52.0</ele><time>2026-05-03T11:35:57Z</time></trkpt><trkpt lat="41.1630334270522" lon="9.172607650865222"><ele>52.0</ele><time>2026-05-03T11:35:58Z</time></trkpt><trkpt lat="41.16325119744034" lon="9.17268696513868"><ele>53.33333333333333</ele><time>2026-05-03T11:35:59Z</time></trkpt><trkpt lat="41.163466106399795" lon="9.172769385289001"><ele>54.66666666666667</ele><time>2026-05-03T11:36:00Z</time></trkpt><trkpt lat="41.16367742232964" lon="9.172861988302657"><ele>56.0</ele><time>2026-05-03T11:36:01Z</time></trkpt><trkpt lat="41.1638928516449" lon="9.172938873606421"><ele>56.0</ele><time>2026-05-03T11:36:02Z</time></trkpt><trkpt lat="41.16410779715071" lon="9.17301698335576"><ele>56.0</ele><time>2026-05-03T11:36:03Z</time></trkpt><trkpt lat="41.16432450874373" lon="9.173093628137849"><ele>56.0</ele><time>2026-05-03T11:36:04Z</time></trkpt><trkpt lat="41.164531762563776" lon="9.173175650605337"><ele>55.333333333333336</ele><time>2026-05-03T11:36:05Z</time></trkpt><trkpt lat="41.164741921587456" lon="9.173251277877979"><ele>54.66666666666667</ele><time>2026-05-03T11:36:06Z</time></trkpt><trkpt lat="41.16495328901945" lon="9.173332562176913"><ele>54.0</ele><time>2026-05-03T11:36:07Z</time></trkpt><trkpt lat="41.16516713455047" lon="9.173409245267921"><ele>54.0</ele><time>2026-05-03T11:36:08Z</time></trkpt><trkpt lat="41.165380294305" lon="9.173496891754784"><ele>54.0</ele><time>2026-05-03T11:36:09Z</time></trkpt><trkpt lat="41.16559151884657" lon="9.173571509337334"><ele>54.0</ele><time>2026-05-03T11:36:10Z</time></trkpt><trkpt lat="41.16579293287213" lon="9.173649770586437"><ele>54.0</ele><time>2026-05-03T11:36:11Z</time></trkpt><trkpt lat="41.165986797204106" lon="9.173729937777924"><ele>54.0</ele><time>2026-05-03T11:36:12Z</time></trkpt><trkpt lat="41.16619242459707" lon="9.173806817805792"><ele>54.0</ele><time>2026-05-03T11:36:13Z</time></trkpt><trkpt lat="41.16639797790462" lon="9.17388217936083"><ele>52.66666666666667</ele><time>2026-05-03T11:36:14Z</time></trkpt><trkpt lat="41.16659691929805" lon="9.173955221882911"><ele>51.333333333333336</ele><time>2026-05-03T11:36:15Z</time></trkpt><trkpt lat="41.166789956347756" lon="9.174031586109223"><ele>50.0</ele><time>2026-05-03T11:36:16Z</time></trkpt><trkpt lat="41.1669779514725" lon="9.174105602921797"><ele>48.66666666666667</ele><time>2026-05-03T11:36:17Z</time></trkpt><trkpt lat="41.16716054965008" lon="9.174178113913918"><ele>47.333333333333336</ele><time>2026-05-03T11:36:18Z</time></trkpt><trkpt lat="41.16733093819271" lon="9.174247161627228"><ele>46.0</ele><time>2026-05-03T11:36:19Z</time></trkpt><trkpt lat="41.1674969293193" lon="9.174305920001286"><ele>43.0</ele><time>2026-05-03T11:36:20Z</time></trkpt><trkpt lat="41.16765856725034" lon="9.174366788016991"><ele>40.0</ele><time>2026-05-03T11:36:21Z</time></trkpt><trkpt lat="41.16782075997254" lon="9.174428459725503"><ele>37.0</ele><time>2026-05-03T11:36:22Z</time></trkpt><trkpt lat="41.16798306067395" lon="9.174490571919634"><ele>37.0</ele><time>2026-05-03T11:36:23Z</time></trkpt><trkpt lat="41.168157126077546" lon="9.174565136060547"><ele>37.0</ele><time>2026-05-03T11:36:24Z</time></trkpt><trkpt lat="41.16834027069655" lon="9.174632403556657"><ele>37.0</ele><time>2026-05-03T11:36:25Z</time></trkpt><trkpt lat="41.16852749913551" lon="9.174699707720078"><ele>34.66666666666667</ele><time>2026-05-03T11:36:26Z</time></trkpt><trkpt lat="41.168716664279714" lon="9.17476988363524"><ele>32.333333333333336</ele><time>2026-05-03T11:36:27Z</time></trkpt><trkpt lat="41.16890799465511" lon="9.174842819576343"><ele>30.0</ele><time>2026-05-03T11:36:28Z</time></trkpt><trkpt lat="41.16910823791954" lon="9.174918764280543"><ele>30.0</ele><time>2026-05-03T11:36:29Z</time></trkpt><trkpt lat="41.16932052418904" lon="9.174997822471305"><ele>30.0</ele><time>2026-05-03T11:36:30Z</time></trkpt><trkpt lat="41.16954044619224" lon="9.175082508867652"><ele>30.0</ele><time>2026-05-03T11:36:31Z</time></trkpt><trkpt lat="41.16976525668342" lon="9.175166969744598"><ele>29.0</ele><time>2026-05-03T11:36:32Z</time></trkpt><trkpt lat="41.16998728911914" lon="9.17525145643344"><ele>28.0</ele><time>2026-05-03T11:36:33Z</time></trkpt><trkpt lat="41.17022354250885" lon="9.175339894297721"><ele>28.0</ele><time>2026-05-03T11:36:34Z</time></trkpt><trkpt lat="41.170468051746276" lon="9.175432737388343"><ele>28.0</ele><time>2026-05-03T11:36:35Z</time></trkpt><trkpt lat="41.17071312417158" lon="9.17552676084108"><ele>24.5</ele><time>2026-05-03T11:36:36Z</time></trkpt><trkpt lat="41.1709632240706" lon="9.175621139674238"><ele>21.0</ele><time>2026-05-03T11:36:37Z</time></trkpt><trkpt lat="41.17121764143593" lon="9.175715639830184"><ele>21.0</ele><time>2026-05-03T11:36:38Z</time></trkpt><trkpt lat="41.17147301558716" lon="9.175816737506569"><ele>21.0</ele><time>2026-05-03T11:36:39Z</time></trkpt><trkpt lat="41.1717278319105" lon="9.175923317675164"><ele>18.5</ele><time>2026-05-03T11:36:40Z</time></trkpt><trkpt lat="41.17198119693462" lon="9.176026035837383"><ele>16.0</ele><time>2026-05-03T11:36:41Z</time></trkpt><trkpt lat="41.17224842164941" lon="9.176124675390628"><ele>14.0</ele><time>2026-05-03T11:36:42Z</time></trkpt><trkpt lat="41.172502893421964" lon="9.176216351271176"><ele>12.0</ele><time>2026-05-03T11:36:43Z</time></trkpt><trkpt lat="41.17274837482599" lon="9.176318215046368"><ele>12.0</ele><time>2026-05-03T11:36:44Z</time></trkpt><trkpt lat="41.172997310272166" lon="9.176404507222026"><ele>12.0</ele><time>2026-05-03T11:36:45Z</time></trkpt><trkpt lat="41.17324173831294" lon="9.176493539739347"><ele>16.5</ele><time>2026-05-03T11:36:46Z</time></trkpt><trkpt lat="41.17347581566552" lon="9.176581244108984"><ele>21.0</ele><time>2026-05-03T11:36:47Z</time></trkpt><trkpt lat="41.17371116536407" lon="9.176670223642027"><ele>21.0</ele><time>2026-05-03T11:36:48Z</time></trkpt><trkpt lat="41.173946711010586" lon="9.176762729310378"><ele>21.0</ele><time>2026-05-03T11:36:49Z</time></trkpt><trkpt lat="41.17418086581027" lon="9.176854437328979"><ele>22.5</ele><time>2026-05-03T11:36:50Z</time></trkpt><trkpt lat="41.17441378448109" lon="9.17694483751447"><ele>24.0</ele><time>2026-05-03T11:36:51Z</time></trkpt><trkpt lat="41.174648525712115" lon="9.177034994021716"><ele>23.5</ele><time>2026-05-03T11:36:52Z</time></trkpt><trkpt lat="41.17488957958851" lon="9.177122138742206"><ele>23.0</ele><time>2026-05-03T11:36:53Z</time></trkpt><trkpt lat="41.175132360410494" lon="9.177209638160091"><ele>23.0</ele><time>2026-05-03T11:36:54Z</time></trkpt><trkpt lat="41.175378604865394" lon="9.177300376261458"><ele>23.0</ele><time>2026-05-03T11:36:55Z</time></trkpt><trkpt lat="41.17562287970318" lon="9.177393055865723"><ele>23.0</ele><time>2026-05-03T11:36:56Z</time></trkpt><trkpt lat="41.175869572535404" lon="9.177481179349341"><ele>23.0</ele><time>2026-05-03T11:36:57Z</time></trkpt><trkpt lat="41.17612291680295" lon="9.17758078912065"><ele>23.0</ele><time>2026-05-03T11:36:58Z</time></trkpt><trkpt lat="41.17637419996641" lon="9.177679565622341"><ele>23.0</ele><time>2026-05-03T11:36:59Z</time></trkpt><trkpt lat="41.17662754298828" lon="9.17777569725144"><ele>24.0</ele><time>2026-05-03T11:37:00Z</time></trkpt><trkpt lat="41.1768707088145" lon="9.177865178521044"><ele>25.0</ele><time>2026-05-03T11:37:01Z</time></trkpt><trkpt lat="41.177113173579365" lon="9.17795883164278"><ele>21.5</ele><time>2026-05-03T11:37:02Z</time></trkpt><trkpt lat="41.177358538662475" lon="9.178053031730665"><ele>18.0</ele><time>2026-05-03T11:37:03Z</time></trkpt><trkpt lat="41.17761310357844" lon="9.178151241867251"><ele>21.0</ele><time>2026-05-03T11:37:04Z</time></trkpt><trkpt lat="41.17787468089787" lon="9.178247238717196"><ele>24.0</ele><time>2026-05-03T11:37:05Z</time></trkpt><trkpt lat="41.1781367783488" lon="9.1783413399027"><ele>19.5</ele><time>2026-05-03T11:37:06Z</time></trkpt><trkpt lat="41.17840299459397" lon="9.178435561679793"><ele>15.0</ele><time>2026-05-03T11:37:07Z</time></trkpt><trkpt lat="41.17866175693901" lon="9.178538291656398"><ele>15.0</ele><time>2026-05-03T11:37:08Z</time></trkpt><trkpt lat="41.178925348149676" lon="9.178633049735481"><ele>15.0</ele><time>2026-05-03T11:37:09Z</time></trkpt><trkpt lat="41.17918566368094" lon="9.17873078984719"><ele>16.5</ele><time>2026-05-03T11:37:10Z</time></trkpt><trkpt lat="41.179438287123084" lon="9.178827423497466"><ele>18.0</ele><time>2026-05-03T11:37:11Z</time></trkpt><trkpt lat="41.179695922339825" lon="9.178922662036504"><ele>21.0</ele><time>2026-05-03T11:37:12Z</time></trkpt><trkpt lat="41.17995271304067" lon="9.179025413034662"><ele>24.0</ele><time>2026-05-03T11:37:13Z</time></trkpt><trkpt lat="41.180204579193614" lon="9.179131250230155"><ele>24.0</ele><time>2026-05-03T11:37:14Z</time></trkpt><trkpt lat="41.18045530465626" lon="9.179229876627112"><ele>24.0</ele><time>2026-05-03T11:37:15Z</time></trkpt><trkpt lat="41.18070081271274" lon="9.179323149570893"><ele>29.0</ele><time>2026-05-03T11:37:16Z</time></trkpt><trkpt lat="41.18094697863974" lon="9.179409209586685"><ele>34.0</ele><time>2026-05-03T11:37:17Z</time></trkpt><trkpt lat="41.18119386415691" lon="9.179486067591323"><ele>34.0</ele><time>2026-05-03T11:37:18Z</time></trkpt><trkpt lat="41.181444781615475" lon="9.179550105709012"><ele>34.0</ele><time>2026-05-03T11:37:19Z</time></trkpt><trkpt lat="41.1816954956981" lon="9.17959334088559"><ele>40.0</ele><time>2026-05-03T11:37:20Z</time></trkpt><trkpt lat="41.18195587097122" lon="9.179616302128673"><ele>46.0</ele><time>2026-05-03T11:37:21Z</time></trkpt><trkpt lat="41.18221972126494" lon="9.179618465412002"><ele>49.0</ele><time>2026-05-03T11:37:22Z</time></trkpt><trkpt lat="41.18248829400044" lon="9.179613743869098"><ele>52.0</ele><time>2026-05-03T11:37:23Z</time></trkpt><trkpt lat="41.18276250256125" lon="9.179615563296045"><ele>52.0</ele><time>2026-05-03T11:37:24Z</time></trkpt><trkpt lat="41.1830446155556" lon="9.17962299747018"><ele>52.0</ele><time>2026-05-03T11:37:25Z</time></trkpt><trkpt lat="41.18332260041211" lon="9.17962670312542"><ele>53.5</ele><time>2026-05-03T11:37:26Z</time></trkpt><trkpt lat="41.183592399290504" lon="9.179629848393061"><ele>55.0</ele><time>2026-05-03T11:37:27Z</time></trkpt><trkpt lat="41.18385703446465" lon="9.179633326321134"><ele>55.5</ele><time>2026-05-03T11:37:28Z</time></trkpt><trkpt lat="41.18411994999419" lon="9.179636468487129"><ele>56.0</ele><time>2026-05-03T11:37:29Z</time></trkpt><trkpt lat="41.18438568781997" lon="9.179636556283773"><ele>56.0</ele><time>2026-05-03T11:37:30Z</time></trkpt><trkpt lat="41.18465684583231" lon="9.179631982807628"><ele>56.0</ele><time>2026-05-03T11:37:31Z</time></trkpt><trkpt lat="41.18493201797498" lon="9.179629644717853"><ele>56.0</ele><time>2026-05-03T11:37:32Z</time></trkpt><trkpt lat="41.18520068147228" lon="9.179633850453515"><ele>56.0</ele><time>2026-05-03T11:37:33Z</time></trkpt><trkpt lat="41.185467533055316" lon="9.17963820858236"><ele>55.0</ele><time>2026-05-03T11:37:34Z</time></trkpt><trkpt lat="41.18574096185401" lon="9.179642059799884"><ele>54.0</ele><time>2026-05-03T11:37:35Z</time></trkpt><trkpt lat="41.186012796413124" lon="9.17964391547821"><ele>54.0</ele><time>2026-05-03T11:37:36Z</time></trkpt><trkpt lat="41.18628498741552" lon="9.179646992527408"><ele>54.0</ele><time>2026-05-03T11:37:37Z</time></trkpt><trkpt lat="41.18655637893149" lon="9.179648261676627"><ele>53.0</ele><time>2026-05-03T11:37:38Z</time></trkpt><trkpt lat="41.186825938914694" lon="9.179654707971462"><ele>52.0</ele><time>2026-05-03T11:37:39Z</time></trkpt><trkpt lat="41.18708902828761" lon="9.179674896173005"><ele>53.0</ele><time>2026-05-03T11:37:40Z</time></trkpt><trkpt lat="41.18734870973793" lon="9.179706031874234"><ele>54.0</ele><time>2026-05-03T11:37:41Z</time></trkpt><trkpt lat="41.18760514374641" lon="9.179760298740998"><ele>54.0</ele><time>2026-05-03T11:37:42Z</time></trkpt><trkpt lat="41.187863951892" lon="9.17983437680464"><ele>54.0</ele><time>2026-05-03T11:37:43Z</time></trkpt><trkpt lat="41.18812309013269" lon="9.179933071138969"><ele>52.5</ele><time>2026-05-03T11:37:44Z</time></trkpt><trkpt lat="41.18837731781305" lon="9.180052499468522"><ele>51.0</ele><time>2026-05-03T11:37:45Z</time></trkpt><trkpt lat="41.1886279208521" lon="9.180180038864453"><ele>51.0</ele><time>2026-05-03T11:37:46Z</time></trkpt><trkpt lat="41.18887473865797" lon="9.180316348920531"><ele>51.0</ele><time>2026-05-03T11:37:47Z</time></trkpt><trkpt lat="41.18911978646222" lon="9.18045375161239"><ele>50.0</ele><time>2026-05-03T11:37:48Z</time></trkpt><trkpt lat="41.18936094294967" lon="9.180589158585747"><ele>49.0</ele><time>2026-05-03T11:37:49Z</time></trkpt><trkpt lat="41.18959988375227" lon="9.18072523114528"><ele>49.0</ele><time>2026-05-03T11:37:50Z</time></trkpt><trkpt lat="41.18983707548673" lon="9.180860595627832"><ele>49.0</ele><time>2026-05-03T11:37:51Z</time></trkpt><trkpt lat="41.19007964008513" lon="9.180995231379367"><ele>52.0</ele><time>2026-05-03T11:37:52Z</time></trkpt><trkpt lat="41.19032656036425" lon="9.181131259987298"><ele>55.0</ele><time>2026-05-03T11:37:53Z</time></trkpt><trkpt lat="41.19057505400764" lon="9.181266233446324"><ele>56.0</ele><time>2026-05-03T11:37:54Z</time></trkpt><trkpt lat="41.190821266173344" lon="9.181396791423698"><ele>57.0</ele><time>2026-05-03T11:37:55Z</time></trkpt><trkpt lat="41.19106746310944" lon="9.181530526859897"><ele>57.0</ele><time>2026-05-03T11:37:56Z</time></trkpt><trkpt lat="41.19131630518308" lon="9.181670421802808"><ele>57.0</ele><time>2026-05-03T11:37:57Z</time></trkpt><trkpt lat="41.19156791243394" lon="9.181813363057909"><ele>57.5</ele><time>2026-05-03T11:37:58Z</time></trkpt><trkpt lat="41.191822610361776" lon="9.18195641271822"><ele>58.0</ele><time>2026-05-03T11:37:59Z</time></trkpt><trkpt lat="41.1920787336065" lon="9.182099792983852"><ele>58.0</ele><time>2026-05-03T11:38:00Z</time></trkpt><trkpt lat="41.19233892168929" lon="9.182244308549338"><ele>58.0</ele><time>2026-05-03T11:38:01Z</time></trkpt><trkpt lat="41.19260514832435" lon="9.182392441081983"><ele>55.5</ele><time>2026-05-03T11:38:02Z</time></trkpt><trkpt lat="41.19287431195948" lon="9.18253943416784"><ele>53.0</ele><time>2026-05-03T11:38:03Z</time></trkpt><trkpt lat="41.19314771791049" lon="9.182686772667507"><ele>54.0</ele><time>2026-05-03T11:38:04Z</time></trkpt><trkpt lat="41.19341810394507" lon="9.182836153289292"><ele>55.0</ele><time>2026-05-03T11:38:05Z</time></trkpt><trkpt lat="41.19368697508873" lon="9.182990288167003"><ele>55.0</ele><time>2026-05-03T11:38:06Z</time></trkpt><trkpt lat="41.193957428019935" lon="9.183150804786148"><ele>55.0</ele><time>2026-05-03T11:38:07Z</time></trkpt><trkpt lat="41.194224529193285" lon="9.183302051830925"><ele>55.5</ele><time>2026-05-03T11:38:08Z</time></trkpt><trkpt lat="41.194482274320904" lon="9.183447932644942"><ele>56.0</ele><time>2026-05-03T11:38:09Z</time></trkpt><trkpt lat="41.194734099709606" lon="9.183583946964172"><ele>58.5</ele><time>2026-05-03T11:38:10Z</time></trkpt><trkpt lat="41.194979757840635" lon="9.183687385938775"><ele>61.0</ele><time>2026-05-03T11:38:11Z</time></trkpt><trkpt lat="41.19524449623028" lon="9.183788945044816"><ele>61.0</ele><time>2026-05-03T11:38:12Z</time></trkpt><trkpt lat="41.195514137794596" lon="9.183867714194793"><ele>61.0</ele><time>2026-05-03T11:38:13Z</time></trkpt><trkpt lat="41.19580199072045" lon="9.183945413554186"><ele>60.0</ele><time>2026-05-03T11:38:14Z</time></trkpt><trkpt lat="41.19608560985312" lon="9.183998067309993"><ele>59.0</ele><time>2026-05-03T11:38:15Z</time></trkpt><trkpt lat="41.19636646357591" lon="9.184048141396426"><ele>60.0</ele><time>2026-05-03T11:38:16Z</time></trkpt><trkpt lat="41.196637361696474" lon="9.18409738275397"><ele>61.0</ele><time>2026-05-03T11:38:17Z</time></trkpt><trkpt lat="41.196890228800136" lon="9.184142516648954"><ele>61.0</ele><time>2026-05-03T11:38:18Z</time></trkpt><trkpt lat="41.1971406037312" lon="9.184190026895099"><ele>61.0</ele><time>2026-05-03T11:38:19Z</time></trkpt><trkpt lat="41.19739556666496" lon="9.184236000371369"><ele>62.0</ele><time>2026-05-03T11:38:20Z</time></trkpt><trkpt lat="41.197656039165146" lon="9.18428193007793"><ele>63.0</ele><time>2026-05-03T11:38:21Z</time></trkpt><trkpt lat="41.19791764900333" lon="9.184327900565128"><ele>63.0</ele><time>2026-05-03T11:38:22Z</time></trkpt><trkpt lat="41.19817969969669" lon="9.184374134287323"><ele>63.0</ele><time>2026-05-03T11:38:23Z</time></trkpt><trkpt lat="41.19844070826909" lon="9.184420593539663"><ele>63.0</ele><time>2026-05-03T11:38:24Z</time></trkpt><trkpt lat="41.19869688239113" lon="9.184463889044236"><ele>63.0</ele><time>2026-05-03T11:38:25Z</time></trkpt><trkpt lat="41.198956115963554" lon="9.184509249292756"><ele>62.5</ele><time>2026-05-03T11:38:26Z</time></trkpt><trkpt lat="41.19922667172216" lon="9.184554127076117"><ele>62.0</ele><time>2026-05-03T11:38:27Z</time></trkpt><trkpt lat="41.19949548080984" lon="9.184603277007175"><ele>62.0</ele><time>2026-05-03T11:38:28Z</time></trkpt><trkpt lat="41.199772417655666" lon="9.184653353562787"><ele>62.0</ele><time>2026-05-03T11:38:29Z</time></trkpt><trkpt lat="41.20005004065858" lon="9.18470298638864"><ele>61.5</ele><time>2026-05-03T11:38:30Z</time></trkpt><trkpt lat="41.20033025296704" lon="9.18475267155317"><ele>61.0</ele><time>2026-05-03T11:38:31Z</time></trkpt><trkpt lat="41.20061333088831" lon="9.184800994143071"><ele>59.0</ele><time>2026-05-03T11:38:32Z</time></trkpt><trkpt lat="41.20089447572904" lon="9.184849285616986"><ele>57.0</ele><time>2026-05-03T11:38:33Z</time></trkpt><trkpt lat="41.20117163033643" lon="9.184899578021067"><ele>57.0</ele><time>2026-05-03T11:38:34Z</time></trkpt><trkpt lat="41.20142791362748" lon="9.184944957582177"><ele>57.0</ele><time>2026-05-03T11:38:35Z</time></trkpt><trkpt lat="41.201673678599334" lon="9.18499067281277"><ele>57.0</ele><time>2026-05-03T11:38:36Z</time></trkpt><trkpt lat="41.20191948071632" lon="9.185037659788081"><ele>57.0</ele><time>2026-05-03T11:38:37Z</time></trkpt><trkpt lat="41.202162744336896" lon="9.185082307600718"><ele>59.0</ele><time>2026-05-03T11:38:38Z</time></trkpt><trkpt lat="41.20241261103211" lon="9.185127272008955"><ele>61.0</ele><time>2026-05-03T11:38:39Z</time></trkpt><trkpt lat="41.20267273731578" lon="9.185166403119567"><ele>61.0</ele><time>2026-05-03T11:38:40Z</time></trkpt><trkpt lat="41.202933487326476" lon="9.185193198819874"><ele>61.0</ele><time>2026-05-03T11:38:41Z</time></trkpt><trkpt lat="41.20317873679692" lon="9.18519860091553"><ele>60.5</ele><time>2026-05-03T11:38:42Z</time></trkpt><trkpt lat="41.20341540631514" lon="9.185176836160938"><ele>60.0</ele><time>2026-05-03T11:38:43Z</time></trkpt><trkpt lat="41.20364829520199" lon="9.185144579957612"><ele>60.0</ele><time>2026-05-03T11:38:44Z</time></trkpt><trkpt lat="41.203877644271486" lon="9.185105338117657"><ele>60.0</ele><time>2026-05-03T11:38:45Z</time></trkpt><trkpt lat="41.20410887011786" lon="9.18506519719795"><ele>59.0</ele><time>2026-05-03T11:38:46Z</time></trkpt><trkpt lat="41.20434027754749" lon="9.185024558348527"><ele>58.0</ele><time>2026-05-03T11:38:47Z</time></trkpt><trkpt lat="41.20457493682356" lon="9.184987209832324"><ele>58.0</ele><time>2026-05-03T11:38:48Z</time></trkpt><trkpt lat="41.20480724508039" lon="9.184951620068432"><ele>58.0</ele><time>2026-05-03T11:38:49Z</time></trkpt><trkpt lat="41.205039707710746" lon="9.184918164425618"><ele>58.0</ele><time>2026-05-03T11:38:50Z</time></trkpt><trkpt lat="41.2052802237945" lon="9.184879510601881"><ele>58.0</ele><time>2026-05-03T11:38:51Z</time></trkpt><trkpt lat="41.20552338118008" lon="9.184834791560007"><ele>57.5</ele><time>2026-05-03T11:38:52Z</time></trkpt><trkpt lat="41.20576376900673" lon="9.184794732915755"><ele>57.0</ele><time>2026-05-03T11:38:53Z</time></trkpt><trkpt lat="41.205998209975746" lon="9.184750889766997"><ele>57.0</ele><time>2026-05-03T11:38:54Z</time></trkpt><trkpt lat="41.206237201801805" lon="9.184708496833544"><ele>57.0</ele><time>2026-05-03T11:38:55Z</time></trkpt><trkpt lat="41.20648020706584" lon="9.184670424802869"><ele>57.5</ele><time>2026-05-03T11:38:56Z</time></trkpt><trkpt lat="41.206719819641314" lon="9.184630700228418"><ele>58.0</ele><time>2026-05-03T11:38:57Z</time></trkpt><trkpt lat="41.206963486590794" lon="9.18459215558054"><ele>58.0</ele><time>2026-05-03T11:38:58Z</time></trkpt><trkpt lat="41.20721052977937" lon="9.184552081884126"><ele>58.0</ele><time>2026-05-03T11:38:59Z</time></trkpt><trkpt lat="41.207460402893396" lon="9.184511014837568"><ele>57.5</ele><time>2026-05-03T11:39:00Z</time></trkpt><trkpt lat="41.20771534544746" lon="9.184467212896552"><ele>57.0</ele><time>2026-05-03T11:39:01Z</time></trkpt><trkpt lat="41.20797232638032" lon="9.184423803934115"><ele>56.0</ele><time>2026-05-03T11:39:02Z</time></trkpt><trkpt lat="41.20823508780061" lon="9.184375526689994"><ele>55.0</ele><time>2026-05-03T11:39:03Z</time></trkpt><trkpt lat="41.208496820197425" lon="9.18433289778476"><ele>55.0</ele><time>2026-05-03T11:39:04Z</time></trkpt><trkpt lat="41.20874983654469" lon="9.184288549785851"><ele>55.0</ele><time>2026-05-03T11:39:05Z</time></trkpt><trkpt lat="41.20899654685222" lon="9.184247595143562"><ele>54.0</ele><time>2026-05-03T11:39:06Z</time></trkpt><trkpt lat="41.20923903397494" lon="9.184206341186025"><ele>53.0</ele><time>2026-05-03T11:39:07Z</time></trkpt><trkpt lat="41.2094836435319" lon="9.184167788631576"><ele>53.0</ele><time>2026-05-03T11:39:08Z</time></trkpt><trkpt lat="41.209724466068536" lon="9.184131283356518"><ele>53.0</ele><time>2026-05-03T11:39:09Z</time></trkpt><trkpt lat="41.20996712919337" lon="9.184092366958069"><ele>52.5</ele><time>2026-05-03T11:39:10Z</time></trkpt><trkpt lat="41.21021293443801" lon="9.184051384274438"><ele>52.0</ele><time>2026-05-03T11:39:11Z</time></trkpt><trkpt lat="41.2104610550238" lon="9.184011628410504"><ele>52.5</ele><time>2026-05-03T11:39:12Z</time></trkpt><trkpt lat="41.21070679752013" lon="9.18397174096617"><ele>53.0</ele><time>2026-05-03T11:39:13Z</time></trkpt><trkpt lat="41.2109490793574" lon="9.183940587903505"><ele>53.0</ele><time>2026-05-03T11:39:14Z</time></trkpt><trkpt lat="41.211182492743546" lon="9.183920403211086"><ele>53.0</ele><time>2026-05-03T11:39:15Z</time></trkpt><trkpt lat="41.21140213525749" lon="9.183911485885485"><ele>53.333333333333336</ele><time>2026-05-03T11:39:16Z</time></trkpt><trkpt lat="41.21161997027156" lon="9.183907629750689"><ele>53.66666666666667</ele><time>2026-05-03T11:39:17Z</time></trkpt><trkpt lat="41.211832212635315" lon="9.183902647270404"><ele>54.0</ele><time>2026-05-03T11:39:18Z</time></trkpt><trkpt lat="41.21204317448502" lon="9.183892907914753"><ele>54.0</ele><time>2026-05-03T11:39:19Z</time></trkpt><trkpt lat="41.212267022141916" lon="9.183888924530835"><ele>54.0</ele><time>2026-05-03T11:39:20Z</time></trkpt><trkpt lat="41.21249984674228" lon="9.18389032445805"><ele>54.0</ele><time>2026-05-03T11:39:21Z</time></trkpt><trkpt lat="41.21273493136865" lon="9.183892371325829"><ele>54.0</ele><time>2026-05-03T11:39:22Z</time></trkpt><trkpt lat="41.21297585839297" lon="9.183889625167865"><ele>53.0</ele><time>2026-05-03T11:39:23Z</time></trkpt><trkpt lat="41.213220506142086" lon="9.183884288767809"><ele>52.0</ele><time>2026-05-03T11:39:24Z</time></trkpt><trkpt lat="41.2134672460176" lon="9.183878592539127"><ele>52.0</ele><time>2026-05-03T11:39:25Z</time></trkpt><trkpt lat="41.21370237602999" lon="9.183876529444749"><ele>52.0</ele><time>2026-05-03T11:39:26Z</time></trkpt><trkpt lat="41.213922898198554" lon="9.18387461566261"><ele>52.33333333333333</ele><time>2026-05-03T11:39:27Z</time></trkpt><trkpt lat="41.21413815574289" lon="9.183872873398188"><ele>52.66666666666667</ele><time>2026-05-03T11:39:28Z</time></trkpt><trkpt lat="41.21435417546191" lon="9.183870562832784"><ele>53.0</ele><time>2026-05-03T11:39:29Z</time></trkpt><trkpt lat="41.21457029984937" lon="9.18386668039047"><ele>53.0</ele><time>2026-05-03T11:39:30Z</time></trkpt><trkpt lat="41.21478659618911" lon="9.183862043055845"><ele>53.0</ele><time>2026-05-03T11:39:31Z</time></trkpt><trkpt lat="41.21500457998936" lon="9.18385738540602"><ele>53.0</ele><time>2026-05-03T11:39:32Z</time></trkpt><trkpt lat="41.21522215992646" lon="9.183853632494966"><ele>52.333333333333336</ele><time>2026-05-03T11:39:33Z</time></trkpt><trkpt lat="41.21544048281466" lon="9.18385138401328"><ele>51.66666666666667</ele><time>2026-05-03T11:39:34Z</time></trkpt><trkpt lat="41.21566012417926" lon="9.18384978885972"><ele>51.0</ele><time>2026-05-03T11:39:35Z</time></trkpt><trkpt lat="41.215881408204964" lon="9.183845987737946"><ele>50.66666666666667</ele><time>2026-05-03T11:39:36Z</time></trkpt><trkpt lat="41.21610335040736" lon="9.183841254083848"><ele>50.333333333333336</ele><time>2026-05-03T11:39:37Z</time></trkpt><trkpt lat="41.216321217736805" lon="9.183836585751758"><ele>50.0</ele><time>2026-05-03T11:39:38Z</time></trkpt><trkpt lat="41.21653255788629" lon="9.183831888168127"><ele>49.0</ele><time>2026-05-03T11:39:39Z</time></trkpt><trkpt lat="41.21673025043219" lon="9.183827300775437"><ele>48.0</ele><time>2026-05-03T11:39:40Z</time></trkpt><trkpt lat="41.216918355954874" lon="9.183823727235929"><ele>47.0</ele><time>2026-05-03T11:39:41Z</time></trkpt><trkpt lat="41.21709690479595" lon="9.183817051724917"><ele>47.0</ele><time>2026-05-03T11:39:42Z</time></trkpt><trkpt lat="41.21727160790332" lon="9.183811845295017"><ele>47.0</ele><time>2026-05-03T11:39:43Z</time></trkpt><trkpt lat="41.21745783771974" lon="9.183806977979652"><ele>47.0</ele><time>2026-05-03T11:39:44Z</time></trkpt><trkpt lat="41.21765865377248" lon="9.183797410143798"><ele>46.0</ele><time>2026-05-03T11:39:45Z</time></trkpt><trkpt lat="41.217867293202076" lon="9.183787236235611"><ele>45.0</ele><time>2026-05-03T11:39:46Z</time></trkpt><trkpt lat="41.21808073654931" lon="9.183775847455276"><ele>44.0</ele><time>2026-05-03T11:39:47Z</time></trkpt><trkpt lat="41.21829960171761" lon="9.183764531471663"><ele>44.0</ele><time>2026-05-03T11:39:48Z</time></trkpt><trkpt lat="41.218521226066855" lon="9.183749751469957"><ele>44.0</ele><time>2026-05-03T11:39:49Z</time></trkpt><trkpt lat="41.21874575026256" lon="9.183734336149397"><ele>44.0</ele><time>2026-05-03T11:39:50Z</time></trkpt><trkpt lat="41.218972824765444" lon="9.183720721311582"><ele>45.0</ele><time>2026-05-03T11:39:51Z</time></trkpt><trkpt lat="41.21920229724001" lon="9.183707961219548"><ele>46.0</ele><time>2026-05-03T11:39:52Z</time></trkpt><trkpt lat="41.21943083868753" lon="9.183696372444553"><ele>46.0</ele><time>2026-05-03T11:39:53Z</time></trkpt><trkpt lat="41.21965640456227" lon="9.183682594832957"><ele>46.0</ele><time>2026-05-03T11:39:54Z</time></trkpt><trkpt lat="41.2198788317823" lon="9.18348856399329"><ele>45.333333333333336</ele><time>2026-05-03T11:39:55Z</time></trkpt><trkpt lat="41.220099214053725" lon="9.18348149933532"><ele>44.666666666666664</ele><time>2026-05-03T11:39:56Z</time></trkpt><trkpt lat="41.22031614635657" lon="9.183474545179154"><ele>44.0</ele><time>2026-05-03T11:39:57Z</time></trkpt><trkpt lat="41.22053174527082" lon="9.183467633765733"><ele>45.0</ele><time>2026-05-03T11:39:58Z</time></trkpt><trkpt lat="41.220747852733346" lon="9.183617938127469"><ele>46.0</ele><time>2026-05-03T11:39:59Z</time></trkpt><trkpt lat="41.22096037839337" lon="9.18360596796636"><ele>46.0</ele><time>2026-05-03T11:40:00Z</time></trkpt><trkpt lat="41.221176001235996" lon="9.183594583059548"><ele>46.0</ele><time>2026-05-03T11:40:01Z</time></trkpt><trkpt lat="41.2213911580364" lon="9.183582238173704"><ele>46.0</ele><time>2026-05-03T11:40:02Z</time></trkpt><trkpt lat="41.22160834194902" lon="9.18357045540584"><ele>46.0</ele><time>2026-05-03T11:40:03Z</time></trkpt><trkpt lat="41.22182825931948" lon="9.18355763830934"><ele>46.0</ele><time>2026-05-03T11:40:04Z</time></trkpt><trkpt lat="41.22205204571218" lon="9.18354619373936"><ele>46.0</ele><time>2026-05-03T11:40:05Z</time></trkpt><trkpt lat="41.222278478231814" lon="9.183532504184864"><ele>46.5</ele><time>2026-05-03T11:40:06Z</time></trkpt><trkpt lat="41.222506985068854" lon="9.183517336789636"><ele>47.0</ele><time>2026-05-03T11:40:07Z</time></trkpt><trkpt lat="41.222736884548354" lon="9.183501354440894"><ele>47.0</ele><time>2026-05-03T11:40:08Z</time></trkpt><trkpt lat="41.22295995153575" lon="9.183487724479605"><ele>47.0</ele><time>2026-05-03T11:40:09Z</time></trkpt><trkpt lat="41.223177915479226" lon="9.183476175213451"><ele>47.0</ele><time>2026-05-03T11:40:10Z</time></trkpt><trkpt lat="41.223395365887555" lon="9.183465439864342"><ele>47.666666666666664</ele><time>2026-05-03T11:40:11Z</time></trkpt><trkpt lat="41.223609270749236" lon="9.183452042240946"><ele>48.33333333333333</ele><time>2026-05-03T11:40:12Z</time></trkpt><trkpt lat="41.223819705340205" lon="9.183436386389564"><ele>49.0</ele><time>2026-05-03T11:40:13Z</time></trkpt><trkpt lat="41.224028023764305" lon="9.183423214928261"><ele>49.0</ele><time>2026-05-03T11:40:14Z</time></trkpt><trkpt lat="41.22423981721433" lon="9.183416329946438"><ele>49.0</ele><time>2026-05-03T11:40:15Z</time></trkpt><trkpt lat="41.22445284417982" lon="9.183415599291303"><ele>49.0</ele><time>2026-05-03T11:40:16Z</time></trkpt><trkpt lat="41.224668634086896" lon="9.18342278136082"><ele>48.666666666666664</ele><time>2026-05-03T11:40:17Z</time></trkpt><trkpt lat="41.224886385257804" lon="9.183440561978134"><ele>48.33333333333333</ele><time>2026-05-03T11:40:18Z</time></trkpt><trkpt lat="41.22510212520319" lon="9.183475497038973"><ele>48.0</ele><time>2026-05-03T11:40:19Z</time></trkpt><trkpt lat="41.22531982535979" lon="9.183517791675861"><ele>48.0</ele><time>2026-05-03T11:40:20Z</time></trkpt><trkpt lat="41.225540790062915" lon="9.18356793213624"><ele>48.0</ele><time>2026-05-03T11:40:21Z</time></trkpt><trkpt lat="41.2257587930942" lon="9.183610651870524"><ele>48.0</ele><time>2026-05-03T11:40:22Z</time></trkpt><trkpt lat="41.22598046494815" lon="9.183657168716122"><ele>47.0</ele><time>2026-05-03T11:40:23Z</time></trkpt><trkpt lat="41.22620577321897" lon="9.183703616292568"><ele>46.0</ele><time>2026-05-03T11:40:24Z</time></trkpt><trkpt lat="41.22642911270571" lon="9.183750006984999"><ele>46.5</ele><time>2026-05-03T11:40:25Z</time></trkpt><trkpt lat="41.226652191407595" lon="9.183797568489414"><ele>47.0</ele><time>2026-05-03T11:40:26Z</time></trkpt><trkpt lat="41.22687334312878" lon="9.183847209731171"><ele>47.0</ele><time>2026-05-03T11:40:27Z</time></trkpt><trkpt lat="41.227084117890186" lon="9.183890947766924"><ele>47.0</ele><time>2026-05-03T11:40:28Z</time></trkpt><trkpt lat="41.227284477377175" lon="9.18393590415817"><ele>47.0</ele><time>2026-05-03T11:40:29Z</time></trkpt><trkpt lat="41.2274888952468" lon="9.183989109799928"><ele>46.666666666666664</ele><time>2026-05-03T11:40:30Z</time></trkpt><trkpt lat="41.22768973070169" lon="9.184052823030548"><ele>46.333333333333336</ele><time>2026-05-03T11:40:31Z</time></trkpt><trkpt lat="41.22787863715839" lon="9.184116435004809"><ele>46.0</ele><time>2026-05-03T11:40:32Z</time></trkpt><trkpt lat="41.228062723270675" lon="9.184179473093407"><ele>45.0</ele><time>2026-05-03T11:40:33Z</time></trkpt><trkpt lat="41.228253974150284" lon="9.184246800724708"><ele>44.0</ele><time>2026-05-03T11:40:34Z</time></trkpt><trkpt lat="41.22844854282347" lon="9.184315605266038"><ele>43.0</ele><time>2026-05-03T11:40:35Z</time></trkpt><trkpt lat="41.228644183449376" lon="9.18437391739142"><ele>43.0</ele><time>2026-05-03T11:40:36Z</time></trkpt><trkpt lat="41.2288355720289" lon="9.184437237303102"><ele>43.0</ele><time>2026-05-03T11:40:37Z</time></trkpt><trkpt lat="41.229015095940156" lon="9.184501170478846"><ele>43.0</ele><time>2026-05-03T11:40:38Z</time></trkpt><trkpt lat="41.22918039276375" lon="9.184559953112064"><ele>41.75</ele><time>2026-05-03T11:40:39Z</time></trkpt><trkpt lat="41.22933321759647" lon="9.184612638162767"><ele>40.5</ele><time>2026-05-03T11:40:40Z</time></trkpt><trkpt lat="41.229471314401124" lon="9.184657614453174"><ele>39.25</ele><time>2026-05-03T11:40:41Z</time></trkpt><trkpt lat="41.22958057691221" lon="9.184693467072886"><ele>38.0</ele><time>2026-05-03T11:40:42Z</time></trkpt><trkpt lat="41.22966182807747" lon="9.184736756776578"><ele>38.0</ele><time>2026-05-03T11:40:43Z</time></trkpt><trkpt lat="41.22972433220743" lon="9.18480572377045"><ele>38.0</ele><time>2026-05-03T11:40:44Z</time></trkpt><trkpt lat="41.229771266829516" lon="9.184917951592125"><ele>38.0</ele><time>2026-05-03T11:40:46Z</time></trkpt><trkpt lat="41.22983648384532" lon="9.184984199033085"><ele>38.0</ele><time>2026-05-03T11:40:48Z</time></trkpt><trkpt lat="41.22994944598433" lon="9.184964814371538"><ele>38.0</ele><time>2026-05-03T11:40:50Z</time></trkpt><trkpt lat="41.23001464913631" lon="9.184926322198828"><ele>38.0</ele><time>2026-05-03T11:40:51Z</time></trkpt><trkpt lat="41.23005521106057" lon="9.184838578706222"><ele>38.0</ele><time>2026-05-03T11:41:01Z</time></trkpt><trkpt lat="41.23005370337403" lon="9.184742670043123"><ele>38.0</ele><time>2026-05-03T11:41:03Z</time></trkpt><trkpt lat="41.2299774161766" lon="9.184601883899463"><ele>38.0</ele><time>2026-05-03T11:41:05Z</time></trkpt><trkpt lat="41.229909592813854" lon="9.184569306350536"><ele>38.0</ele><time>2026-05-03T11:41:06Z</time></trkpt><trkpt lat="41.229839629868174" lon="9.184580354832896"><ele>38.0</ele><time>2026-05-03T11:41:07Z</time></trkpt><trkpt lat="41.229777802860916" lon="9.184636292777471"><ele>38.0</ele><time>2026-05-03T11:41:08Z</time></trkpt><trkpt lat="41.229739291813615" lon="9.184719513889693"><ele>38.0</ele><time>2026-05-03T11:41:09Z</time></trkpt><trkpt lat="41.22972550374073" lon="9.184822103065285"><ele>38.0</ele><time>2026-05-03T11:41:10Z</time></trkpt><trkpt lat="41.22973262559872" lon="9.184925315275978"><ele>38.0</ele><time>2026-05-03T11:41:11Z</time></trkpt><trkpt lat="41.229720614410724" lon="9.185040436800943"><ele>38.0</ele><time>2026-05-03T11:41:12Z</time></trkpt><trkpt lat="41.22964811704415" lon="9.185157701638516"><ele>38.0</ele><time>2026-05-03T11:41:13Z</time></trkpt><trkpt lat="41.22958241149229" lon="9.18530677015913"><ele>37.666666666666664</ele><time>2026-05-03T11:41:14Z</time></trkpt><trkpt lat="41.22949063431889" lon="9.185453755657676"><ele>37.333333333333336</ele><time>2026-05-03T11:41:15Z</time></trkpt><trkpt lat="41.22938998705404" lon="9.185617102407344"><ele>37.0</ele><time>2026-05-03T11:41:16Z</time></trkpt><trkpt lat="41.2292849137506" lon="9.185790787062585"><ele>36.333333333333336</ele><time>2026-05-03T11:41:17Z</time></trkpt><trkpt lat="41.2291758429218" lon="9.185971307035457"><ele>35.666666666666664</ele><time>2026-05-03T11:41:18Z</time></trkpt><trkpt lat="41.229069758540234" lon="9.18615617670072"><ele>35.0</ele><time>2026-05-03T11:41:19Z</time></trkpt><trkpt lat="41.22895575366781" lon="9.186351542990412"><ele>37.33333333333333</ele><time>2026-05-03T11:41:20Z</time></trkpt><trkpt lat="41.22883895866294" lon="9.186545113559635"><ele>39.666666666666664</ele><time>2026-05-03T11:41:21Z</time></trkpt><trkpt lat="41.22872126841916" lon="9.186746617836153"><ele>42.0</ele><time>2026-05-03T11:41:22Z</time></trkpt><trkpt lat="41.22860203253796" lon="9.186956174748387"><ele>42.0</ele><time>2026-05-03T11:41:23Z</time></trkpt><trkpt lat="41.22847919793715" lon="9.187170913235299"><ele>42.0</ele><time>2026-05-03T11:41:24Z</time></trkpt><trkpt lat="41.22835406321325" lon="9.187386505689739"><ele>42.0</ele><time>2026-05-03T11:41:25Z</time></trkpt><trkpt lat="41.22823034451684" lon="9.187603263779586"><ele>42.666666666666664</ele><time>2026-05-03T11:41:26Z</time></trkpt><trkpt lat="41.22810331686158" lon="9.187822323210725"><ele>43.33333333333333</ele><time>2026-05-03T11:41:27Z</time></trkpt><trkpt lat="41.2279761155152" lon="9.18803991847545"><ele>44.0</ele><time>2026-05-03T11:41:28Z</time></trkpt><trkpt lat="41.22784569464587" lon="9.188263145247372"><ele>44.0</ele><time>2026-05-03T11:41:29Z</time></trkpt><trkpt lat="41.22771340877564" lon="9.188490738577357"><ele>44.0</ele><time>2026-05-03T11:41:30Z</time></trkpt><trkpt lat="41.227578878150545" lon="9.188719470812895"><ele>44.0</ele><time>2026-05-03T11:41:31Z</time></trkpt><trkpt lat="41.22744519345831" lon="9.188945574757769"><ele>44.666666666666664</ele><time>2026-05-03T11:41:32Z</time></trkpt><trkpt lat="41.227314935740445" lon="9.189177022796168"><ele>45.333333333333336</ele><time>2026-05-03T11:41:33Z</time></trkpt><trkpt lat="41.22718606956075" lon="9.189408829290857"><ele>46.0</ele><time>2026-05-03T11:41:34Z</time></trkpt><trkpt lat="41.22705298370313" lon="9.189624643179528"><ele>46.0</ele><time>2026-05-03T11:41:35Z</time></trkpt><trkpt lat="41.22690919672882" lon="9.189801360392922"><ele>46.0</ele><time>2026-05-03T11:41:36Z</time></trkpt><trkpt lat="41.22673958392633" lon="9.189927093598678"><ele>46.0</ele><time>2026-05-03T11:41:37Z</time></trkpt><trkpt lat="41.226551247254676" lon="9.190012815585764"><ele>43.0</ele><time>2026-05-03T11:41:38Z</time></trkpt><trkpt lat="41.226364495729314" lon="9.190041605713507"><ele>40.0</ele><time>2026-05-03T11:41:39Z</time></trkpt><trkpt lat="41.226170788282005" lon="9.190011941108004"><ele>37.0</ele><time>2026-05-03T11:41:40Z</time></trkpt><trkpt lat="41.225974150577656" lon="9.189934224307422"><ele>37.0</ele><time>2026-05-03T11:41:41Z</time></trkpt><trkpt lat="41.22576972466837" lon="9.189844400752358"><ele>37.0</ele><time>2026-05-03T11:41:42Z</time></trkpt><trkpt lat="41.22555437600626" lon="9.189752320320538"><ele>37.0</ele><time>2026-05-03T11:41:43Z</time></trkpt><trkpt lat="41.225332769247075" lon="9.18966363836677"><ele>35.0</ele><time>2026-05-03T11:41:44Z</time></trkpt><trkpt lat="41.225106814694676" lon="9.189573563825721"><ele>33.0</ele><time>2026-05-03T11:41:45Z</time></trkpt><trkpt lat="41.22487945325461" lon="9.189476837959923"><ele>33.0</ele><time>2026-05-03T11:41:46Z</time></trkpt><trkpt lat="41.22465378065195" lon="9.18937795417316"><ele>33.0</ele><time>2026-05-03T11:41:47Z</time></trkpt><trkpt lat="41.22442504323474" lon="9.189277288331287"><ele>33.0</ele><time>2026-05-03T11:41:48Z</time></trkpt><trkpt lat="41.224187900126395" lon="9.189171586788344"><ele>33.0</ele><time>2026-05-03T11:41:49Z</time></trkpt><trkpt lat="41.2239491086245" lon="9.18906576577744"><ele>35.5</ele><time>2026-05-03T11:41:50Z</time></trkpt><trkpt lat="41.22371305255952" lon="9.188964333540698"><ele>38.0</ele><time>2026-05-03T11:41:51Z</time></trkpt><trkpt lat="41.22350952733675" lon="9.18888349023421"><ele>38.0</ele><time>2026-05-03T11:41:52Z</time></trkpt><trkpt lat="41.22331316950784" lon="9.188799805593977"><ele>38.0</ele><time>2026-05-03T11:41:53Z</time></trkpt><trkpt lat="41.22313812558592" lon="9.188744921891388"><ele>38.0</ele><time>2026-05-03T11:41:54Z</time></trkpt><trkpt lat="41.22298831437968" lon="9.188719309725586"><ele>38.25</ele><time>2026-05-03T11:41:55Z</time></trkpt><trkpt lat="41.222848041824214" lon="9.188737398554569"><ele>38.5</ele><time>2026-05-03T11:41:56Z</time></trkpt><trkpt lat="41.22273253153001" lon="9.188827622913507"><ele>38.75</ele><time>2026-05-03T11:41:57Z</time></trkpt><trkpt lat="41.22264745201738" lon="9.188969725020547"><ele>39.0</ele><time>2026-05-03T11:41:58Z</time></trkpt><trkpt lat="41.22256286189559" lon="9.189139818982127"><ele>39.0</ele><time>2026-05-03T11:41:59Z</time></trkpt><trkpt lat="41.22246278974632" lon="9.189326666514832"><ele>39.0</ele><time>2026-05-03T11:42:00Z</time></trkpt><trkpt lat="41.222346501291725" lon="9.189526533623921"><ele>39.0</ele><time>2026-05-03T11:42:01Z</time></trkpt><trkpt lat="41.2222210355687" lon="9.189736006269259"><ele>40.333333333333336</ele><time>2026-05-03T11:42:02Z</time></trkpt><trkpt lat="41.22209377580584" lon="9.189953326910668"><ele>41.66666666666667</ele><time>2026-05-03T11:42:03Z</time></trkpt><trkpt lat="41.221966712952366" lon="9.19017393670019"><ele>43.0</ele><time>2026-05-03T11:42:04Z</time></trkpt><trkpt lat="41.22184019778683" lon="9.190398114376856"><ele>43.0</ele><time>2026-05-03T11:42:05Z</time></trkpt><trkpt lat="41.22171312392211" lon="9.19062327481616"><ele>43.0</ele><time>2026-05-03T11:42:06Z</time></trkpt><trkpt lat="41.221587535150995" lon="9.190849789618957"><ele>43.0</ele><time>2026-05-03T11:42:07Z</time></trkpt><trkpt lat="41.2214664138376" lon="9.191086290872986"><ele>43.333333333333336</ele><time>2026-05-03T11:42:08Z</time></trkpt><trkpt lat="41.22135770470171" lon="9.191341841699264"><ele>43.666666666666664</ele><time>2026-05-03T11:42:09Z</time></trkpt><trkpt lat="41.22126350649855" lon="9.191615225486853"><ele>44.0</ele><time>2026-05-03T11:42:10Z</time></trkpt><trkpt lat="41.22117011271883" lon="9.191897675622041"><ele>44.5</ele><time>2026-05-03T11:42:11Z</time></trkpt><trkpt lat="41.22107238604976" lon="9.19218524953337"><ele>45.0</ele><time>2026-05-03T11:42:12Z</time></trkpt><trkpt lat="41.22097456417131" lon="9.192474907647503"><ele>46.0</ele><time>2026-05-03T11:42:13Z</time></trkpt><trkpt lat="41.22087651693304" lon="9.192764515559265"><ele>47.0</ele><time>2026-05-03T11:42:14Z</time></trkpt><trkpt lat="41.22077829776985" lon="9.193054796215009"><ele>47.0</ele><time>2026-05-03T11:42:15Z</time></trkpt><trkpt lat="41.220679427476895" lon="9.193344370214835"><ele>47.0</ele><time>2026-05-03T11:42:16Z</time></trkpt><trkpt lat="41.220580930029755" lon="9.193638808587629"><ele>47.5</ele><time>2026-05-03T11:42:17Z</time></trkpt><trkpt lat="41.220480422115195" lon="9.193935436783907"><ele>48.0</ele><time>2026-05-03T11:42:18Z</time></trkpt><trkpt lat="41.22037859472974" lon="9.194225763809973"><ele>48.0</ele><time>2026-05-03T11:42:19Z</time></trkpt><trkpt lat="41.22027710426491" lon="9.194514549710131"><ele>48.0</ele><time>2026-05-03T11:42:20Z</time></trkpt><trkpt lat="41.220176205121504" lon="9.194804041799662"><ele>48.66666666666667</ele><time>2026-05-03T11:42:21Z</time></trkpt><trkpt lat="41.22008331594525" lon="9.195086720090089"><ele>49.333333333333336</ele><time>2026-05-03T11:42:22Z</time></trkpt><trkpt lat="41.22001377262657" lon="9.195353659027466"><ele>50.0</ele><time>2026-05-03T11:42:23Z</time></trkpt><trkpt lat="41.21996545250144" lon="9.195612128786278"><ele>50.66666666666667</ele><time>2026-05-03T11:42:24Z</time></trkpt><trkpt lat="41.2199048379795" lon="9.195857733151787"><ele>51.33333333333333</ele><time>2026-05-03T11:42:25Z</time></trkpt><trkpt lat="41.21985467007499" lon="9.196102558657648"><ele>52.0</ele><time>2026-05-03T11:42:26Z</time></trkpt><trkpt lat="41.22006316712668" lon="9.196457737049895"><ele>53.33333333333333</ele><time>2026-05-03T11:42:27Z</time></trkpt><trkpt lat="41.22009521093992" lon="9.19673946825608"><ele>54.66666666666667</ele><time>2026-05-03T11:42:28Z</time></trkpt><trkpt lat="41.22012814789907" lon="9.197022299722216"><ele>56.0</ele><time>2026-05-03T11:42:29Z</time></trkpt><trkpt lat="41.22015947392437" lon="9.197306810862775"><ele>58.0</ele><time>2026-05-03T11:42:30Z</time></trkpt><trkpt lat="41.22019127499779" lon="9.197590432150022"><ele>60.0</ele><time>2026-05-03T11:42:31Z</time></trkpt><trkpt lat="41.220231130668786" lon="9.197873772663533"><ele>62.0</ele><time>2026-05-03T11:42:32Z</time></trkpt><trkpt lat="41.22028953369569" lon="9.198155567762806"><ele>63.66666666666667</ele><time>2026-05-03T11:42:33Z</time></trkpt><trkpt lat="41.22037035323183" lon="9.198427338136447"><ele>65.33333333333333</ele><time>2026-05-03T11:42:34Z</time></trkpt><trkpt lat="41.220450983263" lon="9.198689918383533"><ele>67.0</ele><time>2026-05-03T11:42:35Z</time></trkpt><trkpt lat="41.22051235161618" lon="9.1989417685168"><ele>68.66666666666666</ele><time>2026-05-03T11:42:36Z</time></trkpt><trkpt lat="41.22054540242916" lon="9.199213450616531"><ele>70.33333333333333</ele><time>2026-05-03T11:42:37Z</time></trkpt><trkpt lat="41.22053324333392" lon="9.19949118393387"><ele>72.0</ele><time>2026-05-03T11:42:38Z</time></trkpt><trkpt lat="41.22052111007008" lon="9.199763189084818"><ele>73.0</ele><time>2026-05-03T11:42:39Z</time></trkpt><trkpt lat="41.220521395947266" lon="9.200023497013321"><ele>74.0</ele><time>2026-05-03T11:42:40Z</time></trkpt><trkpt lat="41.22054896930991" lon="9.2002375850518"><ele>75.0</ele><time>2026-05-03T11:42:41Z</time></trkpt><trkpt lat="41.22062376119936" lon="9.200407310364938"><ele>74.0</ele><time>2026-05-03T11:42:42Z</time></trkpt><trkpt lat="41.22075240257172" lon="9.20054854800975"><ele>73.0</ele><time>2026-05-03T11:42:43Z</time></trkpt><trkpt lat="41.22091095177755" lon="9.200681334526646"><ele>72.0</ele><time>2026-05-03T11:42:44Z</time></trkpt><trkpt lat="41.221067633002136" lon="9.20083099765796"><ele>72.0</ele><time>2026-05-03T11:42:45Z</time></trkpt><trkpt lat="41.221219233608245" lon="9.20099420441529"><ele>72.0</ele><time>2026-05-03T11:42:46Z</time></trkpt><trkpt lat="41.22135692010895" lon="9.201161320420109"><ele>72.0</ele><time>2026-05-03T11:42:47Z</time></trkpt><trkpt lat="41.221455076254834" lon="9.201342619398845"><ele>72.0</ele><time>2026-05-03T11:42:48Z</time></trkpt><trkpt lat="41.221513930310095" lon="9.201540032528202"><ele>72.0</ele><time>2026-05-03T11:42:49Z</time></trkpt><trkpt lat="41.22151783439141" lon="9.201735310586683"><ele>72.0</ele><time>2026-05-03T11:42:50Z</time></trkpt><trkpt lat="41.221452488967934" lon="9.201911783468343"><ele>73.66666666666667</ele><time>2026-05-03T11:42:51Z</time></trkpt><trkpt lat="41.22137125240755" lon="9.202099017531271"><ele>75.33333333333334</ele><time>2026-05-03T11:42:52Z</time></trkpt><trkpt lat="41.22127426425694" lon="9.202284167198162"><ele>77.0</ele><time>2026-05-03T11:42:53Z</time></trkpt><trkpt lat="41.221225139351546" lon="9.20250859801861"><ele>78.0</ele><time>2026-05-03T11:42:54Z</time></trkpt><trkpt lat="41.221223272503174" lon="9.202751628731141"><ele>79.0</ele><time>2026-05-03T11:42:55Z</time></trkpt><trkpt lat="41.22124466919851" lon="9.203008699377957"><ele>80.0</ele><time>2026-05-03T11:42:56Z</time></trkpt><trkpt lat="41.221274693905464" lon="9.203261335416927"><ele>80.66666666666667</ele><time>2026-05-03T11:42:57Z</time></trkpt><trkpt lat="41.22128982571739" lon="9.203529873510734"><ele>81.33333333333333</ele><time>2026-05-03T11:42:58Z</time></trkpt><trkpt lat="41.221307525417856" lon="9.203789089129442"><ele>82.0</ele><time>2026-05-03T11:42:59Z</time></trkpt><trkpt lat="41.22135306858008" lon="9.204037646037666"><ele>82.33333333333333</ele><time>2026-05-03T11:43:00Z</time></trkpt><trkpt lat="41.22144017348921" lon="9.204281466175127"><ele>82.66666666666667</ele><time>2026-05-03T11:43:01Z</time></trkpt><trkpt lat="41.2215627127663" lon="9.204514688619275"><ele>83.0</ele><time>2026-05-03T11:43:02Z</time></trkpt><trkpt lat="41.221695790167075" lon="9.204759804566116"><ele>82.5</ele><time>2026-05-03T11:43:03Z</time></trkpt><trkpt lat="41.22183115395433" lon="9.205006683352327"><ele>82.0</ele><time>2026-05-03T11:43:04Z</time></trkpt><trkpt lat="41.22197057072228" lon="9.205261215112056"><ele>82.0</ele><time>2026-05-03T11:43:05Z</time></trkpt><trkpt lat="41.222101871179966" lon="9.205508837493891"><ele>82.0</ele><time>2026-05-03T11:43:06Z</time></trkpt><trkpt lat="41.22222142919387" lon="9.205735237411222"><ele>82.0</ele><time>2026-05-03T11:43:07Z</time></trkpt><trkpt lat="41.22233765956417" lon="9.2059452012996"><ele>81.66666666666666</ele><time>2026-05-03T11:43:08Z</time></trkpt><trkpt lat="41.22246487441181" lon="9.20613379072724"><ele>81.33333333333333</ele><time>2026-05-03T11:43:09Z</time></trkpt><trkpt lat="41.22262767861611" lon="9.20628594640439"><ele>81.0</ele><time>2026-05-03T11:43:10Z</time></trkpt><trkpt lat="41.22282196336086" lon="9.206392286038145"><ele>81.0</ele><time>2026-05-03T11:43:11Z</time></trkpt><trkpt lat="41.22303343505697" lon="9.206486242456675"><ele>81.0</ele><time>2026-05-03T11:43:12Z</time></trkpt><trkpt lat="41.2232525465202" lon="9.206589155673518"><ele>81.5</ele><time>2026-05-03T11:43:13Z</time></trkpt><trkpt lat="41.22347731752847" lon="9.206697649397658"><ele>82.0</ele><time>2026-05-03T11:43:14Z</time></trkpt><trkpt lat="41.22370710593206" lon="9.206806695859958"><ele>82.0</ele><time>2026-05-03T11:43:15Z</time></trkpt><trkpt lat="41.223937632637444" lon="9.206917534017508"><ele>82.0</ele><time>2026-05-03T11:43:16Z</time></trkpt><trkpt lat="41.22416535380346" lon="9.207025440857485"><ele>81.5</ele><time>2026-05-03T11:43:17Z</time></trkpt><trkpt lat="41.22438726774328" lon="9.20712935612437"><ele>81.0</ele><time>2026-05-03T11:43:18Z</time></trkpt><trkpt lat="41.224594957375444" lon="9.20722938121309"><ele>81.33333333333333</ele><time>2026-05-03T11:43:19Z</time></trkpt><trkpt lat="41.224795145714644" lon="9.207345021733705"><ele>81.66666666666666</ele><time>2026-05-03T11:43:20Z</time></trkpt><trkpt lat="41.224985960124805" lon="9.20751248333442"><ele>82.0</ele><time>2026-05-03T11:43:21Z</time></trkpt><trkpt lat="41.225158840669835" lon="9.207714460334547"><ele>82.0</ele><time>2026-05-03T11:43:22Z</time></trkpt><trkpt lat="41.22532603833808" lon="9.207924493575598"><ele>82.0</ele><time>2026-05-03T11:43:23Z</time></trkpt><trkpt lat="41.225490372645986" lon="9.208135446997332"><ele>83.66666666666666</ele><time>2026-05-03T11:43:24Z</time></trkpt><trkpt lat="41.225648976699304" lon="9.208337469083016"><ele>85.33333333333333</ele><time>2026-05-03T11:43:25Z</time></trkpt><trkpt lat="41.22578870732555" lon="9.208527634031956"><ele>87.0</ele><time>2026-05-03T11:43:26Z</time></trkpt><trkpt lat="41.22591147153995" lon="9.208743921147423"><ele>87.0</ele><time>2026-05-03T11:43:27Z</time></trkpt><trkpt lat="41.22601577640124" lon="9.208985504264882"><ele>87.0</ele><time>2026-05-03T11:43:28Z</time></trkpt><trkpt lat="41.22611290728867" lon="9.209244826814931"><ele>87.0</ele><time>2026-05-03T11:43:29Z</time></trkpt><trkpt lat="41.226207064280864" lon="9.209508988317237"><ele>87.0</ele><time>2026-05-03T11:43:30Z</time></trkpt><trkpt lat="41.22629862567132" lon="9.20978014052507"><ele>87.0</ele><time>2026-05-03T11:43:31Z</time></trkpt><trkpt lat="41.22639207497301" lon="9.210054019581102"><ele>87.0</ele><time>2026-05-03T11:43:32Z</time></trkpt><trkpt lat="41.22648723467522" lon="9.210325568668122"><ele>87.0</ele><time>2026-05-03T11:43:33Z</time></trkpt><trkpt lat="41.22657738872695" lon="9.21057283678854"><ele>87.0</ele><time>2026-05-03T11:43:34Z</time></trkpt><trkpt lat="41.22666201878017" lon="9.210806577160696"><ele>87.0</ele><time>2026-05-03T11:43:35Z</time></trkpt><trkpt lat="41.226736520356816" lon="9.21101108292716"><ele>87.0</ele><time>2026-05-03T11:43:36Z</time></trkpt><trkpt lat="41.226800538982275" lon="9.211187683800496"><ele>87.0</ele><time>2026-05-03T11:43:37Z</time></trkpt><trkpt lat="41.226854996284935" lon="9.211331535391379"><ele>87.0</ele><time>2026-05-03T11:43:38Z</time></trkpt><trkpt lat="41.22689897099352" lon="9.211425065488758"><ele>87.0</ele><time>2026-05-03T11:43:39Z</time></trkpt><trkpt lat="41.226955705529804" lon="9.211478713987557"><ele>87.0</ele><time>2026-05-03T11:43:40Z</time></trkpt><trkpt lat="41.22702165166784" lon="9.21149054564713"><ele>87.0</ele><time>2026-05-03T11:43:41Z</time></trkpt><trkpt lat="41.227088452620194" lon="9.211457683560996"><ele>87.0</ele><time>2026-05-03T11:43:42Z</time></trkpt><trkpt lat="41.22717430341083" lon="9.211412374355678"><ele>87.0</ele><time>2026-05-03T11:43:43Z</time></trkpt><trkpt lat="41.22728664463824" lon="9.211384833867719"><ele>87.0</ele><time>2026-05-03T11:43:44Z</time></trkpt><trkpt lat="41.2274208674974" lon="9.211374768961905"><ele>86.66666666666667</ele><time>2026-05-03T11:43:45Z</time></trkpt><trkpt lat="41.22757194644502" lon="9.211352914972734"><ele>86.33333333333334</ele><time>2026-05-03T11:43:46Z</time></trkpt><trkpt lat="41.22773026338875" lon="9.211326637533483"><ele>86.0</ele><time>2026-05-03T11:43:47Z</time></trkpt><trkpt lat="41.2278890352309" lon="9.211305671579247"><ele>86.0</ele><time>2026-05-03T11:43:48Z</time></trkpt><trkpt lat="41.22803899191098" lon="9.211299311565469"><ele>86.0</ele><time>2026-05-03T11:43:49Z</time></trkpt><trkpt lat="41.2281706263187" lon="9.211318241675993"><ele>86.0</ele><time>2026-05-03T11:43:50Z</time></trkpt><trkpt lat="41.228280283552834" lon="9.21138211228055"><ele>86.0</ele><time>2026-05-03T11:43:51Z</time></trkpt><trkpt lat="41.228384233234074" lon="9.211489153072888"><ele>87.0</ele><time>2026-05-03T11:43:52Z</time></trkpt><trkpt lat="41.2284967437081" lon="9.21162252711557"><ele>88.0</ele><time>2026-05-03T11:43:53Z</time></trkpt><trkpt lat="41.2286209190043" lon="9.211762920204976"><ele>89.0</ele><time>2026-05-03T11:43:54Z</time></trkpt><trkpt lat="41.22875160519287" lon="9.211903345565144"><ele>89.0</ele><time>2026-05-03T11:43:55Z</time></trkpt><trkpt lat="41.228888160341526" lon="9.212041839857667"><ele>89.0</ele><time>2026-05-03T11:43:56Z</time></trkpt><trkpt lat="41.229030155919084" lon="9.212170285428808"><ele>89.0</ele><time>2026-05-03T11:43:57Z</time></trkpt><trkpt lat="41.229177606274135" lon="9.212279880937196"><ele>87.33333333333334</ele><time>2026-05-03T11:43:58Z</time></trkpt><trkpt lat="41.22932928897075" lon="9.212371737642963"><ele>85.66666666666667</ele><time>2026-05-03T11:43:59Z</time></trkpt><trkpt lat="41.22947892724657" lon="9.212461538524094"><ele>84.0</ele><time>2026-05-03T11:44:00Z</time></trkpt><trkpt lat="41.22962285456993" lon="9.212555401192796"><ele>84.0</ele><time>2026-05-03T11:44:01Z</time></trkpt><trkpt lat="41.22977311548729" lon="9.212655735640421"><ele>84.0</ele><time>2026-05-03T11:44:02Z</time></trkpt><trkpt lat="41.229925868458395" lon="9.212754983689573"><ele>84.0</ele><time>2026-05-03T11:44:03Z</time></trkpt><trkpt lat="41.23007510594304" lon="9.212848985436821"><ele>85.0</ele><time>2026-05-03T11:44:04Z</time></trkpt><trkpt lat="41.230219447616875" lon="9.212942769270526"><ele>86.0</ele><time>2026-05-03T11:44:05Z</time></trkpt><trkpt lat="41.23035887534367" lon="9.213035678970938"><ele>87.0</ele><time>2026-05-03T11:44:06Z</time></trkpt><trkpt lat="41.230498403677565" lon="9.213126062335636"><ele>86.5</ele><time>2026-05-03T11:44:07Z</time></trkpt><trkpt lat="41.23064220662081" lon="9.213191927817219"><ele>86.0</ele><time>2026-05-03T11:44:08Z</time></trkpt><trkpt lat="41.23078215237868" lon="9.21320008401485"><ele>85.5</ele><time>2026-05-03T11:44:09Z</time></trkpt><trkpt lat="41.230909426928335" lon="9.213157892011052"><ele>85.0</ele><time>2026-05-03T11:44:10Z</time></trkpt><trkpt lat="41.231020504851436" lon="9.213079684408246"><ele>86.0</ele><time>2026-05-03T11:44:11Z</time></trkpt><trkpt lat="41.23111365795158" lon="9.212981125000715"><ele>87.0</ele><time>2026-05-03T11:44:12Z</time></trkpt><trkpt lat="41.231206217504464" lon="9.212879397473166"><ele>88.0</ele><time>2026-05-03T11:44:13Z</time></trkpt><trkpt lat="41.23131076903306" lon="9.212806168800187"><ele>89.0</ele><time>2026-05-03T11:44:14Z</time></trkpt><trkpt lat="41.231428391434505" lon="9.212767104320433"><ele>89.75</ele><time>2026-05-03T11:44:15Z</time></trkpt><trkpt lat="41.23155377161667" lon="9.212758942471645"><ele>90.5</ele><time>2026-05-03T11:44:16Z</time></trkpt><trkpt lat="41.231673991907016" lon="9.212749477839278"><ele>91.25</ele><time>2026-05-03T11:44:17Z</time></trkpt><trkpt lat="41.231787484451786" lon="9.21271316248516"><ele>92.0</ele><time>2026-05-03T11:44:18Z</time></trkpt><trkpt lat="41.231906840724164" lon="9.21268634324187"><ele>92.0</ele><time>2026-05-03T11:44:19Z</time></trkpt><trkpt lat="41.2320261344836" lon="9.212708444560864"><ele>92.0</ele><time>2026-05-03T11:44:20Z</time></trkpt><trkpt lat="41.232141080056074" lon="9.212792128843537"><ele>92.0</ele><time>2026-05-03T11:44:21Z</time></trkpt><trkpt lat="41.232257008183204" lon="9.2128984992222"><ele>92.0</ele><time>2026-05-03T11:44:22Z</time></trkpt><trkpt lat="41.232383619747374" lon="9.213004748277127"><ele>91.0</ele><time>2026-05-03T11:44:23Z</time></trkpt><trkpt lat="41.23250952721332" lon="9.213111785560297"><ele>90.0</ele><time>2026-05-03T11:44:24Z</time></trkpt><trkpt lat="41.23263037270071" lon="9.213208422073754"><ele>89.0</ele><time>2026-05-03T11:44:25Z</time></trkpt><trkpt lat="41.232743951137074" lon="9.213300260979322"><ele>88.0</ele><time>2026-05-03T11:44:26Z</time></trkpt><trkpt lat="41.232854392115506" lon="9.21341116113121"><ele>87.0</ele><time>2026-05-03T11:44:27Z</time></trkpt><trkpt lat="41.232958552174324" lon="9.213544435655175"><ele>86.0</ele><time>2026-05-03T11:44:28Z</time></trkpt><trkpt lat="41.2330668635458" lon="9.213690541967269"><ele>85.0</ele><time>2026-05-03T11:44:29Z</time></trkpt><trkpt lat="41.23317936457931" lon="9.213838809313897"><ele>84.0</ele><time>2026-05-03T11:44:30Z</time></trkpt><trkpt lat="41.23329568797622" lon="9.213991976262896"><ele>83.0</ele><time>2026-05-03T11:44:31Z</time></trkpt><trkpt lat="41.23341207016269" lon="9.214159996564806"><ele>82.0</ele><time>2026-05-03T11:44:32Z</time></trkpt><trkpt lat="41.2335267649625" lon="9.214336472128878"><ele>82.0</ele><time>2026-05-03T11:44:33Z</time></trkpt><trkpt lat="41.233642802739844" lon="9.214518691380638"><ele>82.0</ele><time>2026-05-03T11:44:34Z</time></trkpt><trkpt lat="41.23376185239815" lon="9.214702437881403"><ele>82.0</ele><time>2026-05-03T11:44:35Z</time></trkpt><trkpt lat="41.23387933136715" lon="9.214888969662125"><ele>82.0</ele><time>2026-05-03T11:44:36Z</time></trkpt><trkpt lat="41.233995573653345" lon="9.215077485420212"><ele>82.0</ele><time>2026-05-03T11:44:37Z</time></trkpt><trkpt lat="41.23411123803241" lon="9.215269066280634"><ele>82.0</ele><time>2026-05-03T11:44:38Z</time></trkpt><trkpt lat="41.23422168530644" lon="9.215465486631812"><ele>80.66666666666666</ele><time>2026-05-03T11:44:39Z</time></trkpt><trkpt lat="41.2343298386128" lon="9.21566544889146"><ele>79.33333333333333</ele><time>2026-05-03T11:44:40Z</time></trkpt><trkpt lat="41.2344350767175" lon="9.215867076461814"><ele>78.0</ele><time>2026-05-03T11:44:41Z</time></trkpt><trkpt lat="41.2345402408841" lon="9.216066938237521"><ele>78.0</ele><time>2026-05-03T11:44:42Z</time></trkpt><trkpt lat="41.23464926877389" lon="9.216264109256313"><ele>78.0</ele><time>2026-05-03T11:44:43Z</time></trkpt><trkpt lat="41.23475451665521" lon="9.216456305014031"><ele>78.0</ele><time>2026-05-03T11:44:44Z</time></trkpt><trkpt lat="41.23484259978234" lon="9.216632782375928"><ele>77.75</ele><time>2026-05-03T11:44:45Z</time></trkpt><trkpt lat="41.23492782130754" lon="9.216763187997731"><ele>77.5</ele><time>2026-05-03T11:44:46Z</time></trkpt><trkpt lat="41.23503385988643" lon="9.216867366487456"><ele>77.25</ele><time>2026-05-03T11:44:47Z</time></trkpt><trkpt lat="41.235164355641075" lon="9.216958570689325"><ele>77.0</ele><time>2026-05-03T11:44:48Z</time></trkpt><trkpt lat="41.235304026442364" lon="9.217056635136634"><ele>77.0</ele><time>2026-05-03T11:44:49Z</time></trkpt><trkpt lat="41.2354461836997" lon="9.217164058886297"><ele>77.0</ele><time>2026-05-03T11:44:50Z</time></trkpt><trkpt lat="41.23558638125445" lon="9.21727029255218"><ele>77.0</ele><time>2026-05-03T11:44:51Z</time></trkpt><trkpt lat="41.23572342991478" lon="9.217380589490036"><ele>76.25</ele><time>2026-05-03T11:44:52Z</time></trkpt><trkpt lat="41.235852279864105" lon="9.217484096852024"><ele>75.5</ele><time>2026-05-03T11:44:53Z</time></trkpt><trkpt lat="41.23597321863192" lon="9.217578929235968"><ele>74.75</ele><time>2026-05-03T11:44:54Z</time></trkpt><trkpt lat="41.236099950732445" lon="9.217670939198634"><ele>74.0</ele><time>2026-05-03T11:44:55Z</time></trkpt><trkpt lat="41.236228380437815" lon="9.217762706463382"><ele>74.0</ele><time>2026-05-03T11:44:56Z</time></trkpt><trkpt lat="41.236360045973996" lon="9.217850929803216"><ele>74.0</ele><time>2026-05-03T11:44:57Z</time></trkpt><trkpt lat="41.23649486162969" lon="9.217935840525827"><ele>74.0</ele><time>2026-05-03T11:44:58Z</time></trkpt><trkpt lat="41.23663325095596" lon="9.218022510662852"><ele>74.25</ele><time>2026-05-03T11:44:59Z</time></trkpt><trkpt lat="41.23677349546533" lon="9.218109173237059"><ele>74.5</ele><time>2026-05-03T11:45:00Z</time></trkpt><trkpt lat="41.23690921284212" lon="9.218188721850654"><ele>74.75</ele><time>2026-05-03T11:45:01Z</time></trkpt><trkpt lat="41.237032917181125" lon="9.21825693733311"><ele>75.0</ele><time>2026-05-03T11:45:02Z</time></trkpt><trkpt lat="41.237133001413966" lon="9.218311632676162"><ele>74.5</ele><time>2026-05-03T11:45:03Z</time></trkpt><trkpt lat="41.237213503679165" lon="9.218356958981412"><ele>74.0</ele><time>2026-05-03T11:45:04Z</time></trkpt><trkpt lat="41.23728585663821" lon="9.218401638524417"><ele>73.5</ele><time>2026-05-03T11:45:05Z</time></trkpt><trkpt lat="41.23734396916431" lon="9.218441415991522"><ele>73.0</ele><time>2026-05-03T11:45:06Z</time></trkpt><trkpt lat="41.237402012548785" lon="9.218503882358183"><ele>72.5</ele><time>2026-05-03T11:45:07Z</time></trkpt><trkpt lat="41.23744352291144" lon="9.218615677377331"><ele>72.0</ele><time>2026-05-03T11:45:08Z</time></trkpt><trkpt lat="41.237472712543465" lon="9.218760758025942"><ele>71.5</ele><time>2026-05-03T11:45:09Z</time></trkpt><trkpt lat="41.237499856667526" lon="9.218925989595286"><ele>71.0</ele><time>2026-05-03T11:45:10Z</time></trkpt><trkpt lat="41.237526410375956" lon="9.219105280556994"><ele>70.5</ele><time>2026-05-03T11:45:11Z</time></trkpt><trkpt lat="41.23755145899961" lon="9.219296249099294"><ele>70.0</ele><time>2026-05-03T11:45:12Z</time></trkpt><trkpt lat="41.237580778824075" lon="9.219495256341833"><ele>69.33333333333333</ele><time>2026-05-03T11:45:13Z</time></trkpt><trkpt lat="41.23761315920444" lon="9.219696927576905"><ele>68.66666666666667</ele><time>2026-05-03T11:45:14Z</time></trkpt><trkpt lat="41.23763423477439" lon="9.219899982566677"><ele>68.0</ele><time>2026-05-03T11:45:15Z</time></trkpt><trkpt lat="41.23764556448874" lon="9.2201057098404"><ele>67.33333333333334</ele><time>2026-05-03T11:45:16Z</time></trkpt><trkpt lat="41.23765414356959" lon="9.220311502766103"><ele>66.66666666666667</ele><time>2026-05-03T11:45:17Z</time></trkpt><trkpt lat="41.23765958163601" lon="9.220519619592155"><ele>66.0</ele><time>2026-05-03T11:45:18Z</time></trkpt><trkpt lat="41.23767042855829" lon="9.22072673352391"><ele>65.75</ele><time>2026-05-03T11:45:19Z</time></trkpt><trkpt lat="41.23769186720951" lon="9.220918393531308"><ele>65.5</ele><time>2026-05-03T11:45:20Z</time></trkpt><trkpt lat="41.23772473184674" lon="9.221083548233098"><ele>65.25</ele><time>2026-05-03T11:45:21Z</time></trkpt><trkpt lat="41.23778038001001" lon="9.221193063992425"><ele>65.0</ele><time>2026-05-03T11:45:22Z</time></trkpt><trkpt lat="41.23786092538093" lon="9.221264389165126"><ele>65.0</ele><time>2026-05-03T11:45:23Z</time></trkpt><trkpt lat="41.237979178330654" lon="9.221280961282012"><ele>65.0</ele><time>2026-05-03T11:45:24Z</time></trkpt><trkpt lat="41.238107976797906" lon="9.221277266048864"><ele>65.0</ele><time>2026-05-03T11:45:25Z</time></trkpt><trkpt lat="41.238237638628966" lon="9.221275312804313"><ele>65.0</ele><time>2026-05-03T11:45:26Z</time></trkpt><trkpt lat="41.2383694354489" lon="9.221270827764922"><ele>65.2</ele><time>2026-05-03T11:45:27Z</time></trkpt><trkpt lat="41.23848747845893" lon="9.221293320176427"><ele>65.4</ele><time>2026-05-03T11:45:28Z</time></trkpt><trkpt lat="41.23859017452973" lon="9.221344510939094"><ele>65.6</ele><time>2026-05-03T11:45:29Z</time></trkpt><trkpt lat="41.23866985938774" lon="9.221423356857523"><ele>65.8</ele><time>2026-05-03T11:45:30Z</time></trkpt><trkpt lat="41.23872217171979" lon="9.221527207303534"><ele>66.0</ele><time>2026-05-03T11:45:31Z</time></trkpt><trkpt lat="41.238734434144355" lon="9.221655109768232"><ele>65.25</ele><time>2026-05-03T11:45:32Z</time></trkpt><trkpt lat="41.238736642287805" lon="9.221788198290607"><ele>64.5</ele><time>2026-05-03T11:45:33Z</time></trkpt><trkpt lat="41.238712245475476" lon="9.221929279721921"><ele>63.75</ele><time>2026-05-03T11:45:34Z</time></trkpt><trkpt lat="41.23868752473449" lon="9.22208232427477"><ele>63.0</ele><time>2026-05-03T11:45:35Z</time></trkpt><trkpt lat="41.23868922199243" lon="9.222245681939798"><ele>63.0</ele><time>2026-05-03T11:45:36Z</time></trkpt><trkpt lat="41.23870795243202" lon="9.222383205095408"><ele>63.0</ele><time>2026-05-03T11:45:37Z</time></trkpt><trkpt lat="41.23876212679198" lon="9.222510377926438"><ele>63.0</ele><time>2026-05-03T11:45:38Z</time></trkpt><trkpt lat="41.23883610854083" lon="9.22264104487995"><ele>63.0</ele><time>2026-05-03T11:45:39Z</time></trkpt><trkpt lat="41.23891408281417" lon="9.222780490344698"><ele>63.25</ele><time>2026-05-03T11:45:40Z</time></trkpt><trkpt lat="41.23899712244051" lon="9.222927748343484"><ele>63.5</ele><time>2026-05-03T11:45:41Z</time></trkpt><trkpt lat="41.23908578248679" lon="9.22307822851439"><ele>63.75</ele><time>2026-05-03T11:45:42Z</time></trkpt><trkpt lat="41.23916880045317" lon="9.2232193879854"><ele>64.0</ele><time>2026-05-03T11:45:43Z</time></trkpt><trkpt lat="41.23924108446841" lon="9.223352542497034"><ele>63.400000000000006</ele><time>2026-05-03T11:45:44Z</time></trkpt><trkpt lat="41.239305791467466" lon="9.223469461841734"><ele>62.800000000000004</ele><time>2026-05-03T11:45:45Z</time></trkpt><trkpt lat="41.23936698576027" lon="9.223581091064284"><ele>62.199999999999996</ele><time>2026-05-03T11:45:46Z</time></trkpt><trkpt lat="41.239421099618724" lon="9.223692951789365"><ele>61.599999999999994</ele><time>2026-05-03T11:45:47Z</time></trkpt><trkpt lat="41.23946985853301" lon="9.2238255956173"><ele>61.0</ele><time>2026-05-03T11:45:48Z</time></trkpt><trkpt lat="41.23950162732038" lon="9.223951473961142"><ele>60.199999999999996</ele><time>2026-05-03T11:45:49Z</time></trkpt><trkpt lat="41.23953069519804" lon="9.224073036588461"><ele>59.39999999999999</ele><time>2026-05-03T11:45:50Z</time></trkpt><trkpt lat="41.239572293497226" lon="9.224182550870953"><ele>58.6</ele><time>2026-05-03T11:45:51Z</time></trkpt><trkpt lat="41.239627705116185" lon="9.22428578084327"><ele>57.8</ele><time>2026-05-03T11:45:52Z</time></trkpt><trkpt lat="41.23970752971182" lon="9.224385916391663"><ele>57.0</ele><time>2026-05-03T11:45:53Z</time></trkpt><trkpt lat="41.2397899410262" lon="9.224494982153356"><ele>56.25</ele><time>2026-05-03T11:45:54Z</time></trkpt><trkpt lat="41.23987119138256" lon="9.22461513045381"><ele>55.5</ele><time>2026-05-03T11:45:55Z</time></trkpt><trkpt lat="41.23994726508304" lon="9.224743329804774"><ele>54.75</ele><time>2026-05-03T11:45:56Z</time></trkpt><trkpt lat="41.240017904721896" lon="9.224880663422"><ele>54.0</ele><time>2026-05-03T11:45:57Z</time></trkpt><trkpt lat="41.24008721167422" lon="9.22502062514403"><ele>52.75</ele><time>2026-05-03T11:45:58Z</time></trkpt><trkpt lat="41.24015699927367" lon="9.225169283050072"><ele>51.5</ele><time>2026-05-03T11:45:59Z</time></trkpt><trkpt lat="41.24022057551835" lon="9.22532006466848"><ele>50.25</ele><time>2026-05-03T11:46:00Z</time></trkpt><trkpt lat="41.24027965696542" lon="9.225475149605911"><ele>49.0</ele><time>2026-05-03T11:46:01Z</time></trkpt><trkpt lat="41.24033753343888" lon="9.225626909770488"><ele>48.75</ele><time>2026-05-03T11:46:02Z</time></trkpt><trkpt lat="41.24039452494423" lon="9.225780026997104"><ele>48.5</ele><time>2026-05-03T11:46:03Z</time></trkpt><trkpt lat="41.24045388488519" lon="9.225932939993637"><ele>48.25</ele><time>2026-05-03T11:46:04Z</time></trkpt><trkpt lat="41.240514574041775" lon="9.226078040006044"><ele>48.0</ele><time>2026-05-03T11:46:05Z</time></trkpt><trkpt lat="41.24058297632867" lon="9.226207703951802"><ele>48.25</ele><time>2026-05-03T11:46:06Z</time></trkpt><trkpt lat="41.24066337176639" lon="9.226339217459003"><ele>48.5</ele><time>2026-05-03T11:46:07Z</time></trkpt><trkpt lat="41.2407605642543" lon="9.22646278570449"><ele>48.75</ele><time>2026-05-03T11:46:08Z</time></trkpt><trkpt lat="41.24087266309839" lon="9.226571370195643"><ele>49.0</ele><time>2026-05-03T11:46:09Z</time></trkpt><trkpt lat="41.24099029408254" lon="9.22667276320806"><ele>48.25</ele><time>2026-05-03T11:46:10Z</time></trkpt><trkpt lat="41.24110669397601" lon="9.226759580960952"><ele>47.5</ele><time>2026-05-03T11:46:11Z</time></trkpt><trkpt lat="41.24120391380091" lon="9.226850494154416"><ele>46.75</ele><time>2026-05-03T11:46:12Z</time></trkpt><trkpt lat="41.24129916288232" lon="9.226966461556481"><ele>46.0</ele><time>2026-05-03T11:46:13Z</time></trkpt><trkpt lat="41.24139558365472" lon="9.227100342869452"><ele>45.66666666666667</ele><time>2026-05-03T11:46:14Z</time></trkpt><trkpt lat="41.24148925675385" lon="9.227255370316612"><ele>45.333333333333336</ele><time>2026-05-03T11:46:15Z</time></trkpt><trkpt lat="41.241576867066804" lon="9.227437072867001"><ele>45.0</ele><time>2026-05-03T11:46:16Z</time></trkpt><trkpt lat="41.24166911872029" lon="9.227637835882382"><ele>45.0</ele><time>2026-05-03T11:46:17Z</time></trkpt><trkpt lat="41.241764225403976" lon="9.227842937818592"><ele>45.0</ele><time>2026-05-03T11:46:18Z</time></trkpt><trkpt lat="41.24185360354508" lon="9.228044232646257"><ele>45.0</ele><time>2026-05-03T11:46:19Z</time></trkpt><trkpt lat="41.24193146787399" lon="9.228219553655782"><ele>44.0</ele><time>2026-05-03T11:46:20Z</time></trkpt><trkpt lat="41.242002800653864" lon="9.228390489909806"><ele>43.0</ele><time>2026-05-03T11:46:21Z</time></trkpt><trkpt lat="41.242068966201956" lon="9.228560199891652"><ele>42.0</ele><time>2026-05-03T11:46:22Z</time></trkpt><trkpt lat="41.24213199153833" lon="9.228746938348454"><ele>41.0</ele><time>2026-05-03T11:46:23Z</time></trkpt><trkpt lat="41.242195371296845" lon="9.22893774916331"><ele>41.75</ele><time>2026-05-03T11:46:24Z</time></trkpt><trkpt lat="41.24225492049818" lon="9.22911173694948"><ele>42.5</ele><time>2026-05-03T11:46:25Z</time></trkpt><trkpt lat="41.24230987480543" lon="9.229269044810586"><ele>43.25</ele><time>2026-05-03T11:46:26Z</time></trkpt><trkpt lat="41.24235882341594" lon="9.22939962110142"><ele>44.0</ele><time>2026-05-03T11:46:27Z</time></trkpt><trkpt lat="41.242401522783005" lon="9.229506529321029"><ele>44.0</ele><time>2026-05-03T11:46:28Z</time></trkpt><trkpt lat="41.24240852355295" lon="9.229607307534271"><ele>44.0</ele><time>2026-05-03T11:46:29Z</time></trkpt><trkpt lat="41.24242546301352" lon="9.229699709104795"><ele>44.0</ele><time>2026-05-03T11:46:30Z</time></trkpt><trkpt lat="41.242455439429264" lon="9.229796009689597"><ele>44.0</ele><time>2026-05-03T11:46:31Z</time></trkpt><trkpt lat="41.242468978646116" lon="9.229912089270202"><ele>44.0</ele><time>2026-05-03T11:46:32Z</time></trkpt><trkpt lat="41.24248463949388" lon="9.230032296075377"><ele>44.0</ele><time>2026-05-03T11:46:33Z</time></trkpt><trkpt lat="41.2424963285986" lon="9.23014296878599"><ele>43.666666666666664</ele><time>2026-05-03T11:46:34Z</time></trkpt><trkpt lat="41.242497633553185" lon="9.23024653863847"><ele>43.33333333333333</ele><time>2026-05-03T11:46:35Z</time></trkpt><trkpt lat="41.242486344912294" lon="9.23034602641913"><ele>43.0</ele><time>2026-05-03T11:46:36Z</time></trkpt><trkpt lat="41.24244682675404" lon="9.230430940477834"><ele>42.666666666666664</ele><time>2026-05-03T11:46:37Z</time></trkpt><trkpt lat="41.242417275114775" lon="9.230529091540006"><ele>42.333333333333336</ele><time>2026-05-03T11:46:38Z</time></trkpt><trkpt lat="41.2423931808758" lon="9.23064590488806"><ele>42.0</ele><time>2026-05-03T11:46:39Z</time></trkpt><trkpt lat="41.24235092246963" lon="9.230758295430407"><ele>40.4</ele><time>2026-05-03T11:46:40Z</time></trkpt><trkpt lat="41.242305450159876" lon="9.230870421777748"><ele>38.800000000000004</ele><time>2026-05-03T11:46:41Z</time></trkpt><trkpt lat="41.24228823684813" lon="9.230986714382565"><ele>37.2</ele><time>2026-05-03T11:46:42Z</time></trkpt><trkpt lat="41.2422927030144" lon="9.231102948604132"><ele>35.6</ele><time>2026-05-03T11:46:43Z</time></trkpt><trkpt lat="41.242310517437375" lon="9.231222191493945"><ele>34.0</ele><time>2026-05-03T11:46:44Z</time></trkpt><trkpt lat="41.242339477624114" lon="9.231343251281205"><ele>34.0</ele><time>2026-05-03T11:46:45Z</time></trkpt><trkpt lat="41.24237196647561" lon="9.231465666921222"><ele>34.0</ele><time>2026-05-03T11:46:46Z</time></trkpt><trkpt lat="41.2423964851739" lon="9.23159009202593"><ele>34.0</ele><time>2026-05-03T11:46:47Z</time></trkpt><trkpt lat="41.24243229887254" lon="9.231721624509559"><ele>34.0</ele><time>2026-05-03T11:46:48Z</time></trkpt><trkpt lat="41.24246744404988" lon="9.231863610480948"><ele>34.0</ele><time>2026-05-03T11:46:49Z</time></trkpt><trkpt lat="41.242499419394406" lon="9.2320113083359"><ele>31.5</ele><time>2026-05-03T11:46:50Z</time></trkpt><trkpt lat="41.242536755431765" lon="9.23216924182424"><ele>29.0</ele><time>2026-05-03T11:46:51Z</time></trkpt><trkpt lat="41.242573799375236" lon="9.232334220329246"><ele>26.5</ele><time>2026-05-03T11:46:52Z</time></trkpt><trkpt lat="41.24261059326162" lon="9.232496795172707"><ele>24.0</ele><time>2026-05-03T11:46:53Z</time></trkpt><trkpt lat="41.24264690320713" lon="9.232657410797977"><ele>22.0</ele><time>2026-05-03T11:46:54Z</time></trkpt><trkpt lat="41.24268146253311" lon="9.2328159905963"><ele>20.0</ele><time>2026-05-03T11:46:55Z</time></trkpt><trkpt lat="41.242714071802205" lon="9.232970640648647"><ele>18.0</ele><time>2026-05-03T11:46:56Z</time></trkpt><trkpt lat="41.242748273907104" lon="9.23311830940201"><ele>16.0</ele><time>2026-05-03T11:46:57Z</time></trkpt><trkpt lat="41.24278048782599" lon="9.23324677637256"><ele>14.8</ele><time>2026-05-03T11:46:58Z</time></trkpt><trkpt lat="41.242817649396116" lon="9.23335394490669"><ele>13.600000000000001</ele><time>2026-05-03T11:46:59Z</time></trkpt><trkpt lat="41.242866518353516" lon="9.233442150596042"><ele>12.4</ele><time>2026-05-03T11:47:00Z</time></trkpt><trkpt lat="41.24292866153323" lon="9.233513168716923"><ele>11.2</ele><time>2026-05-03T11:47:01Z</time></trkpt><trkpt lat="41.24301051950027" lon="9.23358128361731"><ele>10.0</ele><time>2026-05-03T11:47:02Z</time></trkpt><trkpt lat="41.24311079254511" lon="9.233661578989851"><ele>9.75</ele><time>2026-05-03T11:47:03Z</time></trkpt><trkpt lat="41.24321523917167" lon="9.233754058431096"><ele>9.5</ele><time>2026-05-03T11:47:04Z</time></trkpt><trkpt lat="41.24332875674828" lon="9.233853591378997"><ele>9.25</ele><time>2026-05-03T11:47:05Z</time></trkpt><trkpt lat="41.243433868127" lon="9.233944341112746"><ele>9.0</ele><time>2026-05-03T11:47:06Z</time></trkpt><trkpt lat="41.24352446433921" lon="9.23404188878312"><ele>9.0</ele><time>2026-05-03T11:47:07Z</time></trkpt><trkpt lat="41.24361055659316" lon="9.234145684095534"><ele>9.0</ele><time>2026-05-03T11:47:08Z</time></trkpt><trkpt lat="41.243687706511075" lon="9.234264689897573"><ele>9.0</ele><time>2026-05-03T11:47:09Z</time></trkpt><trkpt lat="41.243756965996425" lon="9.234392528975869"><ele>9.0</ele><time>2026-05-03T11:47:10Z</time></trkpt><trkpt lat="41.24382324634045" lon="9.234521580153185"><ele>9.0</ele><time>2026-05-03T11:47:11Z</time></trkpt><trkpt lat="41.243888872351974" lon="9.234646354876267"><ele>9.0</ele><time>2026-05-03T11:47:12Z</time></trkpt><trkpt lat="41.24395676994666" lon="9.234763261339603"><ele>9.0</ele><time>2026-05-03T11:47:13Z</time></trkpt><trkpt lat="41.24401926021468" lon="9.234871244808723"><ele>9.0</ele><time>2026-05-03T11:47:14Z</time></trkpt><trkpt lat="41.24407180388946" lon="9.234964133857462"><ele>9.0</ele><time>2026-05-03T11:47:15Z</time></trkpt><trkpt lat="41.24411644960156" lon="9.235043625629627"><ele>8.833333333333334</ele><time>2026-05-03T11:47:16Z</time></trkpt><trkpt lat="41.24415419381267" lon="9.235111775448829"><ele>8.666666666666666</ele><time>2026-05-03T11:47:17Z</time></trkpt><trkpt lat="41.24419728524226" lon="9.235227532549597"><ele>8.5</ele><time>2026-05-03T11:47:19Z</time></trkpt><trkpt lat="41.24421399076964" lon="9.235350686459366"><ele>8.333333333333332</ele><time>2026-05-03T11:47:21Z</time></trkpt><trkpt lat="41.2442282206245" lon="9.235460439896082"><ele>8.166666666666666</ele><time>2026-05-03T11:47:23Z</time></trkpt><trkpt lat="41.24426451954879" lon="9.235535012492527"><ele>8.0</ele><time>2026-05-03T11:47:27Z</time></trkpt><trkpt lat="41.24423054813504" lon="9.235462567353538"><ele>8.0</ele><time>2026-05-03T11:47:36Z</time></trkpt><trkpt lat="41.24420465771112" lon="9.235365360261229"><ele>7.999999999999999</ele><time>2026-05-03T11:47:39Z</time></trkpt><trkpt lat="41.24420877537455" lon="9.235281618866594"><ele>8.0</ele><time>2026-05-03T11:47:40Z</time></trkpt><trkpt lat="41.24419083826242" lon="9.235188999273658"><ele>8.0</ele><time>2026-05-03T11:47:41Z</time></trkpt><trkpt lat="41.244164103279815" lon="9.23511075704576"><ele>7.999999999999999</ele><time>2026-05-03T11:47:42Z</time></trkpt><trkpt lat="41.24412103092142" lon="9.23503875068452"><ele>8.0</ele><time>2026-05-03T11:47:43Z</time></trkpt><trkpt lat="41.24407336885489" lon="9.234963481431581"><ele>8.0</ele><time>2026-05-03T11:47:44Z</time></trkpt><trkpt lat="41.24402896920932" lon="9.23487404059223"><ele>8.200000000000001</ele><time>2026-05-03T11:47:45Z</time></trkpt><trkpt lat="41.243982836009444" lon="9.23478003964584"><ele>8.4</ele><time>2026-05-03T11:47:46Z</time></trkpt><trkpt lat="41.24392812221743" lon="9.23468749449112"><ele>8.600000000000001</ele><time>2026-05-03T11:47:47Z</time></trkpt><trkpt lat="41.24387537122512" lon="9.23459054702238"><ele>8.8</ele><time>2026-05-03T11:47:48Z</time></trkpt><trkpt lat="41.24382156181071" lon="9.23448817847241"><ele>9.0</ele><time>2026-05-03T11:47:49Z</time></trkpt><trkpt lat="41.243769294924846" lon="9.23438261377854"><ele>9.0</ele><time>2026-05-03T11:47:50Z</time></trkpt><trkpt lat="41.24371910882945" lon="9.23427503462576"><ele>9.0</ele><time>2026-05-03T11:47:51Z</time></trkpt><trkpt lat="41.24366138759037" lon="9.234177700377579"><ele>9.0</ele><time>2026-05-03T11:47:52Z</time></trkpt><trkpt lat="41.24359769994745" lon="9.23409168221646"><ele>9.0</ele><time>2026-05-03T11:47:53Z</time></trkpt><trkpt lat="41.243526594485644" lon="9.234013884831578"><ele>9.0</ele><time>2026-05-03T11:47:54Z</time></trkpt><trkpt lat="41.24344852775496" lon="9.23394149422091"><ele>9.2</ele><time>2026-05-03T11:47:55Z</time></trkpt><trkpt lat="41.24336510482672" lon="9.233867272016882"><ele>9.4</ele><time>2026-05-03T11:47:56Z</time></trkpt><trkpt lat="41.24327586049397" lon="9.233791359225055"><ele>9.6</ele><time>2026-05-03T11:47:57Z</time></trkpt><trkpt lat="41.24318407194027" lon="9.23370873974574"><ele>9.8</ele><time>2026-05-03T11:47:58Z</time></trkpt><trkpt lat="41.24308886132627" lon="9.233625072608591"><ele>10.0</ele><time>2026-05-03T11:47:59Z</time></trkpt><trkpt lat="41.24299327704488" lon="9.233539822579813"><ele>10.0</ele><time>2026-05-03T11:48:00Z</time></trkpt><trkpt lat="41.242911329963576" lon="9.233458694679308"><ele>10.0</ele><time>2026-05-03T11:48:01Z</time></trkpt><trkpt lat="41.242841675951475" lon="9.233366432588527"><ele>10.0</ele><time>2026-05-03T11:48:02Z</time></trkpt><trkpt lat="41.24279069423472" lon="9.233245846813803"><ele>10.0</ele><time>2026-05-03T11:48:03Z</time></trkpt><trkpt lat="41.24275875483007" lon="9.233106913507996"><ele>10.0</ele><time>2026-05-03T11:48:04Z</time></trkpt><trkpt lat="41.24272618323543" lon="9.23295129992781"><ele>11.5</ele><time>2026-05-03T11:48:05Z</time></trkpt><trkpt lat="41.24268915101365" lon="9.232786462806573"><ele>13.0</ele><time>2026-05-03T11:48:06Z</time></trkpt><trkpt lat="41.24264862194344" lon="9.232616036984242"><ele>14.5</ele><time>2026-05-03T11:48:07Z</time></trkpt><trkpt lat="41.24260754031688" lon="9.23244039969901"><ele>16.0</ele><time>2026-05-03T11:48:08Z</time></trkpt><trkpt lat="41.242566541210365" lon="9.232254452232446"><ele>18.666666666666664</ele><time>2026-05-03T11:48:09Z</time></trkpt><trkpt lat="41.24252533366545" lon="9.23206193396965"><ele>21.333333333333332</ele><time>2026-05-03T11:48:10Z</time></trkpt><trkpt lat="41.24247960943101" lon="9.231863510806347"><ele>24.0</ele><time>2026-05-03T11:48:11Z</time></trkpt><trkpt lat="41.24243230000493" lon="9.231661211361233"><ele>26.5</ele><time>2026-05-03T11:48:12Z</time></trkpt><trkpt lat="41.24238425890936" lon="9.231467756631899"><ele>29.0</ele><time>2026-05-03T11:48:13Z</time></trkpt><trkpt lat="41.24234769816842" lon="9.231309039707998"><ele>31.5</ele><time>2026-05-03T11:48:14Z</time></trkpt><trkpt lat="41.24231664039687" lon="9.231152474577385"><ele>34.0</ele><time>2026-05-03T11:48:15Z</time></trkpt><trkpt lat="41.242303308549666" lon="9.230998490799665"><ele>34.0</ele><time>2026-05-03T11:48:16Z</time></trkpt><trkpt lat="41.24232428617101" lon="9.230865657722111"><ele>34.0</ele><time>2026-05-03T11:48:17Z</time></trkpt><trkpt lat="41.242363844565745" lon="9.230739209358793"><ele>34.0</ele><time>2026-05-03T11:48:18Z</time></trkpt><trkpt lat="41.24241514689972" lon="9.230613032243907"><ele>34.0</ele><time>2026-05-03T11:48:19Z</time></trkpt><trkpt lat="41.242464630110106" lon="9.230487107433003"><ele>34.0</ele><time>2026-05-03T11:48:20Z</time></trkpt><trkpt lat="41.24249511705926" lon="9.230359825718864"><ele>35.6</ele><time>2026-05-03T11:48:21Z</time></trkpt><trkpt lat="41.24251113503533" lon="9.230229537058912"><ele>37.2</ele><time>2026-05-03T11:48:22Z</time></trkpt><trkpt lat="41.24250971779975" lon="9.230090401801853"><ele>38.800000000000004</ele><time>2026-05-03T11:48:23Z</time></trkpt><trkpt lat="41.242491202416595" lon="9.229943556784718"><ele>40.4</ele><time>2026-05-03T11:48:24Z</time></trkpt><trkpt lat="41.242461329519536" lon="9.229796949834881"><ele>42.0</ele><time>2026-05-03T11:48:25Z</time></trkpt><trkpt lat="41.242440759636374" lon="9.229671372815414"><ele>42.333333333333336</ele><time>2026-05-03T11:48:26Z</time></trkpt><trkpt lat="41.242436506965674" lon="9.229575144759083"><ele>42.666666666666664</ele><time>2026-05-03T11:48:27Z</time></trkpt><trkpt lat="41.242523984642375" lon="9.229575815379397"><ele>43.0</ele><time>2026-05-03T11:48:32Z</time></trkpt><trkpt lat="41.24262186334982" lon="9.229608009193628"><ele>43.33333333333333</ele><time>2026-05-03T11:48:34Z</time></trkpt><trkpt lat="41.24270269183327" lon="9.229624383461628"><ele>43.666666666666664</ele><time>2026-05-03T11:48:35Z</time></trkpt><trkpt lat="41.242783267278526" lon="9.229634775436681"><ele>44.0</ele><time>2026-05-03T11:48:36Z</time></trkpt><trkpt lat="41.24287325985256" lon="9.229643668790558"><ele>44.0</ele><time>2026-05-03T11:48:37Z</time></trkpt><trkpt lat="41.24296354105864" lon="9.22965439757641"><ele>44.0</ele><time>2026-05-03T11:48:38Z</time></trkpt><trkpt lat="41.24305141807809" lon="9.229674865820698"><ele>44.0</ele><time>2026-05-03T11:48:39Z</time></trkpt><trkpt lat="41.24313319815711" lon="9.229692756773233"><ele>44.0</ele><time>2026-05-03T11:48:40Z</time></trkpt><trkpt lat="41.243196803555186" lon="9.229727178003849"><ele>44.0</ele><time>2026-05-03T11:48:41Z</time></trkpt><trkpt lat="41.2433411130789" lon="9.229621223999349"><ele>45.0</ele><time>2026-05-03T11:48:43Z</time></trkpt><trkpt lat="41.2434096033341" lon="9.229586588353856"><ele>46.0</ele><time>2026-05-03T11:48:44Z</time></trkpt><trkpt lat="41.24347610092437" lon="9.229545454533806"><ele>47.0</ele><time>2026-05-03T11:48:45Z</time></trkpt><trkpt lat="41.243549378850695" lon="9.229511201097582"><ele>48.0</ele><time>2026-05-03T11:48:46Z</time></trkpt><trkpt lat="41.243623334391536" lon="9.229476545416395"><ele>49.00000000000001</ele><time>2026-05-03T11:48:47Z</time></trkpt><trkpt lat="41.24369778944496" lon="9.229435973878788"><ele>50.0</ele><time>2026-05-03T11:48:48Z</time></trkpt><trkpt lat="41.24377487047512" lon="9.229389055546678"><ele>50.0</ele><time>2026-05-03T11:48:49Z</time></trkpt><trkpt lat="41.24385557646121" lon="9.229344028622624"><ele>50.0</ele><time>2026-05-03T11:48:50Z</time></trkpt><trkpt lat="41.243940415217494" lon="9.229302384772804"><ele>50.0</ele><time>2026-05-03T11:48:51Z</time></trkpt><trkpt lat="41.24403105839204" lon="9.229267150970493"><ele>50.0</ele><time>2026-05-03T11:48:52Z</time></trkpt><trkpt lat="41.24412016715795" lon="9.22923518024984"><ele>50.0</ele><time>2026-05-03T11:48:53Z</time></trkpt><trkpt lat="41.244207312296474" lon="9.229203344884448"><ele>50.2</ele><time>2026-05-03T11:48:54Z</time></trkpt><trkpt lat="41.24429284603138" lon="9.229162921876055"><ele>50.4</ele><time>2026-05-03T11:48:55Z</time></trkpt><trkpt lat="41.244377837468505" lon="9.229125676952911"><ele>50.599999999999994</ele><time>2026-05-03T11:48:56Z</time></trkpt><trkpt lat="41.24446583347417" lon="9.229090299087424"><ele>50.8</ele><time>2026-05-03T11:48:57Z</time></trkpt><trkpt lat="41.244552152695015" lon="9.229055855564157"><ele>51.0</ele><time>2026-05-03T11:48:58Z</time></trkpt><trkpt lat="41.24463923350153" lon="9.229042573230913"><ele>51.0</ele><time>2026-05-03T11:48:59Z</time></trkpt><trkpt lat="41.24472775556285" lon="9.229051855951795"><ele>51.0</ele><time>2026-05-03T11:49:00Z</time></trkpt><trkpt lat="41.24481396976837" lon="9.229074736289112"><ele>51.0</ele><time>2026-05-03T11:49:01Z</time></trkpt><trkpt lat="41.24490041129697" lon="9.2290974446162"><ele>51.0</ele><time>2026-05-03T11:49:02Z</time></trkpt><trkpt lat="41.244978941992734" lon="9.229131652223113"><ele>51.0</ele><time>2026-05-03T11:49:03Z</time></trkpt><trkpt lat="41.24506111761529" lon="9.229175818182073"><ele>51.0</ele><time>2026-05-03T11:49:04Z</time></trkpt><trkpt lat="41.24514879035955" lon="9.229224479077068"><ele>52.25</ele><time>2026-05-03T11:49:05Z</time></trkpt><trkpt lat="41.245250646947255" lon="9.229287237487238"><ele>53.5</ele><time>2026-05-03T11:49:06Z</time></trkpt><trkpt lat="41.2453599179829" lon="9.229351381622314"><ele>54.75</ele><time>2026-05-03T11:49:07Z</time></trkpt><trkpt lat="41.24547536625053" lon="9.229413245156518"><ele>56.0</ele><time>2026-05-03T11:49:08Z</time></trkpt><trkpt lat="41.245594049031425" lon="9.22947592798822"><ele>56.75</ele><time>2026-05-03T11:49:09Z</time></trkpt><trkpt lat="41.245710968512455" lon="9.229545836145306"><ele>57.5</ele><time>2026-05-03T11:49:10Z</time></trkpt><trkpt lat="41.24582639811885" lon="9.229613827526054"><ele>58.25</ele><time>2026-05-03T11:49:11Z</time></trkpt><trkpt lat="41.2459393607175" lon="9.229688724565756"><ele>59.0</ele><time>2026-05-03T11:49:12Z</time></trkpt><trkpt lat="41.24604868748825" lon="9.229767522806531"><ele>57.800000000000004</ele><time>2026-05-03T11:49:13Z</time></trkpt><trkpt lat="41.24615201924272" lon="9.22984851303574"><ele>56.60000000000001</ele><time>2026-05-03T11:49:14Z</time></trkpt><trkpt lat="41.24624379000112" lon="9.229927242154607"><ele>55.4</ele><time>2026-05-03T11:49:15Z</time></trkpt><trkpt lat="41.246323199037654" lon="9.230001276073793"><ele>54.2</ele><time>2026-05-03T11:49:16Z</time></trkpt><trkpt lat="41.24638784514174" lon="9.230066213873462"><ele>53.0</ele><time>2026-05-03T11:49:17Z</time></trkpt><trkpt lat="41.246440098611544" lon="9.23012610255461"><ele>53.0</ele><time>2026-05-03T11:49:18Z</time></trkpt><trkpt lat="41.246500275259685" lon="9.230253097370019"><ele>53.0</ele><time>2026-05-03T11:49:20Z</time></trkpt><trkpt lat="41.24650937433542" lon="9.230377364319752"><ele>53.0</ele><time>2026-05-03T11:49:22Z</time></trkpt><trkpt lat="41.24646013792416" lon="9.230506629365413"><ele>53.0</ele><time>2026-05-03T11:49:24Z</time></trkpt><trkpt lat="41.24640390715929" lon="9.23055698291619"><ele>53.0</ele><time>2026-05-03T11:49:25Z</time></trkpt><trkpt lat="41.24634108333984" lon="9.230613443374912"><ele>52.333333333333336</ele><time>2026-05-03T11:49:26Z</time></trkpt><trkpt lat="41.24629134346366" lon="9.230689018403385"><ele>51.66666666666667</ele><time>2026-05-03T11:49:27Z</time></trkpt><trkpt lat="41.24626184998268" lon="9.230782340722836"><ele>51.0</ele><time>2026-05-03T11:49:28Z</time></trkpt><trkpt lat="41.246248992571125" lon="9.230882513965632"><ele>50.33333333333333</ele><time>2026-05-03T11:49:29Z</time></trkpt><trkpt lat="41.24626437875599" lon="9.230986561992585"><ele>49.666666666666664</ele><time>2026-05-03T11:49:30Z</time></trkpt><trkpt lat="41.24628759824462" lon="9.231084928692397"><ele>49.0</ele><time>2026-05-03T11:49:31Z</time></trkpt><trkpt lat="41.24632774188673" lon="9.231159098645627"><ele>48.99999999999999</ele><time>2026-05-03T11:49:32Z</time></trkpt><trkpt lat="41.246386545058854" lon="9.231226642504243"><ele>49.0</ele><time>2026-05-03T11:49:33Z</time></trkpt><trkpt lat="41.24646394700217" lon="9.231294548261236"><ele>49.0</ele><time>2026-05-03T11:49:34Z</time></trkpt><trkpt lat="41.246537905458815" lon="9.2313616933712"><ele>49.0</ele><time>2026-05-03T11:49:35Z</time></trkpt><trkpt lat="41.24661112390246" lon="9.231425542151394"><ele>48.99999999999999</ele><time>2026-05-03T11:49:36Z</time></trkpt><trkpt lat="41.2466712678129" lon="9.231488278083644"><ele>49.0</ele><time>2026-05-03T11:49:37Z</time></trkpt><trkpt lat="41.24673055833367" lon="9.231547254734016"><ele>48.49999999999999</ele><time>2026-05-03T11:49:38Z</time></trkpt><trkpt lat="41.2467927524009" lon="9.231604081507978"><ele>48.0</ele><time>2026-05-03T11:49:39Z</time></trkpt><trkpt lat="41.24685577438566" lon="9.231655322029857"><ele>47.5</ele><time>2026-05-03T11:49:40Z</time></trkpt><trkpt lat="41.24692439288419" lon="9.231696995183578"><ele>47.0</ele><time>2026-05-03T11:49:41Z</time></trkpt><trkpt lat="41.24699783395342" lon="9.231708961218418"><ele>46.5</ele><time>2026-05-03T11:49:42Z</time></trkpt><trkpt lat="41.24707647703031" lon="9.231716869258953"><ele>46.0</ele><time>2026-05-03T11:49:43Z</time></trkpt><trkpt lat="41.247152962891036" lon="9.23172543046528"><ele>46.0</ele><time>2026-05-03T11:49:44Z</time></trkpt><trkpt lat="41.24723567024656" lon="9.231737882507291"><ele>46.0</ele><time>2026-05-03T11:49:45Z</time></trkpt><trkpt lat="41.24730235696306" lon="9.231770475007218"><ele>46.0</ele><time>2026-05-03T11:49:46Z</time></trkpt><trkpt lat="41.24736298387675" lon="9.231813838537088"><ele>46.0</ele><time>2026-05-03T11:49:47Z</time></trkpt><trkpt lat="41.247410414546806" lon="9.231870496441116"><ele>46.0</ele><time>2026-05-03T11:49:48Z</time></trkpt><trkpt lat="41.24746338662244" lon="9.232014590756448"><ele>46.0</ele><time>2026-05-03T11:49:50Z</time></trkpt><trkpt lat="41.2474873254201" lon="9.232171876734453"><ele>44.0</ele><time>2026-05-03T11:49:52Z</time></trkpt><trkpt lat="41.24751292547947" lon="9.232333317341414"><ele>42.0</ele><time>2026-05-03T11:49:54Z</time></trkpt><trkpt lat="41.24752258689226" lon="9.232424007283818"><ele>40.0</ele><time>2026-05-03T11:49:55Z</time></trkpt><trkpt lat="41.2475280180223" lon="9.232517651816385"><ele>38.0</ele><time>2026-05-03T11:49:56Z</time></trkpt><trkpt lat="41.24752970783296" lon="9.232612330523391"><ele>36.0</ele><time>2026-05-03T11:49:57Z</time></trkpt><trkpt lat="41.24753956008184" lon="9.232695334502393"><ele>34.0</ele><time>2026-05-03T11:49:59Z</time></trkpt><trkpt lat="41.24760869274142" lon="9.232740726472317"><ele>34.0</ele><time>2026-05-03T11:50:02Z</time></trkpt><trkpt lat="41.24768785292267" lon="9.232755978013769"><ele>34.0</ele><time>2026-05-03T11:50:05Z</time></trkpt><trkpt lat="41.24776664417766" lon="9.232797332081278"><ele>34.0</ele><time>2026-05-03T11:50:07Z</time></trkpt><trkpt lat="41.247836314126154" lon="9.232828558246444"><ele>34.0</ele><time>2026-05-03T11:50:09Z</time></trkpt><trkpt lat="41.24792658355609" lon="9.232841321068895"><ele>34.0</ele><time>2026-05-03T11:50:11Z</time></trkpt><trkpt lat="41.248024908182686" lon="9.232884801848353"><ele>34.0</ele><time>2026-05-03T11:50:13Z</time></trkpt><trkpt lat="41.24813425994476" lon="9.23289230620794"><ele>34.57142857142857</ele><time>2026-05-03T11:50:15Z</time></trkpt><trkpt lat="41.24819891902079" lon="9.232877153218933"><ele>35.14285714285714</ele><time>2026-05-03T11:50:16Z</time></trkpt><trkpt lat="41.24826689186967" lon="9.232887552812816"><ele>35.71428571428571</ele><time>2026-05-03T11:50:17Z</time></trkpt><trkpt lat="41.24833267425651" lon="9.232924767327395"><ele>36.285714285714285</ele><time>2026-05-03T11:50:18Z</time></trkpt><trkpt lat="41.24839581076274" lon="9.232941308869009"><ele>36.85714285714286</ele><time>2026-05-03T11:50:19Z</time></trkpt><trkpt lat="41.248491120260134" lon="9.232955766768107"><ele>37.42857142857142</ele><time>2026-05-03T11:50:21Z</time></trkpt><trkpt lat="41.248563837295634" lon="9.2329638378779"><ele>38.0</ele><time>2026-05-03T11:50:25Z</time></trkpt><trkpt lat="41.248650309926774" lon="9.233001717445825"><ele>38.0</ele><time>2026-05-03T11:50:28Z</time></trkpt><trkpt lat="41.248737698560966" lon="9.23303258665978"><ele>38.0</ele><time>2026-05-03T11:50:30Z</time></trkpt><trkpt lat="41.24879096822043" lon="9.233104786327686"><ele>38.0</ele><time>2026-05-03T11:50:34Z</time></trkpt><trkpt lat="41.24882437405947" lon="9.233194634353959"><ele>38.0</ele><time>2026-05-03T11:50:37Z</time></trkpt><trkpt lat="41.248787034305266" lon="9.233063471408844"><ele>38.0</ele><time>2026-05-03T11:50:49Z</time></trkpt><trkpt lat="41.24871647639163" lon="9.232989963073612"><ele>38.0</ele><time>2026-05-03T11:50:51Z</time></trkpt><trkpt lat="41.24852755344039" lon="9.232984975123346"><ele>38.0</ele><time>2026-05-03T11:50:53Z</time></trkpt><trkpt lat="41.24845197996898" lon="9.23294343348578"><ele>38.0</ele><time>2026-05-03T11:50:54Z</time></trkpt><trkpt lat="41.248372022613026" lon="9.232914859432345"><ele>38.0</ele><time>2026-05-03T11:50:55Z</time></trkpt><trkpt lat="41.248295936632886" lon="9.23289130500218"><ele>38.0</ele><time>2026-05-03T11:50:56Z</time></trkpt><trkpt lat="41.24821655058102" lon="9.232878446806323"><ele>38.0</ele><time>2026-05-03T11:50:57Z</time></trkpt><trkpt lat="41.2481394859825" lon="9.232875664855976"><ele>38.0</ele><time>2026-05-03T11:50:58Z</time></trkpt><trkpt lat="41.24806368229766" lon="9.232877040909996"><ele>37.199999999999996</ele><time>2026-05-03T11:50:59Z</time></trkpt><trkpt lat="41.247986579218434" lon="9.232870525299237"><ele>36.4</ele><time>2026-05-03T11:51:00Z</time></trkpt><trkpt lat="41.24791555348728" lon="9.232854692813866"><ele>35.599999999999994</ele><time>2026-05-03T11:51:01Z</time></trkpt><trkpt lat="41.247854397520676" lon="9.232823075109804"><ele>34.8</ele><time>2026-05-03T11:51:02Z</time></trkpt><trkpt lat="41.24774414776928" lon="9.232767363469732"><ele>34.0</ele><time>2026-05-03T11:51:04Z</time></trkpt><trkpt lat="41.24762916097904" lon="9.232856925211566"><ele>34.0</ele><time>2026-05-03T11:51:05Z</time></trkpt><trkpt lat="41.247576183969045" lon="9.232807624973253"><ele>34.0</ele><time>2026-05-03T11:51:07Z</time></trkpt><trkpt lat="41.247529538051666" lon="9.23315170882323"><ele>34.0</ele><time>2026-05-03T11:51:48Z</time></trkpt><trkpt lat="41.24750663852048" lon="9.233256389904216"><ele>34.0</ele><time>2026-05-03T11:51:50Z</time></trkpt><trkpt lat="41.24750105608969" lon="9.233346446326415"><ele>34.0</ele><time>2026-05-03T11:52:16Z</time></trkpt><trkpt lat="41.247510976899704" lon="9.233246636971737"><ele>34.0</ele><time>2026-05-03T11:52:24Z</time></trkpt><trkpt lat="41.24752391486269" lon="9.233140177809558"><ele>34.0</ele><time>2026-05-03T11:52:29Z</time></trkpt><trkpt lat="41.247522194882016" lon="9.233049198571836"><ele>34.0</ele><time>2026-05-03T11:52:31Z</time></trkpt><trkpt lat="41.247523896856826" lon="9.23294929876978"><ele>34.0</ele><time>2026-05-03T11:52:35Z</time></trkpt><trkpt lat="41.24752313514633" lon="9.232851882028255"><ele>34.0</ele><time>2026-05-03T11:53:04Z</time></trkpt><trkpt lat="41.24752218952479" lon="9.232745979955338"><ele>34.0</ele><time>2026-05-03T11:53:07Z</time></trkpt><trkpt lat="41.247751362775055" lon="9.232807996419453"><ele>34.0</ele><time>2026-05-03T11:53:12Z</time></trkpt><trkpt lat="41.24781628767024" lon="9.232836290740353"><ele>34.0</ele><time>2026-05-03T11:53:13Z</time></trkpt><trkpt lat="41.24790732079553" lon="9.232856085283132"><ele>34.0</ele><time>2026-05-03T11:53:14Z</time></trkpt><trkpt lat="41.24798139461072" lon="9.232866484254455"><ele>34.0</ele><time>2026-05-03T11:53:15Z</time></trkpt><trkpt lat="41.24806097711286" lon="9.232888512031366"><ele>34.0</ele><time>2026-05-03T11:53:16Z</time></trkpt><trkpt lat="41.248140901751" lon="9.23289261322824"><ele>34.0</ele><time>2026-05-03T11:53:17Z</time></trkpt><trkpt lat="41.24820672928097" lon="9.232875711344063"><ele>34.0</ele><time>2026-05-03T11:53:18Z</time></trkpt><trkpt lat="41.248272344134726" lon="9.232909406421557"><ele>34.0</ele><time>2026-05-03T11:53:19Z</time></trkpt><trkpt lat="41.24839669804582" lon="9.232934221128657"><ele>34.0</ele><time>2026-05-03T11:53:21Z</time></trkpt><trkpt lat="41.2484623494966" lon="9.232957163365436"><ele>34.66666666666667</ele><time>2026-05-03T11:53:22Z</time></trkpt><trkpt lat="41.24853415146988" lon="9.232975623190113"><ele>35.333333333333336</ele><time>2026-05-03T11:53:25Z</time></trkpt><trkpt lat="41.24860345266151" lon="9.232995565584005"><ele>36.0</ele><time>2026-05-03T11:54:12Z</time></trkpt><trkpt lat="41.248663746067756" lon="9.233028704328506"><ele>36.666666666666664</ele><time>2026-05-03T11:54:18Z</time></trkpt><trkpt lat="41.24860882115031" lon="9.23298615916942"><ele>37.33333333333333</ele><time>2026-05-03T11:54:36Z</time></trkpt><trkpt lat="41.24853995781353" lon="9.232967415320644"><ele>38.0</ele><time>2026-05-03T11:54:42Z</time></trkpt><trkpt lat="41.24843245787082" lon="9.232908249672368"><ele>38.0</ele><time>2026-05-03T11:55:43Z</time></trkpt><trkpt lat="41.248356153444526" lon="9.23289878758947"><ele>38.0</ele><time>2026-05-03T11:55:44Z</time></trkpt><trkpt lat="41.248249891168705" lon="9.232878694671443"><ele>38.0</ele><time>2026-05-03T11:55:46Z</time></trkpt><trkpt lat="41.24818170116132" lon="9.232882550016834"><ele>38.0</ele><time>2026-05-03T11:55:48Z</time></trkpt><trkpt lat="41.24807797306626" lon="9.232875874956527"><ele>38.0</ele><time>2026-05-03T11:56:05Z</time></trkpt><trkpt lat="41.24801866602023" lon="9.23283953561491"><ele>38.0</ele><time>2026-05-03T11:56:06Z</time></trkpt><trkpt lat="41.24793252105583" lon="9.232814104464678"><ele>37.42857142857142</ele><time>2026-05-03T11:56:08Z</time></trkpt><trkpt lat="41.24786644136859" lon="9.232788210641909"><ele>36.85714285714286</ele><time>2026-05-03T11:56:11Z</time></trkpt><trkpt lat="41.24790144211865" lon="9.232858263731416"><ele>36.285714285714285</ele><time>2026-05-03T11:58:12Z</time></trkpt><trkpt lat="41.24788738422945" lon="9.232940224859382"><ele>35.71428571428571</ele><time>2026-05-03T11:58:18Z</time></trkpt><trkpt lat="41.247861715136324" lon="9.233031839871805"><ele>35.14285714285714</ele><time>2026-05-03T11:58:24Z</time></trkpt><trkpt lat="41.24785318668212" lon="9.233122404690027"><ele>34.57142857142857</ele><time>2026-05-03T11:58:30Z</time></trkpt><trkpt lat="41.24786446174671" lon="9.23320691378121"><ele>34.0</ele><time>2026-05-03T11:58:37Z</time></trkpt><trkpt lat="41.2479357254828" lon="9.233215247489856"><ele>33.285714285714285</ele><time>2026-05-03T11:58:44Z</time></trkpt><trkpt lat="41.24800196737826" lon="9.2331954910989"><ele>32.57142857142857</ele><time>2026-05-03T11:58:53Z</time></trkpt><trkpt lat="41.248069072202334" lon="9.233174419255665"><ele>31.857142857142858</ele><time>2026-05-03T11:59:03Z</time></trkpt><trkpt lat="41.24812773253031" lon="9.233223598972428"><ele>31.142857142857142</ele><time>2026-05-03T11:59:08Z</time></trkpt><trkpt lat="41.24817719060119" lon="9.233292415390238"><ele>30.42857142857143</ele><time>2026-05-03T11:59:13Z</time></trkpt><trkpt lat="41.24822695691724" lon="9.233361866244454"><ele>29.71428571428572</ele><time>2026-05-03T11:59:19Z</time></trkpt><trkpt lat="41.24823563456836" lon="9.233274776637032"><ele>29.000000000000004</ele><time>2026-05-03T11:59:45Z</time></trkpt><trkpt lat="41.24815848669259" lon="9.233349654431542"><ele>29.000000000000004</ele><time>2026-05-03T11:59:51Z</time></trkpt><trkpt lat="41.248140868773326" lon="9.233226484391288"><ele>29.0</ele><time>2026-05-03T12:00:17Z</time></trkpt><trkpt lat="41.24813985378122" lon="9.233138923501466"><ele>29.000000000000004</ele><time>2026-05-03T12:00:34Z</time></trkpt><trkpt lat="41.24821504816555" lon="9.233164925750025"><ele>29.000000000000004</ele><time>2026-05-03T12:04:38Z</time></trkpt><trkpt lat="41.24815827581651" lon="9.233214227014626"><ele>29.0</ele><time>2026-05-03T12:04:48Z</time></trkpt><trkpt lat="41.24818765877651" lon="9.233306518578802"><ele>29.000000000000004</ele><time>2026-05-03T12:04:55Z</time></trkpt><trkpt lat="41.24818321185035" lon="9.233390507223396"><ele>29.000000000000004</ele><time>2026-05-03T12:05:03Z</time></trkpt><trkpt lat="41.24814620707865" lon="9.23346732729446"><ele>29.000000000000004</ele><time>2026-05-03T12:05:12Z</time></trkpt><trkpt lat="41.24820189894269" lon="9.233515336111696"><ele>29.0</ele><time>2026-05-03T12:05:28Z</time></trkpt><trkpt lat="41.24827367202075" lon="9.233491534368671"><ele>29.000000000000004</ele><time>2026-05-03T12:05:48Z</time></trkpt><trkpt lat="41.24834090994011" lon="9.23350163826439"><ele>29.000000000000004</ele><time>2026-05-03T12:05:55Z</time></trkpt><trkpt lat="41.24841141225651" lon="9.233530012680825"><ele>29.0</ele><time>2026-05-03T12:06:00Z</time></trkpt><trkpt lat="41.24845231043633" lon="9.233616624388668"><ele>29.000000000000004</ele><time>2026-05-03T12:06:05Z</time></trkpt><trkpt lat="41.24841387551563" lon="9.233689009375958"><ele>29.000000000000004</ele><time>2026-05-03T12:06:12Z</time></trkpt><trkpt lat="41.248380830125654" lon="9.233774781403723"><ele>29.000000000000004</ele><time>2026-05-03T12:06:18Z</time></trkpt><trkpt lat="41.24835984900316" lon="9.233862205961627"><ele>29.0</ele><time>2026-05-03T12:06:24Z</time></trkpt><trkpt lat="41.24837930266571" lon="9.233767445115655"><ele>29.000000000000004</ele><time>2026-05-03T12:06:59Z</time></trkpt><trkpt lat="41.24840127151756" lon="9.23368405221321"><ele>29.000000000000004</ele><time>2026-05-03T12:07:04Z</time></trkpt><trkpt lat="41.24842378188107" lon="9.233598231692154"><ele>29.0</ele><time>2026-05-03T12:07:18Z</time></trkpt><trkpt lat="41.24839571080068" lon="9.233519072671733"><ele>29.000000000000004</ele><time>2026-05-03T12:07:27Z</time></trkpt><trkpt lat="41.2483258689782" lon="9.233508354934173"><ele>29.000000000000004</ele><time>2026-05-03T12:07:35Z</time></trkpt><trkpt lat="41.248259513744166" lon="9.233508123463567"><ele>29.000000000000004</ele><time>2026-05-03T12:07:43Z</time></trkpt><trkpt lat="41.24819464697479" lon="9.233495649386523"><ele>29.0</ele><time>2026-05-03T12:07:51Z</time></trkpt><trkpt lat="41.248131962817205" lon="9.233471863415158"><ele>29.000000000000004</ele><time>2026-05-03T12:08:25Z</time></trkpt><trkpt lat="41.24810350296798" lon="9.233394207654975"><ele>29.000000000000004</ele><time>2026-05-03T12:08:46Z</time></trkpt><trkpt lat="41.24811177804358" lon="9.233305378472334"><ele>29.0</ele><time>2026-05-03T12:08:58Z</time></trkpt><trkpt lat="41.24814453096326" lon="9.233223265961511"><ele>29.000000000000004</ele><time>2026-05-03T12:09:04Z</time></trkpt><trkpt lat="41.24814071349421" lon="9.23313694002548"><ele>29.000000000000004</ele><time>2026-05-03T12:09:09Z</time></trkpt><trkpt lat="41.24816728111046" lon="9.233226343210696"><ele>29.000000000000004</ele><time>2026-05-03T12:54:39.001Z</time></trkpt><trkpt lat="41.2481853889679" lon="9.233126750471875"><ele>29.0</ele><time>2026-05-03T13:07:40Z</time></trkpt><trkpt lat="41.248166288404775" lon="9.233212373986278"><ele>29.000000000000004</ele><time>2026-05-03T13:08:09Z</time></trkpt><trkpt lat="41.24816274138473" lon="9.23330334509066"><ele>29.000000000000004</ele><time>2026-05-03T13:08:17Z</time></trkpt><trkpt lat="41.24809727772029" lon="9.2333342201584"><ele>29.0</ele><time>2026-05-03T13:08:27Z</time></trkpt><trkpt lat="41.24811926106079" lon="9.233413899282741"><ele>29.000000000000004</ele><time>2026-05-03T13:13:09.999Z</time></trkpt><trkpt lat="41.248184959543316" lon="9.23345321058848"><ele>29.000000000000004</ele><time>2026-05-03T13:13:36Z</time></trkpt><trkpt lat="41.24824898049762" lon="9.233464306159892"><ele>29.000000000000004</ele><time>2026-05-03T13:13:44Z</time></trkpt><trkpt lat="41.2483219924151" lon="9.233471505799669"><ele>29.0</ele><time>2026-05-03T13:13:52Z</time></trkpt><trkpt lat="41.24838524891216" lon="9.233488521489459"><ele>29.000000000000004</ele><time>2026-05-03T13:13:59.999Z</time></trkpt><trkpt lat="41.24843187965291" lon="9.23354989805111"><ele>29.000000000000004</ele><time>2026-05-03T13:14:06.999Z</time></trkpt><trkpt lat="41.2484252469026" lon="9.233634286344753"><ele>29.0</ele><time>2026-05-03T13:14:16.999Z</time></trkpt><trkpt lat="41.248376761895116" lon="9.233689062271305"><ele>29.000000000000004</ele><time>2026-05-03T13:14:31.999Z</time></trkpt><trkpt lat="41.24831794494787" lon="9.233653747082144"><ele>29.000000000000004</ele><time>2026-05-03T13:14:37.999Z</time></trkpt><trkpt lat="41.24825474190321" lon="9.233643345592842"><ele>29.000000000000004</ele><time>2026-05-03T13:14:43.999Z</time></trkpt><trkpt lat="41.2481859540908" lon="9.233657146354968"><ele>29.0</ele><time>2026-05-03T13:14:49.999Z</time></trkpt><trkpt lat="41.24812328974206" lon="9.233691527100849"><ele>29.000000000000004</ele><time>2026-05-03T13:14:55.999Z</time></trkpt><trkpt lat="41.2481028051915" lon="9.233778460726969"><ele>29.000000000000004</ele><time>2026-05-03T13:15:01.999Z</time></trkpt><trkpt lat="41.24812934374633" lon="9.233866914885557"><ele>29.0</ele><time>2026-05-03T13:15:07.999Z</time></trkpt><trkpt lat="41.24817221745996" lon="9.233934304081595"><ele>29.000000000000004</ele><time>2026-05-03T13:15:13.999Z</time></trkpt><trkpt lat="41.24822785318892" lon="9.233994174205137"><ele>29.000000000000004</ele><time>2026-05-03T13:15:19.999Z</time></trkpt><trkpt lat="41.24828747884189" lon="9.233954988589595"><ele>29.000000000000004</ele><time>2026-05-03T13:15:29.999Z</time></trkpt><trkpt lat="41.24835031701817" lon="9.23391678324543"><ele>29.0</ele><time>2026-05-03T13:15:36Z</time></trkpt><trkpt lat="41.248409017132246" lon="9.233868533497533"><ele>29.000000000000004</ele><time>2026-05-03T13:15:42Z</time></trkpt><trkpt lat="41.248471191383025" lon="9.233835679567463"><ele>29.000000000000004</ele><time>2026-05-03T13:15:48Z</time></trkpt><trkpt lat="41.24854689288854" lon="9.233819514035153"><ele>29.0</ele><time>2026-05-03T13:15:54Z</time></trkpt><trkpt lat="41.248614977530536" lon="9.233848977932144"><ele>29.000000000000004</ele><time>2026-05-03T13:16:00Z</time></trkpt><trkpt lat="41.24867913374721" lon="9.233867304823535"><ele>29.000000000000004</ele><time>2026-05-03T13:16:05Z</time></trkpt><trkpt lat="41.248741639734455" lon="9.233886951346554"><ele>29.000000000000004</ele><time>2026-05-03T13:16:10Z</time></trkpt><trkpt lat="41.24878728678508" lon="9.23394998957603"><ele>29.0</ele><time>2026-05-03T13:16:15Z</time></trkpt><trkpt lat="41.248785882942805" lon="9.234034655407863"><ele>29.000000000000004</ele><time>2026-05-03T13:16:22.999Z</time></trkpt><trkpt lat="41.24882814271643" lon="9.23411058612268"><ele>29.000000000000004</ele><time>2026-05-03T13:16:30.999Z</time></trkpt><trkpt lat="41.24884852230683" lon="9.234193699450334"><ele>29.0</ele><time>2026-05-03T13:16:38.999Z</time></trkpt><trkpt lat="41.2488294991944" lon="9.234285981241504"><ele>29.000000000000004</ele><time>2026-05-03T13:16:44.999Z</time></trkpt><trkpt lat="41.24883076918183" lon="9.23438383116151"><ele>29.000000000000004</ele><time>2026-05-03T13:16:50.999Z</time></trkpt><trkpt lat="41.24882230893415" lon="9.234469274576037"><ele>27.142857142857146</ele><time>2026-05-03T13:16:56.999Z</time></trkpt><trkpt lat="41.248768469841465" lon="9.234530996150394"><ele>25.285714285714285</ele><time>2026-05-03T13:17:02.999Z</time></trkpt><trkpt lat="41.24870340837805" lon="9.234528034899844"><ele>23.42857142857143</ele><time>2026-05-03T13:17:11.999Z</time></trkpt><trkpt lat="41.2486610808989" lon="9.23460324379919"><ele>21.571428571428573</ele><time>2026-05-03T13:17:16.999Z</time></trkpt><trkpt lat="41.24867524819714" lon="9.234688132940303"><ele>19.714285714285715</ele><time>2026-05-03T13:17:27.999Z</time></trkpt><trkpt lat="41.24868970171397" lon="9.2347729606864"><ele>17.857142857142858</ele><time>2026-05-03T13:17:49Z</time></trkpt><trkpt lat="41.2487307889694" lon="9.234841831344985"><ele>16.0</ele><time>2026-05-03T13:17:58Z</time></trkpt><trkpt lat="41.24866086080022" lon="9.234832057790815"><ele>16.0</ele><time>2026-05-03T13:19:32.999Z</time></trkpt><trkpt lat="41.24859803397296" lon="9.234850509083605"><ele>15.999999999999998</ele><time>2026-05-03T13:19:43Z</time></trkpt><trkpt lat="41.248531974633906" lon="9.2348314518947"><ele>16.0</ele><time>2026-05-03T13:19:52Z</time></trkpt><trkpt lat="41.24847779906457" lon="9.234771107994767"><ele>16.0</ele><time>2026-05-03T13:20:01Z</time></trkpt><trkpt lat="41.24843188726354" lon="9.234710002471672"><ele>15.999999999999998</ele><time>2026-05-03T13:20:09Z</time></trkpt><trkpt lat="41.24837583085724" lon="9.23466500996649"><ele>16.0</ele><time>2026-05-03T13:20:16.999Z</time></trkpt><trkpt lat="41.24832365851173" lon="9.234604381811051"><ele>16.0</ele><time>2026-05-03T13:20:24.999Z</time></trkpt><trkpt lat="41.24826367056599" lon="9.234561283678381"><ele>16.0</ele><time>2026-05-03T13:20:34.999Z</time></trkpt><trkpt lat="41.24820462471334" lon="9.234521364308948"><ele>15.999999999999998</ele><time>2026-05-03T13:20:43.999Z</time></trkpt><trkpt lat="41.24815645446192" lon="9.234450293355634"><ele>16.0</ele><time>2026-05-03T13:20:51.999Z</time></trkpt><trkpt lat="41.248094386566386" lon="9.234416390427757"><ele>16.0</ele><time>2026-05-03T13:21:07.999Z</time></trkpt><trkpt lat="41.24802810225527" lon="9.234395894676334"><ele>15.999999999999998</ele><time>2026-05-03T13:21:21.999Z</time></trkpt><trkpt lat="41.24796487122085" lon="9.234371817944298"><ele>16.0</ele><time>2026-05-03T13:21:29.999Z</time></trkpt><trkpt lat="41.247898728024325" lon="9.234384788627215"><ele>16.0</ele><time>2026-05-03T13:21:46.999Z</time></trkpt><trkpt lat="41.247831965291795" lon="9.234346034690745"><ele>16.57142857142857</ele><time>2026-05-03T13:21:56Z</time></trkpt><trkpt lat="41.247768482379826" lon="9.234330408932912"><ele>17.142857142857142</ele><time>2026-05-03T13:22:15Z</time></trkpt><trkpt lat="41.24769838035801" lon="9.234308623534494"><ele>17.714285714285715</ele><time>2026-05-03T13:22:23Z</time></trkpt><trkpt lat="41.24765001546351" lon="9.23424023181651"><ele>18.285714285714285</ele><time>2026-05-03T13:22:30.999Z</time></trkpt><trkpt lat="41.24758763189284" lon="9.23419596656721"><ele>18.857142857142858</ele><time>2026-05-03T13:22:37.999Z</time></trkpt><trkpt lat="41.24758598855163" lon="9.234102421458893"><ele>19.428571428571427</ele><time>2026-05-03T13:23:05.999Z</time></trkpt><trkpt lat="41.24762913846843" lon="9.234021878248322"><ele>20.0</ele><time>2026-05-03T13:23:12.999Z</time></trkpt><trkpt lat="41.24766351602094" lon="9.233945527550173"><ele>21.0</ele><time>2026-05-03T13:23:19.999Z</time></trkpt><trkpt lat="41.24765806464285" lon="9.23385247633397"><ele>22.0</ele><time>2026-05-03T13:23:25.999Z</time></trkpt><trkpt lat="41.24771040019475" lon="9.23379962452552"><ele>23.0</ele><time>2026-05-03T13:23:32.999Z</time></trkpt><trkpt lat="41.24775108667098" lon="9.233727420897477"><ele>24.0</ele><time>2026-05-03T13:23:39.999Z</time></trkpt><trkpt lat="41.247718357787164" lon="9.233651672689199"><ele>25.0</ele><time>2026-05-03T13:23:56Z</time></trkpt><trkpt lat="41.2477481002605" lon="9.233572102034211"><ele>26.0</ele><time>2026-05-03T13:24:01Z</time></trkpt><trkpt lat="41.247811665132744" lon="9.2335569309773"><ele>27.0</ele><time>2026-05-03T13:24:04Z</time></trkpt><trkpt lat="41.24787252538067" lon="9.233516979907932"><ele>27.0</ele><time>2026-05-03T13:24:12Z</time></trkpt><trkpt lat="41.24794153082833" lon="9.233526929006086"><ele>27.0</ele><time>2026-05-03T13:24:19Z</time></trkpt><trkpt lat="41.24797625733814" lon="9.233448071457255"><ele>27.0</ele><time>2026-05-03T13:24:25Z</time></trkpt><trkpt lat="41.248017680383136" lon="9.233374690406338"><ele>27.0</ele><time>2026-05-03T13:24:31.999Z</time></trkpt><trkpt lat="41.24804094530102" lon="9.233285305246323"><ele>27.0</ele><time>2026-05-03T13:24:39.999Z</time></trkpt><trkpt lat="41.2480742396824" lon="9.233206575482816"><ele>27.0</ele><time>2026-05-03T13:24:53.999Z</time></trkpt><trkpt lat="41.24808349491595" lon="9.233294674544215"><ele>27.0</ele><time>2026-05-03T13:25:07.999Z</time></trkpt><trkpt lat="41.248130683867714" lon="9.233358141106512"><ele>27.0</ele><time>2026-05-03T13:25:16.999Z</time></trkpt><trkpt lat="41.24815775311901" lon="9.233458110480957"><ele>27.0</ele><time>2026-05-03T13:25:50.999Z</time></trkpt><trkpt lat="41.248100306718094" lon="9.233410839930766"><ele>27.0</ele><time>2026-05-03T13:32:01.999Z</time></trkpt><trkpt lat="41.248090633769294" lon="9.233323110636569"><ele>27.0</ele><time>2026-05-03T13:34:43Z</time></trkpt><trkpt lat="41.24810678428728" lon="9.233230172017382"><ele>27.0</ele><time>2026-05-03T13:35:00Z</time></trkpt><trkpt lat="41.248143323231915" lon="9.233160130878547"><ele>27.0</ele><time>2026-05-03T13:35:10.999Z</time></trkpt><trkpt lat="41.24817903345813" lon="9.233074400896195"><ele>27.0</ele><time>2026-05-03T13:35:18.999Z</time></trkpt><trkpt lat="41.24819376127983" lon="9.232990241347453"><ele>28.0</ele><time>2026-05-03T13:35:25.999Z</time></trkpt><trkpt lat="41.24817838077415" lon="9.23290628959512"><ele>29.0</ele><time>2026-05-03T13:35:32.999Z</time></trkpt><trkpt lat="41.24813197595152" lon="9.23284391057046"><ele>30.0</ele><time>2026-05-03T13:35:39.999Z</time></trkpt><trkpt lat="41.248063501745975" lon="9.232830797994342"><ele>31.0</ele><time>2026-05-03T13:35:47.999Z</time></trkpt><trkpt lat="41.24799956529147" lon="9.232834460308718"><ele>32.0</ele><time>2026-05-03T13:35:54.999Z</time></trkpt><trkpt lat="41.24793697989746" lon="9.232821338689762"><ele>32.99999999999999</ele><time>2026-05-03T13:36:01.999Z</time></trkpt><trkpt lat="41.247880080582014" lon="9.232778100203339"><ele>34.0</ele><time>2026-05-03T13:36:10.999Z</time></trkpt><trkpt lat="41.247818076491896" lon="9.23279557829775"><ele>34.0</ele><time>2026-05-03T13:42:34.999Z</time></trkpt><trkpt lat="41.247740355394555" lon="9.232782531040149"><ele>34.0</ele><time>2026-05-03T13:42:38.999Z</time></trkpt><trkpt lat="41.247675314836975" lon="9.232765509405356"><ele>34.0</ele><time>2026-05-03T13:42:40.999Z</time></trkpt><trkpt lat="41.24758581364572" lon="9.232722502250096"><ele>34.0</ele><time>2026-05-03T13:42:43.999Z</time></trkpt><trkpt lat="41.24754281056263" lon="9.232655967766096"><ele>34.0</ele><time>2026-05-03T13:42:45.999Z</time></trkpt><trkpt lat="41.24754345931173" lon="9.232542872061723"><ele>34.0</ele><time>2026-05-03T13:42:47.999Z</time></trkpt><trkpt lat="41.24753799267079" lon="9.232424644904583"><ele>34.0</ele><time>2026-05-03T13:42:50Z</time></trkpt><trkpt lat="41.24752331051663" lon="9.232318704667431"><ele>34.0</ele><time>2026-05-03T13:42:52Z</time></trkpt><trkpt lat="41.24750602660511" lon="9.232218034436675"><ele>34.0</ele><time>2026-05-03T13:42:54Z</time></trkpt><trkpt lat="41.24748008694597" lon="9.23210215200056"><ele>34.0</ele><time>2026-05-03T13:42:56Z</time></trkpt><trkpt lat="41.24745207047902" lon="9.231966374921178"><ele>34.0</ele><time>2026-05-03T13:42:58Z</time></trkpt><trkpt lat="41.24739319071954" lon="9.231838789177122"><ele>36.25</ele><time>2026-05-03T13:43:00Z</time></trkpt><trkpt lat="41.24730850519976" lon="9.231765741303672"><ele>38.5</ele><time>2026-05-03T13:43:02Z</time></trkpt><trkpt lat="41.24719750356863" lon="9.231726361922458"><ele>40.75</ele><time>2026-05-03T13:43:04Z</time></trkpt><trkpt lat="41.24707993861958" lon="9.231722617783259"><ele>43.0</ele><time>2026-05-03T13:43:06Z</time></trkpt><trkpt lat="41.246956296251824" lon="9.231697695111542"><ele>43.599999999999994</ele><time>2026-05-03T13:43:08Z</time></trkpt><trkpt lat="41.24685137888963" lon="9.231637098460086"><ele>44.199999999999996</ele><time>2026-05-03T13:43:10Z</time></trkpt><trkpt lat="41.246759405349316" lon="9.231561208947905"><ele>44.8</ele><time>2026-05-03T13:43:12Z</time></trkpt><trkpt lat="41.24667761644459" lon="9.231452935867084"><ele>45.4</ele><time>2026-05-03T13:43:14Z</time></trkpt><trkpt lat="41.246626242150754" lon="9.231403558540222"><ele>46.0</ele><time>2026-05-03T13:43:15Z</time></trkpt><trkpt lat="41.246569928967354" lon="9.231349433644969"><ele>46.5</ele><time>2026-05-03T13:43:16Z</time></trkpt><trkpt lat="41.246512557926984" lon="9.231297914838095"><ele>47.0</ele><time>2026-05-03T13:43:17Z</time></trkpt><trkpt lat="41.246456818164056" lon="9.231246527714726"><ele>47.5</ele><time>2026-05-03T13:43:18Z</time></trkpt><trkpt lat="41.24636563191223" lon="9.231168852324297"><ele>48.0</ele><time>2026-05-03T13:43:20Z</time></trkpt><trkpt lat="41.246313868366606" lon="9.231037158627197"><ele>48.49999999999999</ele><time>2026-05-03T13:43:22Z</time></trkpt><trkpt lat="41.24629570916231" lon="9.230954477689815"><ele>49.0</ele><time>2026-05-03T13:43:23Z</time></trkpt><trkpt lat="41.24628813808077" lon="9.230866964167927"><ele>48.99999999999999</ele><time>2026-05-03T13:43:24Z</time></trkpt><trkpt lat="41.24630255119183" lon="9.230776293188796"><ele>49.0</ele><time>2026-05-03T13:43:25Z</time></trkpt><trkpt lat="41.24630544419417" lon="9.230692036147342"><ele>49.0</ele><time>2026-05-03T13:43:26Z</time></trkpt><trkpt lat="41.24637215054567" lon="9.230620285434012"><ele>49.0</ele><time>2026-05-03T13:43:27Z</time></trkpt><trkpt lat="41.246422694878184" lon="9.230563874163433"><ele>48.99999999999999</ele><time>2026-05-03T13:43:28Z</time></trkpt><trkpt lat="41.24650605984064" lon="9.230443188231645"><ele>49.0</ele><time>2026-05-03T13:43:30Z</time></trkpt><trkpt lat="41.24652839836262" lon="9.230290975582104"><ele>49.666666666666664</ele><time>2026-05-03T13:43:32Z</time></trkpt><trkpt lat="41.24647227088872" lon="9.230144997754657"><ele>50.33333333333333</ele><time>2026-05-03T13:43:33.999Z</time></trkpt><trkpt lat="41.24642441486615" lon="9.230081604721372"><ele>51.0</ele><time>2026-05-03T13:43:34.999Z</time></trkpt><trkpt lat="41.246368961423954" lon="9.23003051326491"><ele>51.66666666666667</ele><time>2026-05-03T13:43:35.999Z</time></trkpt><trkpt lat="41.24630349313349" lon="9.229967254980911"><ele>52.333333333333336</ele><time>2026-05-03T13:43:36.999Z</time></trkpt><trkpt lat="41.246231450852044" lon="9.229904795254566"><ele>53.0</ele><time>2026-05-03T13:43:37.999Z</time></trkpt><trkpt lat="41.246082949141034" lon="9.229762901368566"><ele>54.2</ele><time>2026-05-03T13:43:39.999Z</time></trkpt><trkpt lat="41.24599903065271" lon="9.22970103521799"><ele>55.4</ele><time>2026-05-03T13:43:40.999Z</time></trkpt><trkpt lat="41.24591199743323" lon="9.229641008728594"><ele>56.60000000000001</ele><time>2026-05-03T13:43:41.999Z</time></trkpt><trkpt lat="41.24582211019757" lon="9.229580636540659"><ele>57.800000000000004</ele><time>2026-05-03T13:43:42.999Z</time></trkpt><trkpt lat="41.24572278230842" lon="9.229540680868714"><ele>59.0</ele><time>2026-05-03T13:43:43.999Z</time></trkpt><trkpt lat="41.24563541040201" lon="9.229463824570827"><ele>58.400000000000006</ele><time>2026-05-03T13:43:44.999Z</time></trkpt><trkpt lat="41.24553599391298" lon="9.229430067422337"><ele>57.800000000000004</ele><time>2026-05-03T13:43:45.999Z</time></trkpt><trkpt lat="41.24545109803309" lon="9.229359070285556"><ele>57.199999999999996</ele><time>2026-05-03T13:43:46.999Z</time></trkpt><trkpt lat="41.245358813163165" lon="9.229306469439798"><ele>56.599999999999994</ele><time>2026-05-03T13:43:47.999Z</time></trkpt><trkpt lat="41.24527098622487" lon="9.229253057735571"><ele>56.0</ele><time>2026-05-03T13:43:48.999Z</time></trkpt><trkpt lat="41.245174726880194" lon="9.229216655149807"><ele>56.00000000000001</ele><time>2026-05-03T13:43:49.999Z</time></trkpt><trkpt lat="41.245090762759475" lon="9.229163603342723"><ele>56.0</ele><time>2026-05-03T13:43:50.999Z</time></trkpt><trkpt lat="41.245010677415266" lon="9.229116505882411"><ele>56.0</ele><time>2026-05-03T13:43:51.999Z</time></trkpt><trkpt lat="41.24493586622182" lon="9.229081806685384"><ele>56.0</ele><time>2026-05-03T13:43:52.999Z</time></trkpt><trkpt lat="41.24485882043167" lon="9.229060063084265"><ele>56.00000000000001</ele><time>2026-05-03T13:43:53.999Z</time></trkpt><trkpt lat="41.24477640134393" lon="9.229044815629086"><ele>56.0</ele><time>2026-05-03T13:43:54.999Z</time></trkpt><trkpt lat="41.2446900378872" lon="9.229011533220506"><ele>55.0</ele><time>2026-05-03T13:43:55.999Z</time></trkpt><trkpt lat="41.24459446976963" lon="9.229015103110726"><ele>53.99999999999999</ele><time>2026-05-03T13:43:56.999Z</time></trkpt><trkpt lat="41.244499011172245" lon="9.22903652210832"><ele>53.0</ele><time>2026-05-03T13:43:57.999Z</time></trkpt><trkpt lat="41.24439745137644" lon="9.22906936669681"><ele>52.0</ele><time>2026-05-03T13:43:58.999Z</time></trkpt><trkpt lat="41.24429803367962" lon="9.229113366405516"><ele>51.0</ele><time>2026-05-03T13:43:59.999Z</time></trkpt><trkpt lat="41.244203974636186" lon="9.229181561440315"><ele>51.0</ele><time>2026-05-03T13:44:00.999Z</time></trkpt><trkpt lat="41.244094696921884" lon="9.229204230664566"><ele>51.0</ele><time>2026-05-03T13:44:01.999Z</time></trkpt><trkpt lat="41.24398872563478" lon="9.229248486542335"><ele>51.0</ele><time>2026-05-03T13:44:02.999Z</time></trkpt><trkpt lat="41.243881966468166" lon="9.22929892259247"><ele>51.0</ele><time>2026-05-03T13:44:03.999Z</time></trkpt><trkpt lat="41.243776050397514" lon="9.229352594640327"><ele>51.0</ele><time>2026-05-03T13:44:04.999Z</time></trkpt><trkpt lat="41.243675376274695" lon="9.22940402777474"><ele>50.833333333333336</ele><time>2026-05-03T13:44:05.999Z</time></trkpt><trkpt lat="41.24358198281729" lon="9.229451741959389"><ele>50.66666666666667</ele><time>2026-05-03T13:44:06.999Z</time></trkpt><trkpt lat="41.24349392449893" lon="9.22949356113745"><ele>50.5</ele><time>2026-05-03T13:44:07.999Z</time></trkpt><trkpt lat="41.24341303946383" lon="9.229532708190526"><ele>50.333333333333336</ele><time>2026-05-03T13:44:08.999Z</time></trkpt><trkpt lat="41.24333494379438" lon="9.229568252954772"><ele>50.16666666666667</ele><time>2026-05-03T13:44:09.999Z</time></trkpt><trkpt lat="41.24325634205484" lon="9.229604092482193"><ele>50.0</ele><time>2026-05-03T13:44:10.999Z</time></trkpt><trkpt lat="41.243178164564206" lon="9.229652349580128"><ele>48.8</ele><time>2026-05-03T13:44:11.999Z</time></trkpt><trkpt lat="41.24309051468439" lon="9.22964918226313"><ele>47.6</ele><time>2026-05-03T13:44:12.999Z</time></trkpt><trkpt lat="41.2429946988752" lon="9.22963691927099"><ele>46.400000000000006</ele><time>2026-05-03T13:44:13.999Z</time></trkpt><trkpt lat="41.24289278789238" lon="9.229618971796246"><ele>45.2</ele><time>2026-05-03T13:44:14.999Z</time></trkpt><trkpt lat="41.24278558046559" lon="9.229582274491575"><ele>44.0</ele><time>2026-05-03T13:44:15.999Z</time></trkpt><trkpt lat="41.242674937040015" lon="9.22956279188847"><ele>44.0</ele><time>2026-05-03T13:44:16.999Z</time></trkpt><trkpt lat="41.242564805321635" lon="9.229562306079536"><ele>44.0</ele><time>2026-05-03T13:44:17.999Z</time></trkpt><trkpt lat="41.24248232084342" lon="9.229507643870969"><ele>44.0</ele><time>2026-05-03T13:44:18.999Z</time></trkpt><trkpt lat="41.24238521287435" lon="9.229382539348558"><ele>44.0</ele><time>2026-05-03T13:44:20.999Z</time></trkpt><trkpt lat="41.24234777474473" lon="9.229301487029195"><ele>44.0</ele><time>2026-05-03T13:44:21.999Z</time></trkpt><trkpt lat="41.242309736247584" lon="9.229201346150942"><ele>43.400000000000006</ele><time>2026-05-03T13:44:22.999Z</time></trkpt><trkpt lat="41.24227360655174" lon="9.229103685325832"><ele>42.8</ele><time>2026-05-03T13:44:23.999Z</time></trkpt><trkpt lat="41.242236243025076" lon="9.22898795762453"><ele>42.2</ele><time>2026-05-03T13:44:24.999Z</time></trkpt><trkpt lat="41.24220274178775" lon="9.228872210984619"><ele>41.599999999999994</ele><time>2026-05-03T13:44:25.999Z</time></trkpt><trkpt lat="41.242163276140644" lon="9.228754964299977"><ele>41.0</ele><time>2026-05-03T13:44:26.999Z</time></trkpt><trkpt lat="41.242120747498255" lon="9.228635107044974"><ele>41.0</ele><time>2026-05-03T13:44:27.999Z</time></trkpt><trkpt lat="41.24207896280641" lon="9.228510594888956"><ele>41.0</ele><time>2026-05-03T13:44:28.999Z</time></trkpt><trkpt lat="41.242035000286705" lon="9.228385024367757"><ele>41.0</ele><time>2026-05-03T13:44:29.999Z</time></trkpt><trkpt lat="41.24198458165783" lon="9.228263482923458"><ele>41.0</ele><time>2026-05-03T13:44:30.999Z</time></trkpt><trkpt lat="41.241928941453246" lon="9.228140011532147"><ele>41.0</ele><time>2026-05-03T13:44:31.999Z</time></trkpt><trkpt lat="41.24186945241514" lon="9.228005953754439"><ele>42.0</ele><time>2026-05-03T13:44:32.999Z</time></trkpt><trkpt lat="41.241804184245616" lon="9.227871513372127"><ele>43.0</ele><time>2026-05-03T13:44:33.999Z</time></trkpt><trkpt lat="41.24174084950115" lon="9.22773983379424"><ele>44.0</ele><time>2026-05-03T13:44:34.999Z</time></trkpt><trkpt lat="41.2416825494547" lon="9.227614687011204"><ele>45.0</ele><time>2026-05-03T13:44:35.999Z</time></trkpt><trkpt lat="41.24162473963795" lon="9.227500885917292"><ele>45.0</ele><time>2026-05-03T13:44:36.999Z</time></trkpt><trkpt lat="41.24157279896972" lon="9.22738756673617"><ele>45.0</ele><time>2026-05-03T13:44:37.999Z</time></trkpt><trkpt lat="41.241525988475864" lon="9.227277004787817"><ele>45.0</ele><time>2026-05-03T13:44:38.999Z</time></trkpt><trkpt lat="41.241473837826575" lon="9.227177468413062"><ele>45.0</ele><time>2026-05-03T13:44:39.999Z</time></trkpt><trkpt lat="41.24141333290899" lon="9.227083395299433"><ele>45.0</ele><time>2026-05-03T13:44:40.999Z</time></trkpt><trkpt lat="41.24134857905936" lon="9.226993347985404"><ele>45.2</ele><time>2026-05-03T13:44:41.999Z</time></trkpt><trkpt lat="41.24128116636989" lon="9.226908677147682"><ele>45.4</ele><time>2026-05-03T13:44:42.999Z</time></trkpt><trkpt lat="41.24121046001428" lon="9.22683261839966"><ele>45.599999999999994</ele><time>2026-05-03T13:44:43.999Z</time></trkpt><trkpt lat="41.24113402341031" lon="9.226757329391893"><ele>45.8</ele><time>2026-05-03T13:44:44.999Z</time></trkpt><trkpt lat="41.241049713237885" lon="9.226685104374804"><ele>46.0</ele><time>2026-05-03T13:44:45.999Z</time></trkpt><trkpt lat="41.240958451147044" lon="9.226608559125353"><ele>46.0</ele><time>2026-05-03T13:44:46.999Z</time></trkpt><trkpt lat="41.24086217149539" lon="9.226524495222053"><ele>46.0</ele><time>2026-05-03T13:44:47.999Z</time></trkpt><trkpt lat="41.24076980442051" lon="9.226425881405243"><ele>46.0</ele><time>2026-05-03T13:44:48.999Z</time></trkpt><trkpt lat="41.24068740096304" lon="9.226321756827174"><ele>46.0</ele><time>2026-05-03T13:44:49.999Z</time></trkpt><trkpt lat="41.240612312173255" lon="9.226207406412795"><ele>46.5</ele><time>2026-05-03T13:44:50.999Z</time></trkpt><trkpt lat="41.240540167743404" lon="9.226077988666487"><ele>47.0</ele><time>2026-05-03T13:44:51.999Z</time></trkpt><trkpt lat="41.24047658158437" lon="9.225952125931213"><ele>47.5</ele><time>2026-05-03T13:44:52.999Z</time></trkpt><trkpt lat="41.240435192255845" lon="9.22580389408212"><ele>48.0</ele><time>2026-05-03T13:44:53.999Z</time></trkpt><trkpt lat="41.24038187020762" lon="9.225661022182543"><ele>48.25</ele><time>2026-05-03T13:44:55Z</time></trkpt><trkpt lat="41.24032862941227" lon="9.225517745784671"><ele>48.5</ele><time>2026-05-03T13:44:56Z</time></trkpt><trkpt lat="41.24025892916705" lon="9.225382050757755"><ele>48.75</ele><time>2026-05-03T13:44:57Z</time></trkpt><trkpt lat="41.24020148192165" lon="9.225230479488294"><ele>49.0</ele><time>2026-05-03T13:44:58Z</time></trkpt><trkpt lat="41.24013771475361" lon="9.225080184201031"><ele>49.0</ele><time>2026-05-03T13:44:59Z</time></trkpt><trkpt lat="41.24007024653938" lon="9.224938184503982"><ele>49.0</ele><time>2026-05-03T13:45:00Z</time></trkpt><trkpt lat="41.24000421696249" lon="9.224809485631807"><ele>49.0</ele><time>2026-05-03T13:45:01Z</time></trkpt><trkpt lat="41.23993493818862" lon="9.224691095212396"><ele>49.0</ele><time>2026-05-03T13:45:02Z</time></trkpt><trkpt lat="41.239862105041205" lon="9.224576847169997"><ele>50.6</ele><time>2026-05-03T13:45:03Z</time></trkpt><trkpt lat="41.23978743669526" lon="9.224470863586292"><ele>52.2</ele><time>2026-05-03T13:45:04Z</time></trkpt><trkpt lat="41.23972572867637" lon="9.22435554725399"><ele>53.800000000000004</ele><time>2026-05-03T13:45:05Z</time></trkpt><trkpt lat="41.23965747784824" lon="9.224260856211961"><ele>55.400000000000006</ele><time>2026-05-03T13:45:06Z</time></trkpt><trkpt lat="41.23958804980296" lon="9.224174670497247"><ele>57.0</ele><time>2026-05-03T13:45:07Z</time></trkpt><trkpt lat="41.23954360697976" lon="9.224063087509457"><ele>57.8</ele><time>2026-05-03T13:45:08Z</time></trkpt><trkpt lat="41.23950797030032" lon="9.223941411349303"><ele>58.6</ele><time>2026-05-03T13:45:09Z</time></trkpt><trkpt lat="41.23947425976705" lon="9.223819519050613"><ele>59.39999999999999</ele><time>2026-05-03T13:45:10Z</time></trkpt><trkpt lat="41.23943584300808" lon="9.223700409483227"><ele>60.199999999999996</ele><time>2026-05-03T13:45:11Z</time></trkpt><trkpt lat="41.23938675366725" lon="9.223587108228898"><ele>61.0</ele><time>2026-05-03T13:45:12Z</time></trkpt><trkpt lat="41.239331977779045" lon="9.223481411972617"><ele>61.0</ele><time>2026-05-03T13:45:13Z</time></trkpt><trkpt lat="41.23927695388592" lon="9.223379083272196"><ele>60.99999999999999</ele><time>2026-05-03T13:45:14Z</time></trkpt><trkpt lat="41.23921903323486" lon="9.223281309387028"><ele>60.99999999999999</ele><time>2026-05-03T13:45:15Z</time></trkpt><trkpt lat="41.23915936813836" lon="9.22317931346021"><ele>61.0</ele><time>2026-05-03T13:45:16Z</time></trkpt><trkpt lat="41.23910039775521" lon="9.223073186846566"><ele>61.0</ele><time>2026-05-03T13:45:17Z</time></trkpt><trkpt lat="41.239033854711856" lon="9.222956759298382"><ele>61.4</ele><time>2026-05-03T13:45:18Z</time></trkpt><trkpt lat="41.238967417580334" lon="9.222842012779376"><ele>61.8</ele><time>2026-05-03T13:45:19Z</time></trkpt><trkpt lat="41.238897189103525" lon="9.222721080939863"><ele>62.199999999999996</ele><time>2026-05-03T13:45:20Z</time></trkpt><trkpt lat="41.23882800225028" lon="9.222600758477995"><ele>62.599999999999994</ele><time>2026-05-03T13:45:21Z</time></trkpt><trkpt lat="41.23878185752712" lon="9.222477574618926"><ele>63.0</ele><time>2026-05-03T13:45:22Z</time></trkpt><trkpt lat="41.238742034108675" lon="9.222380982226921"><ele>63.0</ele><time>2026-05-03T13:45:23Z</time></trkpt><trkpt lat="41.23872095472954" lon="9.222298578095131"><ele>63.0</ele><time>2026-05-03T13:45:24Z</time></trkpt><trkpt lat="41.23871522271183" lon="9.222115398848496"><ele>63.0</ele><time>2026-05-03T13:45:26Z</time></trkpt><trkpt lat="41.23873614469077" lon="9.221986927969063"><ele>63.0</ele><time>2026-05-03T13:45:27Z</time></trkpt><trkpt lat="41.238763435784605" lon="9.221829748866366"><ele>63.0</ele><time>2026-05-03T13:45:28Z</time></trkpt><trkpt lat="41.23875886444809" lon="9.221653196244883"><ele>63.0</ele><time>2026-05-03T13:45:28.999Z</time></trkpt><trkpt lat="41.238748942473904" lon="9.221511325014285"><ele>63.0</ele><time>2026-05-03T13:45:29.999Z</time></trkpt><trkpt lat="41.23870778398089" lon="9.221395780609933"><ele>63.0</ele><time>2026-05-03T13:45:30.999Z</time></trkpt><trkpt lat="41.23864654104939" lon="9.221313737587815"><ele>63.0</ele><time>2026-05-03T13:45:31.999Z</time></trkpt><trkpt lat="41.23856972877724" lon="9.22126707276407"><ele>63.0</ele><time>2026-05-03T13:45:32.999Z</time></trkpt><trkpt lat="41.238480469472265" lon="9.221242654741088"><ele>63.5</ele><time>2026-05-03T13:45:33.999Z</time></trkpt><trkpt lat="41.23837713613816" lon="9.221235814950314"><ele>64.0</ele><time>2026-05-03T13:45:34.999Z</time></trkpt><trkpt lat="41.23826353477716" lon="9.221237469419858"><ele>64.5</ele><time>2026-05-03T13:45:35.999Z</time></trkpt><trkpt lat="41.238143171990586" lon="9.221239765991015"><ele>65.0</ele><time>2026-05-03T13:45:36.999Z</time></trkpt><trkpt lat="41.23801636139355" lon="9.221244521697745"><ele>65.0</ele><time>2026-05-03T13:45:37.999Z</time></trkpt><trkpt lat="41.23789921983572" lon="9.221207518954891"><ele>65.0</ele><time>2026-05-03T13:45:38.999Z</time></trkpt><trkpt lat="41.23780800232497" lon="9.221161107575476"><ele>65.0</ele><time>2026-05-03T13:45:39.999Z</time></trkpt><trkpt lat="41.23773955440558" lon="9.221079877772437"><ele>65.0</ele><time>2026-05-03T13:45:40.999Z</time></trkpt><trkpt lat="41.23772799439216" lon="9.220938969186989"><ele>65.0</ele><time>2026-05-03T13:45:41.999Z</time></trkpt><trkpt lat="41.23770842318605" lon="9.220792221031793"><ele>65.25</ele><time>2026-05-03T13:45:42.999Z</time></trkpt><trkpt lat="41.23769437031935" lon="9.220629799201609"><ele>65.5</ele><time>2026-05-03T13:45:43.999Z</time></trkpt><trkpt lat="41.2376734690583" lon="9.220452176335755"><ele>65.75</ele><time>2026-05-03T13:45:44.999Z</time></trkpt><trkpt lat="41.23766150109731" lon="9.220268103738254"><ele>66.0</ele><time>2026-05-03T13:45:45.999Z</time></trkpt><trkpt lat="41.237659390301985" lon="9.220081837189483"><ele>66.0</ele><time>2026-05-03T13:45:46.999Z</time></trkpt><trkpt lat="41.23764880205393" lon="9.21988886268046"><ele>66.0</ele><time>2026-05-03T13:45:47.999Z</time></trkpt><trkpt lat="41.237639221150644" lon="9.219692710480727"><ele>66.0</ele><time>2026-05-03T13:45:48.999Z</time></trkpt><trkpt lat="41.237612172110715" lon="9.219500758831334"><ele>66.0</ele><time>2026-05-03T13:45:49.999Z</time></trkpt><trkpt lat="41.237574925831055" lon="9.219319045533403"><ele>66.39999999999999</ele><time>2026-05-03T13:45:50.999Z</time></trkpt><trkpt lat="41.237547691552855" lon="9.219161783544578"><ele>66.8</ele><time>2026-05-03T13:45:51.999Z</time></trkpt><trkpt lat="41.23752915314993" lon="9.219013486221984"><ele>67.19999999999999</ele><time>2026-05-03T13:45:52.999Z</time></trkpt><trkpt lat="41.23751493065794" lon="9.21888121878366"><ele>67.6</ele><time>2026-05-03T13:45:53.999Z</time></trkpt><trkpt lat="41.23749552897412" lon="9.218760103428153"><ele>68.0</ele><time>2026-05-03T13:45:54.999Z</time></trkpt><trkpt lat="41.237475197897474" lon="9.21865543425757"><ele>68.4</ele><time>2026-05-03T13:45:55.999Z</time></trkpt><trkpt lat="41.23746084075334" lon="9.218568376461628"><ele>68.8</ele><time>2026-05-03T13:45:56.999Z</time></trkpt><trkpt lat="41.23744795477789" lon="9.21845993638303"><ele>69.2</ele><time>2026-05-03T13:45:59.999Z</time></trkpt><trkpt lat="41.23743736394554" lon="9.218364801442771"><ele>69.6</ele><time>2026-05-03T13:46:01.999Z</time></trkpt><trkpt lat="41.23726513655045" lon="9.218341743203649"><ele>70.0</ele><time>2026-05-03T13:46:02.999Z</time></trkpt><trkpt lat="41.23718311551274" lon="9.218305965319988"><ele>70.4</ele><time>2026-05-03T13:46:03.999Z</time></trkpt><trkpt lat="41.237096551245585" lon="9.218258019188044"><ele>70.8</ele><time>2026-05-03T13:46:04.999Z</time></trkpt><trkpt lat="41.23700223909513" lon="9.218208366317004"><ele>71.2</ele><time>2026-05-03T13:46:05.999Z</time></trkpt><trkpt lat="41.236903503906646" lon="9.218156171999002"><ele>71.6</ele><time>2026-05-03T13:46:06.999Z</time></trkpt><trkpt lat="41.236801968260984" lon="9.218098758133092"><ele>72.0</ele><time>2026-05-03T13:46:07.999Z</time></trkpt><trkpt lat="41.23669950998905" lon="9.218040035479989"><ele>72.4</ele><time>2026-05-03T13:46:08.999Z</time></trkpt><trkpt lat="41.23659967402" lon="9.217977274082067"><ele>72.80000000000001</ele><time>2026-05-03T13:46:09.999Z</time></trkpt><trkpt lat="41.23651208468737" lon="9.217919178820015"><ele>73.2</ele><time>2026-05-03T13:46:10.999Z</time></trkpt><trkpt lat="41.23643822778313" lon="9.217866842722199"><ele>73.60000000000001</ele><time>2026-05-03T13:46:11.999Z</time></trkpt><trkpt lat="41.23636231155065" lon="9.217817289642374"><ele>74.0</ele><time>2026-05-03T13:46:12.999Z</time></trkpt><trkpt lat="41.23627972268637" lon="9.217763764512364"><ele>74.0</ele><time>2026-05-03T13:46:13.999Z</time></trkpt><trkpt lat="41.23618861027607" lon="9.217705592384945"><ele>74.0</ele><time>2026-05-03T13:46:14.999Z</time></trkpt><trkpt lat="41.23609792974003" lon="9.217618597772649"><ele>74.0</ele><time>2026-05-03T13:46:15.999Z</time></trkpt><trkpt lat="41.23599666489415" lon="9.217542467160014"><ele>74.0</ele><time>2026-05-03T13:46:16.999Z</time></trkpt><trkpt lat="41.23588021103502" lon="9.217476656623663"><ele>74.0</ele><time>2026-05-03T13:46:17.999Z</time></trkpt><trkpt lat="41.235766665096854" lon="9.21738351281137"><ele>74.0</ele><time>2026-05-03T13:46:18.999Z</time></trkpt><trkpt lat="41.23564933386346" lon="9.217292070177125"><ele>74.0</ele><time>2026-05-03T13:46:19.999Z</time></trkpt><trkpt lat="41.23552962428694" lon="9.217199403116984"><ele>74.0</ele><time>2026-05-03T13:46:20.999Z</time></trkpt><trkpt lat="41.23541220955264" lon="9.217110210893617"><ele>74.75</ele><time>2026-05-03T13:46:21.999Z</time></trkpt><trkpt lat="41.23529661945151" lon="9.21702233684154"><ele>75.5</ele><time>2026-05-03T13:46:22.999Z</time></trkpt><trkpt lat="41.23518041766341" lon="9.216938230177577"><ele>76.25</ele><time>2026-05-03T13:46:23.999Z</time></trkpt><trkpt lat="41.23506885861941" lon="9.216852022964988"><ele>77.0</ele><time>2026-05-03T13:46:24.999Z</time></trkpt><trkpt lat="41.234961428290624" lon="9.216762203149386"><ele>77.0</ele><time>2026-05-03T13:46:25.999Z</time></trkpt><trkpt lat="41.23488904790292" lon="9.216637940896064"><ele>77.0</ele><time>2026-05-03T13:46:26.999Z</time></trkpt><trkpt lat="41.23482201555687" lon="9.216514573441033"><ele>77.0</ele><time>2026-05-03T13:46:27.999Z</time></trkpt><trkpt lat="41.234753389059186" lon="9.216384807349943"><ele>77.0</ele><time>2026-05-03T13:46:28.999Z</time></trkpt><trkpt lat="41.23466719940708" lon="9.21626278065398"><ele>77.25</ele><time>2026-05-03T13:46:29.999Z</time></trkpt><trkpt lat="41.23459127049064" lon="9.216122957304808"><ele>77.5</ele><time>2026-05-03T13:46:30.999Z</time></trkpt><trkpt lat="41.23451350829888" lon="9.215979144049214"><ele>77.75</ele><time>2026-05-03T13:46:31.999Z</time></trkpt><trkpt lat="41.234435974092285" lon="9.21583120248603"><ele>78.0</ele><time>2026-05-03T13:46:32.999Z</time></trkpt><trkpt lat="41.23435464497763" lon="9.215681266907373"><ele>79.0</ele><time>2026-05-03T13:46:33.999Z</time></trkpt><trkpt lat="41.23427429805545" lon="9.21552642818385"><ele>80.0</ele><time>2026-05-03T13:46:34.999Z</time></trkpt><trkpt lat="41.23419554132016" lon="9.215365763469592"><ele>81.0</ele><time>2026-05-03T13:46:35.999Z</time></trkpt><trkpt lat="41.23410403692167" lon="9.215212582831374"><ele>82.0</ele><time>2026-05-03T13:46:36.999Z</time></trkpt><trkpt lat="41.234010559186515" lon="9.215056735740585"><ele>82.0</ele><time>2026-05-03T13:46:37.999Z</time></trkpt><trkpt lat="41.2339127036345" lon="9.214900983374221"><ele>82.0</ele><time>2026-05-03T13:46:38.999Z</time></trkpt><trkpt lat="41.233813184622775" lon="9.21474509763247"><ele>82.0</ele><time>2026-05-03T13:46:39.999Z</time></trkpt><trkpt lat="41.233711598839605" lon="9.214588329890905"><ele>82.0</ele><time>2026-05-03T13:46:40.999Z</time></trkpt><trkpt lat="41.23360842380309" lon="9.21443066063011"><ele>82.0</ele><time>2026-05-03T13:46:41.999Z</time></trkpt><trkpt lat="41.233506918018485" lon="9.214271710319744"><ele>82.0</ele><time>2026-05-03T13:46:42.999Z</time></trkpt><trkpt lat="41.233405745885776" lon="9.214112883238466"><ele>82.66666666666666</ele><time>2026-05-03T13:46:43.999Z</time></trkpt><trkpt lat="41.233302777329804" lon="9.213961029177739"><ele>83.33333333333333</ele><time>2026-05-03T13:46:44.999Z</time></trkpt><trkpt lat="41.23319784771178" lon="9.213817436208211"><ele>84.0</ele><time>2026-05-03T13:46:45.999Z</time></trkpt><trkpt lat="41.23309047690793" lon="9.213683186738141"><ele>84.0</ele><time>2026-05-03T13:46:46.999Z</time></trkpt><trkpt lat="41.23298604256422" lon="9.213547307873439"><ele>84.0</ele><time>2026-05-03T13:46:47.999Z</time></trkpt><trkpt lat="41.232884271459724" lon="9.213414940738616"><ele>84.0</ele><time>2026-05-03T13:46:48.999Z</time></trkpt><trkpt lat="41.232782864444154" lon="9.213291879811495"><ele>84.0</ele><time>2026-05-03T13:46:49.999Z</time></trkpt><trkpt lat="41.23266727682677" lon="9.213195320962017"><ele>85.0</ele><time>2026-05-03T13:46:50.999Z</time></trkpt><trkpt lat="41.23255138035139" lon="9.213108242331751"><ele>86.0</ele><time>2026-05-03T13:46:51.999Z</time></trkpt><trkpt lat="41.232440154835174" lon="9.213017351455385"><ele>87.0</ele><time>2026-05-03T13:46:52.999Z</time></trkpt><trkpt lat="41.23233281818285" lon="9.212925082013292"><ele>88.0</ele><time>2026-05-03T13:46:53.999Z</time></trkpt><trkpt lat="41.23222753240975" lon="9.21283355404757"><ele>88.80000000000001</ele><time>2026-05-03T13:46:54.999Z</time></trkpt><trkpt lat="41.232122115744204" lon="9.212748209416567"><ele>89.6</ele><time>2026-05-03T13:46:55.999Z</time></trkpt><trkpt lat="41.23201934057623" lon="9.212676959532216"><ele>90.4</ele><time>2026-05-03T13:46:56.999Z</time></trkpt><trkpt lat="41.231912294372336" lon="9.212636873683941"><ele>91.19999999999999</ele><time>2026-05-03T13:46:57.999Z</time></trkpt><trkpt lat="41.23181429337377" lon="9.212639900500927"><ele>92.0</ele><time>2026-05-03T13:46:58.999Z</time></trkpt><trkpt lat="41.23172248220506" lon="9.212681388767422"><ele>92.0</ele><time>2026-05-03T13:46:59.999Z</time></trkpt><trkpt lat="41.23162568477621" lon="9.212729004221805"><ele>92.0</ele><time>2026-05-03T13:47:01Z</time></trkpt><trkpt lat="41.2315238918486" lon="9.212726262804143"><ele>92.0</ele><time>2026-05-03T13:47:02Z</time></trkpt><trkpt lat="41.231431214998096" lon="9.212756006433684"><ele>92.0</ele><time>2026-05-03T13:47:03Z</time></trkpt><trkpt lat="41.2313477116173" lon="9.212767225063624"><ele>92.0</ele><time>2026-05-03T13:47:03.999Z</time></trkpt><trkpt lat="41.23126569565077" lon="9.212801263693075"><ele>91.39999999999999</ele><time>2026-05-03T13:47:05Z</time></trkpt><trkpt lat="41.23119379372192" lon="9.212850672940299"><ele>90.8</ele><time>2026-05-03T13:47:06Z</time></trkpt><trkpt lat="41.231135655164366" lon="9.21290775877278"><ele>90.2</ele><time>2026-05-03T13:47:07Z</time></trkpt><trkpt lat="41.23108824798371" lon="9.21296689656308"><ele>89.6</ele><time>2026-05-03T13:47:08Z</time></trkpt><trkpt lat="41.2310227577319" lon="9.213005621954144"><ele>89.0</ele><time>2026-05-03T13:47:10Z</time></trkpt><trkpt lat="41.23110903608671" lon="9.213221704921839"><ele>88.2</ele><time>2026-05-03T13:47:12Z</time></trkpt><trkpt lat="41.23116075143346" lon="9.213305416606579"><ele>87.4</ele><time>2026-05-03T13:47:13Z</time></trkpt><trkpt lat="41.23121926577893" lon="9.213393807583428"><ele>86.6</ele><time>2026-05-03T13:47:14Z</time></trkpt><trkpt lat="41.23128204324931" lon="9.213490520187554"><ele>85.8</ele><time>2026-05-03T13:47:15Z</time></trkpt><trkpt lat="41.231348340338535" lon="9.213590070301937"><ele>85.0</ele><time>2026-05-03T13:47:16Z</time></trkpt><trkpt lat="41.231410239375286" lon="9.213676898141294"><ele>85.0</ele><time>2026-05-03T13:47:17Z</time></trkpt><trkpt lat="41.23146879846551" lon="9.213753855425805"><ele>85.0</ele><time>2026-05-03T13:47:18Z</time></trkpt><trkpt lat="41.23152578992355" lon="9.213832727251047"><ele>85.0</ele><time>2026-05-03T13:47:19Z</time></trkpt><trkpt lat="41.231577696341795" lon="9.213918384912384"><ele>85.0</ele><time>2026-05-03T13:47:20Z</time></trkpt><trkpt lat="41.23161880398983" lon="9.214015192731999"><ele>85.0</ele><time>2026-05-03T13:47:21Z</time></trkpt><trkpt lat="41.23164496903077" lon="9.214119330868712"><ele>85.0</ele><time>2026-05-03T13:47:22Z</time></trkpt><trkpt lat="41.231653843875094" lon="9.21422721765215"><ele>84.0</ele><time>2026-05-03T13:47:23Z</time></trkpt><trkpt lat="41.23165705618767" lon="9.214337228529402"><ele>83.0</ele><time>2026-05-03T13:47:24Z</time></trkpt><trkpt lat="41.23165518910728" lon="9.214456472727093"><ele>82.0</ele><time>2026-05-03T13:47:25Z</time></trkpt><trkpt lat="41.23164860522583" lon="9.214581696245023"><ele>81.0</ele><time>2026-05-03T13:47:26Z</time></trkpt><trkpt lat="41.2316421374747" lon="9.214712251953102"><ele>80.0</ele><time>2026-05-03T13:47:27Z</time></trkpt><trkpt lat="41.23162919365456" lon="9.214845515215565"><ele>79.4</ele><time>2026-05-03T13:47:28Z</time></trkpt><trkpt lat="41.23158177776594" lon="9.214973016632811"><ele>78.8</ele><time>2026-05-03T13:47:29Z</time></trkpt><trkpt lat="41.23153921643388" lon="9.215104996329355"><ele>78.2</ele><time>2026-05-03T13:47:30Z</time></trkpt><trkpt lat="41.23149402354067" lon="9.215229920092371"><ele>77.6</ele><time>2026-05-03T13:47:31Z</time></trkpt><trkpt lat="41.23146357757537" lon="9.215351847091826"><ele>77.0</ele><time>2026-05-03T13:47:32Z</time></trkpt><trkpt lat="41.23141718234671" lon="9.215467310767599"><ele>77.0</ele><time>2026-05-03T13:47:33Z</time></trkpt><trkpt lat="41.23136902903403" lon="9.215582392337648"><ele>77.0</ele><time>2026-05-03T13:47:34Z</time></trkpt><trkpt lat="41.2313123563832" lon="9.215692557654526"><ele>77.0</ele><time>2026-05-03T13:47:34.999Z</time></trkpt><trkpt lat="41.23124929917539" lon="9.215801071622609"><ele>77.0</ele><time>2026-05-03T13:47:35.999Z</time></trkpt><trkpt lat="41.23118068649517" lon="9.215901504817845"><ele>77.0</ele><time>2026-05-03T13:47:36.999Z</time></trkpt><trkpt lat="41.23110559149869" lon="9.215981717527702"><ele>76.2</ele><time>2026-05-03T13:47:37.999Z</time></trkpt><trkpt lat="41.23102071695454" lon="9.216023443727273"><ele>75.4</ele><time>2026-05-03T13:47:38.999Z</time></trkpt><trkpt lat="41.230931866331815" lon="9.216004714049506"><ele>74.6</ele><time>2026-05-03T13:47:39.999Z</time></trkpt><trkpt lat="41.230837554324445" lon="9.216014762860711"><ele>73.8</ele><time>2026-05-03T13:47:40.999Z</time></trkpt><trkpt lat="41.230740324784776" lon="9.21605998545813"><ele>73.0</ele><time>2026-05-03T13:47:41.999Z</time></trkpt><trkpt lat="41.230639745121195" lon="9.216110096418442"><ele>72.25</ele><time>2026-05-03T13:47:42.999Z</time></trkpt><trkpt lat="41.230539757359715" lon="9.216191847223905"><ele>71.5</ele><time>2026-05-03T13:47:43.999Z</time></trkpt><trkpt lat="41.2304446051986" lon="9.216297215460942"><ele>70.75</ele><time>2026-05-03T13:47:44.999Z</time></trkpt><trkpt lat="41.230349729216385" lon="9.21641088456356"><ele>70.0</ele><time>2026-05-03T13:47:45.999Z</time></trkpt><trkpt lat="41.230246302215456" lon="9.216528486208848"><ele>69.5</ele><time>2026-05-03T13:47:46.999Z</time></trkpt><trkpt lat="41.23014352253574" lon="9.216650409967993"><ele>69.0</ele><time>2026-05-03T13:47:47.999Z</time></trkpt><trkpt lat="41.23003296528094" lon="9.216770255683183"><ele>68.5</ele><time>2026-05-03T13:47:48.999Z</time></trkpt><trkpt lat="41.229923526317926" lon="9.216893819788874"><ele>68.0</ele><time>2026-05-03T13:47:49.999Z</time></trkpt><trkpt lat="41.229810245332274" lon="9.217018377302788"><ele>67.25</ele><time>2026-05-03T13:47:50.999Z</time></trkpt><trkpt lat="41.22970404512024" lon="9.21713727259657"><ele>66.5</ele><time>2026-05-03T13:47:51.999Z</time></trkpt><trkpt lat="41.229609320009175" lon="9.217251690616976"><ele>65.75</ele><time>2026-05-03T13:47:52.999Z</time></trkpt><trkpt lat="41.22951728094683" lon="9.217375073053224"><ele>65.0</ele><time>2026-05-03T13:47:53.999Z</time></trkpt><trkpt lat="41.229433857008104" lon="9.217503560985886"><ele>64.75</ele><time>2026-05-03T13:47:54.999Z</time></trkpt><trkpt lat="41.229358557766005" lon="9.217626306227164"><ele>64.5</ele><time>2026-05-03T13:47:55.999Z</time></trkpt><trkpt lat="41.22928627368572" lon="9.217742607529406"><ele>64.25</ele><time>2026-05-03T13:47:56.999Z</time></trkpt><trkpt lat="41.22921370073911" lon="9.217860202878487"><ele>64.0</ele><time>2026-05-03T13:47:57.999Z</time></trkpt><trkpt lat="41.22912752837075" lon="9.217964287431121"><ele>64.0</ele><time>2026-05-03T13:47:58.999Z</time></trkpt><trkpt lat="41.229026470560704" lon="9.218048395638533"><ele>64.0</ele><time>2026-05-03T13:47:59.999Z</time></trkpt><trkpt lat="41.22891613999086" lon="9.218100322013571"><ele>64.0</ele><time>2026-05-03T13:48:00.999Z</time></trkpt><trkpt lat="41.22878815177148" lon="9.21808981233214"><ele>64.0</ele><time>2026-05-03T13:48:01.999Z</time></trkpt><trkpt lat="41.22865326142538" lon="9.218093618680038"><ele>64.25</ele><time>2026-05-03T13:48:02.999Z</time></trkpt><trkpt lat="41.22851037498227" lon="9.218106909014088"><ele>64.5</ele><time>2026-05-03T13:48:03.999Z</time></trkpt><trkpt lat="41.22835794914806" lon="9.218084687007723"><ele>64.75</ele><time>2026-05-03T13:48:04.999Z</time></trkpt><trkpt lat="41.22821159183705" lon="9.218068864694487"><ele>65.0</ele><time>2026-05-03T13:48:05.999Z</time></trkpt><trkpt lat="41.22805312188277" lon="9.21807369347584"><ele>65.75</ele><time>2026-05-03T13:48:06.999Z</time></trkpt><trkpt lat="41.227892733810116" lon="9.218073046427184"><ele>66.5</ele><time>2026-05-03T13:48:07.999Z</time></trkpt><trkpt lat="41.22777609585468" lon="9.218109978239633"><ele>67.25</ele><time>2026-05-03T13:48:08.999Z</time></trkpt><trkpt lat="41.2276176129706" lon="9.218106975408233"><ele>68.0</ele><time>2026-05-03T13:48:09.999Z</time></trkpt><trkpt lat="41.227455606258786" lon="9.218105405572533"><ele>69.25</ele><time>2026-05-03T13:48:10.999Z</time></trkpt><trkpt lat="41.227292657724405" lon="9.218122076425985"><ele>70.5</ele><time>2026-05-03T13:48:11.999Z</time></trkpt><trkpt lat="41.22714684142631" lon="9.218136508324207"><ele>71.75</ele><time>2026-05-03T13:48:12.999Z</time></trkpt><trkpt lat="41.22702087216984" lon="9.218146832646763"><ele>73.0</ele><time>2026-05-03T13:48:13.999Z</time></trkpt><trkpt lat="41.22690754326059" lon="9.21814678956678"><ele>73.0</ele><time>2026-05-03T13:48:14.999Z</time></trkpt><trkpt lat="41.22680300127131" lon="9.218150127814551"><ele>73.0</ele><time>2026-05-03T13:48:15.999Z</time></trkpt><trkpt lat="41.22670246777381" lon="9.218152929528184"><ele>73.0</ele><time>2026-05-03T13:48:16.999Z</time></trkpt><trkpt lat="41.22661727437509" lon="9.218155556112748"><ele>73.0</ele><time>2026-05-03T13:48:17.999Z</time></trkpt><trkpt lat="41.22655275982625" lon="9.218157523620668"><ele>73.0</ele><time>2026-05-03T13:48:18.999Z</time></trkpt><trkpt lat="41.2264834794451" lon="9.218142498709158"><ele>73.0</ele><time>2026-05-03T13:48:22.999Z</time></trkpt><trkpt lat="41.2264194356741" lon="9.218141323998228"><ele>74.25</ele><time>2026-05-03T13:48:26.999Z</time></trkpt><trkpt lat="41.22639778059707" lon="9.218346675614685"><ele>75.5</ele><time>2026-05-03T13:48:28.999Z</time></trkpt><trkpt lat="41.22640638857576" lon="9.218504812430625"><ele>76.75</ele><time>2026-05-03T13:48:29.999Z</time></trkpt><trkpt lat="41.226421226088455" lon="9.218694935571039"><ele>78.0</ele><time>2026-05-03T13:48:30.999Z</time></trkpt><trkpt lat="41.226418701353204" lon="9.218875288762284"><ele>77.5</ele><time>2026-05-03T13:48:31.999Z</time></trkpt><trkpt lat="41.226418637719426" lon="9.219066366809963"><ele>77.0</ele><time>2026-05-03T13:48:32.999Z</time></trkpt><trkpt lat="41.22642355540466" lon="9.21926242706781"><ele>76.5</ele><time>2026-05-03T13:48:33.999Z</time></trkpt><trkpt lat="41.22643569438728" lon="9.219466619693353"><ele>76.0</ele><time>2026-05-03T13:48:34.999Z</time></trkpt><trkpt lat="41.22645184971696" lon="9.219670218751977"><ele>75.66666666666666</ele><time>2026-05-03T13:48:35.999Z</time></trkpt><trkpt lat="41.22647184478953" lon="9.219887147736275"><ele>75.33333333333333</ele><time>2026-05-03T13:48:36.999Z</time></trkpt><trkpt lat="41.226488832526286" lon="9.220110745042472"><ele>75.0</ele><time>2026-05-03T13:48:37.999Z</time></trkpt><trkpt lat="41.226505748486595" lon="9.220338912010812"><ele>73.66666666666667</ele><time>2026-05-03T13:48:38.999Z</time></trkpt><trkpt lat="41.22652234469367" lon="9.22056727086678"><ele>72.33333333333334</ele><time>2026-05-03T13:48:39.999Z</time></trkpt><trkpt lat="41.22654112875528" lon="9.220796221028298"><ele>71.0</ele><time>2026-05-03T13:48:40.999Z</time></trkpt><trkpt lat="41.226560127217766" lon="9.221025467663631"><ele>70.0</ele><time>2026-05-03T13:48:41.999Z</time></trkpt><trkpt lat="41.22657975671477" lon="9.221257196726484"><ele>69.0</ele><time>2026-05-03T13:48:42.999Z</time></trkpt><trkpt lat="41.2265967764702" lon="9.221491755493462"><ele>68.0</ele><time>2026-05-03T13:48:43.999Z</time></trkpt><trkpt lat="41.22661363956495" lon="9.221726212862889"><ele>66.66666666666667</ele><time>2026-05-03T13:48:44.999Z</time></trkpt><trkpt lat="41.22663030910057" lon="9.221962116238206"><ele>65.33333333333333</ele><time>2026-05-03T13:48:45.999Z</time></trkpt><trkpt lat="41.22664769753788" lon="9.222194659872017"><ele>64.0</ele><time>2026-05-03T13:48:46.999Z</time></trkpt><trkpt lat="41.226661944022226" lon="9.222427483615872"><ele>64.0</ele><time>2026-05-03T13:48:47.999Z</time></trkpt><trkpt lat="41.226669117075645" lon="9.222659530015214"><ele>64.0</ele><time>2026-05-03T13:48:48.999Z</time></trkpt><trkpt lat="41.22665941774416" lon="9.222889592830805"><ele>64.0</ele><time>2026-05-03T13:48:49.999Z</time></trkpt><trkpt lat="41.226632277956504" lon="9.223118668268942"><ele>63.33333333333333</ele><time>2026-05-03T13:48:50.999Z</time></trkpt><trkpt lat="41.22659014026583" lon="9.223343666571918"><ele>62.66666666666667</ele><time>2026-05-03T13:48:51.999Z</time></trkpt><trkpt lat="41.22654679684617" lon="9.22356626248305"><ele>62.0</ele><time>2026-05-03T13:48:52.999Z</time></trkpt><trkpt lat="41.22650261546437" lon="9.22378892139512"><ele>64.33333333333334</ele><time>2026-05-03T13:48:53.999Z</time></trkpt><trkpt lat="41.22645588512499" lon="9.224007729310333"><ele>66.66666666666667</ele><time>2026-05-03T13:48:54.999Z</time></trkpt><trkpt lat="41.22639487289896" lon="9.224221119131771"><ele>69.0</ele><time>2026-05-03T13:48:55.999Z</time></trkpt><trkpt lat="41.226322436962135" lon="9.224426951625198"><ele>69.0</ele><time>2026-05-03T13:48:56.999Z</time></trkpt><trkpt lat="41.226251209245184" lon="9.224631026067014"><ele>69.0</ele><time>2026-05-03T13:48:57.999Z</time></trkpt><trkpt lat="41.22618264818279" lon="9.224835334358577"><ele>69.0</ele><time>2026-05-03T13:48:58.999Z</time></trkpt><trkpt lat="41.226116157051486" lon="9.22503980535653"><ele>67.0</ele><time>2026-05-03T13:48:59.999Z</time></trkpt><trkpt lat="41.22605021575111" lon="9.2252445203197"><ele>65.0</ele><time>2026-05-03T13:49:00.999Z</time></trkpt><trkpt lat="41.225984413898985" lon="9.22545126494475"><ele>63.0</ele><time>2026-05-03T13:49:01.999Z</time></trkpt><trkpt lat="41.225917378588605" lon="9.22566262046931"><ele>61.66666666666667</ele><time>2026-05-03T13:49:02.999Z</time></trkpt><trkpt lat="41.22584940738685" lon="9.22587604725893"><ele>60.333333333333336</ele><time>2026-05-03T13:49:03.999Z</time></trkpt><trkpt lat="41.2257798155511" lon="9.226091966428077"><ele>59.0</ele><time>2026-05-03T13:49:04.999Z</time></trkpt><trkpt lat="41.22570786793785" lon="9.226310351125093"><ele>60.333333333333336</ele><time>2026-05-03T13:49:05.999Z</time></trkpt><trkpt lat="41.22563469714988" lon="9.2265337069316"><ele>61.66666666666667</ele><time>2026-05-03T13:49:07Z</time></trkpt><trkpt lat="41.225559988825715" lon="9.226758060646288"><ele>63.0</ele><time>2026-05-03T13:49:08Z</time></trkpt><trkpt lat="41.22548454456244" lon="9.226984185931581"><ele>63.0</ele><time>2026-05-03T13:49:09Z</time></trkpt><trkpt lat="41.22540956057177" lon="9.227212858129983"><ele>63.0</ele><time>2026-05-03T13:49:10Z</time></trkpt><trkpt lat="41.22533628686084" lon="9.227447525990865"><ele>63.0</ele><time>2026-05-03T13:49:11Z</time></trkpt><trkpt lat="41.225274390514684" lon="9.227688648831881"><ele>61.66666666666667</ele><time>2026-05-03T13:49:12Z</time></trkpt><trkpt lat="41.22524214140595" lon="9.22794239054277"><ele>60.333333333333336</ele><time>2026-05-03T13:49:13Z</time></trkpt><trkpt lat="41.225245929688185" lon="9.228204437883418"><ele>59.0</ele><time>2026-05-03T13:49:14Z</time></trkpt><trkpt lat="41.22527535158937" lon="9.228457555977633"><ele>58.333333333333336</ele><time>2026-05-03T13:49:15Z</time></trkpt><trkpt lat="41.225304544705686" lon="9.228692863625366"><ele>57.66666666666667</ele><time>2026-05-03T13:49:16Z</time></trkpt><trkpt lat="41.22531075872027" lon="9.228912545116204"><ele>57.0</ele><time>2026-05-03T13:49:17Z</time></trkpt><trkpt lat="41.2252777791073" lon="9.229123309118965"><ele>57.0</ele><time>2026-05-03T13:49:18Z</time></trkpt><trkpt lat="41.225200052452095" lon="9.229330303846755"><ele>57.0</ele><time>2026-05-03T13:49:19Z</time></trkpt><trkpt lat="41.22508720855261" lon="9.22950286763532"><ele>57.0</ele><time>2026-05-03T13:49:20Z</time></trkpt><trkpt lat="41.22499289540694" lon="9.22969873110442"><ele>57.0</ele><time>2026-05-03T13:49:21Z</time></trkpt><trkpt lat="41.22488469283068" lon="9.22988052533145"><ele>57.0</ele><time>2026-05-03T13:49:22Z</time></trkpt><trkpt lat="41.22477640520554" lon="9.230067468479403"><ele>57.0</ele><time>2026-05-03T13:49:23Z</time></trkpt><trkpt lat="41.22466737230098" lon="9.23026049142441"><ele>57.0</ele><time>2026-05-03T13:49:24Z</time></trkpt><trkpt lat="41.22455675042431" lon="9.230456006634512"><ele>57.0</ele><time>2026-05-03T13:49:25Z</time></trkpt><trkpt lat="41.22444570054842" lon="9.230653418453004"><ele>57.0</ele><time>2026-05-03T13:49:26Z</time></trkpt><trkpt lat="41.22434203389194" lon="9.23084733698284"><ele>55.33333333333333</ele><time>2026-05-03T13:49:27Z</time></trkpt><trkpt lat="41.22425914420914" lon="9.231040401394575"><ele>53.666666666666664</ele><time>2026-05-03T13:49:28Z</time></trkpt><trkpt lat="41.22421150731319" lon="9.231254572821232"><ele>52.0</ele><time>2026-05-03T13:49:29Z</time></trkpt><trkpt lat="41.22419295756423" lon="9.231483978971452"><ele>50.666666666666664</ele><time>2026-05-03T13:49:30Z</time></trkpt><trkpt lat="41.22420873787179" lon="9.231713807431923"><ele>49.33333333333333</ele><time>2026-05-03T13:49:31Z</time></trkpt><trkpt lat="41.22425194842916" lon="9.231938560444217"><ele>48.0</ele><time>2026-05-03T13:49:32Z</time></trkpt><trkpt lat="41.22430770693711" lon="9.23216530105392"><ele>48.0</ele><time>2026-05-03T13:49:33Z</time></trkpt><trkpt lat="41.224353955372116" lon="9.232394384997349"><ele>48.0</ele><time>2026-05-03T13:49:34Z</time></trkpt><trkpt lat="41.224395224302654" lon="9.232628239489507"><ele>48.0</ele><time>2026-05-03T13:49:35Z</time></trkpt><trkpt lat="41.22443116737138" lon="9.232851539773554"><ele>48.0</ele><time>2026-05-03T13:49:36Z</time></trkpt><trkpt lat="41.224456835402584" lon="9.23305623405943"><ele>48.0</ele><time>2026-05-03T13:49:37Z</time></trkpt><trkpt lat="41.224449797528806" lon="9.233246874681925"><ele>48.0</ele><time>2026-05-03T13:49:38Z</time></trkpt><trkpt lat="41.22439249707759" lon="9.233414078351101"><ele>48.0</ele><time>2026-05-03T13:49:39Z</time></trkpt><trkpt lat="41.2242725583394" lon="9.233544691148916"><ele>48.0</ele><time>2026-05-03T13:49:40Z</time></trkpt><trkpt lat="41.22417552609007" lon="9.233715246810313"><ele>48.0</ele><time>2026-05-03T13:49:41Z</time></trkpt><trkpt lat="41.22405814359821" lon="9.23387089046595"><ele>48.0</ele><time>2026-05-03T13:49:42Z</time></trkpt><trkpt lat="41.22394115307768" lon="9.234034688644186"><ele>47.666666666666664</ele><time>2026-05-03T13:49:43Z</time></trkpt><trkpt lat="41.22382014354043" lon="9.234210082941942"><ele>47.33333333333333</ele><time>2026-05-03T13:49:44Z</time></trkpt><trkpt lat="41.22369545990816" lon="9.234389104015143"><ele>47.0</ele><time>2026-05-03T13:49:45Z</time></trkpt><trkpt lat="41.22356743189375" lon="9.234570340914722"><ele>47.0</ele><time>2026-05-03T13:49:46Z</time></trkpt><trkpt lat="41.223435119920616" lon="9.234759976159909"><ele>47.0</ele><time>2026-05-03T13:49:47Z</time></trkpt><trkpt lat="41.223296987807714" lon="9.234951809068596"><ele>47.0</ele><time>2026-05-03T13:49:48Z</time></trkpt><trkpt lat="41.22315595538459" lon="9.235148953582467"><ele>47.33333333333333</ele><time>2026-05-03T13:49:49Z</time></trkpt><trkpt lat="41.2230108597618" lon="9.235348842337856"><ele>47.666666666666664</ele><time>2026-05-03T13:49:50Z</time></trkpt><trkpt lat="41.22286269419664" lon="9.235551841362689"><ele>48.0</ele><time>2026-05-03T13:49:51Z</time></trkpt><trkpt lat="41.22271362591439" lon="9.235757943579676"><ele>48.0</ele><time>2026-05-03T13:49:52Z</time></trkpt><trkpt lat="41.222564383889605" lon="9.235963213898447"><ele>48.0</ele><time>2026-05-03T13:49:52.999Z</time></trkpt><trkpt lat="41.22241562631557" lon="9.23616760609971"><ele>48.0</ele><time>2026-05-03T13:49:53.999Z</time></trkpt><trkpt lat="41.222266756308784" lon="9.236371259965942"><ele>48.0</ele><time>2026-05-03T13:49:54.999Z</time></trkpt><trkpt lat="41.22211740577923" lon="9.2365743131898"><ele>48.0</ele><time>2026-05-03T13:49:55.999Z</time></trkpt><trkpt lat="41.22196680474449" lon="9.236776856374046"><ele>48.0</ele><time>2026-05-03T13:49:56.999Z</time></trkpt><trkpt lat="41.22181738047831" lon="9.23697881829562"><ele>48.0</ele><time>2026-05-03T13:49:57.999Z</time></trkpt><trkpt lat="41.22166902077239" lon="9.23718237045145"><ele>48.0</ele><time>2026-05-03T13:49:58.999Z</time></trkpt><trkpt lat="41.22152281142496" lon="9.23738428505945"><ele>48.0</ele><time>2026-05-03T13:49:59.999Z</time></trkpt><trkpt lat="41.221377048627275" lon="9.237585670712408"><ele>48.66666666666667</ele><time>2026-05-03T13:50:00.999Z</time></trkpt><trkpt lat="41.221232719538165" lon="9.237786778411"><ele>49.333333333333336</ele><time>2026-05-03T13:50:01.999Z</time></trkpt><trkpt lat="41.221088885727134" lon="9.2379838471726"><ele>50.0</ele><time>2026-05-03T13:50:02.999Z</time></trkpt><trkpt lat="41.22094458493378" lon="9.238180076152036"><ele>50.66666666666667</ele><time>2026-05-03T13:50:03.999Z</time></trkpt><trkpt lat="41.22080093678129" lon="9.238374462548627"><ele>51.33333333333333</ele><time>2026-05-03T13:50:04.999Z</time></trkpt><trkpt lat="41.22065842374267" lon="9.238566753515329"><ele>52.0</ele><time>2026-05-03T13:50:05.999Z</time></trkpt><trkpt lat="41.22051794789577" lon="9.238758515032963"><ele>52.0</ele><time>2026-05-03T13:50:06.999Z</time></trkpt><trkpt lat="41.220379431499886" lon="9.238949196001824"><ele>52.0</ele><time>2026-05-03T13:50:07.999Z</time></trkpt><trkpt lat="41.22024206458342" lon="9.239136472956202"><ele>52.0</ele><time>2026-05-03T13:50:08.999Z</time></trkpt><trkpt lat="41.220105688699675" lon="9.239318030664654"><ele>51.666666666666664</ele><time>2026-05-03T13:50:09.999Z</time></trkpt><trkpt lat="41.219969864564426" lon="9.239495006846624"><ele>51.33333333333333</ele><time>2026-05-03T13:50:10.999Z</time></trkpt><trkpt lat="41.219832976527734" lon="9.239664925701401"><ele>51.0</ele><time>2026-05-03T13:50:11.999Z</time></trkpt><trkpt lat="41.219692293958445" lon="9.239822174911954"><ele>51.0</ele><time>2026-05-03T13:50:12.999Z</time></trkpt><trkpt lat="41.219544964875325" lon="9.239969962378057"><ele>51.0</ele><time>2026-05-03T13:50:13.999Z</time></trkpt><trkpt lat="41.21939620780344" lon="9.240115355784651"><ele>51.0</ele><time>2026-05-03T13:50:14.999Z</time></trkpt><trkpt lat="41.21924848750138" lon="9.240260339451456"><ele>51.0</ele><time>2026-05-03T13:50:15.999Z</time></trkpt><trkpt lat="41.219102500921565" lon="9.240408908599633"><ele>51.0</ele><time>2026-05-03T13:50:16.999Z</time></trkpt><trkpt lat="41.21895851519655" lon="9.24055769157523"><ele>51.0</ele><time>2026-05-03T13:50:17.999Z</time></trkpt><trkpt lat="41.21881203977466" lon="9.2407059452046"><ele>50.66666666666667</ele><time>2026-05-03T13:50:18.999Z</time></trkpt><trkpt lat="41.21866717943107" lon="9.240853569778992"><ele>50.333333333333336</ele><time>2026-05-03T13:50:19.999Z</time></trkpt><trkpt lat="41.218521098466034" lon="9.2409980162892"><ele>50.0</ele><time>2026-05-03T13:50:20.999Z</time></trkpt><trkpt lat="41.21837079319328" lon="9.241135531322254"><ele>50.0</ele><time>2026-05-03T13:50:21.999Z</time></trkpt><trkpt lat="41.21820094561448" lon="9.241217420069237"><ele>50.0</ele><time>2026-05-03T13:50:22.999Z</time></trkpt><trkpt lat="41.21802135597567" lon="9.24125711462454"><ele>50.0</ele><time>2026-05-03T13:50:23.999Z</time></trkpt><trkpt lat="41.21783849738039" lon="9.241279141821744"><ele>49.66666666666667</ele><time>2026-05-03T13:50:24.999Z</time></trkpt><trkpt lat="41.21765802557847" lon="9.241315595555209"><ele>49.33333333333333</ele><time>2026-05-03T13:50:25.999Z</time></trkpt><trkpt lat="41.21749189692333" lon="9.241359218204117"><ele>49.0</ele><time>2026-05-03T13:50:26.999Z</time></trkpt><trkpt lat="41.217350672002404" lon="9.241477088331322"><ele>50.33333333333333</ele><time>2026-05-03T13:50:27.999Z</time></trkpt><trkpt lat="41.21723593485991" lon="9.241656397721774"><ele>51.66666666666667</ele><time>2026-05-03T13:50:28.999Z</time></trkpt><trkpt lat="41.2171376775663" lon="9.24186308261833"><ele>53.0</ele><time>2026-05-03T13:50:29.999Z</time></trkpt><trkpt lat="41.217031264889876" lon="9.242071820515156"><ele>53.0</ele><time>2026-05-03T13:50:30.999Z</time></trkpt><trkpt lat="41.21691945663196" lon="9.242282838359156"><ele>53.0</ele><time>2026-05-03T13:50:31.999Z</time></trkpt><trkpt lat="41.21680346782842" lon="9.242494952931711"><ele>53.0</ele><time>2026-05-03T13:50:32.999Z</time></trkpt><trkpt lat="41.216688371398156" lon="9.242708834678014"><ele>52.66666666666667</ele><time>2026-05-03T13:50:33.999Z</time></trkpt><trkpt lat="41.21657178893576" lon="9.242923961513315"><ele>52.33333333333333</ele><time>2026-05-03T13:50:34.999Z</time></trkpt><trkpt lat="41.216454671491654" lon="9.243139329856474"><ele>52.0</ele><time>2026-05-03T13:50:35.999Z</time></trkpt><trkpt lat="41.2163373427394" lon="9.243353741861865"><ele>52.0</ele><time>2026-05-03T13:50:36.999Z</time></trkpt><trkpt lat="41.216220113959345" lon="9.243568098499182"><ele>52.0</ele><time>2026-05-03T13:50:37.999Z</time></trkpt><trkpt lat="41.21610355401413" lon="9.243781587070698"><ele>52.0</ele><time>2026-05-03T13:50:38.999Z</time></trkpt><trkpt lat="41.21598744894719" lon="9.24399491659978"><ele>51.666666666666664</ele><time>2026-05-03T13:50:39.999Z</time></trkpt><trkpt lat="41.215872544629285" lon="9.244207005914136"><ele>51.33333333333333</ele><time>2026-05-03T13:50:40.999Z</time></trkpt><trkpt lat="41.215756437026634" lon="9.24442063182648"><ele>51.0</ele><time>2026-05-03T13:50:41.999Z</time></trkpt><trkpt lat="41.21563994500596" lon="9.244631914202854"><ele>51.33333333333333</ele><time>2026-05-03T13:50:42.999Z</time></trkpt><trkpt lat="41.21552529086497" lon="9.244846068801554"><ele>51.666666666666664</ele><time>2026-05-03T13:50:43.999Z</time></trkpt><trkpt lat="41.215413010365985" lon="9.245061848947056"><ele>52.0</ele><time>2026-05-03T13:50:44.999Z</time></trkpt><trkpt lat="41.215306783937116" lon="9.245281564341369"><ele>52.0</ele><time>2026-05-03T13:50:45.999Z</time></trkpt><trkpt lat="41.21520718158558" lon="9.245509487524341"><ele>52.0</ele><time>2026-05-03T13:50:46.999Z</time></trkpt><trkpt lat="41.21511120951968" lon="9.245742309577027"><ele>52.0</ele><time>2026-05-03T13:50:47.999Z</time></trkpt><trkpt lat="41.215015365523044" lon="9.245977233300666"><ele>51.33333333333333</ele><time>2026-05-03T13:50:48.999Z</time></trkpt><trkpt lat="41.214918563668135" lon="9.246213084607815"><ele>50.66666666666667</ele><time>2026-05-03T13:50:49.999Z</time></trkpt><trkpt lat="41.21482193677961" lon="9.24644859654959"><ele>50.0</ele><time>2026-05-03T13:50:50.999Z</time></trkpt><trkpt lat="41.21472335190992" lon="9.246684419707211"><ele>48.66666666666667</ele><time>2026-05-03T13:50:51.999Z</time></trkpt><trkpt lat="41.214628666117996" lon="9.246925608892877"><ele>47.333333333333336</ele><time>2026-05-03T13:50:52.999Z</time></trkpt><trkpt lat="41.21453222721622" lon="9.247164547457329"><ele>46.0</ele><time>2026-05-03T13:50:53.999Z</time></trkpt><trkpt lat="41.214436519918365" lon="9.24740317366594"><ele>46.0</ele><time>2026-05-03T13:50:54.999Z</time></trkpt><trkpt lat="41.21434050852756" lon="9.247640759349101"><ele>46.0</ele><time>2026-05-03T13:50:55.999Z</time></trkpt><trkpt lat="41.214241040580184" lon="9.247876218496689"><ele>46.0</ele><time>2026-05-03T13:50:56.999Z</time></trkpt><trkpt lat="41.21412981133601" lon="9.248103981992067"><ele>44.66666666666667</ele><time>2026-05-03T13:50:57.999Z</time></trkpt><trkpt lat="41.21399904095549" lon="9.248315804044607"><ele>43.333333333333336</ele><time>2026-05-03T13:50:58.999Z</time></trkpt><trkpt lat="41.21385000426868" lon="9.248508064346192"><ele>42.0</ele><time>2026-05-03T13:50:59.999Z</time></trkpt><trkpt lat="41.21369676007408" lon="9.24869460188133"><ele>41.0</ele><time>2026-05-03T13:51:00.999Z</time></trkpt><trkpt lat="41.213542771628966" lon="9.24888061177425"><ele>40.0</ele><time>2026-05-03T13:51:01.999Z</time></trkpt><trkpt lat="41.21338947739251" lon="9.249064906642792"><ele>39.0</ele><time>2026-05-03T13:51:02.999Z</time></trkpt><trkpt lat="41.21323727272906" lon="9.249248978813126"><ele>38.333333333333336</ele><time>2026-05-03T13:51:03.999Z</time></trkpt><trkpt lat="41.21308629568841" lon="9.24943349876834"><ele>37.66666666666667</ele><time>2026-05-03T13:51:04.999Z</time></trkpt><trkpt lat="41.21293754477508" lon="9.249617008952065"><ele>37.0</ele><time>2026-05-03T13:51:05.999Z</time></trkpt><trkpt lat="41.212791766317665" lon="9.24979299072485"><ele>36.66666666666667</ele><time>2026-05-03T13:51:06.999Z</time></trkpt><trkpt lat="41.21264927255043" lon="9.249962910237727"><ele>36.333333333333336</ele><time>2026-05-03T13:51:07.999Z</time></trkpt><trkpt lat="41.21250944260094" lon="9.250129511069268"><ele>36.0</ele><time>2026-05-03T13:51:08.999Z</time></trkpt><trkpt lat="41.2123709454165" lon="9.250294530385808"><ele>36.0</ele><time>2026-05-03T13:51:09.999Z</time></trkpt><trkpt lat="41.21223382527218" lon="9.250460651806796"><ele>36.0</ele><time>2026-05-03T13:51:10.999Z</time></trkpt><trkpt lat="41.21209765876182" lon="9.250626383798624"><ele>36.0</ele><time>2026-05-03T13:51:11.999Z</time></trkpt><trkpt lat="41.21196237678922" lon="9.250791075921981"><ele>35.0</ele><time>2026-05-03T13:51:13Z</time></trkpt><trkpt lat="41.21182775682154" lon="9.250954361200783"><ele>34.0</ele><time>2026-05-03T13:51:14Z</time></trkpt><trkpt lat="41.21169352704569" lon="9.251117047371702"><ele>33.0</ele><time>2026-05-03T13:51:15Z</time></trkpt><trkpt lat="41.21156026992941" lon="9.251281974433224"><ele>33.0</ele><time>2026-05-03T13:51:16Z</time></trkpt><trkpt lat="41.21142491329317" lon="9.251449368581255"><ele>33.0</ele><time>2026-05-03T13:51:17Z</time></trkpt><trkpt lat="41.211288577414116" lon="9.251616011708775"><ele>33.0</ele><time>2026-05-03T13:51:18Z</time></trkpt><trkpt lat="41.2111516797232" lon="9.251783720575661"><ele>33.0</ele><time>2026-05-03T13:51:19Z</time></trkpt><trkpt lat="41.211013583576815" lon="9.251952315862974"><ele>33.0</ele><time>2026-05-03T13:51:20Z</time></trkpt><trkpt lat="41.210876823893926" lon="9.252125872986152"><ele>33.0</ele><time>2026-05-03T13:51:21Z</time></trkpt><trkpt lat="41.21072955967706" lon="9.25229519556712"><ele>32.666666666666664</ele><time>2026-05-03T13:51:22Z</time></trkpt><trkpt lat="41.21058614390739" lon="9.252464978253121"><ele>32.33333333333333</ele><time>2026-05-03T13:51:23Z</time></trkpt><trkpt lat="41.21042341700295" lon="9.252599152547884"><ele>32.0</ele><time>2026-05-03T13:51:24Z</time></trkpt><trkpt lat="41.21025488800932" lon="9.252720655063605"><ele>32.0</ele><time>2026-05-03T13:51:25Z</time></trkpt><trkpt lat="41.21007109937222" lon="9.252806336436562"><ele>32.0</ele><time>2026-05-03T13:51:26Z</time></trkpt><trkpt lat="41.209877483308446" lon="9.2528721053354"><ele>32.0</ele><time>2026-05-03T13:51:27Z</time></trkpt><trkpt lat="41.209680905559644" lon="9.252932761555098"><ele>32.33333333333333</ele><time>2026-05-03T13:51:28Z</time></trkpt><trkpt lat="41.209483800270924" lon="9.252989282364009"><ele>32.666666666666664</ele><time>2026-05-03T13:51:29Z</time></trkpt><trkpt lat="41.20928626477315" lon="9.253030818146588"><ele>33.0</ele><time>2026-05-03T13:51:30Z</time></trkpt><trkpt lat="41.2090844085073" lon="9.253047529291395"><ele>32.0</ele><time>2026-05-03T13:51:31Z</time></trkpt><trkpt lat="41.20888718376621" lon="9.253035787718359"><ele>31.0</ele><time>2026-05-03T13:51:32Z</time></trkpt><trkpt lat="41.20868829976394" lon="9.25301224878935"><ele>30.0</ele><time>2026-05-03T13:51:33Z</time></trkpt><trkpt lat="41.208489785615164" lon="9.252988753634222"><ele>30.0</ele><time>2026-05-03T13:51:34Z</time></trkpt><trkpt lat="41.2083031798671" lon="9.252993021753326"><ele>30.0</ele><time>2026-05-03T13:51:35Z</time></trkpt><trkpt lat="41.208134379803994" lon="9.25297462527868"><ele>30.0</ele><time>2026-05-03T13:51:36Z</time></trkpt><trkpt lat="41.2079663971926" lon="9.252996907537693"><ele>30.666666666666664</ele><time>2026-05-03T13:51:37Z</time></trkpt><trkpt lat="41.20780077937238" lon="9.253065798406217"><ele>31.333333333333332</ele><time>2026-05-03T13:51:38Z</time></trkpt><trkpt lat="41.207647789502474" lon="9.253192360724697"><ele>32.0</ele><time>2026-05-03T13:51:39Z</time></trkpt><trkpt lat="41.20751830890607" lon="9.25336999359745"><ele>32.0</ele><time>2026-05-03T13:51:40Z</time></trkpt><trkpt lat="41.20742255776327" lon="9.2535840472043"><ele>32.0</ele><time>2026-05-03T13:51:41Z</time></trkpt><trkpt lat="41.207352843098576" lon="9.253823217686593"><ele>32.0</ele><time>2026-05-03T13:51:42Z</time></trkpt><trkpt lat="41.20728675956624" lon="9.25406150362996"><ele>33.666666666666664</ele><time>2026-05-03T13:51:43Z</time></trkpt><trkpt lat="41.20721777739022" lon="9.254308841517812"><ele>35.333333333333336</ele><time>2026-05-03T13:51:44Z</time></trkpt><trkpt lat="41.20713651856571" lon="9.254532691336019"><ele>37.0</ele><time>2026-05-03T13:51:45Z</time></trkpt><trkpt lat="41.20705326448951" lon="9.254757265030658"><ele>34.333333333333336</ele><time>2026-05-03T13:51:46Z</time></trkpt><trkpt lat="41.20696088189888" lon="9.254980110832056"><ele>31.666666666666664</ele><time>2026-05-03T13:51:47Z</time></trkpt><trkpt lat="41.20685890120297" lon="9.255196211872054"><ele>29.0</ele><time>2026-05-03T13:51:48Z</time></trkpt><trkpt lat="41.20674474935217" lon="9.255398229423768"><ele>29.0</ele><time>2026-05-03T13:51:48.999Z</time></trkpt><trkpt lat="41.20661568851046" lon="9.255584578307843"><ele>29.0</ele><time>2026-05-03T13:51:49.999Z</time></trkpt><trkpt lat="41.20647264163217" lon="9.255749748506005"><ele>29.0</ele><time>2026-05-03T13:51:50.999Z</time></trkpt><trkpt lat="41.20632466681145" lon="9.255903417245934"><ele>29.333333333333332</ele><time>2026-05-03T13:51:51.999Z</time></trkpt><trkpt lat="41.206176907113836" lon="9.256053045670187"><ele>29.666666666666664</ele><time>2026-05-03T13:51:52.999Z</time></trkpt><trkpt lat="41.20603256940744" lon="9.25620067226015"><ele>30.0</ele><time>2026-05-03T13:51:53.999Z</time></trkpt><trkpt lat="41.20588874620111" lon="9.256346044005815"><ele>27.666666666666668</ele><time>2026-05-03T13:51:54.999Z</time></trkpt><trkpt lat="41.20574019079053" lon="9.256486934518804"><ele>25.333333333333336</ele><time>2026-05-03T13:51:55.999Z</time></trkpt><trkpt lat="41.20558257193855" lon="9.256612461029503"><ele>23.0</ele><time>2026-05-03T13:51:56.999Z</time></trkpt><trkpt lat="41.20540915588741" lon="9.256700546041769"><ele>22.666666666666668</ele><time>2026-05-03T13:51:57.999Z</time></trkpt><trkpt lat="41.20522501394898" lon="9.256739375697887"><ele>22.333333333333332</ele><time>2026-05-03T13:51:58.999Z</time></trkpt><trkpt lat="41.205038335209814" lon="9.2567536258388"><ele>22.0</ele><time>2026-05-03T13:51:59.999Z</time></trkpt><trkpt lat="41.20485189439945" lon="9.256768565308624"><ele>23.333333333333332</ele><time>2026-05-03T13:52:00.999Z</time></trkpt><trkpt lat="41.20466601522273" lon="9.256786878258792"><ele>24.666666666666664</ele><time>2026-05-03T13:52:01.999Z</time></trkpt><trkpt lat="41.204480536119746" lon="9.256810485697391"><ele>26.0</ele><time>2026-05-03T13:52:02.999Z</time></trkpt><trkpt lat="41.204298551495285" lon="9.256847034103451"><ele>26.0</ele><time>2026-05-03T13:52:03.999Z</time></trkpt><trkpt lat="41.20412175465006" lon="9.256918505326293"><ele>26.0</ele><time>2026-05-03T13:52:04.999Z</time></trkpt><trkpt lat="41.20395659052918" lon="9.257030771694708"><ele>26.0</ele><time>2026-05-03T13:52:05.999Z</time></trkpt><trkpt lat="41.203798757239994" lon="9.257164358086403"><ele>24.333333333333332</ele><time>2026-05-03T13:52:06.999Z</time></trkpt><trkpt lat="41.20364295671838" lon="9.257305511693092"><ele>22.666666666666664</ele><time>2026-05-03T13:52:07.999Z</time></trkpt><trkpt lat="41.203481818310664" lon="9.257433314532099"><ele>21.0</ele><time>2026-05-03T13:52:08.999Z</time></trkpt><trkpt lat="41.203317450518036" lon="9.257559040111873"><ele>22.666666666666664</ele><time>2026-05-03T13:52:09.999Z</time></trkpt><trkpt lat="41.20315139174005" lon="9.257686850674522"><ele>24.333333333333332</ele><time>2026-05-03T13:52:10.999Z</time></trkpt><trkpt lat="41.202985309272336" lon="9.257810927068443"><ele>26.0</ele><time>2026-05-03T13:52:11.999Z</time></trkpt><trkpt lat="41.202821527082854" lon="9.25793877793078"><ele>26.0</ele><time>2026-05-03T13:52:12.999Z</time></trkpt><trkpt lat="41.20265942458181" lon="9.258068363848105"><ele>26.0</ele><time>2026-05-03T13:52:13.999Z</time></trkpt><trkpt lat="41.20249855669351" lon="9.258197034228708"><ele>26.0</ele><time>2026-05-03T13:52:14.999Z</time></trkpt><trkpt lat="41.202337638033015" lon="9.258323663616276"><ele>26.333333333333332</ele><time>2026-05-03T13:52:15.999Z</time></trkpt><trkpt lat="41.202179633658" lon="9.258450660646572"><ele>26.666666666666664</ele><time>2026-05-03T13:52:16.999Z</time></trkpt><trkpt lat="41.202016789972376" lon="9.258567485245816"><ele>27.0</ele><time>2026-05-03T13:52:17.999Z</time></trkpt><trkpt lat="41.20183848810299" lon="9.258634483525885"><ele>27.0</ele><time>2026-05-03T13:52:18.999Z</time></trkpt><trkpt lat="41.2016601668284" lon="9.25867419485573"><ele>27.0</ele><time>2026-05-03T13:52:19.999Z</time></trkpt><trkpt lat="41.201477212069065" lon="9.258676579473825"><ele>27.0</ele><time>2026-05-03T13:52:20.999Z</time></trkpt><trkpt lat="41.20129205256303" lon="9.258656324214325"><ele>25.333333333333332</ele><time>2026-05-03T13:52:21.999Z</time></trkpt><trkpt lat="41.20109982185189" lon="9.258642731955034"><ele>23.666666666666664</ele><time>2026-05-03T13:52:22.999Z</time></trkpt><trkpt lat="41.20090874817239" lon="9.258598289672822"><ele>22.0</ele><time>2026-05-03T13:52:23.999Z</time></trkpt><trkpt lat="41.20071667819778" lon="9.258553337120164"><ele>21.333333333333332</ele><time>2026-05-03T13:52:24.999Z</time></trkpt><trkpt lat="41.20052366058795" lon="9.258511800771656"><ele>20.666666666666668</ele><time>2026-05-03T13:52:25.999Z</time></trkpt><trkpt lat="41.20033224297776" lon="9.2584742879004"><ele>20.0</ele><time>2026-05-03T13:52:26.999Z</time></trkpt><trkpt lat="41.2001425724516" lon="9.25843610589917"><ele>20.0</ele><time>2026-05-03T13:52:27.999Z</time></trkpt><trkpt lat="41.19995201907628" lon="9.258396327736243"><ele>20.0</ele><time>2026-05-03T13:52:28.999Z</time></trkpt><trkpt lat="41.19976217817925" lon="9.258357370261333"><ele>20.0</ele><time>2026-05-03T13:52:29.999Z</time></trkpt><trkpt lat="41.19957297053478" lon="9.258316335394992"><ele>20.333333333333336</ele><time>2026-05-03T13:52:30.999Z</time></trkpt><trkpt lat="41.199386351800534" lon="9.258274195220604"><ele>20.666666666666668</ele><time>2026-05-03T13:52:31.999Z</time></trkpt><trkpt lat="41.1992034731145" lon="9.258235911011893"><ele>21.0</ele><time>2026-05-03T13:52:32.999Z</time></trkpt><trkpt lat="41.199022916582045" lon="9.2581999441018"><ele>22.0</ele><time>2026-05-03T13:52:33.999Z</time></trkpt><trkpt lat="41.19884304321901" lon="9.258164283216706"><ele>23.0</ele><time>2026-05-03T13:52:34.999Z</time></trkpt><trkpt lat="41.19866524141785" lon="9.258140492138088"><ele>24.0</ele><time>2026-05-03T13:52:35.999Z</time></trkpt><trkpt lat="41.198486630410514" lon="9.258144464458928"><ele>24.0</ele><time>2026-05-03T13:52:36.999Z</time></trkpt><trkpt lat="41.19830835173257" lon="9.258188712716498"><ele>24.0</ele><time>2026-05-03T13:52:37.999Z</time></trkpt><trkpt lat="41.198134521519634" lon="9.258272470707858"><ele>24.0</ele><time>2026-05-03T13:52:38.999Z</time></trkpt><trkpt lat="41.19796760311277" lon="9.258392268469185"><ele>22.666666666666668</ele><time>2026-05-03T13:52:39.999Z</time></trkpt><trkpt lat="41.19780268332697" lon="9.258527136123908"><ele>21.333333333333336</ele><time>2026-05-03T13:52:40.999Z</time></trkpt><trkpt lat="41.19763711331816" lon="9.258661963772306"><ele>20.0</ele><time>2026-05-03T13:52:41.999Z</time></trkpt><trkpt lat="41.19746735180522" lon="9.25879379437539"><ele>19.666666666666668</ele><time>2026-05-03T13:52:42.999Z</time></trkpt><trkpt lat="41.197293739977354" lon="9.258923965983705"><ele>19.333333333333332</ele><time>2026-05-03T13:52:43.999Z</time></trkpt><trkpt lat="41.19711834381522" lon="9.25905306613476"><ele>19.0</ele><time>2026-05-03T13:52:44.999Z</time></trkpt><trkpt lat="41.19694257684734" lon="9.259182680460656"><ele>19.0</ele><time>2026-05-03T13:52:45.999Z</time></trkpt><trkpt lat="41.196767634611085" lon="9.259311026405081"><ele>19.0</ele><time>2026-05-03T13:52:46.999Z</time></trkpt><trkpt lat="41.19659529975459" lon="9.259441073208155"><ele>19.0</ele><time>2026-05-03T13:52:47.999Z</time></trkpt><trkpt lat="41.19642381436485" lon="9.25957469293347"><ele>18.333333333333332</ele><time>2026-05-03T13:52:48.999Z</time></trkpt><trkpt lat="41.19625679124906" lon="9.259714905025538"><ele>17.666666666666668</ele><time>2026-05-03T13:52:49.999Z</time></trkpt><trkpt lat="41.19609992094321" lon="9.259872019960127"><ele>17.0</ele><time>2026-05-03T13:52:50.999Z</time></trkpt><trkpt lat="41.19596076892775" lon="9.260058618594401"><ele>17.0</ele><time>2026-05-03T13:52:51.999Z</time></trkpt><trkpt lat="41.1958497242069" lon="9.260276268342782"><ele>17.0</ele><time>2026-05-03T13:52:52.999Z</time></trkpt><trkpt lat="41.19576586060114" lon="9.260514530948859"><ele>17.0</ele><time>2026-05-03T13:52:53.999Z</time></trkpt><trkpt lat="41.19571238382707" lon="9.26076506728182"><ele>16.666666666666668</ele><time>2026-05-03T13:52:54.999Z</time></trkpt><trkpt lat="41.195702616354154" lon="9.261011867902937"><ele>16.333333333333332</ele><time>2026-05-03T13:52:55.999Z</time></trkpt><trkpt lat="41.19574847124766" lon="9.261240193229064"><ele>16.0</ele><time>2026-05-03T13:52:56.999Z</time></trkpt><trkpt lat="41.195831851717635" lon="9.26145025625362"><ele>16.0</ele><time>2026-05-03T13:52:57.999Z</time></trkpt><trkpt lat="41.1959185750448" lon="9.261660636756195"><ele>16.0</ele><time>2026-05-03T13:52:58.999Z</time></trkpt><trkpt lat="41.195996699256504" lon="9.261874429613517"><ele>16.0</ele><time>2026-05-03T13:52:59.999Z</time></trkpt><trkpt lat="41.19606706682024" lon="9.262083699424297"><ele>16.0</ele><time>2026-05-03T13:53:00.999Z</time></trkpt><trkpt lat="41.1961258912298" lon="9.262280825395525"><ele>16.0</ele><time>2026-05-03T13:53:01.999Z</time></trkpt><trkpt lat="41.19617088048431" lon="9.262473880565063"><ele>16.0</ele><time>2026-05-03T13:53:02.999Z</time></trkpt><trkpt lat="41.19615226461702" lon="9.262668710545693"><ele>15.0</ele><time>2026-05-03T13:53:03.999Z</time></trkpt><trkpt lat="41.196112415594946" lon="9.262865840796156"><ele>14.0</ele><time>2026-05-03T13:53:04.999Z</time></trkpt><trkpt lat="41.19607465130923" lon="9.263079972654198"><ele>13.0</ele><time>2026-05-03T13:53:05.999Z</time></trkpt><trkpt lat="41.19602228076296" lon="9.263289634436358"><ele>12.5</ele><time>2026-05-03T13:53:06.999Z</time></trkpt><trkpt lat="41.195979721436274" lon="9.263494594945383"><ele>12.0</ele><time>2026-05-03T13:53:07.999Z</time></trkpt><trkpt lat="41.19594440199862" lon="9.26368890759156"><ele>11.5</ele><time>2026-05-03T13:53:08.999Z</time></trkpt><trkpt lat="41.195913447102036" lon="9.263869078985154"><ele>11.0</ele><time>2026-05-03T13:53:09.999Z</time></trkpt><trkpt lat="41.19587780317138" lon="9.264049012807467"><ele>10.333333333333332</ele><time>2026-05-03T13:53:10.999Z</time></trkpt><trkpt lat="41.19583396316004" lon="9.264234097999966"><ele>9.666666666666666</ele><time>2026-05-03T13:53:11.999Z</time></trkpt><trkpt lat="41.19575946326887" lon="9.264408160352442"><ele>9.0</ele><time>2026-05-03T13:53:12.999Z</time></trkpt><trkpt lat="41.19567631362207" lon="9.264586673628822"><ele>8.333333333333334</ele><time>2026-05-03T13:53:13.999Z</time></trkpt><trkpt lat="41.19559432267665" lon="9.26476767383504"><ele>7.666666666666667</ele><time>2026-05-03T13:53:14.999Z</time></trkpt><trkpt lat="41.19550318932221" lon="9.264940451448146"><ele>7.0</ele><time>2026-05-03T13:53:15.999Z</time></trkpt><trkpt lat="41.19541868876366" lon="9.265121658124"><ele>7.0</ele><time>2026-05-03T13:53:16.999Z</time></trkpt><trkpt lat="41.19533718168637" lon="9.265294775864087"><ele>7.0</ele><time>2026-05-03T13:53:17.999Z</time></trkpt><trkpt lat="41.19525706142812" lon="9.265458484815463"><ele>7.0</ele><time>2026-05-03T13:53:19Z</time></trkpt><trkpt lat="41.195182860032716" lon="9.265614183346516"><ele>7.0</ele><time>2026-05-03T13:53:20Z</time></trkpt><trkpt lat="41.19511306498419" lon="9.265765226041724"><ele>6.5</ele><time>2026-05-03T13:53:21Z</time></trkpt><trkpt lat="41.19504336727532" lon="9.265912268270307"><ele>6.0</ele><time>2026-05-03T13:53:22Z</time></trkpt><trkpt lat="41.1949638553969" lon="9.266054213077304"><ele>5.5</ele><time>2026-05-03T13:53:23Z</time></trkpt><trkpt lat="41.19487896580183" lon="9.266190481416427"><ele>5.0</ele><time>2026-05-03T13:53:24Z</time></trkpt><trkpt lat="41.19478703522273" lon="9.2663189426096"><ele>6.0</ele><time>2026-05-03T13:53:25Z</time></trkpt><trkpt lat="41.19468766705162" lon="9.266436582787522"><ele>7.0</ele><time>2026-05-03T13:53:26Z</time></trkpt><trkpt lat="41.1945893641543" lon="9.266552785069587"><ele>8.0</ele><time>2026-05-03T13:53:27Z</time></trkpt><trkpt lat="41.19450081524033" lon="9.266678629285568"><ele>9.0</ele><time>2026-05-03T13:53:28Z</time></trkpt><trkpt lat="41.19443135650421" lon="9.266826644562524"><ele>9.0</ele><time>2026-05-03T13:53:29Z</time></trkpt><trkpt lat="41.19438824449993" lon="9.266994942767823"><ele>9.0</ele><time>2026-05-03T13:53:30Z</time></trkpt><trkpt lat="41.19436372513411" lon="9.267175846356471"><ele>9.0</ele><time>2026-05-03T13:53:31Z</time></trkpt><trkpt lat="41.19434443934718" lon="9.267357140485943"><ele>9.0</ele><time>2026-05-03T13:53:32Z</time></trkpt><trkpt lat="41.19431656708393" lon="9.26753803631291"><ele>8.25</ele><time>2026-05-03T13:53:33Z</time></trkpt><trkpt lat="41.194282518188714" lon="9.267716572015319"><ele>7.5</ele><time>2026-05-03T13:53:34Z</time></trkpt><trkpt lat="41.19424982293293" lon="9.267896747611275"><ele>6.75</ele><time>2026-05-03T13:53:35Z</time></trkpt><trkpt lat="41.19422020894025" lon="9.268080037512012"><ele>6.0</ele><time>2026-05-03T13:53:36Z</time></trkpt><trkpt lat="41.19419271216302" lon="9.268261977018843"><ele>5.75</ele><time>2026-05-03T13:53:37Z</time></trkpt><trkpt lat="41.194163671721604" lon="9.268443756803974"><ele>5.5</ele><time>2026-05-03T13:53:38Z</time></trkpt><trkpt lat="41.19413391481736" lon="9.268624380356107"><ele>5.25</ele><time>2026-05-03T13:53:39Z</time></trkpt><trkpt lat="41.19410291084654" lon="9.26880483206931"><ele>5.0</ele><time>2026-05-03T13:53:40Z</time></trkpt><trkpt lat="41.19406849149968" lon="9.26898638451924"><ele>5.0</ele><time>2026-05-03T13:53:41Z</time></trkpt><trkpt lat="41.19403725307164" lon="9.269168377762332"><ele>5.0</ele><time>2026-05-03T13:53:42Z</time></trkpt><trkpt lat="41.19400597147763" lon="9.26934999148792"><ele>5.0</ele><time>2026-05-03T13:53:43Z</time></trkpt><trkpt lat="41.19396485334732" lon="9.269528566844174"><ele>5.0</ele><time>2026-05-03T13:53:44Z</time></trkpt><trkpt lat="41.193898163146976" lon="9.269695400423037"><ele>5.25</ele><time>2026-05-03T13:53:45Z</time></trkpt><trkpt lat="41.193806461093025" lon="9.269844332404727"><ele>5.5</ele><time>2026-05-03T13:53:46Z</time></trkpt><trkpt lat="41.19368827004329" lon="9.269960477941178"><ele>5.75</ele><time>2026-05-03T13:53:47Z</time></trkpt><trkpt lat="41.193557783643264" lon="9.27004827834377"><ele>6.0</ele><time>2026-05-03T13:53:48Z</time></trkpt><trkpt lat="41.193422037788125" lon="9.27011184960641"><ele>6.0</ele><time>2026-05-03T13:53:49Z</time></trkpt><trkpt lat="41.193283523557625" lon="9.270169219623519"><ele>6.0</ele><time>2026-05-03T13:53:50Z</time></trkpt><trkpt lat="41.1931456151602" lon="9.27022128446683"><ele>6.0</ele><time>2026-05-03T13:53:51Z</time></trkpt><trkpt lat="41.193006743271134" lon="9.270278440077727"><ele>6.0</ele><time>2026-05-03T13:53:52Z</time></trkpt><trkpt lat="41.19286622621183" lon="9.270336605812012"><ele>7.0</ele><time>2026-05-03T13:53:53Z</time></trkpt><trkpt lat="41.19272427563614" lon="9.270399239674093"><ele>8.0</ele><time>2026-05-03T13:53:54Z</time></trkpt><trkpt lat="41.19258167338491" lon="9.270466837602154"><ele>9.0</ele><time>2026-05-03T13:53:55Z</time></trkpt><trkpt lat="41.19243625238631" lon="9.270528161682552"><ele>9.0</ele><time>2026-05-03T13:53:56Z</time></trkpt><trkpt lat="41.19228694991026" lon="9.270554087058047"><ele>9.0</ele><time>2026-05-03T13:53:57Z</time></trkpt><trkpt lat="41.192143579868016" lon="9.270529466850476"><ele>9.0</ele><time>2026-05-03T13:53:58Z</time></trkpt><trkpt lat="41.19200229915733" lon="9.270459334817948"><ele>9.0</ele><time>2026-05-03T13:53:59Z</time></trkpt><trkpt lat="41.19185812620594" lon="9.270382990833285"><ele>9.0</ele><time>2026-05-03T13:54:00Z</time></trkpt><trkpt lat="41.191706066580224" lon="9.270319687588026"><ele>9.0</ele><time>2026-05-03T13:54:00.999Z</time></trkpt><trkpt lat="41.191549251891864" lon="9.270263647055296"><ele>9.0</ele><time>2026-05-03T13:54:01.999Z</time></trkpt><trkpt lat="41.19138756633587" lon="9.270210132580115"><ele>7.666666666666667</ele><time>2026-05-03T13:54:02.999Z</time></trkpt><trkpt lat="41.19122459224214" lon="9.27015932782305"><ele>6.333333333333334</ele><time>2026-05-03T13:54:03.999Z</time></trkpt><trkpt lat="41.19106078484824" lon="9.270105655540986"><ele>5.0</ele><time>2026-05-03T13:54:04.999Z</time></trkpt><trkpt lat="41.19089516238845" lon="9.270050898982236"><ele>5.0</ele><time>2026-05-03T13:54:05.999Z</time></trkpt><trkpt lat="41.190730499968076" lon="9.269994100593943"><ele>5.0</ele><time>2026-05-03T13:54:06.999Z</time></trkpt><trkpt lat="41.19056363209198" lon="9.269940128634332"><ele>5.0</ele><time>2026-05-03T13:54:07.999Z</time></trkpt><trkpt lat="41.19039628349528" lon="9.269888456973263"><ele>4.333333333333334</ele><time>2026-05-03T13:54:08.999Z</time></trkpt><trkpt lat="41.19022663018319" lon="9.269837046769334"><ele>3.666666666666667</ele><time>2026-05-03T13:54:09.999Z</time></trkpt><trkpt lat="41.190054528386085" lon="9.2697885816791"><ele>3.0</ele><time>2026-05-03T13:54:10.999Z</time></trkpt><trkpt lat="41.189876037095054" lon="9.269754783274369"><ele>4.666666666666666</ele><time>2026-05-03T13:54:11.999Z</time></trkpt><trkpt lat="41.18969321440212" lon="9.269731900726418"><ele>6.333333333333333</ele><time>2026-05-03T13:54:12.999Z</time></trkpt><trkpt lat="41.18950835867153" lon="9.269716249122926"><ele>8.0</ele><time>2026-05-03T13:54:13.999Z</time></trkpt><trkpt lat="41.189319664091435" lon="9.26970724866643"><ele>8.0</ele><time>2026-05-03T13:54:14.999Z</time></trkpt><trkpt lat="41.189129630027224" lon="9.269694950976085"><ele>8.0</ele><time>2026-05-03T13:54:15.999Z</time></trkpt><trkpt lat="41.18893791206456" lon="9.26966596083367"><ele>8.0</ele><time>2026-05-03T13:54:16.999Z</time></trkpt><trkpt lat="41.18874399637698" lon="9.269628832179537"><ele>8.0</ele><time>2026-05-03T13:54:17.999Z</time></trkpt><trkpt lat="41.18855048566478" lon="9.269585111306363"><ele>8.0</ele><time>2026-05-03T13:54:18.999Z</time></trkpt><trkpt lat="41.18835279354521" lon="9.269578680802134"><ele>8.0</ele><time>2026-05-03T13:54:19.999Z</time></trkpt><trkpt lat="41.188167618819286" lon="9.269670481013671"><ele>8.0</ele><time>2026-05-03T13:54:20.999Z</time></trkpt><trkpt lat="41.187967529230555" lon="9.269663858619097"><ele>8.0</ele><time>2026-05-03T13:54:21.999Z</time></trkpt><trkpt lat="41.18776733470368" lon="9.269655100680055"><ele>8.0</ele><time>2026-05-03T13:54:22.999Z</time></trkpt><trkpt lat="41.18756550532552" lon="9.269648407971829"><ele>8.0</ele><time>2026-05-03T13:54:23.999Z</time></trkpt><trkpt lat="41.18736891584521" lon="9.269636271975575"><ele>8.0</ele><time>2026-05-03T13:54:24.999Z</time></trkpt><trkpt lat="41.18717621514916" lon="9.269605910469856"><ele>8.0</ele><time>2026-05-03T13:54:25.999Z</time></trkpt><trkpt lat="41.18698485667265" lon="9.269555687873872"><ele>7.333333333333333</ele><time>2026-05-03T13:54:26.999Z</time></trkpt><trkpt lat="41.18679456245331" lon="9.269497924790839"><ele>6.666666666666666</ele><time>2026-05-03T13:54:27.999Z</time></trkpt><trkpt lat="41.18660745407069" lon="9.269434455609689"><ele>6.0</ele><time>2026-05-03T13:54:28.999Z</time></trkpt><trkpt lat="41.18641734661417" lon="9.269380248426168"><ele>6.0</ele><time>2026-05-03T13:54:29.999Z</time></trkpt><trkpt lat="41.186232491921416" lon="9.269329501858639"><ele>6.0</ele><time>2026-05-03T13:54:30.999Z</time></trkpt><trkpt lat="41.186046702612245" lon="9.269277776607368"><ele>6.0</ele><time>2026-05-03T13:54:31.999Z</time></trkpt><trkpt lat="41.18586028813845" lon="9.269228689600773"><ele>5.333333333333333</ele><time>2026-05-03T13:54:32.999Z</time></trkpt><trkpt lat="41.18567328848096" lon="9.269180284819269"><ele>4.666666666666666</ele><time>2026-05-03T13:54:33.999Z</time></trkpt><trkpt lat="41.18548817250891" lon="9.269126981831661"><ele>4.0</ele><time>2026-05-03T13:54:34.999Z</time></trkpt><trkpt lat="41.18530420322372" lon="9.26907530307779"><ele>4.0</ele><time>2026-05-03T13:54:35.999Z</time></trkpt><trkpt lat="41.185121804561426" lon="9.26902411450622"><ele>4.0</ele><time>2026-05-03T13:54:36.999Z</time></trkpt><trkpt lat="41.18494000823047" lon="9.268974089753817"><ele>4.0</ele><time>2026-05-03T13:54:37.999Z</time></trkpt><trkpt lat="41.18476250310475" lon="9.268926721560316"><ele>5.0</ele><time>2026-05-03T13:54:38.999Z</time></trkpt><trkpt lat="41.18458962805915" lon="9.268876542015501"><ele>6.0</ele><time>2026-05-03T13:54:39.999Z</time></trkpt><trkpt lat="41.18441932887226" lon="9.268827907801349"><ele>7.0</ele><time>2026-05-03T13:54:40.999Z</time></trkpt><trkpt lat="41.18426309823175" lon="9.26878273460244"><ele>7.0</ele><time>2026-05-03T13:54:41.999Z</time></trkpt><trkpt lat="41.184116547361285" lon="9.268767234894364"><ele>7.0</ele><time>2026-05-03T13:54:42.999Z</time></trkpt><trkpt lat="41.18399565101141" lon="9.268826005676454"><ele>7.0</ele><time>2026-05-03T13:54:43.999Z</time></trkpt><trkpt lat="41.183876102646586" lon="9.268944990813464"><ele>7.0</ele><time>2026-05-03T13:54:44.999Z</time></trkpt><trkpt lat="41.183773632514296" lon="9.26910562276675"><ele>6.666666666666667</ele><time>2026-05-03T13:54:45.999Z</time></trkpt><trkpt lat="41.18367343098267" lon="9.269276569677567"><ele>6.333333333333334</ele><time>2026-05-03T13:54:46.999Z</time></trkpt><trkpt lat="41.18356726227975" lon="9.269450799654923"><ele>6.0</ele><time>2026-05-03T13:54:47.999Z</time></trkpt><trkpt lat="41.18345388065883" lon="9.269624530333136"><ele>7.0</ele><time>2026-05-03T13:54:48.999Z</time></trkpt><trkpt lat="41.18333775627345" lon="9.269799899926246"><ele>8.0</ele><time>2026-05-03T13:54:49.999Z</time></trkpt><trkpt lat="41.18322343326133" lon="9.269976748130619"><ele>9.0</ele><time>2026-05-03T13:54:50.999Z</time></trkpt><trkpt lat="41.183104485078694" lon="9.27015052755271"><ele>9.333333333333334</ele><time>2026-05-03T13:54:51.999Z</time></trkpt><trkpt lat="41.1829750806554" lon="9.270316682012238"><ele>9.666666666666668</ele><time>2026-05-03T13:54:52.999Z</time></trkpt><trkpt lat="41.1828365405903" lon="9.27047265754884"><ele>10.0</ele><time>2026-05-03T13:54:53.999Z</time></trkpt><trkpt lat="41.1826968772804" lon="9.270624664414333"><ele>11.0</ele><time>2026-05-03T13:54:54.999Z</time></trkpt><trkpt lat="41.18255913008441" lon="9.270773656211102"><ele>12.0</ele><time>2026-05-03T13:54:55.999Z</time></trkpt><trkpt lat="41.18242192366911" lon="9.270921852058375"><ele>13.0</ele><time>2026-05-03T13:54:56.999Z</time></trkpt><trkpt lat="41.18228753732306" lon="9.271069997519547"><ele>13.0</ele><time>2026-05-03T13:54:57.999Z</time></trkpt><trkpt lat="41.18215313343566" lon="9.271219547652734"><ele>13.0</ele><time>2026-05-03T13:54:58.999Z</time></trkpt><trkpt lat="41.18201725251224" lon="9.271367995139393"><ele>13.0</ele><time>2026-05-03T13:54:59.999Z</time></trkpt><trkpt lat="41.18188062769611" lon="9.271516235312442"><ele>14.333333333333332</ele><time>2026-05-03T13:55:00.999Z</time></trkpt><trkpt lat="41.1817480373634" lon="9.271666298433347"><ele>15.666666666666668</ele><time>2026-05-03T13:55:01.999Z</time></trkpt><trkpt lat="41.18161936579668" lon="9.271823840143675"><ele>17.0</ele><time>2026-05-03T13:55:02.999Z</time></trkpt><trkpt lat="41.18149333028468" lon="9.271992157763224"><ele>18.0</ele><time>2026-05-03T13:55:03.999Z</time></trkpt><trkpt lat="41.18136828578326" lon="9.272163461927176"><ele>19.0</ele><time>2026-05-03T13:55:04.999Z</time></trkpt><trkpt lat="41.181240348843275" lon="9.272335535834252"><ele>20.0</ele><time>2026-05-03T13:55:05.999Z</time></trkpt><trkpt lat="41.18110957296505" lon="9.272506726989143"><ele>20.0</ele><time>2026-05-03T13:55:06.999Z</time></trkpt><trkpt lat="41.18097743815268" lon="9.272679091365417"><ele>20.0</ele><time>2026-05-03T13:55:07.999Z</time></trkpt><trkpt lat="41.18084673210553" lon="9.272853079003905"><ele>20.0</ele><time>2026-05-03T13:55:08.999Z</time></trkpt><trkpt lat="41.18071648739007" lon="9.273029102185417"><ele>21.666666666666668</ele><time>2026-05-03T13:55:09.999Z</time></trkpt><trkpt lat="41.18058680673179" lon="9.273207087295287"><ele>23.333333333333336</ele><time>2026-05-03T13:55:10.999Z</time></trkpt><trkpt lat="41.18045887157102" lon="9.273393616766057"><ele>25.0</ele><time>2026-05-03T13:55:11.999Z</time></trkpt><trkpt lat="41.18033064626769" lon="9.273588722461442"><ele>25.0</ele><time>2026-05-03T13:55:12.999Z</time></trkpt><trkpt lat="41.180209799914344" lon="9.273797004673145"><ele>25.0</ele><time>2026-05-03T13:55:13.999Z</time></trkpt><trkpt lat="41.18009392030005" lon="9.274014450612633"><ele>25.0</ele><time>2026-05-03T13:55:14.999Z</time></trkpt><trkpt lat="41.17998319941061" lon="9.274240276756183"><ele>25.666666666666668</ele><time>2026-05-03T13:55:15.999Z</time></trkpt><trkpt lat="41.17987756223818" lon="9.274472054244953"><ele>26.333333333333336</ele><time>2026-05-03T13:55:16.999Z</time></trkpt><trkpt lat="41.1797751798336" lon="9.274710567619236"><ele>27.0</ele><time>2026-05-03T13:55:17.999Z</time></trkpt><trkpt lat="41.179675823332424" lon="9.274952548152335"><ele>28.333333333333336</ele><time>2026-05-03T13:55:18.999Z</time></trkpt><trkpt lat="41.179575016579285" lon="9.275193236750315"><ele>29.666666666666668</ele><time>2026-05-03T13:55:19.999Z</time></trkpt><trkpt lat="41.17947157408799" lon="9.275431107442053"><ele>31.0</ele><time>2026-05-03T13:55:20.999Z</time></trkpt><trkpt lat="41.179364976412096" lon="9.27566483243444"><ele>31.0</ele><time>2026-05-03T13:55:21.999Z</time></trkpt><trkpt lat="41.17925438933373" lon="9.275891324768269"><ele>31.0</ele><time>2026-05-03T13:55:22.999Z</time></trkpt><trkpt lat="41.179138488856154" lon="9.276107272954455"><ele>31.0</ele><time>2026-05-03T13:55:23.999Z</time></trkpt><trkpt lat="41.179016579940956" lon="9.276314235016326"><ele>32.333333333333336</ele><time>2026-05-03T13:55:25Z</time></trkpt><trkpt lat="41.178891231356246" lon="9.276513370635046"><ele>33.666666666666664</ele><time>2026-05-03T13:55:26Z</time></trkpt><trkpt lat="41.178764364569474" lon="9.276709242787733"><ele>35.0</ele><time>2026-05-03T13:55:27Z</time></trkpt><trkpt lat="41.17863741620553" lon="9.2769017703944"><ele>35.0</ele><time>2026-05-03T13:55:28Z</time></trkpt><trkpt lat="41.178511001923894" lon="9.277091563127675"><ele>35.0</ele><time>2026-05-03T13:55:29Z</time></trkpt><trkpt lat="41.17838441779961" lon="9.27727753458617"><ele>35.0</ele><time>2026-05-03T13:55:30Z</time></trkpt><trkpt lat="41.178260684152285" lon="9.277462618649942"><ele>35.666666666666664</ele><time>2026-05-03T13:55:31Z</time></trkpt><trkpt lat="41.17813847469705" lon="9.27764942051511"><ele>36.333333333333336</ele><time>2026-05-03T13:55:32Z</time></trkpt><trkpt lat="41.17801804087244" lon="9.277833813555835"><ele>37.0</ele><time>2026-05-03T13:55:33Z</time></trkpt><trkpt lat="41.17789627913688" lon="9.278017584160754"><ele>36.333333333333336</ele><time>2026-05-03T13:55:34Z</time></trkpt><trkpt lat="41.17777459949029" lon="9.278199620586127"><ele>35.666666666666664</ele><time>2026-05-03T13:55:35Z</time></trkpt><trkpt lat="41.17765084395329" lon="9.278380644027127"><ele>35.0</ele><time>2026-05-03T13:55:36Z</time></trkpt><trkpt lat="41.177526690083525" lon="9.278558637486375"><ele>35.0</ele><time>2026-05-03T13:55:37Z</time></trkpt><trkpt lat="41.177403367725354" lon="9.278735648577165"><ele>35.0</ele><time>2026-05-03T13:55:38Z</time></trkpt><trkpt lat="41.17728174432106" lon="9.27891542297586"><ele>35.0</ele><time>2026-05-03T13:55:39Z</time></trkpt><trkpt lat="41.17716290175874" lon="9.27909732792478"><ele>37.33333333333333</ele><time>2026-05-03T13:55:40Z</time></trkpt><trkpt lat="41.17704368631897" lon="9.27927857304456"><ele>39.666666666666664</ele><time>2026-05-03T13:55:41Z</time></trkpt><trkpt lat="41.17692314146121" lon="9.279457651966677"><ele>42.0</ele><time>2026-05-03T13:55:42Z</time></trkpt><trkpt lat="41.17680366403952" lon="9.279638226235264"><ele>42.666666666666664</ele><time>2026-05-03T13:55:43Z</time></trkpt><trkpt lat="41.176684575259856" lon="9.279815087613562"><ele>43.33333333333333</ele><time>2026-05-03T13:55:44Z</time></trkpt><trkpt lat="41.17656624572156" lon="9.279994480973427"><ele>44.0</ele><time>2026-05-03T13:55:45Z</time></trkpt><trkpt lat="41.176446949923104" lon="9.280174798093464"><ele>44.0</ele><time>2026-05-03T13:55:46Z</time></trkpt><trkpt lat="41.17632711695077" lon="9.280356398952355"><ele>44.0</ele><time>2026-05-03T13:55:47Z</time></trkpt><trkpt lat="41.17620865507066" lon="9.280541743958734"><ele>44.0</ele><time>2026-05-03T13:55:48Z</time></trkpt><trkpt lat="41.17608745015789" lon="9.280731161232255"><ele>44.0</ele><time>2026-05-03T13:55:49Z</time></trkpt><trkpt lat="41.17596505449381" lon="9.280925887143837"><ele>44.0</ele><time>2026-05-03T13:55:50Z</time></trkpt><trkpt lat="41.17583801179614" lon="9.281116035532374"><ele>44.0</ele><time>2026-05-03T13:55:51Z</time></trkpt><trkpt lat="41.175708641023924" lon="9.28131102286598"><ele>45.666666666666664</ele><time>2026-05-03T13:55:52Z</time></trkpt><trkpt lat="41.17558134409636" lon="9.281509489654598"><ele>47.33333333333333</ele><time>2026-05-03T13:55:53Z</time></trkpt><trkpt lat="41.17545589287405" lon="9.281707307766535"><ele>49.0</ele><time>2026-05-03T13:55:54Z</time></trkpt><trkpt lat="41.17532998826313" lon="9.281902787865056"><ele>49.0</ele><time>2026-05-03T13:55:55Z</time></trkpt><trkpt lat="41.17520573336097" lon="9.282092884294753"><ele>49.0</ele><time>2026-05-03T13:55:56Z</time></trkpt><trkpt lat="41.17508839771652" lon="9.282264813950713"><ele>49.0</ele><time>2026-05-03T13:55:57Z</time></trkpt><trkpt lat="41.174979189364535" lon="9.2824305851701"><ele>49.33333333333333</ele><time>2026-05-03T13:55:58Z</time></trkpt><trkpt lat="41.17487069364471" lon="9.282597960752168"><ele>49.66666666666667</ele><time>2026-05-03T13:55:59Z</time></trkpt><trkpt lat="41.17476684450052" lon="9.282762151175607"><ele>50.0</ele><time>2026-05-03T13:56:00Z</time></trkpt><trkpt lat="41.17466210303068" lon="9.282923914555822"><ele>50.0</ele><time>2026-05-03T13:56:01Z</time></trkpt><trkpt lat="41.174555477848315" lon="9.283083530087788"><ele>50.0</ele><time>2026-05-03T13:56:02Z</time></trkpt><trkpt lat="41.17444531971574" lon="9.283246046876858"><ele>50.0</ele><time>2026-05-03T13:56:03Z</time></trkpt><trkpt lat="41.174342934157735" lon="9.283406454669217"><ele>49.5</ele><time>2026-05-03T13:56:04Z</time></trkpt><trkpt lat="41.17425465948313" lon="9.283557051860699"><ele>49.0</ele><time>2026-05-03T13:56:05Z</time></trkpt><trkpt lat="41.17419259197836" lon="9.283724447032325"><ele>48.5</ele><time>2026-05-03T13:56:06Z</time></trkpt><trkpt lat="41.17417977809532" lon="9.283918559686313"><ele>48.0</ele><time>2026-05-03T13:56:07Z</time></trkpt><trkpt lat="41.17420024548589" lon="9.284130210020864"><ele>48.0</ele><time>2026-05-03T13:56:08Z</time></trkpt><trkpt lat="41.174230034147534" lon="9.284346814369004"><ele>48.0</ele><time>2026-05-03T13:56:08.999Z</time></trkpt><trkpt lat="41.17425116923123" lon="9.284558967345152"><ele>48.0</ele><time>2026-05-03T13:56:09.999Z</time></trkpt><trkpt lat="41.174247873662374" lon="9.284770932250286"><ele>47.333333333333336</ele><time>2026-05-03T13:56:10.999Z</time></trkpt><trkpt lat="41.174197961570364" lon="9.284974329602402"><ele>46.66666666666667</ele><time>2026-05-03T13:56:11.999Z</time></trkpt><trkpt lat="41.17416742909244" lon="9.285188467370107"><ele>46.0</ele><time>2026-05-03T13:56:12.999Z</time></trkpt><trkpt lat="41.174114184600455" lon="9.285395684777482"><ele>46.0</ele><time>2026-05-03T13:56:13.999Z</time></trkpt><trkpt lat="41.17406618157395" lon="9.285602150751657"><ele>46.0</ele><time>2026-05-03T13:56:14.999Z</time></trkpt><trkpt lat="41.17402158338807" lon="9.285803554582087"><ele>46.0</ele><time>2026-05-03T13:56:15.999Z</time></trkpt><trkpt lat="41.17397902310348" lon="9.286001796713325"><ele>46.66666666666667</ele><time>2026-05-03T13:56:16.999Z</time></trkpt><trkpt lat="41.17393546942595" lon="9.286200800097479"><ele>47.333333333333336</ele><time>2026-05-03T13:56:17.999Z</time></trkpt><trkpt lat="41.17388932356693" lon="9.286402725084738"><ele>48.0</ele><time>2026-05-03T13:56:18.999Z</time></trkpt><trkpt lat="41.17384327023197" lon="9.28660521238856"><ele>48.0</ele><time>2026-05-03T13:56:19.999Z</time></trkpt><trkpt lat="41.17379650807024" lon="9.286810684234041"><ele>48.0</ele><time>2026-05-03T13:56:20.999Z</time></trkpt><trkpt lat="41.17374718241402" lon="9.287016052737703"><ele>48.0</ele><time>2026-05-03T13:56:21.999Z</time></trkpt><trkpt lat="41.173692016882896" lon="9.287212842322932"><ele>47.25</ele><time>2026-05-03T13:56:22.999Z</time></trkpt><trkpt lat="41.173635126829346" lon="9.287392023818029"><ele>46.5</ele><time>2026-05-03T13:56:23.999Z</time></trkpt><trkpt lat="41.17358130403743" lon="9.287558485555437"><ele>45.75</ele><time>2026-05-03T13:56:24.999Z</time></trkpt><trkpt lat="41.17353075052497" lon="9.287719444904416"><ele>45.0</ele><time>2026-05-03T13:56:25.999Z</time></trkpt><trkpt lat="41.173483594877595" lon="9.287877290774261"><ele>45.0</ele><time>2026-05-03T13:56:26.999Z</time></trkpt><trkpt lat="41.1734367366161" lon="9.288034364161154"><ele>45.0</ele><time>2026-05-03T13:56:27.999Z</time></trkpt><trkpt lat="41.17338824513043" lon="9.288191294399152"><ele>45.0</ele><time>2026-05-03T13:56:28.999Z</time></trkpt><trkpt lat="41.17333838800467" lon="9.288352264990904"><ele>45.0</ele><time>2026-05-03T13:56:29.999Z</time></trkpt><trkpt lat="41.17328727717014" lon="9.288517099655152"><ele>44.75</ele><time>2026-05-03T13:56:30.999Z</time></trkpt><trkpt lat="41.17323388285427" lon="9.28868673736533"><ele>44.5</ele><time>2026-05-03T13:56:31.999Z</time></trkpt><trkpt lat="41.173178309676636" lon="9.288860845719691"><ele>44.25</ele><time>2026-05-03T13:56:32.999Z</time></trkpt><trkpt lat="41.17312266226364" lon="9.289041567284562"><ele>44.0</ele><time>2026-05-03T13:56:33.999Z</time></trkpt><trkpt lat="41.17306680693247" lon="9.289227425857739"><ele>42.666666666666664</ele><time>2026-05-03T13:56:34.999Z</time></trkpt><trkpt lat="41.173008632322194" lon="9.289419131041479"><ele>41.333333333333336</ele><time>2026-05-03T13:56:35.999Z</time></trkpt><trkpt lat="41.17294741502796" lon="9.289614634808897"><ele>40.0</ele><time>2026-05-03T13:56:36.999Z</time></trkpt><trkpt lat="41.172884637486874" lon="9.289815869994465"><ele>39.333333333333336</ele><time>2026-05-03T13:56:37.999Z</time></trkpt><trkpt lat="41.172821167584125" lon="9.290020101982488"><ele>38.666666666666664</ele><time>2026-05-03T13:56:38.999Z</time></trkpt><trkpt lat="41.172756656460216" lon="9.290229391785397"><ele>38.0</ele><time>2026-05-03T13:56:39.999Z</time></trkpt><trkpt lat="41.1726898898549" lon="9.290439993314779"><ele>38.0</ele><time>2026-05-03T13:56:40.999Z</time></trkpt><trkpt lat="41.17261887026258" lon="9.290653286032152"><ele>38.0</ele><time>2026-05-03T13:56:41.999Z</time></trkpt><trkpt lat="41.172537149461135" lon="9.290859904638383"><ele>38.0</ele><time>2026-05-03T13:56:42.999Z</time></trkpt><trkpt lat="41.172449113141255" lon="9.291060987313333"><ele>38.0</ele><time>2026-05-03T13:56:43.999Z</time></trkpt><trkpt lat="41.1723572354717" lon="9.29125843564048"><ele>38.0</ele><time>2026-05-03T13:56:44.999Z</time></trkpt><trkpt lat="41.17226683874345" lon="9.291453050641987"><ele>38.0</ele><time>2026-05-03T13:56:45.999Z</time></trkpt><trkpt lat="41.17218402058529" lon="9.291635897419669"><ele>37.666666666666664</ele><time>2026-05-03T13:56:46.999Z</time></trkpt><trkpt lat="41.1720998504574" lon="9.291818438518016"><ele>37.333333333333336</ele><time>2026-05-03T13:56:47.999Z</time></trkpt><trkpt lat="41.17201726360737" lon="9.292003429143211"><ele>37.0</ele><time>2026-05-03T13:56:48.999Z</time></trkpt><trkpt lat="41.171935156278835" lon="9.292190005614467"><ele>36.0</ele><time>2026-05-03T13:56:49.999Z</time></trkpt><trkpt lat="41.1718540916405" lon="9.292379858521556"><ele>35.0</ele><time>2026-05-03T13:56:50.999Z</time></trkpt><trkpt lat="41.17177416200525" lon="9.292574448601092"><ele>34.0</ele><time>2026-05-03T13:56:51.999Z</time></trkpt><trkpt lat="41.17170334286159" lon="9.292774507250567"><ele>34.0</ele><time>2026-05-03T13:56:52.999Z</time></trkpt><trkpt lat="41.1716452718363" lon="9.292981534398175"><ele>34.0</ele><time>2026-05-03T13:56:53.999Z</time></trkpt><trkpt lat="41.171585994946405" lon="9.293188499350295"><ele>34.0</ele><time>2026-05-03T13:56:54.999Z</time></trkpt><trkpt lat="41.171525321896674" lon="9.293389434479199"><ele>34.333333333333336</ele><time>2026-05-03T13:56:55.999Z</time></trkpt><trkpt lat="41.1714726581413" lon="9.293583473338343"><ele>34.666666666666664</ele><time>2026-05-03T13:56:56.999Z</time></trkpt><trkpt lat="41.171443124766405" lon="9.293781025811336"><ele>35.0</ele><time>2026-05-03T13:56:57.999Z</time></trkpt><trkpt lat="41.17144344307035" lon="9.29398324075128"><ele>33.0</ele><time>2026-05-03T13:56:58.999Z</time></trkpt><trkpt lat="41.1714568374744" lon="9.294182874429483"><ele>31.0</ele><time>2026-05-03T13:56:59.999Z</time></trkpt><trkpt lat="41.17143733391817" lon="9.294384784129427"><ele>29.0</ele><time>2026-05-03T13:57:00.999Z</time></trkpt><trkpt lat="41.171381914702096" lon="9.294583992422238"><ele>28.0</ele><time>2026-05-03T13:57:01.999Z</time></trkpt><trkpt lat="41.17132539050588" lon="9.294793292652505"><ele>27.0</ele><time>2026-05-03T13:57:02.999Z</time></trkpt><trkpt lat="41.17127429227051" lon="9.29500684404752"><ele>26.0</ele><time>2026-05-03T13:57:03.999Z</time></trkpt><trkpt lat="41.171228085351125" lon="9.295230045459144"><ele>26.0</ele><time>2026-05-03T13:57:04.999Z</time></trkpt><trkpt lat="41.17118462120808" lon="9.29546123561902"><ele>26.0</ele><time>2026-05-03T13:57:05.999Z</time></trkpt><trkpt lat="41.17114536937052" lon="9.295698412145512"><ele>26.0</ele><time>2026-05-03T13:57:06.999Z</time></trkpt><trkpt lat="41.171109043702515" lon="9.295942184904815"><ele>25.0</ele><time>2026-05-03T13:57:07.999Z</time></trkpt><trkpt lat="41.17107248480093" lon="9.296187538558367"><ele>24.0</ele><time>2026-05-03T13:57:08.999Z</time></trkpt><trkpt lat="41.17103856919103" lon="9.296420332675947"><ele>23.0</ele><time>2026-05-03T13:57:09.999Z</time></trkpt><trkpt lat="41.17100455853353" lon="9.296641558001548"><ele>22.333333333333336</ele><time>2026-05-03T13:57:10.999Z</time></trkpt><trkpt lat="41.170972716291175" lon="9.296853181267679"><ele>21.666666666666668</ele><time>2026-05-03T13:57:11.999Z</time></trkpt><trkpt lat="41.17094218561422" lon="9.297057557242253"><ele>21.0</ele><time>2026-05-03T13:57:12.999Z</time></trkpt><trkpt lat="41.17091305435698" lon="9.297259683107773"><ele>21.0</ele><time>2026-05-03T13:57:13.999Z</time></trkpt><trkpt lat="41.17088534531045" lon="9.297460934326404"><ele>21.0</ele><time>2026-05-03T13:57:14.999Z</time></trkpt><trkpt lat="41.170855734459536" lon="9.297662291540483"><ele>21.0</ele><time>2026-05-03T13:57:15.999Z</time></trkpt><trkpt lat="41.1708248824172" lon="9.297861749715619"><ele>21.0</ele><time>2026-05-03T13:57:16.999Z</time></trkpt><trkpt lat="41.170788688721245" lon="9.298064157054943"><ele>21.0</ele><time>2026-05-03T13:57:17.999Z</time></trkpt><trkpt lat="41.17074596276347" lon="9.298267559391434"><ele>21.0</ele><time>2026-05-03T13:57:18.999Z</time></trkpt><trkpt lat="41.17069315074411" lon="9.298468092579407"><ele>19.333333333333332</ele><time>2026-05-03T13:57:19.999Z</time></trkpt><trkpt lat="41.17062239345009" lon="9.298667714951982"><ele>17.666666666666664</ele><time>2026-05-03T13:57:20.999Z</time></trkpt><trkpt lat="41.17052848280515" lon="9.298847323115307"><ele>16.0</ele><time>2026-05-03T13:57:21.999Z</time></trkpt><trkpt lat="41.1704193035059" lon="9.299013993404632"><ele>14.666666666666666</ele><time>2026-05-03T13:57:22.999Z</time></trkpt><trkpt lat="41.170327150536096" lon="9.299190989049189"><ele>13.333333333333332</ele><time>2026-05-03T13:57:23.999Z</time></trkpt><trkpt lat="41.170223522411916" lon="9.299373806421393"><ele>12.0</ele><time>2026-05-03T13:57:24.999Z</time></trkpt><trkpt lat="41.170117391875415" lon="9.29955288855846"><ele>12.0</ele><time>2026-05-03T13:57:25.999Z</time></trkpt><trkpt lat="41.17001043566417" lon="9.299731156044984"><ele>12.0</ele><time>2026-05-03T13:57:26.999Z</time></trkpt><trkpt lat="41.16990599444318" lon="9.299912273329243"><ele>12.0</ele><time>2026-05-03T13:57:27.999Z</time></trkpt><trkpt lat="41.169800836521965" lon="9.30009384526648"><ele>14.0</ele><time>2026-05-03T13:57:28.999Z</time></trkpt><trkpt lat="41.1696944643944" lon="9.300274843696155"><ele>16.0</ele><time>2026-05-03T13:57:29.999Z</time></trkpt><trkpt lat="41.16958800963161" lon="9.300453264562568"><ele>18.0</ele><time>2026-05-03T13:57:31Z</time></trkpt><trkpt lat="41.16948134335897" lon="9.300632953732975"><ele>18.0</ele><time>2026-05-03T13:57:32Z</time></trkpt><trkpt lat="41.1693770992717" lon="9.30081403566975"><ele>18.0</ele><time>2026-05-03T13:57:33Z</time></trkpt><trkpt lat="41.16927272830673" lon="9.300994273716713"><ele>18.0</ele><time>2026-05-03T13:57:34Z</time></trkpt><trkpt lat="41.16916823994641" lon="9.301171416032487"><ele>18.0</ele><time>2026-05-03T13:57:35Z</time></trkpt><trkpt lat="41.16906508514475" lon="9.301346092288433"><ele>18.0</ele><time>2026-05-03T13:57:36Z</time></trkpt><trkpt lat="41.168962292953765" lon="9.301521126280992"><ele>18.0</ele><time>2026-05-03T13:57:37Z</time></trkpt><trkpt lat="41.168860500161074" lon="9.30169284316126"><ele>21.333333333333336</ele><time>2026-05-03T13:57:38Z</time></trkpt><trkpt lat="41.16875691677817" lon="9.301860977054881"><ele>24.666666666666668</ele><time>2026-05-03T13:57:39Z</time></trkpt><trkpt lat="41.16865636740693" lon="9.302027603209034"><ele>28.0</ele><time>2026-05-03T13:57:40Z</time></trkpt><trkpt lat="41.16856094846534" lon="9.302196773338485"><ele>25.333333333333336</ele><time>2026-05-03T13:57:41Z</time></trkpt><trkpt lat="41.168463699873534" lon="9.302373904563797"><ele>22.666666666666668</ele><time>2026-05-03T13:57:42Z</time></trkpt><trkpt lat="41.16838198738545" lon="9.302562357632162"><ele>20.0</ele><time>2026-05-03T13:57:43Z</time></trkpt><trkpt lat="41.16833314795667" lon="9.302771502539008"><ele>20.0</ele><time>2026-05-03T13:57:44Z</time></trkpt><trkpt lat="41.168307315598156" lon="9.302989636730379"><ele>20.0</ele><time>2026-05-03T13:57:45Z</time></trkpt><trkpt lat="41.16825721021192" lon="9.303201047830427"><ele>20.0</ele><time>2026-05-03T13:57:46Z</time></trkpt><trkpt lat="41.168226140955895" lon="9.30341891882395"><ele>19.333333333333336</ele><time>2026-05-03T13:57:47Z</time></trkpt><trkpt lat="41.16823319194958" lon="9.303647109701673"><ele>18.666666666666668</ele><time>2026-05-03T13:57:48Z</time></trkpt><trkpt lat="41.16825195912803" lon="9.303865865176379"><ele>18.0</ele><time>2026-05-03T13:57:49Z</time></trkpt><trkpt lat="41.16824806227422" lon="9.30407539493227"><ele>16.333333333333332</ele><time>2026-05-03T13:57:50Z</time></trkpt><trkpt lat="41.16819866475475" lon="9.304265738532951"><ele>14.666666666666666</ele><time>2026-05-03T13:57:51Z</time></trkpt><trkpt lat="41.168110617303995" lon="9.304447739371517"><ele>13.0</ele><time>2026-05-03T13:57:52Z</time></trkpt><trkpt lat="41.16800850433356" lon="9.30462217719925"><ele>15.666666666666666</ele><time>2026-05-03T13:57:53Z</time></trkpt><trkpt lat="41.167922518485994" lon="9.304802485488107"><ele>18.333333333333332</ele><time>2026-05-03T13:57:54Z</time></trkpt><trkpt lat="41.167857458298585" lon="9.30500267646404"><ele>21.0</ele><time>2026-05-03T13:57:55Z</time></trkpt><trkpt lat="41.16778046926862" lon="9.30519157377318"><ele>21.0</ele><time>2026-05-03T13:57:56Z</time></trkpt><trkpt lat="41.16769227818945" lon="9.3053619589191"><ele>21.0</ele><time>2026-05-03T13:57:57Z</time></trkpt><trkpt lat="41.16758435755999" lon="9.305511416719096"><ele>21.0</ele><time>2026-05-03T13:57:58Z</time></trkpt><trkpt lat="41.16745663190627" lon="9.305638519733593"><ele>23.0</ele><time>2026-05-03T13:57:59Z</time></trkpt><trkpt lat="41.16732215628662" lon="9.305764436176942"><ele>25.0</ele><time>2026-05-03T13:58:00Z</time></trkpt><trkpt lat="41.16719044492985" lon="9.305890391423084"><ele>27.0</ele><time>2026-05-03T13:58:01Z</time></trkpt><trkpt lat="41.16706770026493" lon="9.30602713776001"><ele>27.0</ele><time>2026-05-03T13:58:02Z</time></trkpt><trkpt lat="41.16695488089132" lon="9.306182234034477"><ele>27.0</ele><time>2026-05-03T13:58:03Z</time></trkpt><trkpt lat="41.166854339086186" lon="9.306345438978465"><ele>27.0</ele><time>2026-05-03T13:58:04Z</time></trkpt><trkpt lat="41.166759645552375" lon="9.306516328916583"><ele>24.333333333333332</ele><time>2026-05-03T13:58:05Z</time></trkpt><trkpt lat="41.16668622766529" lon="9.30669944897114"><ele>21.666666666666664</ele><time>2026-05-03T13:58:06Z</time></trkpt><trkpt lat="41.16665458843566" lon="9.306899231976216"><ele>19.0</ele><time>2026-05-03T13:58:07Z</time></trkpt><trkpt lat="41.166659845131214" lon="9.307102648006541"><ele>18.0</ele><time>2026-05-03T13:58:07.999Z</time></trkpt><trkpt lat="41.166677515990145" lon="9.307306995522719"><ele>17.0</ele><time>2026-05-03T13:58:08.999Z</time></trkpt><trkpt lat="41.16668499372165" lon="9.307487692185843"><ele>16.0</ele><time>2026-05-03T13:58:09.999Z</time></trkpt><trkpt lat="41.166690635784086" lon="9.307662472635766"><ele>15.0</ele><time>2026-05-03T13:58:10.999Z</time></trkpt><trkpt lat="41.16669145659456" lon="9.30783269892508"><ele>15.0</ele><time>2026-05-03T13:58:11.999Z</time></trkpt><trkpt lat="41.166680963833265" lon="9.307991263790251"><ele>15.0</ele><time>2026-05-03T13:58:12.999Z</time></trkpt><trkpt lat="41.166651467768354" lon="9.308142602236328"><ele>15.0</ele><time>2026-05-03T13:58:13.999Z</time></trkpt><trkpt lat="41.16659124586889" lon="9.308286287621064"><ele>15.0</ele><time>2026-05-03T13:58:14.999Z</time></trkpt><trkpt lat="41.16650341028237" lon="9.308416457025828"><ele>15.5</ele><time>2026-05-03T13:58:15.999Z</time></trkpt><trkpt lat="41.16640086618171" lon="9.308531414933096"><ele>16.0</ele><time>2026-05-03T13:58:16.999Z</time></trkpt><trkpt lat="41.166278375575295" lon="9.308626319752605"><ele>16.5</ele><time>2026-05-03T13:58:17.999Z</time></trkpt><trkpt lat="41.16614463464583" lon="9.3087065489034"><ele>17.0</ele><time>2026-05-03T13:58:18.999Z</time></trkpt><trkpt lat="41.16600882318277" lon="9.308788256121563"><ele>17.0</ele><time>2026-05-03T13:58:19.999Z</time></trkpt><trkpt lat="41.16587135713425" lon="9.308887335056879"><ele>17.0</ele><time>2026-05-03T13:58:20.999Z</time></trkpt><trkpt lat="41.165731468634505" lon="9.308986319060018"><ele>17.0</ele><time>2026-05-03T13:58:21.999Z</time></trkpt><trkpt lat="41.1655883573481" lon="9.309086208458758"><ele>15.666666666666668</ele><time>2026-05-03T13:58:22.999Z</time></trkpt><trkpt lat="41.165444016292945" lon="9.309176132305064"><ele>14.333333333333332</ele><time>2026-05-03T13:58:23.999Z</time></trkpt><trkpt lat="41.16530108310839" lon="9.309274535154655"><ele>13.0</ele><time>2026-05-03T13:58:24.999Z</time></trkpt><trkpt lat="41.16515895540662" lon="9.30937147104532"><ele>13.0</ele><time>2026-05-03T13:58:25.999Z</time></trkpt><trkpt lat="41.16502356795184" lon="9.309465146387765"><ele>13.0</ele><time>2026-05-03T13:58:26.999Z</time></trkpt><trkpt lat="41.16488944896069" lon="9.309550913426456"><ele>13.0</ele><time>2026-05-03T13:58:27.999Z</time></trkpt><trkpt lat="41.16476312304005" lon="9.309636518172779"><ele>13.0</ele><time>2026-05-03T13:58:28.999Z</time></trkpt><trkpt lat="41.164639253127206" lon="9.309719001150105"><ele>12.5</ele><time>2026-05-03T13:58:29.999Z</time></trkpt><trkpt lat="41.16451967030821" lon="9.309799265046257"><ele>12.0</ele><time>2026-05-03T13:58:30.999Z</time></trkpt><trkpt lat="41.164403333316734" lon="9.309873712821341"><ele>11.5</ele><time>2026-05-03T13:58:31.999Z</time></trkpt><trkpt lat="41.164296534924055" lon="9.309951990466429"><ele>11.0</ele><time>2026-05-03T13:58:32.999Z</time></trkpt><trkpt lat="41.164190709028745" lon="9.310026304850771"><ele>11.0</ele><time>2026-05-03T13:58:33.999Z</time></trkpt><trkpt lat="41.164084901826435" lon="9.310098028223711"><ele>11.0</ele><time>2026-05-03T13:58:34.999Z</time></trkpt><trkpt lat="41.16397972080129" lon="9.310176947593323"><ele>11.0</ele><time>2026-05-03T13:58:35.999Z</time></trkpt><trkpt lat="41.16387662838003" lon="9.310267027827114"><ele>11.0</ele><time>2026-05-03T13:58:36.999Z</time></trkpt><trkpt lat="41.16377674933768" lon="9.310367774938634"><ele>11.75</ele><time>2026-05-03T13:58:37.999Z</time></trkpt><trkpt lat="41.16368390451806" lon="9.310481147990235"><ele>12.5</ele><time>2026-05-03T13:58:38.999Z</time></trkpt><trkpt lat="41.1635938194212" lon="9.310615873221227"><ele>13.25</ele><time>2026-05-03T13:58:39.999Z</time></trkpt><trkpt lat="41.163507349526455" lon="9.310757790655373"><ele>14.0</ele><time>2026-05-03T13:58:40.999Z</time></trkpt><trkpt lat="41.1634375279827" lon="9.310924733912074"><ele>14.0</ele><time>2026-05-03T13:58:41.999Z</time></trkpt><trkpt lat="41.1633768342821" lon="9.311099532610164"><ele>14.0</ele><time>2026-05-03T13:58:42.999Z</time></trkpt><trkpt lat="41.16333601741585" lon="9.311295626620064"><ele>14.0</ele><time>2026-05-03T13:58:43.999Z</time></trkpt><trkpt lat="41.16330806962036" lon="9.311497416805956"><ele>13.333333333333334</ele><time>2026-05-03T13:58:44.999Z</time></trkpt><trkpt lat="41.1632867031173" lon="9.311708381147774"><ele>12.666666666666668</ele><time>2026-05-03T13:58:45.999Z</time></trkpt><trkpt lat="41.16328532320882" lon="9.311922751591112"><ele>12.0</ele><time>2026-05-03T13:58:46.999Z</time></trkpt><trkpt lat="41.16330603779306" lon="9.312140753643536"><ele>10.333333333333334</ele><time>2026-05-03T13:58:47.999Z</time></trkpt><trkpt lat="41.16333752680422" lon="9.31235900219876"><ele>8.666666666666668</ele><time>2026-05-03T13:58:48.999Z</time></trkpt><trkpt lat="41.16337810882359" lon="9.312581784489382"><ele>7.0</ele><time>2026-05-03T13:58:49.999Z</time></trkpt><trkpt lat="41.163423092359054" lon="9.312803348980989"><ele>7.0</ele><time>2026-05-03T13:58:50.999Z</time></trkpt><trkpt lat="41.1634643336776" lon="9.313018190775276"><ele>7.0</ele><time>2026-05-03T13:58:51.999Z</time></trkpt><trkpt lat="41.16352122211041" lon="9.31324503795996"><ele>7.0</ele><time>2026-05-03T13:58:52.999Z</time></trkpt><trkpt lat="41.163576804364716" lon="9.313473436009385"><ele>5.666666666666667</ele><time>2026-05-03T13:58:53.999Z</time></trkpt><trkpt lat="41.163633037175266" lon="9.313698338038693"><ele>4.333333333333334</ele><time>2026-05-03T13:58:54.999Z</time></trkpt><trkpt lat="41.163684863145015" lon="9.313921383027736"><ele>3.0</ele><time>2026-05-03T13:58:55.999Z</time></trkpt><trkpt lat="41.16373464083719" lon="9.31413848449417"><ele>2.6666666666666665</ele><time>2026-05-03T13:58:56.999Z</time></trkpt><trkpt lat="41.16378824397631" lon="9.314361266860622"><ele>2.333333333333333</ele><time>2026-05-03T13:58:57.999Z</time></trkpt><trkpt lat="41.16384260294349" lon="9.314583140841874"><ele>2.0</ele><time>2026-05-03T13:58:58.999Z</time></trkpt><trkpt lat="41.16389339614172" lon="9.314801087994482"><ele>2.0</ele><time>2026-05-03T13:58:59.999Z</time></trkpt><trkpt lat="41.16394588762735" lon="9.315013851075467"><ele>2.0</ele><time>2026-05-03T13:59:00.999Z</time></trkpt><trkpt lat="41.16399879536664" lon="9.315221960512527"><ele>2.0</ele><time>2026-05-03T13:59:01.999Z</time></trkpt><trkpt lat="41.16404630584826" lon="9.31542632500072"><ele>3.25</ele><time>2026-05-03T13:59:02.999Z</time></trkpt><trkpt lat="41.16408515820255" lon="9.31561849550378"><ele>4.5</ele><time>2026-05-03T13:59:03.999Z</time></trkpt><trkpt lat="41.16413295097387" lon="9.3157938629206"><ele>5.75</ele><time>2026-05-03T13:59:04.999Z</time></trkpt><trkpt lat="41.16421385872775" lon="9.315927242764062"><ele>7.0</ele><time>2026-05-03T13:59:05.999Z</time></trkpt><trkpt lat="41.164335428284176" lon="9.316026512266223"><ele>7.0</ele><time>2026-05-03T13:59:06.999Z</time></trkpt><trkpt lat="41.164475484629726" lon="9.31606765352447"><ele>7.0</ele><time>2026-05-03T13:59:07.999Z</time></trkpt><trkpt lat="41.16462463809244" lon="9.316066138336133"><ele>7.0</ele><time>2026-05-03T13:59:08.999Z</time></trkpt><trkpt lat="41.16477287932988" lon="9.316065834360222"><ele>7.0</ele><time>2026-05-03T13:59:09.999Z</time></trkpt><trkpt lat="41.16492254745639" lon="9.316058222473208"><ele>7.333333333333334</ele><time>2026-05-03T13:59:10.999Z</time></trkpt><trkpt lat="41.165072410978254" lon="9.316051030439478"><ele>7.666666666666666</ele><time>2026-05-03T13:59:11.999Z</time></trkpt><trkpt lat="41.1652232278194" lon="9.316047050807672"><ele>8.0</ele><time>2026-05-03T13:59:12.999Z</time></trkpt><trkpt lat="41.16537329194529" lon="9.316040365194857"><ele>8.0</ele><time>2026-05-03T13:59:13.999Z</time></trkpt><trkpt lat="41.165521658464904" lon="9.316037605322402"><ele>8.0</ele><time>2026-05-03T13:59:14.999Z</time></trkpt><trkpt lat="41.165667699579494" lon="9.316036747785354"><ele>8.0</ele><time>2026-05-03T13:59:15.999Z</time></trkpt><trkpt lat="41.16581100993746" lon="9.316026400899073"><ele>8.0</ele><time>2026-05-03T13:59:16.999Z</time></trkpt><trkpt lat="41.16595030768071" lon="9.31601664218954"><ele>8.0</ele><time>2026-05-03T13:59:17.999Z</time></trkpt><trkpt lat="41.16608572108877" lon="9.316014766755229"><ele>8.0</ele><time>2026-05-03T13:59:18.999Z</time></trkpt><trkpt lat="41.16621552496918" lon="9.316014038917846"><ele>8.0</ele><time>2026-05-03T13:59:19.999Z</time></trkpt><trkpt lat="41.16634757169968" lon="9.316027665774493"><ele>8.0</ele><time>2026-05-03T13:59:20.999Z</time></trkpt><trkpt lat="41.16648204691647" lon="9.316059929241243"><ele>8.25</ele><time>2026-05-03T13:59:21.999Z</time></trkpt><trkpt lat="41.16661554820305" lon="9.316113950683297"><ele>8.5</ele><time>2026-05-03T13:59:22.999Z</time></trkpt><trkpt lat="41.166745216348836" lon="9.31619932882353"><ele>8.75</ele><time>2026-05-03T13:59:23.999Z</time></trkpt><trkpt lat="41.16687119121118" lon="9.316292473076603"><ele>9.0</ele><time>2026-05-03T13:59:24.999Z</time></trkpt><trkpt lat="41.16699221997451" lon="9.316401096103927"><ele>11.5</ele><time>2026-05-03T13:59:25.999Z</time></trkpt><trkpt lat="41.167096733186085" lon="9.316533537183007"><ele>14.0</ele><time>2026-05-03T13:59:26.999Z</time></trkpt><trkpt lat="41.1671847511825" lon="9.316675860557906"><ele>16.5</ele><time>2026-05-03T13:59:27.999Z</time></trkpt><trkpt lat="41.167262522135104" lon="9.316829381062076"><ele>19.0</ele><time>2026-05-03T13:59:28.999Z</time></trkpt><trkpt lat="41.16733877773823" lon="9.316973838045882"><ele>17.75</ele><time>2026-05-03T13:59:29.999Z</time></trkpt><trkpt lat="41.1674170507833" lon="9.317105382405906"><ele>16.5</ele><time>2026-05-03T13:59:30.999Z</time></trkpt><trkpt lat="41.16749404880835" lon="9.317229847493813"><ele>15.25</ele><time>2026-05-03T13:59:31.999Z</time></trkpt><trkpt lat="41.167571555284816" lon="9.317350350748816"><ele>14.0</ele><time>2026-05-03T13:59:32.999Z</time></trkpt><trkpt lat="41.16765731550019" lon="9.317450949973518"><ele>17.0</ele><time>2026-05-03T13:59:33.999Z</time></trkpt><trkpt lat="41.16776181833098" lon="9.317510618203713"><ele>20.0</ele><time>2026-05-03T13:59:34.999Z</time></trkpt><trkpt lat="41.167877120925276" lon="9.317512880648462"><ele>23.0</ele><time>2026-05-03T13:59:35.999Z</time></trkpt><trkpt lat="41.16798866303132" lon="9.317489065415465"><ele>26.0</ele><time>2026-05-03T13:59:37Z</time></trkpt><trkpt lat="41.16810116352763" lon="9.317469423936647"><ele>26.0</ele><time>2026-05-03T13:59:38Z</time></trkpt><trkpt lat="41.1682167396282" lon="9.31746615556068"><ele>26.0</ele><time>2026-05-03T13:59:39Z</time></trkpt><trkpt lat="41.16833365758725" lon="9.317494959262499"><ele>26.0</ele><time>2026-05-03T13:59:40Z</time></trkpt><trkpt lat="41.16844437502174" lon="9.317562845741373"><ele>26.0</ele><time>2026-05-03T13:59:41Z</time></trkpt><trkpt lat="41.16853876986063" lon="9.317664968291936"><ele>26.0</ele><time>2026-05-03T13:59:42Z</time></trkpt><trkpt lat="41.168627406749195" lon="9.317787065265323"><ele>26.0</ele><time>2026-05-03T13:59:43Z</time></trkpt><trkpt lat="41.168717301425154" lon="9.317900786484799"><ele>26.0</ele><time>2026-05-03T13:59:44Z</time></trkpt><trkpt lat="41.16880572158543" lon="9.318006117796966"><ele>26.0</ele><time>2026-05-03T13:59:45Z</time></trkpt><trkpt lat="41.168897799811425" lon="9.318088136086022"><ele>26.8</ele><time>2026-05-03T13:59:46Z</time></trkpt><trkpt lat="41.16900559326172" lon="9.318124049569207"><ele>27.6</ele><time>2026-05-03T13:59:47Z</time></trkpt><trkpt lat="41.16911025130132" lon="9.318092742572222"><ele>28.4</ele><time>2026-05-03T13:59:48Z</time></trkpt><trkpt lat="41.169195245791755" lon="9.318019524480393"><ele>29.2</ele><time>2026-05-03T13:59:49Z</time></trkpt><trkpt lat="41.16926714708382" lon="9.317914361634848"><ele>30.0</ele><time>2026-05-03T13:59:50Z</time></trkpt><trkpt lat="41.16935272808565" lon="9.317842015488873"><ele>30.0</ele><time>2026-05-03T13:59:51Z</time></trkpt><trkpt lat="41.16946144639318" lon="9.317808844664565"><ele>30.0</ele><time>2026-05-03T13:59:52Z</time></trkpt><trkpt lat="41.16958162835914" lon="9.317821967610305"><ele>30.0</ele><time>2026-05-03T13:59:53Z</time></trkpt><trkpt lat="41.16969472469744" lon="9.31786852760489"><ele>30.0</ele><time>2026-05-03T13:59:54Z</time></trkpt><trkpt lat="41.16977315651942" lon="9.317946993822725"><ele>30.0</ele><time>2026-05-03T13:59:55Z</time></trkpt><trkpt lat="41.16983266832236" lon="9.318069053595583"><ele>30.75</ele><time>2026-05-03T13:59:56Z</time></trkpt><trkpt lat="41.16985905235073" lon="9.318231358156376"><ele>31.5</ele><time>2026-05-03T13:59:57Z</time></trkpt><trkpt lat="41.16987815380042" lon="9.318381979657183"><ele>32.25</ele><time>2026-05-03T13:59:58Z</time></trkpt><trkpt lat="41.16989699162813" lon="9.318532761951957"><ele>33.0</ele><time>2026-05-03T13:59:59Z</time></trkpt><trkpt lat="41.16991743500466" lon="9.318686479805327"><ele>33.0</ele><time>2026-05-03T14:00:00Z</time></trkpt><trkpt lat="41.16993685982533" lon="9.31884433879201"><ele>33.0</ele><time>2026-05-03T14:00:01Z</time></trkpt><trkpt lat="41.16995775565603" lon="9.3190073738336"><ele>33.0</ele><time>2026-05-03T14:00:02Z</time></trkpt><trkpt lat="41.16998151119093" lon="9.319173006469237"><ele>33.0</ele><time>2026-05-03T14:00:03Z</time></trkpt><trkpt lat="41.170008562219365" lon="9.319342859937514"><ele>34.25</ele><time>2026-05-03T14:00:04Z</time></trkpt><trkpt lat="41.170030761261415" lon="9.319514576106055"><ele>35.5</ele><time>2026-05-03T14:00:05Z</time></trkpt><trkpt lat="41.1700582112449" lon="9.319682867256471"><ele>36.75</ele><time>2026-05-03T14:00:06Z</time></trkpt><trkpt lat="41.17009544640067" lon="9.319840077054005"><ele>38.0</ele><time>2026-05-03T14:00:07Z</time></trkpt><trkpt lat="41.17014116994174" lon="9.319990443067157"><ele>39.599999999999994</ele><time>2026-05-03T14:00:08Z</time></trkpt><trkpt lat="41.170191068507556" lon="9.320133005261116"><ele>41.199999999999996</ele><time>2026-05-03T14:00:08.999Z</time></trkpt><trkpt lat="41.170241964672655" lon="9.320268431143448"><ele>42.8</ele><time>2026-05-03T14:00:09.999Z</time></trkpt><trkpt lat="41.170289477764875" lon="9.320401922600995"><ele>44.4</ele><time>2026-05-03T14:00:10.999Z</time></trkpt><trkpt lat="41.17033211151804" lon="9.320529247113084"><ele>46.0</ele><time>2026-05-03T14:00:11.999Z</time></trkpt><trkpt lat="41.17037296327942" lon="9.320647848463185"><ele>47.0</ele><time>2026-05-03T14:00:12.999Z</time></trkpt><trkpt lat="41.17041085591694" lon="9.320769971394085"><ele>48.0</ele><time>2026-05-03T14:00:13.999Z</time></trkpt><trkpt lat="41.170431029331446" lon="9.320910157248948"><ele>49.0</ele><time>2026-05-03T14:00:14.999Z</time></trkpt><trkpt lat="41.170425701915484" lon="9.321051492858208"><ele>50.0</ele><time>2026-05-03T14:00:15.999Z</time></trkpt><trkpt lat="41.170393503443805" lon="9.321201090952808"><ele>51.0</ele><time>2026-05-03T14:00:16.999Z</time></trkpt><trkpt lat="41.170323090060954" lon="9.321318637256317"><ele>50.75</ele><time>2026-05-03T14:00:17.999Z</time></trkpt><trkpt lat="41.17026325213892" lon="9.321456373510335"><ele>50.5</ele><time>2026-05-03T14:00:18.999Z</time></trkpt><trkpt lat="41.17019242860979" lon="9.32158544763987"><ele>50.25</ele><time>2026-05-03T14:00:19.999Z</time></trkpt><trkpt lat="41.17012212124868" lon="9.321717933562708"><ele>50.0</ele><time>2026-05-03T14:00:20.999Z</time></trkpt><trkpt lat="41.1700541200615" lon="9.321845195362556"><ele>50.0</ele><time>2026-05-03T14:00:21.999Z</time></trkpt><trkpt lat="41.16998404906505" lon="9.321979636558757"><ele>50.0</ele><time>2026-05-03T14:00:22.999Z</time></trkpt><trkpt lat="41.1699149404749" lon="9.322120291099461"><ele>50.0</ele><time>2026-05-03T14:00:23.999Z</time></trkpt><trkpt lat="41.169850452232446" lon="9.322270120151428"><ele>50.0</ele><time>2026-05-03T14:00:24.999Z</time></trkpt><trkpt lat="41.16979559121789" lon="9.32243202413321"><ele>50.75</ele><time>2026-05-03T14:00:25.999Z</time></trkpt><trkpt lat="41.16976258182114" lon="9.322608932017173"><ele>51.5</ele><time>2026-05-03T14:00:26.999Z</time></trkpt><trkpt lat="41.1697474107926" lon="9.32279747537806"><ele>52.25</ele><time>2026-05-03T14:00:27.999Z</time></trkpt><trkpt lat="41.16975976235745" lon="9.322985857764047"><ele>53.0</ele><time>2026-05-03T14:00:28.999Z</time></trkpt><trkpt lat="41.169800759375384" lon="9.323163344476308"><ele>52.25</ele><time>2026-05-03T14:00:29.999Z</time></trkpt><trkpt lat="41.16987073535461" lon="9.323319209241408"><ele>51.5</ele><time>2026-05-03T14:00:30.999Z</time></trkpt><trkpt lat="41.16996670083931" lon="9.323448538040742"><ele>50.75</ele><time>2026-05-03T14:00:31.999Z</time></trkpt><trkpt lat="41.17007784796599" lon="9.323560885516958"><ele>50.0</ele><time>2026-05-03T14:00:32.999Z</time></trkpt><trkpt lat="41.17019188902997" lon="9.323666216096914"><ele>50.0</ele><time>2026-05-03T14:00:33.999Z</time></trkpt><trkpt lat="41.17030767696178" lon="9.323777956038601"><ele>50.0</ele><time>2026-05-03T14:00:34.999Z</time></trkpt><trkpt lat="41.17042632919917" lon="9.323884744427746"><ele>50.0</ele><time>2026-05-03T14:00:35.999Z</time></trkpt><trkpt lat="41.170551571216876" lon="9.323978381887372"><ele>50.0</ele><time>2026-05-03T14:00:36.999Z</time></trkpt><trkpt lat="41.170683409036045" lon="9.324067528177032"><ele>49.25</ele><time>2026-05-03T14:00:37.999Z</time></trkpt><trkpt lat="41.170814709996215" lon="9.324156968435839"><ele>48.5</ele><time>2026-05-03T14:00:38.999Z</time></trkpt><trkpt lat="41.17093777185112" lon="9.324254541600077"><ele>47.75</ele><time>2026-05-03T14:00:39.999Z</time></trkpt><trkpt lat="41.17104092031153" lon="9.32437040868151"><ele>47.0</ele><time>2026-05-03T14:00:40.999Z</time></trkpt><trkpt lat="41.17110981859122" lon="9.324518786543917"><ele>47.0</ele><time>2026-05-03T14:00:41.999Z</time></trkpt><trkpt lat="41.17114347361327" lon="9.324692692508087"><ele>47.0</ele><time>2026-05-03T14:00:42.999Z</time></trkpt><trkpt lat="41.17116341038887" lon="9.324867831226802"><ele>47.0</ele><time>2026-05-03T14:00:43.999Z</time></trkpt><trkpt lat="41.17116399306864" lon="9.325031477385014"><ele>47.0</ele><time>2026-05-03T14:00:44.999Z</time></trkpt><trkpt lat="41.171126243096275" lon="9.325178347194402"><ele>47.5</ele><time>2026-05-03T14:00:45.999Z</time></trkpt><trkpt lat="41.171030979318175" lon="9.325297155533178"><ele>48.0</ele><time>2026-05-03T14:00:46.999Z</time></trkpt><trkpt lat="41.17092354710976" lon="9.325427771951988"><ele>48.5</ele><time>2026-05-03T14:00:47.999Z</time></trkpt><trkpt lat="41.17081616048812" lon="9.325553068486988"><ele>49.0</ele><time>2026-05-03T14:00:48.999Z</time></trkpt><trkpt lat="41.17071185948274" lon="9.32567930120012"><ele>50.25</ele><time>2026-05-03T14:00:49.999Z</time></trkpt><trkpt lat="41.17061097392288" lon="9.325820233746438"><ele>51.5</ele><time>2026-05-03T14:00:50.999Z</time></trkpt><trkpt lat="41.17053168117641" lon="9.325982862188111"><ele>52.75</ele><time>2026-05-03T14:00:51.999Z</time></trkpt><trkpt lat="41.17044998444916" lon="9.326142099238215"><ele>54.0</ele><time>2026-05-03T14:00:52.999Z</time></trkpt><trkpt lat="41.17035881863773" lon="9.326296292246546"><ele>53.0</ele><time>2026-05-03T14:00:53.999Z</time></trkpt><trkpt lat="41.17028068038372" lon="9.326466297702934"><ele>52.0</ele><time>2026-05-03T14:00:54.999Z</time></trkpt><trkpt lat="41.17021284633843" lon="9.326639428801192"><ele>51.0</ele><time>2026-05-03T14:00:55.999Z</time></trkpt><trkpt lat="41.170117476724904" lon="9.32678308537708"><ele>50.0</ele><time>2026-05-03T14:00:56.999Z</time></trkpt><trkpt lat="41.17000614216992" lon="9.32690949623579"><ele>50.0</ele><time>2026-05-03T14:00:57.999Z</time></trkpt><trkpt lat="41.169886362544375" lon="9.327016085667703"><ele>50.0</ele><time>2026-05-03T14:00:58.999Z</time></trkpt><trkpt lat="41.1697728334924" lon="9.327116298458124"><ele>50.0</ele><time>2026-05-03T14:00:59.999Z</time></trkpt><trkpt lat="41.16965973826959" lon="9.327209312305866"><ele>50.0</ele><time>2026-05-03T14:01:00.999Z</time></trkpt><trkpt lat="41.16954989852027" lon="9.327325496505832"><ele>50.75</ele><time>2026-05-03T14:01:01.999Z</time></trkpt><trkpt lat="41.16947018742371" lon="9.327482694299627"><ele>51.5</ele><time>2026-05-03T14:01:02.999Z</time></trkpt><trkpt lat="41.16942408547864" lon="9.327667425463545"><ele>52.25</ele><time>2026-05-03T14:01:03.999Z</time></trkpt><trkpt lat="41.16938533792133" lon="9.32784249691948"><ele>53.0</ele><time>2026-05-03T14:01:04.999Z</time></trkpt><trkpt lat="41.16938198981363" lon="9.32802692843983"><ele>53.75</ele><time>2026-05-03T14:01:05.999Z</time></trkpt><trkpt lat="41.16936625509384" lon="9.328210418821964"><ele>54.5</ele><time>2026-05-03T14:01:06.999Z</time></trkpt><trkpt lat="41.16937069453443" lon="9.32839356895288"><ele>55.25</ele><time>2026-05-03T14:01:07.999Z</time></trkpt><trkpt lat="41.16938763074074" lon="9.328576860467242"><ele>56.0</ele><time>2026-05-03T14:01:08.999Z</time></trkpt><trkpt lat="41.169350262196474" lon="9.328765129144417"><ele>56.0</ele><time>2026-05-03T14:01:09.999Z</time></trkpt><trkpt lat="41.16933049194178" lon="9.32894005716979"><ele>56.0</ele><time>2026-05-03T14:01:10.999Z</time></trkpt><trkpt lat="41.16929425826552" lon="9.32911424159864"><ele>56.0</ele><time>2026-05-03T14:01:11.999Z</time></trkpt><trkpt lat="41.1692547292645" lon="9.329287777984407"><ele>56.0</ele><time>2026-05-03T14:01:12.999Z</time></trkpt><trkpt lat="41.16921421334265" lon="9.329455645745677"><ele>56.0</ele><time>2026-05-03T14:01:13.999Z</time></trkpt><trkpt lat="41.16917088684311" lon="9.329632046166942"><ele>56.0</ele><time>2026-05-03T14:01:14.999Z</time></trkpt><trkpt lat="41.16912546079187" lon="9.329809308191388"><ele>56.0</ele><time>2026-05-03T14:01:15.999Z</time></trkpt><trkpt lat="41.16908013339609" lon="9.32998814072113"><ele>56.0</ele><time>2026-05-03T14:01:16.999Z</time></trkpt><trkpt lat="41.16905000420696" lon="9.330176059410963"><ele>56.75</ele><time>2026-05-03T14:01:17.999Z</time></trkpt><trkpt lat="41.169006856613244" lon="9.330358606599344"><ele>57.5</ele><time>2026-05-03T14:01:18.999Z</time></trkpt><trkpt lat="41.168963893293885" lon="9.330540950593164"><ele>58.25</ele><time>2026-05-03T14:01:19.999Z</time></trkpt><trkpt lat="41.16896905294426" lon="9.330744022542216"><ele>59.0</ele><time>2026-05-03T14:01:20.999Z</time></trkpt><trkpt lat="41.169009263841154" lon="9.330939587977722"><ele>56.66666666666667</ele><time>2026-05-03T14:01:21.999Z</time></trkpt><trkpt lat="41.169072022565935" lon="9.331122585249462"><ele>54.33333333333333</ele><time>2026-05-03T14:01:22.999Z</time></trkpt><trkpt lat="41.169144789374" lon="9.331298347955865"><ele>52.0</ele><time>2026-05-03T14:01:23.999Z</time></trkpt><trkpt lat="41.169233451792955" lon="9.331466395759659"><ele>52.0</ele><time>2026-05-03T14:01:24.999Z</time></trkpt><trkpt lat="41.169297228648226" lon="9.331658744600578"><ele>52.0</ele><time>2026-05-03T14:01:25.999Z</time></trkpt><trkpt lat="41.16936220711863" lon="9.331844903685472"><ele>52.0</ele><time>2026-05-03T14:01:26.999Z</time></trkpt><trkpt lat="41.16940266396217" lon="9.332035333811772"><ele>52.33333333333333</ele><time>2026-05-03T14:01:27.999Z</time></trkpt><trkpt lat="41.16943302739034" lon="9.33223530374884"><ele>52.66666666666667</ele><time>2026-05-03T14:01:28.999Z</time></trkpt><trkpt lat="41.16947434133552" lon="9.332433582252767"><ele>53.0</ele><time>2026-05-03T14:01:29.999Z</time></trkpt><trkpt lat="41.16950165881459" lon="9.332633606694149"><ele>53.0</ele><time>2026-05-03T14:01:30.999Z</time></trkpt><trkpt lat="41.1695188141147" lon="9.332840344350602"><ele>53.0</ele><time>2026-05-03T14:01:31.999Z</time></trkpt><trkpt lat="41.16956661652739" lon="9.333044581321817"><ele>53.0</ele><time>2026-05-03T14:01:32.999Z</time></trkpt><trkpt lat="41.169640461351584" lon="9.333241119661244"><ele>52.66666666666667</ele><time>2026-05-03T14:01:33.999Z</time></trkpt><trkpt lat="41.16975234834322" lon="9.333408034519666"><ele>52.33333333333333</ele><time>2026-05-03T14:01:34.999Z</time></trkpt><trkpt lat="41.16985838230578" lon="9.333575834340294"><ele>52.0</ele><time>2026-05-03T14:01:35.999Z</time></trkpt><trkpt lat="41.16996870505587" lon="9.333740970663827"><ele>50.33333333333333</ele><time>2026-05-03T14:01:36.999Z</time></trkpt><trkpt lat="41.17006692583014" lon="9.333913747069328"><ele>48.666666666666664</ele><time>2026-05-03T14:01:37.999Z</time></trkpt><trkpt lat="41.17016267982654" lon="9.334084323065625"><ele>47.0</ele><time>2026-05-03T14:01:38.999Z</time></trkpt><trkpt lat="41.17024734818236" lon="9.33426261215967"><ele>47.0</ele><time>2026-05-03T14:01:39.999Z</time></trkpt><trkpt lat="41.17031439283762" lon="9.334451039224955"><ele>47.0</ele><time>2026-05-03T14:01:40.999Z</time></trkpt><trkpt lat="41.17036657174565" lon="9.33463981524256"><ele>47.0</ele><time>2026-05-03T14:01:41.999Z</time></trkpt><trkpt lat="41.17040500213581" lon="9.334825149939816"><ele>47.5</ele><time>2026-05-03T14:01:43Z</time></trkpt><trkpt lat="41.17042695276044" lon="9.3350172320917"><ele>48.0</ele><time>2026-05-03T14:01:44Z</time></trkpt><trkpt lat="41.17042607152824" lon="9.335213221698233"><ele>48.5</ele><time>2026-05-03T14:01:45Z</time></trkpt><trkpt lat="41.170377828088604" lon="9.335386714260872"><ele>49.0</ele><time>2026-05-03T14:01:46Z</time></trkpt><trkpt lat="41.170318059785885" lon="9.335543541921185"><ele>48.25</ele><time>2026-05-03T14:01:47Z</time></trkpt><trkpt lat="41.17026378095727" lon="9.335705868331056"><ele>47.5</ele><time>2026-05-03T14:01:48Z</time></trkpt><trkpt lat="41.17019045254468" lon="9.33585119190601"><ele>46.75</ele><time>2026-05-03T14:01:49Z</time></trkpt><trkpt lat="41.170123556337515" lon="9.335981224865314"><ele>46.0</ele><time>2026-05-03T14:01:50Z</time></trkpt><trkpt lat="41.17007547549386" lon="9.336091925701947"><ele>46.0</ele><time>2026-05-03T14:01:51Z</time></trkpt><trkpt lat="41.17004937371466" lon="9.33617386524224"><ele>46.0</ele><time>2026-05-03T14:01:52Z</time></trkpt><trkpt lat="41.1700257616337" lon="9.336281241145212"><ele>46.0</ele><time>2026-05-03T14:01:54Z</time></trkpt><trkpt lat="41.1699918480685" lon="9.33639534147436"><ele>46.0</ele><time>2026-05-03T14:01:56Z</time></trkpt><trkpt lat="41.17015497505527" lon="9.336491543289902"><ele>46.0</ele><time>2026-05-03T14:01:58Z</time></trkpt><trkpt lat="41.1702294628349" lon="9.33650569321054"><ele>46.0</ele><time>2026-05-03T14:01:59Z</time></trkpt><trkpt lat="41.17030773305389" lon="9.33652578569577"><ele>46.0</ele><time>2026-05-03T14:02:00Z</time></trkpt><trkpt lat="41.170397308694874" lon="9.33649367560276"><ele>46.0</ele><time>2026-05-03T14:02:01Z</time></trkpt><trkpt lat="41.17049684915377" lon="9.336449078628121"><ele>46.0</ele><time>2026-05-03T14:02:02Z</time></trkpt><trkpt lat="41.1706042646897" lon="9.336419867370193"><ele>46.0</ele><time>2026-05-03T14:02:03Z</time></trkpt><trkpt lat="41.170718443189735" lon="9.336386538395697"><ele>45.0</ele><time>2026-05-03T14:02:04Z</time></trkpt><trkpt lat="41.170828136568076" lon="9.33634166008444"><ele>44.0</ele><time>2026-05-03T14:02:05Z</time></trkpt><trkpt lat="41.17094602695923" lon="9.336304806795454"><ele>43.0</ele><time>2026-05-03T14:02:06Z</time></trkpt><trkpt lat="41.17106688374671" lon="9.33627168074909"><ele>42.0</ele><time>2026-05-03T14:02:07Z</time></trkpt><trkpt lat="41.17118838342028" lon="9.336232540865533"><ele>42.0</ele><time>2026-05-03T14:02:08Z</time></trkpt><trkpt lat="41.17130890599823" lon="9.336191685923641"><ele>42.0</ele><time>2026-05-03T14:02:09Z</time></trkpt><trkpt lat="41.171429704521444" lon="9.33615148075166"><ele>42.0</ele><time>2026-05-03T14:02:10Z</time></trkpt><trkpt lat="41.17155019100931" lon="9.336109412622237"><ele>42.0</ele><time>2026-05-03T14:02:11Z</time></trkpt><trkpt lat="41.17167305078021" lon="9.336073301803923"><ele>42.25</ele><time>2026-05-03T14:02:12Z</time></trkpt><trkpt lat="41.17179843522934" lon="9.336046593606646"><ele>42.5</ele><time>2026-05-03T14:02:13Z</time></trkpt><trkpt lat="41.171923809970814" lon="9.33602290423453"><ele>42.75</ele><time>2026-05-03T14:02:14Z</time></trkpt><trkpt lat="41.17205251818655" lon="9.336003083183867"><ele>43.0</ele><time>2026-05-03T14:02:15Z</time></trkpt><trkpt lat="41.172182184532126" lon="9.335986389987875"><ele>43.0</ele><time>2026-05-03T14:02:16Z</time></trkpt><trkpt lat="41.172314498942406" lon="9.335966315854508"><ele>43.0</ele><time>2026-05-03T14:02:17Z</time></trkpt><trkpt lat="41.17244892981944" lon="9.335948415829305"><ele>43.0</ele><time>2026-05-03T14:02:18Z</time></trkpt><trkpt lat="41.172584645580265" lon="9.335930839964607"><ele>43.0</ele><time>2026-05-03T14:02:18.999Z</time></trkpt><trkpt lat="41.172723375701054" lon="9.33591091990339"><ele>42.25</ele><time>2026-05-03T14:02:19.999Z</time></trkpt><trkpt lat="41.172865513342956" lon="9.33589392343514"><ele>41.5</ele><time>2026-05-03T14:02:20.999Z</time></trkpt><trkpt lat="41.17300932692063" lon="9.335877448217158"><ele>40.75</ele><time>2026-05-03T14:02:21.999Z</time></trkpt><trkpt lat="41.173154188359156" lon="9.335861615805817"><ele>40.0</ele><time>2026-05-03T14:02:22.999Z</time></trkpt><trkpt lat="41.17330104933447" lon="9.335839294889572"><ele>37.66666666666667</ele><time>2026-05-03T14:02:23.999Z</time></trkpt><trkpt lat="41.17344696967761" lon="9.335801172302977"><ele>35.333333333333336</ele><time>2026-05-03T14:02:24.999Z</time></trkpt><trkpt lat="41.173590683003894" lon="9.335747460263287"><ele>33.0</ele><time>2026-05-03T14:02:25.999Z</time></trkpt><trkpt lat="41.17373302394808" lon="9.335671758689875"><ele>33.0</ele><time>2026-05-03T14:02:26.999Z</time></trkpt><trkpt lat="41.173868743464766" lon="9.335575594463085"><ele>33.0</ele><time>2026-05-03T14:02:27.999Z</time></trkpt><trkpt lat="41.17400054126001" lon="9.335462919412498"><ele>33.0</ele><time>2026-05-03T14:02:28.999Z</time></trkpt><trkpt lat="41.17411808182835" lon="9.335326469749418"><ele>32.333333333333336</ele><time>2026-05-03T14:02:29.999Z</time></trkpt><trkpt lat="41.17422209519206" lon="9.33517128511367"><ele>31.666666666666668</ele><time>2026-05-03T14:02:30.999Z</time></trkpt><trkpt lat="41.174313140752595" lon="9.334999243009827"><ele>31.0</ele><time>2026-05-03T14:02:31.999Z</time></trkpt><trkpt lat="41.17439457598035" lon="9.334812165657672"><ele>30.0</ele><time>2026-05-03T14:02:32.999Z</time></trkpt><trkpt lat="41.174477161784175" lon="9.334624679026112"><ele>29.0</ele><time>2026-05-03T14:02:33.999Z</time></trkpt><trkpt lat="41.17455960431015" lon="9.334432535115958"><ele>28.0</ele><time>2026-05-03T14:02:34.999Z</time></trkpt><trkpt lat="41.17464460001766" lon="9.334241107776927"><ele>28.0</ele><time>2026-05-03T14:02:35.999Z</time></trkpt><trkpt lat="41.17472581481765" lon="9.33404591121266"><ele>28.0</ele><time>2026-05-03T14:02:36.999Z</time></trkpt><trkpt lat="41.17480706759023" lon="9.333851973010416"><ele>28.0</ele><time>2026-05-03T14:02:37.999Z</time></trkpt><trkpt lat="41.17488605523765" lon="9.333658881582888"><ele>28.0</ele><time>2026-05-03T14:02:38.999Z</time></trkpt><trkpt lat="41.17496652598807" lon="9.333468280875989"><ele>28.0</ele><time>2026-05-03T14:02:39.999Z</time></trkpt><trkpt lat="41.1750462798911" lon="9.333281311481851"><ele>28.0</ele><time>2026-05-03T14:02:40.999Z</time></trkpt><trkpt lat="41.175125678629215" lon="9.333091132160511"><ele>28.333333333333336</ele><time>2026-05-03T14:02:41.999Z</time></trkpt><trkpt lat="41.17520810361032" lon="9.332899281703831"><ele>28.666666666666664</ele><time>2026-05-03T14:02:42.999Z</time></trkpt><trkpt lat="41.17529297141559" lon="9.332704494652612"><ele>29.0</ele><time>2026-05-03T14:02:43.999Z</time></trkpt><trkpt lat="41.175384712218516" lon="9.332506535945672"><ele>29.0</ele><time>2026-05-03T14:02:44.999Z</time></trkpt><trkpt lat="41.17548505062247" lon="9.332311266022812"><ele>29.0</ele><time>2026-05-03T14:02:45.999Z</time></trkpt><trkpt lat="41.17559188665562" lon="9.332114760948826"><ele>29.0</ele><time>2026-05-03T14:02:46.999Z</time></trkpt><trkpt lat="41.17569790134072" lon="9.331920627104784"><ele>29.0</ele><time>2026-05-03T14:02:47.999Z</time></trkpt><trkpt lat="41.17579509340905" lon="9.331738797256913"><ele>29.0</ele><time>2026-05-03T14:02:48.999Z</time></trkpt><trkpt lat="41.175888275439135" lon="9.33156190004016"><ele>29.0</ele><time>2026-05-03T14:02:49.999Z</time></trkpt><trkpt lat="41.17598537454148" lon="9.331385803471541"><ele>29.0</ele><time>2026-05-03T14:02:50.999Z</time></trkpt><trkpt lat="41.176078966544516" lon="9.331207219299367"><ele>29.0</ele><time>2026-05-03T14:02:51.999Z</time></trkpt><trkpt lat="41.17617648143596" lon="9.331030426747533"><ele>29.0</ele><time>2026-05-03T14:02:52.999Z</time></trkpt><trkpt lat="41.17627482155853" lon="9.330858512594732"><ele>29.0</ele><time>2026-05-03T14:02:53.999Z</time></trkpt><trkpt lat="41.17637088653004" lon="9.330686065766022"><ele>29.0</ele><time>2026-05-03T14:02:54.999Z</time></trkpt><trkpt lat="41.176465310023886" lon="9.330514996686153"><ele>29.0</ele><time>2026-05-03T14:02:55.999Z</time></trkpt><trkpt lat="41.176556721742315" lon="9.330341484707281"><ele>29.333333333333332</ele><time>2026-05-03T14:02:56.999Z</time></trkpt><trkpt lat="41.176644238281895" lon="9.330162910464345"><ele>29.666666666666664</ele><time>2026-05-03T14:02:57.999Z</time></trkpt><trkpt lat="41.17672575137946" lon="9.32997698986972"><ele>30.0</ele><time>2026-05-03T14:02:58.999Z</time></trkpt><trkpt lat="41.176799735143206" lon="9.32978181670863"><ele>30.0</ele><time>2026-05-03T14:02:59.999Z</time></trkpt><trkpt lat="41.17686947867136" lon="9.32958074712974"><ele>30.0</ele><time>2026-05-03T14:03:00.999Z</time></trkpt><trkpt lat="41.17693499147309" lon="9.329373388048841"><ele>30.0</ele><time>2026-05-03T14:03:01.999Z</time></trkpt><trkpt lat="41.17700089282878" lon="9.329163166049725"><ele>30.0</ele><time>2026-05-03T14:03:02.999Z</time></trkpt><trkpt lat="41.177064486490075" lon="9.328947977095527"><ele>30.0</ele><time>2026-05-03T14:03:03.999Z</time></trkpt><trkpt lat="41.17713374008982" lon="9.3287302400274"><ele>30.0</ele><time>2026-05-03T14:03:04.999Z</time></trkpt><trkpt lat="41.177202330769205" lon="9.328514725615952"><ele>29.666666666666664</ele><time>2026-05-03T14:03:05.999Z</time></trkpt><trkpt lat="41.17726927490307" lon="9.32829529918664"><ele>29.333333333333332</ele><time>2026-05-03T14:03:06.999Z</time></trkpt><trkpt lat="41.17733533997372" lon="9.328073042331233"><ele>29.0</ele><time>2026-05-03T14:03:07.999Z</time></trkpt><trkpt lat="41.17740065819351" lon="9.327849303077247"><ele>30.333333333333332</ele><time>2026-05-03T14:03:08.999Z</time></trkpt><trkpt lat="41.17746338147642" lon="9.327625238952956"><ele>31.666666666666664</ele><time>2026-05-03T14:03:09.999Z</time></trkpt><trkpt lat="41.17752928371234" lon="9.327402229940912"><ele>33.0</ele><time>2026-05-03T14:03:10.999Z</time></trkpt><trkpt lat="41.17759535799413" lon="9.327182778795335"><ele>34.0</ele><time>2026-05-03T14:03:11.999Z</time></trkpt><trkpt lat="41.177655636782475" lon="9.32696272788959"><ele>35.0</ele><time>2026-05-03T14:03:12.999Z</time></trkpt><trkpt lat="41.177709343006946" lon="9.326741744987958"><ele>36.0</ele><time>2026-05-03T14:03:13.999Z</time></trkpt><trkpt lat="41.17775595480628" lon="9.326520624082532"><ele>36.666666666666664</ele><time>2026-05-03T14:03:14.999Z</time></trkpt><trkpt lat="41.17780110958968" lon="9.326300639636065"><ele>37.33333333333333</ele><time>2026-05-03T14:03:15.999Z</time></trkpt><trkpt lat="41.17784541293457" lon="9.326084264986422"><ele>38.0</ele><time>2026-05-03T14:03:16.999Z</time></trkpt><trkpt lat="41.17788930694988" lon="9.325872487146311"><ele>38.0</ele><time>2026-05-03T14:03:17.999Z</time></trkpt><trkpt lat="41.177932682969086" lon="9.325663973800607"><ele>38.0</ele><time>2026-05-03T14:03:18.999Z</time></trkpt><trkpt lat="41.17797527078887" lon="9.325456769234606"><ele>38.0</ele><time>2026-05-03T14:03:19.999Z</time></trkpt><trkpt lat="41.17801859176567" lon="9.325251662554411"><ele>37.33333333333333</ele><time>2026-05-03T14:03:20.999Z</time></trkpt><trkpt lat="41.17805962167691" lon="9.325046934101191"><ele>36.666666666666664</ele><time>2026-05-03T14:03:21.999Z</time></trkpt><trkpt lat="41.178097921856" lon="9.324840471263576"><ele>36.0</ele><time>2026-05-03T14:03:22.999Z</time></trkpt><trkpt lat="41.17814166685518" lon="9.324634708377356"><ele>37.666666666666664</ele><time>2026-05-03T14:03:23.999Z</time></trkpt><trkpt lat="41.17819711520341" lon="9.324433374641231"><ele>39.33333333333333</ele><time>2026-05-03T14:03:24.999Z</time></trkpt><trkpt lat="41.17826673205539" lon="9.324237815646379"><ele>41.0</ele><time>2026-05-03T14:03:25.999Z</time></trkpt><trkpt lat="41.17834632179998" lon="9.324049429117043"><ele>41.0</ele><time>2026-05-03T14:03:26.999Z</time></trkpt><trkpt lat="41.178428764618296" lon="9.323872107436822"><ele>41.0</ele><time>2026-05-03T14:03:27.999Z</time></trkpt><trkpt lat="41.17852115610232" lon="9.323698628316002"><ele>41.0</ele><time>2026-05-03T14:03:28.999Z</time></trkpt><trkpt lat="41.17861668216512" lon="9.323553544860234"><ele>41.0</ele><time>2026-05-03T14:03:29.999Z</time></trkpt><trkpt lat="41.178724343430694" lon="9.323411637835877"><ele>41.0</ele><time>2026-05-03T14:03:30.999Z</time></trkpt><trkpt lat="41.17883814981826" lon="9.323278634089238"><ele>41.0</ele><time>2026-05-03T14:03:31.999Z</time></trkpt><trkpt lat="41.178954537446835" lon="9.323161674966228"><ele>41.0</ele><time>2026-05-03T14:03:32.999Z</time></trkpt><trkpt lat="41.17907203428916" lon="9.323055814036968"><ele>38.5</ele><time>2026-05-03T14:03:33.999Z</time></trkpt><trkpt lat="41.17918682161949" lon="9.322958526672714"><ele>36.0</ele><time>2026-05-03T14:03:34.999Z</time></trkpt><trkpt lat="41.1793089393648" lon="9.322874588300444"><ele>33.5</ele><time>2026-05-03T14:03:35.999Z</time></trkpt><trkpt lat="41.17943463768256" lon="9.322803233893188"><ele>31.0</ele><time>2026-05-03T14:03:36.999Z</time></trkpt><trkpt lat="41.17956436080195" lon="9.322740381235008"><ele>31.0</ele><time>2026-05-03T14:03:37.999Z</time></trkpt><trkpt lat="41.179698595210525" lon="9.322685454086763"><ele>31.0</ele><time>2026-05-03T14:03:38.999Z</time></trkpt><trkpt lat="41.17983647946886" lon="9.32263393803769"><ele>31.0</ele><time>2026-05-03T14:03:39.999Z</time></trkpt><trkpt lat="41.17997569896652" lon="9.322578318656571"><ele>31.0</ele><time>2026-05-03T14:03:40.999Z</time></trkpt><trkpt lat="41.1801183669917" lon="9.322525634246173"><ele>31.333333333333336</ele><time>2026-05-03T14:03:41.999Z</time></trkpt><trkpt lat="41.18026274407325" lon="9.322473100468542"><ele>31.666666666666664</ele><time>2026-05-03T14:03:42.999Z</time></trkpt><trkpt lat="41.180408722741106" lon="9.32241802993444"><ele>32.0</ele><time>2026-05-03T14:03:43.999Z</time></trkpt><trkpt lat="41.180554581367836" lon="9.322357995596873"><ele>31.333333333333332</ele><time>2026-05-03T14:03:44.999Z</time></trkpt><trkpt lat="41.180699661914474" lon="9.322302440032237"><ele>30.666666666666664</ele><time>2026-05-03T14:03:45.999Z</time></trkpt><trkpt lat="41.180846462183666" lon="9.32224961018346"><ele>30.0</ele><time>2026-05-03T14:03:46.999Z</time></trkpt><trkpt lat="41.180991766409356" lon="9.322194766622097"><ele>31.333333333333336</ele><time>2026-05-03T14:03:47.999Z</time></trkpt><trkpt lat="41.18113782052804" lon="9.32213596990116"><ele>32.66666666666667</ele><time>2026-05-03T14:03:49Z</time></trkpt><trkpt lat="41.181284280403176" lon="9.322078811080404"><ele>34.0</ele><time>2026-05-03T14:03:50Z</time></trkpt><trkpt lat="41.18143096037773" lon="9.322023461628332"><ele>33.333333333333336</ele><time>2026-05-03T14:03:51Z</time></trkpt><trkpt lat="41.18157796793706" lon="9.321966774968283"><ele>32.666666666666664</ele><time>2026-05-03T14:03:52Z</time></trkpt><trkpt lat="41.18172744251905" lon="9.32190943108749"><ele>32.0</ele><time>2026-05-03T14:03:53Z</time></trkpt><trkpt lat="41.181878205417775" lon="9.321850754565824"><ele>32.0</ele><time>2026-05-03T14:03:54Z</time></trkpt><trkpt lat="41.182031378762574" lon="9.321794737920166"><ele>32.0</ele><time>2026-05-03T14:03:55Z</time></trkpt><trkpt lat="41.18218580154776" lon="9.321737587417974"><ele>32.0</ele><time>2026-05-03T14:03:56Z</time></trkpt><trkpt lat="41.18234221278349" lon="9.321679150130802"><ele>29.333333333333332</ele><time>2026-05-03T14:03:57Z</time></trkpt><trkpt lat="41.182498245159685" lon="9.32161321695897"><ele>26.666666666666664</ele><time>2026-05-03T14:03:58Z</time></trkpt><trkpt lat="41.18265757086614" lon="9.321546248111531"><ele>24.0</ele><time>2026-05-03T14:03:59Z</time></trkpt><trkpt lat="41.182817453181336" lon="9.32147524121115"><ele>24.0</ele><time>2026-05-03T14:04:00Z</time></trkpt><trkpt lat="41.18298192836788" lon="9.321412839499917"><ele>24.0</ele><time>2026-05-03T14:04:01Z</time></trkpt><trkpt lat="41.183147949952435" lon="9.321353240654894"><ele>24.0</ele><time>2026-05-03T14:04:02Z</time></trkpt><trkpt lat="41.183317886608975" lon="9.321293770241748"><ele>23.666666666666668</ele><time>2026-05-03T14:04:03Z</time></trkpt><trkpt lat="41.183488495195164" lon="9.321232382279616"><ele>23.333333333333336</ele><time>2026-05-03T14:04:04Z</time></trkpt><trkpt lat="41.18365891967805" lon="9.32116546500288"><ele>23.0</ele><time>2026-05-03T14:04:05Z</time></trkpt><trkpt lat="41.1838297980853" lon="9.321096795085516"><ele>23.0</ele><time>2026-05-03T14:04:06Z</time></trkpt><trkpt lat="41.18400146160517" lon="9.321027869017962"><ele>23.0</ele><time>2026-05-03T14:04:07Z</time></trkpt><trkpt lat="41.18417550151032" lon="9.320958445313419"><ele>23.0</ele><time>2026-05-03T14:04:08Z</time></trkpt><trkpt lat="41.18435065480562" lon="9.320893020819126"><ele>19.0</ele><time>2026-05-03T14:04:09Z</time></trkpt><trkpt lat="41.18452750792271" lon="9.320829229593036"><ele>15.0</ele><time>2026-05-03T14:04:10Z</time></trkpt><trkpt lat="41.18470400327797" lon="9.320766906118171"><ele>11.0</ele><time>2026-05-03T14:04:11Z</time></trkpt><trkpt lat="41.1848806500162" lon="9.320705387780098"><ele>8.333333333333332</ele><time>2026-05-03T14:04:12Z</time></trkpt><trkpt lat="41.18506221963067" lon="9.320655381476795"><ele>5.666666666666666</ele><time>2026-05-03T14:04:13Z</time></trkpt><trkpt lat="41.1852456311893" lon="9.320625532953423"><ele>3.0</ele><time>2026-05-03T14:04:14Z</time></trkpt><trkpt lat="41.18543147153152" lon="9.320616510777356"><ele>3.0</ele><time>2026-05-03T14:04:15Z</time></trkpt><trkpt lat="41.18561627846273" lon="9.320612908335947"><ele>3.0</ele><time>2026-05-03T14:04:16Z</time></trkpt><trkpt lat="41.18579650516511" lon="9.320605390904989"><ele>3.0</ele><time>2026-05-03T14:04:17Z</time></trkpt><trkpt lat="41.185976620498145" lon="9.320605881850186"><ele>2.3333333333333335</ele><time>2026-05-03T14:04:18Z</time></trkpt><trkpt lat="41.18615309703696" lon="9.320600845170745"><ele>1.6666666666666665</ele><time>2026-05-03T14:04:19Z</time></trkpt><trkpt lat="41.186330142107224" lon="9.320604208435318"><ele>1.0</ele><time>2026-05-03T14:04:20Z</time></trkpt><trkpt lat="41.186504542461364" lon="9.320612632529913"><ele>0.0</ele><time>2026-05-03T14:04:21Z</time></trkpt><trkpt lat="41.18667900662151" lon="9.320623522722817"><ele>-1.0</ele><time>2026-05-03T14:04:22Z</time></trkpt><trkpt lat="41.18685013051899" lon="9.320641623094716"><ele>-2.0</ele><time>2026-05-03T14:04:23Z</time></trkpt><trkpt lat="41.18701889809568" lon="9.320662927847241"><ele>-2.0</ele><time>2026-05-03T14:04:24Z</time></trkpt><trkpt lat="41.18718459749853" lon="9.32068802461276"><ele>-2.0</ele><time>2026-05-03T14:04:25Z</time></trkpt><trkpt lat="41.18734817114678" lon="9.320713255766702"><ele>-2.0</ele><time>2026-05-03T14:04:26Z</time></trkpt><trkpt lat="41.18750828647225" lon="9.320740879155023"><ele>-2.0</ele><time>2026-05-03T14:04:27Z</time></trkpt><trkpt lat="41.18766735186683" lon="9.320767704892878"><ele>-2.0</ele><time>2026-05-03T14:04:28Z</time></trkpt><trkpt lat="41.18782450980514" lon="9.320793409286937"><ele>-2.0</ele><time>2026-05-03T14:04:29Z</time></trkpt><trkpt lat="41.18798175106194" lon="9.320816469654671"><ele>-2.0</ele><time>2026-05-03T14:04:30Z</time></trkpt><trkpt lat="41.18813833999889" lon="9.32083444865182"><ele>-2.0</ele><time>2026-05-03T14:04:31Z</time></trkpt><trkpt lat="41.18829325152668" lon="9.320852599682876"><ele>-2.0</ele><time>2026-05-03T14:04:32Z</time></trkpt><trkpt lat="41.1884494505756" lon="9.32086867918807"><ele>-2.0</ele><time>2026-05-03T14:04:33Z</time></trkpt><trkpt lat="41.188604681942316" lon="9.320883038159556"><ele>-2.0</ele><time>2026-05-03T14:04:34Z</time></trkpt><trkpt lat="41.188758486950164" lon="9.320895449735511"><ele>-2.0</ele><time>2026-05-03T14:04:35Z</time></trkpt><trkpt lat="41.18890471498925" lon="9.32091198239823"><ele>-1.8</ele><time>2026-05-03T14:04:36Z</time></trkpt><trkpt lat="41.189035657923924" lon="9.320919922525752"><ele>-1.6</ele><time>2026-05-03T14:04:37Z</time></trkpt><trkpt lat="41.18914692109343" lon="9.32092809102353"><ele>-1.4000000000000001</ele><time>2026-05-03T14:04:38Z</time></trkpt><trkpt lat="41.18925062086934" lon="9.320928639250521"><ele>-1.2000000000000002</ele><time>2026-05-03T14:04:39Z</time></trkpt><trkpt lat="41.18934607080726" lon="9.320924393208722"><ele>-1.0</ele><time>2026-05-03T14:04:40Z</time></trkpt><trkpt lat="41.18944402578668" lon="9.320923724397073"><ele>-1.0</ele><time>2026-05-03T14:04:40.999Z</time></trkpt><trkpt lat="41.189540795622214" lon="9.320924449370375"><ele>-1.0</ele><time>2026-05-03T14:04:41.999Z</time></trkpt><trkpt lat="41.18963783246858" lon="9.320920336790946"><ele>-1.0</ele><time>2026-05-03T14:04:42.999Z</time></trkpt><trkpt lat="41.18973696191276" lon="9.32091135726689"><ele>-1.0</ele><time>2026-05-03T14:04:43.999Z</time></trkpt><trkpt lat="41.18983483486742" lon="9.320889982516944"><ele>-1.0</ele><time>2026-05-03T14:04:44.999Z</time></trkpt><trkpt lat="41.18993024999635" lon="9.320855336902879"><ele>-0.9999999999999999</ele><time>2026-05-03T14:04:45.999Z</time></trkpt><trkpt lat="41.19001698491531" lon="9.320819186678358"><ele>-1.0</ele><time>2026-05-03T14:04:46.999Z</time></trkpt><trkpt lat="41.19010015315024" lon="9.320778440013552"><ele>-1.0</ele><time>2026-05-03T14:04:47.999Z</time></trkpt><trkpt lat="41.190178719684184" lon="9.32073227715332"><ele>-1.0</ele><time>2026-05-03T14:04:48.999Z</time></trkpt><trkpt lat="41.19025992998725" lon="9.320696292318303"><ele>-0.9999999999999999</ele><time>2026-05-03T14:04:49.999Z</time></trkpt><trkpt lat="41.1903440365273" lon="9.320684750481519"><ele>-1.0</ele><time>2026-05-03T14:04:50.999Z</time></trkpt><trkpt lat="41.190423290735836" lon="9.320692446663909"><ele>-1.0</ele><time>2026-05-03T14:04:51.999Z</time></trkpt><trkpt lat="41.19049038703831" lon="9.320699602925128"><ele>-0.9999999999999999</ele><time>2026-05-03T14:04:52.999Z</time></trkpt><trkpt lat="41.19055426173107" lon="9.320688682566466"><ele>-1.0</ele><time>2026-05-03T14:04:53.999Z</time></trkpt><trkpt lat="41.19061592181958" lon="9.320655014047128"><ele>-1.0</ele><time>2026-05-03T14:04:54.999Z</time></trkpt><trkpt lat="41.19066880577553" lon="9.320606518306317"><ele>-0.9999999999999999</ele><time>2026-05-03T14:04:55.999Z</time></trkpt><trkpt lat="41.19071738459318" lon="9.320544517665112"><ele>-1.0</ele><time>2026-05-03T14:04:56.999Z</time></trkpt><trkpt lat="41.19075852734182" lon="9.320468296229047"><ele>-1.0</ele><time>2026-05-03T14:04:57.999Z</time></trkpt><trkpt lat="41.190782547477696" lon="9.320350433882947"><ele>-1.0</ele><time>2026-05-03T14:04:58.999Z</time></trkpt><trkpt lat="41.19084614492518" lon="9.32031919495524"><ele>-0.9999999999999999</ele><time>2026-05-03T14:04:59.999Z</time></trkpt><trkpt lat="41.190899967757005" lon="9.320255686439687"><ele>-1.0</ele><time>2026-05-03T14:05:00.999Z</time></trkpt><trkpt lat="41.190955062534485" lon="9.320194024205843"><ele>-1.0</ele><time>2026-05-03T14:05:01.999Z</time></trkpt><trkpt lat="41.19101267713891" lon="9.320138121909753"><ele>-0.9999999999999999</ele><time>2026-05-03T14:05:02.999Z</time></trkpt><trkpt lat="41.19107323350054" lon="9.320083270674132"><ele>-1.0</ele><time>2026-05-03T14:05:03.999Z</time></trkpt><trkpt lat="41.19113674521566" lon="9.320033639895922"><ele>-1.0</ele><time>2026-05-03T14:05:04.999Z</time></trkpt><trkpt lat="41.19119909010117" lon="9.319980441560375"><ele>-0.9999999999999999</ele><time>2026-05-03T14:05:05.999Z</time></trkpt><trkpt lat="41.19126081064621" lon="9.319921912988772"><ele>-1.0</ele><time>2026-05-03T14:05:06.999Z</time></trkpt><trkpt lat="41.1913187084088" lon="9.319860813321084"><ele>-1.0</ele><time>2026-05-03T14:05:07.999Z</time></trkpt><trkpt lat="41.19138027314193" lon="9.319803901924448"><ele>-1.0</ele><time>2026-05-03T14:05:08.999Z</time></trkpt><trkpt lat="41.19144368033371" lon="9.31974995054036"><ele>-0.9999999999999999</ele><time>2026-05-03T14:05:09.999Z</time></trkpt><trkpt lat="41.19150511130689" lon="9.319689962065342"><ele>-1.0</ele><time>2026-05-03T14:05:10.999Z</time></trkpt><trkpt lat="41.19156902183564" lon="9.319630678651938"><ele>-0.9999999999999999</ele><time>2026-05-03T14:05:11.999Z</time></trkpt><trkpt lat="41.191633238501744" lon="9.319573180343014"><ele>-1.0</ele><time>2026-05-03T14:05:12.999Z</time></trkpt><trkpt lat="41.19169809845667" lon="9.319517439912833"><ele>-1.0</ele><time>2026-05-03T14:05:13.999Z</time></trkpt><trkpt lat="41.191761578389055" lon="9.319464398347021"><ele>-1.0</ele><time>2026-05-03T14:05:14.999Z</time></trkpt><trkpt lat="41.191820096550856" lon="9.31941457406286"><ele>-0.9999999999999999</ele><time>2026-05-03T14:05:15.999Z</time></trkpt><trkpt lat="41.19187639191568" lon="9.319374349533405"><ele>-1.0</ele><time>2026-05-03T14:05:16.999Z</time></trkpt><trkpt lat="41.19197151779153" lon="9.319299723224145"><ele>-1.0</ele><time>2026-05-03T14:05:18.999Z</time></trkpt><trkpt lat="41.19205771357453" lon="9.319235351113736"><ele>-1.0</ele><time>2026-05-03T14:05:20.999Z</time></trkpt><trkpt lat="41.19215143714127" lon="9.31917954731929"><ele>-1.0</ele><time>2026-05-03T14:05:22.999Z</time></trkpt><trkpt lat="41.19225216127802" lon="9.319144611334266"><ele>-1.0</ele><time>2026-05-03T14:05:24.999Z</time></trkpt><trkpt lat="41.19232370513199" lon="9.31911457878849"><ele>-1.0</ele><time>2026-05-03T14:05:26.999Z</time></trkpt><trkpt lat="41.19239955621912" lon="9.319080886990584"><ele>-0.8333333333333333</ele><time>2026-05-03T14:05:29.999Z</time></trkpt><trkpt lat="41.19247623768804" lon="9.319067168374163"><ele>-0.6666666666666666</ele><time>2026-05-03T14:05:33.999Z</time></trkpt><trkpt lat="41.192546596435164" lon="9.319042187357583"><ele>-0.5</ele><time>2026-05-03T14:05:37.999Z</time></trkpt><trkpt lat="41.192634197542525" lon="9.319016116038092"><ele>-0.3333333333333333</ele><time>2026-05-03T14:06:07Z</time></trkpt><trkpt lat="41.19270868392558" lon="9.319014594169852"><ele>-0.16666666666666666</ele><time>2026-05-03T14:06:10Z</time></trkpt><trkpt lat="41.19277794771994" lon="9.318986141468972"><ele>0.0</ele><time>2026-05-03T14:06:12Z</time></trkpt><trkpt lat="41.19285032420219" lon="9.318961756927237"><ele>0.0</ele><time>2026-05-03T14:06:14Z</time></trkpt><trkpt lat="41.19292070920453" lon="9.31894089478099"><ele>0.0</ele><time>2026-05-03T14:06:16Z</time></trkpt><trkpt lat="41.19298469197235" lon="9.31893727350309"><ele>0.0</ele><time>2026-05-03T14:06:18Z</time></trkpt><trkpt lat="41.19306526480927" lon="9.318912725958596"><ele>0.0</ele><time>2026-05-03T14:06:21Z</time></trkpt><trkpt lat="41.1931330549548" lon="9.318908163228334"><ele>0.0</ele><time>2026-05-03T14:06:27.999Z</time></trkpt><trkpt lat="41.19319911896096" lon="9.318874071466512"><ele>0.0</ele><time>2026-05-03T14:06:29.999Z</time></trkpt><trkpt lat="41.1932891434726" lon="9.3188520083711"><ele>0.0</ele><time>2026-05-03T14:06:31.999Z</time></trkpt><trkpt lat="41.19338382306691" lon="9.31884126713953"><ele>0.0</ele><time>2026-05-03T14:06:33.999Z</time></trkpt><trkpt lat="41.193469721932956" lon="9.31883087822387"><ele>0.0</ele><time>2026-05-03T14:06:35.999Z</time></trkpt><trkpt lat="41.193540195000516" lon="9.318813388523859"><ele>0.0</ele><time>2026-05-03T14:06:37.999Z</time></trkpt><trkpt lat="41.19360982893962" lon="9.318783739927603"><ele>0.0</ele><time>2026-05-03T14:06:39.999Z</time></trkpt><trkpt lat="41.193679175818886" lon="9.318752386089422"><ele>0.0</ele><time>2026-05-03T14:06:41.999Z</time></trkpt><trkpt lat="41.1937613012786" lon="9.318739815195284"><ele>0.0</ele><time>2026-05-03T14:06:43.999Z</time></trkpt><trkpt lat="41.19385336749871" lon="9.318724674869808"><ele>0.0</ele><time>2026-05-03T14:06:45.999Z</time></trkpt><trkpt lat="41.19395741614064" lon="9.31870468885086"><ele>0.0</ele><time>2026-05-03T14:06:47.999Z</time></trkpt><trkpt lat="41.194068534651386" lon="9.318687631477186"><ele>0.0</ele><time>2026-05-03T14:06:49.999Z</time></trkpt><trkpt lat="41.19417652213678" lon="9.3186626965668"><ele>0.0</ele><time>2026-05-03T14:06:51.999Z</time></trkpt><trkpt lat="41.194271692421204" lon="9.318636432101695"><ele>0.0</ele><time>2026-05-03T14:06:53.999Z</time></trkpt><trkpt lat="41.194361428481585" lon="9.318619123692018"><ele>0.0</ele><time>2026-05-03T14:06:55.999Z</time></trkpt><trkpt lat="41.19445337856849" lon="9.318607551359062"><ele>0.0</ele><time>2026-05-03T14:06:57.999Z</time></trkpt><trkpt lat="41.194557698385296" lon="9.318624075472458"><ele>0.0</ele><time>2026-05-03T14:06:59.999Z</time></trkpt><trkpt lat="41.194654401735235" lon="9.318645546358761"><ele>0.0</ele><time>2026-05-03T14:07:01.999Z</time></trkpt><trkpt lat="41.19474959526502" lon="9.318662002720917"><ele>0.0</ele><time>2026-05-03T14:07:03.999Z</time></trkpt><trkpt lat="41.19483953011631" lon="9.318670092779133"><ele>0.0</ele><time>2026-05-03T14:07:05.999Z</time></trkpt><trkpt lat="41.194917469958625" lon="9.318692029475676"><ele>0.0</ele><time>2026-05-03T14:07:07.999Z</time></trkpt><trkpt lat="41.194980692806354" lon="9.318716542464392"><ele>0.0</ele><time>2026-05-03T14:07:10.999Z</time></trkpt><trkpt lat="41.19508255740681" lon="9.318721005865203"><ele>0.0</ele><time>2026-05-03T14:07:42.999Z</time></trkpt><trkpt lat="41.19518018789021" lon="9.3187368022832"><ele>0.0</ele><time>2026-05-03T14:07:44.999Z</time></trkpt><trkpt lat="41.1952804539627" lon="9.31876182932365"><ele>0.0</ele><time>2026-05-03T14:07:46.999Z</time></trkpt><trkpt lat="41.19537285282036" lon="9.318777470695352"><ele>0.0</ele><time>2026-05-03T14:07:48.999Z</time></trkpt><trkpt lat="41.195439746729264" lon="9.318787995154132"><ele>0.0</ele><time>2026-05-03T14:07:50.999Z</time></trkpt><trkpt lat="41.195514909844434" lon="9.318816133618801"><ele>0.0</ele><time>2026-05-03T14:07:53.999Z</time></trkpt><trkpt lat="41.19557782742109" lon="9.31882929312555"><ele>0.0</ele><time>2026-05-03T14:09:25.999Z</time></trkpt><trkpt lat="41.19550493765992" lon="9.31879943024401"><ele>0.0</ele><time>2026-05-03T14:09:35.999Z</time></trkpt><trkpt lat="41.19543307718555" lon="9.318763842686861"><ele>0.0</ele><time>2026-05-03T14:09:39.999Z</time></trkpt><trkpt lat="41.19534443431817" lon="9.318766968622718"><ele>0.0</ele><time>2026-05-03T14:09:42.999Z</time></trkpt><trkpt lat="41.19525141455314" lon="9.318756585135343"><ele>0.0</ele><time>2026-05-03T14:09:45.999Z</time></trkpt><trkpt lat="41.195178530488604" lon="9.318748939476722"><ele>0.0</ele><time>2026-05-03T14:09:47.999Z</time></trkpt><trkpt lat="41.19510267953276" lon="9.318740982690054"><ele>0.0</ele><time>2026-05-03T14:09:49.999Z</time></trkpt><trkpt lat="41.19502645119363" lon="9.318732986315636"><ele>0.0</ele><time>2026-05-03T14:09:51.999Z</time></trkpt><trkpt lat="41.19495351970417" lon="9.318725335781819"><ele>0.0</ele><time>2026-05-03T14:09:53.999Z</time></trkpt><trkpt lat="41.194860037712836" lon="9.318715529494304"><ele>0.0</ele><time>2026-05-03T14:09:55.999Z</time></trkpt><trkpt lat="41.19479716834892" lon="9.318704449598586"><ele>0.0</ele><time>2026-05-03T14:09:56.999Z</time></trkpt><trkpt lat="41.1946985072099" lon="9.318641588202784"><ele>0.0</ele><time>2026-05-03T14:09:58.999Z</time></trkpt><trkpt lat="41.19461359894478" lon="9.318626376003632"><ele>0.0</ele><time>2026-05-03T14:10:00.999Z</time></trkpt><trkpt lat="41.194530058848734" lon="9.318611514551066"><ele>0.0</ele><time>2026-05-03T14:10:02.999Z</time></trkpt><trkpt lat="41.1944511624895" lon="9.318601937330936"><ele>0.0</ele><time>2026-05-03T14:10:04.999Z</time></trkpt><trkpt lat="41.19437481321313" lon="9.318600045965873"><ele>0.0</ele><time>2026-05-03T14:10:07Z</time></trkpt><trkpt lat="41.194284050862734" lon="9.318617914734391"><ele>0.0</ele><time>2026-05-03T14:10:09Z</time></trkpt><trkpt lat="41.19419403814825" lon="9.318642318803349"><ele>0.0</ele><time>2026-05-03T14:10:11Z</time></trkpt><trkpt lat="41.19410653428751" lon="9.318668242951848"><ele>0.0</ele><time>2026-05-03T14:10:13Z</time></trkpt><trkpt lat="41.194018286612675" lon="9.318687530497728"><ele>0.0</ele><time>2026-05-03T14:10:15Z</time></trkpt><trkpt lat="41.193922963714236" lon="9.318708260881905"><ele>0.0</ele><time>2026-05-03T14:10:17Z</time></trkpt><trkpt lat="41.19382528085513" lon="9.318735544913892"><ele>0.0</ele><time>2026-05-03T14:10:19Z</time></trkpt><trkpt lat="41.19372668388055" lon="9.318759448969725"><ele>0.0</ele><time>2026-05-03T14:10:21Z</time></trkpt><trkpt lat="41.193635945985214" lon="9.318780159261305"><ele>0.0</ele><time>2026-05-03T14:10:23Z</time></trkpt><trkpt lat="41.193554304358436" lon="9.31879984480861"><ele>0.0</ele><time>2026-05-03T14:10:25Z</time></trkpt><trkpt lat="41.193465789631915" lon="9.318776179314888"><ele>0.0</ele><time>2026-05-03T14:10:27Z</time></trkpt><trkpt lat="41.19339428510067" lon="9.318793279773415"><ele>0.0</ele><time>2026-05-03T14:10:29Z</time></trkpt><trkpt lat="41.19331611626918" lon="9.31881197399336"><ele>0.0</ele><time>2026-05-03T14:10:31Z</time></trkpt><trkpt lat="41.193231301334805" lon="9.318852655320967"><ele>0.0</ele><time>2026-05-03T14:10:33Z</time></trkpt><trkpt lat="41.19314574015705" lon="9.31887328828698"><ele>0.0</ele><time>2026-05-03T14:10:35Z</time></trkpt><trkpt lat="41.193059336058795" lon="9.318874214519541"><ele>0.0</ele><time>2026-05-03T14:10:37Z</time></trkpt><trkpt lat="41.19299245571922" lon="9.31889099713353"><ele>0.0</ele><time>2026-05-03T14:10:39Z</time></trkpt><trkpt lat="41.19292606142778" lon="9.318907657751492"><ele>0.0</ele><time>2026-05-03T14:10:42Z</time></trkpt><trkpt lat="41.19286446460944" lon="9.318943632585215"><ele>0.0</ele><time>2026-05-03T14:10:45.999Z</time></trkpt><trkpt lat="41.19279347340413" lon="9.31894210422891"><ele>0.0</ele><time>2026-05-03T14:10:50.999Z</time></trkpt><trkpt lat="41.19272758012286" lon="9.318978662763094"><ele>0.0</ele><time>2026-05-03T14:10:55.999Z</time></trkpt><trkpt lat="41.19265355251187" lon="9.31899710914096"><ele>0.0</ele><time>2026-05-03T14:10:59.999Z</time></trkpt><trkpt lat="41.192583156767284" lon="9.319004914496068"><ele>0.0</ele><time>2026-05-03T14:11:02.999Z</time></trkpt><trkpt lat="41.192497953247305" lon="9.319011441844243"><ele>0.0</ele><time>2026-05-03T14:11:06.999Z</time></trkpt><trkpt lat="41.19241570150783" lon="9.319036940070259"><ele>0.0</ele><time>2026-05-03T14:11:09.999Z</time></trkpt><trkpt lat="41.19233863437417" lon="9.319063089238764"><ele>0.0</ele><time>2026-05-03T14:11:12.999Z</time></trkpt><trkpt lat="41.19225953112782" lon="9.31909520498108"><ele>0.0</ele><time>2026-05-03T14:11:14.999Z</time></trkpt><trkpt lat="41.192147349091584" lon="9.319152542283291"><ele>0.0</ele><time>2026-05-03T14:11:16.999Z</time></trkpt><trkpt lat="41.19208647556274" lon="9.319186643264512"><ele>0.0</ele><time>2026-05-03T14:11:17.999Z</time></trkpt><trkpt lat="41.192014840389355" lon="9.319229399521658"><ele>-0.2</ele><time>2026-05-03T14:11:18.999Z</time></trkpt><trkpt lat="41.19193262001654" lon="9.319283156276994"><ele>-0.4</ele><time>2026-05-03T14:11:19.999Z</time></trkpt><trkpt lat="41.19183793252443" lon="9.319354476588723"><ele>-0.6000000000000001</ele><time>2026-05-03T14:11:20.999Z</time></trkpt><trkpt lat="41.19173798360442" lon="9.319440576119835"><ele>-0.8</ele><time>2026-05-03T14:11:21.999Z</time></trkpt><trkpt lat="41.19163979836692" lon="9.319527791723898"><ele>-1.0</ele><time>2026-05-03T14:11:22.999Z</time></trkpt><trkpt lat="41.191542121906174" lon="9.319616000422132"><ele>-1.0</ele><time>2026-05-03T14:11:23.999Z</time></trkpt><trkpt lat="41.191446832443226" lon="9.31970305852445"><ele>-1.0</ele><time>2026-05-03T14:11:24.999Z</time></trkpt><trkpt lat="41.191357873207764" lon="9.31981010812929"><ele>-1.0</ele><time>2026-05-03T14:11:25.999Z</time></trkpt><trkpt lat="41.1912625972706" lon="9.319892219133864"><ele>-1.0</ele><time>2026-05-03T14:11:26.999Z</time></trkpt><trkpt lat="41.191176091527026" lon="9.31996764776273"><ele>-0.9999999999999999</ele><time>2026-05-03T14:11:27.999Z</time></trkpt><trkpt lat="41.19109527775776" lon="9.320034343267881"><ele>-1.0</ele><time>2026-05-03T14:11:28.999Z</time></trkpt><trkpt lat="41.1910171541984" lon="9.32009821404324"><ele>-1.0</ele><time>2026-05-03T14:11:29.999Z</time></trkpt><trkpt lat="41.19094143096089" lon="9.320156423821468"><ele>-1.0</ele><time>2026-05-03T14:11:30.999Z</time></trkpt><trkpt lat="41.190873331040464" lon="9.320202511102924"><ele>-0.9999999999999999</ele><time>2026-05-03T14:11:31.999Z</time></trkpt><trkpt lat="41.19080645182027" lon="9.320231760734298"><ele>-1.0</ele><time>2026-05-03T14:11:32.999Z</time></trkpt><trkpt lat="41.19074989867982" lon="9.320273531226276"><ele>-0.8333333333333333</ele><time>2026-05-03T14:11:33.999Z</time></trkpt><trkpt lat="41.19066903083531" lon="9.320248307595739"><ele>-0.6666666666666666</ele><time>2026-05-03T14:11:34.999Z</time></trkpt><trkpt lat="41.19059735052205" lon="9.320244104990673"><ele>-0.5</ele><time>2026-05-03T14:11:35.999Z</time></trkpt><trkpt lat="41.19052706121365" lon="9.320249502023074"><ele>-0.3333333333333333</ele><time>2026-05-03T14:11:36.999Z</time></trkpt><trkpt lat="41.190455624894575" lon="9.320259871423756"><ele>-0.16666666666666666</ele><time>2026-05-03T14:11:37.999Z</time></trkpt><trkpt lat="41.19038821790465" lon="9.320325239013318"><ele>0.0</ele><time>2026-05-03T14:11:38.999Z</time></trkpt><trkpt lat="41.19034356016471" lon="9.320421016487849"><ele>0.0</ele><time>2026-05-03T14:11:39.999Z</time></trkpt><trkpt lat="41.190321797856406" lon="9.320527875873122"><ele>0.0</ele><time>2026-05-03T14:11:40.999Z</time></trkpt><trkpt lat="41.190260611023824" lon="9.32060235881054"><ele>0.0</ele><time>2026-05-03T14:11:41.999Z</time></trkpt><trkpt lat="41.190191776328724" lon="9.320681663641343"><ele>0.0</ele><time>2026-05-03T14:11:42.999Z</time></trkpt><trkpt lat="41.19010919360612" lon="9.320740093538616"><ele>0.0</ele><time>2026-05-03T14:11:43.999Z</time></trkpt><trkpt lat="41.19001825166646" lon="9.320786906248374"><ele>0.0</ele><time>2026-05-03T14:11:44.999Z</time></trkpt><trkpt lat="41.18992931602727" lon="9.320830410037997"><ele>-0.2</ele><time>2026-05-03T14:11:45.999Z</time></trkpt><trkpt lat="41.18983063339422" lon="9.320862172653479"><ele>-0.4</ele><time>2026-05-03T14:11:46.999Z</time></trkpt><trkpt lat="41.189726438819335" lon="9.320861346560951"><ele>-0.6000000000000001</ele><time>2026-05-03T14:11:47.999Z</time></trkpt><trkpt lat="41.18962333145579" lon="9.320873201942913"><ele>-0.8</ele><time>2026-05-03T14:11:48.999Z</time></trkpt><trkpt lat="41.189517216413265" lon="9.32087886317621"><ele>-1.0</ele><time>2026-05-03T14:11:49.999Z</time></trkpt><trkpt lat="41.18940851134741" lon="9.320880147472188"><ele>-1.0</ele><time>2026-05-03T14:11:50.999Z</time></trkpt><trkpt lat="41.18929669209595" lon="9.320903119166196"><ele>-1.0</ele><time>2026-05-03T14:11:51.999Z</time></trkpt><trkpt lat="41.189181069403055" lon="9.320901319011295"><ele>-1.0</ele><time>2026-05-03T14:11:52.999Z</time></trkpt><trkpt lat="41.189063469612364" lon="9.320898490631473"><ele>-1.0</ele><time>2026-05-03T14:11:53.999Z</time></trkpt><trkpt lat="41.18894449848988" lon="9.320892319060128"><ele>-1.25</ele><time>2026-05-03T14:11:54.999Z</time></trkpt><trkpt lat="41.18882333541892" lon="9.320884672617153"><ele>-1.5</ele><time>2026-05-03T14:11:55.999Z</time></trkpt><trkpt lat="41.18870221282231" lon="9.320872617143557"><ele>-1.75</ele><time>2026-05-03T14:11:56.999Z</time></trkpt><trkpt lat="41.18858512463594" lon="9.320858905659367"><ele>-2.0</ele><time>2026-05-03T14:11:57.999Z</time></trkpt><trkpt lat="41.188468338966736" lon="9.320846541703496"><ele>-2.0</ele><time>2026-05-03T14:11:58.999Z</time></trkpt><trkpt lat="41.188353934197586" lon="9.320815441196455"><ele>-2.0</ele><time>2026-05-03T14:11:59.999Z</time></trkpt><trkpt lat="41.18823859381584" lon="9.320801404282337"><ele>-2.0</ele><time>2026-05-03T14:12:00.999Z</time></trkpt><trkpt lat="41.18812187500084" lon="9.32078478984013"><ele>-2.0</ele><time>2026-05-03T14:12:01.999Z</time></trkpt><trkpt lat="41.18799273252575" lon="9.320767006786994"><ele>-2.0</ele><time>2026-05-03T14:12:02.999Z</time></trkpt><trkpt lat="41.187850621103784" lon="9.3207472790386"><ele>-2.0</ele><time>2026-05-03T14:12:03.999Z</time></trkpt><trkpt lat="41.187683484196675" lon="9.320724076873223"><ele>-2.0</ele><time>2026-05-03T14:12:04.999Z</time></trkpt><trkpt lat="41.18750785962298" lon="9.320697134405368"><ele>-2.0</ele><time>2026-05-03T14:12:05.999Z</time></trkpt><trkpt lat="41.18733367440009" lon="9.3206709159639"><ele>-2.0</ele><time>2026-05-03T14:12:06.999Z</time></trkpt><trkpt lat="41.187158183784575" lon="9.320644499433755"><ele>-2.0</ele><time>2026-05-03T14:12:07.999Z</time></trkpt><trkpt lat="41.18698529098022" lon="9.320618473946416"><ele>-2.0</ele><time>2026-05-03T14:12:08.999Z</time></trkpt><trkpt lat="41.18681843296885" lon="9.32059432829402"><ele>-2.0</ele><time>2026-05-03T14:12:09.999Z</time></trkpt><trkpt lat="41.18664961347242" lon="9.320595419339083"><ele>-2.0</ele><time>2026-05-03T14:12:10.999Z</time></trkpt><trkpt lat="41.186477387343764" lon="9.320579557450863"><ele>-1.0</ele><time>2026-05-03T14:12:11.999Z</time></trkpt><trkpt lat="41.18629578140295" lon="9.320571398268507"><ele>0.0</ele><time>2026-05-03T14:12:13Z</time></trkpt><trkpt lat="41.18611458691155" lon="9.320570840816805"><ele>1.0</ele><time>2026-05-03T14:12:14Z</time></trkpt><trkpt lat="41.18593306314938" lon="9.320571761209676"><ele>1.0</ele><time>2026-05-03T14:12:15Z</time></trkpt><trkpt lat="41.18575250128217" lon="9.32057199148472"><ele>1.0</ele><time>2026-05-03T14:12:16Z</time></trkpt><trkpt lat="41.185578019421406" lon="9.320574509492543"><ele>1.0</ele><time>2026-05-03T14:12:17Z</time></trkpt><trkpt lat="41.185402650063715" lon="9.320579840247957"><ele>1.6666666666666665</ele><time>2026-05-03T14:12:18Z</time></trkpt><trkpt lat="41.1852224334766" lon="9.320590939341214"><ele>2.3333333333333335</ele><time>2026-05-03T14:12:19Z</time></trkpt><trkpt lat="41.18504658587179" lon="9.32061533409337"><ele>3.0</ele><time>2026-05-03T14:12:20Z</time></trkpt><trkpt lat="41.18487034852493" lon="9.32066123452578"><ele>5.666666666666666</ele><time>2026-05-03T14:12:21Z</time></trkpt><trkpt lat="41.18469477807724" lon="9.320720714023313"><ele>8.333333333333332</ele><time>2026-05-03T14:12:22Z</time></trkpt><trkpt lat="41.18452359137079" lon="9.320787265838698"><ele>11.0</ele><time>2026-05-03T14:12:23Z</time></trkpt><trkpt lat="41.18435105513124" lon="9.320856249943159"><ele>11.0</ele><time>2026-05-03T14:12:24Z</time></trkpt><trkpt lat="41.18417982640587" lon="9.320927896442072"><ele>11.0</ele><time>2026-05-03T14:12:25Z</time></trkpt><trkpt lat="41.184011555948864" lon="9.320996917571913"><ele>11.0</ele><time>2026-05-03T14:12:26Z</time></trkpt><trkpt lat="41.183846235332815" lon="9.321061149986267"><ele>15.0</ele><time>2026-05-03T14:12:27Z</time></trkpt><trkpt lat="41.18368152319375" lon="9.321122295910246"><ele>19.0</ele><time>2026-05-03T14:12:28Z</time></trkpt><trkpt lat="41.18351992378148" lon="9.321184240631272"><ele>23.0</ele><time>2026-05-03T14:12:29Z</time></trkpt><trkpt lat="41.18336024832835" lon="9.321247279164666"><ele>23.0</ele><time>2026-05-03T14:12:30Z</time></trkpt><trkpt lat="41.18320206973866" lon="9.321310906149636"><ele>23.0</ele><time>2026-05-03T14:12:31Z</time></trkpt><trkpt lat="41.18305587764005" lon="9.321372525675903"><ele>23.0</ele><time>2026-05-03T14:12:32Z</time></trkpt><trkpt lat="41.18290215622792" lon="9.321423413398566"><ele>23.333333333333336</ele><time>2026-05-03T14:12:33Z</time></trkpt><trkpt lat="41.182748609566076" lon="9.321487677058226"><ele>23.666666666666668</ele><time>2026-05-03T14:12:34Z</time></trkpt><trkpt lat="41.182598516975155" lon="9.321547437722298"><ele>24.0</ele><time>2026-05-03T14:12:35Z</time></trkpt><trkpt lat="41.182447889791234" lon="9.321594565499083"><ele>26.666666666666664</ele><time>2026-05-03T14:12:36Z</time></trkpt><trkpt lat="41.18229834342241" lon="9.321657660339566"><ele>29.333333333333332</ele><time>2026-05-03T14:12:37Z</time></trkpt><trkpt lat="41.18215066797962" lon="9.321716494316817"><ele>32.0</ele><time>2026-05-03T14:12:38Z</time></trkpt><trkpt lat="41.18200530784477" lon="9.321770807349312"><ele>32.0</ele><time>2026-05-03T14:12:39Z</time></trkpt><trkpt lat="41.18186096313401" lon="9.321826392037387"><ele>32.0</ele><time>2026-05-03T14:12:40Z</time></trkpt><trkpt lat="41.18171817119583" lon="9.321880777944846"><ele>32.0</ele><time>2026-05-03T14:12:41Z</time></trkpt><trkpt lat="41.181575633228356" lon="9.32193944865898"><ele>32.0</ele><time>2026-05-03T14:12:42Z</time></trkpt><trkpt lat="41.18143048202787" lon="9.32198635891556"><ele>32.666666666666664</ele><time>2026-05-03T14:12:43Z</time></trkpt><trkpt lat="41.1812881891697" lon="9.32204493450929"><ele>33.333333333333336</ele><time>2026-05-03T14:12:44Z</time></trkpt><trkpt lat="41.18114669462627" lon="9.322100872924082"><ele>34.0</ele><time>2026-05-03T14:12:45Z</time></trkpt><trkpt lat="41.18099822542524" lon="9.322155332825036"><ele>34.0</ele><time>2026-05-03T14:12:46Z</time></trkpt><trkpt lat="41.18085186663022" lon="9.32221417221172"><ele>34.0</ele><time>2026-05-03T14:12:47Z</time></trkpt><trkpt lat="41.18070590240057" lon="9.322273512030083"><ele>34.0</ele><time>2026-05-03T14:12:48Z</time></trkpt><trkpt lat="41.18055228781538" lon="9.322322885002125"><ele>33.333333333333336</ele><time>2026-05-03T14:12:49Z</time></trkpt><trkpt lat="41.18040229377106" lon="9.322379735240105"><ele>32.666666666666664</ele><time>2026-05-03T14:12:50Z</time></trkpt><trkpt lat="41.18025341916435" lon="9.322438648487788"><ele>32.0</ele><time>2026-05-03T14:12:51Z</time></trkpt><trkpt lat="41.18009996798519" lon="9.322505960556771"><ele>32.0</ele><time>2026-05-03T14:12:52Z</time></trkpt><trkpt lat="41.17994667853581" lon="9.322545043508926"><ele>32.0</ele><time>2026-05-03T14:12:53Z</time></trkpt><trkpt lat="41.17980241402194" lon="9.32260080607583"><ele>32.0</ele><time>2026-05-03T14:12:54Z</time></trkpt><trkpt lat="41.179660195334534" lon="9.322676254837118"><ele>31.666666666666664</ele><time>2026-05-03T14:12:55Z</time></trkpt><trkpt lat="41.17948361673486" lon="9.322740843671857"><ele>31.333333333333336</ele><time>2026-05-03T14:12:55.999Z</time></trkpt><trkpt lat="41.17930996826018" lon="9.32281765730226"><ele>31.0</ele><time>2026-05-03T14:12:56.999Z</time></trkpt><trkpt lat="41.179204184958856" lon="9.322918311623614"><ele>31.0</ele><time>2026-05-03T14:12:57.999Z</time></trkpt><trkpt lat="41.17906045395905" lon="9.323038845890807"><ele>31.0</ele><time>2026-05-03T14:12:58.999Z</time></trkpt><trkpt lat="41.17891838801043" lon="9.323166517182026"><ele>31.0</ele><time>2026-05-03T14:12:59.999Z</time></trkpt><trkpt lat="41.17878425865838" lon="9.323304691153249"><ele>34.333333333333336</ele><time>2026-05-03T14:13:00.999Z</time></trkpt><trkpt lat="41.178657272038606" lon="9.323452736407097"><ele>37.666666666666664</ele><time>2026-05-03T14:13:01.999Z</time></trkpt><trkpt lat="41.17854716381581" lon="9.323631821995974"><ele>41.0</ele><time>2026-05-03T14:13:02.999Z</time></trkpt><trkpt lat="41.178427510753714" lon="9.323801234729542"><ele>41.0</ele><time>2026-05-03T14:13:03.999Z</time></trkpt><trkpt lat="41.178334117305155" lon="9.323989554152407"><ele>41.0</ele><time>2026-05-03T14:13:04.999Z</time></trkpt><trkpt lat="41.17824887771749" lon="9.324197157550145"><ele>41.0</ele><time>2026-05-03T14:13:05.999Z</time></trkpt><trkpt lat="41.178187521995035" lon="9.324416186612085"><ele>39.33333333333333</ele><time>2026-05-03T14:13:06.999Z</time></trkpt><trkpt lat="41.1781215254266" lon="9.32463374520711"><ele>37.666666666666664</ele><time>2026-05-03T14:13:07.999Z</time></trkpt><trkpt lat="41.1780677685453" lon="9.324858136676447"><ele>36.0</ele><time>2026-05-03T14:13:08.999Z</time></trkpt><trkpt lat="41.17802131177078" lon="9.325074920748778"><ele>36.0</ele><time>2026-05-03T14:13:09.999Z</time></trkpt><trkpt lat="41.17797989011051" lon="9.325296347771465"><ele>36.0</ele><time>2026-05-03T14:13:10.999Z</time></trkpt><trkpt lat="41.177934701944636" lon="9.325514219442962"><ele>36.0</ele><time>2026-05-03T14:13:11.999Z</time></trkpt><trkpt lat="41.17789340702504" lon="9.325729408141116"><ele>36.666666666666664</ele><time>2026-05-03T14:13:12.999Z</time></trkpt><trkpt lat="41.177853357132356" lon="9.325945548613628"><ele>37.33333333333333</ele><time>2026-05-03T14:13:13.999Z</time></trkpt><trkpt lat="41.17780222368948" lon="9.326147804612354"><ele>38.0</ele><time>2026-05-03T14:13:14.999Z</time></trkpt><trkpt lat="41.17775449772748" lon="9.326371763961609"><ele>37.33333333333333</ele><time>2026-05-03T14:13:15.999Z</time></trkpt><trkpt lat="41.17770966505449" lon="9.326584195994279"><ele>36.666666666666664</ele><time>2026-05-03T14:13:16.999Z</time></trkpt><trkpt lat="41.17767185509284" lon="9.326810759413798"><ele>36.0</ele><time>2026-05-03T14:13:17.999Z</time></trkpt><trkpt lat="41.17762354782921" lon="9.327019773260382"><ele>35.0</ele><time>2026-05-03T14:13:18.999Z</time></trkpt><trkpt lat="41.1775660481648" lon="9.327230027662797"><ele>34.0</ele><time>2026-05-03T14:13:19.999Z</time></trkpt><trkpt lat="41.17750367944867" lon="9.327438472787481"><ele>33.0</ele><time>2026-05-03T14:13:20.999Z</time></trkpt><trkpt lat="41.17743981900887" lon="9.327645637214927"><ele>33.0</ele><time>2026-05-03T14:13:21.999Z</time></trkpt><trkpt lat="41.177377238271106" lon="9.32785188699548"><ele>33.0</ele><time>2026-05-03T14:13:22.999Z</time></trkpt><trkpt lat="41.17731516094291" lon="9.328058023674943"><ele>33.0</ele><time>2026-05-03T14:13:23.999Z</time></trkpt><trkpt lat="41.17725881873749" lon="9.328266700684296"><ele>31.666666666666664</ele><time>2026-05-03T14:13:24.999Z</time></trkpt><trkpt lat="41.17719944656119" lon="9.328466950717354"><ele>30.333333333333332</ele><time>2026-05-03T14:13:25.999Z</time></trkpt><trkpt lat="41.17712420239354" lon="9.328659988478057"><ele>29.0</ele><time>2026-05-03T14:13:26.999Z</time></trkpt><trkpt lat="41.17707748284425" lon="9.32886369841108"><ele>29.333333333333332</ele><time>2026-05-03T14:13:27.999Z</time></trkpt><trkpt lat="41.17700321959559" lon="9.329057188553469"><ele>29.666666666666664</ele><time>2026-05-03T14:13:28.999Z</time></trkpt><trkpt lat="41.17694398132412" lon="9.329251674410894"><ele>30.0</ele><time>2026-05-03T14:13:29.999Z</time></trkpt><trkpt lat="41.176889347198895" lon="9.329431044401362"><ele>30.0</ele><time>2026-05-03T14:13:30.999Z</time></trkpt><trkpt lat="41.17685025098874" lon="9.329603304011089"><ele>30.0</ele><time>2026-05-03T14:13:31.999Z</time></trkpt><trkpt lat="41.17679455104045" lon="9.329750521175724"><ele>30.0</ele><time>2026-05-03T14:13:32.999Z</time></trkpt><trkpt lat="41.17674534050067" lon="9.32988096893217"><ele>30.0</ele><time>2026-05-03T14:13:33.999Z</time></trkpt><trkpt lat="41.17670707891911" lon="9.329982758897554"><ele>30.0</ele><time>2026-05-03T14:13:34.999Z</time></trkpt><trkpt lat="41.176661845044336" lon="9.330059750027678"><ele>30.0</ele><time>2026-05-03T14:13:35.999Z</time></trkpt><trkpt lat="41.17664088744101" lon="9.330138943227244"><ele>30.0</ele><time>2026-05-03T14:13:37.999Z</time></trkpt><trkpt lat="41.17678857793555" lon="9.330233990029562"><ele>30.0</ele><time>2026-05-03T14:13:38.999Z</time></trkpt><trkpt lat="41.17686010024553" lon="9.330263548337546"><ele>30.0</ele><time>2026-05-03T14:13:39.999Z</time></trkpt><trkpt lat="41.176959104661016" lon="9.330267929204757"><ele>30.0</ele><time>2026-05-03T14:13:40.999Z</time></trkpt><trkpt lat="41.17705998713751" lon="9.330253656882073"><ele>30.0</ele><time>2026-05-03T14:13:41.999Z</time></trkpt><trkpt lat="41.17717379936714" lon="9.330232510319163"><ele>30.0</ele><time>2026-05-03T14:13:42.999Z</time></trkpt><trkpt lat="41.17729262207029" lon="9.330244846890054"><ele>30.0</ele><time>2026-05-03T14:13:43.999Z</time></trkpt><trkpt lat="41.177417325624084" lon="9.330271165875123"><ele>30.0</ele><time>2026-05-03T14:13:44.999Z</time></trkpt><trkpt lat="41.17753680042544" lon="9.330343470399432"><ele>30.0</ele><time>2026-05-03T14:13:45.999Z</time></trkpt><trkpt lat="41.17765467177678" lon="9.330429078884453"><ele>30.0</ele><time>2026-05-03T14:13:46.999Z</time></trkpt><trkpt lat="41.17777444422829" lon="9.330496988182514"><ele>30.0</ele><time>2026-05-03T14:13:47.999Z</time></trkpt><trkpt lat="41.1778816038042" lon="9.330582284307818"><ele>30.0</ele><time>2026-05-03T14:13:48.999Z</time></trkpt><trkpt lat="41.17798090563246" lon="9.3306694398524"><ele>30.0</ele><time>2026-05-03T14:13:49.999Z</time></trkpt><trkpt lat="41.17807549313193" lon="9.330758244927733"><ele>30.0</ele><time>2026-05-03T14:13:50.999Z</time></trkpt><trkpt lat="41.1781663863532" lon="9.330847957552969"><ele>30.0</ele><time>2026-05-03T14:13:51.999Z</time></trkpt><trkpt lat="41.17825322894851" lon="9.330944010629068"><ele>29.75</ele><time>2026-05-03T14:13:52.999Z</time></trkpt><trkpt lat="41.17833872921063" lon="9.33104691706383"><ele>29.5</ele><time>2026-05-03T14:13:53.999Z</time></trkpt><trkpt lat="41.17842019564703" lon="9.331157626242112"><ele>29.25</ele><time>2026-05-03T14:13:54.999Z</time></trkpt><trkpt lat="41.17850157414421" lon="9.331268090330594"><ele>29.0</ele><time>2026-05-03T14:13:55.999Z</time></trkpt><trkpt lat="41.17858848988877" lon="9.331368561713008"><ele>29.25</ele><time>2026-05-03T14:13:56.999Z</time></trkpt><trkpt lat="41.17868134061226" lon="9.33146267749184"><ele>29.5</ele><time>2026-05-03T14:13:57.999Z</time></trkpt><trkpt lat="41.17878095410691" lon="9.331553437891891"><ele>29.75</ele><time>2026-05-03T14:13:58.999Z</time></trkpt><trkpt lat="41.17887812469875" lon="9.3316543903434"><ele>30.0</ele><time>2026-05-03T14:13:59.999Z</time></trkpt><trkpt lat="41.17896971276057" lon="9.33174850469843"><ele>29.4</ele><time>2026-05-03T14:14:00.999Z</time></trkpt><trkpt lat="41.179048763746195" lon="9.331833700470108"><ele>28.8</ele><time>2026-05-03T14:14:01.999Z</time></trkpt><trkpt lat="41.17911940976732" lon="9.331904508666108"><ele>28.200000000000003</ele><time>2026-05-03T14:14:02.999Z</time></trkpt><trkpt lat="41.17919837143366" lon="9.331945146709336"><ele>27.6</ele><time>2026-05-03T14:14:03.999Z</time></trkpt><trkpt lat="41.17929059956055" lon="9.331948167208562"><ele>27.0</ele><time>2026-05-03T14:14:04.999Z</time></trkpt><trkpt lat="41.179392249182314" lon="9.331914239962384"><ele>27.0</ele><time>2026-05-03T14:14:05.999Z</time></trkpt><trkpt lat="41.17949813193235" lon="9.33187673780606"><ele>27.0</ele><time>2026-05-03T14:14:06.999Z</time></trkpt><trkpt lat="41.17960926815689" lon="9.331850117068335"><ele>27.0</ele><time>2026-05-03T14:14:07.999Z</time></trkpt><trkpt lat="41.17972503253334" lon="9.33182593353871"><ele>27.0</ele><time>2026-05-03T14:14:08.999Z</time></trkpt><trkpt lat="41.1798431002817" lon="9.331800648536003"><ele>26.25</ele><time>2026-05-03T14:14:09.999Z</time></trkpt><trkpt lat="41.17996384603298" lon="9.331778322917721"><ele>25.5</ele><time>2026-05-03T14:14:10.999Z</time></trkpt><trkpt lat="41.18009184217025" lon="9.331786287261842"><ele>24.75</ele><time>2026-05-03T14:14:11.999Z</time></trkpt><trkpt lat="41.180186581549776" lon="9.33186503419382"><ele>24.0</ele><time>2026-05-03T14:14:12.999Z</time></trkpt><trkpt lat="41.18028408620614" lon="9.33196543996676"><ele>24.0</ele><time>2026-05-03T14:14:13.999Z</time></trkpt><trkpt lat="41.18039204053775" lon="9.332042273963378"><ele>24.0</ele><time>2026-05-03T14:14:14.999Z</time></trkpt><trkpt lat="41.18050227095961" lon="9.332158928395538"><ele>24.0</ele><time>2026-05-03T14:14:15.999Z</time></trkpt><trkpt lat="41.18061757291948" lon="9.33226989621905"><ele>24.0</ele><time>2026-05-03T14:14:16.999Z</time></trkpt><trkpt lat="41.18073926654737" lon="9.332383075283234"><ele>23.333333333333332</ele><time>2026-05-03T14:14:17.999Z</time></trkpt><trkpt lat="41.18086655154101" lon="9.33249362659051"><ele>22.666666666666664</ele><time>2026-05-03T14:14:19Z</time></trkpt><trkpt lat="41.18098863682463" lon="9.332626421212236"><ele>22.0</ele><time>2026-05-03T14:14:20Z</time></trkpt><trkpt lat="41.18108442559761" lon="9.332783765008383"><ele>22.0</ele><time>2026-05-03T14:14:21Z</time></trkpt><trkpt lat="41.18117202863601" lon="9.332949355474522"><ele>22.0</ele><time>2026-05-03T14:14:22Z</time></trkpt><trkpt lat="41.18126317340468" lon="9.333115678371318"><ele>22.0</ele><time>2026-05-03T14:14:23Z</time></trkpt><trkpt lat="41.18132597346197" lon="9.333301908370291"><ele>23.0</ele><time>2026-05-03T14:14:24Z</time></trkpt><trkpt lat="41.18140112458691" lon="9.333483688131196"><ele>24.0</ele><time>2026-05-03T14:14:25Z</time></trkpt><trkpt lat="41.18148128989044" lon="9.333654108404025"><ele>25.0</ele><time>2026-05-03T14:14:26Z</time></trkpt><trkpt lat="41.18155501266915" lon="9.333831324379775"><ele>23.0</ele><time>2026-05-03T14:14:27Z</time></trkpt><trkpt lat="41.18162635298972" lon="9.334006692270771"><ele>21.0</ele><time>2026-05-03T14:14:28Z</time></trkpt><trkpt lat="41.1816879750856" lon="9.334164525034387"><ele>19.0</ele><time>2026-05-03T14:14:29Z</time></trkpt><trkpt lat="41.181754306557075" lon="9.33433358386538"><ele>17.0</ele><time>2026-05-03T14:14:30Z</time></trkpt><trkpt lat="41.18180570038013" lon="9.33448870199858"><ele>17.0</ele><time>2026-05-03T14:14:31Z</time></trkpt><trkpt lat="41.18186461849488" lon="9.334628604251474"><ele>17.0</ele><time>2026-05-03T14:14:32Z</time></trkpt><trkpt lat="41.181914261657695" lon="9.334771348522715"><ele>17.0</ele><time>2026-05-03T14:14:33Z</time></trkpt><trkpt lat="41.181962200530116" lon="9.33489277265132"><ele>17.0</ele><time>2026-05-03T14:14:34Z</time></trkpt><trkpt lat="41.18203089916411" lon="9.3350196439255"><ele>17.4</ele><time>2026-05-03T14:14:35Z</time></trkpt><trkpt lat="41.18208156019639" lon="9.33515998576028"><ele>17.799999999999997</ele><time>2026-05-03T14:14:36Z</time></trkpt><trkpt lat="41.18213460675076" lon="9.335299888170857"><ele>18.2</ele><time>2026-05-03T14:14:37Z</time></trkpt><trkpt lat="41.182184716491314" lon="9.335429509507625"><ele>18.599999999999998</ele><time>2026-05-03T14:14:38Z</time></trkpt><trkpt lat="41.18222807953333" lon="9.33554813111104"><ele>19.0</ele><time>2026-05-03T14:14:39Z</time></trkpt><trkpt lat="41.18227970305804" lon="9.335656042699267"><ele>19.2</ele><time>2026-05-03T14:14:40Z</time></trkpt><trkpt lat="41.18233191709161" lon="9.335758654715113"><ele>19.4</ele><time>2026-05-03T14:14:41Z</time></trkpt><trkpt lat="41.182397662558124" lon="9.335790532864113"><ele>19.6</ele><time>2026-05-03T14:14:42Z</time></trkpt><trkpt lat="41.18248201789903" lon="9.335875950628212"><ele>19.8</ele><time>2026-05-03T14:14:44Z</time></trkpt><trkpt lat="41.18257117319316" lon="9.335959820986668"><ele>20.0</ele><time>2026-05-03T14:14:46Z</time></trkpt><trkpt lat="41.18263274562236" lon="9.33603710522187"><ele>18.4</ele><time>2026-05-03T14:14:48Z</time></trkpt><trkpt lat="41.18269451737114" lon="9.33612797546335"><ele>16.8</ele><time>2026-05-03T14:14:50Z</time></trkpt><trkpt lat="41.18278191138897" lon="9.336211409534668"><ele>15.2</ele><time>2026-05-03T14:14:52Z</time></trkpt><trkpt lat="41.18288071610176" lon="9.336306434394565"><ele>13.6</ele><time>2026-05-03T14:14:54Z</time></trkpt><trkpt lat="41.182922655266154" lon="9.336374890288763"><ele>12.0</ele><time>2026-05-03T14:14:55Z</time></trkpt><trkpt lat="41.18295755049424" lon="9.336451212503691"><ele>12.0</ele><time>2026-05-03T14:14:56Z</time></trkpt><trkpt lat="41.18295439551974" lon="9.336537834299527"><ele>12.0</ele><time>2026-05-03T14:14:57Z</time></trkpt><trkpt lat="41.18298773377711" lon="9.33669297541302"><ele>12.0</ele><time>2026-05-03T14:14:58.999Z</time></trkpt><trkpt lat="41.18303561738039" lon="9.336829455070221"><ele>12.0</ele><time>2026-05-03T14:15:00.999Z</time></trkpt><trkpt lat="41.183049119548016" lon="9.337005253947245"><ele>12.0</ele><time>2026-05-03T14:15:02.999Z</time></trkpt><trkpt lat="41.18306408175158" lon="9.337106880357076"><ele>12.0</ele><time>2026-05-03T14:15:03.999Z</time></trkpt><trkpt lat="41.18307821014193" lon="9.337202843304734"><ele>12.0</ele><time>2026-05-03T14:15:04.999Z</time></trkpt><trkpt lat="41.183092562265415" lon="9.337300325921408"><ele>12.0</ele><time>2026-05-03T14:15:05.999Z</time></trkpt><trkpt lat="41.18312340636768" lon="9.337405820366824"><ele>12.0</ele><time>2026-05-03T14:15:06.999Z</time></trkpt><trkpt lat="41.18313148812133" lon="9.337525640775855"><ele>12.0</ele><time>2026-05-03T14:15:07.999Z</time></trkpt><trkpt lat="41.18314417649171" lon="9.33765335128833"><ele>12.0</ele><time>2026-05-03T14:15:08.999Z</time></trkpt><trkpt lat="41.18316491452589" lon="9.337738264927253"><ele>11.666666666666666</ele><time>2026-05-03T14:15:09.999Z</time></trkpt><trkpt lat="41.18318147109801" lon="9.337847337692308"><ele>11.333333333333334</ele><time>2026-05-03T14:15:10.999Z</time></trkpt><trkpt lat="41.183205177280364" lon="9.337952408243078"><ele>11.0</ele><time>2026-05-03T14:15:11.999Z</time></trkpt><trkpt lat="41.183233940918576" lon="9.338054901430358"><ele>10.666666666666668</ele><time>2026-05-03T14:15:12.999Z</time></trkpt><trkpt lat="41.18326946304444" lon="9.33816982993934"><ele>10.333333333333334</ele><time>2026-05-03T14:15:13.999Z</time></trkpt><trkpt lat="41.1833035952744" lon="9.338268512574647"><ele>10.0</ele><time>2026-05-03T14:15:14.999Z</time></trkpt><trkpt lat="41.18333043299341" lon="9.338373048230817"><ele>10.0</ele><time>2026-05-03T14:15:15.999Z</time></trkpt><trkpt lat="41.18336230006768" lon="9.338470419739423"><ele>10.0</ele><time>2026-05-03T14:15:16.999Z</time></trkpt><trkpt lat="41.18337295213957" lon="9.33856659284361"><ele>10.0</ele><time>2026-05-03T14:15:17.999Z</time></trkpt><trkpt lat="41.1833925564067" lon="9.338660844831614"><ele>10.0</ele><time>2026-05-03T14:15:18.999Z</time></trkpt><trkpt lat="41.1834109566178" lon="9.33876154183133"><ele>10.0</ele><time>2026-05-03T14:15:19.999Z</time></trkpt><trkpt lat="41.183424799325735" lon="9.338870415112462"><ele>10.0</ele><time>2026-05-03T14:15:20.999Z</time></trkpt><trkpt lat="41.18344010840776" lon="9.338977897499303"><ele>9.8</ele><time>2026-05-03T14:15:21.999Z</time></trkpt><trkpt lat="41.183455917326" lon="9.339072795206228"><ele>9.6</ele><time>2026-05-03T14:15:22.999Z</time></trkpt><trkpt lat="41.18348561160141" lon="9.339215053099387"><ele>9.4</ele><time>2026-05-03T14:15:24.999Z</time></trkpt><trkpt lat="41.183548955117395" lon="9.339364003092504"><ele>9.2</ele><time>2026-05-03T14:15:26.999Z</time></trkpt><trkpt lat="41.18359389969778" lon="9.339455278538784"><ele>9.0</ele><time>2026-05-03T14:15:27.999Z</time></trkpt><trkpt lat="41.18365098217046" lon="9.339528374272117"><ele>9.0</ele><time>2026-05-03T14:15:28.999Z</time></trkpt><trkpt lat="41.18370988472691" lon="9.33959680376481"><ele>9.0</ele><time>2026-05-03T14:15:29.999Z</time></trkpt><trkpt lat="41.18377300449639" lon="9.339644227604166"><ele>9.0</ele><time>2026-05-03T14:15:30.999Z</time></trkpt><trkpt lat="41.18381834844285" lon="9.339705498798425"><ele>9.0</ele><time>2026-05-03T14:15:31.999Z</time></trkpt><trkpt lat="41.18386141801471" lon="9.339767991156268"><ele>9.0</ele><time>2026-05-03T14:15:32.999Z</time></trkpt><trkpt lat="41.18390459787532" lon="9.339901101915684"><ele>9.0</ele><time>2026-05-03T14:15:34.999Z</time></trkpt><trkpt lat="41.183923149387134" lon="9.339990346721514"><ele>8.75</ele><time>2026-05-03T14:15:35.999Z</time></trkpt><trkpt lat="41.18391790410917" lon="9.340081027903212"><ele>8.5</ele><time>2026-05-03T14:15:36.999Z</time></trkpt><trkpt lat="41.183870089846444" lon="9.34023584970398"><ele>8.25</ele><time>2026-05-03T14:15:38.999Z</time></trkpt><trkpt lat="41.18385419818184" lon="9.340390032037003"><ele>8.0</ele><time>2026-05-03T14:15:40.999Z</time></trkpt><trkpt lat="41.18389020046092" lon="9.340568450252348"><ele>8.333333333333332</ele><time>2026-05-03T14:15:42.999Z</time></trkpt><trkpt lat="41.183931888524185" lon="9.340658882097895"><ele>8.666666666666666</ele><time>2026-05-03T14:15:43.999Z</time></trkpt><trkpt lat="41.18398378656373" lon="9.3407431488423"><ele>9.0</ele><time>2026-05-03T14:15:44.999Z</time></trkpt><trkpt lat="41.18403764189781" lon="9.340825188434897"><ele>9.333333333333334</ele><time>2026-05-03T14:15:45.999Z</time></trkpt><trkpt lat="41.184093767670305" lon="9.340901125372795"><ele>9.666666666666668</ele><time>2026-05-03T14:15:46.999Z</time></trkpt><trkpt lat="41.18414808224547" lon="9.340977318612874"><ele>10.0</ele><time>2026-05-03T14:15:47.999Z</time></trkpt><trkpt lat="41.18421956627522" lon="9.341025297414292"><ele>8.333333333333334</ele><time>2026-05-03T14:15:48.999Z</time></trkpt><trkpt lat="41.1842916373548" lon="9.341065606972961"><ele>6.666666666666667</ele><time>2026-05-03T14:15:49.999Z</time></trkpt><trkpt lat="41.18437101875534" lon="9.341110034824325"><ele>5.0</ele><time>2026-05-03T14:15:50.999Z</time></trkpt><trkpt lat="41.184451511377965" lon="9.341152322084694"><ele>3.3333333333333335</ele><time>2026-05-03T14:15:51.999Z</time></trkpt><trkpt lat="41.18453866130259" lon="9.34119700789411"><ele>1.6666666666666667</ele><time>2026-05-03T14:15:52.999Z</time></trkpt><trkpt lat="41.184600845726834" lon="9.341230645604806"><ele>0.0</ele><time>2026-05-03T14:15:53.999Z</time></trkpt><trkpt lat="41.18467682238064" lon="9.341273342144815"><ele>0.0</ele><time>2026-05-03T14:15:54.999Z</time></trkpt><trkpt lat="41.184804070123654" lon="9.341342656691264"><ele>0.0</ele><time>2026-05-03T14:15:56.999Z</time></trkpt><trkpt lat="41.18487165716258" lon="9.34137825387932"><ele>0.0</ele><time>2026-05-03T14:15:57.999Z</time></trkpt><trkpt lat="41.18494328863748" lon="9.341416784888487"><ele>0.0</ele><time>2026-05-03T14:15:58.999Z</time></trkpt><trkpt lat="41.185016180666736" lon="9.341457073462776"><ele>0.0</ele><time>2026-05-03T14:15:59.999Z</time></trkpt><trkpt lat="41.18508901353249" lon="9.341497329329908"><ele>0.0</ele><time>2026-05-03T14:16:00.999Z</time></trkpt><trkpt lat="41.18516242675437" lon="9.341537905956908"><ele>0.14285714285714285</ele><time>2026-05-03T14:16:01.999Z</time></trkpt><trkpt lat="41.185230866286695" lon="9.34157612047871"><ele>0.2857142857142857</ele><time>2026-05-03T14:16:02.999Z</time></trkpt><trkpt lat="41.18529472130064" lon="9.341595462330329"><ele>0.42857142857142855</ele><time>2026-05-03T14:16:03.999Z</time></trkpt><trkpt lat="41.18535828742258" lon="9.341636863155717"><ele>0.5714285714285714</ele><time>2026-05-03T14:16:04.999Z</time></trkpt><trkpt lat="41.18542244015975" lon="9.34167581038214"><ele>0.7142857142857142</ele><time>2026-05-03T14:16:05.999Z</time></trkpt><trkpt lat="41.1854830013611" lon="9.34171230782367"><ele>0.8571428571428571</ele><time>2026-05-03T14:16:06.999Z</time></trkpt><trkpt lat="41.1855534753065" lon="9.341749675759809"><ele>1.0</ele><time>2026-05-03T14:16:07.999Z</time></trkpt><trkpt lat="41.18562046035658" lon="9.341776831323095"><ele>1.2000000000000002</ele><time>2026-05-03T14:16:08.999Z</time></trkpt><trkpt lat="41.185707650827716" lon="9.341804182027646"><ele>1.4000000000000001</ele><time>2026-05-03T14:16:09.999Z</time></trkpt><trkpt lat="41.18580920259809" lon="9.341824617887092"><ele>1.6</ele><time>2026-05-03T14:16:10.999Z</time></trkpt><trkpt lat="41.185929835679346" lon="9.341856053760132"><ele>1.8</ele><time>2026-05-03T14:16:11.999Z</time></trkpt><trkpt lat="41.186058465626516" lon="9.341884787828914"><ele>2.0</ele><time>2026-05-03T14:16:12.999Z</time></trkpt><trkpt lat="41.1861933589483" lon="9.341915336106451"><ele>2.0</ele><time>2026-05-03T14:16:13.999Z</time></trkpt><trkpt lat="41.18633433937972" lon="9.34194028002354"><ele>2.0</ele><time>2026-05-03T14:16:14.999Z</time></trkpt><trkpt lat="41.18646465796149" lon="9.34196649708451"><ele>2.0</ele><time>2026-05-03T14:16:15.999Z</time></trkpt><trkpt lat="41.186574244248206" lon="9.341993611202302"><ele>2.0</ele><time>2026-05-03T14:16:16.999Z</time></trkpt><trkpt lat="41.186629152484024" lon="9.342089038214185"><ele>2.1666666666666665</ele><time>2026-05-03T14:16:17.999Z</time></trkpt><trkpt lat="41.18664686987454" lon="9.342183414846573"><ele>2.333333333333333</ele><time>2026-05-03T14:16:18.999Z</time></trkpt><trkpt lat="41.18668784639056" lon="9.342273889248045"><ele>2.5</ele><time>2026-05-03T14:16:19.999Z</time></trkpt><trkpt lat="41.186736738264266" lon="9.34233941097206"><ele>2.6666666666666665</ele><time>2026-05-03T14:16:20.999Z</time></trkpt><trkpt lat="41.18682699698051" lon="9.34234168943327"><ele>2.8333333333333335</ele><time>2026-05-03T14:16:21.999Z</time></trkpt><trkpt lat="41.186913363090305" lon="9.342327838391018"><ele>3.0</ele><time>2026-05-03T14:16:22.999Z</time></trkpt><trkpt lat="41.18701635416388" lon="9.342286848453814"><ele>3.0</ele><time>2026-05-03T14:16:23.999Z</time></trkpt><trkpt lat="41.18712601675239" lon="9.342239559625082"><ele>3.0</ele><time>2026-05-03T14:16:25Z</time></trkpt><trkpt lat="41.187242918851275" lon="9.342194119982391"><ele>3.0</ele><time>2026-05-03T14:16:26Z</time></trkpt><trkpt lat="41.187366565118616" lon="9.342147251924805"><ele>3.0</ele><time>2026-05-03T14:16:27Z</time></trkpt><trkpt lat="41.187489949450004" lon="9.342115626714468"><ele>4.0</ele><time>2026-05-03T14:16:28Z</time></trkpt><trkpt lat="41.187619530922" lon="9.342087861365133"><ele>5.0</ele><time>2026-05-03T14:16:29Z</time></trkpt><trkpt lat="41.18774810589597" lon="9.34207021963879"><ele>6.0</ele><time>2026-05-03T14:16:30Z</time></trkpt><trkpt lat="41.187876708258855" lon="9.342060716678352"><ele>7.0</ele><time>2026-05-03T14:16:31Z</time></trkpt><trkpt lat="41.18798383906999" lon="9.342047412573937"><ele>7.0</ele><time>2026-05-03T14:16:32Z</time></trkpt><trkpt lat="41.18807057742057" lon="9.342012717482149"><ele>6.999999999999999</ele><time>2026-05-03T14:16:33Z</time></trkpt><trkpt lat="41.18814240318475" lon="9.341955039626413"><ele>6.999999999999999</ele><time>2026-05-03T14:16:34Z</time></trkpt><trkpt lat="41.1882001950286" lon="9.341894575589574"><ele>7.0</ele><time>2026-05-03T14:16:35Z</time></trkpt><trkpt lat="41.18829456479177" lon="9.341803410659752"><ele>7.0</ele><time>2026-05-03T14:16:37Z</time></trkpt><trkpt lat="41.18840375878267" lon="9.341809044447931"><ele>8.666666666666668</ele><time>2026-05-03T14:16:39Z</time></trkpt><trkpt lat="41.188475708163836" lon="9.341951534532775"><ele>10.333333333333334</ele><time>2026-05-03T14:16:41Z</time></trkpt><trkpt lat="41.18847376403355" lon="9.342046280251187"><ele>12.0</ele><time>2026-05-03T14:16:42Z</time></trkpt><trkpt lat="41.188494981123185" lon="9.342152364968422"><ele>13.666666666666668</ele><time>2026-05-03T14:16:43Z</time></trkpt><trkpt lat="41.188530430887624" lon="9.342251684817674"><ele>15.333333333333334</ele><time>2026-05-03T14:16:44Z</time></trkpt><trkpt lat="41.18856277319482" lon="9.342351264485355"><ele>17.0</ele><time>2026-05-03T14:16:45Z</time></trkpt><trkpt lat="41.188612195585854" lon="9.342419204971836"><ele>18.8</ele><time>2026-05-03T14:16:46Z</time></trkpt><trkpt lat="41.188675274584156" lon="9.342453761181623"><ele>20.6</ele><time>2026-05-03T14:16:47Z</time></trkpt><trkpt lat="41.18875203509141" lon="9.342473439026275"><ele>22.400000000000002</ele><time>2026-05-03T14:16:48Z</time></trkpt><trkpt lat="41.18884975089684" lon="9.34249884727248"><ele>24.2</ele><time>2026-05-03T14:16:49Z</time></trkpt><trkpt lat="41.18895705611081" lon="9.342528969728297"><ele>26.0</ele><time>2026-05-03T14:16:50Z</time></trkpt><trkpt lat="41.18906506777947" lon="9.342553258583107"><ele>26.499999999999996</ele><time>2026-05-03T14:16:51Z</time></trkpt><trkpt lat="41.18915292565598" lon="9.34256714011643"><ele>27.0</ele><time>2026-05-03T14:16:52Z</time></trkpt><trkpt lat="41.18923069471906" lon="9.34257792127017"><ele>27.5</ele><time>2026-05-03T14:16:53Z</time></trkpt><trkpt lat="41.18931419956731" lon="9.342578491714605"><ele>28.0</ele><time>2026-05-03T14:16:54Z</time></trkpt><trkpt lat="41.189407001860694" lon="9.342578624174804"><ele>28.499999999999996</ele><time>2026-05-03T14:16:55Z</time></trkpt><trkpt lat="41.18950403842136" lon="9.34259264141946"><ele>29.0</ele><time>2026-05-03T14:16:56Z</time></trkpt><trkpt lat="41.189592269449705" lon="9.34264658696101"><ele>29.0</ele><time>2026-05-03T14:16:57Z</time></trkpt><trkpt lat="41.189682198484284" lon="9.342696342148177"><ele>29.0</ele><time>2026-05-03T14:16:58Z</time></trkpt><trkpt lat="41.18977970888083" lon="9.342725867215847"><ele>29.0</ele><time>2026-05-03T14:16:59Z</time></trkpt><trkpt lat="41.189872645355855" lon="9.342781550725269"><ele>29.0</ele><time>2026-05-03T14:17:00Z</time></trkpt><trkpt lat="41.189969819293594" lon="9.34283556559808"><ele>29.0</ele><time>2026-05-03T14:17:01Z</time></trkpt><trkpt lat="41.19007108438523" lon="9.342892261135527"><ele>28.5</ele><time>2026-05-03T14:17:02Z</time></trkpt><trkpt lat="41.190178964773565" lon="9.342946391302572"><ele>28.0</ele><time>2026-05-03T14:17:03Z</time></trkpt><trkpt lat="41.19028738989699" lon="9.343005968050731"><ele>27.5</ele><time>2026-05-03T14:17:04Z</time></trkpt><trkpt lat="41.190400728037815" lon="9.343059603752724"><ele>27.0</ele><time>2026-05-03T14:17:05Z</time></trkpt><trkpt lat="41.19050952388949" lon="9.343119614629304"><ele>28.0</ele><time>2026-05-03T14:17:06Z</time></trkpt><trkpt lat="41.190612908027724" lon="9.34318600433458"><ele>29.0</ele><time>2026-05-03T14:17:07Z</time></trkpt><trkpt lat="41.19071523455013" lon="9.343263591961318"><ele>30.0</ele><time>2026-05-03T14:17:08Z</time></trkpt><trkpt lat="41.19081343382185" lon="9.343350222622568"><ele>31.0</ele><time>2026-05-03T14:17:09Z</time></trkpt><trkpt lat="41.19090596958647" lon="9.343441137477809"><ele>31.0</ele><time>2026-05-03T14:17:10Z</time></trkpt><trkpt lat="41.19099666330512" lon="9.34352499679952"><ele>31.0</ele><time>2026-05-03T14:17:11Z</time></trkpt><trkpt lat="41.191090784769415" lon="9.343596938346655"><ele>31.0</ele><time>2026-05-03T14:17:12Z</time></trkpt><trkpt lat="41.1911934065097" lon="9.343655217854913"><ele>31.0</ele><time>2026-05-03T14:17:13Z</time></trkpt><trkpt lat="41.19129823507879" lon="9.343712634130739"><ele>31.0</ele><time>2026-05-03T14:17:14Z</time></trkpt><trkpt lat="41.19140712947605" lon="9.343763739246102"><ele>30.5</ele><time>2026-05-03T14:17:15Z</time></trkpt><trkpt lat="41.19152548502308" lon="9.343808676095412"><ele>30.0</ele><time>2026-05-03T14:17:16Z</time></trkpt><trkpt lat="41.19164496933939" lon="9.343864173488276"><ele>29.5</ele><time>2026-05-03T14:17:16.999Z</time></trkpt><trkpt lat="41.191750320162875" lon="9.34393262160364"><ele>29.0</ele><time>2026-05-03T14:17:17.999Z</time></trkpt><trkpt lat="41.19183584120415" lon="9.344000337763"><ele>29.0</ele><time>2026-05-03T14:17:18.999Z</time></trkpt><trkpt lat="41.19192718430845" lon="9.344074610992527"><ele>29.0</ele><time>2026-05-03T14:17:19.999Z</time></trkpt><trkpt lat="41.192028882106825" lon="9.344140171238948"><ele>29.0</ele><time>2026-05-03T14:17:20.999Z</time></trkpt><trkpt lat="41.19213499946743" lon="9.344199380849568"><ele>29.0</ele><time>2026-05-03T14:17:21.999Z</time></trkpt><trkpt lat="41.19223603047429" lon="9.344241346046944"><ele>29.0</ele><time>2026-05-03T14:17:22.999Z</time></trkpt><trkpt lat="41.19234805351236" lon="9.344272024518656"><ele>27.6</ele><time>2026-05-03T14:17:23.999Z</time></trkpt><trkpt lat="41.1924540940631" lon="9.344288891073491"><ele>26.2</ele><time>2026-05-03T14:17:24.999Z</time></trkpt><trkpt lat="41.19256023158569" lon="9.344302713190226"><ele>24.8</ele><time>2026-05-03T14:17:25.999Z</time></trkpt><trkpt lat="41.1926582663818" lon="9.344306918758825"><ele>23.400000000000002</ele><time>2026-05-03T14:17:26.999Z</time></trkpt><trkpt lat="41.192753998191954" lon="9.344301251507497"><ele>22.0</ele><time>2026-05-03T14:17:27.999Z</time></trkpt><trkpt lat="41.192837608486904" lon="9.344271275163615"><ele>22.0</ele><time>2026-05-03T14:17:28.999Z</time></trkpt><trkpt lat="41.19290818076706" lon="9.34421431221821"><ele>22.0</ele><time>2026-05-03T14:17:29.999Z</time></trkpt><trkpt lat="41.192956948627895" lon="9.344117479771127"><ele>22.0</ele><time>2026-05-03T14:17:30.999Z</time></trkpt><trkpt lat="41.192997296316825" lon="9.344030203713258"><ele>22.0</ele><time>2026-05-03T14:17:31.999Z</time></trkpt><trkpt lat="41.193049905488095" lon="9.343963016624919"><ele>22.0</ele><time>2026-05-03T14:17:32.999Z</time></trkpt><trkpt lat="41.19312318879327" lon="9.343935467612184"><ele>22.0</ele><time>2026-05-03T14:17:33.999Z</time></trkpt><trkpt lat="41.193206810296914" lon="9.343967031749875"><ele>20.0</ele><time>2026-05-03T14:17:34.999Z</time></trkpt><trkpt lat="41.19326944124552" lon="9.34405643067771"><ele>18.0</ele><time>2026-05-03T14:17:35.999Z</time></trkpt><trkpt lat="41.19332935705135" lon="9.344167298970799"><ele>16.0</ele><time>2026-05-03T14:17:36.999Z</time></trkpt><trkpt lat="41.193407649858976" lon="9.34428966827651"><ele>14.0</ele><time>2026-05-03T14:17:37.999Z</time></trkpt><trkpt lat="41.19346118771105" lon="9.34441505166499"><ele>12.0</ele><time>2026-05-03T14:17:38.999Z</time></trkpt><trkpt lat="41.19352416607036" lon="9.344522957639239"><ele>12.0</ele><time>2026-05-03T14:17:39.999Z</time></trkpt><trkpt lat="41.19360055409352" lon="9.344610890042457"><ele>12.0</ele><time>2026-05-03T14:17:40.999Z</time></trkpt><trkpt lat="41.19368654296832" lon="9.344679972138561"><ele>12.0</ele><time>2026-05-03T14:17:41.999Z</time></trkpt><trkpt lat="41.19377342672637" lon="9.344746268136848"><ele>12.0</ele><time>2026-05-03T14:17:42.999Z</time></trkpt><trkpt lat="41.1938582502115" lon="9.344835088470383"><ele>12.0</ele><time>2026-05-03T14:17:43.999Z</time></trkpt><trkpt lat="41.19392213346654" lon="9.344954810315253"><ele>11.6</ele><time>2026-05-03T14:17:44.999Z</time></trkpt><trkpt lat="41.194004982023195" lon="9.345065828376873"><ele>11.2</ele><time>2026-05-03T14:17:45.999Z</time></trkpt><trkpt lat="41.19406679392667" lon="9.345189472644053"><ele>10.8</ele><time>2026-05-03T14:17:46.999Z</time></trkpt><trkpt lat="41.19412026798912" lon="9.345312184561823"><ele>10.4</ele><time>2026-05-03T14:17:47.999Z</time></trkpt><trkpt lat="41.194176798042854" lon="9.345428706396442"><ele>10.0</ele><time>2026-05-03T14:17:48.999Z</time></trkpt><trkpt lat="41.19423689246194" lon="9.345533985252379"><ele>11.2</ele><time>2026-05-03T14:17:49.999Z</time></trkpt><trkpt lat="41.194305250858456" lon="9.345618285015311"><ele>12.4</ele><time>2026-05-03T14:17:50.999Z</time></trkpt><trkpt lat="41.194389202630205" lon="9.345671619966678"><ele>13.600000000000001</ele><time>2026-05-03T14:17:51.999Z</time></trkpt><trkpt lat="41.194485627273544" lon="9.345686390237436"><ele>14.8</ele><time>2026-05-03T14:17:52.999Z</time></trkpt><trkpt lat="41.19458234628888" lon="9.345668331718988"><ele>16.0</ele><time>2026-05-03T14:17:53.999Z</time></trkpt><trkpt lat="41.19467498609639" lon="9.345634385108246"><ele>15.999999999999998</ele><time>2026-05-03T14:17:54.999Z</time></trkpt><trkpt lat="41.19475684374886" lon="9.345603247588203"><ele>16.0</ele><time>2026-05-03T14:17:55.999Z</time></trkpt><trkpt lat="41.194819742583476" lon="9.345575855914879"><ele>16.0</ele><time>2026-05-03T14:17:56.999Z</time></trkpt><trkpt lat="41.19488108035449" lon="9.345548520984929"><ele>16.0</ele><time>2026-05-03T14:17:57.999Z</time></trkpt><trkpt lat="41.19499893960195" lon="9.34550059219029"><ele>15.999999999999998</ele><time>2026-05-03T14:17:59.999Z</time></trkpt><trkpt lat="41.195101239480294" lon="9.345494458234931"><ele>16.0</ele><time>2026-05-03T14:18:01.999Z</time></trkpt><trkpt lat="41.195178360337074" lon="9.345559449217957"><ele>16.400000000000002</ele><time>2026-05-03T14:18:03.999Z</time></trkpt><trkpt lat="41.19514155097027" lon="9.345658811377033"><ele>16.8</ele><time>2026-05-03T14:18:04.999Z</time></trkpt><trkpt lat="41.195109656182424" lon="9.345754921258887"><ele>17.200000000000003</ele><time>2026-05-03T14:18:05.999Z</time></trkpt><trkpt lat="41.19507052794916" lon="9.345862182999143"><ele>17.6</ele><time>2026-05-03T14:18:06.999Z</time></trkpt><trkpt lat="41.19503171294331" lon="9.345992168928543"><ele>18.0</ele><time>2026-05-03T14:18:07.999Z</time></trkpt><trkpt lat="41.19497485683205" lon="9.346123042148479"><ele>18.0</ele><time>2026-05-03T14:18:08.999Z</time></trkpt><trkpt lat="41.19491250132125" lon="9.346269850361702"><ele>18.0</ele><time>2026-05-03T14:18:09.999Z</time></trkpt><trkpt lat="41.19483570103969" lon="9.346409698885013"><ele>18.0</ele><time>2026-05-03T14:18:10.999Z</time></trkpt><trkpt lat="41.19476535199686" lon="9.346575563573406"><ele>18.0</ele><time>2026-05-03T14:18:11.999Z</time></trkpt><trkpt lat="41.19470385542298" lon="9.346750198071659"><ele>18.5</ele><time>2026-05-03T14:18:12.999Z</time></trkpt><trkpt lat="41.1946575290305" lon="9.346939617324912"><ele>19.0</ele><time>2026-05-03T14:18:13.999Z</time></trkpt><trkpt lat="41.194650543940085" lon="9.347133144840983"><ele>19.5</ele><time>2026-05-03T14:18:14.999Z</time></trkpt><trkpt lat="41.194669948113614" lon="9.347311867649426"><ele>20.0</ele><time>2026-05-03T14:18:15.999Z</time></trkpt><trkpt lat="41.194702705858994" lon="9.347485697238907"><ele>21.0</ele><time>2026-05-03T14:18:16.999Z</time></trkpt><trkpt lat="41.194735337381296" lon="9.347656703902816"><ele>22.0</ele><time>2026-05-03T14:18:17.999Z</time></trkpt><trkpt lat="41.19476993858668" lon="9.347836330074685"><ele>23.0</ele><time>2026-05-03T14:18:18.999Z</time></trkpt><trkpt lat="41.19480461495899" lon="9.348016103710775"><ele>24.0</ele><time>2026-05-03T14:18:19.999Z</time></trkpt><trkpt lat="41.19483795535341" lon="9.34819235333645"><ele>27.25</ele><time>2026-05-03T14:18:20.999Z</time></trkpt><trkpt lat="41.194869385324985" lon="9.348360187317786"><ele>30.5</ele><time>2026-05-03T14:18:21.999Z</time></trkpt><trkpt lat="41.194899096202654" lon="9.348519988202725"><ele>33.75</ele><time>2026-05-03T14:18:22.999Z</time></trkpt><trkpt lat="41.194926905607694" lon="9.348669562001291"><ele>37.0</ele><time>2026-05-03T14:18:23.999Z</time></trkpt><trkpt lat="41.19495416692042" lon="9.348812994193498"><ele>38.0</ele><time>2026-05-03T14:18:24.999Z</time></trkpt><trkpt lat="41.1949816923692" lon="9.348953473115449"><ele>39.0</ele><time>2026-05-03T14:18:25.999Z</time></trkpt><trkpt lat="41.195010700248766" lon="9.34909702780338"><ele>40.0</ele><time>2026-05-03T14:18:26.999Z</time></trkpt><trkpt lat="41.19504227864842" lon="9.34924655408274"><ele>41.0</ele><time>2026-05-03T14:18:27.999Z</time></trkpt><trkpt lat="41.195074245351044" lon="9.349398356387782"><ele>41.0</ele><time>2026-05-03T14:18:28.999Z</time></trkpt><trkpt lat="41.195096908479414" lon="9.349541229976177"><ele>41.0</ele><time>2026-05-03T14:18:29.999Z</time></trkpt><trkpt lat="41.195093142337896" lon="9.349659871233975"><ele>41.0</ele><time>2026-05-03T14:18:31Z</time></trkpt><trkpt lat="41.1950392948743" lon="9.349743778191135"><ele>41.0</ele><time>2026-05-03T14:18:32Z</time></trkpt><trkpt lat="41.19496694126619" lon="9.349852391733572"><ele>41.0</ele><time>2026-05-03T14:18:33Z</time></trkpt><trkpt lat="41.19487871480447" lon="9.349971117493771"><ele>42.25</ele><time>2026-05-03T14:18:34Z</time></trkpt><trkpt lat="41.1947772428846" lon="9.350088802111113"><ele>43.5</ele><time>2026-05-03T14:18:35Z</time></trkpt><trkpt lat="41.194666604453445" lon="9.350175249315985"><ele>44.75</ele><time>2026-05-03T14:18:36Z</time></trkpt><trkpt lat="41.194538059105966" lon="9.350231914652609"><ele>46.0</ele><time>2026-05-03T14:18:37Z</time></trkpt><trkpt lat="41.19440577424734" lon="9.350280760796146"><ele>46.0</ele><time>2026-05-03T14:18:38Z</time></trkpt><trkpt lat="41.19427837138685" lon="9.350332361229428"><ele>46.0</ele><time>2026-05-03T14:18:39Z</time></trkpt><trkpt lat="41.194155477097006" lon="9.350400222713914"><ele>46.0</ele><time>2026-05-03T14:18:40Z</time></trkpt><trkpt lat="41.19404144299126" lon="9.350519936988887"><ele>46.0</ele><time>2026-05-03T14:18:41Z</time></trkpt><trkpt lat="41.193941333978096" lon="9.350660620177745"><ele>49.66666666666667</ele><time>2026-05-03T14:18:42Z</time></trkpt><trkpt lat="41.19382175782258" lon="9.350806028123301"><ele>53.333333333333336</ele><time>2026-05-03T14:18:43Z</time></trkpt><trkpt lat="41.19369703613913" lon="9.350947660161436"><ele>57.0</ele><time>2026-05-03T14:18:44Z</time></trkpt><trkpt lat="41.193570271630904" lon="9.351086668352727"><ele>57.0</ele><time>2026-05-03T14:18:45Z</time></trkpt><trkpt lat="41.19343759608204" lon="9.35122802392002"><ele>57.0</ele><time>2026-05-03T14:18:46Z</time></trkpt><trkpt lat="41.193302945940744" lon="9.35137072902619"><ele>57.0</ele><time>2026-05-03T14:18:47Z</time></trkpt><trkpt lat="41.19317368422118" lon="9.351534147380393"><ele>57.66666666666667</ele><time>2026-05-03T14:18:48Z</time></trkpt><trkpt lat="41.193052585256034" lon="9.351702595071599"><ele>58.333333333333336</ele><time>2026-05-03T14:18:49Z</time></trkpt><trkpt lat="41.19292273233853" lon="9.35186692381409"><ele>59.0</ele><time>2026-05-03T14:18:50Z</time></trkpt><trkpt lat="41.192790155307485" lon="9.35202829286062"><ele>59.0</ele><time>2026-05-03T14:18:51Z</time></trkpt><trkpt lat="41.19265524098351" lon="9.352187362665822"><ele>59.0</ele><time>2026-05-03T14:18:52Z</time></trkpt><trkpt lat="41.19251932378404" lon="9.35234979681373"><ele>59.0</ele><time>2026-05-03T14:18:53Z</time></trkpt><trkpt lat="41.19238854566742" lon="9.352522442928153"><ele>62.333333333333336</ele><time>2026-05-03T14:18:54Z</time></trkpt><trkpt lat="41.19227154814662" lon="9.352705472259611"><ele>65.66666666666667</ele><time>2026-05-03T14:18:55Z</time></trkpt><trkpt lat="41.1921614433022" lon="9.352895063999165"><ele>69.0</ele><time>2026-05-03T14:18:56Z</time></trkpt><trkpt lat="41.19205482646223" lon="9.353082149283585"><ele>69.0</ele><time>2026-05-03T14:18:57Z</time></trkpt><trkpt lat="41.191955043108685" lon="9.353267164140858"><ele>69.0</ele><time>2026-05-03T14:18:58Z</time></trkpt><trkpt lat="41.19185799393512" lon="9.353452601551002"><ele>69.0</ele><time>2026-05-03T14:18:59Z</time></trkpt><trkpt lat="41.19177188954019" lon="9.353643022599401"><ele>69.0</ele><time>2026-05-03T14:19:00Z</time></trkpt><trkpt lat="41.19169991685994" lon="9.353837293118934"><ele>69.0</ele><time>2026-05-03T14:19:01Z</time></trkpt><trkpt lat="41.19163806880565" lon="9.354031439593781"><ele>69.0</ele><time>2026-05-03T14:19:02Z</time></trkpt><trkpt lat="41.19158097540765" lon="9.3542241639007"><ele>68.5</ele><time>2026-05-03T14:19:03Z</time></trkpt><trkpt lat="41.191526609282036" lon="9.354413363950242"><ele>68.0</ele><time>2026-05-03T14:19:04Z</time></trkpt><trkpt lat="41.191484423401334" lon="9.354604310799603"><ele>67.5</ele><time>2026-05-03T14:19:05Z</time></trkpt><trkpt lat="41.191459429117" lon="9.354790970996975"><ele>67.0</ele><time>2026-05-03T14:19:06Z</time></trkpt><trkpt lat="41.191450890944765" lon="9.354960437635944"><ele>68.0</ele><time>2026-05-03T14:19:07Z</time></trkpt><trkpt lat="41.19145303103182" lon="9.355097275692815"><ele>69.0</ele><time>2026-05-03T14:19:08Z</time></trkpt><trkpt lat="41.19145707530042" lon="9.355216697529736"><ele>70.0</ele><time>2026-05-03T14:19:09Z</time></trkpt><trkpt lat="41.191460651835065" lon="9.355324965537289"><ele>71.0</ele><time>2026-05-03T14:19:10Z</time></trkpt><trkpt lat="41.19145880597651" lon="9.355409534545593"><ele>72.0</ele><time>2026-05-03T14:19:10.999Z</time></trkpt><trkpt lat="41.191441473216855" lon="9.355560381654929"><ele>72.0</ele><time>2026-05-03T14:19:12.999Z</time></trkpt><trkpt lat="41.19140210155438" lon="9.355633382676405"><ele>72.0</ele><time>2026-05-03T14:19:13.999Z</time></trkpt><trkpt lat="41.191356691333496" lon="9.355715586142969"><ele>72.0</ele><time>2026-05-03T14:19:14.999Z</time></trkpt><trkpt lat="41.19129628324368" lon="9.35579084048082"><ele>72.0</ele><time>2026-05-03T14:19:15.999Z</time></trkpt><trkpt lat="41.191230993776784" lon="9.355874380356486"><ele>72.0</ele><time>2026-05-03T14:19:16.999Z</time></trkpt><trkpt lat="41.191164433866135" lon="9.355967999506737"><ele>72.0</ele><time>2026-05-03T14:19:17.999Z</time></trkpt><trkpt lat="41.19110701958392" lon="9.356081307632921"><ele>72.0</ele><time>2026-05-03T14:19:18.999Z</time></trkpt><trkpt lat="41.1910672843349" lon="9.356225914455205"><ele>72.0</ele><time>2026-05-03T14:19:19.999Z</time></trkpt><trkpt lat="41.191043434338965" lon="9.35636763333447"><ele>72.0</ele><time>2026-05-03T14:19:20.999Z</time></trkpt><trkpt lat="41.19103993112367" lon="9.356497118429115"><ele>72.0</ele><time>2026-05-03T14:19:21.999Z</time></trkpt><trkpt lat="41.191045652867174" lon="9.35661006555206"><ele>72.0</ele><time>2026-05-03T14:19:22.999Z</time></trkpt><trkpt lat="41.191067571180014" lon="9.356703653185582"><ele>71.33333333333333</ele><time>2026-05-03T14:19:23.999Z</time></trkpt><trkpt lat="41.19107968855634" lon="9.356788799332445"><ele>70.66666666666667</ele><time>2026-05-03T14:19:24.999Z</time></trkpt><trkpt lat="41.19107207541179" lon="9.356872460597955"><ele>70.0</ele><time>2026-05-03T14:19:25.999Z</time></trkpt><trkpt lat="41.19108036405959" lon="9.356964087853054"><ele>69.33333333333334</ele><time>2026-05-03T14:19:26.999Z</time></trkpt><trkpt lat="41.19107944215618" lon="9.3570478386057"><ele>68.66666666666667</ele><time>2026-05-03T14:19:27.999Z</time></trkpt><trkpt lat="41.19105813748092" lon="9.357190822474983"><ele>68.0</ele><time>2026-05-03T14:19:29.999Z</time></trkpt><trkpt lat="41.19102307749744" lon="9.357336951214878"><ele>67.5</ele><time>2026-05-03T14:19:31.999Z</time></trkpt><trkpt lat="41.19098209944806" lon="9.357502487468244"><ele>67.0</ele><time>2026-05-03T14:19:33.999Z</time></trkpt><trkpt lat="41.19095898226958" lon="9.357594611714681"><ele>66.5</ele><time>2026-05-03T14:19:34.999Z</time></trkpt><trkpt lat="41.19094587899366" lon="9.35768978545798"><ele>66.0</ele><time>2026-05-03T14:19:35.999Z</time></trkpt><trkpt lat="41.190914961498244" lon="9.35777202649422"><ele>65.5</ele><time>2026-05-03T14:19:36.999Z</time></trkpt><trkpt lat="41.19086355111236" lon="9.357835414220242"><ele>65.0</ele><time>2026-05-03T14:19:37.999Z</time></trkpt><trkpt lat="41.190819268272605" lon="9.357903577675032"><ele>65.0</ele><time>2026-05-03T14:19:38.999Z</time></trkpt><trkpt lat="41.19077077640083" lon="9.357964059852504"><ele>65.0</ele><time>2026-05-03T14:19:39.999Z</time></trkpt><trkpt lat="41.190720233571035" lon="9.35802356411324"><ele>65.0</ele><time>2026-05-03T14:19:40.999Z</time></trkpt><trkpt lat="41.190677479917646" lon="9.358095318519752"><ele>65.0</ele><time>2026-05-03T14:19:41.999Z</time></trkpt><trkpt lat="41.19062445879715" lon="9.358149894402077"><ele>65.0</ele><time>2026-05-03T14:19:42.999Z</time></trkpt><trkpt lat="41.19053831469936" lon="9.35822380322441"><ele>65.0</ele><time>2026-05-03T14:19:44.999Z</time></trkpt><trkpt lat="41.19060055543165" lon="9.3583706998965"><ele>63.0</ele><time>2026-05-03T14:19:48.999Z</time></trkpt><trkpt lat="41.190694289362185" lon="9.35841435111333"><ele>61.0</ele><time>2026-05-03T14:19:50.999Z</time></trkpt><trkpt lat="41.19081127622467" lon="9.358492002093843"><ele>59.0</ele><time>2026-05-03T14:19:52.999Z</time></trkpt><trkpt lat="41.190875091764234" lon="9.358540337962243"><ele>57.0</ele><time>2026-05-03T14:19:53.999Z</time></trkpt><trkpt lat="41.190937425498554" lon="9.358573805815997"><ele>55.0</ele><time>2026-05-03T14:19:54.999Z</time></trkpt><trkpt lat="41.191040280616846" lon="9.35859830927114"><ele>54.99999999999999</ele><time>2026-05-03T14:19:56.999Z</time></trkpt><trkpt lat="41.1911320370191" lon="9.358641774664825"><ele>55.0</ele><time>2026-05-03T14:19:58.999Z</time></trkpt><trkpt lat="41.1912146474223" lon="9.358765127088281"><ele>55.0</ele><time>2026-05-03T14:20:00.999Z</time></trkpt><trkpt lat="41.19125992657429" lon="9.358835407209027"><ele>55.0</ele><time>2026-05-03T14:20:01.999Z</time></trkpt><trkpt lat="41.191303901575516" lon="9.358901569085164"><ele>54.99999999999999</ele><time>2026-05-03T14:20:02.999Z</time></trkpt><trkpt lat="41.191346745054354" lon="9.358963594330442"><ele>55.0</ele><time>2026-05-03T14:20:03.999Z</time></trkpt><trkpt lat="41.19142875675777" lon="9.35908074461212"><ele>54.2</ele><time>2026-05-03T14:20:05.999Z</time></trkpt><trkpt lat="41.19151707212547" lon="9.359182672172013"><ele>53.4</ele><time>2026-05-03T14:20:07.999Z</time></trkpt><trkpt lat="41.19162262037745" lon="9.359265913711388"><ele>52.599999999999994</ele><time>2026-05-03T14:20:09.999Z</time></trkpt><trkpt lat="41.191726445910575" lon="9.359361118864543"><ele>51.8</ele><time>2026-05-03T14:20:11.999Z</time></trkpt><trkpt lat="41.19177622941627" lon="9.359414013832492"><ele>51.0</ele><time>2026-05-03T14:20:12.999Z</time></trkpt><trkpt lat="41.19184597020841" lon="9.35952093651936"><ele>51.0</ele><time>2026-05-03T14:20:14.999Z</time></trkpt><trkpt lat="41.191878703297355" lon="9.359650286597196"><ele>51.0</ele><time>2026-05-03T14:20:16.999Z</time></trkpt><trkpt lat="41.19191113794243" lon="9.3597853564512"><ele>51.0</ele><time>2026-05-03T14:20:18.999Z</time></trkpt><trkpt lat="41.19191594039496" lon="9.359922345744657"><ele>51.0</ele><time>2026-05-03T14:20:20.999Z</time></trkpt><trkpt lat="41.19191377582663" lon="9.360071829576484"><ele>51.0</ele><time>2026-05-03T14:20:22.999Z</time></trkpt><trkpt lat="41.19195552199212" lon="9.36021486179492"><ele>48.8</ele><time>2026-05-03T14:20:24.999Z</time></trkpt><trkpt lat="41.19204977931957" lon="9.360301275143767"><ele>46.599999999999994</ele><time>2026-05-03T14:20:26.999Z</time></trkpt><trkpt lat="41.192116396794894" lon="9.360331212178924"><ele>44.4</ele><time>2026-05-03T14:20:28.999Z</time></trkpt><trkpt lat="41.19206961145179" lon="9.360418786650857"><ele>42.2</ele><time>2026-05-03T14:20:31.999Z</time></trkpt><trkpt lat="41.19201336170215" lon="9.360533003713076"><ele>40.0</ele><time>2026-05-03T14:20:33.999Z</time></trkpt><trkpt lat="41.19197879698694" lon="9.360687653734496"><ele>38.66666666666667</ele><time>2026-05-03T14:20:35.999Z</time></trkpt><trkpt lat="41.19196207916982" lon="9.360779708533386"><ele>37.333333333333336</ele><time>2026-05-03T14:20:37Z</time></trkpt><trkpt lat="41.191957503700586" lon="9.360887449413731"><ele>36.0</ele><time>2026-05-03T14:20:38Z</time></trkpt><trkpt lat="41.19193534350035" lon="9.361000999800014"><ele>34.666666666666664</ele><time>2026-05-03T14:20:39Z</time></trkpt><trkpt lat="41.191901552399976" lon="9.36111065866815"><ele>33.33333333333333</ele><time>2026-05-03T14:20:40Z</time></trkpt><trkpt lat="41.19189497386676" lon="9.36122265532468"><ele>32.0</ele><time>2026-05-03T14:20:41Z</time></trkpt><trkpt lat="41.191933205627755" lon="9.361299274788896"><ele>31.833333333333332</ele><time>2026-05-03T14:20:42Z</time></trkpt><trkpt lat="41.19196376373675" lon="9.361385385446878"><ele>31.666666666666664</ele><time>2026-05-03T14:20:43Z</time></trkpt><trkpt lat="41.19200678145293" lon="9.361457314601237"><ele>31.5</ele><time>2026-05-03T14:20:44Z</time></trkpt><trkpt lat="41.19205184079207" lon="9.36151795795573"><ele>31.333333333333336</ele><time>2026-05-03T14:20:45Z</time></trkpt><trkpt lat="41.1921197786842" lon="9.361644526558338"><ele>31.166666666666668</ele><time>2026-05-03T14:20:47Z</time></trkpt><trkpt lat="41.19216178721501" lon="9.36171168906406"><ele>31.0</ele><time>2026-05-03T14:20:48Z</time></trkpt><trkpt lat="41.192204565486996" lon="9.361781405497466"><ele>31.0</ele><time>2026-05-03T14:20:49Z</time></trkpt><trkpt lat="41.19225456940896" lon="9.361835366204776"><ele>31.0</ele><time>2026-05-03T14:20:50Z</time></trkpt><trkpt lat="41.19228107698212" lon="9.361994570727221"><ele>31.0</ele><time>2026-05-03T14:20:52Z</time></trkpt><trkpt lat="41.192252350884814" lon="9.362153142017794"><ele>31.0</ele><time>2026-05-03T14:20:54Z</time></trkpt><trkpt lat="41.192229059513195" lon="9.3622843674777"><ele>31.0</ele><time>2026-05-03T14:20:56Z</time></trkpt><trkpt lat="41.19220572124384" lon="9.362373991918005"><ele>30.6</ele><time>2026-05-03T14:20:59Z</time></trkpt><trkpt lat="41.19230029469755" lon="9.362480364813138"><ele>30.200000000000003</ele><time>2026-05-03T14:21:01Z</time></trkpt><trkpt lat="41.19239659479325" lon="9.362527148140702"><ele>29.799999999999997</ele><time>2026-05-03T14:21:03Z</time></trkpt><trkpt lat="41.19249939930614" lon="9.362605207742236"><ele>29.4</ele><time>2026-05-03T14:21:05Z</time></trkpt><trkpt lat="41.19255264311383" lon="9.362651856060419"><ele>29.0</ele><time>2026-05-03T14:21:06Z</time></trkpt><trkpt lat="41.19264335454547" lon="9.362718553461288"><ele>28.0</ele><time>2026-05-03T14:21:08Z</time></trkpt><trkpt lat="41.19271569779552" lon="9.362768593712142"><ele>27.0</ele><time>2026-05-03T14:21:10Z</time></trkpt><trkpt lat="41.19278326063137" lon="9.362843803224381"><ele>26.0</ele><time>2026-05-03T14:21:12Z</time></trkpt><trkpt lat="41.192842511479" lon="9.362928472129212"><ele>25.0</ele><time>2026-05-03T14:21:14Z</time></trkpt><trkpt lat="41.19278092918209" lon="9.363095162538297"><ele>24.0</ele><time>2026-05-03T14:21:17Z</time></trkpt><trkpt lat="41.192725149674814" lon="9.36322386070723"><ele>23.5</ele><time>2026-05-03T14:21:18.999Z</time></trkpt><trkpt lat="41.1926989454149" lon="9.363388546436667"><ele>23.0</ele><time>2026-05-03T14:21:20.999Z</time></trkpt><trkpt lat="41.19268293511642" lon="9.363469551402842"><ele>22.5</ele><time>2026-05-03T14:21:21.999Z</time></trkpt><trkpt lat="41.192656417979876" lon="9.363552142577552"><ele>22.0</ele><time>2026-05-03T14:21:22.999Z</time></trkpt><trkpt lat="41.19263683330362" lon="9.363639348398188"><ele>21.5</ele><time>2026-05-03T14:21:23.999Z</time></trkpt><trkpt lat="41.19262249620134" lon="9.36372976506494"><ele>21.0</ele><time>2026-05-03T14:21:24.999Z</time></trkpt><trkpt lat="41.19260655093395" lon="9.363818126605231"><ele>20.666666666666668</ele><time>2026-05-03T14:21:25.999Z</time></trkpt><trkpt lat="41.19257459560685" lon="9.363903296555266"><ele>20.333333333333332</ele><time>2026-05-03T14:21:26.999Z</time></trkpt><trkpt lat="41.19253939066001" lon="9.363987892535917"><ele>20.0</ele><time>2026-05-03T14:21:27.999Z</time></trkpt><trkpt lat="41.192513224716606" lon="9.364081942865976"><ele>19.666666666666664</ele><time>2026-05-03T14:21:28.999Z</time></trkpt><trkpt lat="41.19248162467949" lon="9.36424920443615"><ele>19.333333333333332</ele><time>2026-05-03T14:21:30.999Z</time></trkpt><trkpt lat="41.192471925175326" lon="9.364336291079917"><ele>19.0</ele><time>2026-05-03T14:21:31.999Z</time></trkpt><trkpt lat="41.192413628241056" lon="9.364462172138778"><ele>20.0</ele><time>2026-05-03T14:21:33.999Z</time></trkpt><trkpt lat="41.19231187777121" lon="9.364487112576812"><ele>21.0</ele><time>2026-05-03T14:21:35.999Z</time></trkpt><trkpt lat="41.19221230839157" lon="9.364441338934611"><ele>22.0</ele><time>2026-05-03T14:21:37.999Z</time></trkpt><trkpt lat="41.19212642102126" lon="9.364370821134541"><ele>23.0</ele><time>2026-05-03T14:21:39.999Z</time></trkpt><trkpt lat="41.19205979204748" lon="9.364252036708386"><ele>24.0</ele><time>2026-05-03T14:21:41.999Z</time></trkpt><trkpt lat="41.191943749279226" lon="9.364197156721197"><ele>24.0</ele><time>2026-05-03T14:21:43.999Z</time></trkpt><trkpt lat="41.19188257052995" lon="9.364177076220193"><ele>24.0</ele><time>2026-05-03T14:21:44.999Z</time></trkpt><trkpt lat="41.19182037364917" lon="9.364158012485973"><ele>24.0</ele><time>2026-05-03T14:21:45.999Z</time></trkpt><trkpt lat="41.191710725361276" lon="9.364133743408908"><ele>24.0</ele><time>2026-05-03T14:21:47.999Z</time></trkpt><trkpt lat="41.19161907032531" lon="9.364119244342524"><ele>24.0</ele><time>2026-05-03T14:21:49.999Z</time></trkpt><trkpt lat="41.19152301091089" lon="9.364118646379904"><ele>24.0</ele><time>2026-05-03T14:21:51.999Z</time></trkpt><trkpt lat="41.19142287566716" lon="9.3641462241133"><ele>24.0</ele><time>2026-05-03T14:21:53.999Z</time></trkpt><trkpt lat="41.19131924933664" lon="9.364208943536918"><ele>24.0</ele><time>2026-05-03T14:21:55.999Z</time></trkpt><trkpt lat="41.19125744893588" lon="9.36423296845173"><ele>24.0</ele><time>2026-05-03T14:21:56.999Z</time></trkpt><trkpt lat="41.191196620558166" lon="9.364262103512313"><ele>24.0</ele><time>2026-05-03T14:21:57.999Z</time></trkpt><trkpt lat="41.19113170269609" lon="9.364273618659722"><ele>24.0</ele><time>2026-05-03T14:21:58.999Z</time></trkpt><trkpt lat="41.19106335985043" lon="9.364264805816646"><ele>24.0</ele><time>2026-05-03T14:21:59.999Z</time></trkpt><trkpt lat="41.190991232567455" lon="9.364245371316965"><ele>24.0</ele><time>2026-05-03T14:22:00.999Z</time></trkpt><trkpt lat="41.19091600056472" lon="9.364220984247165"><ele>24.0</ele><time>2026-05-03T14:22:01.999Z</time></trkpt><trkpt lat="41.19084012770338" lon="9.364192547454257"><ele>24.0</ele><time>2026-05-03T14:22:02.999Z</time></trkpt><trkpt lat="41.19076205240619" lon="9.364161784068688"><ele>24.0</ele><time>2026-05-03T14:22:03.999Z</time></trkpt><trkpt lat="41.190683282208234" lon="9.364132725972228"><ele>24.0</ele><time>2026-05-03T14:22:04.999Z</time></trkpt><trkpt lat="41.190608939064425" lon="9.364100870673397"><ele>24.0</ele><time>2026-05-03T14:22:05.999Z</time></trkpt><trkpt lat="41.190514788300256" lon="9.364043765765821"><ele>23.4</ele><time>2026-05-03T14:22:07.999Z</time></trkpt><trkpt lat="41.19043784038094" lon="9.364019227471015"><ele>22.799999999999997</ele><time>2026-05-03T14:22:51Z</time></trkpt><trkpt lat="41.19037067037964" lon="9.364000725420563"><ele>22.200000000000003</ele><time>2026-05-03T14:22:52Z</time></trkpt><trkpt lat="41.190294771564375" lon="9.363943335275923"><ele>21.6</ele><time>2026-05-03T14:22:53Z</time></trkpt><trkpt lat="41.19018751621544" lon="9.363892313246724"><ele>21.0</ele><time>2026-05-03T14:22:54Z</time></trkpt><trkpt lat="41.19004697456548" lon="9.363848464828902"><ele>23.0</ele><time>2026-05-03T14:22:55Z</time></trkpt><trkpt lat="41.1898914576969" lon="9.363775266423206"><ele>25.0</ele><time>2026-05-03T14:22:56Z</time></trkpt><trkpt lat="41.18972585254755" lon="9.363667579274933"><ele>27.0</ele><time>2026-05-03T14:22:57Z</time></trkpt><trkpt lat="41.18956490473039" lon="9.363573807860192"><ele>27.0</ele><time>2026-05-03T14:22:58Z</time></trkpt><trkpt lat="41.18942736746425" lon="9.363482317792311"><ele>27.0</ele><time>2026-05-03T14:22:59Z</time></trkpt><trkpt lat="41.18930505601194" lon="9.36340084317902"><ele>27.0</ele><time>2026-05-03T14:23:00Z</time></trkpt><trkpt lat="41.189169879300266" lon="9.363322019240027"><ele>27.0</ele><time>2026-05-03T14:23:01Z</time></trkpt><trkpt lat="41.189017664888965" lon="9.363231983828893"><ele>26.666666666666664</ele><time>2026-05-03T14:23:02Z</time></trkpt><trkpt lat="41.18886288747287" lon="9.363136199544055"><ele>26.333333333333332</ele><time>2026-05-03T14:23:03Z</time></trkpt><trkpt lat="41.18873432950916" lon="9.363049639958456"><ele>26.0</ele><time>2026-05-03T14:23:04Z</time></trkpt><trkpt lat="41.188589142601174" lon="9.36296081879356"><ele>29.666666666666664</ele><time>2026-05-03T14:23:05Z</time></trkpt><trkpt lat="41.18843397389468" lon="9.362869012359871"><ele>33.333333333333336</ele><time>2026-05-03T14:23:06Z</time></trkpt><trkpt lat="41.1882989983663" lon="9.362786206761868"><ele>37.0</ele><time>2026-05-03T14:23:07Z</time></trkpt><trkpt lat="41.18817296783901" lon="9.362718316769241"><ele>38.0</ele><time>2026-05-03T14:23:08Z</time></trkpt><trkpt lat="41.18805981444243" lon="9.362686510308201"><ele>39.0</ele><time>2026-05-03T14:23:09Z</time></trkpt><trkpt lat="41.18797818976422" lon="9.36264576022699"><ele>40.0</ele><time>2026-05-03T14:23:10Z</time></trkpt><trkpt lat="41.18789446999453" lon="9.36261492043115"><ele>41.0</ele><time>2026-05-03T14:23:12Z</time></trkpt><trkpt lat="41.187812366836866" lon="9.362629669858794"><ele>42.0</ele><time>2026-05-03T14:23:14Z</time></trkpt><trkpt lat="41.18777045440567" lon="9.3627066338972"><ele>43.0</ele><time>2026-05-03T14:23:15Z</time></trkpt><trkpt lat="41.18769571299814" lon="9.362818695984753"><ele>43.0</ele><time>2026-05-03T14:23:16Z</time></trkpt><trkpt lat="41.18762602808051" lon="9.36293076463867"><ele>43.0</ele><time>2026-05-03T14:23:17Z</time></trkpt><trkpt lat="41.18754024915159" lon="9.362992232223036"><ele>43.0</ele><time>2026-05-03T14:23:18Z</time></trkpt><trkpt lat="41.18746113310811" lon="9.36304436731158"><ele>43.0</ele><time>2026-05-03T14:23:19Z</time></trkpt><trkpt lat="41.18735856942459" lon="9.363008773608554"><ele>43.0</ele><time>2026-05-03T14:23:20Z</time></trkpt><trkpt lat="41.18724940072584" lon="9.363030423673678"><ele>46.25</ele><time>2026-05-03T14:23:21Z</time></trkpt><trkpt lat="41.18716799770592" lon="9.363145995424272"><ele>49.5</ele><time>2026-05-03T14:23:22Z</time></trkpt><trkpt lat="41.18710368348934" lon="9.363249714140933"><ele>52.75</ele><time>2026-05-03T14:23:23Z</time></trkpt><trkpt lat="41.18703204570703" lon="9.36337134729979"><ele>56.0</ele><time>2026-05-03T14:23:24Z</time></trkpt><trkpt lat="41.186944177670505" lon="9.36349967061665"><ele>56.0</ele><time>2026-05-03T14:23:25Z</time></trkpt><trkpt lat="41.18683688280601" lon="9.36362578484285"><ele>56.0</ele><time>2026-05-03T14:23:26Z</time></trkpt><trkpt lat="41.18671404637999" lon="9.363754792069077"><ele>56.0</ele><time>2026-05-03T14:23:27Z</time></trkpt><trkpt lat="41.186572684488674" lon="9.36390317435159"><ele>59.75</ele><time>2026-05-03T14:23:28Z</time></trkpt><trkpt lat="41.18646122065559" lon="9.364043910048698"><ele>63.5</ele><time>2026-05-03T14:23:29Z</time></trkpt><trkpt lat="41.186365446659785" lon="9.364183057838915"><ele>67.25</ele><time>2026-05-03T14:23:30Z</time></trkpt><trkpt lat="41.18630578288637" lon="9.364331785707384"><ele>71.0</ele><time>2026-05-03T14:23:31Z</time></trkpt><trkpt lat="41.18628268187314" lon="9.364506799895418"><ele>67.8</ele><time>2026-05-03T14:23:32Z</time></trkpt><trkpt lat="41.186263284002266" lon="9.36469705478116"><ele>64.6</ele><time>2026-05-03T14:23:33Z</time></trkpt><trkpt lat="41.18622088513066" lon="9.364809415598122"><ele>61.4</ele><time>2026-05-03T14:23:34Z</time></trkpt><trkpt lat="41.18614176496407" lon="9.364850577688472"><ele>58.2</ele><time>2026-05-03T14:23:34.999Z</time></trkpt><trkpt lat="41.18605364338354" lon="9.364868770266849"><ele>55.0</ele><time>2026-05-03T14:23:35.999Z</time></trkpt><trkpt lat="41.185958617056194" lon="9.364927914095144"><ele>55.0</ele><time>2026-05-03T14:23:36.999Z</time></trkpt><trkpt lat="41.185834670671646" lon="9.364953277973283"><ele>55.0</ele><time>2026-05-03T14:23:37.999Z</time></trkpt><trkpt lat="41.185719508692074" lon="9.36501143816023"><ele>55.0</ele><time>2026-05-03T14:23:38.999Z</time></trkpt><trkpt lat="41.18559574358885" lon="9.365032971186116"><ele>55.0</ele><time>2026-05-03T14:23:39.999Z</time></trkpt><trkpt lat="41.185461509024904" lon="9.36502513563876"><ele>56.666666666666664</ele><time>2026-05-03T14:23:40.999Z</time></trkpt><trkpt lat="41.18531707843621" lon="9.364981819873675"><ele>58.33333333333333</ele><time>2026-05-03T14:23:41.999Z</time></trkpt><trkpt lat="41.185179954410735" lon="9.364895321679054"><ele>60.0</ele><time>2026-05-03T14:23:42.999Z</time></trkpt><trkpt lat="41.185052824520916" lon="9.364772860050557"><ele>64.66666666666667</ele><time>2026-05-03T14:23:43.999Z</time></trkpt><trkpt lat="41.1849105378648" lon="9.364618966178872"><ele>69.33333333333334</ele><time>2026-05-03T14:23:44.999Z</time></trkpt><trkpt lat="41.184748556237224" lon="9.36450090073994"><ele>74.0</ele><time>2026-05-03T14:23:45.999Z</time></trkpt><trkpt lat="41.18459768955463" lon="9.36442044958181"><ele>74.0</ele><time>2026-05-03T14:23:46.999Z</time></trkpt><trkpt lat="41.18447103332502" lon="9.364337128824527"><ele>74.0</ele><time>2026-05-03T14:23:47.999Z</time></trkpt><trkpt lat="41.18437807696605" lon="9.364267373623841"><ele>74.0</ele><time>2026-05-03T14:23:48.999Z</time></trkpt><trkpt lat="41.18430228501104" lon="9.364206532034425"><ele>74.0</ele><time>2026-05-03T14:23:49.999Z</time></trkpt><trkpt lat="41.18425092487384" lon="9.364099097467134"><ele>74.0</ele><time>2026-05-03T14:23:50.999Z</time></trkpt><trkpt lat="41.18417947325034" lon="9.36397354658127"><ele>75.66666666666667</ele><time>2026-05-03T14:23:51.999Z</time></trkpt><trkpt lat="41.18411698574192" lon="9.363825505316072"><ele>77.33333333333333</ele><time>2026-05-03T14:23:52.999Z</time></trkpt><trkpt lat="41.18405624575678" lon="9.36363677445446"><ele>79.0</ele><time>2026-05-03T14:23:53.999Z</time></trkpt><trkpt lat="41.18400013937352" lon="9.363415982626751"><ele>75.0</ele><time>2026-05-03T14:23:54.999Z</time></trkpt><trkpt lat="41.183951623925964" lon="9.363191296792193"><ele>71.0</ele><time>2026-05-03T14:23:55.999Z</time></trkpt><trkpt lat="41.183911215756304" lon="9.362993785378759"><ele>67.0</ele><time>2026-05-03T14:23:56.999Z</time></trkpt><trkpt lat="41.183878354229776" lon="9.362831960175031"><ele>66.8</ele><time>2026-05-03T14:23:57.999Z</time></trkpt><trkpt lat="41.18383370513562" lon="9.362713803093301"><ele>66.6</ele><time>2026-05-03T14:23:58.999Z</time></trkpt><trkpt lat="41.183793909938025" lon="9.362611988989768"><ele>66.39999999999999</ele><time>2026-05-03T14:23:59.999Z</time></trkpt><trkpt lat="41.183655257611946" lon="9.362563813127501"><ele>66.2</ele><time>2026-05-03T14:24:00.999Z</time></trkpt><trkpt lat="41.183551346546714" lon="9.36257005514534"><ele>66.0</ele><time>2026-05-03T14:24:01.999Z</time></trkpt><trkpt lat="41.18343190812741" lon="9.362632071660425"><ele>66.0</ele><time>2026-05-03T14:24:02.999Z</time></trkpt><trkpt lat="41.183315066179084" lon="9.36269802770669"><ele>66.0</ele><time>2026-05-03T14:24:03.999Z</time></trkpt><trkpt lat="41.18322200394349" lon="9.362781804567845"><ele>66.0</ele><time>2026-05-03T14:24:04.999Z</time></trkpt><trkpt lat="41.18314164585127" lon="9.362912455992198"><ele>66.0</ele><time>2026-05-03T14:24:05.999Z</time></trkpt><trkpt lat="41.18306933035346" lon="9.363080790135685"><ele>64.0</ele><time>2026-05-03T14:24:06.999Z</time></trkpt><trkpt lat="41.182999513183866" lon="9.363260775747293"><ele>62.0</ele><time>2026-05-03T14:24:07.999Z</time></trkpt><trkpt lat="41.182936015330746" lon="9.36341521348198"><ele>60.0</ele><time>2026-05-03T14:24:08.999Z</time></trkpt><trkpt lat="41.18287807094746" lon="9.363545754727415"><ele>58.0</ele><time>2026-05-03T14:24:09.999Z</time></trkpt><trkpt lat="41.18282387283888" lon="9.363662641088888"><ele>58.0</ele><time>2026-05-03T14:24:10.999Z</time></trkpt><trkpt lat="41.18277257909959" lon="9.363775375601861"><ele>58.0</ele><time>2026-05-03T14:24:11.999Z</time></trkpt><trkpt lat="41.18272295424591" lon="9.363883572390705"><ele>58.0</ele><time>2026-05-03T14:24:12.999Z</time></trkpt><trkpt lat="41.18267736728523" lon="9.363984657187393"><ele>58.0</ele><time>2026-05-03T14:24:13.999Z</time></trkpt><trkpt lat="41.182633243746395" lon="9.364088944978285"><ele>58.0</ele><time>2026-05-03T14:24:14.999Z</time></trkpt><trkpt lat="41.18260406949337" lon="9.36420225193786"><ele>58.599999999999994</ele><time>2026-05-03T14:24:15.999Z</time></trkpt><trkpt lat="41.1825973745697" lon="9.3643257190877"><ele>59.199999999999996</ele><time>2026-05-03T14:24:16.999Z</time></trkpt><trkpt lat="41.18261686422334" lon="9.364451125485376"><ele>59.8</ele><time>2026-05-03T14:24:17.999Z</time></trkpt><trkpt lat="41.18265710159465" lon="9.364577139069242"><ele>60.4</ele><time>2026-05-03T14:24:18.999Z</time></trkpt><trkpt lat="41.182697161822105" lon="9.364702634626013"><ele>61.0</ele><time>2026-05-03T14:24:19.999Z</time></trkpt><trkpt lat="41.182731839972114" lon="9.364830245386333"><ele>61.8</ele><time>2026-05-03T14:24:20.999Z</time></trkpt><trkpt lat="41.182766065818925" lon="9.364957424986942"><ele>62.599999999999994</ele><time>2026-05-03T14:24:21.999Z</time></trkpt><trkpt lat="41.18279594168241" lon="9.365086797573937"><ele>63.4</ele><time>2026-05-03T14:24:22.999Z</time></trkpt><trkpt lat="41.18282645702087" lon="9.365215493100061"><ele>64.2</ele><time>2026-05-03T14:24:23.999Z</time></trkpt><trkpt lat="41.18285765542668" lon="9.365337005159338"><ele>65.0</ele><time>2026-05-03T14:24:24.999Z</time></trkpt><trkpt lat="41.18288476579297" lon="9.365446731601459"><ele>65.2</ele><time>2026-05-03T14:24:25.999Z</time></trkpt><trkpt lat="41.182914776595986" lon="9.365562725704786"><ele>65.4</ele><time>2026-05-03T14:24:26.999Z</time></trkpt><trkpt lat="41.182942465578606" lon="9.36568769603268"><ele>65.6</ele><time>2026-05-03T14:24:27.999Z</time></trkpt><trkpt lat="41.18297660789233" lon="9.365826229872095"><ele>65.8</ele><time>2026-05-03T14:24:28.999Z</time></trkpt><trkpt lat="41.183000119485584" lon="9.365959843612858"><ele>66.0</ele><time>2026-05-03T14:24:29.999Z</time></trkpt><trkpt lat="41.1829957344819" lon="9.366101928049895"><ele>66.0</ele><time>2026-05-03T14:24:30.999Z</time></trkpt><trkpt lat="41.183018974389995" lon="9.366227385451532"><ele>66.0</ele><time>2026-05-03T14:24:31.999Z</time></trkpt><trkpt lat="41.18302258917014" lon="9.366355337442338"><ele>66.0</ele><time>2026-05-03T14:24:32.999Z</time></trkpt><trkpt lat="41.18303046019746" lon="9.366480726041097"><ele>66.0</ele><time>2026-05-03T14:24:33.999Z</time></trkpt><trkpt lat="41.18304313426394" lon="9.366599765903837"><ele>66.0</ele><time>2026-05-03T14:24:34.999Z</time></trkpt><trkpt lat="41.183055010569674" lon="9.366714634233093"><ele>65.66666666666667</ele><time>2026-05-03T14:24:35.999Z</time></trkpt><trkpt lat="41.18306056892709" lon="9.366823781709053"><ele>65.33333333333333</ele><time>2026-05-03T14:24:36.999Z</time></trkpt><trkpt lat="41.183067362006504" lon="9.36693333159572"><ele>65.0</ele><time>2026-05-03T14:24:37.999Z</time></trkpt><trkpt lat="41.183062522448154" lon="9.367033792868362"><ele>64.66666666666666</ele><time>2026-05-03T14:24:38.999Z</time></trkpt><trkpt lat="41.18304127151531" lon="9.367114841121147"><ele>64.33333333333333</ele><time>2026-05-03T14:24:39.999Z</time></trkpt><trkpt lat="41.18298248463325" lon="9.36719156582647"><ele>64.0</ele><time>2026-05-03T14:24:40.999Z</time></trkpt><trkpt lat="41.182912168029844" lon="9.367242067607924"><ele>62.400000000000006</ele><time>2026-05-03T14:24:41.999Z</time></trkpt><trkpt lat="41.18280796958028" lon="9.367298542839748"><ele>60.800000000000004</ele><time>2026-05-03T14:24:42.999Z</time></trkpt><trkpt lat="41.18272068880718" lon="9.367345167237803"><ele>59.199999999999996</ele><time>2026-05-03T14:24:43.999Z</time></trkpt><trkpt lat="41.182657468736494" lon="9.36739815804543"><ele>57.599999999999994</ele><time>2026-05-03T14:24:44.999Z</time></trkpt><trkpt lat="41.18260308756425" lon="9.367495025008777"><ele>56.0</ele><time>2026-05-03T14:24:45.999Z</time></trkpt><trkpt lat="41.18258501925531" lon="9.367614952680134"><ele>56.0</ele><time>2026-05-03T14:24:46.999Z</time></trkpt><trkpt lat="41.18259410647374" lon="9.367705437396005"><ele>55.99999999999999</ele><time>2026-05-03T14:24:47.999Z</time></trkpt><trkpt lat="41.18260709397962" lon="9.367833748466001"><ele>55.99999999999999</ele><time>2026-05-03T14:24:50Z</time></trkpt><trkpt lat="41.182573105282664" lon="9.367913721128884"><ele>56.0</ele><time>2026-05-03T14:24:51Z</time></trkpt><trkpt lat="41.18251194101963" lon="9.368040329145314"><ele>56.0</ele><time>2026-05-03T14:24:52Z</time></trkpt><trkpt lat="41.18245618163865" lon="9.368162478309765"><ele>54.5</ele><time>2026-05-03T14:24:53Z</time></trkpt><trkpt lat="41.182396061940004" lon="9.368285557102325"><ele>53.0</ele><time>2026-05-03T14:24:54Z</time></trkpt><trkpt lat="41.182329104444015" lon="9.368416292438217"><ele>51.5</ele><time>2026-05-03T14:24:55Z</time></trkpt><trkpt lat="41.182261583739276" lon="9.368553397071905"><ele>50.0</ele><time>2026-05-03T14:24:56Z</time></trkpt><trkpt lat="41.18219506342848" lon="9.368689449364407"><ele>50.0</ele><time>2026-05-03T14:24:57Z</time></trkpt><trkpt lat="41.18212729026349" lon="9.368803056110115"><ele>50.0</ele><time>2026-05-03T14:24:58Z</time></trkpt><trkpt lat="41.18205178615661" lon="9.3688965932595"><ele>50.0</ele><time>2026-05-03T14:24:59Z</time></trkpt><trkpt lat="41.1819694719149" lon="9.368971423389961"><ele>50.0</ele><time>2026-05-03T14:25:00Z</time></trkpt><trkpt lat="41.181879935607164" lon="9.369027453232418"><ele>50.0</ele><time>2026-05-03T14:25:01Z</time></trkpt><trkpt lat="41.18178088093921" lon="9.369049941281597"><ele>47.25</ele><time>2026-05-03T14:25:02Z</time></trkpt><trkpt lat="41.18167816543676" lon="9.369006250200867"><ele>44.5</ele><time>2026-05-03T14:25:03Z</time></trkpt><trkpt lat="41.18156574393498" lon="9.368975157320715"><ele>41.75</ele><time>2026-05-03T14:25:04Z</time></trkpt><trkpt lat="41.181457439286106" lon="9.368924207784978"><ele>39.0</ele><time>2026-05-03T14:25:05Z</time></trkpt><trkpt lat="41.18134891674185" lon="9.368877536226577"><ele>39.6</ele><time>2026-05-03T14:25:06Z</time></trkpt><trkpt lat="41.18124066260247" lon="9.368826233839547"><ele>40.2</ele><time>2026-05-03T14:25:07Z</time></trkpt><trkpt lat="41.18113986574025" lon="9.36877817382612"><ele>40.800000000000004</ele><time>2026-05-03T14:25:08Z</time></trkpt><trkpt lat="41.181043739535504" lon="9.368737480643205"><ele>41.4</ele><time>2026-05-03T14:25:09Z</time></trkpt><trkpt lat="41.180950676607395" lon="9.368725614964704"><ele>42.0</ele><time>2026-05-03T14:25:10Z</time></trkpt><trkpt lat="41.180860906445844" lon="9.368779376308689"><ele>40.6</ele><time>2026-05-03T14:25:11Z</time></trkpt><trkpt lat="41.18080124153698" lon="9.368884107315482"><ele>39.2</ele><time>2026-05-03T14:25:12Z</time></trkpt><trkpt lat="41.180763785338534" lon="9.36901485324745"><ele>37.8</ele><time>2026-05-03T14:25:13Z</time></trkpt><trkpt lat="41.18074433907686" lon="9.36915731947532"><ele>36.4</ele><time>2026-05-03T14:25:14Z</time></trkpt><trkpt lat="41.18074063735875" lon="9.36929550615077"><ele>35.0</ele><time>2026-05-03T14:25:15Z</time></trkpt><trkpt lat="41.18074824601495" lon="9.369418126039408"><ele>35.0</ele><time>2026-05-03T14:25:16Z</time></trkpt><trkpt lat="41.18075228839864" lon="9.369528692398111"><ele>35.0</ele><time>2026-05-03T14:25:17Z</time></trkpt><trkpt lat="41.18072975643321" lon="9.369627358270716"><ele>35.0</ele><time>2026-05-03T14:25:18Z</time></trkpt><trkpt lat="41.18067087731942" lon="9.369687104016371"><ele>35.0</ele><time>2026-05-03T14:25:19Z</time></trkpt><trkpt lat="41.180600280767166" lon="9.369680762080133"><ele>35.0</ele><time>2026-05-03T14:25:20Z</time></trkpt><trkpt lat="41.180541662324615" lon="9.369621533370866"><ele>35.0</ele><time>2026-05-03T14:25:21Z</time></trkpt><trkpt lat="41.18050851875897" lon="9.369502012335248"><ele>34.4</ele><time>2026-05-03T14:25:22Z</time></trkpt><trkpt lat="41.18043920178254" lon="9.369405336531768"><ele>33.8</ele><time>2026-05-03T14:25:23Z</time></trkpt><trkpt lat="41.18035038721457" lon="9.369313599435499"><ele>33.2</ele><time>2026-05-03T14:25:24Z</time></trkpt><trkpt lat="41.180261651455204" lon="9.369214044361996"><ele>32.6</ele><time>2026-05-03T14:25:25Z</time></trkpt><trkpt lat="41.18016679021584" lon="9.369129339082479"><ele>32.0</ele><time>2026-05-03T14:25:26Z</time></trkpt><trkpt lat="41.18007677117441" lon="9.369062644886506"><ele>32.0</ele><time>2026-05-03T14:25:27Z</time></trkpt><trkpt lat="41.17998464255266" lon="9.36905129668604"><ele>32.0</ele><time>2026-05-03T14:25:28Z</time></trkpt><trkpt lat="41.179902866648625" lon="9.369102416761606"><ele>32.0</ele><time>2026-05-03T14:25:29Z</time></trkpt><trkpt lat="41.17987574920654" lon="9.369247035529153"><ele>32.0</ele><time>2026-05-03T14:25:30Z</time></trkpt><trkpt lat="41.179870982941125" lon="9.369380972871207"><ele>32.0</ele><time>2026-05-03T14:25:31Z</time></trkpt><trkpt lat="41.17986332653151" lon="9.369523629663739"><ele>31.0</ele><time>2026-05-03T14:25:32Z</time></trkpt><trkpt lat="41.17984244911854" lon="9.36967316220584"><ele>30.0</ele><time>2026-05-03T14:25:33Z</time></trkpt><trkpt lat="41.17979077091541" lon="9.369812255555178"><ele>29.0</ele><time>2026-05-03T14:25:34Z</time></trkpt><trkpt lat="41.17969306608041" lon="9.369913420108531"><ele>28.0</ele><time>2026-05-03T14:25:34.999Z</time></trkpt><trkpt lat="41.17959820801919" lon="9.370025611978853"><ele>26.25</ele><time>2026-05-03T14:25:35.999Z</time></trkpt><trkpt lat="41.17951060755842" lon="9.370152361898473"><ele>24.5</ele><time>2026-05-03T14:25:36.999Z</time></trkpt><trkpt lat="41.1794101172464" lon="9.37025722457679"><ele>22.75</ele><time>2026-05-03T14:25:37.999Z</time></trkpt><trkpt lat="41.17930912929148" lon="9.37035802629981"><ele>21.0</ele><time>2026-05-03T14:25:38.999Z</time></trkpt><trkpt lat="41.17921108712476" lon="9.370445988574039"><ele>21.0</ele><time>2026-05-03T14:25:39.999Z</time></trkpt><trkpt lat="41.17910596335003" lon="9.370508113624924"><ele>21.0</ele><time>2026-05-03T14:25:40.999Z</time></trkpt><trkpt lat="41.179003270650526" lon="9.370566761353107"><ele>21.0</ele><time>2026-05-03T14:25:41.999Z</time></trkpt><trkpt lat="41.1789274203624" lon="9.37061714185277"><ele>21.0</ele><time>2026-05-03T14:25:42.999Z</time></trkpt><trkpt lat="41.17881906208303" lon="9.370644245130912"><ele>21.0</ele><time>2026-05-03T14:25:43.999Z</time></trkpt><trkpt lat="41.178704055616485" lon="9.370647367592358"><ele>18.6</ele><time>2026-05-03T14:25:44.999Z</time></trkpt><trkpt lat="41.178586144139416" lon="9.370649619911628"><ele>16.200000000000003</ele><time>2026-05-03T14:25:45.999Z</time></trkpt><trkpt lat="41.178468826926625" lon="9.370642358838875"><ele>13.8</ele><time>2026-05-03T14:25:46.999Z</time></trkpt><trkpt lat="41.17835965200039" lon="9.37062978813777"><ele>11.4</ele><time>2026-05-03T14:25:47.999Z</time></trkpt><trkpt lat="41.17825885675362" lon="9.37060066676142"><ele>9.0</ele><time>2026-05-03T14:25:48.999Z</time></trkpt><trkpt lat="41.178172127906016" lon="9.370531607631053"><ele>8.833333333333334</ele><time>2026-05-03T14:25:49.999Z</time></trkpt><trkpt lat="41.1781046347062" lon="9.370436260862016"><ele>8.666666666666666</ele><time>2026-05-03T14:25:50.999Z</time></trkpt><trkpt lat="41.178039215893136" lon="9.370338218227637"><ele>8.5</ele><time>2026-05-03T14:25:51.999Z</time></trkpt><trkpt lat="41.17796944654509" lon="9.370268590758217"><ele>8.333333333333332</ele><time>2026-05-03T14:25:52.999Z</time></trkpt><trkpt lat="41.17789635629988" lon="9.370213329782475"><ele>8.166666666666666</ele><time>2026-05-03T14:25:53.999Z</time></trkpt><trkpt lat="41.177825019169084" lon="9.370169460111823"><ele>8.0</ele><time>2026-05-03T14:25:54.999Z</time></trkpt><trkpt lat="41.17776546498426" lon="9.370125058868124"><ele>7.999999999999999</ele><time>2026-05-03T14:25:55.999Z</time></trkpt><trkpt lat="41.17770696286718" lon="9.37006544422486"><ele>8.0</ele><time>2026-05-03T14:25:57.999Z</time></trkpt><trkpt lat="41.17765828980825" lon="9.369986046698093"><ele>8.0</ele><time>2026-05-03T14:26:03.999Z</time></trkpt><trkpt lat="41.177619539322976" lon="9.369904902707841"><ele>8.0</ele><time>2026-05-03T14:26:04.999Z</time></trkpt><trkpt lat="41.17756492426278" lon="9.369825469939414"><ele>7.999999999999999</ele><time>2026-05-03T14:26:05.999Z</time></trkpt><trkpt lat="41.17748626401871" lon="9.369787287114242"><ele>8.0</ele><time>2026-05-03T14:26:06.999Z</time></trkpt><trkpt lat="41.17740704614506" lon="9.369807987043558"><ele>8.0</ele><time>2026-05-03T14:26:07.999Z</time></trkpt><trkpt lat="41.17733388794296" lon="9.369851449973096"><ele>8.0</ele><time>2026-05-03T14:26:08.999Z</time></trkpt><trkpt lat="41.17728345390281" lon="9.369931021057123"><ele>8.0</ele><time>2026-05-03T14:26:09.999Z</time></trkpt><trkpt lat="41.177307020290996" lon="9.370084271616093"><ele>8.0</ele><time>2026-05-03T14:26:10.999Z</time></trkpt><trkpt lat="41.177338302056285" lon="9.370204125171176"><ele>8.0</ele><time>2026-05-03T14:26:11.999Z</time></trkpt><trkpt lat="41.17737602915025" lon="9.37033361231658"><ele>8.0</ele><time>2026-05-03T14:26:12.999Z</time></trkpt><trkpt lat="41.17738412087734" lon="9.37047898837016"><ele>8.0</ele><time>2026-05-03T14:26:13.999Z</time></trkpt><trkpt lat="41.1773574312829" lon="9.370633257790539"><ele>8.0</ele><time>2026-05-03T14:26:14.999Z</time></trkpt><trkpt lat="41.177290501417076" lon="9.37077662793224"><ele>8.0</ele><time>2026-05-03T14:26:15.999Z</time></trkpt><trkpt lat="41.17725340202179" lon="9.370960755107005"><ele>7.0</ele><time>2026-05-03T14:26:16.999Z</time></trkpt><trkpt lat="41.1772035597857" lon="9.371145946711712"><ele>6.0</ele><time>2026-05-03T14:26:17.999Z</time></trkpt><trkpt lat="41.17717681554306" lon="9.371345065993683"><ele>5.0</ele><time>2026-05-03T14:26:18.999Z</time></trkpt><trkpt lat="41.17718282620783" lon="9.371548498119077"><ele>5.0</ele><time>2026-05-03T14:26:19.999Z</time></trkpt><trkpt lat="41.17721663092307" lon="9.371743039904866"><ele>5.0</ele><time>2026-05-03T14:26:20.999Z</time></trkpt><trkpt lat="41.177285865272914" lon="9.371917506514668"><ele>5.0</ele><time>2026-05-03T14:26:21.999Z</time></trkpt><trkpt lat="41.17737745653093" lon="9.37208296503433"><ele>9.666666666666666</ele><time>2026-05-03T14:26:22.999Z</time></trkpt><trkpt lat="41.177501859458076" lon="9.372212207054199"><ele>14.333333333333332</ele><time>2026-05-03T14:26:23.999Z</time></trkpt><trkpt lat="41.177647018210635" lon="9.372300890832424"><ele>19.0</ele><time>2026-05-03T14:26:24.999Z</time></trkpt><trkpt lat="41.177805680538704" lon="9.372354261596936"><ele>19.0</ele><time>2026-05-03T14:26:25.999Z</time></trkpt><trkpt lat="41.17794148250136" lon="9.372406127133669"><ele>19.0</ele><time>2026-05-03T14:26:26.999Z</time></trkpt><trkpt lat="41.178057628892084" lon="9.372456364020053"><ele>19.0</ele><time>2026-05-03T14:26:27.999Z</time></trkpt><trkpt lat="41.17816547682354" lon="9.372509481421385"><ele>19.0</ele><time>2026-05-03T14:26:28.999Z</time></trkpt><trkpt lat="41.178270911946356" lon="9.372568076333685"><ele>17.2</ele><time>2026-05-03T14:26:29.999Z</time></trkpt><trkpt lat="41.178356455318" lon="9.372626211761313"><ele>15.399999999999999</ele><time>2026-05-03T14:26:30.999Z</time></trkpt><trkpt lat="41.178432892819906" lon="9.372684924266903"><ele>13.6</ele><time>2026-05-03T14:26:31.999Z</time></trkpt><trkpt lat="41.178512512123575" lon="9.3727477798687"><ele>11.8</ele><time>2026-05-03T14:26:32.999Z</time></trkpt><trkpt lat="41.17859377345733" lon="9.372813518255127"><ele>10.0</ele><time>2026-05-03T14:26:33.999Z</time></trkpt><trkpt lat="41.17866542093844" lon="9.372898189417993"><ele>10.0</ele><time>2026-05-03T14:26:34.999Z</time></trkpt><trkpt lat="41.178714916093874" lon="9.373004048178279"><ele>10.0</ele><time>2026-05-03T14:26:35.999Z</time></trkpt><trkpt lat="41.178742145793116" lon="9.373123707275381"><ele>10.0</ele><time>2026-05-03T14:26:36.999Z</time></trkpt><trkpt lat="41.1787435795187" lon="9.373255985626534"><ele>10.0</ele><time>2026-05-03T14:26:37.999Z</time></trkpt><trkpt lat="41.17873735422825" lon="9.373403467427385"><ele>10.0</ele><time>2026-05-03T14:26:38.999Z</time></trkpt><trkpt lat="41.178735040932374" lon="9.373560928124846"><ele>13.0</ele><time>2026-05-03T14:26:39.999Z</time></trkpt><trkpt lat="41.17874094067393" lon="9.373718430843308"><ele>16.0</ele><time>2026-05-03T14:26:40.999Z</time></trkpt><trkpt lat="41.17874999805433" lon="9.373885616367605"><ele>19.0</ele><time>2026-05-03T14:26:41.999Z</time></trkpt><trkpt lat="41.17875295729561" lon="9.374050680696797"><ele>22.0</ele><time>2026-05-03T14:26:42.999Z</time></trkpt><trkpt lat="41.17875091958114" lon="9.374217681411608"><ele>22.5</ele><time>2026-05-03T14:26:43.999Z</time></trkpt><trkpt lat="41.178746696901946" lon="9.374387100641599"><ele>23.0</ele><time>2026-05-03T14:26:44.999Z</time></trkpt><trkpt lat="41.1787343868689" lon="9.374556850867798"><ele>23.5</ele><time>2026-05-03T14:26:45.999Z</time></trkpt><trkpt lat="41.17872362806903" lon="9.374726197209078"><ele>24.0</ele><time>2026-05-03T14:26:46.999Z</time></trkpt><trkpt lat="41.1787114931112" lon="9.374892636021908"><ele>24.25</ele><time>2026-05-03T14:26:47.999Z</time></trkpt><trkpt lat="41.17869913386803" lon="9.375057474948914"><ele>24.5</ele><time>2026-05-03T14:26:48.999Z</time></trkpt><trkpt lat="41.17869077094739" lon="9.375218917544046"><ele>24.75</ele><time>2026-05-03T14:26:49.999Z</time></trkpt><trkpt lat="41.17869099160755" lon="9.375373122193754"><ele>25.0</ele><time>2026-05-03T14:26:50.999Z</time></trkpt><trkpt lat="41.17869164197555" lon="9.3755070657556"><ele>25.2</ele><time>2026-05-03T14:26:51.999Z</time></trkpt><trkpt lat="41.1786880357558" lon="9.375627626798213"><ele>25.4</ele><time>2026-05-03T14:26:52.999Z</time></trkpt><trkpt lat="41.17868397419191" lon="9.375738122360307"><ele>25.6</ele><time>2026-05-03T14:26:53.999Z</time></trkpt><trkpt lat="41.178682328687735" lon="9.375842062294828"><ele>25.8</ele><time>2026-05-03T14:26:55Z</time></trkpt><trkpt lat="41.178675536732136" lon="9.375941313559919"><ele>26.0</ele><time>2026-05-03T14:26:56Z</time></trkpt><trkpt lat="41.17880033942105" lon="9.376090870608206"><ele>26.0</ele><time>2026-05-03T14:26:58Z</time></trkpt><trkpt lat="41.178889294649224" lon="9.376123098099004"><ele>26.0</ele><time>2026-05-03T14:26:59Z</time></trkpt><trkpt lat="41.178984672143436" lon="9.376125675391554"><ele>26.0</ele><time>2026-05-03T14:27:00Z</time></trkpt><trkpt lat="41.179082486554705" lon="9.37609472342592"><ele>26.0</ele><time>2026-05-03T14:27:01Z</time></trkpt><trkpt lat="41.17919763689375" lon="9.376171748216192"><ele>26.0</ele><time>2026-05-03T14:27:02Z</time></trkpt><trkpt lat="41.17930117878411" lon="9.37623336908314"><ele>22.75</ele><time>2026-05-03T14:27:03Z</time></trkpt><trkpt lat="41.17940382477407" lon="9.376304224994039"><ele>19.5</ele><time>2026-05-03T14:27:04Z</time></trkpt><trkpt lat="41.17951194593222" lon="9.376377417415762"><ele>16.25</ele><time>2026-05-03T14:27:05Z</time></trkpt><trkpt lat="41.179621073426574" lon="9.376449197964453"><ele>13.0</ele><time>2026-05-03T14:27:06Z</time></trkpt><trkpt lat="41.17973190925349" lon="9.376524410760657"><ele>13.0</ele><time>2026-05-03T14:27:07Z</time></trkpt><trkpt lat="41.17984641953954" lon="9.376594859993304"><ele>13.0</ele><time>2026-05-03T14:27:08Z</time></trkpt><trkpt lat="41.17996490944009" lon="9.376647575522961"><ele>13.0</ele><time>2026-05-03T14:27:09Z</time></trkpt><trkpt lat="41.180090978557594" lon="9.37667231822363"><ele>13.0</ele><time>2026-05-03T14:27:10Z</time></trkpt><trkpt lat="41.180221107365895" lon="9.376666445293518"><ele>14.0</ele><time>2026-05-03T14:27:11Z</time></trkpt><trkpt lat="41.18035165388065" lon="9.376631558685142"><ele>15.0</ele><time>2026-05-03T14:27:12Z</time></trkpt><trkpt lat="41.180475547471254" lon="9.376579553752972"><ele>16.0</ele><time>2026-05-03T14:27:13Z</time></trkpt><trkpt lat="41.18059362991549" lon="9.376493736054954"><ele>17.0</ele><time>2026-05-03T14:27:14Z</time></trkpt><trkpt lat="41.18070347786012" lon="9.376411241974015"><ele>14.5</ele><time>2026-05-03T14:27:15Z</time></trkpt><trkpt lat="41.18080911106652" lon="9.376337066136502"><ele>12.0</ele><time>2026-05-03T14:27:16Z</time></trkpt><trkpt lat="41.18091755129801" lon="9.376280460788145"><ele>9.5</ele><time>2026-05-03T14:27:17Z</time></trkpt><trkpt lat="41.181022137059955" lon="9.376227533723862"><ele>7.0</ele><time>2026-05-03T14:27:18Z</time></trkpt><trkpt lat="41.181135279323094" lon="9.376184606011616"><ele>7.0</ele><time>2026-05-03T14:27:19Z</time></trkpt><trkpt lat="41.181258329030996" lon="9.37615451944471"><ele>7.0</ele><time>2026-05-03T14:27:20Z</time></trkpt><trkpt lat="41.18139286882616" lon="9.37614395037111"><ele>7.0</ele><time>2026-05-03T14:27:21Z</time></trkpt><trkpt lat="41.18153976385468" lon="9.376160352539072"><ele>7.0</ele><time>2026-05-03T14:27:22Z</time></trkpt><trkpt lat="41.1816857609822" lon="9.376190029583084"><ele>6.5</ele><time>2026-05-03T14:27:23Z</time></trkpt><trkpt lat="41.18182930996988" lon="9.376226695972278"><ele>6.0</ele><time>2026-05-03T14:27:24Z</time></trkpt><trkpt lat="41.181969156084946" lon="9.376261653643839"><ele>5.5</ele><time>2026-05-03T14:27:25Z</time></trkpt><trkpt lat="41.18210373402513" lon="9.376292070525752"><ele>5.0</ele><time>2026-05-03T14:27:26Z</time></trkpt><trkpt lat="41.18222549914154" lon="9.376323012917227"><ele>5.0</ele><time>2026-05-03T14:27:27Z</time></trkpt><trkpt lat="41.18234462413262" lon="9.376352022948975"><ele>5.0</ele><time>2026-05-03T14:27:28Z</time></trkpt><trkpt lat="41.18246098050838" lon="9.376380300158948"><ele>5.0</ele><time>2026-05-03T14:27:29Z</time></trkpt><trkpt lat="41.182572597604185" lon="9.376409194589408"><ele>5.0</ele><time>2026-05-03T14:27:30Z</time></trkpt><trkpt lat="41.18267977464655" lon="9.376436760366792"><ele>6.6</ele><time>2026-05-03T14:27:31Z</time></trkpt><trkpt lat="41.182781923671456" lon="9.376460789808243"><ele>8.2</ele><time>2026-05-03T14:27:32Z</time></trkpt><trkpt lat="41.182874939237024" lon="9.376481213123464"><ele>9.8</ele><time>2026-05-03T14:27:33Z</time></trkpt><trkpt lat="41.18296438013141" lon="9.376501788858539"><ele>11.4</ele><time>2026-05-03T14:27:34Z</time></trkpt><trkpt lat="41.18305825271073" lon="9.376528154979392"><ele>13.0</ele><time>2026-05-03T14:27:35Z</time></trkpt><trkpt lat="41.183158399530974" lon="9.376554828840385"><ele>13.0</ele><time>2026-05-03T14:27:36Z</time></trkpt><trkpt lat="41.18326313630798" lon="9.376578108771424"><ele>13.0</ele><time>2026-05-03T14:27:37Z</time></trkpt><trkpt lat="41.18336728489429" lon="9.376600826753783"><ele>13.0</ele><time>2026-05-03T14:27:38Z</time></trkpt><trkpt lat="41.18347052644156" lon="9.376627980925656"><ele>13.0</ele><time>2026-05-03T14:27:39Z</time></trkpt><trkpt lat="41.18357407851582" lon="9.376651829290012"><ele>13.0</ele><time>2026-05-03T14:27:40Z</time></trkpt><trkpt lat="41.18368324724368" lon="9.376671758627776"><ele>13.0</ele><time>2026-05-03T14:27:41Z</time></trkpt><trkpt lat="41.18379384381363" lon="9.37669330269858"><ele>13.0</ele><time>2026-05-03T14:27:42Z</time></trkpt><trkpt lat="41.18389911346636" lon="9.376744017251577"><ele>13.0</ele><time>2026-05-03T14:27:43Z</time></trkpt><trkpt lat="41.18400331381583" lon="9.37678797159606"><ele>13.0</ele><time>2026-05-03T14:27:44Z</time></trkpt><trkpt lat="41.184117380173184" lon="9.37685604088911"><ele>12.5</ele><time>2026-05-03T14:27:45Z</time></trkpt><trkpt lat="41.18420751485366" lon="9.376954652287287"><ele>12.0</ele><time>2026-05-03T14:27:46Z</time></trkpt><trkpt lat="41.18427239455785" lon="9.377083125927513"><ele>11.5</ele><time>2026-05-03T14:27:47Z</time></trkpt><trkpt lat="41.18435899464083" lon="9.377190256421922"><ele>11.0</ele><time>2026-05-03T14:27:48Z</time></trkpt><trkpt lat="41.18442570213374" lon="9.37731564122162"><ele>12.75</ele><time>2026-05-03T14:27:49Z</time></trkpt><trkpt lat="41.184488811312235" lon="9.377444645540514"><ele>14.5</ele><time>2026-05-03T14:27:49.999Z</time></trkpt><trkpt lat="41.18454806445954" lon="9.377574229417744"><ele>16.25</ele><time>2026-05-03T14:27:50.999Z</time></trkpt><trkpt lat="41.184595588256485" lon="9.377708286597558"><ele>18.0</ele><time>2026-05-03T14:27:51.999Z</time></trkpt><trkpt lat="41.18462485273514" lon="9.377850839410772"><ele>18.0</ele><time>2026-05-03T14:27:52.999Z</time></trkpt><trkpt lat="41.18463887632342" lon="9.37799944820822"><ele>18.0</ele><time>2026-05-03T14:27:53.999Z</time></trkpt><trkpt lat="41.18464858539416" lon="9.37814752622112"><ele>18.0</ele><time>2026-05-03T14:27:54.999Z</time></trkpt><trkpt lat="41.18465426279833" lon="9.378297082413772"><ele>18.0</ele><time>2026-05-03T14:27:55.999Z</time></trkpt><trkpt lat="41.18465809233964" lon="9.37844798849977"><ele>19.25</ele><time>2026-05-03T14:27:56.999Z</time></trkpt><trkpt lat="41.184657615274624" lon="9.378598623736186"><ele>20.5</ele><time>2026-05-03T14:27:57.999Z</time></trkpt><trkpt lat="41.184649238336334" lon="9.378751664781069"><ele>21.75</ele><time>2026-05-03T14:27:58.999Z</time></trkpt><trkpt lat="41.18461107761891" lon="9.378896949019179"><ele>23.0</ele><time>2026-05-03T14:27:59.999Z</time></trkpt><trkpt lat="41.18459151775659" lon="9.37904938462446"><ele>23.2</ele><time>2026-05-03T14:28:00.999Z</time></trkpt><trkpt lat="41.1845486256688" lon="9.379189928375155"><ele>23.4</ele><time>2026-05-03T14:28:01.999Z</time></trkpt><trkpt lat="41.18450527033617" lon="9.379317200194665"><ele>23.599999999999998</ele><time>2026-05-03T14:28:02.999Z</time></trkpt><trkpt lat="41.18446626239253" lon="9.379431877530502"><ele>23.799999999999997</ele><time>2026-05-03T14:28:03.999Z</time></trkpt><trkpt lat="41.18443240459" lon="9.379540028714311"><ele>24.0</ele><time>2026-05-03T14:28:04.999Z</time></trkpt><trkpt lat="41.18439922927902" lon="9.379643555558129"><ele>23.833333333333332</ele><time>2026-05-03T14:28:05.999Z</time></trkpt><trkpt lat="41.184366153773595" lon="9.37974963368554"><ele>23.666666666666668</ele><time>2026-05-03T14:28:06.999Z</time></trkpt><trkpt lat="41.18433260497616" lon="9.379850486592536"><ele>23.5</ele><time>2026-05-03T14:28:07.999Z</time></trkpt><trkpt lat="41.18429417623138" lon="9.379952164957936"><ele>23.333333333333336</ele><time>2026-05-03T14:28:08.999Z</time></trkpt><trkpt lat="41.18425255072287" lon="9.380049811124664"><ele>23.166666666666668</ele><time>2026-05-03T14:28:09.999Z</time></trkpt><trkpt lat="41.18420129262262" lon="9.380154468575917"><ele>23.0</ele><time>2026-05-03T14:28:10.999Z</time></trkpt><trkpt lat="41.184141756054615" lon="9.38026858597503"><ele>23.0</ele><time>2026-05-03T14:28:11.999Z</time></trkpt><trkpt lat="41.18408372169004" lon="9.380384483998384"><ele>23.0</ele><time>2026-05-03T14:28:12.999Z</time></trkpt><trkpt lat="41.184024408558734" lon="9.38048475111343"><ele>23.0</ele><time>2026-05-03T14:28:13.999Z</time></trkpt><trkpt lat="41.183970362181775" lon="9.380572083133472"><ele>23.0</ele><time>2026-05-03T14:28:14.999Z</time></trkpt><trkpt lat="41.18390150754069" lon="9.380651481950228"><ele>23.0</ele><time>2026-05-03T14:28:15.999Z</time></trkpt><trkpt lat="41.18381833303989" lon="9.380724590831807"><ele>22.799999999999997</ele><time>2026-05-03T14:28:16.999Z</time></trkpt><trkpt lat="41.18373296393432" lon="9.380792260464803"><ele>22.6</ele><time>2026-05-03T14:28:17.999Z</time></trkpt><trkpt lat="41.18363727944442" lon="9.38084116409148"><ele>22.4</ele><time>2026-05-03T14:28:18.999Z</time></trkpt><trkpt lat="41.1835356554613" lon="9.380878681220887"><ele>22.200000000000003</ele><time>2026-05-03T14:28:19.999Z</time></trkpt><trkpt lat="41.183427734601096" lon="9.380907722756676"><ele>22.0</ele><time>2026-05-03T14:28:20.999Z</time></trkpt><trkpt lat="41.18331424693307" lon="9.380929691265433"><ele>22.0</ele><time>2026-05-03T14:28:21.999Z</time></trkpt><trkpt lat="41.18319407976309" lon="9.380942007538012"><ele>22.0</ele><time>2026-05-03T14:28:22.999Z</time></trkpt><trkpt lat="41.18307075662031" lon="9.380952284704023"><ele>22.0</ele><time>2026-05-03T14:28:23.999Z</time></trkpt><trkpt lat="41.18295240186893" lon="9.380967286502397"><ele>22.0</ele><time>2026-05-03T14:28:24.999Z</time></trkpt><trkpt lat="41.182843742152926" lon="9.380989594548174"><ele>21.6</ele><time>2026-05-03T14:28:25.999Z</time></trkpt><trkpt lat="41.18273462989151" lon="9.381005775779"><ele>21.200000000000003</ele><time>2026-05-03T14:28:26.999Z</time></trkpt><trkpt lat="41.18262174529861" lon="9.381020746206"><ele>20.8</ele><time>2026-05-03T14:28:27.999Z</time></trkpt><trkpt lat="41.182522699198564" lon="9.38104587362759"><ele>20.4</ele><time>2026-05-03T14:28:28.999Z</time></trkpt><trkpt lat="41.182426877406336" lon="9.381048631062807"><ele>20.0</ele><time>2026-05-03T14:28:29.999Z</time></trkpt><trkpt lat="41.182335076262646" lon="9.381066338360423"><ele>19.0</ele><time>2026-05-03T14:28:30.999Z</time></trkpt><trkpt lat="41.18224407600554" lon="9.381089530552726"><ele>18.0</ele><time>2026-05-03T14:28:31.999Z</time></trkpt><trkpt lat="41.182157062774024" lon="9.381115014610812"><ele>17.0</ele><time>2026-05-03T14:28:32.999Z</time></trkpt><trkpt lat="41.18207437195132" lon="9.381161795462052"><ele>16.0</ele><time>2026-05-03T14:28:33.999Z</time></trkpt><trkpt lat="41.1819946444507" lon="9.381188081633312"><ele>15.000000000000002</ele><time>2026-05-03T14:28:34.999Z</time></trkpt><trkpt lat="41.18191808762909" lon="9.381192256867193"><ele>14.0</ele><time>2026-05-03T14:28:35.999Z</time></trkpt><trkpt lat="41.18185688188845" lon="9.381213450070621"><ele>14.0</ele><time>2026-05-03T14:28:36.999Z</time></trkpt><trkpt lat="41.181781392958484" lon="9.381239248639668"><ele>13.999999999999998</ele><time>2026-05-03T14:28:38.999Z</time></trkpt><trkpt lat="41.18172287217937" lon="9.381426367103183"><ele>13.999999999999998</ele><time>2026-05-03T14:28:41.999Z</time></trkpt><trkpt lat="41.181725241437626" lon="9.381548739118628"><ele>14.0</ele><time>2026-05-03T14:28:43.999Z</time></trkpt><trkpt lat="41.18172891443651" lon="9.381658583797499"><ele>14.0</ele><time>2026-05-03T14:28:45.999Z</time></trkpt><trkpt lat="41.18171836542431" lon="9.381777356673362"><ele>13.666666666666668</ele><time>2026-05-03T14:28:48.999Z</time></trkpt><trkpt lat="41.18161775802543" lon="9.381793044063551"><ele>13.333333333333334</ele><time>2026-05-03T14:28:50.999Z</time></trkpt><trkpt lat="41.1815078489761" lon="9.38175376710999"><ele>13.0</ele><time>2026-05-03T14:28:52.999Z</time></trkpt><trkpt lat="41.18144377692673" lon="9.38172411165191"><ele>12.666666666666668</ele><time>2026-05-03T14:28:53.999Z</time></trkpt><trkpt lat="41.18138069059289" lon="9.381694530402738"><ele>12.333333333333334</ele><time>2026-05-03T14:28:54.999Z</time></trkpt><trkpt lat="41.18131531843006" lon="9.381673714000453"><ele>12.0</ele><time>2026-05-03T14:28:55.999Z</time></trkpt><trkpt lat="41.18124155793109" lon="9.381642117007718"><ele>11.428571428571427</ele><time>2026-05-03T14:28:56.999Z</time></trkpt><trkpt lat="41.18116945177408" lon="9.38160912863105"><ele>10.857142857142858</ele><time>2026-05-03T14:28:57.999Z</time></trkpt><trkpt lat="41.18109937116657" lon="9.381582900316396"><ele>10.285714285714285</ele><time>2026-05-03T14:28:58.999Z</time></trkpt><trkpt lat="41.18102893070212" lon="9.381557974275255"><ele>9.714285714285714</ele><time>2026-05-03T14:28:59.999Z</time></trkpt><trkpt lat="41.18096299046361" lon="9.38152468322924"><ele>9.142857142857142</ele><time>2026-05-03T14:29:01Z</time></trkpt><trkpt lat="41.18089891572238" lon="9.38149087528525"><ele>8.571428571428571</ele><time>2026-05-03T14:29:02Z</time></trkpt><trkpt lat="41.1808321866699" lon="9.381459185945928"><ele>8.0</ele><time>2026-05-03T14:29:03Z</time></trkpt><trkpt lat="41.180767902924956" lon="9.381431586214553"><ele>8.0</ele><time>2026-05-03T14:29:04Z</time></trkpt><trkpt lat="41.18070247627368" lon="9.381405823072564"><ele>7.999999999999999</ele><time>2026-05-03T14:29:05Z</time></trkpt><trkpt lat="41.18063411078287" lon="9.38137848645346"><ele>8.0</ele><time>2026-05-03T14:29:06Z</time></trkpt><trkpt lat="41.180565122698994" lon="9.381350632895746"><ele>8.0</ele><time>2026-05-03T14:29:07Z</time></trkpt><trkpt lat="41.180496330429285" lon="9.381321456047052"><ele>7.999999999999999</ele><time>2026-05-03T14:29:08Z</time></trkpt><trkpt lat="41.18042664927028" lon="9.381294433681507"><ele>8.0</ele><time>2026-05-03T14:29:09Z</time></trkpt><trkpt lat="41.18034989085631" lon="9.38126440021054"><ele>8.0</ele><time>2026-05-03T14:29:10Z</time></trkpt><trkpt lat="41.18027080563218" lon="9.381231802983333"><ele>9.0</ele><time>2026-05-03T14:29:11Z</time></trkpt><trkpt lat="41.18018173502517" lon="9.381193232605229"><ele>10.0</ele><time>2026-05-03T14:29:12Z</time></trkpt><trkpt lat="41.18008250562824" lon="9.381159001084468"><ele>11.0</ele><time>2026-05-03T14:29:13Z</time></trkpt><trkpt lat="41.17998009829538" lon="9.381115928609722"><ele>12.0</ele><time>2026-05-03T14:29:14Z</time></trkpt><trkpt lat="41.17988315454324" lon="9.381078197908609"><ele>13.0</ele><time>2026-05-03T14:29:15Z</time></trkpt><trkpt lat="41.1797952129555" lon="9.381043600495778"><ele>13.166666666666666</ele><time>2026-05-03T14:29:16Z</time></trkpt><trkpt lat="41.179730053239375" lon="9.38101795357753"><ele>13.333333333333332</ele><time>2026-05-03T14:29:17Z</time></trkpt><trkpt lat="41.17965618117635" lon="9.380990634888587"><ele>13.5</ele><time>2026-05-03T14:29:19Z</time></trkpt><trkpt lat="41.179561049697426" lon="9.380948435551154"><ele>13.666666666666668</ele><time>2026-05-03T14:29:23Z</time></trkpt><trkpt lat="41.179493905333175" lon="9.380921652191189"><ele>13.833333333333334</ele><time>2026-05-03T14:29:24Z</time></trkpt><trkpt lat="41.179408573057806" lon="9.3808906621051"><ele>14.0</ele><time>2026-05-03T14:29:25Z</time></trkpt><trkpt lat="41.17931434818499" lon="9.380863541368756"><ele>14.000000000000002</ele><time>2026-05-03T14:29:26Z</time></trkpt><trkpt lat="41.17923127961731" lon="9.380837015153746"><ele>14.0</ele><time>2026-05-03T14:29:27Z</time></trkpt><trkpt lat="41.17914885996261" lon="9.380811402689291"><ele>14.0</ele><time>2026-05-03T14:29:28Z</time></trkpt><trkpt lat="41.179082718824134" lon="9.380803617918078"><ele>14.0</ele><time>2026-05-03T14:29:29Z</time></trkpt><trkpt lat="41.178999398182405" lon="9.380824465537868"><ele>14.000000000000002</ele><time>2026-05-03T14:29:31Z</time></trkpt><trkpt lat="41.17892703599539" lon="9.380907299282242"><ele>14.0</ele><time>2026-05-03T14:29:35Z</time></trkpt><trkpt lat="41.178969667965426" lon="9.381043911501838"><ele>14.0</ele><time>2026-05-03T14:29:36Z</time></trkpt><trkpt lat="41.17902374338574" lon="9.381138949572026"><ele>13.999999999999998</ele><time>2026-05-03T14:29:37Z</time></trkpt><trkpt lat="41.179083212586164" lon="9.381250750065906"><ele>13.999999999999998</ele><time>2026-05-03T14:29:39Z</time></trkpt><trkpt lat="41.179056361978276" lon="9.38133393397928"><ele>14.0</ele><time>2026-05-03T14:29:40Z</time></trkpt><trkpt lat="41.17899755261918" lon="9.381395778025901"><ele>14.0</ele><time>2026-05-03T14:29:42Z</time></trkpt><trkpt lat="41.1788909078659" lon="9.381464998475431"><ele>13.666666666666668</ele><time>2026-05-03T14:29:44Z</time></trkpt><trkpt lat="41.17881811351339" lon="9.38151529603663"><ele>13.333333333333334</ele><time>2026-05-03T14:29:45Z</time></trkpt><trkpt lat="41.17874018197661" lon="9.381565684984375"><ele>13.0</ele><time>2026-05-03T14:29:46Z</time></trkpt><trkpt lat="41.178663351637056" lon="9.381615053328224"><ele>12.666666666666668</ele><time>2026-05-03T14:29:47Z</time></trkpt><trkpt lat="41.17859462498451" lon="9.381665576862575"><ele>12.333333333333334</ele><time>2026-05-03T14:29:48Z</time></trkpt><trkpt lat="41.17852977867637" lon="9.381713842076156"><ele>12.0</ele><time>2026-05-03T14:29:49Z</time></trkpt><trkpt lat="41.178469759420565" lon="9.381756777276637"><ele>12.0</ele><time>2026-05-03T14:29:50Z</time></trkpt><trkpt lat="41.1783724975816" lon="9.381828388365534"><ele>12.0</ele><time>2026-05-03T14:29:52Z</time></trkpt><trkpt lat="41.17834651178396" lon="9.381914726340147"><ele>12.0</ele><time>2026-05-03T14:29:54.999Z</time></trkpt><trkpt lat="41.178331118800465" lon="9.382029334525004"><ele>12.0</ele><time>2026-05-03T14:29:56.999Z</time></trkpt><trkpt lat="41.17833789481414" lon="9.382164589323695"><ele>12.0</ele><time>2026-05-03T14:29:58.999Z</time></trkpt><trkpt lat="41.17823720077834" lon="9.382210350006797"><ele>11.4</ele><time>2026-05-03T14:30:01.999Z</time></trkpt><trkpt lat="41.178172195054884" lon="9.382208579795241"><ele>10.799999999999999</ele><time>2026-05-03T14:30:02.999Z</time></trkpt><trkpt lat="41.178093074887556" lon="9.382202886488987"><ele>10.2</ele><time>2026-05-03T14:30:03.999Z</time></trkpt><trkpt lat="41.17799482776992" lon="9.382203650563916"><ele>9.6</ele><time>2026-05-03T14:30:04.999Z</time></trkpt><trkpt lat="41.17788741925872" lon="9.38222145771929"><ele>9.0</ele><time>2026-05-03T14:30:05.999Z</time></trkpt><trkpt lat="41.17777540399059" lon="9.38224379429479"><ele>9.0</ele><time>2026-05-03T14:30:06.999Z</time></trkpt><trkpt lat="41.17766560104511" lon="9.382263558663174"><ele>9.0</ele><time>2026-05-03T14:30:07.999Z</time></trkpt><trkpt lat="41.17756949024906" lon="9.38228605079697"><ele>9.0</ele><time>2026-05-03T14:30:08.999Z</time></trkpt><trkpt lat="41.17749399925944" lon="9.382210981108466"><ele>9.0</ele><time>2026-05-03T14:30:09.999Z</time></trkpt><trkpt lat="41.177422899133624" lon="9.382180257396428"><ele>9.0</ele><time>2026-05-03T14:30:10.999Z</time></trkpt><trkpt lat="41.177360679668105" lon="9.382213657042925"><ele>9.0</ele><time>2026-05-03T14:30:11.999Z</time></trkpt><trkpt lat="41.177315292459454" lon="9.38227964368579"><ele>12.600000000000001</ele><time>2026-05-03T14:30:12.999Z</time></trkpt><trkpt lat="41.17729875524846" lon="9.382383475865486"><ele>16.200000000000003</ele><time>2026-05-03T14:30:13.999Z</time></trkpt><trkpt lat="41.177289028509364" lon="9.38250668768057"><ele>19.800000000000004</ele><time>2026-05-03T14:30:14.999Z</time></trkpt><trkpt lat="41.17726410235094" lon="9.382640720475479"><ele>23.400000000000002</ele><time>2026-05-03T14:30:15.999Z</time></trkpt><trkpt lat="41.1772155968652" lon="9.382778262661217"><ele>27.0</ele><time>2026-05-03T14:30:16.999Z</time></trkpt><trkpt lat="41.17716200078176" lon="9.382920782929611"><ele>25.5</ele><time>2026-05-03T14:30:17.999Z</time></trkpt><trkpt lat="41.177114745765415" lon="9.383062314800608"><ele>24.0</ele><time>2026-05-03T14:30:18.999Z</time></trkpt><trkpt lat="41.17707286226294" lon="9.38320455393357"><ele>22.5</ele><time>2026-05-03T14:30:19.999Z</time></trkpt><trkpt lat="41.17703330931863" lon="9.38334786391469"><ele>21.0</ele><time>2026-05-03T14:30:20.999Z</time></trkpt><trkpt lat="41.1769943045516" lon="9.383487097799414"><ele>21.0</ele><time>2026-05-03T14:30:21.999Z</time></trkpt><trkpt lat="41.176956086043496" lon="9.383620086928772"><ele>21.0</ele><time>2026-05-03T14:30:22.999Z</time></trkpt><trkpt lat="41.17692366324459" lon="9.38373641820848"><ele>21.0</ele><time>2026-05-03T14:30:23.999Z</time></trkpt><trkpt lat="41.176896599639115" lon="9.383840440942317"><ele>21.0</ele><time>2026-05-03T14:30:24.999Z</time></trkpt><trkpt lat="41.17687127442065" lon="9.383942108891327"><ele>21.0</ele><time>2026-05-03T14:30:25.999Z</time></trkpt><trkpt lat="41.176847042608415" lon="9.38404471142395"><ele>21.0</ele><time>2026-05-03T14:30:26.999Z</time></trkpt><trkpt lat="41.176821450450305" lon="9.384142867915099"><ele>20.0</ele><time>2026-05-03T14:30:27.999Z</time></trkpt><trkpt lat="41.17679413762162" lon="9.384244141557105"><ele>19.0</ele><time>2026-05-03T14:30:28.999Z</time></trkpt><trkpt lat="41.17676864759954" lon="9.384348113912592"><ele>18.0</ele><time>2026-05-03T14:30:29.999Z</time></trkpt><trkpt lat="41.17671984129603" lon="9.384450128834034"><ele>17.0</ele><time>2026-05-03T14:30:30.999Z</time></trkpt><trkpt lat="41.17669758603393" lon="9.384578582574022"><ele>16.0</ele><time>2026-05-03T14:30:31.999Z</time></trkpt><trkpt lat="41.176652704362716" lon="9.384708754368685"><ele>15.75</ele><time>2026-05-03T14:30:32.999Z</time></trkpt><trkpt lat="41.176615043784075" lon="9.38484654215409"><ele>15.5</ele><time>2026-05-03T14:30:33.999Z</time></trkpt><trkpt lat="41.17657507700688" lon="9.384986989018895"><ele>15.25</ele><time>2026-05-03T14:30:34.999Z</time></trkpt><trkpt lat="41.176533369220365" lon="9.385133701210442"><ele>15.0</ele><time>2026-05-03T14:30:35.999Z</time></trkpt><trkpt lat="41.176490550573526" lon="9.385287195156739"><ele>18.75</ele><time>2026-05-03T14:30:36.999Z</time></trkpt><trkpt lat="41.176445187495226" lon="9.385445122354158"><ele>22.5</ele><time>2026-05-03T14:30:37.999Z</time></trkpt><trkpt lat="41.17640155027902" lon="9.385608743211268"><ele>26.25</ele><time>2026-05-03T14:30:38.999Z</time></trkpt><trkpt lat="41.17636102801789" lon="9.385764174999494"><ele>30.0</ele><time>2026-05-03T14:30:39.999Z</time></trkpt><trkpt lat="41.17632567963201" lon="9.385900354758714"><ele>30.0</ele><time>2026-05-03T14:30:40.999Z</time></trkpt><trkpt lat="41.17629346744373" lon="9.38603059685173"><ele>30.0</ele><time>2026-05-03T14:30:41.999Z</time></trkpt><trkpt lat="41.1762390778777" lon="9.386159626421954"><ele>30.0</ele><time>2026-05-03T14:30:42.999Z</time></trkpt><trkpt lat="41.17620686229142" lon="9.38632636608047"><ele>30.0</ele><time>2026-05-03T14:30:43.999Z</time></trkpt><trkpt lat="41.17615511864383" lon="9.386490126281213"><ele>28.25</ele><time>2026-05-03T14:30:44.999Z</time></trkpt><trkpt lat="41.17610403447578" lon="9.386665635861052"><ele>26.5</ele><time>2026-05-03T14:30:45.999Z</time></trkpt><trkpt lat="41.17605367737843" lon="9.386848931700754"><ele>24.75</ele><time>2026-05-03T14:30:46.999Z</time></trkpt><trkpt lat="41.176008969422824" lon="9.387037630711639"><ele>23.0</ele><time>2026-05-03T14:30:47.999Z</time></trkpt><trkpt lat="41.17596403280577" lon="9.387226283752742"><ele>21.75</ele><time>2026-05-03T14:30:48.999Z</time></trkpt><trkpt lat="41.17591758796506" lon="9.387416060640156"><ele>20.5</ele><time>2026-05-03T14:30:49.999Z</time></trkpt><trkpt lat="41.17586984242019" lon="9.387604126840651"><ele>19.25</ele><time>2026-05-03T14:30:50.999Z</time></trkpt><trkpt lat="41.175820611025486" lon="9.387789596415416"><ele>18.0</ele><time>2026-05-03T14:30:51.999Z</time></trkpt><trkpt lat="41.175770705312864" lon="9.38797273949398"><ele>17.75</ele><time>2026-05-03T14:30:52.999Z</time></trkpt><trkpt lat="41.17572293796812" lon="9.388153987588215"><ele>17.5</ele><time>2026-05-03T14:30:53.999Z</time></trkpt><trkpt lat="41.17567735780024" lon="9.388330884476085"><ele>17.25</ele><time>2026-05-03T14:30:54.999Z</time></trkpt><trkpt lat="41.17563912853503" lon="9.388500740381215"><ele>17.0</ele><time>2026-05-03T14:30:55.999Z</time></trkpt><trkpt lat="41.17561320764344" lon="9.38867593009532"><ele>17.0</ele><time>2026-05-03T14:30:56.999Z</time></trkpt><trkpt lat="41.17561806191367" lon="9.38885100470512"><ele>17.0</ele><time>2026-05-03T14:30:57.999Z</time></trkpt><trkpt lat="41.17563769189549" lon="9.389034013087537"><ele>17.0</ele><time>2026-05-03T14:30:58.999Z</time></trkpt><trkpt lat="41.175674054801185" lon="9.389217556615252"><ele>17.0</ele><time>2026-05-03T14:30:59.999Z</time></trkpt><trkpt lat="41.175729945631986" lon="9.389398599725405"><ele>17.0</ele><time>2026-05-03T14:31:00.999Z</time></trkpt><trkpt lat="41.17581054657185" lon="9.389569225903957"><ele>17.0</ele><time>2026-05-03T14:31:01.999Z</time></trkpt><trkpt lat="41.17591600477253" lon="9.389721118575366"><ele>17.0</ele><time>2026-05-03T14:31:02.999Z</time></trkpt><trkpt lat="41.17604190786423" lon="9.389846324677178"><ele>19.666666666666668</ele><time>2026-05-03T14:31:03.999Z</time></trkpt><trkpt lat="41.176178529874164" lon="9.389965033948279"><ele>22.333333333333336</ele><time>2026-05-03T14:31:04.999Z</time></trkpt><trkpt lat="41.17631343309836" lon="9.390071861509997"><ele>25.0</ele><time>2026-05-03T14:31:05.999Z</time></trkpt><trkpt lat="41.1764423593101" lon="9.39017718578754"><ele>23.75</ele><time>2026-05-03T14:31:07Z</time></trkpt><trkpt lat="41.176556155226876" lon="9.390294818882476"><ele>22.5</ele><time>2026-05-03T14:31:08Z</time></trkpt><trkpt lat="41.176670798700464" lon="9.39037577399767"><ele>21.25</ele><time>2026-05-03T14:31:09Z</time></trkpt><trkpt lat="41.176746643724066" lon="9.390486452285455"><ele>20.0</ele><time>2026-05-03T14:31:10Z</time></trkpt><trkpt lat="41.176778216134664" lon="9.390603252602714"><ele>20.0</ele><time>2026-05-03T14:31:11Z</time></trkpt><trkpt lat="41.17676398356936" lon="9.390714426860253"><ele>20.0</ele><time>2026-05-03T14:31:12Z</time></trkpt><trkpt lat="41.17669471476236" lon="9.390801604284581"><ele>20.0</ele><time>2026-05-03T14:31:13Z</time></trkpt><trkpt lat="41.17660697615838" lon="9.390856437376122"><ele>20.0</ele><time>2026-05-03T14:31:14Z</time></trkpt><trkpt lat="41.17650003058023" lon="9.390822510651484"><ele>20.0</ele><time>2026-05-03T14:31:15Z</time></trkpt><trkpt lat="41.176385825108085" lon="9.390809461605064"><ele>20.75</ele><time>2026-05-03T14:31:16Z</time></trkpt><trkpt lat="41.176256900937815" lon="9.390826036292635"><ele>21.5</ele><time>2026-05-03T14:31:17Z</time></trkpt><trkpt lat="41.17612637130587" lon="9.390834835349606"><ele>22.25</ele><time>2026-05-03T14:31:18Z</time></trkpt><trkpt lat="41.175987964820976" lon="9.39086900864663"><ele>23.0</ele><time>2026-05-03T14:31:19Z</time></trkpt><trkpt lat="41.17584729154902" lon="9.39093119001223"><ele>23.0</ele><time>2026-05-03T14:31:20Z</time></trkpt><trkpt lat="41.17571482334269" lon="9.391020657536638"><ele>23.0</ele><time>2026-05-03T14:31:21Z</time></trkpt><trkpt lat="41.17559514695263" lon="9.391134832967282"><ele>23.0</ele><time>2026-05-03T14:31:22Z</time></trkpt><trkpt lat="41.17549034890695" lon="9.391270629566256"><ele>23.0</ele><time>2026-05-03T14:31:23Z</time></trkpt><trkpt lat="41.17539474925586" lon="9.391422721588025"><ele>24.333333333333336</ele><time>2026-05-03T14:31:24Z</time></trkpt><trkpt lat="41.17530500141141" lon="9.391579800078457"><ele>25.666666666666668</ele><time>2026-05-03T14:31:25Z</time></trkpt><trkpt lat="41.175214439025204" lon="9.391739218345148"><ele>27.0</ele><time>2026-05-03T14:31:26Z</time></trkpt><trkpt lat="41.17510937302093" lon="9.391884016925456"><ele>27.0</ele><time>2026-05-03T14:31:27Z</time></trkpt><trkpt lat="41.175016310868905" lon="9.392043320074594"><ele>27.0</ele><time>2026-05-03T14:31:28Z</time></trkpt><trkpt lat="41.17493421329769" lon="9.392212181534257"><ele>27.0</ele><time>2026-05-03T14:31:29Z</time></trkpt><trkpt lat="41.174843200227755" lon="9.392373041923499"><ele>29.0</ele><time>2026-05-03T14:31:30Z</time></trkpt><trkpt lat="41.17476732844501" lon="9.392545923312326"><ele>31.0</ele><time>2026-05-03T14:31:31Z</time></trkpt><trkpt lat="41.174712534725536" lon="9.392732176064595"><ele>33.0</ele><time>2026-05-03T14:31:32Z</time></trkpt><trkpt lat="41.17468018472357" lon="9.392926766950653"><ele>32.75</ele><time>2026-05-03T14:31:33Z</time></trkpt><trkpt lat="41.174664089674145" lon="9.393124784895582"><ele>32.5</ele><time>2026-05-03T14:31:34Z</time></trkpt><trkpt lat="41.17465938030867" lon="9.393321075784764"><ele>32.25</ele><time>2026-05-03T14:31:35Z</time></trkpt><trkpt lat="41.17467133703086" lon="9.393509280184018"><ele>32.0</ele><time>2026-05-03T14:31:36Z</time></trkpt><trkpt lat="41.174699307645476" lon="9.393694822122733"><ele>30.5</ele><time>2026-05-03T14:31:37Z</time></trkpt><trkpt lat="41.17474038368507" lon="9.393875074111374"><ele>29.0</ele><time>2026-05-03T14:31:38Z</time></trkpt><trkpt lat="41.17479161933325" lon="9.394050994139581"><ele>27.5</ele><time>2026-05-03T14:31:39Z</time></trkpt><trkpt lat="41.17484351294655" lon="9.39422471420775"><ele>26.0</ele><time>2026-05-03T14:31:40Z</time></trkpt><trkpt lat="41.17489374223628" lon="9.394395665689704"><ele>26.0</ele><time>2026-05-03T14:31:41Z</time></trkpt><trkpt lat="41.17494106092093" lon="9.394562996354555"><ele>26.0</ele><time>2026-05-03T14:31:42Z</time></trkpt><trkpt lat="41.1749847571637" lon="9.394727407621327"><ele>26.0</ele><time>2026-05-03T14:31:43Z</time></trkpt><trkpt lat="41.1750255845" lon="9.394885175657059"><ele>26.0</ele><time>2026-05-03T14:31:44Z</time></trkpt><trkpt lat="41.175065746647824" lon="9.395038712706125"><ele>26.0</ele><time>2026-05-03T14:31:45Z</time></trkpt><trkpt lat="41.17510807438666" lon="9.395194783058189"><ele>26.0</ele><time>2026-05-03T14:31:46Z</time></trkpt><trkpt lat="41.17515166446614" lon="9.395352463878318"><ele>26.0</ele><time>2026-05-03T14:31:47Z</time></trkpt><trkpt lat="41.17519781109402" lon="9.39551111960853"><ele>26.0</ele><time>2026-05-03T14:31:48Z</time></trkpt><trkpt lat="41.175243900023474" lon="9.395670768652701"><ele>25.75</ele><time>2026-05-03T14:31:49Z</time></trkpt><trkpt lat="41.175288827959506" lon="9.395829946240728"><ele>25.5</ele><time>2026-05-03T14:31:50Z</time></trkpt><trkpt lat="41.17533259581905" lon="9.395988938053566"><ele>25.25</ele><time>2026-05-03T14:31:51Z</time></trkpt><trkpt lat="41.175374757683244" lon="9.396143742529764"><ele>25.0</ele><time>2026-05-03T14:31:52Z</time></trkpt><trkpt lat="41.175415512731966" lon="9.396302801843545"><ele>25.25</ele><time>2026-05-03T14:31:53Z</time></trkpt><trkpt lat="41.175455154722066" lon="9.396460923512644"><ele>25.5</ele><time>2026-05-03T14:31:54Z</time></trkpt><trkpt lat="41.17550464118477" lon="9.396617798002092"><ele>25.75</ele><time>2026-05-03T14:31:55Z</time></trkpt><trkpt lat="41.17554723708806" lon="9.396777167568107"><ele>26.0</ele><time>2026-05-03T14:31:56Z</time></trkpt><trkpt lat="41.17559303730409" lon="9.396936360201991"><ele>26.0</ele><time>2026-05-03T14:31:57Z</time></trkpt><trkpt lat="41.17563533048179" lon="9.397096916396476"><ele>26.0</ele><time>2026-05-03T14:31:58Z</time></trkpt><trkpt lat="41.17567737065622" lon="9.39725801950556"><ele>26.0</ele><time>2026-05-03T14:31:59Z</time></trkpt><trkpt lat="41.175715356044" lon="9.397422035510516"><ele>26.0</ele><time>2026-05-03T14:31:59.999Z</time></trkpt><trkpt lat="41.17574247758529" lon="9.397587948453788"><ele>23.75</ele><time>2026-05-03T14:32:00.999Z</time></trkpt><trkpt lat="41.17575888460925" lon="9.397757323432762"><ele>21.5</ele><time>2026-05-03T14:32:01.999Z</time></trkpt><trkpt lat="41.17575680741285" lon="9.39792574485307"><ele>19.25</ele><time>2026-05-03T14:32:02.999Z</time></trkpt><trkpt lat="41.17573838839854" lon="9.398091439812688"><ele>17.0</ele><time>2026-05-03T14:32:03.999Z</time></trkpt><trkpt lat="41.175708592588016" lon="9.398255322648811"><ele>16.25</ele><time>2026-05-03T14:32:04.999Z</time></trkpt><trkpt lat="41.17566603647573" lon="9.398410858514746"><ele>15.5</ele><time>2026-05-03T14:32:05.999Z</time></trkpt><trkpt lat="41.175610482911964" lon="9.398560343034553"><ele>14.75</ele><time>2026-05-03T14:32:06.999Z</time></trkpt><trkpt lat="41.17554504267839" lon="9.398703654567894"><ele>14.0</ele><time>2026-05-03T14:32:07.999Z</time></trkpt><trkpt lat="41.17547007847529" lon="9.398840141411517"><ele>14.0</ele><time>2026-05-03T14:32:08.999Z</time></trkpt><trkpt lat="41.17539278886628" lon="9.398968759187866"><ele>14.0</ele><time>2026-05-03T14:32:09.999Z</time></trkpt><trkpt lat="41.17531822568458" lon="9.399096291204746"><ele>14.0</ele><time>2026-05-03T14:32:10.999Z</time></trkpt><trkpt lat="41.17525649131525" lon="9.399226421392514"><ele>14.0</ele><time>2026-05-03T14:32:11.999Z</time></trkpt><trkpt lat="41.1752071895105" lon="9.399361795880727"><ele>14.0</ele><time>2026-05-03T14:32:12.999Z</time></trkpt><trkpt lat="41.17516758659319" lon="9.39949002580845"><ele>13.999999999999998</ele><time>2026-05-03T14:32:13.999Z</time></trkpt><trkpt lat="41.17512530357663" lon="9.399632049440136"><ele>13.999999999999998</ele><time>2026-05-03T14:32:14.999Z</time></trkpt><trkpt lat="41.17509229856742" lon="9.39977060909238"><ele>14.0</ele><time>2026-05-03T14:32:15.999Z</time></trkpt><trkpt lat="41.175058618640314" lon="9.399910308900637"><ele>14.0</ele><time>2026-05-03T14:32:16.999Z</time></trkpt><trkpt lat="41.17502396272807" lon="9.400046428977742"><ele>13.399999999999999</ele><time>2026-05-03T14:32:17.999Z</time></trkpt><trkpt lat="41.1749888192307" lon="9.400183769257582"><ele>12.799999999999999</ele><time>2026-05-03T14:32:18.999Z</time></trkpt><trkpt lat="41.174959057336" lon="9.400320575387285"><ele>12.2</ele><time>2026-05-03T14:32:19.999Z</time></trkpt><trkpt lat="41.17493222092816" lon="9.400466166608807"><ele>11.600000000000001</ele><time>2026-05-03T14:32:20.999Z</time></trkpt><trkpt lat="41.17491240537505" lon="9.400610166223807"><ele>11.0</ele><time>2026-05-03T14:32:21.999Z</time></trkpt><trkpt lat="41.174900439085455" lon="9.40075917069241"><ele>10.75</ele><time>2026-05-03T14:32:22.999Z</time></trkpt><trkpt lat="41.17489784381263" lon="9.40091054397976"><ele>10.5</ele><time>2026-05-03T14:32:23.999Z</time></trkpt><trkpt lat="41.17490786711728" lon="9.401058972543288"><ele>10.25</ele><time>2026-05-03T14:32:24.999Z</time></trkpt><trkpt lat="41.17492253957168" lon="9.40120814105129"><ele>10.0</ele><time>2026-05-03T14:32:25.999Z</time></trkpt><trkpt lat="41.17492897829639" lon="9.401360995015878"><ele>10.0</ele><time>2026-05-03T14:32:26.999Z</time></trkpt><trkpt lat="41.17493711602224" lon="9.401505758486772"><ele>10.0</ele><time>2026-05-03T14:32:27.999Z</time></trkpt><trkpt lat="41.17494089869436" lon="9.401647463764954"><ele>10.0</ele><time>2026-05-03T14:32:28.999Z</time></trkpt><trkpt lat="41.17493222349198" lon="9.401784905713455"><ele>10.0</ele><time>2026-05-03T14:32:29.999Z</time></trkpt><trkpt lat="41.17490330540519" lon="9.4019172765147"><ele>10.0</ele><time>2026-05-03T14:32:30.999Z</time></trkpt><trkpt lat="41.174839579388795" lon="9.402039618474232"><ele>13.75</ele><time>2026-05-03T14:32:31.999Z</time></trkpt><trkpt lat="41.17476481015425" lon="9.40215456305554"><ele>17.5</ele><time>2026-05-03T14:32:32.999Z</time></trkpt><trkpt lat="41.174694877551694" lon="9.402258092393136"><ele>21.25</ele><time>2026-05-03T14:32:33.999Z</time></trkpt><trkpt lat="41.17460127481759" lon="9.402356165083471"><ele>25.0</ele><time>2026-05-03T14:32:34.999Z</time></trkpt><trkpt lat="41.174532601449876" lon="9.402477951585464"><ele>25.0</ele><time>2026-05-03T14:32:35.999Z</time></trkpt><trkpt lat="41.17446340904205" lon="9.402614026488548"><ele>25.0</ele><time>2026-05-03T14:32:36.999Z</time></trkpt><trkpt lat="41.17437903369116" lon="9.402755921094771"><ele>25.0</ele><time>2026-05-03T14:32:37.999Z</time></trkpt><trkpt lat="41.17427130966159" lon="9.402906690482695"><ele>25.0</ele><time>2026-05-03T14:32:38.999Z</time></trkpt><trkpt lat="41.17432265410628" lon="9.402972579702526"><ele>24.5</ele><time>2026-05-03T14:32:39.999Z</time></trkpt><trkpt lat="41.17423245105493" lon="9.403070787372268"><ele>24.0</ele><time>2026-05-03T14:32:40.999Z</time></trkpt><trkpt lat="41.17417296779768" lon="9.403223926931842"><ele>23.5</ele><time>2026-05-03T14:32:41.999Z</time></trkpt><trkpt lat="41.17402073166078" lon="9.403199619962244"><ele>23.0</ele><time>2026-05-03T14:32:42.999Z</time></trkpt><trkpt lat="41.17391306768506" lon="9.403227248125498"><ele>23.0</ele><time>2026-05-03T14:32:43.999Z</time></trkpt><trkpt lat="41.17380389988042" lon="9.40324864447342"><ele>23.0</ele><time>2026-05-03T14:32:44.999Z</time></trkpt><trkpt lat="41.173703496496536" lon="9.403259181111231"><ele>23.0</ele><time>2026-05-03T14:32:45.999Z</time></trkpt><trkpt lat="41.17359668365906" lon="9.403239463853316"><ele>23.0</ele><time>2026-05-03T14:32:46.999Z</time></trkpt><trkpt lat="41.17350771477379" lon="9.403162486091777"><ele>23.0</ele><time>2026-05-03T14:32:47.999Z</time></trkpt><trkpt lat="41.17341171207757" lon="9.403112320815707"><ele>23.0</ele><time>2026-05-03T14:32:48.999Z</time></trkpt><trkpt lat="41.17331807446389" lon="9.40305882654457"><ele>23.0</ele><time>2026-05-03T14:32:49.999Z</time></trkpt><trkpt lat="41.17321879149885" lon="9.403022519076258"><ele>23.0</ele><time>2026-05-03T14:32:50.999Z</time></trkpt><trkpt lat="41.173133334992784" lon="9.402958861592767"><ele>23.0</ele><time>2026-05-03T14:32:51.999Z</time></trkpt><trkpt lat="41.17306952532645" lon="9.402863064468642"><ele>23.0</ele><time>2026-05-03T14:32:52.999Z</time></trkpt><trkpt lat="41.173007918235946" lon="9.40277224201144"><ele>25.166666666666668</ele><time>2026-05-03T14:32:53.999Z</time></trkpt><trkpt lat="41.17296950743246" lon="9.402669171388302"><ele>27.333333333333336</ele><time>2026-05-03T14:32:54.999Z</time></trkpt><trkpt lat="41.17294216785878" lon="9.402561677379477"><ele>29.5</ele><time>2026-05-03T14:32:55.999Z</time></trkpt><trkpt lat="41.17292073562284" lon="9.402452469227235"><ele>31.666666666666668</ele><time>2026-05-03T14:32:56.999Z</time></trkpt><trkpt lat="41.172871849473744" lon="9.402348063681854"><ele>33.833333333333336</ele><time>2026-05-03T14:32:57.999Z</time></trkpt><trkpt lat="41.172812481809174" lon="9.402247757064124"><ele>36.0</ele><time>2026-05-03T14:32:58.999Z</time></trkpt><trkpt lat="41.17272422238795" lon="9.402174303435613"><ele>36.0</ele><time>2026-05-03T14:32:59.999Z</time></trkpt><trkpt lat="41.17261611386306" lon="9.402146675110036"><ele>36.0</ele><time>2026-05-03T14:33:00.999Z</time></trkpt><trkpt lat="41.17250284057243" lon="9.402181660875382"><ele>36.0</ele><time>2026-05-03T14:33:01.999Z</time></trkpt><trkpt lat="41.17240237212286" lon="9.402280274080116"><ele>36.0</ele><time>2026-05-03T14:33:02.999Z</time></trkpt><trkpt lat="41.17233691418691" lon="9.402432025251933"><ele>38.8</ele><time>2026-05-03T14:33:03.999Z</time></trkpt><trkpt lat="41.17231370184814" lon="9.40259246656488"><ele>41.6</ele><time>2026-05-03T14:33:04.999Z</time></trkpt><trkpt lat="41.172310505251126" lon="9.402739195134412"><ele>44.4</ele><time>2026-05-03T14:33:05.999Z</time></trkpt><trkpt lat="41.17230052305893" lon="9.40285245487968"><ele>47.2</ele><time>2026-05-03T14:33:06.999Z</time></trkpt><trkpt lat="41.172262271584486" lon="9.402954313407719"><ele>50.0</ele><time>2026-05-03T14:33:07.999Z</time></trkpt><trkpt lat="41.17220117652321" lon="9.40303666398692"><ele>50.00000000000001</ele><time>2026-05-03T14:33:08.999Z</time></trkpt><trkpt lat="41.17216335376719" lon="9.40313698863426"><ele>50.0</ele><time>2026-05-03T14:33:09.999Z</time></trkpt><trkpt lat="41.17211772094634" lon="9.40323990787606"><ele>50.0</ele><time>2026-05-03T14:33:10.999Z</time></trkpt><trkpt lat="41.17209279683318" lon="9.403346970417543"><ele>50.0</ele><time>2026-05-03T14:33:11.999Z</time></trkpt><trkpt lat="41.17208668520913" lon="9.403450580874269"><ele>50.00000000000001</ele><time>2026-05-03T14:33:13Z</time></trkpt><trkpt lat="41.17209168309824" lon="9.403556917734997"><ele>50.0</ele><time>2026-05-03T14:33:14Z</time></trkpt><trkpt lat="41.17211118816804" lon="9.403656443015203"><ele>50.0</ele><time>2026-05-03T14:33:15Z</time></trkpt><trkpt lat="41.172135232438016" lon="9.40380537556799"><ele>50.0</ele><time>2026-05-03T14:33:17Z</time></trkpt><trkpt lat="41.17215053909469" lon="9.403936569287868"><ele>50.0</ele><time>2026-05-03T14:33:19Z</time></trkpt><trkpt lat="41.17215292658466" lon="9.404090815179703"><ele>50.0</ele><time>2026-05-03T14:33:21Z</time></trkpt><trkpt lat="41.17213206325233" lon="9.404172133771159"><ele>50.0</ele><time>2026-05-03T14:33:22Z</time></trkpt><trkpt lat="41.172123634993916" lon="9.40426504767216"><ele>50.0</ele><time>2026-05-03T14:33:23Z</time></trkpt><trkpt lat="41.172083060979645" lon="9.404358851996799"><ele>50.0</ele><time>2026-05-03T14:33:24Z</time></trkpt><trkpt lat="41.172036441197776" lon="9.404462679658678"><ele>50.0</ele><time>2026-05-03T14:33:25Z</time></trkpt><trkpt lat="41.17196022533188" lon="9.404548690593874"><ele>50.0</ele><time>2026-05-03T14:33:26Z</time></trkpt><trkpt lat="41.17188228277163" lon="9.404642515309552"><ele>50.0</ele><time>2026-05-03T14:33:27Z</time></trkpt><trkpt lat="41.17179742341025" lon="9.404742452864788"><ele>48.0</ele><time>2026-05-03T14:33:28Z</time></trkpt><trkpt lat="41.1717082372645" lon="9.40485129621481"><ele>46.0</ele><time>2026-05-03T14:33:29Z</time></trkpt><trkpt lat="41.17162916788255" lon="9.404974708475676"><ele>44.0</ele><time>2026-05-03T14:33:30Z</time></trkpt><trkpt lat="41.17155358656962" lon="9.405116816346968"><ele>42.0</ele><time>2026-05-03T14:33:31Z</time></trkpt><trkpt lat="41.171494447037304" lon="9.405270516828352"><ele>46.75</ele><time>2026-05-03T14:33:32Z</time></trkpt><trkpt lat="41.17145503196116" lon="9.405440353168228"><ele>51.5</ele><time>2026-05-03T14:33:33Z</time></trkpt><trkpt lat="41.1714333812275" lon="9.405622301245504"><ele>56.25</ele><time>2026-05-03T14:33:34Z</time></trkpt><trkpt lat="41.17141843896312" lon="9.405808731233474"><ele>61.0</ele><time>2026-05-03T14:33:35Z</time></trkpt><trkpt lat="41.1714002402939" lon="9.405991405786475"><ele>61.0</ele><time>2026-05-03T14:33:36Z</time></trkpt><trkpt lat="41.171383554209235" lon="9.406174040351054"><ele>61.0</ele><time>2026-05-03T14:33:37Z</time></trkpt><trkpt lat="41.171356600179465" lon="9.40634545808557"><ele>61.0</ele><time>2026-05-03T14:33:38Z</time></trkpt><trkpt lat="41.17132687946286" lon="9.406511805309096"><ele>61.0</ele><time>2026-05-03T14:33:39Z</time></trkpt><trkpt lat="41.171292636435986" lon="9.406671870422205"><ele>59.75</ele><time>2026-05-03T14:33:40Z</time></trkpt><trkpt lat="41.171259453314306" lon="9.406824814024505"><ele>58.5</ele><time>2026-05-03T14:33:41Z</time></trkpt><trkpt lat="41.17122435848407" lon="9.406979796541778"><ele>57.25</ele><time>2026-05-03T14:33:42Z</time></trkpt><trkpt lat="41.17119475243801" lon="9.407136755630964"><ele>56.0</ele><time>2026-05-03T14:33:43Z</time></trkpt><trkpt lat="41.17115918560152" lon="9.407294842030613"><ele>54.25</ele><time>2026-05-03T14:33:44Z</time></trkpt><trkpt lat="41.17111695958061" lon="9.407454775610947"><ele>52.5</ele><time>2026-05-03T14:33:45Z</time></trkpt><trkpt lat="41.17105659125792" lon="9.407613111073685"><ele>50.75</ele><time>2026-05-03T14:33:46Z</time></trkpt><trkpt lat="41.1709707664034" lon="9.407757923571111"><ele>49.0</ele><time>2026-05-03T14:33:47Z</time></trkpt><trkpt lat="41.170883305725646" lon="9.407910948040236"><ele>49.0</ele><time>2026-05-03T14:33:48Z</time></trkpt><trkpt lat="41.17079728777133" lon="9.40808137593859"><ele>49.0</ele><time>2026-05-03T14:33:49Z</time></trkpt><trkpt lat="41.170697921818046" lon="9.4082403084518"><ele>49.0</ele><time>2026-05-03T14:33:50Z</time></trkpt><trkpt lat="41.17059618580235" lon="9.40840567226144"><ele>49.0</ele><time>2026-05-03T14:33:51Z</time></trkpt><trkpt lat="41.17049601122951" lon="9.408579952687388"><ele>49.0</ele><time>2026-05-03T14:33:52Z</time></trkpt><trkpt lat="41.17039327003628" lon="9.408751707019578"><ele>49.0</ele><time>2026-05-03T14:33:53Z</time></trkpt><trkpt lat="41.170290398397626" lon="9.408927265818962"><ele>46.0</ele><time>2026-05-03T14:33:54Z</time></trkpt><trkpt lat="41.17018391591824" lon="9.409100179172158"><ele>43.0</ele><time>2026-05-03T14:33:55Z</time></trkpt><trkpt lat="41.17008031605802" lon="9.40925439561461"><ele>40.0</ele><time>2026-05-03T14:33:56Z</time></trkpt><trkpt lat="41.16997432761267" lon="9.409379255355383"><ele>40.0</ele><time>2026-05-03T14:33:57Z</time></trkpt><trkpt lat="41.16986735090919" lon="9.409481006222983"><ele>40.0</ele><time>2026-05-03T14:33:57.999Z</time></trkpt><trkpt lat="41.169765753218826" lon="9.409569114060993"><ele>40.0</ele><time>2026-05-03T14:33:58.999Z</time></trkpt><trkpt lat="41.16967496432048" lon="9.409663753294558"><ele>40.0</ele><time>2026-05-03T14:33:59.999Z</time></trkpt><trkpt lat="41.16960985281828" lon="9.409777341971601"><ele>38.5</ele><time>2026-05-03T14:34:00.999Z</time></trkpt><trkpt lat="41.16957727936196" lon="9.409913440788143"><ele>37.0</ele><time>2026-05-03T14:34:01.999Z</time></trkpt><trkpt lat="41.16957771820879" lon="9.410060908041487"><ele>35.5</ele><time>2026-05-03T14:34:02.999Z</time></trkpt><trkpt lat="41.169591295020204" lon="9.410216206236246"><ele>34.0</ele><time>2026-05-03T14:34:03.999Z</time></trkpt><trkpt lat="41.16959942130917" lon="9.410372453368362"><ele>34.0</ele><time>2026-05-03T14:34:04.999Z</time></trkpt><trkpt lat="41.169605949917575" lon="9.410534342153719"><ele>34.0</ele><time>2026-05-03T14:34:05.999Z</time></trkpt><trkpt lat="41.16960874148889" lon="9.410695555770273"><ele>34.0</ele><time>2026-05-03T14:34:06.999Z</time></trkpt><trkpt lat="41.16961721579544" lon="9.410857862909609"><ele>34.0</ele><time>2026-05-03T14:34:07.999Z</time></trkpt><trkpt lat="41.16964368807235" lon="9.411016134430051"><ele>34.0</ele><time>2026-05-03T14:34:08.999Z</time></trkpt><trkpt lat="41.16969861076394" lon="9.411161160494041"><ele>34.0</ele><time>2026-05-03T14:34:09.999Z</time></trkpt><trkpt lat="41.16979511475318" lon="9.411261703333546"><ele>34.0</ele><time>2026-05-03T14:34:10.999Z</time></trkpt><trkpt lat="41.169903096421166" lon="9.41131027602424"><ele>34.0</ele><time>2026-05-03T14:34:11.999Z</time></trkpt><trkpt lat="41.17002408951923" lon="9.411329613751604"><ele>36.4</ele><time>2026-05-03T14:34:12.999Z</time></trkpt><trkpt lat="41.17014586037362" lon="9.411355628181532"><ele>38.8</ele><time>2026-05-03T14:34:13.999Z</time></trkpt><trkpt lat="41.17026308857897" lon="9.411395549292164"><ele>41.199999999999996</ele><time>2026-05-03T14:34:14.999Z</time></trkpt><trkpt lat="41.17036363101194" lon="9.411433633766702"><ele>43.599999999999994</ele><time>2026-05-03T14:34:15.999Z</time></trkpt><trkpt lat="41.1704510034882" lon="9.41146376035206"><ele>46.0</ele><time>2026-05-03T14:34:16.999Z</time></trkpt><trkpt lat="41.17053579874654" lon="9.411493878193395"><ele>46.0</ele><time>2026-05-03T14:34:17.999Z</time></trkpt><trkpt lat="41.170619847648155" lon="9.411531965861474"><ele>46.0</ele><time>2026-05-03T14:34:18.999Z</time></trkpt><trkpt lat="41.170702055306585" lon="9.41158425807827"><ele>46.0</ele><time>2026-05-03T14:34:19.999Z</time></trkpt><trkpt lat="41.1707795684043" lon="9.411661095620596"><ele>46.0</ele><time>2026-05-03T14:34:20.999Z</time></trkpt><trkpt lat="41.170847368995325" lon="9.411766995119685"><ele>46.0</ele><time>2026-05-03T14:34:21.999Z</time></trkpt><trkpt lat="41.17091100628569" lon="9.411889022540183"><ele>46.5</ele><time>2026-05-03T14:34:22.999Z</time></trkpt><trkpt lat="41.17097543836083" lon="9.412007910360085"><ele>47.0</ele><time>2026-05-03T14:34:23.999Z</time></trkpt><trkpt lat="41.17103722197543" lon="9.41213346108834"><ele>47.5</ele><time>2026-05-03T14:34:24.999Z</time></trkpt><trkpt lat="41.171101633460296" lon="9.412256551399219"><ele>48.0</ele><time>2026-05-03T14:34:25.999Z</time></trkpt><trkpt lat="41.17116831244835" lon="9.41238005084153"><ele>49.8</ele><time>2026-05-03T14:34:26.999Z</time></trkpt><trkpt lat="41.171236121666325" lon="9.412502149379483"><ele>51.599999999999994</ele><time>2026-05-03T14:34:27.999Z</time></trkpt><trkpt lat="41.17130057034089" lon="9.41262691552525"><ele>53.400000000000006</ele><time>2026-05-03T14:34:28.999Z</time></trkpt><trkpt lat="41.17134981908401" lon="9.412758627488492"><ele>55.2</ele><time>2026-05-03T14:34:29.999Z</time></trkpt><trkpt lat="41.17136811677998" lon="9.412903296235834"><ele>57.0</ele><time>2026-05-03T14:34:30.999Z</time></trkpt><trkpt lat="41.171347266643814" lon="9.413048613907659"><ele>57.8</ele><time>2026-05-03T14:34:31.999Z</time></trkpt><trkpt lat="41.171312025398905" lon="9.413195756679642"><ele>58.6</ele><time>2026-05-03T14:34:32.999Z</time></trkpt><trkpt lat="41.171276772811204" lon="9.413338345895612"><ele>59.39999999999999</ele><time>2026-05-03T14:34:33.999Z</time></trkpt><trkpt lat="41.17124567698088" lon="9.413478137134447"><ele>60.199999999999996</ele><time>2026-05-03T14:34:34.999Z</time></trkpt><trkpt lat="41.17121844646216" lon="9.413614307262089"><ele>61.0</ele><time>2026-05-03T14:34:35.999Z</time></trkpt><trkpt lat="41.171191920194886" lon="9.413745750391929"><ele>61.0</ele><time>2026-05-03T14:34:36.999Z</time></trkpt><trkpt lat="41.171171503080586" lon="9.413871658944993"><ele>60.99999999999999</ele><time>2026-05-03T14:34:37.999Z</time></trkpt><trkpt lat="41.17115301595869" lon="9.413992046935652"><ele>60.99999999999999</ele><time>2026-05-03T14:34:38.999Z</time></trkpt><trkpt lat="41.171139246058566" lon="9.414111365702404"><ele>61.0</ele><time>2026-05-03T14:34:39.999Z</time></trkpt><trkpt lat="41.17113314190923" lon="9.41423063682582"><ele>61.0</ele><time>2026-05-03T14:34:40.999Z</time></trkpt><trkpt lat="41.17113510284312" lon="9.414343180316804"><ele>61.0</ele><time>2026-05-03T14:34:41.999Z</time></trkpt><trkpt lat="41.171144368703864" lon="9.414464351688652"><ele>60.99999999999999</ele><time>2026-05-03T14:34:42.999Z</time></trkpt><trkpt lat="41.171158620639986" lon="9.414593378228455"><ele>60.99999999999999</ele><time>2026-05-03T14:34:43.999Z</time></trkpt><trkpt lat="41.17117015566627" lon="9.414728344978316"><ele>61.0</ele><time>2026-05-03T14:34:44.999Z</time></trkpt><trkpt lat="41.17118288135528" lon="9.414861383049901"><ele>61.0</ele><time>2026-05-03T14:34:45.999Z</time></trkpt><trkpt lat="41.17119402528913" lon="9.414992607461867"><ele>61.199999999999996</ele><time>2026-05-03T14:34:46.999Z</time></trkpt><trkpt lat="41.17120424526346" lon="9.415125263818505"><ele>61.39999999999999</ele><time>2026-05-03T14:34:47.999Z</time></trkpt><trkpt lat="41.171214992719705" lon="9.41525914079839"><ele>61.6</ele><time>2026-05-03T14:34:48.999Z</time></trkpt><trkpt lat="41.1712259622947" lon="9.415395029693277"><ele>61.8</ele><time>2026-05-03T14:34:49.999Z</time></trkpt><trkpt lat="41.171240510597656" lon="9.415533006077355"><ele>62.0</ele><time>2026-05-03T14:34:50.999Z</time></trkpt><trkpt lat="41.17125620890019" lon="9.415675434868923"><ele>62.0</ele><time>2026-05-03T14:34:51.999Z</time></trkpt><trkpt lat="41.171267494570856" lon="9.415815273130944"><ele>62.0</ele><time>2026-05-03T14:34:52.999Z</time></trkpt><trkpt lat="41.171278329951846" lon="9.415956603967507"><ele>62.0</ele><time>2026-05-03T14:34:53.999Z</time></trkpt><trkpt lat="41.1712884055288" lon="9.416083197601465"><ele>62.0</ele><time>2026-05-03T14:34:54.999Z</time></trkpt><trkpt lat="41.171296301121664" lon="9.416183986036136"><ele>62.0</ele><time>2026-05-03T14:34:55.999Z</time></trkpt><trkpt lat="41.17130600261684" lon="9.416302069425909"><ele>61.66666666666667</ele><time>2026-05-03T14:34:57.999Z</time></trkpt><trkpt lat="41.171317814185215" lon="9.416394600744196"><ele>61.333333333333336</ele><time>2026-05-03T14:35:00.999Z</time></trkpt><trkpt lat="41.17131599985909" lon="9.416499980587544"><ele>61.0</ele><time>2026-05-03T14:35:03.999Z</time></trkpt><trkpt lat="41.17139202914692" lon="9.416639950009516"><ele>60.66666666666667</ele><time>2026-05-03T14:35:06.999Z</time></trkpt><trkpt lat="41.171469473135666" lon="9.416646692000128"><ele>60.333333333333336</ele><time>2026-05-03T14:35:07.999Z</time></trkpt><trkpt lat="41.171545138748144" lon="9.416664462197701"><ele>60.0</ele><time>2026-05-03T14:35:08.999Z</time></trkpt><trkpt lat="41.171624501212946" lon="9.416687028915222"><ele>61.333333333333336</ele><time>2026-05-03T14:35:09.999Z</time></trkpt><trkpt lat="41.17170931946637" lon="9.4166906733424"><ele>62.66666666666667</ele><time>2026-05-03T14:35:10.999Z</time></trkpt><trkpt lat="41.17178487964377" lon="9.416707069949283"><ele>64.0</ele><time>2026-05-03T14:35:11.999Z</time></trkpt><trkpt lat="41.17187491338056" lon="9.416731475558919"><ele>65.33333333333334</ele><time>2026-05-03T14:35:13.999Z</time></trkpt><trkpt lat="41.17193867414344" lon="9.416743401258977"><ele>66.66666666666667</ele><time>2026-05-03T14:35:15.999Z</time></trkpt><trkpt lat="41.17200516700957" lon="9.416755548974852"><ele>68.0</ele><time>2026-05-03T14:35:17.999Z</time></trkpt><trkpt lat="41.17207567308745" lon="9.416771627336214"><ele>68.0</ele><time>2026-05-03T14:35:20Z</time></trkpt><trkpt lat="41.17214006514608" lon="9.416797887394292"><ele>68.0</ele><time>2026-05-03T14:35:22Z</time></trkpt><trkpt lat="41.172219222752844" lon="9.416817323300013"><ele>68.0</ele><time>2026-05-03T14:35:25Z</time></trkpt><trkpt lat="41.17229298155789" lon="9.416826391371249"><ele>68.0</ele><time>2026-05-03T14:35:56Z</time></trkpt><trkpt lat="41.17222522462215" lon="9.416809076694575"><ele>68.0</ele><time>2026-05-03T14:36:02Z</time></trkpt><trkpt lat="41.17207010994509" lon="9.41622317508977"><ele>68.0</ele><time>2026-05-03T14:36:05Z</time></trkpt><trkpt lat="41.17200416738259" lon="9.416208260023181"><ele>68.0</ele><time>2026-05-03T14:36:06Z</time></trkpt><trkpt lat="41.171933382204806" lon="9.416715670333133"><ele>67.99999999999999</ele><time>2026-05-03T14:36:07Z</time></trkpt><trkpt lat="41.17186110828329" lon="9.416700578279444"><ele>68.0</ele><time>2026-05-03T14:36:08Z</time></trkpt><trkpt lat="41.17178567142797" lon="9.416693258744314"><ele>68.0</ele><time>2026-05-03T14:36:09Z</time></trkpt><trkpt lat="41.171705622691384" lon="9.416682332665605"><ele>68.0</ele><time>2026-05-03T14:36:10Z</time></trkpt><trkpt lat="41.171627885594106" lon="9.416663997521747"><ele>68.0</ele><time>2026-05-03T14:36:11Z</time></trkpt><trkpt lat="41.171553215724124" lon="9.41665193001466"><ele>67.99999999999999</ele><time>2026-05-03T14:36:12Z</time></trkpt><trkpt lat="41.171489614706005" lon="9.416633377786388"><ele>68.0</ele><time>2026-05-03T14:36:13Z</time></trkpt><trkpt lat="41.17138765618231" lon="9.41661686810505"><ele>66.8</ele><time>2026-05-03T14:36:15Z</time></trkpt><trkpt lat="41.171325345981835" lon="9.416539535327516"><ele>65.6</ele><time>2026-05-03T14:36:16.999Z</time></trkpt><trkpt lat="41.17134240379842" lon="9.41641528011922"><ele>64.4</ele><time>2026-05-03T14:36:18Z</time></trkpt><trkpt lat="41.17133266271427" lon="9.416306516687659"><ele>63.2</ele><time>2026-05-03T14:36:18.999Z</time></trkpt><trkpt lat="41.171321673858564" lon="9.41618382125757"><ele>62.0</ele><time>2026-05-03T14:36:19.999Z</time></trkpt><trkpt lat="41.17130775266638" lon="9.416027353132696"><ele>62.0</ele><time>2026-05-03T14:36:20.999Z</time></trkpt><trkpt lat="41.171291986205865" lon="9.41588063144535"><ele>62.0</ele><time>2026-05-03T14:36:21.999Z</time></trkpt><trkpt lat="41.171278820654756" lon="9.415741033498719"><ele>62.0</ele><time>2026-05-03T14:36:22.999Z</time></trkpt><trkpt lat="41.171264398178074" lon="9.41559282360601"><ele>62.0</ele><time>2026-05-03T14:36:23.999Z</time></trkpt><trkpt lat="41.171257397522716" lon="9.415456163239815"><ele>62.0</ele><time>2026-05-03T14:36:24.999Z</time></trkpt><trkpt lat="41.1712453908969" lon="9.415315938955981"><ele>62.2</ele><time>2026-05-03T14:36:25.999Z</time></trkpt><trkpt lat="41.171231029202" lon="9.415177562577167"><ele>62.400000000000006</ele><time>2026-05-03T14:36:26.999Z</time></trkpt><trkpt lat="41.17121739527179" lon="9.4150369963437"><ele>62.599999999999994</ele><time>2026-05-03T14:36:27.999Z</time></trkpt><trkpt lat="41.171203971617416" lon="9.414899043706999"><ele>62.8</ele><time>2026-05-03T14:36:28.999Z</time></trkpt><trkpt lat="41.171193680300846" lon="9.41475922604951"><ele>63.0</ele><time>2026-05-03T14:36:29.999Z</time></trkpt><trkpt lat="41.171184167734474" lon="9.414620093317263"><ele>62.599999999999994</ele><time>2026-05-03T14:36:30.999Z</time></trkpt><trkpt lat="41.17117302175487" lon="9.41448029404414"><ele>62.199999999999996</ele><time>2026-05-03T14:36:31.999Z</time></trkpt><trkpt lat="41.17116147147975" lon="9.41434083768818"><ele>61.8</ele><time>2026-05-03T14:36:32.999Z</time></trkpt><trkpt lat="41.1711546364967" lon="9.414200251014018"><ele>61.4</ele><time>2026-05-03T14:36:33.999Z</time></trkpt><trkpt lat="41.17115866056513" lon="9.414059066801746"><ele>61.0</ele><time>2026-05-03T14:36:34.999Z</time></trkpt><trkpt lat="41.17117628643994" lon="9.413917997205976"><ele>61.0</ele><time>2026-05-03T14:36:35.999Z</time></trkpt><trkpt lat="41.171207614460386" lon="9.413776011035598"><ele>61.0</ele><time>2026-05-03T14:36:36.999Z</time></trkpt><trkpt lat="41.17124385400108" lon="9.413631810858767"><ele>61.0</ele><time>2026-05-03T14:36:37.999Z</time></trkpt><trkpt lat="41.17127796506061" lon="9.413480340948835"><ele>61.0</ele><time>2026-05-03T14:36:38.999Z</time></trkpt><trkpt lat="41.171308210595306" lon="9.413323949351373"><ele>61.0</ele><time>2026-05-03T14:36:39.999Z</time></trkpt><trkpt lat="41.171334955043974" lon="9.41316481328922"><ele>61.0</ele><time>2026-05-03T14:36:40.999Z</time></trkpt><trkpt lat="41.171357921753646" lon="9.413015572058091"><ele>61.0</ele><time>2026-05-03T14:36:41.999Z</time></trkpt><trkpt lat="41.171373484608715" lon="9.41287222968134"><ele>61.0</ele><time>2026-05-03T14:36:42.999Z</time></trkpt><trkpt lat="41.17136313109626" lon="9.412724107744213"><ele>60.0</ele><time>2026-05-03T14:36:43.999Z</time></trkpt><trkpt lat="41.17131164760812" lon="9.41257669180346"><ele>59.0</ele><time>2026-05-03T14:36:44.999Z</time></trkpt><trkpt lat="41.17122901646938" lon="9.412428929103486"><ele>58.0</ele><time>2026-05-03T14:36:45.999Z</time></trkpt><trkpt lat="41.171144626399354" lon="9.412286096625996"><ele>57.0</ele><time>2026-05-03T14:36:46.999Z</time></trkpt><trkpt lat="41.17106517561819" lon="9.412141563126328"><ele>54.75</ele><time>2026-05-03T14:36:47.999Z</time></trkpt><trkpt lat="41.17098559852617" lon="9.411993478149615"><ele>52.5</ele><time>2026-05-03T14:36:48.999Z</time></trkpt><trkpt lat="41.1709049367748" lon="9.41184563082458"><ele>50.25</ele><time>2026-05-03T14:36:49.999Z</time></trkpt><trkpt lat="41.170828106165395" lon="9.411706692139017"><ele>48.0</ele><time>2026-05-03T14:36:50.999Z</time></trkpt><trkpt lat="41.17074792626891" lon="9.41159127189155"><ele>47.5</ele><time>2026-05-03T14:36:51.999Z</time></trkpt><trkpt lat="41.170647128704346" lon="9.411513371124197"><ele>47.0</ele><time>2026-05-03T14:36:52.999Z</time></trkpt><trkpt lat="41.1705242965974" lon="9.411456512797288"><ele>46.5</ele><time>2026-05-03T14:36:53.999Z</time></trkpt><trkpt lat="41.170394647147575" lon="9.411409936774557"><ele>46.0</ele><time>2026-05-03T14:36:54.999Z</time></trkpt><trkpt lat="41.17026278580694" lon="9.411368421424736"><ele>46.0</ele><time>2026-05-03T14:36:55.999Z</time></trkpt><trkpt lat="41.17012940476789" lon="9.411328393577818"><ele>46.0</ele><time>2026-05-03T14:36:56.999Z</time></trkpt><trkpt lat="41.169999198470954" lon="9.41128491929485"><ele>46.0</ele><time>2026-05-03T14:36:57.999Z</time></trkpt><trkpt lat="41.16987881584844" lon="9.4112409360664"><ele>46.0</ele><time>2026-05-03T14:36:58.999Z</time></trkpt><trkpt lat="41.169766746716355" lon="9.411182389233604"><ele>43.0</ele><time>2026-05-03T14:36:59.999Z</time></trkpt><trkpt lat="41.169678537592645" lon="9.411080554686428"><ele>40.0</ele><time>2026-05-03T14:37:00.999Z</time></trkpt><trkpt lat="41.169633386683486" lon="9.410931685621062"><ele>37.0</ele><time>2026-05-03T14:37:01.999Z</time></trkpt><trkpt lat="41.1696220669684" lon="9.410768233723312"><ele>34.0</ele><time>2026-05-03T14:37:02.999Z</time></trkpt><trkpt lat="41.16962540287314" lon="9.410602760598374"><ele>34.0</ele><time>2026-05-03T14:37:03.999Z</time></trkpt><trkpt lat="41.16962597037627" lon="9.41043934416927"><ele>34.0</ele><time>2026-05-03T14:37:04.999Z</time></trkpt><trkpt lat="41.169623349650884" lon="9.410278677174754"><ele>34.0</ele><time>2026-05-03T14:37:05.999Z</time></trkpt><trkpt lat="41.16961802896535" lon="9.41011678566712"><ele>34.0</ele><time>2026-05-03T14:37:06.999Z</time></trkpt><trkpt lat="41.16961260661181" lon="9.409959211645045"><ele>34.0</ele><time>2026-05-03T14:37:07.999Z</time></trkpt><trkpt lat="41.16962158976827" lon="9.409806716515813"><ele>34.0</ele><time>2026-05-03T14:37:08.999Z</time></trkpt><trkpt lat="41.16967487519496" lon="9.40968451772994"><ele>34.0</ele><time>2026-05-03T14:37:09.999Z</time></trkpt><trkpt lat="41.16976641023233" lon="9.409585870717699"><ele>34.0</ele><time>2026-05-03T14:37:10.999Z</time></trkpt><trkpt lat="41.169871642128136" lon="9.409506211019444"><ele>35.5</ele><time>2026-05-03T14:37:11.999Z</time></trkpt><trkpt lat="41.16997819630021" lon="9.40941383198148"><ele>37.0</ele><time>2026-05-03T14:37:12.999Z</time></trkpt><trkpt lat="41.17008152179709" lon="9.409304038009488"><ele>38.5</ele><time>2026-05-03T14:37:13.999Z</time></trkpt><trkpt lat="41.17017872999045" lon="9.409172782282953"><ele>40.0</ele><time>2026-05-03T14:37:14.999Z</time></trkpt><trkpt lat="41.1702711654626" lon="9.409024932880905"><ele>40.0</ele><time>2026-05-03T14:37:15.999Z</time></trkpt><trkpt lat="41.17036039061616" lon="9.408874850361633"><ele>40.0</ele><time>2026-05-03T14:37:16.999Z</time></trkpt><trkpt lat="41.17044969304475" lon="9.408718871851223"><ele>40.0</ele><time>2026-05-03T14:37:17.999Z</time></trkpt><trkpt lat="41.17053382351486" lon="9.408571162237994"><ele>40.0</ele><time>2026-05-03T14:37:18.999Z</time></trkpt><trkpt lat="41.170617254137014" lon="9.408431065232765"><ele>39.0</ele><time>2026-05-03T14:37:19.999Z</time></trkpt><trkpt lat="41.1707024413225" lon="9.408289688502109"><ele>38.0</ele><time>2026-05-03T14:37:20.999Z</time></trkpt><trkpt lat="41.17078536148495" lon="9.408148330552084"><ele>37.0</ele><time>2026-05-03T14:37:21.999Z</time></trkpt><trkpt lat="41.170867517573" lon="9.408006892475377"><ele>36.0</ele><time>2026-05-03T14:37:22.999Z</time></trkpt><trkpt lat="41.170948463594165" lon="9.407868849618227"><ele>39.25</ele><time>2026-05-03T14:37:23.999Z</time></trkpt><trkpt lat="41.1710265139635" lon="9.407730276364749"><ele>42.5</ele><time>2026-05-03T14:37:25Z</time></trkpt><trkpt lat="41.17109778828389" lon="9.40758452939157"><ele>45.75</ele><time>2026-05-03T14:37:26Z</time></trkpt><trkpt lat="41.17115381272527" lon="9.407432367742375"><ele>49.0</ele><time>2026-05-03T14:37:27Z</time></trkpt><trkpt lat="41.171199050261144" lon="9.407265983457975"><ele>50.75</ele><time>2026-05-03T14:37:28Z</time></trkpt><trkpt lat="41.17123205952031" lon="9.407100041246316"><ele>52.5</ele><time>2026-05-03T14:37:29Z</time></trkpt><trkpt lat="41.171263684765734" lon="9.406934798641377"><ele>54.25</ele><time>2026-05-03T14:37:30Z</time></trkpt><trkpt lat="41.171298266002395" lon="9.40677119398214"><ele>56.0</ele><time>2026-05-03T14:37:31Z</time></trkpt><trkpt lat="41.171331377417445" lon="9.406614355786838"><ele>56.0</ele><time>2026-05-03T14:37:32Z</time></trkpt><trkpt lat="41.17135879654913" lon="9.406465784005805"><ele>55.99999999999999</ele><time>2026-05-03T14:37:33Z</time></trkpt><trkpt lat="41.17138597486647" lon="9.40633188116795"><ele>55.99999999999999</ele><time>2026-05-03T14:37:34Z</time></trkpt><trkpt lat="41.171406782819844" lon="9.406205452535737"><ele>56.0</ele><time>2026-05-03T14:37:35Z</time></trkpt><trkpt lat="41.17141131004191" lon="9.406070014466458"><ele>56.0</ele><time>2026-05-03T14:37:36Z</time></trkpt><trkpt lat="41.17142266497502" lon="9.405935736163395"><ele>57.0</ele><time>2026-05-03T14:37:37Z</time></trkpt><trkpt lat="41.17143649753912" lon="9.405799758981031"><ele>57.99999999999999</ele><time>2026-05-03T14:37:38Z</time></trkpt><trkpt lat="41.17145308323354" lon="9.405664164169789"><ele>58.99999999999999</ele><time>2026-05-03T14:37:39Z</time></trkpt><trkpt lat="41.171475053294934" lon="9.405524072451271"><ele>60.0</ele><time>2026-05-03T14:37:40Z</time></trkpt><trkpt lat="41.17149940641585" lon="9.405382652992293"><ele>61.0</ele><time>2026-05-03T14:37:41Z</time></trkpt><trkpt lat="41.17153903369994" lon="9.405237720308484"><ele>56.25</ele><time>2026-05-03T14:37:42Z</time></trkpt><trkpt lat="41.171590432592566" lon="9.405100559375548"><ele>51.5</ele><time>2026-05-03T14:37:43Z</time></trkpt><trkpt lat="41.17165777048681" lon="9.40497607483158"><ele>46.75</ele><time>2026-05-03T14:37:44Z</time></trkpt><trkpt lat="41.171736541908324" lon="9.404866849621776"><ele>42.0</ele><time>2026-05-03T14:37:45Z</time></trkpt><trkpt lat="41.1718230360906" lon="9.404763764118796"><ele>42.0</ele><time>2026-05-03T14:37:46Z</time></trkpt><trkpt lat="41.17191145051051" lon="9.404667028097869"><ele>42.0</ele><time>2026-05-03T14:37:47Z</time></trkpt><trkpt lat="41.17198988209857" lon="9.40456817014562"><ele>42.0</ele><time>2026-05-03T14:37:48Z</time></trkpt><trkpt lat="41.172058679555924" lon="9.404479753679281"><ele>42.0</ele><time>2026-05-03T14:37:49Z</time></trkpt><trkpt lat="41.17210989965889" lon="9.404379830461187"><ele>42.0</ele><time>2026-05-03T14:37:50Z</time></trkpt><trkpt lat="41.17214077811734" lon="9.404277754358047"><ele>43.6</ele><time>2026-05-03T14:37:51Z</time></trkpt><trkpt lat="41.172165672851" lon="9.404179639064443"><ele>45.2</ele><time>2026-05-03T14:37:52Z</time></trkpt><trkpt lat="41.172104135168496" lon="9.404055392871145"><ele>46.8</ele><time>2026-05-03T14:37:53Z</time></trkpt><trkpt lat="41.172061921596665" lon="9.40394481740588"><ele>48.4</ele><time>2026-05-03T14:37:54Z</time></trkpt><trkpt lat="41.172041229326" lon="9.403828464997089"><ele>50.0</ele><time>2026-05-03T14:37:55Z</time></trkpt><trkpt lat="41.17202448437891" lon="9.403704638726474"><ele>50.0</ele><time>2026-05-03T14:37:56Z</time></trkpt><trkpt lat="41.17198632098515" lon="9.403591766226576"><ele>50.0</ele><time>2026-05-03T14:37:57Z</time></trkpt><trkpt lat="41.17192051574283" lon="9.403509632453792"><ele>50.0</ele><time>2026-05-03T14:37:58Z</time></trkpt><trkpt lat="41.17182869895998" lon="9.403480549844057"><ele>50.0</ele><time>2026-05-03T14:37:59Z</time></trkpt><trkpt lat="41.17173063386772" lon="9.403484457855336"><ele>50.0</ele><time>2026-05-03T14:38:00Z</time></trkpt><trkpt lat="41.171634706955906" lon="9.40351441631712"><ele>50.00000000000001</ele><time>2026-05-03T14:38:01Z</time></trkpt><trkpt lat="41.171538802906895" lon="9.403534135136214"><ele>50.0</ele><time>2026-05-03T14:38:02Z</time></trkpt><trkpt lat="41.17144402459683" lon="9.40352419914385"><ele>50.0</ele><time>2026-05-03T14:38:03Z</time></trkpt><trkpt lat="41.171374405012784" lon="9.40345987125351"><ele>50.0</ele><time>2026-05-03T14:38:04Z</time></trkpt><trkpt lat="41.17135106003991" lon="9.403351219754763"><ele>50.00000000000001</ele><time>2026-05-03T14:38:05Z</time></trkpt><trkpt lat="41.1713390913985" lon="9.403243017740037"><ele>50.0</ele><time>2026-05-03T14:38:06Z</time></trkpt><trkpt lat="41.171308518556515" lon="9.403116518563685"><ele>51.8</ele><time>2026-05-03T14:38:07Z</time></trkpt><trkpt lat="41.17129366390083" lon="9.40296844481001"><ele>53.6</ele><time>2026-05-03T14:38:08Z</time></trkpt><trkpt lat="41.17126478097267" lon="9.40282071075951"><ele>55.400000000000006</ele><time>2026-05-03T14:38:09Z</time></trkpt><trkpt lat="41.171231669692496" lon="9.402674682834682"><ele>57.2</ele><time>2026-05-03T14:38:10Z</time></trkpt><trkpt lat="41.17118235452725" lon="9.402548600931762"><ele>59.0</ele><time>2026-05-03T14:38:11Z</time></trkpt><trkpt lat="41.171095777279284" lon="9.402458530468753"><ele>59.0</ele><time>2026-05-03T14:38:12Z</time></trkpt><trkpt lat="41.17098269387829" lon="9.402387622844042"><ele>59.0</ele><time>2026-05-03T14:38:13Z</time></trkpt><trkpt lat="41.17086408697526" lon="9.402321629487584"><ele>59.0</ele><time>2026-05-03T14:38:14Z</time></trkpt><trkpt lat="41.170738863868266" lon="9.402281564176604"><ele>59.0</ele><time>2026-05-03T14:38:15Z</time></trkpt><trkpt lat="41.17061773406455" lon="9.402226616507553"><ele>60.0</ele><time>2026-05-03T14:38:16Z</time></trkpt><trkpt lat="41.170496293188314" lon="9.402174309786185"><ele>61.0</ele><time>2026-05-03T14:38:17Z</time></trkpt><trkpt lat="41.170366891812364" lon="9.402152636113238"><ele>62.0</ele><time>2026-05-03T14:38:18Z</time></trkpt><trkpt lat="41.170239806635976" lon="9.402167678783174"><ele>63.0</ele><time>2026-05-03T14:38:19Z</time></trkpt><trkpt lat="41.170115602554624" lon="9.402198544417807"><ele>63.599999999999994</ele><time>2026-05-03T14:38:20Z</time></trkpt><trkpt lat="41.169995790056184" lon="9.402223202343441"><ele>64.19999999999999</ele><time>2026-05-03T14:38:21Z</time></trkpt><trkpt lat="41.16988640729921" lon="9.402242180753428"><ele>64.8</ele><time>2026-05-03T14:38:22Z</time></trkpt><trkpt lat="41.1697935077702" lon="9.402254532326603"><ele>65.39999999999999</ele><time>2026-05-03T14:38:23Z</time></trkpt><trkpt lat="41.169707401166335" lon="9.40226863645448"><ele>66.0</ele><time>2026-05-03T14:38:24Z</time></trkpt><trkpt lat="41.16961530006996" lon="9.402283861547469"><ele>66.6</ele><time>2026-05-03T14:38:25Z</time></trkpt><trkpt lat="41.16951617077054" lon="9.402296947752687"><ele>67.19999999999999</ele><time>2026-05-03T14:38:26Z</time></trkpt><trkpt lat="41.169407070547294" lon="9.402287551625909"><ele>67.80000000000001</ele><time>2026-05-03T14:38:27Z</time></trkpt><trkpt lat="41.16931346163572" lon="9.4022101253765"><ele>68.4</ele><time>2026-05-03T14:38:28Z</time></trkpt><trkpt lat="41.16921597802542" lon="9.402129382033573"><ele>69.0</ele><time>2026-05-03T14:38:29Z</time></trkpt><trkpt lat="41.16910568138174" lon="9.40206278692401"><ele>69.0</ele><time>2026-05-03T14:38:30Z</time></trkpt><trkpt lat="41.16900467616139" lon="9.401969417283105"><ele>69.0</ele><time>2026-05-03T14:38:31Z</time></trkpt><trkpt lat="41.16889802590655" lon="9.401878807931936"><ele>69.0</ele><time>2026-05-03T14:38:32Z</time></trkpt><trkpt lat="41.168786453828716" lon="9.401797561324369"><ele>69.0</ele><time>2026-05-03T14:38:33Z</time></trkpt><trkpt lat="41.168674943661316" lon="9.401714049689266"><ele>69.0</ele><time>2026-05-03T14:38:34Z</time></trkpt><trkpt lat="41.16854949935369" lon="9.401653392306686"><ele>69.0</ele><time>2026-05-03T14:38:35Z</time></trkpt><trkpt lat="41.168415218805734" lon="9.401614671685696"><ele>69.0</ele><time>2026-05-03T14:38:36Z</time></trkpt><trkpt lat="41.16828298659191" lon="9.401561309769779"><ele>69.0</ele><time>2026-05-03T14:38:37Z</time></trkpt><trkpt lat="41.168155991919775" lon="9.401506851898391"><ele>67.0</ele><time>2026-05-03T14:38:37.999Z</time></trkpt><trkpt lat="41.16803489403127" lon="9.401452682955071"><ele>65.0</ele><time>2026-05-03T14:38:38.999Z</time></trkpt><trkpt lat="41.16791879962619" lon="9.40140497439778"><ele>63.0</ele><time>2026-05-03T14:38:39.999Z</time></trkpt><trkpt lat="41.167802939172546" lon="9.401361686535669"><ele>61.0</ele><time>2026-05-03T14:38:40.999Z</time></trkpt><trkpt lat="41.16769243579732" lon="9.40133904240889"><ele>61.0</ele><time>2026-05-03T14:38:41.999Z</time></trkpt><trkpt lat="41.16758459209833" lon="9.401325673403932"><ele>61.0</ele><time>2026-05-03T14:38:42.999Z</time></trkpt><trkpt lat="41.16747943191241" lon="9.401380611605036"><ele>61.0</ele><time>2026-05-03T14:38:43.999Z</time></trkpt><trkpt lat="41.16739026819646" lon="9.40148199002362"><ele>61.0</ele><time>2026-05-03T14:38:44.999Z</time></trkpt><trkpt lat="41.16733100679065" lon="9.401612422910802"><ele>57.5</ele><time>2026-05-03T14:38:45.999Z</time></trkpt><trkpt lat="41.16730759488749" lon="9.40176104416111"><ele>54.0</ele><time>2026-05-03T14:38:46.999Z</time></trkpt><trkpt lat="41.16728014242623" lon="9.401902349599077"><ele>50.5</ele><time>2026-05-03T14:38:47.999Z</time></trkpt><trkpt lat="41.16724166070341" lon="9.402040603363458"><ele>47.0</ele><time>2026-05-03T14:38:48.999Z</time></trkpt><trkpt lat="41.16718671358132" lon="9.40217750725365"><ele>46.5</ele><time>2026-05-03T14:38:49.999Z</time></trkpt><trkpt lat="41.16711378623428" lon="9.402307113331348"><ele>46.0</ele><time>2026-05-03T14:38:50.999Z</time></trkpt><trkpt lat="41.16702576115368" lon="9.402430302495981"><ele>45.5</ele><time>2026-05-03T14:38:51.999Z</time></trkpt><trkpt lat="41.16693926303217" lon="9.402557183370394"><ele>45.0</ele><time>2026-05-03T14:38:52.999Z</time></trkpt><trkpt lat="41.16685603502717" lon="9.402682174803935"><ele>45.0</ele><time>2026-05-03T14:38:53.999Z</time></trkpt><trkpt lat="41.16677531661652" lon="9.402809811664454"><ele>45.0</ele><time>2026-05-03T14:38:54.999Z</time></trkpt><trkpt lat="41.16669264631494" lon="9.40293439124014"><ele>45.0</ele><time>2026-05-03T14:38:55.999Z</time></trkpt><trkpt lat="41.166597455738575" lon="9.40304394491507"><ele>45.0</ele><time>2026-05-03T14:38:56.999Z</time></trkpt><trkpt lat="41.1664942940419" lon="9.403118790162736"><ele>45.0</ele><time>2026-05-03T14:38:57.999Z</time></trkpt><trkpt lat="41.16638936037122" lon="9.403149319435213"><ele>45.0</ele><time>2026-05-03T14:38:58.999Z</time></trkpt><trkpt lat="41.16628118794745" lon="9.403134894543642"><ele>45.0</ele><time>2026-05-03T14:38:59.999Z</time></trkpt><trkpt lat="41.166172211674954" lon="9.403073680919539"><ele>45.0</ele><time>2026-05-03T14:39:00.999Z</time></trkpt><trkpt lat="41.1660659852858" lon="9.402994193045478"><ele>43.5</ele><time>2026-05-03T14:39:01.999Z</time></trkpt><trkpt lat="41.165959833204944" lon="9.402901814380431"><ele>42.0</ele><time>2026-05-03T14:39:02.999Z</time></trkpt><trkpt lat="41.16585243238385" lon="9.402809706745503"><ele>40.5</ele><time>2026-05-03T14:39:03.999Z</time></trkpt><trkpt lat="41.1657411454921" lon="9.402718068005797"><ele>39.0</ele><time>2026-05-03T14:39:04.999Z</time></trkpt><trkpt lat="41.165626955578055" lon="9.402627925872585"><ele>39.0</ele><time>2026-05-03T14:39:05.999Z</time></trkpt><trkpt lat="41.16551023942892" lon="9.402537213009147"><ele>39.0</ele><time>2026-05-03T14:39:06.999Z</time></trkpt><trkpt lat="41.165393296449494" lon="9.40244782045513"><ele>39.0</ele><time>2026-05-03T14:39:07.999Z</time></trkpt><trkpt lat="41.165284200108196" lon="9.40235388362791"><ele>39.0</ele><time>2026-05-03T14:39:08.999Z</time></trkpt><trkpt lat="41.16518509749833" lon="9.402255556247763"><ele>37.0</ele><time>2026-05-03T14:39:09.999Z</time></trkpt><trkpt lat="41.16509270252462" lon="9.402154187124301"><ele>35.0</ele><time>2026-05-03T14:39:10.999Z</time></trkpt><trkpt lat="41.16500678451019" lon="9.402052797017603"><ele>33.0</ele><time>2026-05-03T14:39:11.999Z</time></trkpt><trkpt lat="41.16492656117277" lon="9.401948589541302"><ele>31.0</ele><time>2026-05-03T14:39:12.999Z</time></trkpt><trkpt lat="41.164844568250366" lon="9.40184176153314"><ele>29.5</ele><time>2026-05-03T14:39:13.999Z</time></trkpt><trkpt lat="41.16475143498042" lon="9.401752278549564"><ele>28.0</ele><time>2026-05-03T14:39:14.999Z</time></trkpt><trkpt lat="41.16464081375163" lon="9.401693579836445"><ele>26.5</ele><time>2026-05-03T14:39:15.999Z</time></trkpt><trkpt lat="41.16452866589911" lon="9.401673494859484"><ele>25.0</ele><time>2026-05-03T14:39:16.999Z</time></trkpt><trkpt lat="41.164425135968706" lon="9.401711163994909"><ele>25.0</ele><time>2026-05-03T14:39:17.999Z</time></trkpt><trkpt lat="41.16433131480053" lon="9.401797057081243"><ele>25.0</ele><time>2026-05-03T14:39:18.999Z</time></trkpt><trkpt lat="41.164238823848954" lon="9.401900358052774"><ele>25.0</ele><time>2026-05-03T14:39:19.999Z</time></trkpt><trkpt lat="41.16413257451964" lon="9.401993090341072"><ele>25.0</ele><time>2026-05-03T14:39:20.999Z</time></trkpt><trkpt lat="41.16404385000328" lon="9.402087281437481"><ele>22.6</ele><time>2026-05-03T14:39:21.999Z</time></trkpt><trkpt lat="41.163950450901744" lon="9.402163712552886"><ele>20.2</ele><time>2026-05-03T14:39:22.999Z</time></trkpt><trkpt lat="41.16386103125829" lon="9.402208040213777"><ele>17.8</ele><time>2026-05-03T14:39:23.999Z</time></trkpt><trkpt lat="41.163760836554495" lon="9.402213257789612"><ele>15.4</ele><time>2026-05-03T14:39:24.999Z</time></trkpt><trkpt lat="41.16366885716431" lon="9.402152481998892"><ele>13.0</ele><time>2026-05-03T14:39:25.999Z</time></trkpt><trkpt lat="41.16359103039437" lon="9.402051153822727"><ele>13.0</ele><time>2026-05-03T14:39:26.999Z</time></trkpt><trkpt lat="41.16351670366564" lon="9.401930056946085"><ele>13.0</ele><time>2026-05-03T14:39:27.999Z</time></trkpt><trkpt lat="41.16344366646509" lon="9.401790967970435"><ele>13.0</ele><time>2026-05-03T14:39:28.999Z</time></trkpt><trkpt lat="41.16335089933964" lon="9.401649786112046"><ele>13.0</ele><time>2026-05-03T14:39:29.999Z</time></trkpt><trkpt lat="41.163237250718296" lon="9.401532233355892"><ele>12.5</ele><time>2026-05-03T14:39:31Z</time></trkpt><trkpt lat="41.163122460709175" lon="9.401412700248589"><ele>12.0</ele><time>2026-05-03T14:39:32Z</time></trkpt><trkpt lat="41.16299552006601" lon="9.401306355706502"><ele>11.5</ele><time>2026-05-03T14:39:33Z</time></trkpt><trkpt lat="41.162869230979325" lon="9.40120083877685"><ele>11.0</ele><time>2026-05-03T14:39:34Z</time></trkpt><trkpt lat="41.16274300629801" lon="9.401102661743053"><ele>11.0</ele><time>2026-05-03T14:39:35Z</time></trkpt><trkpt lat="41.162615464747596" lon="9.401005601106153"><ele>11.0</ele><time>2026-05-03T14:39:36Z</time></trkpt><trkpt lat="41.16249093267252" lon="9.400907938246124"><ele>11.0</ele><time>2026-05-03T14:39:37Z</time></trkpt><trkpt lat="41.16236979772395" lon="9.40080574739334"><ele>11.0</ele><time>2026-05-03T14:39:38Z</time></trkpt><trkpt lat="41.16225299188605" lon="9.400702371849246"><ele>11.0</ele><time>2026-05-03T14:39:39Z</time></trkpt><trkpt lat="41.16213784630088" lon="9.400599405238426"><ele>11.0</ele><time>2026-05-03T14:39:40Z</time></trkpt><trkpt lat="41.16202562905475" lon="9.400493286895188"><ele>11.0</ele><time>2026-05-03T14:39:41Z</time></trkpt><trkpt lat="41.16191506352071" lon="9.400385628987578"><ele>11.0</ele><time>2026-05-03T14:39:42Z</time></trkpt><trkpt lat="41.16180616254455" lon="9.400276909969953"><ele>11.0</ele><time>2026-05-03T14:39:43Z</time></trkpt><trkpt lat="41.161697763050626" lon="9.400167690586057"><ele>11.0</ele><time>2026-05-03T14:39:44Z</time></trkpt><trkpt lat="41.16158944447977" lon="9.400059763167505"><ele>11.0</ele><time>2026-05-03T14:39:45Z</time></trkpt><trkpt lat="41.16148022753915" lon="9.399953033851702"><ele>11.0</ele><time>2026-05-03T14:39:46Z</time></trkpt><trkpt lat="41.16136826772643" lon="9.399850841081726"><ele>11.0</ele><time>2026-05-03T14:39:47Z</time></trkpt><trkpt lat="41.16125578931729" lon="9.399746910762127"><ele>11.0</ele><time>2026-05-03T14:39:48Z</time></trkpt><trkpt lat="41.16114338546151" lon="9.39964360799898"><ele>11.0</ele><time>2026-05-03T14:39:49Z</time></trkpt><trkpt lat="41.16102938744601" lon="9.399541747655602"><ele>11.0</ele><time>2026-05-03T14:39:50Z</time></trkpt><trkpt lat="41.16091661956331" lon="9.399434182831687"><ele>10.5</ele><time>2026-05-03T14:39:51Z</time></trkpt><trkpt lat="41.16080619780564" lon="9.399320351091273"><ele>10.0</ele><time>2026-05-03T14:39:52Z</time></trkpt><trkpt lat="41.16069759311614" lon="9.399199781750156"><ele>9.5</ele><time>2026-05-03T14:39:53Z</time></trkpt><trkpt lat="41.16059080793609" lon="9.399078410092326"><ele>9.0</ele><time>2026-05-03T14:39:54Z</time></trkpt><trkpt lat="41.16049132866694" lon="9.398961395584337"><ele>9.0</ele><time>2026-05-03T14:39:55Z</time></trkpt><trkpt lat="41.16039246679634" lon="9.398850768459166"><ele>9.0</ele><time>2026-05-03T14:39:56Z</time></trkpt><trkpt lat="41.16029211312252" lon="9.398742199707248"><ele>9.0</ele><time>2026-05-03T14:39:57Z</time></trkpt><trkpt lat="41.160185862664235" lon="9.398630368284921"><ele>9.0</ele><time>2026-05-03T14:39:58Z</time></trkpt><trkpt lat="41.16007611832536" lon="9.398513733727125"><ele>9.0</ele><time>2026-05-03T14:39:59Z</time></trkpt><trkpt lat="41.1599665999564" lon="9.398390329694672"><ele>9.0</ele><time>2026-05-03T14:40:00Z</time></trkpt><trkpt lat="41.15985363482955" lon="9.398260486698447"><ele>9.0</ele><time>2026-05-03T14:40:01Z</time></trkpt><trkpt lat="41.15974119413955" lon="9.398127771783319"><ele>9.0</ele><time>2026-05-03T14:40:02Z</time></trkpt><trkpt lat="41.159635184226" lon="9.398001172966982"><ele>9.0</ele><time>2026-05-03T14:40:03Z</time></trkpt><trkpt lat="41.159533918332386" lon="9.397876372023713"><ele>9.0</ele><time>2026-05-03T14:40:04Z</time></trkpt><trkpt lat="41.15943515241354" lon="9.397757418727627"><ele>9.0</ele><time>2026-05-03T14:40:05Z</time></trkpt><trkpt lat="41.159339904664655" lon="9.397644352137185"><ele>9.0</ele><time>2026-05-03T14:40:06Z</time></trkpt><trkpt lat="41.159253075974206" lon="9.397537844521983"><ele>9.0</ele><time>2026-05-03T14:40:07Z</time></trkpt><trkpt lat="41.15917686946759" lon="9.397433268280576"><ele>9.0</ele><time>2026-05-03T14:40:08Z</time></trkpt><trkpt lat="41.159117752976925" lon="9.397327852041217"><ele>9.0</ele><time>2026-05-03T14:40:09Z</time></trkpt><trkpt lat="41.15907721766505" lon="9.397217050245503"><ele>9.0</ele><time>2026-05-03T14:40:10Z</time></trkpt><trkpt lat="41.15905275086199" lon="9.397101605995237"><ele>9.0</ele><time>2026-05-03T14:40:11Z</time></trkpt><trkpt lat="41.159000965206275" lon="9.397012008555656"><ele>10.2</ele><time>2026-05-03T14:40:12Z</time></trkpt><trkpt lat="41.15892599813633" lon="9.396977438282374"><ele>11.4</ele><time>2026-05-03T14:40:13Z</time></trkpt><trkpt lat="41.15884867171089" lon="9.396999303095678"><ele>12.6</ele><time>2026-05-03T14:40:14Z</time></trkpt><trkpt lat="41.158786536019804" lon="9.397075809961024"><ele>13.8</ele><time>2026-05-03T14:40:15Z</time></trkpt><trkpt lat="41.15874970817279" lon="9.397193402697082"><ele>15.0</ele><time>2026-05-03T14:40:16Z</time></trkpt><trkpt lat="41.15874063137491" lon="9.39734659903977"><ele>15.0</ele><time>2026-05-03T14:40:17Z</time></trkpt><trkpt lat="41.15869679787874" lon="9.397486805940307"><ele>15.0</ele><time>2026-05-03T14:40:18Z</time></trkpt><trkpt lat="41.15860897242738" lon="9.397614588816555"><ele>15.0</ele><time>2026-05-03T14:40:19Z</time></trkpt><trkpt lat="41.158516879013284" lon="9.397764825833436"><ele>15.0</ele><time>2026-05-03T14:40:20Z</time></trkpt><trkpt lat="41.158418920457656" lon="9.397936254147314"><ele>13.0</ele><time>2026-05-03T14:40:21Z</time></trkpt><trkpt lat="41.158314986228845" lon="9.398122865911722"><ele>11.0</ele><time>2026-05-03T14:40:22Z</time></trkpt><trkpt lat="41.15820660899141" lon="9.39832121552457"><ele>9.0</ele><time>2026-05-03T14:40:23Z</time></trkpt><trkpt lat="41.158096636219014" lon="9.398526774720755"><ele>12.0</ele><time>2026-05-03T14:40:24Z</time></trkpt><trkpt lat="41.15798114254641" lon="9.398729295271771"><ele>15.0</ele><time>2026-05-03T14:40:25Z</time></trkpt><trkpt lat="41.15786726237245" lon="9.398935520971245"><ele>18.0</ele><time>2026-05-03T14:40:26Z</time></trkpt><trkpt lat="41.157755275374285" lon="9.399144263215193"><ele>18.0</ele><time>2026-05-03T14:40:27Z</time></trkpt><trkpt lat="41.157648782065586" lon="9.399359675725735"><ele>18.0</ele><time>2026-05-03T14:40:27.999Z</time></trkpt><trkpt lat="41.1575446245141" lon="9.399576663548249"><ele>18.0</ele><time>2026-05-03T14:40:28.999Z</time></trkpt><trkpt lat="41.157448865568746" lon="9.399796819048003"><ele>23.0</ele><time>2026-05-03T14:40:29.999Z</time></trkpt><trkpt lat="41.157363420313246" lon="9.400017880725402"><ele>28.0</ele><time>2026-05-03T14:40:30.999Z</time></trkpt><trkpt lat="41.15727450415718" lon="9.400234506246068"><ele>33.0</ele><time>2026-05-03T14:40:31.999Z</time></trkpt><trkpt lat="41.15718922921934" lon="9.400449803174315"><ele>30.0</ele><time>2026-05-03T14:40:32.999Z</time></trkpt><trkpt lat="41.157105845942354" lon="9.400662417839296"><ele>27.0</ele><time>2026-05-03T14:40:33.999Z</time></trkpt><trkpt lat="41.157025411241335" lon="9.400874941109917"><ele>24.0</ele><time>2026-05-03T14:40:34.999Z</time></trkpt><trkpt lat="41.156951000289055" lon="9.40108861928072"><ele>24.0</ele><time>2026-05-03T14:40:35.999Z</time></trkpt><trkpt lat="41.15688282330258" lon="9.401302492147112"><ele>24.0</ele><time>2026-05-03T14:40:36.999Z</time></trkpt><trkpt lat="41.15681631748659" lon="9.401515709325803"><ele>24.0</ele><time>2026-05-03T14:40:37.999Z</time></trkpt><trkpt lat="41.1567486048775" lon="9.401724324845455"><ele>21.333333333333332</ele><time>2026-05-03T14:40:38.999Z</time></trkpt><trkpt lat="41.15667861894762" lon="9.401928772988938"><ele>18.666666666666664</ele><time>2026-05-03T14:40:39.999Z</time></trkpt><trkpt lat="41.15661301994945" lon="9.4021339804656"><ele>16.0</ele><time>2026-05-03T14:40:40.999Z</time></trkpt><trkpt lat="41.156553203727746" lon="9.402339483452295"><ele>18.666666666666664</ele><time>2026-05-03T14:40:41.999Z</time></trkpt><trkpt lat="41.15650273248015" lon="9.402542646669376"><ele>21.333333333333332</ele><time>2026-05-03T14:40:42.999Z</time></trkpt><trkpt lat="41.156444435187744" lon="9.402743592393858"><ele>24.0</ele><time>2026-05-03T14:40:43.999Z</time></trkpt><trkpt lat="41.15642168359985" lon="9.40295999467082"><ele>21.666666666666668</ele><time>2026-05-03T14:40:44.999Z</time></trkpt><trkpt lat="41.156406383625075" lon="9.40317397809741"><ele>19.333333333333336</ele><time>2026-05-03T14:40:45.999Z</time></trkpt><trkpt lat="41.15639098940265" lon="9.403390916822522"><ele>17.0</ele><time>2026-05-03T14:40:46.999Z</time></trkpt><trkpt lat="41.15638357557773" lon="9.403603305317237"><ele>17.0</ele><time>2026-05-03T14:40:47.999Z</time></trkpt><trkpt lat="41.15634862682072" lon="9.403784639786855"><ele>17.0</ele><time>2026-05-03T14:40:48.999Z</time></trkpt><trkpt lat="41.15635520157226" lon="9.403953418642933"><ele>17.0</ele><time>2026-05-03T14:40:49.999Z</time></trkpt><trkpt lat="41.15641655080206" lon="9.40410028500642"><ele>17.0</ele><time>2026-05-03T14:40:50.999Z</time></trkpt><trkpt lat="41.15647325461733" lon="9.404252175636163"><ele>15.5</ele><time>2026-05-03T14:40:51.999Z</time></trkpt><trkpt lat="41.1565380810596" lon="9.404408454357633"><ele>14.0</ele><time>2026-05-03T14:40:52.999Z</time></trkpt><trkpt lat="41.15661916807172" lon="9.404559335583523"><ele>12.5</ele><time>2026-05-03T14:40:53.999Z</time></trkpt><trkpt lat="41.15670447600458" lon="9.404708774967654"><ele>11.0</ele><time>2026-05-03T14:40:54.999Z</time></trkpt><trkpt lat="41.15678179341448" lon="9.404865750268115"><ele>11.0</ele><time>2026-05-03T14:40:55.999Z</time></trkpt><trkpt lat="41.15683359104085" lon="9.405030180567575"><ele>11.0</ele><time>2026-05-03T14:40:56.999Z</time></trkpt><trkpt lat="41.15685641693731" lon="9.405203760780495"><ele>11.0</ele><time>2026-05-03T14:40:57.999Z</time></trkpt><trkpt lat="41.15685816672274" lon="9.40537597778432"><ele>11.0</ele><time>2026-05-03T14:40:58.999Z</time></trkpt><trkpt lat="41.156845420639044" lon="9.405548658958311"><ele>10.0</ele><time>2026-05-03T14:40:59.999Z</time></trkpt><trkpt lat="41.15680999056608" lon="9.40571106562719"><ele>9.0</ele><time>2026-05-03T14:41:00.999Z</time></trkpt><trkpt lat="41.15675481980441" lon="9.405871056077794"><ele>8.0</ele><time>2026-05-03T14:41:01.999Z</time></trkpt><trkpt lat="41.15667365546286" lon="9.406011355685928"><ele>7.0</ele><time>2026-05-03T14:41:02.999Z</time></trkpt><trkpt lat="41.15661796654133" lon="9.406169297058213"><ele>7.0</ele><time>2026-05-03T14:41:03.999Z</time></trkpt><trkpt lat="41.156553916972356" lon="9.406314462932324"><ele>7.0</ele><time>2026-05-03T14:41:04.999Z</time></trkpt><trkpt lat="41.15649559114665" lon="9.406465142447335"><ele>7.0</ele><time>2026-05-03T14:41:05.999Z</time></trkpt><trkpt lat="41.15643569350022" lon="9.406613081666034"><ele>7.0</ele><time>2026-05-03T14:41:06.999Z</time></trkpt><trkpt lat="41.156359176752574" lon="9.406747146080056"><ele>6.75</ele><time>2026-05-03T14:41:07.999Z</time></trkpt><trkpt lat="41.156308168142026" lon="9.406900179884484"><ele>6.5</ele><time>2026-05-03T14:41:08.999Z</time></trkpt><trkpt lat="41.15623773196075" lon="9.407040450970465"><ele>6.25</ele><time>2026-05-03T14:41:09.999Z</time></trkpt><trkpt lat="41.15614756828791" lon="9.407154630156274"><ele>6.0</ele><time>2026-05-03T14:41:10.999Z</time></trkpt><trkpt lat="41.15606115612967" lon="9.407259022708367"><ele>6.0</ele><time>2026-05-03T14:41:11.999Z</time></trkpt><trkpt lat="41.1559619352778" lon="9.40735099440443"><ele>6.0</ele><time>2026-05-03T14:41:12.999Z</time></trkpt><trkpt lat="41.15585998679902" lon="9.40743818775029"><ele>6.0</ele><time>2026-05-03T14:41:13.999Z</time></trkpt><trkpt lat="41.155757598858585" lon="9.407526395652651"><ele>6.0</ele><time>2026-05-03T14:41:14.999Z</time></trkpt><trkpt lat="41.155653750555075" lon="9.407614918700595"><ele>6.25</ele><time>2026-05-03T14:41:15.999Z</time></trkpt><trkpt lat="41.155549235599004" lon="9.407704180542105"><ele>6.5</ele><time>2026-05-03T14:41:16.999Z</time></trkpt><trkpt lat="41.155443505105346" lon="9.407798259228263"><ele>6.75</ele><time>2026-05-03T14:41:17.999Z</time></trkpt><trkpt lat="41.15534694397789" lon="9.407911281118183"><ele>7.0</ele><time>2026-05-03T14:41:18.999Z</time></trkpt><trkpt lat="41.155248627562926" lon="9.408006754945124"><ele>7.0</ele><time>2026-05-03T14:41:19.999Z</time></trkpt><trkpt lat="41.15515911563583" lon="9.40810249783026"><ele>7.0</ele><time>2026-05-03T14:41:20.999Z</time></trkpt><trkpt lat="41.15507043490077" lon="9.40819370579434"><ele>7.0</ele><time>2026-05-03T14:41:21.999Z</time></trkpt><trkpt lat="41.15500667024076" lon="9.408324019250419"><ele>7.0</ele><time>2026-05-03T14:41:22.999Z</time></trkpt><trkpt lat="41.15498289914927" lon="9.408473196678894"><ele>7.0</ele><time>2026-05-03T14:41:23.999Z</time></trkpt><trkpt lat="41.155035041389276" lon="9.408611116387103"><ele>6.999999999999999</ele><time>2026-05-03T14:41:24.999Z</time></trkpt><trkpt lat="41.15508568246446" lon="9.40870525379175"><ele>6.999999999999999</ele><time>2026-05-03T14:41:25.999Z</time></trkpt><trkpt lat="41.15516128904158" lon="9.40879102671073"><ele>7.0</ele><time>2026-05-03T14:41:26.999Z</time></trkpt><trkpt lat="41.15524281625666" lon="9.408885845471675"><ele>7.0</ele><time>2026-05-03T14:41:27.999Z</time></trkpt><trkpt lat="41.1553100179676" lon="9.408994776807852"><ele>8.0</ele><time>2026-05-03T14:41:28.999Z</time></trkpt><trkpt lat="41.15534986623417" lon="9.409119528981789"><ele>9.0</ele><time>2026-05-03T14:41:29.999Z</time></trkpt><trkpt lat="41.15534188680135" lon="9.409268966242958"><ele>10.0</ele><time>2026-05-03T14:41:30.999Z</time></trkpt><trkpt lat="41.155339316449236" lon="9.409432582773158"><ele>11.0</ele><time>2026-05-03T14:41:31.999Z</time></trkpt><trkpt lat="41.155330273924896" lon="9.409606288549021"><ele>11.25</ele><time>2026-05-03T14:41:32.999Z</time></trkpt><trkpt lat="41.15531784407412" lon="9.409796501148795"><ele>11.5</ele><time>2026-05-03T14:41:33.999Z</time></trkpt><trkpt lat="41.15530095888011" lon="9.409995896238325"><ele>11.75</ele><time>2026-05-03T14:41:34.999Z</time></trkpt><trkpt lat="41.1552838582201" lon="9.41017427095048"><ele>12.0</ele><time>2026-05-03T14:41:35.999Z</time></trkpt><trkpt lat="41.15526407107521" lon="9.410344399087123"><ele>10.0</ele><time>2026-05-03T14:41:37Z</time></trkpt><trkpt lat="41.15523425217969" lon="9.410498793652415"><ele>8.0</ele><time>2026-05-03T14:41:38Z</time></trkpt><trkpt lat="41.1551821588945" lon="9.410630601734468"><ele>6.0</ele><time>2026-05-03T14:41:39Z</time></trkpt><trkpt lat="41.155096584283704" lon="9.410746970857238"><ele>4.0</ele><time>2026-05-03T14:41:40Z</time></trkpt><trkpt lat="41.15503613368312" lon="9.410871152353051"><ele>4.0</ele><time>2026-05-03T14:41:41Z</time></trkpt><trkpt lat="41.1550051286537" lon="9.411007398112865"><ele>4.0</ele><time>2026-05-03T14:41:42Z</time></trkpt><trkpt lat="41.15502872241638" lon="9.411152774047356"><ele>4.0</ele><time>2026-05-03T14:41:43Z</time></trkpt><trkpt lat="41.15508779473038" lon="9.411282853899964"><ele>4.0</ele><time>2026-05-03T14:41:44Z</time></trkpt><trkpt lat="41.15518540254337" lon="9.411382797195577"><ele>5.0</ele><time>2026-05-03T14:41:45Z</time></trkpt><trkpt lat="41.15527283751057" lon="9.41148943343033"><ele>6.0</ele><time>2026-05-03T14:41:46Z</time></trkpt><trkpt lat="41.15534948402945" lon="9.411614471005647"><ele>7.0</ele><time>2026-05-03T14:41:47Z</time></trkpt><trkpt lat="41.15543935032683" lon="9.411738797037556"><ele>8.0</ele><time>2026-05-03T14:41:48Z</time></trkpt><trkpt lat="41.1554968051066" lon="9.411899701498935"><ele>8.0</ele><time>2026-05-03T14:41:49Z</time></trkpt><trkpt lat="41.15553775088651" lon="9.412078719821839"><ele>8.0</ele><time>2026-05-03T14:41:50Z</time></trkpt><trkpt lat="41.155569631286745" lon="9.412262386443697"><ele>8.0</ele><time>2026-05-03T14:41:51Z</time></trkpt><trkpt lat="41.1556027304887" lon="9.412441416859723"><ele>8.0</ele><time>2026-05-03T14:41:52Z</time></trkpt><trkpt lat="41.155645650743814" lon="9.412611358343076"><ele>7.25</ele><time>2026-05-03T14:41:53Z</time></trkpt><trkpt lat="41.15568919256969" lon="9.412772735541518"><ele>6.5</ele><time>2026-05-03T14:41:54Z</time></trkpt><trkpt lat="41.15572296498647" lon="9.412954218669707"><ele>5.75</ele><time>2026-05-03T14:41:55Z</time></trkpt><trkpt lat="41.155756964237256" lon="9.413133569016312"><ele>5.0</ele><time>2026-05-03T14:41:56Z</time></trkpt><trkpt lat="41.155790648407454" lon="9.41331579418278"><ele>5.0</ele><time>2026-05-03T14:41:57Z</time></trkpt><trkpt lat="41.155825455529616" lon="9.41350423379883"><ele>5.0</ele><time>2026-05-03T14:41:58Z</time></trkpt><trkpt lat="41.15585830542698" lon="9.413686935059934"><ele>5.0</ele><time>2026-05-03T14:41:59Z</time></trkpt><trkpt lat="41.155893505376646" lon="9.413872900462088"><ele>5.0</ele><time>2026-05-03T14:42:00Z</time></trkpt><trkpt lat="41.15592857450974" lon="9.414056448443816"><ele>5.5</ele><time>2026-05-03T14:42:01Z</time></trkpt><trkpt lat="41.155959723441185" lon="9.4142451212573"><ele>6.0</ele><time>2026-05-03T14:42:02Z</time></trkpt><trkpt lat="41.155980409798296" lon="9.414437467529105"><ele>6.5</ele><time>2026-05-03T14:42:03Z</time></trkpt><trkpt lat="41.155995698668576" lon="9.414628096110693"><ele>7.0</ele><time>2026-05-03T14:42:04Z</time></trkpt><trkpt lat="41.155988951172475" lon="9.41482239700206"><ele>7.0</ele><time>2026-05-03T14:42:05Z</time></trkpt><trkpt lat="41.15601124973004" lon="9.415009436906937"><ele>7.0</ele><time>2026-05-03T14:42:06Z</time></trkpt><trkpt lat="41.15598594567291" lon="9.415197818461092"><ele>7.0</ele><time>2026-05-03T14:42:07Z</time></trkpt><trkpt lat="41.15595116506693" lon="9.415382622572555"><ele>7.0</ele><time>2026-05-03T14:42:08Z</time></trkpt><trkpt lat="41.155913858638705" lon="9.415570511252923"><ele>7.25</ele><time>2026-05-03T14:42:09Z</time></trkpt><trkpt lat="41.15589133878499" lon="9.415769129768067"><ele>7.5</ele><time>2026-05-03T14:42:10Z</time></trkpt><trkpt lat="41.155845986453684" lon="9.415949039151597"><ele>7.75</ele><time>2026-05-03T14:42:11Z</time></trkpt><trkpt lat="41.15577860741657" lon="9.416095310040912"><ele>8.0</ele><time>2026-05-03T14:42:12Z</time></trkpt><trkpt lat="41.155749278640926" lon="9.416253579264307"><ele>7.75</ele><time>2026-05-03T14:42:13Z</time></trkpt><trkpt lat="41.15577370108592" lon="9.416418741558616"><ele>7.5</ele><time>2026-05-03T14:42:14Z</time></trkpt><trkpt lat="41.155805245968956" lon="9.41658805749092"><ele>7.25</ele><time>2026-05-03T14:42:15Z</time></trkpt><trkpt lat="41.155843739192214" lon="9.416768914068166"><ele>7.0</ele><time>2026-05-03T14:42:16Z</time></trkpt><trkpt lat="41.15587019826075" lon="9.41696098423954"><ele>6.5</ele><time>2026-05-03T14:42:17Z</time></trkpt><trkpt lat="41.15588916267633" lon="9.417159338061909"><ele>6.0</ele><time>2026-05-03T14:42:18Z</time></trkpt><trkpt lat="41.15587496955897" lon="9.417350372304986"><ele>5.5</ele><time>2026-05-03T14:42:19Z</time></trkpt><trkpt lat="41.15587106343579" lon="9.417542227754945"><ele>5.0</ele><time>2026-05-03T14:42:20Z</time></trkpt><trkpt lat="41.15582667894405" lon="9.41772748490931"><ele>5.0</ele><time>2026-05-03T14:42:21Z</time></trkpt><trkpt lat="41.155772277444306" lon="9.417907868320365"><ele>5.0</ele><time>2026-05-03T14:42:22Z</time></trkpt><trkpt lat="41.1557057332245" lon="9.418078939505962"><ele>5.0</ele><time>2026-05-03T14:42:23Z</time></trkpt><trkpt lat="41.155614724782744" lon="9.418226829304448"><ele>5.0</ele><time>2026-05-03T14:42:24Z</time></trkpt><trkpt lat="41.15552813698694" lon="9.418381930720027"><ele>4.666666666666667</ele><time>2026-05-03T14:42:25Z</time></trkpt><trkpt lat="41.155445859398334" lon="9.41854821090542"><ele>4.333333333333333</ele><time>2026-05-03T14:42:26Z</time></trkpt><trkpt lat="41.15536624568321" lon="9.418719353451813"><ele>4.0</ele><time>2026-05-03T14:42:27Z</time></trkpt><trkpt lat="41.15529717492478" lon="9.418894348422878"><ele>4.0</ele><time>2026-05-03T14:42:28Z</time></trkpt><trkpt lat="41.155239470994275" lon="9.419053819291985"><ele>4.0</ele><time>2026-05-03T14:42:29Z</time></trkpt><trkpt lat="41.155181157333104" lon="9.419205008033831"><ele>4.0</ele><time>2026-05-03T14:42:30Z</time></trkpt><trkpt lat="41.15511240367185" lon="9.419346521233994"><ele>4.0</ele><time>2026-05-03T14:42:31Z</time></trkpt><trkpt lat="41.155030563015764" lon="9.419482357750287"><ele>4.0</ele><time>2026-05-03T14:42:32Z</time></trkpt><trkpt lat="41.15493715179848" lon="9.419609251014833"><ele>4.0</ele><time>2026-05-03T14:42:32.999Z</time></trkpt><trkpt lat="41.15483381170611" lon="9.419712686146962"><ele>4.0</ele><time>2026-05-03T14:42:33.999Z</time></trkpt><trkpt lat="41.15471395087016" lon="9.41980504728291"><ele>4.0</ele><time>2026-05-03T14:42:34.999Z</time></trkpt><trkpt lat="41.15460381332455" lon="9.41991160341946"><ele>4.75</ele><time>2026-05-03T14:42:35.999Z</time></trkpt><trkpt lat="41.15450551674648" lon="9.420031372670827"><ele>5.5</ele><time>2026-05-03T14:42:36.999Z</time></trkpt><trkpt lat="41.154415481047465" lon="9.420161292495711"><ele>6.25</ele><time>2026-05-03T14:42:37.999Z</time></trkpt><trkpt lat="41.15435047156422" lon="9.420315233954023"><ele>7.0</ele><time>2026-05-03T14:42:38.999Z</time></trkpt><trkpt lat="41.15429823786334" lon="9.420478834989598"><ele>7.25</ele><time>2026-05-03T14:42:39.999Z</time></trkpt><trkpt lat="41.154243477361646" lon="9.420637879215816"><ele>7.5</ele><time>2026-05-03T14:42:40.999Z</time></trkpt><trkpt lat="41.154189912381746" lon="9.42079377609808"><ele>7.75</ele><time>2026-05-03T14:42:41.999Z</time></trkpt><trkpt lat="41.15413951309699" lon="9.420946365671108"><ele>8.0</ele><time>2026-05-03T14:42:42.999Z</time></trkpt><trkpt lat="41.15410176937068" lon="9.421103363045276"><ele>8.0</ele><time>2026-05-03T14:42:43.999Z</time></trkpt><trkpt lat="41.15407276485067" lon="9.421262050564382"><ele>8.0</ele><time>2026-05-03T14:42:44.999Z</time></trkpt><trkpt lat="41.15404669058512" lon="9.421422163181896"><ele>8.0</ele><time>2026-05-03T14:42:45.999Z</time></trkpt><trkpt lat="41.154035146298256" lon="9.42158029835216"><ele>8.0</ele><time>2026-05-03T14:42:46.999Z</time></trkpt><trkpt lat="41.154042596082476" lon="9.421736356058815"><ele>8.25</ele><time>2026-05-03T14:42:47.999Z</time></trkpt><trkpt lat="41.154069704113084" lon="9.4218865185103"><ele>8.5</ele><time>2026-05-03T14:42:48.999Z</time></trkpt><trkpt lat="41.154099857030474" lon="9.422039432305608"><ele>8.75</ele><time>2026-05-03T14:42:49.999Z</time></trkpt><trkpt lat="41.15412664780619" lon="9.422192381848813"><ele>9.0</ele><time>2026-05-03T14:42:50.999Z</time></trkpt><trkpt lat="41.15414242883051" lon="9.422346410211043"><ele>10.75</ele><time>2026-05-03T14:42:51.999Z</time></trkpt><trkpt lat="41.154148284042485" lon="9.42249954310138"><ele>12.5</ele><time>2026-05-03T14:42:52.999Z</time></trkpt><trkpt lat="41.15414699332555" lon="9.422653619914934"><ele>14.25</ele><time>2026-05-03T14:42:53.999Z</time></trkpt><trkpt lat="41.15413441146287" lon="9.42280801439407"><ele>16.0</ele><time>2026-05-03T14:42:54.999Z</time></trkpt><trkpt lat="41.1541143588847" lon="9.42296390127119"><ele>16.0</ele><time>2026-05-03T14:42:55.999Z</time></trkpt><trkpt lat="41.15409917232561" lon="9.423120956987407"><ele>16.0</ele><time>2026-05-03T14:42:56.999Z</time></trkpt><trkpt lat="41.15408845243798" lon="9.423278091244738"><ele>16.0</ele><time>2026-05-03T14:42:57.999Z</time></trkpt><trkpt lat="41.15408871862464" lon="9.42343443659678"><ele>16.0</ele><time>2026-05-03T14:42:58.999Z</time></trkpt><trkpt lat="41.154126477087175" lon="9.42358230568189"><ele>16.0</ele><time>2026-05-03T14:42:59.999Z</time></trkpt><trkpt lat="41.154191944176205" lon="9.423715356394919"><ele>16.0</ele><time>2026-05-03T14:43:00.999Z</time></trkpt><trkpt lat="41.15426511317271" lon="9.423830738934134"><ele>16.0</ele><time>2026-05-03T14:43:01.999Z</time></trkpt><trkpt lat="41.15433514009904" lon="9.423949561216135"><ele>16.0</ele><time>2026-05-03T14:43:02.999Z</time></trkpt><trkpt lat="41.15437948463939" lon="9.424080320921778"><ele>16.0</ele><time>2026-05-03T14:43:03.999Z</time></trkpt><trkpt lat="41.15438941065181" lon="9.4242241247926"><ele>16.0</ele><time>2026-05-03T14:43:04.999Z</time></trkpt><trkpt lat="41.1543598085953" lon="9.424371785113253"><ele>16.0</ele><time>2026-05-03T14:43:05.999Z</time></trkpt><trkpt lat="41.154314366676346" lon="9.424512186517706"><ele>16.0</ele><time>2026-05-03T14:43:06.999Z</time></trkpt><trkpt lat="41.154256464484845" lon="9.424668112737828"><ele>16.0</ele><time>2026-05-03T14:43:07.999Z</time></trkpt><trkpt lat="41.154191987052485" lon="9.424825811408207"><ele>16.0</ele><time>2026-05-03T14:43:08.999Z</time></trkpt><trkpt lat="41.15413037153947" lon="9.424974399107695"><ele>16.0</ele><time>2026-05-03T14:43:09.999Z</time></trkpt><trkpt lat="41.15408528292851" lon="9.42511982294003"><ele>16.0</ele><time>2026-05-03T14:43:10.999Z</time></trkpt><trkpt lat="41.15400876847862" lon="9.425234422165826"><ele>17.75</ele><time>2026-05-03T14:43:11.999Z</time></trkpt><trkpt lat="41.15392816801783" lon="9.425342153448069"><ele>19.5</ele><time>2026-05-03T14:43:12.999Z</time></trkpt><trkpt lat="41.15382594709398" lon="9.425436563389908"><ele>21.25</ele><time>2026-05-03T14:43:13.999Z</time></trkpt><trkpt lat="41.15370810026101" lon="9.425532755113078"><ele>23.0</ele><time>2026-05-03T14:43:14.999Z</time></trkpt><trkpt lat="41.15359135323165" lon="9.425647302004704"><ele>23.0</ele><time>2026-05-03T14:43:15.999Z</time></trkpt><trkpt lat="41.15348648780241" lon="9.425777624594994"><ele>23.0</ele><time>2026-05-03T14:43:16.999Z</time></trkpt><trkpt lat="41.153393441659496" lon="9.425930899089712"><ele>23.0</ele><time>2026-05-03T14:43:17.999Z</time></trkpt><trkpt lat="41.15328726109091" lon="9.426070537655159"><ele>23.0</ele><time>2026-05-03T14:43:18.999Z</time></trkpt><trkpt lat="41.1531706888668" lon="9.426195038777212"><ele>22.5</ele><time>2026-05-03T14:43:19.999Z</time></trkpt><trkpt lat="41.15307114981676" lon="9.426322853567138"><ele>22.0</ele><time>2026-05-03T14:43:20.999Z</time></trkpt><trkpt lat="41.152984853571084" lon="9.426436712987485"><ele>21.5</ele><time>2026-05-03T14:43:21.999Z</time></trkpt><trkpt lat="41.1529112487425" lon="9.426549550452359"><ele>21.0</ele><time>2026-05-03T14:43:22.999Z</time></trkpt><trkpt lat="41.15281333429636" lon="9.426628523380112"><ele>21.0</ele><time>2026-05-03T14:43:23.999Z</time></trkpt><trkpt lat="41.15269283202826" lon="9.426659211236965"><ele>21.0</ele><time>2026-05-03T14:43:24.999Z</time></trkpt><trkpt lat="41.15256459406326" lon="9.426685207708266"><ele>21.0</ele><time>2026-05-03T14:43:25.999Z</time></trkpt><trkpt lat="41.15242801856906" lon="9.426698104181641"><ele>21.0</ele><time>2026-05-03T14:43:26.999Z</time></trkpt><trkpt lat="41.152280548541825" lon="9.426719617941412"><ele>22.0</ele><time>2026-05-03T14:43:27.999Z</time></trkpt><trkpt lat="41.15213502275075" lon="9.426799848700577"><ele>23.0</ele><time>2026-05-03T14:43:28.999Z</time></trkpt><trkpt lat="41.15198128309162" lon="9.426849605026407"><ele>24.0</ele><time>2026-05-03T14:43:29.999Z</time></trkpt><trkpt lat="41.15182790950275" lon="9.426915701848262"><ele>24.0</ele><time>2026-05-03T14:43:30.999Z</time></trkpt><trkpt lat="41.15167537986609" lon="9.426984554772687"><ele>24.0</ele><time>2026-05-03T14:43:31.999Z</time></trkpt><trkpt lat="41.15152613831162" lon="9.427046420294587"><ele>24.0</ele><time>2026-05-03T14:43:32.999Z</time></trkpt><trkpt lat="41.15137923151019" lon="9.427105762189097"><ele>24.0</ele><time>2026-05-03T14:43:33.999Z</time></trkpt><trkpt lat="41.15123419100712" lon="9.427161675667719"><ele>24.0</ele><time>2026-05-03T14:43:34.999Z</time></trkpt><trkpt lat="41.151091562798534" lon="9.427212617463013"><ele>24.0</ele><time>2026-05-03T14:43:35.999Z</time></trkpt><trkpt lat="41.150950014277186" lon="9.427263173640027"><ele>24.0</ele><time>2026-05-03T14:43:36.999Z</time></trkpt><trkpt lat="41.150773614539425" lon="9.427324163246542"><ele>24.25</ele><time>2026-05-03T14:43:37.999Z</time></trkpt><trkpt lat="41.15062811850831" lon="9.427364510114822"><ele>24.5</ele><time>2026-05-03T14:43:38.999Z</time></trkpt><trkpt lat="41.15048091812794" lon="9.427378815101465"><ele>24.75</ele><time>2026-05-03T14:43:39.999Z</time></trkpt><trkpt lat="41.15034582855148" lon="9.427353404611685"><ele>25.0</ele><time>2026-05-03T14:43:40.999Z</time></trkpt><trkpt lat="41.15022308827004" lon="9.427310978270366"><ele>25.0</ele><time>2026-05-03T14:43:41.999Z</time></trkpt><trkpt lat="41.150079575824904" lon="9.427265090605292"><ele>25.0</ele><time>2026-05-03T14:43:43Z</time></trkpt><trkpt lat="41.149938219828016" lon="9.427210516732794"><ele>25.0</ele><time>2026-05-03T14:43:44Z</time></trkpt><trkpt lat="41.14978495261094" lon="9.427149709330827"><ele>25.0</ele><time>2026-05-03T14:43:45Z</time></trkpt><trkpt lat="41.149632374528764" lon="9.427089175335404"><ele>25.0</ele><time>2026-05-03T14:43:46Z</time></trkpt><trkpt lat="41.14948073409157" lon="9.427028961338387"><ele>25.0</ele><time>2026-05-03T14:43:47Z</time></trkpt><trkpt lat="41.149329939848656" lon="9.426968557261915"><ele>25.0</ele><time>2026-05-03T14:43:48Z</time></trkpt><trkpt lat="41.14918105047414" lon="9.426908916220183"><ele>25.0</ele><time>2026-05-03T14:43:49Z</time></trkpt><trkpt lat="41.14904225167227" lon="9.426853317188373"><ele>25.0</ele><time>2026-05-03T14:43:50Z</time></trkpt><trkpt lat="41.1489082961594" lon="9.426822502421157"><ele>25.0</ele><time>2026-05-03T14:43:51Z</time></trkpt><trkpt lat="41.14878404375397" lon="9.42676236389554"><ele>23.25</ele><time>2026-05-03T14:43:52Z</time></trkpt><trkpt lat="41.14865290985692" lon="9.426712738346907"><ele>21.5</ele><time>2026-05-03T14:43:53Z</time></trkpt><trkpt lat="41.14852426784281" lon="9.42665615805064"><ele>19.75</ele><time>2026-05-03T14:43:54Z</time></trkpt><trkpt lat="41.14839356237457" lon="9.42659998076613"><ele>18.0</ele><time>2026-05-03T14:43:55Z</time></trkpt><trkpt lat="41.148284346403365" lon="9.426504887420165"><ele>16.75</ele><time>2026-05-03T14:43:56Z</time></trkpt><trkpt lat="41.14816756818655" lon="9.426410645908657"><ele>15.5</ele><time>2026-05-03T14:43:57Z</time></trkpt><trkpt lat="41.14804484256622" lon="9.426334194109764"><ele>14.25</ele><time>2026-05-03T14:43:58Z</time></trkpt><trkpt lat="41.14793844885538" lon="9.426238111072706"><ele>13.0</ele><time>2026-05-03T14:43:59Z</time></trkpt><trkpt lat="41.14783856337756" lon="9.426137727609856"><ele>13.0</ele><time>2026-05-03T14:44:00Z</time></trkpt><trkpt lat="41.147721517696404" lon="9.426076131425484"><ele>13.0</ele><time>2026-05-03T14:44:01Z</time></trkpt><trkpt lat="41.14759307269945" lon="9.426033439636356"><ele>13.0</ele><time>2026-05-03T14:44:02Z</time></trkpt><trkpt lat="41.14745523140087" lon="9.42602613080459"><ele>13.0</ele><time>2026-05-03T14:44:03Z</time></trkpt><trkpt lat="41.14731723260441" lon="9.426030306543616"><ele>13.333333333333332</ele><time>2026-05-03T14:44:04Z</time></trkpt><trkpt lat="41.14717461706589" lon="9.426044538616566"><ele>13.666666666666668</ele><time>2026-05-03T14:44:05Z</time></trkpt><trkpt lat="41.14702128211051" lon="9.426054264075264"><ele>14.0</ele><time>2026-05-03T14:44:06Z</time></trkpt><trkpt lat="41.14686018944391" lon="9.42605492190636"><ele>14.0</ele><time>2026-05-03T14:44:07Z</time></trkpt><trkpt lat="41.146696399061305" lon="9.426061211963338"><ele>14.0</ele><time>2026-05-03T14:44:08Z</time></trkpt><trkpt lat="41.146534597463315" lon="9.426065941121655"><ele>14.0</ele><time>2026-05-03T14:44:09Z</time></trkpt><trkpt lat="41.14637466213768" lon="9.426060597992896"><ele>14.666666666666668</ele><time>2026-05-03T14:44:10Z</time></trkpt><trkpt lat="41.14621682583566" lon="9.426059583503733"><ele>15.333333333333332</ele><time>2026-05-03T14:44:11Z</time></trkpt><trkpt lat="41.14606160837715" lon="9.426056526738973"><ele>16.0</ele><time>2026-05-03T14:44:12Z</time></trkpt><trkpt lat="41.14590780159865" lon="9.426054533138554"><ele>16.0</ele><time>2026-05-03T14:44:13Z</time></trkpt><trkpt lat="41.14575417083801" lon="9.426055455973842"><ele>16.0</ele><time>2026-05-03T14:44:14Z</time></trkpt><trkpt lat="41.14560335641447" lon="9.426054028465293"><ele>16.0</ele><time>2026-05-03T14:44:15Z</time></trkpt><trkpt lat="41.14545358879259" lon="9.426053327830141"><ele>15.666666666666666</ele><time>2026-05-03T14:44:16Z</time></trkpt><trkpt lat="41.145300175699774" lon="9.426051728518596"><ele>15.333333333333332</ele><time>2026-05-03T14:44:17Z</time></trkpt><trkpt lat="41.145142356926705" lon="9.426049973432006"><ele>15.0</ele><time>2026-05-03T14:44:18Z</time></trkpt><trkpt lat="41.1449809583547" lon="9.426051708055585"><ele>16.5</ele><time>2026-05-03T14:44:19Z</time></trkpt><trkpt lat="41.14482229709684" lon="9.426057605990417"><ele>18.0</ele><time>2026-05-03T14:44:20Z</time></trkpt><trkpt lat="41.14468359146067" lon="9.42606780497377"><ele>19.5</ele><time>2026-05-03T14:44:21Z</time></trkpt><trkpt lat="41.144556796004885" lon="9.426109506588995"><ele>21.0</ele><time>2026-05-03T14:44:22Z</time></trkpt><trkpt lat="41.14444077476397" lon="9.426187474283495"><ele>21.0</ele><time>2026-05-03T14:44:22.999Z</time></trkpt><trkpt lat="41.14432297666689" lon="9.426274088771242"><ele>21.0</ele><time>2026-05-03T14:44:23.999Z</time></trkpt><trkpt lat="41.14419078079252" lon="9.426330611129767"><ele>21.0</ele><time>2026-05-03T14:44:24.999Z</time></trkpt><trkpt lat="41.144064761875356" lon="9.426405373484423"><ele>21.0</ele><time>2026-05-03T14:44:25.999Z</time></trkpt><trkpt lat="41.14393654033534" lon="9.426481442590624"><ele>18.75</ele><time>2026-05-03T14:44:26.999Z</time></trkpt><trkpt lat="41.14380628450607" lon="9.426555857393591"><ele>16.5</ele><time>2026-05-03T14:44:27.999Z</time></trkpt><trkpt lat="41.14367390296761" lon="9.426620696164205"><ele>14.25</ele><time>2026-05-03T14:44:28.999Z</time></trkpt><trkpt lat="41.143537035352104" lon="9.426673768669904"><ele>12.0</ele><time>2026-05-03T14:44:29.999Z</time></trkpt><trkpt lat="41.14340252314522" lon="9.42674698844441"><ele>12.0</ele><time>2026-05-03T14:44:30.999Z</time></trkpt><trkpt lat="41.14326257338756" lon="9.426797709450824"><ele>12.0</ele><time>2026-05-03T14:44:31.999Z</time></trkpt><trkpt lat="41.14312411131756" lon="9.426850847177953"><ele>12.0</ele><time>2026-05-03T14:44:32.999Z</time></trkpt><trkpt lat="41.14299100126944" lon="9.426899600733737"><ele>12.0</ele><time>2026-05-03T14:44:33.999Z</time></trkpt><trkpt lat="41.142875674551334" lon="9.426942014092914"><ele>11.8</ele><time>2026-05-03T14:44:34.999Z</time></trkpt><trkpt lat="41.14276660913393" lon="9.426962244520631"><ele>11.6</ele><time>2026-05-03T14:44:35.999Z</time></trkpt><trkpt lat="41.142672133437905" lon="9.427018875689852"><ele>11.4</ele><time>2026-05-03T14:44:36.999Z</time></trkpt><trkpt lat="41.14256261917748" lon="9.427057036837061"><ele>11.200000000000001</ele><time>2026-05-03T14:44:37.999Z</time></trkpt><trkpt lat="41.14244556241243" lon="9.427100321998356"><ele>11.0</ele><time>2026-05-03T14:44:38.999Z</time></trkpt><trkpt lat="41.1423210720169" lon="9.427151421698408"><ele>10.25</ele><time>2026-05-03T14:44:39.999Z</time></trkpt><trkpt lat="41.14219265979711" lon="9.427203421033864"><ele>9.5</ele><time>2026-05-03T14:44:40.999Z</time></trkpt><trkpt lat="41.1420696848395" lon="9.427251342129045"><ele>8.75</ele><time>2026-05-03T14:44:41.999Z</time></trkpt><trkpt lat="41.141961664291884" lon="9.427294520245258"><ele>8.0</ele><time>2026-05-03T14:44:42.999Z</time></trkpt><trkpt lat="41.14186282839965" lon="9.427350448792764"><ele>8.0</ele><time>2026-05-03T14:44:43.999Z</time></trkpt><trkpt lat="41.14177708456227" lon="9.427429059898357"><ele>8.0</ele><time>2026-05-03T14:44:44.999Z</time></trkpt><trkpt lat="41.14167013444674" lon="9.427489786619624"><ele>8.0</ele><time>2026-05-03T14:44:45.999Z</time></trkpt><trkpt lat="41.14155290385151" lon="9.427583395665414"><ele>8.0</ele><time>2026-05-03T14:44:46.999Z</time></trkpt><trkpt lat="41.14142681475928" lon="9.427683011898814"><ele>7.333333333333333</ele><time>2026-05-03T14:44:47.999Z</time></trkpt><trkpt lat="41.14130408192595" lon="9.427800564861913"><ele>6.666666666666666</ele><time>2026-05-03T14:44:48.999Z</time></trkpt><trkpt lat="41.14117532750146" lon="9.427901881507042"><ele>6.0</ele><time>2026-05-03T14:44:49.999Z</time></trkpt><trkpt lat="41.14104673461655" lon="9.428005233197874"><ele>6.0</ele><time>2026-05-03T14:44:50.999Z</time></trkpt><trkpt lat="41.140916066806334" lon="9.428110520377242"><ele>6.0</ele><time>2026-05-03T14:44:51.999Z</time></trkpt><trkpt lat="41.14077649820451" lon="9.428197466108742"><ele>6.0</ele><time>2026-05-03T14:44:52.999Z</time></trkpt><trkpt lat="41.140640872237256" lon="9.428304715260964"><ele>4.666666666666667</ele><time>2026-05-03T14:44:53.999Z</time></trkpt><trkpt lat="41.1405055153937" lon="9.428411751579997"><ele>3.333333333333333</ele><time>2026-05-03T14:44:54.999Z</time></trkpt><trkpt lat="41.14036900112002" lon="9.428519703167213"><ele>2.0</ele><time>2026-05-03T14:44:55.999Z</time></trkpt><trkpt lat="41.14023303266705" lon="9.428627223141627"><ele>2.0</ele><time>2026-05-03T14:44:56.999Z</time></trkpt><trkpt lat="41.1401042831821" lon="9.428753345865854"><ele>2.0</ele><time>2026-05-03T14:44:57.999Z</time></trkpt><trkpt lat="41.13996555325866" lon="9.428865417021537"><ele>2.0</ele><time>2026-05-03T14:44:58.999Z</time></trkpt><trkpt lat="41.13981769683662" lon="9.428958904630402"><ele>2.333333333333333</ele><time>2026-05-03T14:44:59.999Z</time></trkpt><trkpt lat="41.13967572828079" lon="9.42907211074556"><ele>2.6666666666666665</ele><time>2026-05-03T14:45:00.999Z</time></trkpt><trkpt lat="41.13953463424471" lon="9.429184619482212"><ele>3.0</ele><time>2026-05-03T14:45:01.999Z</time></trkpt><trkpt lat="41.13939300332939" lon="9.429295666941098"><ele>3.0</ele><time>2026-05-03T14:45:02.999Z</time></trkpt><trkpt lat="41.13925843427254" lon="9.429412034475645"><ele>3.0</ele><time>2026-05-03T14:45:03.999Z</time></trkpt><trkpt lat="41.13914174217671" lon="9.429551293964652"><ele>3.0</ele><time>2026-05-03T14:45:04.999Z</time></trkpt><trkpt lat="41.13902809853108" lon="9.429688728025306"><ele>5.5</ele><time>2026-05-03T14:45:05.999Z</time></trkpt><trkpt lat="41.13892555739498" lon="9.42983611749079"><ele>8.0</ele><time>2026-05-03T14:45:06.999Z</time></trkpt><trkpt lat="41.138829406562024" lon="9.42998419082683"><ele>10.5</ele><time>2026-05-03T14:45:07.999Z</time></trkpt><trkpt lat="41.13873544163906" lon="9.430129672419142"><ele>13.0</ele><time>2026-05-03T14:45:08.999Z</time></trkpt><trkpt lat="41.13864524835172" lon="9.430276408425586"><ele>13.0</ele><time>2026-05-03T14:45:09.999Z</time></trkpt><trkpt lat="41.13855169360944" lon="9.430410454915082"><ele>13.0</ele><time>2026-05-03T14:45:10.999Z</time></trkpt><trkpt lat="41.138463030384116" lon="9.430551304322545"><ele>13.0</ele><time>2026-05-03T14:45:11.999Z</time></trkpt><trkpt lat="41.13837054009561" lon="9.430683954863564"><ele>13.0</ele><time>2026-05-03T14:45:12.999Z</time></trkpt><trkpt lat="41.13827799186233" lon="9.43081982647425"><ele>13.5</ele><time>2026-05-03T14:45:13.999Z</time></trkpt><trkpt lat="41.138186710395516" lon="9.430955878606953"><ele>14.0</ele><time>2026-05-03T14:45:14.999Z</time></trkpt><trkpt lat="41.13809361675193" lon="9.431091813417813"><ele>14.5</ele><time>2026-05-03T14:45:15.999Z</time></trkpt><trkpt lat="41.138001308003474" lon="9.431231470570756"><ele>15.0</ele><time>2026-05-03T14:45:16.999Z</time></trkpt><trkpt lat="41.137897073668505" lon="9.431360456251538"><ele>13.75</ele><time>2026-05-03T14:45:17.999Z</time></trkpt><trkpt lat="41.137801778508724" lon="9.431504594464602"><ele>12.5</ele><time>2026-05-03T14:45:18.999Z</time></trkpt><trkpt lat="41.13770399700675" lon="9.43164782266768"><ele>11.25</ele><time>2026-05-03T14:45:19.999Z</time></trkpt><trkpt lat="41.13759646938814" lon="9.431775551081742"><ele>10.0</ele><time>2026-05-03T14:45:20.999Z</time></trkpt><trkpt lat="41.13747998514317" lon="9.431886730960354"><ele>10.75</ele><time>2026-05-03T14:45:21.999Z</time></trkpt><trkpt lat="41.1373553053129" lon="9.431979596170654"><ele>11.5</ele><time>2026-05-03T14:45:22.999Z</time></trkpt><trkpt lat="41.137227440003784" lon="9.43206989059851"><ele>12.25</ele><time>2026-05-03T14:45:23.999Z</time></trkpt><trkpt lat="41.137107420473775" lon="9.43217551354313"><ele>13.0</ele><time>2026-05-03T14:45:24.999Z</time></trkpt><trkpt lat="41.136978390575464" lon="9.432254903350074"><ele>13.0</ele><time>2026-05-03T14:45:25.999Z</time></trkpt><trkpt lat="41.13685256402733" lon="9.432340778269774"><ele>13.0</ele><time>2026-05-03T14:45:26.999Z</time></trkpt><trkpt lat="41.1367291915323" lon="9.432426757052879"><ele>13.0</ele><time>2026-05-03T14:45:27.999Z</time></trkpt><trkpt lat="41.13659558840097" lon="9.432479116488073"><ele>13.0</ele><time>2026-05-03T14:45:28.999Z</time></trkpt><trkpt lat="41.136462804024426" lon="9.432529547833193"><ele>13.25</ele><time>2026-05-03T14:45:29.999Z</time></trkpt><trkpt lat="41.136326115460555" lon="9.432575331819132"><ele>13.5</ele><time>2026-05-03T14:45:30.999Z</time></trkpt><trkpt lat="41.13619401713597" lon="9.432638966295578"><ele>13.75</ele><time>2026-05-03T14:45:31.999Z</time></trkpt><trkpt lat="41.136058674219335" lon="9.432676368321175"><ele>14.0</ele><time>2026-05-03T14:45:32.999Z</time></trkpt><trkpt lat="41.13592575381599" lon="9.432715592689435"><ele>14.0</ele><time>2026-05-03T14:45:33.999Z</time></trkpt><trkpt lat="41.13579397821349" lon="9.432759239887293"><ele>14.0</ele><time>2026-05-03T14:45:34.999Z</time></trkpt><trkpt lat="41.13566265569547" lon="9.432803037714656"><ele>14.0</ele><time>2026-05-03T14:45:35.999Z</time></trkpt><trkpt lat="41.13552476186282" lon="9.432835281601875"><ele>14.0</ele><time>2026-05-03T14:45:36.999Z</time></trkpt><trkpt lat="41.13538135012366" lon="9.43282952164385"><ele>13.75</ele><time>2026-05-03T14:45:37.999Z</time></trkpt><trkpt lat="41.135239418664696" lon="9.432844067124343"><ele>13.5</ele><time>2026-05-03T14:45:38.999Z</time></trkpt><trkpt lat="41.135108351179554" lon="9.432853727050507"><ele>13.25</ele><time>2026-05-03T14:45:39.999Z</time></trkpt><trkpt lat="41.13498259908225" lon="9.43288193819849"><ele>13.0</ele><time>2026-05-03T14:45:40.999Z</time></trkpt><trkpt lat="41.13484834778988" lon="9.43288806453308"><ele>12.333333333333332</ele><time>2026-05-03T14:45:41.999Z</time></trkpt><trkpt lat="41.134703550584554" lon="9.432896658668872"><ele>11.666666666666666</ele><time>2026-05-03T14:45:42.999Z</time></trkpt><trkpt lat="41.13455200008252" lon="9.432907574063133"><ele>11.0</ele><time>2026-05-03T14:45:43.999Z</time></trkpt><trkpt lat="41.13439646439955" lon="9.432897970051483"><ele>11.0</ele><time>2026-05-03T14:45:44.999Z</time></trkpt><trkpt lat="41.13423725329964" lon="9.432929845588603"><ele>11.0</ele><time>2026-05-03T14:45:45.999Z</time></trkpt><trkpt lat="41.134075869432415" lon="9.432938870154"><ele>11.0</ele><time>2026-05-03T14:45:46.999Z</time></trkpt><trkpt lat="41.13390825439083" lon="9.43294646989135"><ele>10.666666666666666</ele><time>2026-05-03T14:45:47.999Z</time></trkpt><trkpt lat="41.13373854664811" lon="9.432960170155125"><ele>10.333333333333334</ele><time>2026-05-03T14:45:49Z</time></trkpt><trkpt lat="41.133566327917464" lon="9.432975933117707"><ele>10.0</ele><time>2026-05-03T14:45:50Z</time></trkpt><trkpt lat="41.13339655874095" lon="9.433000390973213"><ele>9.666666666666668</ele><time>2026-05-03T14:45:51Z</time></trkpt><trkpt lat="41.13322815292123" lon="9.433029684763289"><ele>9.333333333333334</ele><time>2026-05-03T14:45:52Z</time></trkpt><trkpt lat="41.133064343596665" lon="9.433061593409235"><ele>9.0</ele><time>2026-05-03T14:45:53Z</time></trkpt><trkpt lat="41.13291614657623" lon="9.433104892295967"><ele>9.0</ele><time>2026-05-03T14:45:54Z</time></trkpt><trkpt lat="41.132771784911824" lon="9.433172953509047"><ele>9.0</ele><time>2026-05-03T14:45:55Z</time></trkpt><trkpt lat="41.13262698087215" lon="9.433261710400917"><ele>9.0</ele><time>2026-05-03T14:45:56Z</time></trkpt><trkpt lat="41.132485587161895" lon="9.433363649376606"><ele>11.0</ele><time>2026-05-03T14:45:57Z</time></trkpt><trkpt lat="41.13234270698697" lon="9.4334625997355"><ele>13.0</ele><time>2026-05-03T14:45:58Z</time></trkpt><trkpt lat="41.132207662943976" lon="9.433554220711162"><ele>15.0</ele><time>2026-05-03T14:45:59Z</time></trkpt><trkpt lat="41.13207450731159" lon="9.43363761682649"><ele>15.0</ele><time>2026-05-03T14:46:00Z</time></trkpt><trkpt lat="41.13193078346872" lon="9.433734083540743"><ele>15.0</ele><time>2026-05-03T14:46:01Z</time></trkpt><trkpt lat="41.131775872196506" lon="9.433830017071221"><ele>15.0</ele><time>2026-05-03T14:46:02Z</time></trkpt><trkpt lat="41.131613890523454" lon="9.433925587326943"><ele>15.333333333333332</ele><time>2026-05-03T14:46:03Z</time></trkpt><trkpt lat="41.13144803497114" lon="9.434022614669168"><ele>15.666666666666666</ele><time>2026-05-03T14:46:04Z</time></trkpt><trkpt lat="41.13129239233814" lon="9.434103279354218"><ele>16.0</ele><time>2026-05-03T14:46:05Z</time></trkpt><trkpt lat="41.13114780076389" lon="9.434166971256573"><ele>16.0</ele><time>2026-05-03T14:46:06Z</time></trkpt><trkpt lat="41.13100082762733" lon="9.434234388196257"><ele>16.0</ele><time>2026-05-03T14:46:07Z</time></trkpt><trkpt lat="41.13086050069909" lon="9.434304807756481"><ele>16.0</ele><time>2026-05-03T14:46:08Z</time></trkpt><trkpt lat="41.13074244803816" lon="9.43436027032989"><ele>16.0</ele><time>2026-05-03T14:46:09Z</time></trkpt><trkpt lat="41.13062832785895" lon="9.43437406960484"><ele>15.5</ele><time>2026-05-03T14:46:10Z</time></trkpt><trkpt lat="41.13051313135772" lon="9.434405687580487"><ele>15.0</ele><time>2026-05-03T14:46:11Z</time></trkpt><trkpt lat="41.1303778854931" lon="9.434399888289501"><ele>14.5</ele><time>2026-05-03T14:46:12Z</time></trkpt><trkpt lat="41.130231966268944" lon="9.434382264546134"><ele>14.0</ele><time>2026-05-03T14:46:13Z</time></trkpt><trkpt lat="41.13007701466733" lon="9.434361068640849"><ele>14.0</ele><time>2026-05-03T14:46:14Z</time></trkpt><trkpt lat="41.12991526260647" lon="9.434335186471845"><ele>14.0</ele><time>2026-05-03T14:46:15Z</time></trkpt><trkpt lat="41.129751709898855" lon="9.43430991707481"><ele>14.0</ele><time>2026-05-03T14:46:16Z</time></trkpt><trkpt lat="41.12958526193098" lon="9.434280804232987"><ele>12.0</ele><time>2026-05-03T14:46:17Z</time></trkpt><trkpt lat="41.129414930334" lon="9.434259345249506"><ele>10.0</ele><time>2026-05-03T14:46:18Z</time></trkpt><trkpt lat="41.129245221312516" lon="9.434227051609948"><ele>8.0</ele><time>2026-05-03T14:46:19Z</time></trkpt><trkpt lat="41.12908527284683" lon="9.434263870304829"><ele>8.0</ele><time>2026-05-03T14:46:20Z</time></trkpt><trkpt lat="41.12892388780498" lon="9.434281188124247"><ele>8.0</ele><time>2026-05-03T14:46:21Z</time></trkpt><trkpt lat="41.12876407763685" lon="9.434314337386517"><ele>8.0</ele><time>2026-05-03T14:46:22Z</time></trkpt><trkpt lat="41.1286052814291" lon="9.434355514841412"><ele>8.0</ele><time>2026-05-03T14:46:23Z</time></trkpt><trkpt lat="41.12846389105986" lon="9.434421021167571"><ele>8.0</ele><time>2026-05-03T14:46:24Z</time></trkpt><trkpt lat="41.12834349357794" lon="9.43452018826049"><ele>8.0</ele><time>2026-05-03T14:46:25Z</time></trkpt><trkpt lat="41.12824555719759" lon="9.434637998318694"><ele>8.0</ele><time>2026-05-03T14:46:26Z</time></trkpt><trkpt lat="41.12817075335128" lon="9.43477234638313"><ele>11.0</ele><time>2026-05-03T14:46:27Z</time></trkpt><trkpt lat="41.128107929265646" lon="9.434921723994256"><ele>14.0</ele><time>2026-05-03T14:46:28Z</time></trkpt><trkpt lat="41.128039891551055" lon="9.435068566150354"><ele>17.0</ele><time>2026-05-03T14:46:29Z</time></trkpt><trkpt lat="41.12796533510287" lon="9.435209403610061"><ele>20.0</ele><time>2026-05-03T14:46:30Z</time></trkpt><trkpt lat="41.12789244335042" lon="9.435345661514704"><ele>20.0</ele><time>2026-05-03T14:46:31Z</time></trkpt><trkpt lat="41.12782588473243" lon="9.435462756258055"><ele>20.0</ele><time>2026-05-03T14:46:32Z</time></trkpt><trkpt lat="41.12776975094033" lon="9.435569057471861"><ele>20.0</ele><time>2026-05-03T14:46:33Z</time></trkpt><trkpt lat="41.12770831511437" lon="9.43567792819245"><ele>20.0</ele><time>2026-05-03T14:46:34Z</time></trkpt><trkpt lat="41.12764864663621" lon="9.435787978935029"><ele>20.0</ele><time>2026-05-03T14:46:35Z</time></trkpt><trkpt lat="41.12758532776669" lon="9.435899975810498"><ele>18.75</ele><time>2026-05-03T14:46:36Z</time></trkpt><trkpt lat="41.12751957598762" lon="9.436020176224261"><ele>17.5</ele><time>2026-05-03T14:46:37Z</time></trkpt><trkpt lat="41.12745061677908" lon="9.436143530997313"><ele>16.25</ele><time>2026-05-03T14:46:38Z</time></trkpt><trkpt lat="41.12738133957563" lon="9.436271567534266"><ele>15.0</ele><time>2026-05-03T14:46:39Z</time></trkpt><trkpt lat="41.12731144167601" lon="9.436401188861154"><ele>13.4</ele><time>2026-05-03T14:46:40Z</time></trkpt><trkpt lat="41.12724069786168" lon="9.436530232268785"><ele>11.8</ele><time>2026-05-03T14:46:41Z</time></trkpt><trkpt lat="41.12716795038023" lon="9.436660414505768"><ele>10.2</ele><time>2026-05-03T14:46:42Z</time></trkpt><trkpt lat="41.1271032669669" lon="9.436776542200157"><ele>8.6</ele><time>2026-05-03T14:46:43Z</time></trkpt><trkpt lat="41.12704799282185" lon="9.436884270116211"><ele>7.0</ele><time>2026-05-03T14:46:44Z</time></trkpt><trkpt lat="41.12698844638481" lon="9.436983654818128"><ele>7.0</ele><time>2026-05-03T14:46:45Z</time></trkpt><trkpt lat="41.12690910709874" lon="9.437052752781515"><ele>6.999999999999999</ele><time>2026-05-03T14:46:46Z</time></trkpt><trkpt lat="41.1268098529822" lon="9.43705165842726"><ele>6.999999999999999</ele><time>2026-05-03T14:46:47Z</time></trkpt><trkpt lat="41.12670689110712" lon="9.437072192454153"><ele>7.0</ele><time>2026-05-03T14:46:48Z</time></trkpt><trkpt lat="41.12659962076142" lon="9.437105956651084"><ele>7.0</ele><time>2026-05-03T14:46:49Z</time></trkpt><trkpt lat="41.12648694806315" lon="9.437129718040955"><ele>6.3999999999999995</ele><time>2026-05-03T14:46:50Z</time></trkpt><trkpt lat="41.12637426338223" lon="9.437154398708994"><ele>5.799999999999999</ele><time>2026-05-03T14:46:51Z</time></trkpt><trkpt lat="41.12627082717085" lon="9.437175004162302"><ele>5.2</ele><time>2026-05-03T14:46:52Z</time></trkpt><trkpt lat="41.12618243784479" lon="9.437191936671413"><ele>4.6</ele><time>2026-05-03T14:46:52.999Z</time></trkpt><trkpt lat="41.126102258517385" lon="9.437206600078225"><ele>4.0</ele><time>2026-05-03T14:46:53.999Z</time></trkpt><trkpt lat="41.126021974148024" lon="9.437224449682237"><ele>3.9999999999999996</ele><time>2026-05-03T14:46:54.999Z</time></trkpt><trkpt lat="41.125936330971804" lon="9.43724615851963"><ele>4.0</ele><time>2026-05-03T14:46:55.999Z</time></trkpt><trkpt lat="41.12584755138006" lon="9.43726994500855"><ele>4.0</ele><time>2026-05-03T14:46:56.999Z</time></trkpt><trkpt lat="41.1257591254726" lon="9.437292709564229"><ele>4.0</ele><time>2026-05-03T14:46:57.999Z</time></trkpt><trkpt lat="41.12567089426004" lon="9.437304942829028"><ele>3.9999999999999996</ele><time>2026-05-03T14:46:58.999Z</time></trkpt><trkpt lat="41.12558457237104" lon="9.437309900839834"><ele>4.0</ele><time>2026-05-03T14:46:59.999Z</time></trkpt><trkpt lat="41.1254996924202" lon="9.437314273924917"><ele>4.4</ele><time>2026-05-03T14:47:00.999Z</time></trkpt><trkpt lat="41.125415104946995" lon="9.437315608523424"><ele>4.800000000000001</ele><time>2026-05-03T14:47:01.999Z</time></trkpt><trkpt lat="41.12532516637158" lon="9.437320461116398"><ele>5.199999999999999</ele><time>2026-05-03T14:47:02.999Z</time></trkpt><trkpt lat="41.125230620076415" lon="9.437326480854423"><ele>5.6</ele><time>2026-05-03T14:47:03.999Z</time></trkpt><trkpt lat="41.125133264603946" lon="9.437328896069195"><ele>6.0</ele><time>2026-05-03T14:47:04.999Z</time></trkpt><trkpt lat="41.12503403504113" lon="9.437331970601846"><ele>6.0</ele><time>2026-05-03T14:47:05.999Z</time></trkpt><trkpt lat="41.12494016917842" lon="9.43733628308278"><ele>6.0</ele><time>2026-05-03T14:47:06.999Z</time></trkpt><trkpt lat="41.124858227471854" lon="9.437340157679039"><ele>6.0</ele><time>2026-05-03T14:47:07.999Z</time></trkpt><trkpt lat="41.12478125513012" lon="9.43734564662641"><ele>6.0</ele><time>2026-05-03T14:47:08.999Z</time></trkpt><trkpt lat="41.124703516860784" lon="9.437352648461589"><ele>6.0</ele><time>2026-05-03T14:47:09.999Z</time></trkpt><trkpt lat="41.12462717549603" lon="9.437361731932477"><ele>6.0</ele><time>2026-05-03T14:47:10.999Z</time></trkpt><trkpt lat="41.12454376578215" lon="9.437371652839014"><ele>6.5</ele><time>2026-05-03T14:47:11.999Z</time></trkpt><trkpt lat="41.12445813243278" lon="9.437382195849736"><ele>7.0</ele><time>2026-05-03T14:47:12.999Z</time></trkpt><trkpt lat="41.1243741341317" lon="9.437388959845425"><ele>7.5</ele><time>2026-05-03T14:47:13.999Z</time></trkpt><trkpt lat="41.12428622978307" lon="9.437395772361834"><ele>8.0</ele><time>2026-05-03T14:47:14.999Z</time></trkpt><trkpt lat="41.124194936926465" lon="9.437399761850482"><ele>8.5</ele><time>2026-05-03T14:47:15.999Z</time></trkpt><trkpt lat="41.12410034088197" lon="9.437406629593978"><ele>9.0</ele><time>2026-05-03T14:47:16.999Z</time></trkpt><trkpt lat="41.12400341621456" lon="9.43741115624277"><ele>9.166666666666666</ele><time>2026-05-03T14:47:17.999Z</time></trkpt><trkpt lat="41.12390479973056" lon="9.437417495848036"><ele>9.333333333333334</ele><time>2026-05-03T14:47:18.999Z</time></trkpt><trkpt lat="41.12380555381268" lon="9.437428036677543"><ele>9.5</ele><time>2026-05-03T14:47:19.999Z</time></trkpt><trkpt lat="41.12370975331261" lon="9.437435968621433"><ele>9.666666666666668</ele><time>2026-05-03T14:47:20.999Z</time></trkpt><trkpt lat="41.123627439388564" lon="9.437448153455305"><ele>9.833333333333334</ele><time>2026-05-03T14:47:21.999Z</time></trkpt><trkpt lat="41.12355707020811" lon="9.437466338662206"><ele>10.0</ele><time>2026-05-03T14:47:22.999Z</time></trkpt><trkpt lat="41.12343515446204" lon="9.437523314232967"><ele>10.0</ele><time>2026-05-03T14:47:24.999Z</time></trkpt><trkpt lat="41.123364853393475" lon="9.437562630068394"><ele>10.0</ele><time>2026-05-03T14:47:25.999Z</time></trkpt><trkpt lat="41.12328861934687" lon="9.437609696159345"><ele>10.0</ele><time>2026-05-03T14:47:26.999Z</time></trkpt><trkpt lat="41.123195575824816" lon="9.437639189617968"><ele>10.0</ele><time>2026-05-03T14:47:27.999Z</time></trkpt><trkpt lat="41.12310923757739" lon="9.437703354632395"><ele>10.0</ele><time>2026-05-03T14:47:28.999Z</time></trkpt><trkpt lat="41.12301449726569" lon="9.437753046909815"><ele>9.8</ele><time>2026-05-03T14:47:29.999Z</time></trkpt><trkpt lat="41.122918477798294" lon="9.437810827481645"><ele>9.6</ele><time>2026-05-03T14:47:30.999Z</time></trkpt><trkpt lat="41.12282064308698" lon="9.437858615899552"><ele>9.4</ele><time>2026-05-03T14:47:31.999Z</time></trkpt><trkpt lat="41.12273556522805" lon="9.43790340988434"><ele>9.2</ele><time>2026-05-03T14:47:32.999Z</time></trkpt><trkpt lat="41.12266346940645" lon="9.437943472818706"><ele>9.0</ele><time>2026-05-03T14:47:33.999Z</time></trkpt><trkpt lat="41.1225913688956" lon="9.43798203089351"><ele>9.000000000000002</ele><time>2026-05-03T14:47:34.999Z</time></trkpt><trkpt lat="41.122520316344406" lon="9.438027393103166"><ele>9.0</ele><time>2026-05-03T14:47:35.999Z</time></trkpt><trkpt lat="41.12245525947789" lon="9.438072151268354"><ele>9.0</ele><time>2026-05-03T14:47:36.999Z</time></trkpt><trkpt lat="41.12239978165318" lon="9.438116449184296"><ele>9.0</ele><time>2026-05-03T14:47:37.999Z</time></trkpt><trkpt lat="41.12233234330438" lon="9.438164710130327"><ele>9.0</ele><time>2026-05-03T14:47:38.999Z</time></trkpt><trkpt lat="41.12226859021935" lon="9.438202213044454"><ele>9.000000000000002</ele><time>2026-05-03T14:47:39.999Z</time></trkpt><trkpt lat="41.122205311932596" lon="9.438236594155077"><ele>9.0</ele><time>2026-05-03T14:47:40.999Z</time></trkpt><trkpt lat="41.122107610794544" lon="9.438303916565303"><ele>9.5</ele><time>2026-05-03T14:47:42.999Z</time></trkpt><trkpt lat="41.12204058519039" lon="9.43833528078072"><ele>10.0</ele><time>2026-05-03T14:47:43.999Z</time></trkpt><trkpt lat="41.1219767789485" lon="9.438375933255376"><ele>10.5</ele><time>2026-05-03T14:47:44.999Z</time></trkpt><trkpt lat="41.12190433759753" lon="9.438423390371605"><ele>11.0</ele><time>2026-05-03T14:47:45.999Z</time></trkpt><trkpt lat="41.12183877594273" lon="9.438472955455225"><ele>11.5</ele><time>2026-05-03T14:47:46.999Z</time></trkpt><trkpt lat="41.12176387196325" lon="9.438529305101858"><ele>12.0</ele><time>2026-05-03T14:47:47.999Z</time></trkpt><trkpt lat="41.12169394309538" lon="9.438588482700233"><ele>11.999999999999998</ele><time>2026-05-03T14:47:48.999Z</time></trkpt><trkpt lat="41.12163398961021" lon="9.438632538315343"><ele>12.0</ele><time>2026-05-03T14:47:49.999Z</time></trkpt><trkpt lat="41.121577350885566" lon="9.438678966989382"><ele>12.0</ele><time>2026-05-03T14:47:50.999Z</time></trkpt><trkpt lat="41.1215151193603" lon="9.438728173715605"><ele>12.0</ele><time>2026-05-03T14:47:51.999Z</time></trkpt><trkpt lat="41.121447019091676" lon="9.438773146986781"><ele>12.0</ele><time>2026-05-03T14:47:52.999Z</time></trkpt><trkpt lat="41.12137525951263" lon="9.438822423812011"><ele>11.999999999999998</ele><time>2026-05-03T14:47:53.999Z</time></trkpt><trkpt lat="41.121300920139234" lon="9.438871181627622"><ele>12.0</ele><time>2026-05-03T14:47:55Z</time></trkpt><trkpt lat="41.121224918289855" lon="9.438923804394326"><ele>11.8</ele><time>2026-05-03T14:47:56Z</time></trkpt><trkpt lat="41.12114898926294" lon="9.438978134083593"><ele>11.6</ele><time>2026-05-03T14:47:57Z</time></trkpt><trkpt lat="41.12107299036041" lon="9.439031426584938"><ele>11.4</ele><time>2026-05-03T14:47:58Z</time></trkpt><trkpt lat="41.12099003961792" lon="9.439082900463593"><ele>11.200000000000001</ele><time>2026-05-03T14:47:59Z</time></trkpt><trkpt lat="41.12090210483555" lon="9.439119270347492"><ele>11.0</ele><time>2026-05-03T14:48:00Z</time></trkpt><trkpt lat="41.12081139327029" lon="9.43919132482165"><ele>12.8</ele><time>2026-05-03T14:48:01Z</time></trkpt><trkpt lat="41.120718597750916" lon="9.439249981819778"><ele>14.600000000000001</ele><time>2026-05-03T14:48:02Z</time></trkpt><trkpt lat="41.120621388326875" lon="9.439307467493151"><ele>16.4</ele><time>2026-05-03T14:48:03Z</time></trkpt><trkpt lat="41.12051805591022" lon="9.439377317386882"><ele>18.2</ele><time>2026-05-03T14:48:04Z</time></trkpt><trkpt lat="41.12041675069608" lon="9.439435849156986"><ele>20.0</ele><time>2026-05-03T14:48:05Z</time></trkpt><trkpt lat="41.1203302953613" lon="9.439491420427357"><ele>20.0</ele><time>2026-05-03T14:48:06Z</time></trkpt><trkpt lat="41.12025290478276" lon="9.439551381338653"><ele>20.0</ele><time>2026-05-03T14:48:07Z</time></trkpt><trkpt lat="41.1201838324718" lon="9.439596824211703"><ele>20.0</ele><time>2026-05-03T14:48:08Z</time></trkpt><trkpt lat="41.12010612617252" lon="9.439651175870619"><ele>20.0</ele><time>2026-05-03T14:48:09Z</time></trkpt><trkpt lat="41.12003429674726" lon="9.439683211614165"><ele>20.0</ele><time>2026-05-03T14:48:10Z</time></trkpt><trkpt lat="41.11996305364297" lon="9.439728595076085"><ele>20.0</ele><time>2026-05-03T14:48:11Z</time></trkpt><trkpt lat="41.11988541393508" lon="9.43975134022302"><ele>18.166666666666668</ele><time>2026-05-03T14:48:12Z</time></trkpt><trkpt lat="41.11981834149066" lon="9.439760520806443"><ele>16.333333333333336</ele><time>2026-05-03T14:48:13Z</time></trkpt><trkpt lat="41.11975471514186" lon="9.439765856636146"><ele>14.5</ele><time>2026-05-03T14:48:14Z</time></trkpt><trkpt lat="41.11968294206535" lon="9.439765775094681"><ele>12.666666666666668</ele><time>2026-05-03T14:48:15Z</time></trkpt><trkpt lat="41.119596168356814" lon="9.439772141831174"><ele>10.833333333333334</ele><time>2026-05-03T14:48:16Z</time></trkpt><trkpt lat="41.11949531400639" lon="9.439785643672963"><ele>9.0</ele><time>2026-05-03T14:48:17Z</time></trkpt><trkpt lat="41.11938924823841" lon="9.43979752170963"><ele>9.0</ele><time>2026-05-03T14:48:18Z</time></trkpt><trkpt lat="41.11928489949457" lon="9.439779605659854"><ele>9.0</ele><time>2026-05-03T14:48:19Z</time></trkpt><trkpt lat="41.11918730836292" lon="9.43977584611895"><ele>9.0</ele><time>2026-05-03T14:48:20Z</time></trkpt><trkpt lat="41.11908438493494" lon="9.439770993321483"><ele>9.0</ele><time>2026-05-03T14:48:21Z</time></trkpt><trkpt lat="41.118985027447" lon="9.43976315473647"><ele>9.0</ele><time>2026-05-03T14:48:22Z</time></trkpt><trkpt lat="41.11889278876901" lon="9.439776255991848"><ele>9.0</ele><time>2026-05-03T14:48:23Z</time></trkpt><trkpt lat="41.11879236993094" lon="9.439762250505005"><ele>9.0</ele><time>2026-05-03T14:48:24Z</time></trkpt><trkpt lat="41.11867163924403" lon="9.439754084302315"><ele>9.0</ele><time>2026-05-03T14:48:25Z</time></trkpt><trkpt lat="41.11853672577037" lon="9.439742379009468"><ele>9.0</ele><time>2026-05-03T14:48:26Z</time></trkpt><trkpt lat="41.118397586474856" lon="9.439691539005997"><ele>9.0</ele><time>2026-05-03T14:48:27Z</time></trkpt><trkpt lat="41.118264916083646" lon="9.439656051200368"><ele>9.0</ele><time>2026-05-03T14:48:28Z</time></trkpt><trkpt lat="41.118131771175086" lon="9.439619250538161"><ele>9.0</ele><time>2026-05-03T14:48:29Z</time></trkpt><trkpt lat="41.117967404004304" lon="9.439586015527548"><ele>9.0</ele><time>2026-05-03T14:48:30Z</time></trkpt><trkpt lat="41.117786931791784" lon="9.439560616502247"><ele>11.333333333333332</ele><time>2026-05-03T14:48:31Z</time></trkpt><trkpt lat="41.11761360131863" lon="9.439550828508947"><ele>13.666666666666666</ele><time>2026-05-03T14:48:32Z</time></trkpt><trkpt lat="41.11746156076304" lon="9.439523244628626"><ele>16.0</ele><time>2026-05-03T14:48:33Z</time></trkpt><trkpt lat="41.11733103876244" lon="9.439507800745792"><ele>16.0</ele><time>2026-05-03T14:48:34Z</time></trkpt><trkpt lat="41.11723527119071" lon="9.439471266191019"><ele>16.0</ele><time>2026-05-03T14:48:35Z</time></trkpt><trkpt lat="41.11714649278182" lon="9.439449837711226"><ele>16.0</ele><time>2026-05-03T14:48:36Z</time></trkpt><trkpt lat="41.11706305058767" lon="9.439451275225586"><ele>16.0</ele><time>2026-05-03T14:48:37Z</time></trkpt><trkpt lat="41.11698336453415" lon="9.43940957231865"><ele>16.0</ele><time>2026-05-03T14:48:38Z</time></trkpt><trkpt lat="41.11688900811047" lon="9.439386277178862"><ele>16.0</ele><time>2026-05-03T14:48:39Z</time></trkpt><trkpt lat="41.116778431164974" lon="9.439378635405705"><ele>16.0</ele><time>2026-05-03T14:48:40Z</time></trkpt><trkpt lat="41.11666654258617" lon="9.439341723248168"><ele>16.0</ele><time>2026-05-03T14:48:41Z</time></trkpt><trkpt lat="41.11654977128206" lon="9.439306270681973"><ele>16.0</ele><time>2026-05-03T14:48:42Z</time></trkpt><trkpt lat="41.116427175430665" lon="9.439275367281914"><ele>15.25</ele><time>2026-05-03T14:48:43Z</time></trkpt><trkpt lat="41.11629889100576" lon="9.439243014178796"><ele>14.5</ele><time>2026-05-03T14:48:44Z</time></trkpt><trkpt lat="41.11616272551737" lon="9.439211582074098"><ele>13.75</ele><time>2026-05-03T14:48:45Z</time></trkpt><trkpt lat="41.11601760758347" lon="9.43917672038511"><ele>13.0</ele><time>2026-05-03T14:48:46Z</time></trkpt><trkpt lat="41.11587110486018" lon="9.439139190941786"><ele>12.75</ele><time>2026-05-03T14:48:47Z</time></trkpt><trkpt lat="41.11573250386419" lon="9.439102942018753"><ele>12.5</ele><time>2026-05-03T14:48:48Z</time></trkpt><trkpt lat="41.11559934812541" lon="9.439067564137432"><ele>12.25</ele><time>2026-05-03T14:48:49Z</time></trkpt><trkpt lat="41.11546724741148" lon="9.43903332688447"><ele>12.0</ele><time>2026-05-03T14:48:50Z</time></trkpt><trkpt lat="41.11534518357005" lon="9.439007318065661"><ele>12.0</ele><time>2026-05-03T14:48:51Z</time></trkpt><trkpt lat="41.115244012687675" lon="9.438985036852316"><ele>12.0</ele><time>2026-05-03T14:48:52Z</time></trkpt><trkpt lat="41.11517349088564" lon="9.438968389914965"><ele>12.0</ele><time>2026-05-03T14:48:52.999Z</time></trkpt><trkpt lat="41.11505229487379" lon="9.438891755327905"><ele>12.0</ele><time>2026-05-03T14:48:54.999Z</time></trkpt><trkpt lat="41.11497569479363" lon="9.438815943398032"><ele>12.0</ele><time>2026-05-03T14:48:55.999Z</time></trkpt><trkpt lat="41.1148831934682" lon="9.438725339498893"><ele>12.25</ele><time>2026-05-03T14:48:56.999Z</time></trkpt><trkpt lat="41.11480177354673" lon="9.438591245049004"><ele>12.5</ele><time>2026-05-03T14:48:57.999Z</time></trkpt><trkpt lat="41.11471631369108" lon="9.438447095226795"><ele>12.75</ele><time>2026-05-03T14:48:58.999Z</time></trkpt><trkpt lat="41.114622236222026" lon="9.438301294326665"><ele>13.0</ele><time>2026-05-03T14:48:59.999Z</time></trkpt><trkpt lat="41.11452447875931" lon="9.438156957112414"><ele>13.0</ele><time>2026-05-03T14:49:00.999Z</time></trkpt><trkpt lat="41.11443626466949" lon="9.438021169696325"><ele>13.0</ele><time>2026-05-03T14:49:01.999Z</time></trkpt><trkpt lat="41.11436212776365" lon="9.4379064526008"><ele>13.0</ele><time>2026-05-03T14:49:02.999Z</time></trkpt><trkpt lat="41.114297104723036" lon="9.437819463305027"><ele>13.0</ele><time>2026-05-03T14:49:03.999Z</time></trkpt><trkpt lat="41.114240366046225" lon="9.437761348551373"><ele>13.0</ele><time>2026-05-03T14:49:04.999Z</time></trkpt><trkpt lat="41.11417289180774" lon="9.437734068984577"><ele>13.0</ele><time>2026-05-03T14:49:05.999Z</time></trkpt><trkpt lat="41.11410275954566" lon="9.437702176136442"><ele>13.0</ele><time>2026-05-03T14:49:06.999Z</time></trkpt><trkpt lat="41.11400527679287" lon="9.437815543617694"><ele>13.0</ele><time>2026-05-03T14:49:07.999Z</time></trkpt><trkpt lat="41.11390598564413" lon="9.437888576653203"><ele>13.0</ele><time>2026-05-03T14:49:08.999Z</time></trkpt><trkpt lat="41.11379847039747" lon="9.437965605707312"><ele>13.0</ele><time>2026-05-03T14:49:09.999Z</time></trkpt><trkpt lat="41.11367439330362" lon="9.438026640544303"><ele>11.75</ele><time>2026-05-03T14:49:10.999Z</time></trkpt><trkpt lat="41.11354665531223" lon="9.438133839378555"><ele>10.5</ele><time>2026-05-03T14:49:11.999Z</time></trkpt><trkpt lat="41.11342213568481" lon="9.438215360579447"><ele>9.25</ele><time>2026-05-03T14:49:12.999Z</time></trkpt><trkpt lat="41.11330060400985" lon="9.43829080216237"><ele>8.0</ele><time>2026-05-03T14:49:13.999Z</time></trkpt><trkpt lat="41.11317502120252" lon="9.438333597483421"><ele>7.5</ele><time>2026-05-03T14:49:14.999Z</time></trkpt><trkpt lat="41.113045399941946" lon="9.438318615187063"><ele>7.0</ele><time>2026-05-03T14:49:15.999Z</time></trkpt><trkpt lat="41.11290967855339" lon="9.438315056431781"><ele>6.5</ele><time>2026-05-03T14:49:16.999Z</time></trkpt><trkpt lat="41.11277182591479" lon="9.438313662612856"><ele>6.0</ele><time>2026-05-03T14:49:17.999Z</time></trkpt><trkpt lat="41.112632011766806" lon="9.43831237548457"><ele>6.0</ele><time>2026-05-03T14:49:18.999Z</time></trkpt><trkpt lat="41.11249147641275" lon="9.43831108171826"><ele>6.0</ele><time>2026-05-03T14:49:19.999Z</time></trkpt><trkpt lat="41.11235089343025" lon="9.438311565092146"><ele>6.0</ele><time>2026-05-03T14:49:20.999Z</time></trkpt><trkpt lat="41.11220926301276" lon="9.438311793611385"><ele>6.0</ele><time>2026-05-03T14:49:21.999Z</time></trkpt><trkpt lat="41.11206691584037" lon="9.438310968962531"><ele>7.0</ele><time>2026-05-03T14:49:22.999Z</time></trkpt><trkpt lat="41.11192759857487" lon="9.438309567454997"><ele>8.0</ele><time>2026-05-03T14:49:23.999Z</time></trkpt><trkpt lat="41.11179135822273" lon="9.438320835710064"><ele>9.0</ele><time>2026-05-03T14:49:24.999Z</time></trkpt><trkpt lat="41.11165948848989" lon="9.438318329201707"><ele>10.0</ele><time>2026-05-03T14:49:25.999Z</time></trkpt><trkpt lat="41.111527228625846" lon="9.438333607705188"><ele>11.25</ele><time>2026-05-03T14:49:26.999Z</time></trkpt><trkpt lat="41.111395520165196" lon="9.438368882486838"><ele>12.5</ele><time>2026-05-03T14:49:27.999Z</time></trkpt><trkpt lat="41.111262781074586" lon="9.438427063589321"><ele>13.75</ele><time>2026-05-03T14:49:28.999Z</time></trkpt><trkpt lat="41.11113755074465" lon="9.43849750700344"><ele>15.0</ele><time>2026-05-03T14:49:29.999Z</time></trkpt><trkpt lat="41.11101870829971" lon="9.438579336265326"><ele>15.0</ele><time>2026-05-03T14:49:30.999Z</time></trkpt><trkpt lat="41.11091203616131" lon="9.438650970691118"><ele>15.0</ele><time>2026-05-03T14:49:31.999Z</time></trkpt><trkpt lat="41.11081485982782" lon="9.438714490566111"><ele>15.0</ele><time>2026-05-03T14:49:32.999Z</time></trkpt><trkpt lat="41.110725449723944" lon="9.438767959687638"><ele>15.0</ele><time>2026-05-03T14:49:33.999Z</time></trkpt><trkpt lat="41.110622443480075" lon="9.438817806947151"><ele>15.0</ele><time>2026-05-03T14:49:34.999Z</time></trkpt><trkpt lat="41.11051586444371" lon="9.43884847738589"><ele>14.2</ele><time>2026-05-03T14:49:35.999Z</time></trkpt><trkpt lat="41.11040526501331" lon="9.438859885036385"><ele>13.4</ele><time>2026-05-03T14:49:36.999Z</time></trkpt><trkpt lat="41.11028855231101" lon="9.4388589590831"><ele>12.600000000000001</ele><time>2026-05-03T14:49:37.999Z</time></trkpt><trkpt lat="41.11017864890109" lon="9.438847694097976"><ele>11.8</ele><time>2026-05-03T14:49:38.999Z</time></trkpt><trkpt lat="41.11007529534468" lon="9.438842701266134"><ele>11.0</ele><time>2026-05-03T14:49:39.999Z</time></trkpt><trkpt lat="41.10997471415164" lon="9.438858674569211"><ele>10.4</ele><time>2026-05-03T14:49:40.999Z</time></trkpt><trkpt lat="41.109875584747044" lon="9.43888640634059"><ele>9.8</ele><time>2026-05-03T14:49:41.999Z</time></trkpt><trkpt lat="41.10977999105981" lon="9.438919217285251"><ele>9.200000000000001</ele><time>2026-05-03T14:49:42.999Z</time></trkpt><trkpt lat="41.109689488056205" lon="9.438946789176489"><ele>8.600000000000001</ele><time>2026-05-03T14:49:43.999Z</time></trkpt><trkpt lat="41.10960222175094" lon="9.43896993060979"><ele>8.0</ele><time>2026-05-03T14:49:44.999Z</time></trkpt><trkpt lat="41.109517449967115" lon="9.438998433732312"><ele>7.999999999999999</ele><time>2026-05-03T14:49:45.999Z</time></trkpt><trkpt lat="41.10943669274309" lon="9.439022275026526"><ele>8.0</ele><time>2026-05-03T14:49:46.999Z</time></trkpt><trkpt lat="41.1093632715712" lon="9.439045264621049"><ele>8.0</ele><time>2026-05-03T14:49:47.999Z</time></trkpt><trkpt lat="41.10929812404066" lon="9.439064874216113"><ele>8.0</ele><time>2026-05-03T14:49:48.999Z</time></trkpt><trkpt lat="41.10918775329046" lon="9.439085116393704"><ele>7.999999999999999</ele><time>2026-05-03T14:49:50.999Z</time></trkpt><trkpt lat="41.109101391385515" lon="9.439102832618692"><ele>8.0</ele><time>2026-05-03T14:49:52.999Z</time></trkpt><trkpt lat="41.10901429805252" lon="9.439128180312748"><ele>7.800000000000001</ele><time>2026-05-03T14:49:54.999Z</time></trkpt><trkpt lat="41.10889232591268" lon="9.439110412005322"><ele>7.6000000000000005</ele><time>2026-05-03T14:49:56.999Z</time></trkpt><trkpt lat="41.10881629721364" lon="9.439067395234058"><ele>7.3999999999999995</ele><time>2026-05-03T14:49:57.999Z</time></trkpt><trkpt lat="41.10873494929235" lon="9.439025350555996"><ele>7.199999999999999</ele><time>2026-05-03T14:49:58.999Z</time></trkpt><trkpt lat="41.10864281637013" lon="9.438982713953205"><ele>7.0</ele><time>2026-05-03T14:49:59.999Z</time></trkpt><trkpt lat="41.10854358534491" lon="9.43893558969704"><ele>7.0</ele><time>2026-05-03T14:50:01Z</time></trkpt><trkpt lat="41.10844092338547" lon="9.438877760691293"><ele>7.0</ele><time>2026-05-03T14:50:02Z</time></trkpt><trkpt lat="41.108330123651946" lon="9.438816640557109"><ele>7.0</ele><time>2026-05-03T14:50:03Z</time></trkpt><trkpt lat="41.10821993123928" lon="9.438751274680154"><ele>7.0</ele><time>2026-05-03T14:50:04Z</time></trkpt><trkpt lat="41.10810873883207" lon="9.438695227006791"><ele>7.5</ele><time>2026-05-03T14:50:05Z</time></trkpt><trkpt lat="41.107996864252804" lon="9.438663905396137"><ele>8.0</ele><time>2026-05-03T14:50:06Z</time></trkpt><trkpt lat="41.107881471690256" lon="9.438624038594103"><ele>8.5</ele><time>2026-05-03T14:50:07Z</time></trkpt><trkpt lat="41.10776970347144" lon="9.43864378759902"><ele>9.0</ele><time>2026-05-03T14:50:08Z</time></trkpt><trkpt lat="41.10764728806916" lon="9.438655216734523"><ele>9.0</ele><time>2026-05-03T14:50:09Z</time></trkpt><trkpt lat="41.10752564076913" lon="9.438656192255033"><ele>9.0</ele><time>2026-05-03T14:50:10Z</time></trkpt><trkpt lat="41.10740328273184" lon="9.438649761358661"><ele>9.0</ele><time>2026-05-03T14:50:11Z</time></trkpt><trkpt lat="41.10728195496549" lon="9.438643087975809"><ele>9.0</ele><time>2026-05-03T14:50:12Z</time></trkpt><trkpt lat="41.1071618486659" lon="9.43863635534081"><ele>9.25</ele><time>2026-05-03T14:50:13Z</time></trkpt><trkpt lat="41.107041088436596" lon="9.438630986945743"><ele>9.5</ele><time>2026-05-03T14:50:14Z</time></trkpt><trkpt lat="41.106916713512575" lon="9.438626264995417"><ele>9.75</ele><time>2026-05-03T14:50:15Z</time></trkpt><trkpt lat="41.106792255046685" lon="9.438617282659308"><ele>10.0</ele><time>2026-05-03T14:50:16Z</time></trkpt><trkpt lat="41.10666822970957" lon="9.438606400114056"><ele>10.0</ele><time>2026-05-03T14:50:17Z</time></trkpt><trkpt lat="41.10654442361132" lon="9.438595213629455"><ele>10.0</ele><time>2026-05-03T14:50:18Z</time></trkpt><trkpt lat="41.106422072225605" lon="9.438583863882107"><ele>10.0</ele><time>2026-05-03T14:50:19Z</time></trkpt><trkpt lat="41.106303796221475" lon="9.438573033377317"><ele>10.0</ele><time>2026-05-03T14:50:20Z</time></trkpt><trkpt lat="41.10618817952428" lon="9.43856643978213"><ele>10.0</ele><time>2026-05-03T14:50:21Z</time></trkpt><trkpt lat="41.10607793261415" lon="9.438559162825268"><ele>10.0</ele><time>2026-05-03T14:50:22Z</time></trkpt><trkpt lat="41.105968009684524" lon="9.438550035393888"><ele>10.0</ele><time>2026-05-03T14:50:23Z</time></trkpt><trkpt lat="41.105857606929675" lon="9.438542894576848"><ele>10.0</ele><time>2026-05-03T14:50:24Z</time></trkpt><trkpt lat="41.10574936921955" lon="9.43853484938113"><ele>10.0</ele><time>2026-05-03T14:50:25Z</time></trkpt><trkpt lat="41.10564203057905" lon="9.438525883404035"><ele>9.8</ele><time>2026-05-03T14:50:26Z</time></trkpt><trkpt lat="41.10553818455407" lon="9.438515560499196"><ele>9.6</ele><time>2026-05-03T14:50:27Z</time></trkpt><trkpt lat="41.10543756157548" lon="9.438505572313103"><ele>9.4</ele><time>2026-05-03T14:50:28Z</time></trkpt><trkpt lat="41.105338825658606" lon="9.438504095813384"><ele>9.2</ele><time>2026-05-03T14:50:29Z</time></trkpt><trkpt lat="41.10524481308264" lon="9.438492235809074"><ele>9.0</ele><time>2026-05-03T14:50:30Z</time></trkpt><trkpt lat="41.105157372392135" lon="9.438484319465577"><ele>9.0</ele><time>2026-05-03T14:50:31Z</time></trkpt><trkpt lat="41.10508028580026" lon="9.438479474086016"><ele>9.0</ele><time>2026-05-03T14:50:32Z</time></trkpt><trkpt lat="41.10500725097695" lon="9.438474865765253"><ele>9.0</ele><time>2026-05-03T14:50:33Z</time></trkpt><trkpt lat="41.1049302338579" lon="9.438469472798772"><ele>9.0</ele><time>2026-05-03T14:50:34Z</time></trkpt><trkpt lat="41.104841505798184" lon="9.43846322192148"><ele>9.0</ele><time>2026-05-03T14:50:35Z</time></trkpt><trkpt lat="41.1047394904695" lon="9.43845697522178"><ele>9.0</ele><time>2026-05-03T14:50:36Z</time></trkpt><trkpt lat="41.10462898937366" lon="9.438453998661217"><ele>8.5</ele><time>2026-05-03T14:50:37Z</time></trkpt><trkpt lat="41.10450950141493" lon="9.43844804808454"><ele>8.0</ele><time>2026-05-03T14:50:38Z</time></trkpt><trkpt lat="41.10437738581813" lon="9.438434873451472"><ele>7.5</ele><time>2026-05-03T14:50:39Z</time></trkpt><trkpt lat="41.10423856008279" lon="9.438420512066372"><ele>7.0</ele><time>2026-05-03T14:50:40Z</time></trkpt><trkpt lat="41.104092783502004" lon="9.438381864819583"><ele>6.666666666666667</ele><time>2026-05-03T14:50:41Z</time></trkpt><trkpt lat="41.10394032614333" lon="9.438332643020313"><ele>6.333333333333334</ele><time>2026-05-03T14:50:42Z</time></trkpt><trkpt lat="41.10378665827495" lon="9.438269911735889"><ele>6.0</ele><time>2026-05-03T14:50:43Z</time></trkpt><trkpt lat="41.103640606040784" lon="9.438219190991886"><ele>6.0</ele><time>2026-05-03T14:50:44Z</time></trkpt><trkpt lat="41.10351706511302" lon="9.438187651516667"><ele>6.0</ele><time>2026-05-03T14:50:45Z</time></trkpt><trkpt lat="41.103398193556195" lon="9.43816681238566"><ele>6.0</ele><time>2026-05-03T14:50:46Z</time></trkpt><trkpt lat="41.10325832484378" lon="9.438136587774602"><ele>6.0</ele><time>2026-05-03T14:50:47Z</time></trkpt><trkpt lat="41.10311094606021" lon="9.438095748300457"><ele>6.333333333333334</ele><time>2026-05-03T14:50:48Z</time></trkpt><trkpt lat="41.10295687529665" lon="9.438054634130333"><ele>6.666666666666667</ele><time>2026-05-03T14:50:49Z</time></trkpt><trkpt lat="41.10280137737275" lon="9.438019118977683"><ele>7.0</ele><time>2026-05-03T14:50:50Z</time></trkpt><trkpt lat="41.102647601554665" lon="9.437976797041093"><ele>7.0</ele><time>2026-05-03T14:50:51Z</time></trkpt><trkpt lat="41.10250747483083" lon="9.43793430620227"><ele>7.0</ele><time>2026-05-03T14:50:52Z</time></trkpt><trkpt lat="41.10237597818891" lon="9.437899902192171"><ele>7.0</ele><time>2026-05-03T14:50:53Z</time></trkpt><trkpt lat="41.102254120821215" lon="9.43786555527266"><ele>7.0</ele><time>2026-05-03T14:50:54Z</time></trkpt><trkpt lat="41.10214103153245" lon="9.437835173585242"><ele>7.0</ele><time>2026-05-03T14:50:55Z</time></trkpt><trkpt lat="41.102036363825476" lon="9.43780334607509"><ele>7.0</ele><time>2026-05-03T14:50:56Z</time></trkpt><trkpt lat="41.101905502882786" lon="9.437781822631756"><ele>7.0</ele><time>2026-05-03T14:50:57Z</time></trkpt><trkpt lat="41.10175843627223" lon="9.437748346037056"><ele>7.0</ele><time>2026-05-03T14:50:58Z</time></trkpt><trkpt lat="41.101581139552984" lon="9.437694194059988"><ele>9.0</ele><time>2026-05-03T14:50:59Z</time></trkpt><trkpt lat="41.101368883204486" lon="9.437627993031379"><ele>11.0</ele><time>2026-05-03T14:50:59.999Z</time></trkpt><trkpt lat="41.10111965460832" lon="9.43756087907899"><ele>11.0</ele><time>2026-05-03T14:51:00.999Z</time></trkpt><trkpt lat="41.10085775225216" lon="9.437467933638525"><ele>11.0</ele><time>2026-05-03T14:51:01.999Z</time></trkpt><trkpt lat="41.100610203031515" lon="9.43741702599096"><ele>10.0</ele><time>2026-05-03T14:51:02.999Z</time></trkpt><trkpt lat="41.10033522374033" lon="9.43731065184843"><ele>9.0</ele><time>2026-05-03T14:51:03.999Z</time></trkpt><trkpt lat="41.10008055139406" lon="9.437233645664671"><ele>8.5</ele><time>2026-05-03T14:51:04.999Z</time></trkpt><trkpt lat="41.09983684925254" lon="9.43716532899472"><ele>8.0</ele><time>2026-05-03T14:51:05.999Z</time></trkpt><trkpt lat="41.09958766669451" lon="9.437072916975415"><ele>8.0</ele><time>2026-05-03T14:51:06.999Z</time></trkpt><trkpt lat="41.099360606148196" lon="9.437003645118109"><ele>8.0</ele><time>2026-05-03T14:51:07.999Z</time></trkpt><trkpt lat="41.09914802311749" lon="9.436938579562094"><ele>8.666666666666666</ele><time>2026-05-03T14:51:08.999Z</time></trkpt><trkpt lat="41.0989429623482" lon="9.436875169525345"><ele>9.333333333333334</ele><time>2026-05-03T14:51:09.999Z</time></trkpt><trkpt lat="41.09873669398965" lon="9.436811233563024"><ele>10.0</ele><time>2026-05-03T14:51:10.999Z</time></trkpt><trkpt lat="41.098535006766994" lon="9.436748298696669"><ele>10.0</ele><time>2026-05-03T14:51:11.999Z</time></trkpt><trkpt lat="41.09833337345072" lon="9.436687891098812"><ele>10.0</ele><time>2026-05-03T14:51:12.999Z</time></trkpt><trkpt lat="41.09813432581656" lon="9.436632583793076"><ele>10.0</ele><time>2026-05-03T14:51:13.999Z</time></trkpt><trkpt lat="41.09793645376002" lon="9.436584897715084"><ele>10.0</ele><time>2026-05-03T14:51:14.999Z</time></trkpt><trkpt lat="41.09773664608071" lon="9.436552618080153"><ele>10.0</ele><time>2026-05-03T14:51:15.999Z</time></trkpt><trkpt lat="41.09753257305666" lon="9.436537093561261"><ele>10.0</ele><time>2026-05-03T14:51:16.999Z</time></trkpt><trkpt lat="41.09732623471525" lon="9.436540511955943"><ele>10.0</ele><time>2026-05-03T14:51:17.999Z</time></trkpt><trkpt lat="41.09711772956065" lon="9.436543060708868"><ele>10.0</ele><time>2026-05-03T14:51:18.999Z</time></trkpt><trkpt lat="41.096908998399634" lon="9.43655681715871"><ele>10.0</ele><time>2026-05-03T14:51:19.999Z</time></trkpt><trkpt lat="41.09669340774841" lon="9.436576579222468"><ele>10.666666666666668</ele><time>2026-05-03T14:51:20.999Z</time></trkpt><trkpt lat="41.096475054008174" lon="9.436599015959553"><ele>11.333333333333334</ele><time>2026-05-03T14:51:21.999Z</time></trkpt><trkpt lat="41.09625946200332" lon="9.43661732455819"><ele>12.0</ele><time>2026-05-03T14:51:22.999Z</time></trkpt><trkpt lat="41.096047172843996" lon="9.436637321392844"><ele>12.0</ele><time>2026-05-03T14:51:23.999Z</time></trkpt><trkpt lat="41.09583165904389" lon="9.436663559729077"><ele>12.0</ele><time>2026-05-03T14:51:24.999Z</time></trkpt><trkpt lat="41.095600641859185" lon="9.436694426011147"><ele>12.0</ele><time>2026-05-03T14:51:25.999Z</time></trkpt><trkpt lat="41.09535778058383" lon="9.436720798111487"><ele>11.5</ele><time>2026-05-03T14:51:26.999Z</time></trkpt><trkpt lat="41.095092346203025" lon="9.436749378205016"><ele>11.0</ele><time>2026-05-03T14:51:27.999Z</time></trkpt><trkpt lat="41.094855218072134" lon="9.43676354694041"><ele>12.0</ele><time>2026-05-03T14:51:28.999Z</time></trkpt><trkpt lat="41.094631976104885" lon="9.436763359336181"><ele>13.0</ele><time>2026-05-03T14:51:29.999Z</time></trkpt><trkpt lat="41.09442251224248" lon="9.4367647414776"><ele>14.0</ele><time>2026-05-03T14:51:30.999Z</time></trkpt><trkpt lat="41.0942229931647" lon="9.43675659702955"><ele>14.333333333333334</ele><time>2026-05-03T14:51:31.999Z</time></trkpt><trkpt lat="41.09401922696676" lon="9.4367359644005"><ele>14.666666666666668</ele><time>2026-05-03T14:51:32.999Z</time></trkpt><trkpt lat="41.093812129029" lon="9.436703989358312"><ele>15.0</ele><time>2026-05-03T14:51:33.999Z</time></trkpt><trkpt lat="41.093602038758696" lon="9.436660523898798"><ele>15.0</ele><time>2026-05-03T14:51:34.999Z</time></trkpt><trkpt lat="41.093391658126784" lon="9.43660355852304"><ele>15.0</ele><time>2026-05-03T14:51:35.999Z</time></trkpt><trkpt lat="41.09317991725952" lon="9.436534880621664"><ele>15.0</ele><time>2026-05-03T14:51:36.999Z</time></trkpt><trkpt lat="41.09296726981437" lon="9.436457697547674"><ele>14.0</ele><time>2026-05-03T14:51:37.999Z</time></trkpt><trkpt lat="41.092753431414486" lon="9.436377601871776"><ele>13.0</ele><time>2026-05-03T14:51:38.999Z</time></trkpt><trkpt lat="41.09253815820909" lon="9.436295206084445"><ele>12.0</ele><time>2026-05-03T14:51:39.999Z</time></trkpt><trkpt lat="41.09232129538368" lon="9.436214671642102"><ele>11.666666666666666</ele><time>2026-05-03T14:51:40.999Z</time></trkpt><trkpt lat="41.09211403763144" lon="9.436137504297097"><ele>11.333333333333332</ele><time>2026-05-03T14:51:41.999Z</time></trkpt><trkpt lat="41.09192632352126" lon="9.436064232823648"><ele>11.0</ele><time>2026-05-03T14:51:42.999Z</time></trkpt><trkpt lat="41.09175376378706" lon="9.43599644296571"><ele>11.666666666666666</ele><time>2026-05-03T14:51:43.999Z</time></trkpt><trkpt lat="41.091588697333684" lon="9.435934700872256"><ele>12.333333333333332</ele><time>2026-05-03T14:51:44.999Z</time></trkpt><trkpt lat="41.09142526730932" lon="9.435876848386206"><ele>13.0</ele><time>2026-05-03T14:51:45.999Z</time></trkpt><trkpt lat="41.09126051769641" lon="9.43581486856809"><ele>13.0</ele><time>2026-05-03T14:51:46.999Z</time></trkpt><trkpt lat="41.09109510825372" lon="9.435753977723342"><ele>13.0</ele><time>2026-05-03T14:51:47.999Z</time></trkpt><trkpt lat="41.090926398764125" lon="9.435690653195248"><ele>13.0</ele><time>2026-05-03T14:51:48.999Z</time></trkpt><trkpt lat="41.09075406666265" lon="9.435625933098637"><ele>13.333333333333332</ele><time>2026-05-03T14:51:49.999Z</time></trkpt><trkpt lat="41.09057565824386" lon="9.435559257846798"><ele>13.666666666666668</ele><time>2026-05-03T14:51:50.999Z</time></trkpt><trkpt lat="41.09039068002897" lon="9.435492293291842"><ele>14.0</ele><time>2026-05-03T14:51:51.999Z</time></trkpt><trkpt lat="41.090199509893374" lon="9.435427230535025"><ele>14.333333333333334</ele><time>2026-05-03T14:51:52.999Z</time></trkpt><trkpt lat="41.09000525234083" lon="9.435357804732805"><ele>14.666666666666668</ele><time>2026-05-03T14:51:53.999Z</time></trkpt><trkpt lat="41.08981102377013" lon="9.435266067165067"><ele>15.0</ele><time>2026-05-03T14:51:54.999Z</time></trkpt><trkpt lat="41.089607601303534" lon="9.43518344006478"><ele>14.333333333333332</ele><time>2026-05-03T14:51:55.999Z</time></trkpt><trkpt lat="41.089400496323805" lon="9.4350828219318"><ele>13.666666666666666</ele><time>2026-05-03T14:51:56.999Z</time></trkpt><trkpt lat="41.089192362439356" lon="9.434969697586384"><ele>13.0</ele><time>2026-05-03T14:51:57.999Z</time></trkpt><trkpt lat="41.08898223630733" lon="9.434846439240541"><ele>12.0</ele><time>2026-05-03T14:51:58.999Z</time></trkpt><trkpt lat="41.08877598298822" lon="9.434712683022948"><ele>11.0</ele><time>2026-05-03T14:51:59.999Z</time></trkpt><trkpt lat="41.08857260845233" lon="9.434583339940026"><ele>11.0</ele><time>2026-05-03T14:52:00.999Z</time></trkpt><trkpt lat="41.088376221192384" lon="9.434458294348087"><ele>11.0</ele><time>2026-05-03T14:52:01.999Z</time></trkpt><trkpt lat="41.08818446120345" lon="9.434337969736355"><ele>11.0</ele><time>2026-05-03T14:52:02.999Z</time></trkpt><trkpt lat="41.087993400595096" lon="9.434227288301528"><ele>11.0</ele><time>2026-05-03T14:52:03.999Z</time></trkpt><trkpt lat="41.08781478760078" lon="9.43408752813344"><ele>11.0</ele><time>2026-05-03T14:52:04.999Z</time></trkpt><trkpt lat="41.08763391925228" lon="9.433968957334207"><ele>11.0</ele><time>2026-05-03T14:52:05.999Z</time></trkpt><trkpt lat="41.08746194655248" lon="9.4338652257098"><ele>11.0</ele><time>2026-05-03T14:52:07Z</time></trkpt><trkpt lat="41.08721575838244" lon="9.433983108253543"><ele>11.0</ele><time>2026-05-03T14:52:08Z</time></trkpt><trkpt lat="41.08702073025605" lon="9.43397761553545"><ele>11.0</ele><time>2026-05-03T14:52:09Z</time></trkpt><trkpt lat="41.086829337737306" lon="9.433997935361013"><ele>11.0</ele><time>2026-05-03T14:52:10Z</time></trkpt><trkpt lat="41.08663678331465" lon="9.4340173219221"><ele>11.0</ele><time>2026-05-03T14:52:11Z</time></trkpt><trkpt lat="41.08645070008594" lon="9.434033159257215"><ele>12.0</ele><time>2026-05-03T14:52:12Z</time></trkpt><trkpt lat="41.08627295273568" lon="9.434048631723051"><ele>13.0</ele><time>2026-05-03T14:52:13Z</time></trkpt><trkpt lat="41.08610335054065" lon="9.434064410173725"><ele>14.0</ele><time>2026-05-03T14:52:14Z</time></trkpt><trkpt lat="41.085934192143036" lon="9.434078705951139"><ele>14.0</ele><time>2026-05-03T14:52:15Z</time></trkpt><trkpt lat="41.08576970058112" lon="9.434098407954934"><ele>14.0</ele><time>2026-05-03T14:52:16Z</time></trkpt><trkpt lat="41.085609754843134" lon="9.434110362676845"><ele>14.0</ele><time>2026-05-03T14:52:17Z</time></trkpt><trkpt lat="41.08545571250646" lon="9.434121622037061"><ele>13.75</ele><time>2026-05-03T14:52:18Z</time></trkpt><trkpt lat="41.08531085470998" lon="9.434133711559687"><ele>13.5</ele><time>2026-05-03T14:52:19Z</time></trkpt><trkpt lat="41.08517556025966" lon="9.434144687254152"><ele>13.25</ele><time>2026-05-03T14:52:20Z</time></trkpt><trkpt lat="41.08506253326024" lon="9.434150721467535"><ele>13.0</ele><time>2026-05-03T14:52:21Z</time></trkpt><trkpt lat="41.0849902346199" lon="9.434153021188123"><ele>12.999999999999998</ele><time>2026-05-03T14:52:22Z</time></trkpt><trkpt lat="41.08490763996895" lon="9.43416899744107"><ele>13.0</ele><time>2026-05-03T14:52:24Z</time></trkpt><trkpt lat="41.084849937584885" lon="9.434263070784208"><ele>13.0</ele><time>2026-05-03T14:52:26Z</time></trkpt><trkpt lat="41.0848452490636" lon="9.434358123007856"><ele>13.0</ele><time>2026-05-03T14:52:27Z</time></trkpt><trkpt lat="41.08484288628627" lon="9.434474739038537"><ele>12.999999999999998</ele><time>2026-05-03T14:52:28Z</time></trkpt><trkpt lat="41.08483518793062" lon="9.434610400225397"><ele>13.0</ele><time>2026-05-03T14:52:29Z</time></trkpt><trkpt lat="41.08481788174331" lon="9.434762980278531"><ele>12.333333333333332</ele><time>2026-05-03T14:52:30Z</time></trkpt><trkpt lat="41.084807713234945" lon="9.434946882559085"><ele>11.666666666666666</ele><time>2026-05-03T14:52:31Z</time></trkpt><trkpt lat="41.08478562411254" lon="9.435145313172983"><ele>11.0</ele><time>2026-05-03T14:52:32Z</time></trkpt><trkpt lat="41.08476114579871" lon="9.435361447940162"><ele>10.333333333333332</ele><time>2026-05-03T14:52:33Z</time></trkpt><trkpt lat="41.08473697079025" lon="9.43559397161103"><ele>9.666666666666666</ele><time>2026-05-03T14:52:34Z</time></trkpt><trkpt lat="41.08471582863679" lon="9.4358325412011"><ele>9.0</ele><time>2026-05-03T14:52:35Z</time></trkpt><trkpt lat="41.08469271514312" lon="9.436082591769344"><ele>8.666666666666666</ele><time>2026-05-03T14:52:36Z</time></trkpt><trkpt lat="41.084675446132856" lon="9.436332893313821"><ele>8.333333333333332</ele><time>2026-05-03T14:52:37Z</time></trkpt><trkpt lat="41.08465337133362" lon="9.43659817377206"><ele>8.0</ele><time>2026-05-03T14:52:38Z</time></trkpt><trkpt lat="41.084631445844906" lon="9.436875024769595"><ele>8.333333333333332</ele><time>2026-05-03T14:52:39Z</time></trkpt><trkpt lat="41.084605358500696" lon="9.437143894478636"><ele>8.666666666666666</ele><time>2026-05-03T14:52:40Z</time></trkpt><trkpt lat="41.0845786439045" lon="9.437410360120673"><ele>9.0</ele><time>2026-05-03T14:52:41Z</time></trkpt><trkpt lat="41.08455327965825" lon="9.437674300277413"><ele>9.0</ele><time>2026-05-03T14:52:42Z</time></trkpt><trkpt lat="41.08452958787072" lon="9.437940241948278"><ele>9.0</ele><time>2026-05-03T14:52:43Z</time></trkpt><trkpt lat="41.084507627114974" lon="9.438207355006583"><ele>9.0</ele><time>2026-05-03T14:52:44Z</time></trkpt><trkpt lat="41.084484586081004" lon="9.438479266209137"><ele>8.333333333333334</ele><time>2026-05-03T14:52:45Z</time></trkpt><trkpt lat="41.084461046112175" lon="9.438752996750475"><ele>7.666666666666667</ele><time>2026-05-03T14:52:46Z</time></trkpt><trkpt lat="41.08443574983275" lon="9.439028090821026"><ele>7.0</ele><time>2026-05-03T14:52:47Z</time></trkpt><trkpt lat="41.08441028238343" lon="9.439306041897146"><ele>6.666666666666667</ele><time>2026-05-03T14:52:48Z</time></trkpt><trkpt lat="41.084384453343326" lon="9.439585548787832"><ele>6.333333333333334</ele><time>2026-05-03T14:52:49Z</time></trkpt><trkpt lat="41.084361861004" lon="9.439867664244982"><ele>6.0</ele><time>2026-05-03T14:52:50Z</time></trkpt><trkpt lat="41.08434019828308" lon="9.44014786048737"><ele>6.0</ele><time>2026-05-03T14:52:51Z</time></trkpt><trkpt lat="41.08432389270109" lon="9.440427999142065"><ele>6.0</ele><time>2026-05-03T14:52:52Z</time></trkpt><trkpt lat="41.08431109569608" lon="9.440707210443346"><ele>6.0</ele><time>2026-05-03T14:52:53Z</time></trkpt><trkpt lat="41.084301223144486" lon="9.440979492049104"><ele>5.333333333333333</ele><time>2026-05-03T14:52:54Z</time></trkpt><trkpt lat="41.08429137531474" lon="9.441232609758137"><ele>4.666666666666666</ele><time>2026-05-03T14:52:55Z</time></trkpt><trkpt lat="41.08427764888496" lon="9.441474089397643"><ele>4.0</ele><time>2026-05-03T14:52:56Z</time></trkpt><trkpt lat="41.084256703461534" lon="9.44171484116595"><ele>4.0</ele><time>2026-05-03T14:52:57Z</time></trkpt><trkpt lat="41.08422049078225" lon="9.441943960990308"><ele>4.0</ele><time>2026-05-03T14:52:58Z</time></trkpt><trkpt lat="41.084152045633296" lon="9.442141537515285"><ele>4.0</ele><time>2026-05-03T14:52:59Z</time></trkpt><trkpt lat="41.08405335703766" lon="9.442309184085573"><ele>3.333333333333333</ele><time>2026-05-03T14:53:00Z</time></trkpt><trkpt lat="41.08393404801041" lon="9.442462130617448"><ele>2.6666666666666665</ele><time>2026-05-03T14:53:01Z</time></trkpt><trkpt lat="41.08380558056321" lon="9.442605527843911"><ele>2.0</ele><time>2026-05-03T14:53:02Z</time></trkpt><trkpt lat="41.08367444055163" lon="9.442756760127692"><ele>2.0</ele><time>2026-05-03T14:53:03Z</time></trkpt><trkpt lat="41.08355168048197" lon="9.442902318729715"><ele>2.0</ele><time>2026-05-03T14:53:04Z</time></trkpt><trkpt lat="41.08343167836646" lon="9.443047446842092"><ele>2.0</ele><time>2026-05-03T14:53:05Z</time></trkpt><trkpt lat="41.083320896748866" lon="9.443200096360666"><ele>2.0</ele><time>2026-05-03T14:53:06Z</time></trkpt><trkpt lat="41.08322892204245" lon="9.443356862873124"><ele>2.0</ele><time>2026-05-03T14:53:07Z</time></trkpt><trkpt lat="41.0831535321893" lon="9.443535801417717"><ele>2.0</ele><time>2026-05-03T14:53:08Z</time></trkpt><trkpt lat="41.08309724059335" lon="9.443724939288195"><ele>2.0</ele><time>2026-05-03T14:53:09Z</time></trkpt><trkpt lat="41.08305733119048" lon="9.443931891980633"><ele>2.0</ele><time>2026-05-03T14:53:09.999Z</time></trkpt><trkpt lat="41.08304581860891" lon="9.444149936777533"><ele>2.0</ele><time>2026-05-03T14:53:10.999Z</time></trkpt><trkpt lat="41.083049628319216" lon="9.44437497046511"><ele>2.0</ele><time>2026-05-03T14:53:11.999Z</time></trkpt><trkpt lat="41.083055147670635" lon="9.44457934296661"><ele>2.0</ele><time>2026-05-03T14:53:12.999Z</time></trkpt><trkpt lat="41.08304427795792" lon="9.444785637318223"><ele>2.0</ele><time>2026-05-03T14:53:13.999Z</time></trkpt><trkpt lat="41.08305428006692" lon="9.444997804137078"><ele>2.6666666666666665</ele><time>2026-05-03T14:53:14.999Z</time></trkpt><trkpt lat="41.08306462615435" lon="9.445217267526946"><ele>3.333333333333333</ele><time>2026-05-03T14:53:15.999Z</time></trkpt><trkpt lat="41.083074727026776" lon="9.445441463168638"><ele>4.0</ele><time>2026-05-03T14:53:16.999Z</time></trkpt><trkpt lat="41.08308451429339" lon="9.445670890810456"><ele>4.0</ele><time>2026-05-03T14:53:17.999Z</time></trkpt><trkpt lat="41.08311079572042" lon="9.44590507154587"><ele>4.0</ele><time>2026-05-03T14:53:18.999Z</time></trkpt><trkpt lat="41.08310352323183" lon="9.446145053327182"><ele>4.0</ele><time>2026-05-03T14:53:19.999Z</time></trkpt><trkpt lat="41.08311275208617" lon="9.446385231964628"><ele>3.333333333333333</ele><time>2026-05-03T14:53:20.999Z</time></trkpt><trkpt lat="41.08311149489864" lon="9.446620355154316"><ele>2.6666666666666665</ele><time>2026-05-03T14:53:21.999Z</time></trkpt><trkpt lat="41.0830893622953" lon="9.44684693488379"><ele>2.0</ele><time>2026-05-03T14:53:22.999Z</time></trkpt><trkpt lat="41.083038840180386" lon="9.447050281671498"><ele>2.0</ele><time>2026-05-03T14:53:23.999Z</time></trkpt><trkpt lat="41.082960430284494" lon="9.44724260270333"><ele>2.0</ele><time>2026-05-03T14:53:24.999Z</time></trkpt><trkpt lat="41.082869815822725" lon="9.44744882018985"><ele>2.0</ele><time>2026-05-03T14:53:25.999Z</time></trkpt><trkpt lat="41.08277963599341" lon="9.447648965656908"><ele>2.0</ele><time>2026-05-03T14:53:26.999Z</time></trkpt><trkpt lat="41.082695087705886" lon="9.447841068459695"><ele>2.0</ele><time>2026-05-03T14:53:27.999Z</time></trkpt><trkpt lat="41.08262256733638" lon="9.44802601579756"><ele>2.0</ele><time>2026-05-03T14:53:28.999Z</time></trkpt><trkpt lat="41.08258151449466" lon="9.448217795573207"><ele>2.0</ele><time>2026-05-03T14:53:29.999Z</time></trkpt><trkpt lat="41.08255270111551" lon="9.448403487711376"><ele>2.0</ele><time>2026-05-03T14:53:30.999Z</time></trkpt><trkpt lat="41.082554664661856" lon="9.448614832690497"><ele>2.0</ele><time>2026-05-03T14:53:31.999Z</time></trkpt><trkpt lat="41.08257528397741" lon="9.448845290775395"><ele>2.0</ele><time>2026-05-03T14:53:32.999Z</time></trkpt><trkpt lat="41.08259381296709" lon="9.449080893832342"><ele>2.0</ele><time>2026-05-03T14:53:33.999Z</time></trkpt><trkpt lat="41.08260269692518" lon="9.449322354649112"><ele>2.0</ele><time>2026-05-03T14:53:34.999Z</time></trkpt><trkpt lat="41.082614500667376" lon="9.449562908692107"><ele>2.333333333333333</ele><time>2026-05-03T14:53:35.999Z</time></trkpt><trkpt lat="41.082634066006975" lon="9.449793381973887"><ele>2.6666666666666665</ele><time>2026-05-03T14:53:36.999Z</time></trkpt><trkpt lat="41.082704188915265" lon="9.450013447374005"><ele>3.0</ele><time>2026-05-03T14:53:37.999Z</time></trkpt><trkpt lat="41.08275600267741" lon="9.450236137254537"><ele>3.0</ele><time>2026-05-03T14:53:38.999Z</time></trkpt><trkpt lat="41.08283686927016" lon="9.450441233260827"><ele>3.0</ele><time>2026-05-03T14:53:39.999Z</time></trkpt><trkpt lat="41.08291386447408" lon="9.450651211128998"><ele>3.0</ele><time>2026-05-03T14:53:40.999Z</time></trkpt><trkpt lat="41.082992086419345" lon="9.450872290743877"><ele>3.0</ele><time>2026-05-03T14:53:41.999Z</time></trkpt><trkpt lat="41.083070424492334" lon="9.451087046923874"><ele>3.0</ele><time>2026-05-03T14:53:42.999Z</time></trkpt><trkpt lat="41.08314457368843" lon="9.451299233781668"><ele>3.0</ele><time>2026-05-03T14:53:43.999Z</time></trkpt><trkpt lat="41.08321826466159" lon="9.451507637849573"><ele>4.0</ele><time>2026-05-03T14:53:44.999Z</time></trkpt><trkpt lat="41.08329152743096" lon="9.451716042952132"><ele>5.0</ele><time>2026-05-03T14:53:45.999Z</time></trkpt><trkpt lat="41.083361201291275" lon="9.451921926167513"><ele>6.0</ele><time>2026-05-03T14:53:46.999Z</time></trkpt><trkpt lat="41.08342986898491" lon="9.452122966300513"><ele>7.0</ele><time>2026-05-03T14:53:47.999Z</time></trkpt><trkpt lat="41.083498106868966" lon="9.452326591345843"><ele>8.0</ele><time>2026-05-03T14:53:48.999Z</time></trkpt><trkpt lat="41.083572656490254" lon="9.452535338846111"><ele>9.0</ele><time>2026-05-03T14:53:49.999Z</time></trkpt><trkpt lat="41.08365061548805" lon="9.452742703784402"><ele>9.0</ele><time>2026-05-03T14:53:50.999Z</time></trkpt><trkpt lat="41.08373978646283" lon="9.452933519976344"><ele>9.0</ele><time>2026-05-03T14:53:51.999Z</time></trkpt><trkpt lat="41.08383661341706" lon="9.453108905384395"><ele>9.0</ele><time>2026-05-03T14:53:52.999Z</time></trkpt><trkpt lat="41.08393598182242" lon="9.453247751872308"><ele>9.0</ele><time>2026-05-03T14:53:53.999Z</time></trkpt><trkpt lat="41.08405716487073" lon="9.453373140491086"><ele>9.0</ele><time>2026-05-03T14:53:54.999Z</time></trkpt><trkpt lat="41.08419070239402" lon="9.45348564740362"><ele>9.0</ele><time>2026-05-03T14:53:55.999Z</time></trkpt><trkpt lat="41.0843308934906" lon="9.453588140463154"><ele>9.75</ele><time>2026-05-03T14:53:56.999Z</time></trkpt><trkpt lat="41.08446277981139" lon="9.453685034944158"><ele>10.5</ele><time>2026-05-03T14:53:57.999Z</time></trkpt><trkpt lat="41.084590461820206" lon="9.45377992854086"><ele>11.25</ele><time>2026-05-03T14:53:58.999Z</time></trkpt><trkpt lat="41.08470063798058" lon="9.453868309110211"><ele>12.0</ele><time>2026-05-03T14:53:59.999Z</time></trkpt><trkpt lat="41.08480485786174" lon="9.453953443781472"><ele>12.0</ele><time>2026-05-03T14:54:00.999Z</time></trkpt><trkpt lat="41.08490017739972" lon="9.454031007731489"><ele>12.0</ele><time>2026-05-03T14:54:01.999Z</time></trkpt><trkpt lat="41.084987846462134" lon="9.454106571674238"><ele>12.0</ele><time>2026-05-03T14:54:02.999Z</time></trkpt><trkpt lat="41.0850684948428" lon="9.454171803648647"><ele>12.0</ele><time>2026-05-03T14:54:03.999Z</time></trkpt><trkpt lat="41.0851409154132" lon="9.454223729424408"><ele>12.0</ele><time>2026-05-03T14:54:04.999Z</time></trkpt><trkpt lat="41.08521384661699" lon="9.454291434581062"><ele>13.2</ele><time>2026-05-03T14:54:05.999Z</time></trkpt><trkpt lat="41.08526740027706" lon="9.454356929070396"><ele>14.399999999999999</ele><time>2026-05-03T14:54:06.999Z</time></trkpt><trkpt lat="41.08531072363198" lon="9.454429643142973"><ele>15.600000000000001</ele><time>2026-05-03T14:54:08.999Z</time></trkpt><trkpt lat="41.08538734636341" lon="9.454493833033808"><ele>16.8</ele><time>2026-05-03T14:54:22Z</time></trkpt><trkpt lat="41.085497160202586" lon="9.45433028570943"><ele>18.0</ele><time>2026-05-03T14:54:24Z</time></trkpt><trkpt lat="41.08554433867954" lon="9.4542024120475"><ele>18.0</ele><time>2026-05-03T14:54:25Z</time></trkpt><trkpt lat="41.08557893075067" lon="9.454051326180284"><ele>18.0</ele><time>2026-05-03T14:54:26Z</time></trkpt><trkpt lat="41.085636273824015" lon="9.453895536395294"><ele>18.0</ele><time>2026-05-03T14:54:27Z</time></trkpt><trkpt lat="41.085718896703916" lon="9.453735690777181"><ele>18.0</ele><time>2026-05-03T14:54:28Z</time></trkpt><trkpt lat="41.08583919496225" lon="9.453588574096823"><ele>19.0</ele><time>2026-05-03T14:54:29Z</time></trkpt><trkpt lat="41.08598027180061" lon="9.453472861813749"><ele>20.0</ele><time>2026-05-03T14:54:30Z</time></trkpt><trkpt lat="41.08613726120892" lon="9.453382111076808"><ele>21.0</ele><time>2026-05-03T14:54:31Z</time></trkpt><trkpt lat="41.08628664212418" lon="9.453303661759927"><ele>21.0</ele><time>2026-05-03T14:54:32Z</time></trkpt><trkpt lat="41.086428881632195" lon="9.453264218622081"><ele>21.0</ele><time>2026-05-03T14:54:33Z</time></trkpt><trkpt lat="41.08657901458451" lon="9.453251967911207"><ele>21.0</ele><time>2026-05-03T14:54:34Z</time></trkpt><trkpt lat="41.086730249533176" lon="9.453274453057277"><ele>21.0</ele><time>2026-05-03T14:54:35Z</time></trkpt><trkpt lat="41.086875880296176" lon="9.453336815847889"><ele>21.0</ele><time>2026-05-03T14:54:36Z</time></trkpt><trkpt lat="41.08701681731197" lon="9.453426309260099"><ele>21.0</ele><time>2026-05-03T14:54:37Z</time></trkpt><trkpt lat="41.08715421881013" lon="9.45352111729967"><ele>21.0</ele><time>2026-05-03T14:54:38Z</time></trkpt><trkpt lat="41.08729555504761" lon="9.453610664934937"><ele>21.0</ele><time>2026-05-03T14:54:39Z</time></trkpt><trkpt lat="41.087439243596314" lon="9.453697968034387"><ele>21.0</ele><time>2026-05-03T14:54:40Z</time></trkpt><trkpt lat="41.08758591082507" lon="9.453784903390513"><ele>21.0</ele><time>2026-05-03T14:54:41Z</time></trkpt><trkpt lat="41.0877337405772" lon="9.45387469657429"><ele>21.0</ele><time>2026-05-03T14:54:42Z</time></trkpt><trkpt lat="41.087883438086436" lon="9.45395825915834"><ele>21.0</ele><time>2026-05-03T14:54:43Z</time></trkpt><trkpt lat="41.088036471425376" lon="9.454016659013082"><ele>21.0</ele><time>2026-05-03T14:54:44Z</time></trkpt><trkpt lat="41.088203041308546" lon="9.454035116188376"><ele>20.333333333333332</ele><time>2026-05-03T14:54:45Z</time></trkpt><trkpt lat="41.08836679088264" lon="9.45401301922794"><ele>19.666666666666664</ele><time>2026-05-03T14:54:46Z</time></trkpt><trkpt lat="41.08852881368503" lon="9.453952635753058"><ele>19.0</ele><time>2026-05-03T14:54:47Z</time></trkpt><trkpt lat="41.08869202992472" lon="9.453861790724378"><ele>19.333333333333332</ele><time>2026-05-03T14:54:48Z</time></trkpt><trkpt lat="41.08885398729122" lon="9.453755565418978"><ele>19.666666666666668</ele><time>2026-05-03T14:54:49Z</time></trkpt><trkpt lat="41.089016941184084" lon="9.453644314988471"><ele>20.0</ele><time>2026-05-03T14:54:50Z</time></trkpt><trkpt lat="41.08918420054716" lon="9.453542631438674"><ele>20.0</ele><time>2026-05-03T14:54:51Z</time></trkpt><trkpt lat="41.08935585178613" lon="9.453449993255337"><ele>20.0</ele><time>2026-05-03T14:54:52Z</time></trkpt><trkpt lat="41.08951696585912" lon="9.453361075790257"><ele>20.0</ele><time>2026-05-03T14:54:53Z</time></trkpt><trkpt lat="41.089671159118936" lon="9.4532884137522"><ele>20.0</ele><time>2026-05-03T14:54:54Z</time></trkpt><trkpt lat="41.089838478156324" lon="9.453241063803118"><ele>20.0</ele><time>2026-05-03T14:54:55Z</time></trkpt><trkpt lat="41.09001552486587" lon="9.453221356644358"><ele>20.0</ele><time>2026-05-03T14:54:56Z</time></trkpt><trkpt lat="41.090196766220345" lon="9.45321467164495"><ele>21.666666666666668</ele><time>2026-05-03T14:54:57Z</time></trkpt><trkpt lat="41.09037793001837" lon="9.453206084106023"><ele>23.333333333333336</ele><time>2026-05-03T14:54:58Z</time></trkpt><trkpt lat="41.09056004040683" lon="9.453192130606215"><ele>25.0</ele><time>2026-05-03T14:54:59Z</time></trkpt><trkpt lat="41.09074194374758" lon="9.453177399688082"><ele>25.333333333333336</ele><time>2026-05-03T14:55:00Z</time></trkpt><trkpt lat="41.09092607525086" lon="9.453164003933281"><ele>25.666666666666664</ele><time>2026-05-03T14:55:01Z</time></trkpt><trkpt lat="41.09109138363721" lon="9.453143865437507"><ele>26.0</ele><time>2026-05-03T14:55:02Z</time></trkpt><trkpt lat="41.09125910412105" lon="9.453109461040189"><ele>26.0</ele><time>2026-05-03T14:55:03Z</time></trkpt><trkpt lat="41.09142829097299" lon="9.453033607133229"><ele>26.0</ele><time>2026-05-03T14:55:04Z</time></trkpt><trkpt lat="41.091583218582564" lon="9.452922233118745"><ele>26.0</ele><time>2026-05-03T14:55:05Z</time></trkpt><trkpt lat="41.091723226999314" lon="9.452786739195178"><ele>24.666666666666664</ele><time>2026-05-03T14:55:06Z</time></trkpt><trkpt lat="41.09185177480114" lon="9.452644894190747"><ele>23.333333333333332</ele><time>2026-05-03T14:55:07Z</time></trkpt><trkpt lat="41.09197000389444" lon="9.452504026774406"><ele>22.0</ele><time>2026-05-03T14:55:08Z</time></trkpt><trkpt lat="41.09210001457742" lon="9.45239931099038"><ele>22.0</ele><time>2026-05-03T14:55:09Z</time></trkpt><trkpt lat="41.09223394932424" lon="9.452284174472679"><ele>22.0</ele><time>2026-05-03T14:55:10Z</time></trkpt><trkpt lat="41.092377983215556" lon="9.452175795616188"><ele>22.0</ele><time>2026-05-03T14:55:11Z</time></trkpt><trkpt lat="41.09253650278916" lon="9.452084074277249"><ele>20.333333333333332</ele><time>2026-05-03T14:55:12Z</time></trkpt><trkpt lat="41.092706135890325" lon="9.452000006828767"><ele>18.666666666666668</ele><time>2026-05-03T14:55:13Z</time></trkpt><trkpt lat="41.09287697752694" lon="9.451921680517978"><ele>17.0</ele><time>2026-05-03T14:55:14Z</time></trkpt><trkpt lat="41.09304535672397" lon="9.451861851937363"><ele>17.0</ele><time>2026-05-03T14:55:15Z</time></trkpt><trkpt lat="41.09321549025529" lon="9.45186151928503"><ele>17.0</ele><time>2026-05-03T14:55:16Z</time></trkpt><trkpt lat="41.093386776563484" lon="9.4518819083616"><ele>17.0</ele><time>2026-05-03T14:55:17Z</time></trkpt><trkpt lat="41.09356126924193" lon="9.451950558877977"><ele>16.666666666666668</ele><time>2026-05-03T14:55:18Z</time></trkpt><trkpt lat="41.09374601283513" lon="9.452015446579669"><ele>16.333333333333332</ele><time>2026-05-03T14:55:19Z</time></trkpt><trkpt lat="41.09392795879179" lon="9.452109451848253"><ele>16.0</ele><time>2026-05-03T14:55:20Z</time></trkpt><trkpt lat="41.094114502362984" lon="9.452191054074355"><ele>17.333333333333332</ele><time>2026-05-03T14:55:21Z</time></trkpt><trkpt lat="41.094304001508" lon="9.452273094576954"><ele>18.666666666666668</ele><time>2026-05-03T14:55:22Z</time></trkpt><trkpt lat="41.09449313598533" lon="9.452354424615846"><ele>20.0</ele><time>2026-05-03T14:55:23Z</time></trkpt><trkpt lat="41.09468278411607" lon="9.452437065290347"><ele>20.0</ele><time>2026-05-03T14:55:24Z</time></trkpt><trkpt lat="41.09487099736383" lon="9.452521048080156"><ele>20.0</ele><time>2026-05-03T14:55:25Z</time></trkpt><trkpt lat="41.095057697450336" lon="9.452604028347343"><ele>20.0</ele><time>2026-05-03T14:55:26Z</time></trkpt><trkpt lat="41.095241978413405" lon="9.452684014316246"><ele>18.666666666666668</ele><time>2026-05-03T14:55:26.999Z</time></trkpt><trkpt lat="41.09542469240143" lon="9.452767052511524"><ele>17.333333333333332</ele><time>2026-05-03T14:55:27.999Z</time></trkpt><trkpt lat="41.095604465225094" lon="9.452847860934892"><ele>16.0</ele><time>2026-05-03T14:55:28.999Z</time></trkpt><trkpt lat="41.095782074500875" lon="9.452924957266507"><ele>16.666666666666664</ele><time>2026-05-03T14:55:29.999Z</time></trkpt><trkpt lat="41.09595751878883" lon="9.45299722971951"><ele>17.333333333333332</ele><time>2026-05-03T14:55:30.999Z</time></trkpt><trkpt lat="41.09613148903913" lon="9.45306202638264"><ele>18.0</ele><time>2026-05-03T14:55:31.999Z</time></trkpt><trkpt lat="41.09630516753862" lon="9.453123606708319"><ele>18.0</ele><time>2026-05-03T14:55:32.999Z</time></trkpt><trkpt lat="41.0964788517557" lon="9.45318280165382"><ele>18.0</ele><time>2026-05-03T14:55:33.999Z</time></trkpt><trkpt lat="41.096654573776085" lon="9.453243761872855"><ele>18.0</ele><time>2026-05-03T14:55:34.999Z</time></trkpt><trkpt lat="41.09683270927663" lon="9.453304769651101"><ele>17.666666666666668</ele><time>2026-05-03T14:55:35.999Z</time></trkpt><trkpt lat="41.09700930181542" lon="9.453358812141717"><ele>17.333333333333336</ele><time>2026-05-03T14:55:36.999Z</time></trkpt><trkpt lat="41.09718967123866" lon="9.45342964239461"><ele>17.0</ele><time>2026-05-03T14:55:37.999Z</time></trkpt><trkpt lat="41.09736245628877" lon="9.45348944010867"><ele>16.5</ele><time>2026-05-03T14:55:38.999Z</time></trkpt><trkpt lat="41.0975225040927" lon="9.45354770873465"><ele>16.0</ele><time>2026-05-03T14:55:39.999Z</time></trkpt><trkpt lat="41.097664520343855" lon="9.45359609410312"><ele>15.5</ele><time>2026-05-03T14:55:40.999Z</time></trkpt><trkpt lat="41.097786793459264" lon="9.453633401134708"><ele>15.0</ele><time>2026-05-03T14:55:41.999Z</time></trkpt><trkpt lat="41.09789713998434" lon="9.45367243233449"><ele>15.0</ele><time>2026-05-03T14:55:42.999Z</time></trkpt><trkpt lat="41.09800435719394" lon="9.453713273692628"><ele>15.0</ele><time>2026-05-03T14:55:43.999Z</time></trkpt><trkpt lat="41.09810772813819" lon="9.453751067221036"><ele>15.0</ele><time>2026-05-03T14:55:44.999Z</time></trkpt><trkpt lat="41.09821015162455" lon="9.453784066733391"><ele>15.0</ele><time>2026-05-03T14:55:45.999Z</time></trkpt><trkpt lat="41.09832034231146" lon="9.453824069918152"><ele>15.0</ele><time>2026-05-03T14:55:46.999Z</time></trkpt><trkpt lat="41.09844060841471" lon="9.453869108258656"><ele>15.5</ele><time>2026-05-03T14:55:47.999Z</time></trkpt><trkpt lat="41.098568486156466" lon="9.453926113561815"><ele>16.0</ele><time>2026-05-03T14:55:48.999Z</time></trkpt><trkpt lat="41.09870108300183" lon="9.454017534788711"><ele>16.5</ele><time>2026-05-03T14:55:49.999Z</time></trkpt><trkpt lat="41.09883054881609" lon="9.454123119157643"><ele>17.0</ele><time>2026-05-03T14:55:50.999Z</time></trkpt><trkpt lat="41.098952278698185" lon="9.454260810651391"><ele>17.0</ele><time>2026-05-03T14:55:51.999Z</time></trkpt><trkpt lat="41.099069581164706" lon="9.454431193358698"><ele>17.0</ele><time>2026-05-03T14:55:52.999Z</time></trkpt><trkpt lat="41.09918606820953" lon="9.454615413410673"><ele>17.0</ele><time>2026-05-03T14:55:53.999Z</time></trkpt><trkpt lat="41.09929544522867" lon="9.454793866649492"><ele>17.25</ele><time>2026-05-03T14:55:54.999Z</time></trkpt><trkpt lat="41.09939763647658" lon="9.45495558908637"><ele>17.5</ele><time>2026-05-03T14:55:55.999Z</time></trkpt><trkpt lat="41.09948515899515" lon="9.455087619453025"><ele>17.75</ele><time>2026-05-03T14:55:56.999Z</time></trkpt><trkpt lat="41.09956320494124" lon="9.455200235139724"><ele>18.0</ele><time>2026-05-03T14:55:57.999Z</time></trkpt><trkpt lat="41.099644263756836" lon="9.455305189475844"><ele>18.0</ele><time>2026-05-03T14:55:58.999Z</time></trkpt><trkpt lat="41.09973549517205" lon="9.455403720027128"><ele>18.0</ele><time>2026-05-03T14:55:59.999Z</time></trkpt><trkpt lat="41.099837809436615" lon="9.455489334500811"><ele>18.0</ele><time>2026-05-03T14:56:00.999Z</time></trkpt><trkpt lat="41.09994966929358" lon="9.455561334163056"><ele>18.0</ele><time>2026-05-03T14:56:01.999Z</time></trkpt><trkpt lat="41.10007204168993" lon="9.455617319352806"><ele>17.0</ele><time>2026-05-03T14:56:02.999Z</time></trkpt><trkpt lat="41.10020056586032" lon="9.455644729738278"><ele>16.0</ele><time>2026-05-03T14:56:03.999Z</time></trkpt><trkpt lat="41.10033141917667" lon="9.45565427610042"><ele>15.0</ele><time>2026-05-03T14:56:04.999Z</time></trkpt><trkpt lat="41.10045640185338" lon="9.455663219520513"><ele>14.0</ele><time>2026-05-03T14:56:05.999Z</time></trkpt><trkpt lat="41.10057933853143" lon="9.455674438036834"><ele>14.0</ele><time>2026-05-03T14:56:06.999Z</time></trkpt><trkpt lat="41.10070126975025" lon="9.45568953344788"><ele>14.0</ele><time>2026-05-03T14:56:07.999Z</time></trkpt><trkpt lat="41.10082545781783" lon="9.455707690166507"><ele>14.0</ele><time>2026-05-03T14:56:08.999Z</time></trkpt><trkpt lat="41.10094868437417" lon="9.45572675132643"><ele>14.0</ele><time>2026-05-03T14:56:09.999Z</time></trkpt><trkpt lat="41.101073836391365" lon="9.455746017984843"><ele>14.0</ele><time>2026-05-03T14:56:10.999Z</time></trkpt><trkpt lat="41.101194973631685" lon="9.455767076164268"><ele>14.0</ele><time>2026-05-03T14:56:11.999Z</time></trkpt><trkpt lat="41.10131466923929" lon="9.455766975972358"><ele>14.0</ele><time>2026-05-03T14:56:12.999Z</time></trkpt><trkpt lat="41.1014375100156" lon="9.455775604602652"><ele>14.0</ele><time>2026-05-03T14:56:13.999Z</time></trkpt><trkpt lat="41.101565254868824" lon="9.455786799636813"><ele>13.75</ele><time>2026-05-03T14:56:14.999Z</time></trkpt><trkpt lat="41.101692957621246" lon="9.455801608827388"><ele>13.5</ele><time>2026-05-03T14:56:15.999Z</time></trkpt><trkpt lat="41.101821294467435" lon="9.455821133566769"><ele>13.25</ele><time>2026-05-03T14:56:16.999Z</time></trkpt><trkpt lat="41.101951777496325" lon="9.455842436277173"><ele>13.0</ele><time>2026-05-03T14:56:17.999Z</time></trkpt><trkpt lat="41.102078731843" lon="9.455922217865954"><ele>13.0</ele><time>2026-05-03T14:56:19Z</time></trkpt><trkpt lat="41.10220747006474" lon="9.456008949380266"><ele>13.0</ele><time>2026-05-03T14:56:20Z</time></trkpt><trkpt lat="41.102334689044774" lon="9.456120404406969"><ele>13.0</ele><time>2026-05-03T14:56:21Z</time></trkpt><trkpt lat="41.10247172014731" lon="9.456237381664396"><ele>15.0</ele><time>2026-05-03T14:56:22Z</time></trkpt><trkpt lat="41.102607150335004" lon="9.456351397440274"><ele>17.0</ele><time>2026-05-03T14:56:23Z</time></trkpt><trkpt lat="41.10273990584124" lon="9.456463162838043"><ele>19.0</ele><time>2026-05-03T14:56:24Z</time></trkpt><trkpt lat="41.10286707180206" lon="9.45657022170503"><ele>19.0</ele><time>2026-05-03T14:56:25Z</time></trkpt><trkpt lat="41.102997330624355" lon="9.456661422557097"><ele>19.0</ele><time>2026-05-03T14:56:26Z</time></trkpt><trkpt lat="41.103122150332695" lon="9.456760407048684"><ele>19.0</ele><time>2026-05-03T14:56:27Z</time></trkpt><trkpt lat="41.10324935638227" lon="9.456849514126587"><ele>19.0</ele><time>2026-05-03T14:56:28Z</time></trkpt><trkpt lat="41.103382820360004" lon="9.456922297517005"><ele>20.0</ele><time>2026-05-03T14:56:29Z</time></trkpt><trkpt lat="41.103527381982936" lon="9.456965143502257"><ele>21.0</ele><time>2026-05-03T14:56:30Z</time></trkpt><trkpt lat="41.10367853389975" lon="9.456977848345161"><ele>22.0</ele><time>2026-05-03T14:56:31Z</time></trkpt><trkpt lat="41.10383125041677" lon="9.456962674270052"><ele>22.0</ele><time>2026-05-03T14:56:32Z</time></trkpt><trkpt lat="41.10398033629276" lon="9.456931067831235"><ele>22.0</ele><time>2026-05-03T14:56:33Z</time></trkpt><trkpt lat="41.10413255674316" lon="9.456895223378915"><ele>22.0</ele><time>2026-05-03T14:56:34Z</time></trkpt><trkpt lat="41.1042897157873" lon="9.456841759017998"><ele>23.5</ele><time>2026-05-03T14:56:35Z</time></trkpt><trkpt lat="41.10444481515078" lon="9.456819544163025"><ele>25.0</ele><time>2026-05-03T14:56:36Z</time></trkpt><trkpt lat="41.104593033659036" lon="9.456803410109519"><ele>26.5</ele><time>2026-05-03T14:56:37Z</time></trkpt><trkpt lat="41.10473400412704" lon="9.456779757906283"><ele>28.0</ele><time>2026-05-03T14:56:38Z</time></trkpt><trkpt lat="41.104875530820934" lon="9.456752119622676"><ele>29.0</ele><time>2026-05-03T14:56:39Z</time></trkpt><trkpt lat="41.10501617108208" lon="9.456727540519637"><ele>30.0</ele><time>2026-05-03T14:56:40Z</time></trkpt><trkpt lat="41.105149618531804" lon="9.45670561953879"><ele>31.0</ele><time>2026-05-03T14:56:41Z</time></trkpt><trkpt lat="41.10527702471694" lon="9.456689376565539"><ele>32.0</ele><time>2026-05-03T14:56:42Z</time></trkpt><trkpt lat="41.10540167235849" lon="9.456679150831079"><ele>32.0</ele><time>2026-05-03T14:56:43Z</time></trkpt><trkpt lat="41.10552571553391" lon="9.456677401989955"><ele>32.0</ele><time>2026-05-03T14:56:44Z</time></trkpt><trkpt lat="41.10564283385942" lon="9.45668833089841"><ele>32.0</ele><time>2026-05-03T14:56:45Z</time></trkpt><trkpt lat="41.10577705266192" lon="9.456742309374095"><ele>32.0</ele><time>2026-05-03T14:56:46Z</time></trkpt><trkpt lat="41.105900050124724" lon="9.456825444756454"><ele>32.75</ele><time>2026-05-03T14:56:47Z</time></trkpt><trkpt lat="41.10602213092394" lon="9.456929754135105"><ele>33.5</ele><time>2026-05-03T14:56:48Z</time></trkpt><trkpt lat="41.10613323473536" lon="9.457052561734239"><ele>34.25</ele><time>2026-05-03T14:56:49Z</time></trkpt><trkpt lat="41.106233152803235" lon="9.457210433185711"><ele>35.0</ele><time>2026-05-03T14:56:50Z</time></trkpt><trkpt lat="41.106326831866525" lon="9.45738534597373"><ele>34.33333333333333</ele><time>2026-05-03T14:56:51Z</time></trkpt><trkpt lat="41.1064216439705" lon="9.457561819777514"><ele>33.666666666666664</ele><time>2026-05-03T14:56:52Z</time></trkpt><trkpt lat="41.10652318930949" lon="9.45773512638876"><ele>33.0</ele><time>2026-05-03T14:56:53Z</time></trkpt><trkpt lat="41.10663336391826" lon="9.457901720788856"><ele>36.0</ele><time>2026-05-03T14:56:54Z</time></trkpt><trkpt lat="41.10675147905698" lon="9.45805872045247"><ele>39.0</ele><time>2026-05-03T14:56:55Z</time></trkpt><trkpt lat="41.10687725907164" lon="9.458207684904675"><ele>42.0</ele><time>2026-05-03T14:56:56Z</time></trkpt><trkpt lat="41.10700884027404" lon="9.458349793165954"><ele>42.0</ele><time>2026-05-03T14:56:57Z</time></trkpt><trkpt lat="41.107140647600005" lon="9.458487197119256"><ele>42.0</ele><time>2026-05-03T14:56:58Z</time></trkpt><trkpt lat="41.107266606121556" lon="9.458628135492827"><ele>42.0</ele><time>2026-05-03T14:56:59Z</time></trkpt><trkpt lat="41.10738465090286" lon="9.458775349469228"><ele>43.0</ele><time>2026-05-03T14:57:00Z</time></trkpt><trkpt lat="41.107498132782005" lon="9.458926218516329"><ele>44.0</ele><time>2026-05-03T14:57:01Z</time></trkpt><trkpt lat="41.107605556725204" lon="9.459089884147934"><ele>45.0</ele><time>2026-05-03T14:57:02Z</time></trkpt><trkpt lat="41.1077048323863" lon="9.45926908125549"><ele>45.0</ele><time>2026-05-03T14:57:03Z</time></trkpt><trkpt lat="41.10780090947954" lon="9.45944927827905"><ele>45.0</ele><time>2026-05-03T14:57:04Z</time></trkpt><trkpt lat="41.10789600187004" lon="9.45962407917278"><ele>45.0</ele><time>2026-05-03T14:57:05Z</time></trkpt><trkpt lat="41.10799192826819" lon="9.459793969355157"><ele>46.66666666666667</ele><time>2026-05-03T14:57:06Z</time></trkpt><trkpt lat="41.108085909490626" lon="9.459962740027581"><ele>48.333333333333336</ele><time>2026-05-03T14:57:07Z</time></trkpt><trkpt lat="41.108179175365336" lon="9.460129069277805"><ele>50.0</ele><time>2026-05-03T14:57:08Z</time></trkpt><trkpt lat="41.10826962052973" lon="9.460292388545552"><ele>50.0</ele><time>2026-05-03T14:57:09Z</time></trkpt><trkpt lat="41.108359292318276" lon="9.460450218901782"><ele>50.0</ele><time>2026-05-03T14:57:10Z</time></trkpt><trkpt lat="41.10844906076535" lon="9.460608452065372"><ele>50.0</ele><time>2026-05-03T14:57:11Z</time></trkpt><trkpt lat="41.108538710300955" lon="9.4607632136194"><ele>50.0</ele><time>2026-05-03T14:57:12Z</time></trkpt><trkpt lat="41.108627272493095" lon="9.460921353078419"><ele>50.0</ele><time>2026-05-03T14:57:13Z</time></trkpt><trkpt lat="41.10871229916439" lon="9.461087523073985"><ele>50.0</ele><time>2026-05-03T14:57:14Z</time></trkpt><trkpt lat="41.10879668851709" lon="9.461255343635903"><ele>50.0</ele><time>2026-05-03T14:57:15Z</time></trkpt><trkpt lat="41.108881293388706" lon="9.461419933632195"><ele>50.5</ele><time>2026-05-03T14:57:16Z</time></trkpt><trkpt lat="41.108964541135016" lon="9.461569358127383"><ele>51.0</ele><time>2026-05-03T14:57:17Z</time></trkpt><trkpt lat="41.109043314948586" lon="9.461705808355521"><ele>51.5</ele><time>2026-05-03T14:57:18Z</time></trkpt><trkpt lat="41.10911676970319" lon="9.461840338897002"><ele>52.0</ele><time>2026-05-03T14:57:19Z</time></trkpt><trkpt lat="41.109186237179294" lon="9.46197370768452"><ele>50.75</ele><time>2026-05-03T14:57:20Z</time></trkpt><trkpt lat="41.109233878120435" lon="9.462111304155998"><ele>49.5</ele><time>2026-05-03T14:57:21Z</time></trkpt><trkpt lat="41.10924732313214" lon="9.462256280781226"><ele>48.25</ele><time>2026-05-03T14:57:22Z</time></trkpt><trkpt lat="41.10923441903178" lon="9.462420056589833"><ele>47.0</ele><time>2026-05-03T14:57:23Z</time></trkpt><trkpt lat="41.10919579868988" lon="9.46258044663841"><ele>48.0</ele><time>2026-05-03T14:57:23.999Z</time></trkpt><trkpt lat="41.10912006708953" lon="9.462745454447633"><ele>49.0</ele><time>2026-05-03T14:57:24.999Z</time></trkpt><trkpt lat="41.10902181688936" lon="9.462890895830888"><ele>50.0</ele><time>2026-05-03T14:57:25.999Z</time></trkpt><trkpt lat="41.10890740788097" lon="9.462992320833736"><ele>51.0</ele><time>2026-05-03T14:57:26.999Z</time></trkpt><trkpt lat="41.10881752455081" lon="9.463113988762483"><ele>49.0</ele><time>2026-05-03T14:57:27.999Z</time></trkpt><trkpt lat="41.10871716120175" lon="9.463225389825539"><ele>47.0</ele><time>2026-05-03T14:57:28.999Z</time></trkpt><trkpt lat="41.10861879320815" lon="9.463344000838026"><ele>45.0</ele><time>2026-05-03T14:57:29.999Z</time></trkpt><trkpt lat="41.10852362964392" lon="9.46346284119988"><ele>43.0</ele><time>2026-05-03T14:57:30.999Z</time></trkpt><trkpt lat="41.10845454996709" lon="9.463590194539838"><ele>43.0</ele><time>2026-05-03T14:57:31.999Z</time></trkpt><trkpt lat="41.108419399171225" lon="9.463739329693023"><ele>43.0</ele><time>2026-05-03T14:57:32.999Z</time></trkpt><trkpt lat="41.10841971388664" lon="9.463899430442957"><ele>43.0</ele><time>2026-05-03T14:57:33.999Z</time></trkpt><trkpt lat="41.10846490285451" lon="9.464054857607618"><ele>43.0</ele><time>2026-05-03T14:57:34.999Z</time></trkpt><trkpt lat="41.10853186380349" lon="9.464178403336197"><ele>42.0</ele><time>2026-05-03T14:57:35.999Z</time></trkpt><trkpt lat="41.10861995077394" lon="9.464274493594736"><ele>41.0</ele><time>2026-05-03T14:57:36.999Z</time></trkpt><trkpt lat="41.10872475884497" lon="9.464348037282122"><ele>40.0</ele><time>2026-05-03T14:57:37.999Z</time></trkpt><trkpt lat="41.10884319702083" lon="9.464393928477087"><ele>39.0</ele><time>2026-05-03T14:57:38.999Z</time></trkpt><trkpt lat="41.108971898400334" lon="9.464407434014205"><ele>36.5</ele><time>2026-05-03T14:57:39.999Z</time></trkpt><trkpt lat="41.109108307636575" lon="9.464398139213248"><ele>34.0</ele><time>2026-05-03T14:57:40.999Z</time></trkpt><trkpt lat="41.109249206408194" lon="9.464372572875726"><ele>31.5</ele><time>2026-05-03T14:57:41.999Z</time></trkpt><trkpt lat="41.109389379382854" lon="9.46433806741081"><ele>29.0</ele><time>2026-05-03T14:57:42.999Z</time></trkpt><trkpt lat="41.109528513881905" lon="9.464290930817825"><ele>29.0</ele><time>2026-05-03T14:57:43.999Z</time></trkpt><trkpt lat="41.10966662336872" lon="9.464231025183203"><ele>29.0</ele><time>2026-05-03T14:57:44.999Z</time></trkpt><trkpt lat="41.10980350432717" lon="9.464164500905968"><ele>29.0</ele><time>2026-05-03T14:57:45.999Z</time></trkpt><trkpt lat="41.10993649711884" lon="9.464103296488618"><ele>29.0</ele><time>2026-05-03T14:57:46.999Z</time></trkpt><trkpt lat="41.11006593793096" lon="9.464047263729128"><ele>26.25</ele><time>2026-05-03T14:57:47.999Z</time></trkpt><trkpt lat="41.11019564011073" lon="9.463990312644432"><ele>23.5</ele><time>2026-05-03T14:57:48.999Z</time></trkpt><trkpt lat="41.11032585396802" lon="9.463934945709282"><ele>20.75</ele><time>2026-05-03T14:57:49.999Z</time></trkpt><trkpt lat="41.11045954810652" lon="9.46388000378577"><ele>18.0</ele><time>2026-05-03T14:57:50.999Z</time></trkpt><trkpt lat="41.11059655994105" lon="9.463822015051608"><ele>18.5</ele><time>2026-05-03T14:57:51.999Z</time></trkpt><trkpt lat="41.11073674024407" lon="9.463764946397848"><ele>19.0</ele><time>2026-05-03T14:57:52.999Z</time></trkpt><trkpt lat="41.110868350444676" lon="9.463697556645474"><ele>19.5</ele><time>2026-05-03T14:57:53.999Z</time></trkpt><trkpt lat="41.11101244003613" lon="9.463631481754074"><ele>20.0</ele><time>2026-05-03T14:57:54.999Z</time></trkpt><trkpt lat="41.11115748465377" lon="9.463574728326142"><ele>17.25</ele><time>2026-05-03T14:57:55.999Z</time></trkpt><trkpt lat="41.111301978956654" lon="9.463519574783723"><ele>14.5</ele><time>2026-05-03T14:57:56.999Z</time></trkpt><trkpt lat="41.11144438541001" lon="9.463457867609126"><ele>11.75</ele><time>2026-05-03T14:57:57.999Z</time></trkpt><trkpt lat="41.11158433060019" lon="9.463401680194778"><ele>9.0</ele><time>2026-05-03T14:57:58.999Z</time></trkpt><trkpt lat="41.11172898098476" lon="9.463362259343745"><ele>8.333333333333334</ele><time>2026-05-03T14:57:59.999Z</time></trkpt><trkpt lat="41.11187822236881" lon="9.463342221481089"><ele>7.666666666666667</ele><time>2026-05-03T14:58:00.999Z</time></trkpt><trkpt lat="41.11203037741227" lon="9.463381551321257"><ele>7.0</ele><time>2026-05-03T14:58:01.999Z</time></trkpt><trkpt lat="41.112197624332715" lon="9.463414050785133"><ele>7.0</ele><time>2026-05-03T14:58:02.999Z</time></trkpt><trkpt lat="41.11235665157598" lon="9.463499085534222"><ele>7.0</ele><time>2026-05-03T14:58:03.999Z</time></trkpt><trkpt lat="41.1125112087753" lon="9.463611115369067"><ele>7.0</ele><time>2026-05-03T14:58:04.999Z</time></trkpt><trkpt lat="41.11265656468527" lon="9.463737868119647"><ele>10.666666666666668</ele><time>2026-05-03T14:58:05.999Z</time></trkpt><trkpt lat="41.11280423433322" lon="9.463877127485405"><ele>14.333333333333334</ele><time>2026-05-03T14:58:06.999Z</time></trkpt><trkpt lat="41.11295919160599" lon="9.464009075184876"><ele>18.0</ele><time>2026-05-03T14:58:07.999Z</time></trkpt><trkpt lat="41.11311338501672" lon="9.464130438381659"><ele>14.0</ele><time>2026-05-03T14:58:08.999Z</time></trkpt><trkpt lat="41.11326384330141" lon="9.46425976703344"><ele>10.0</ele><time>2026-05-03T14:58:09.999Z</time></trkpt><trkpt lat="41.113408353481276" lon="9.464406554724148"><ele>6.0</ele><time>2026-05-03T14:58:10.999Z</time></trkpt><trkpt lat="41.11355593312953" lon="9.464532415271714"><ele>8.0</ele><time>2026-05-03T14:58:11.999Z</time></trkpt><trkpt lat="41.113711813323405" lon="9.464642617207334"><ele>10.0</ele><time>2026-05-03T14:58:12.999Z</time></trkpt><trkpt lat="41.11385270642118" lon="9.464768269795481"><ele>12.0</ele><time>2026-05-03T14:58:13.999Z</time></trkpt><trkpt lat="41.11399460182645" lon="9.464904195053343"><ele>9.333333333333334</ele><time>2026-05-03T14:58:14.999Z</time></trkpt><trkpt lat="41.11413441458251" lon="9.465016925560349"><ele>6.666666666666666</ele><time>2026-05-03T14:58:15.999Z</time></trkpt><trkpt lat="41.11427127466989" lon="9.465126294583797"><ele>4.0</ele><time>2026-05-03T14:58:16.999Z</time></trkpt><trkpt lat="41.114412434547596" lon="9.465223939076738"><ele>4.0</ele><time>2026-05-03T14:58:17.999Z</time></trkpt><trkpt lat="41.11455722602413" lon="9.465312630649603"><ele>4.0</ele><time>2026-05-03T14:58:18.999Z</time></trkpt><trkpt lat="41.11470041477557" lon="9.46538927072848"><ele>4.0</ele><time>2026-05-03T14:58:19.999Z</time></trkpt><trkpt lat="41.11484196449337" lon="9.465466122509683"><ele>6.0</ele><time>2026-05-03T14:58:20.999Z</time></trkpt><trkpt lat="41.114981863594515" lon="9.465546944203586"><ele>8.0</ele><time>2026-05-03T14:58:21.999Z</time></trkpt><trkpt lat="41.11511335088853" lon="9.465631475743187"><ele>10.0</ele><time>2026-05-03T14:58:22.999Z</time></trkpt><trkpt lat="41.115241415802956" lon="9.465727482954453"><ele>12.0</ele><time>2026-05-03T14:58:23.999Z</time></trkpt><trkpt lat="41.11534350864704" lon="9.465856746120417"><ele>12.0</ele><time>2026-05-03T14:58:25Z</time></trkpt><trkpt lat="41.115429762151315" lon="9.465989535275444"><ele>12.0</ele><time>2026-05-03T14:58:26Z</time></trkpt><trkpt lat="41.11551786285094" lon="9.466122871223893"><ele>12.0</ele><time>2026-05-03T14:58:27Z</time></trkpt><trkpt lat="41.11558135085927" lon="9.46628616469763"><ele>12.0</ele><time>2026-05-03T14:58:28Z</time></trkpt><trkpt lat="41.115636874360185" lon="9.466456904427172"><ele>15.5</ele><time>2026-05-03T14:58:29Z</time></trkpt><trkpt lat="41.11565918419817" lon="9.4666405563353"><ele>19.0</ele><time>2026-05-03T14:58:30Z</time></trkpt><trkpt lat="41.115678854260445" lon="9.466823058826787"><ele>22.5</ele><time>2026-05-03T14:58:31Z</time></trkpt><trkpt lat="41.115676459835356" lon="9.467012731903493"><ele>26.0</ele><time>2026-05-03T14:58:32Z</time></trkpt><trkpt lat="41.11566057698972" lon="9.46720438761729"><ele>26.25</ele><time>2026-05-03T14:58:33Z</time></trkpt><trkpt lat="41.115656038037514" lon="9.467400400863095"><ele>26.5</ele><time>2026-05-03T14:58:34Z</time></trkpt><trkpt lat="41.115630545423656" lon="9.467593164789283"><ele>26.75</ele><time>2026-05-03T14:58:35Z</time></trkpt><trkpt lat="41.115610245802806" lon="9.467781550818055"><ele>27.0</ele><time>2026-05-03T14:58:36Z</time></trkpt><trkpt lat="41.115591235154284" lon="9.467967200700354"><ele>24.5</ele><time>2026-05-03T14:58:37Z</time></trkpt><trkpt lat="41.11557223632139" lon="9.46814881184485"><ele>22.0</ele><time>2026-05-03T14:58:38Z</time></trkpt><trkpt lat="41.11555237154084" lon="9.46832081208478"><ele>19.5</ele><time>2026-05-03T14:58:39Z</time></trkpt><trkpt lat="41.115534902595414" lon="9.468499216480723"><ele>17.0</ele><time>2026-05-03T14:58:40Z</time></trkpt><trkpt lat="41.11551767643332" lon="9.468680357454845"><ele>16.25</ele><time>2026-05-03T14:58:41Z</time></trkpt><trkpt lat="41.11550084458502" lon="9.468859433204267"><ele>15.5</ele><time>2026-05-03T14:58:42Z</time></trkpt><trkpt lat="41.11546534720773" lon="9.469038255734485"><ele>14.75</ele><time>2026-05-03T14:58:43Z</time></trkpt><trkpt lat="41.11546656465565" lon="9.469224164139142"><ele>14.0</ele><time>2026-05-03T14:58:44Z</time></trkpt><trkpt lat="41.115464268650015" lon="9.469410065190697"><ele>14.0</ele><time>2026-05-03T14:58:45Z</time></trkpt><trkpt lat="41.11548377351915" lon="9.469596068436957"><ele>14.0</ele><time>2026-05-03T14:58:46Z</time></trkpt><trkpt lat="41.115517462510546" lon="9.469769596184069"><ele>14.0</ele><time>2026-05-03T14:58:47Z</time></trkpt><trkpt lat="41.11557514874459" lon="9.469944345560908"><ele>14.0</ele><time>2026-05-03T14:58:48Z</time></trkpt><trkpt lat="41.11564680916397" lon="9.470099183769875"><ele>14.75</ele><time>2026-05-03T14:58:49Z</time></trkpt><trkpt lat="41.115740830055515" lon="9.47023573043231"><ele>15.5</ele><time>2026-05-03T14:58:50Z</time></trkpt><trkpt lat="41.115849478270356" lon="9.470351626804645"><ele>16.25</ele><time>2026-05-03T14:58:51Z</time></trkpt><trkpt lat="41.11597408000461" lon="9.470449284829037"><ele>17.0</ele><time>2026-05-03T14:58:52Z</time></trkpt><trkpt lat="41.116100568914014" lon="9.470546724170479"><ele>17.666666666666668</ele><time>2026-05-03T14:58:53Z</time></trkpt><trkpt lat="41.11624001320035" lon="9.470634177216075"><ele>18.333333333333332</ele><time>2026-05-03T14:58:54Z</time></trkpt><trkpt lat="41.11638245574981" lon="9.470723473617596"><ele>19.0</ele><time>2026-05-03T14:58:55Z</time></trkpt><trkpt lat="41.11652579951142" lon="9.470814503252054"><ele>19.25</ele><time>2026-05-03T14:58:56Z</time></trkpt><trkpt lat="41.11666968335433" lon="9.470905430955902"><ele>19.5</ele><time>2026-05-03T14:58:57Z</time></trkpt><trkpt lat="41.11680760474116" lon="9.470993490131185"><ele>19.75</ele><time>2026-05-03T14:58:58Z</time></trkpt><trkpt lat="41.116927805266705" lon="9.471076378129412"><ele>20.0</ele><time>2026-05-03T14:58:59Z</time></trkpt><trkpt lat="41.117035374744376" lon="9.471146267601824"><ele>20.0</ele><time>2026-05-03T14:59:00Z</time></trkpt><trkpt lat="41.11715239455751" lon="9.47122655252157"><ele>20.0</ele><time>2026-05-03T14:59:01Z</time></trkpt><trkpt lat="41.117272822454254" lon="9.47130925893376"><ele>20.0</ele><time>2026-05-03T14:59:02Z</time></trkpt><trkpt lat="41.117393398382234" lon="9.471395930150091"><ele>20.0</ele><time>2026-05-03T14:59:03Z</time></trkpt><trkpt lat="41.11751373012434" lon="9.471491415622628"><ele>21.5</ele><time>2026-05-03T14:59:04Z</time></trkpt><trkpt lat="41.11763495354623" lon="9.471591992196604"><ele>23.0</ele><time>2026-05-03T14:59:05Z</time></trkpt><trkpt lat="41.117758894978245" lon="9.471696621620772"><ele>24.5</ele><time>2026-05-03T14:59:06Z</time></trkpt><trkpt lat="41.11788820722074" lon="9.471806128250813"><ele>26.0</ele><time>2026-05-03T14:59:07Z</time></trkpt><trkpt lat="41.118019873850045" lon="9.47191824263483"><ele>26.0</ele><time>2026-05-03T14:59:08Z</time></trkpt><trkpt lat="41.118154683772126" lon="9.472030717732677"><ele>26.0</ele><time>2026-05-03T14:59:09Z</time></trkpt><trkpt lat="41.11828842413757" lon="9.472160590108553"><ele>26.0</ele><time>2026-05-03T14:59:10Z</time></trkpt><trkpt lat="41.118431324595306" lon="9.472281355822377"><ele>26.75</ele><time>2026-05-03T14:59:11Z</time></trkpt><trkpt lat="41.11856437165998" lon="9.472393695647858"><ele>27.5</ele><time>2026-05-03T14:59:12Z</time></trkpt><trkpt lat="41.11868774697052" lon="9.472497898205418"><ele>28.25</ele><time>2026-05-03T14:59:13Z</time></trkpt><trkpt lat="41.11880759401698" lon="9.472593465833555"><ele>29.0</ele><time>2026-05-03T14:59:14Z</time></trkpt><trkpt lat="41.118934142854414" lon="9.472676040210713"><ele>29.0</ele><time>2026-05-03T14:59:15Z</time></trkpt><trkpt lat="41.11904332822924" lon="9.472738235673944"><ele>29.0</ele><time>2026-05-03T14:59:16Z</time></trkpt><trkpt lat="41.11914260796609" lon="9.472785476038538"><ele>29.0</ele><time>2026-05-03T14:59:17Z</time></trkpt><trkpt lat="41.11925138602641" lon="9.472834605006009"><ele>29.0</ele><time>2026-05-03T14:59:18Z</time></trkpt><trkpt lat="41.119370739177015" lon="9.472885371534934"><ele>28.75</ele><time>2026-05-03T14:59:19Z</time></trkpt><trkpt lat="41.1194978267781" lon="9.472937109650795"><ele>28.5</ele><time>2026-05-03T14:59:20Z</time></trkpt><trkpt lat="41.11962386745999" lon="9.472988539896969"><ele>28.25</ele><time>2026-05-03T14:59:21Z</time></trkpt><trkpt lat="41.11974416180014" lon="9.473037626861263"><ele>28.0</ele><time>2026-05-03T14:59:22Z</time></trkpt><trkpt lat="41.119879777959135" lon="9.473092964284707"><ele>26.0</ele><time>2026-05-03T14:59:23Z</time></trkpt><trkpt lat="41.12004152337413" lon="9.473158963605375"><ele>24.0</ele><time>2026-05-03T14:59:24Z</time></trkpt><trkpt lat="41.12022191836463" lon="9.473232572818747"><ele>22.0</ele><time>2026-05-03T14:59:25Z</time></trkpt><trkpt lat="41.120425201700286" lon="9.473315886176339"><ele>22.0</ele><time>2026-05-03T14:59:26Z</time></trkpt><trkpt lat="41.12061844413239" lon="9.473395092100498"><ele>22.0</ele><time>2026-05-03T14:59:27Z</time></trkpt><trkpt lat="41.12080426061541" lon="9.473471043801329"><ele>22.0</ele><time>2026-05-03T14:59:28Z</time></trkpt><trkpt lat="41.12095369415589" lon="9.473522000991535"><ele>21.333333333333332</ele><time>2026-05-03T14:59:29Z</time></trkpt><trkpt lat="41.12112531198027" lon="9.473598398268228"><ele>20.666666666666668</ele><time>2026-05-03T14:59:30Z</time></trkpt><trkpt lat="41.12130534791883" lon="9.473686035915218"><ele>20.0</ele><time>2026-05-03T14:59:31Z</time></trkpt><trkpt lat="41.121488464390254" lon="9.473776258291728"><ele>16.0</ele><time>2026-05-03T14:59:32Z</time></trkpt><trkpt lat="41.12167507435565" lon="9.473872749634506"><ele>12.0</ele><time>2026-05-03T14:59:33Z</time></trkpt><trkpt lat="41.12186225304689" lon="9.473991648177389"><ele>8.0</ele><time>2026-05-03T14:59:34Z</time></trkpt><trkpt lat="41.122055686778616" lon="9.474095529161895"><ele>8.0</ele><time>2026-05-03T14:59:35Z</time></trkpt><trkpt lat="41.122252903692925" lon="9.474180073678289"><ele>8.0</ele><time>2026-05-03T14:59:36Z</time></trkpt><trkpt lat="41.122438354170434" lon="9.474282552307436"><ele>8.0</ele><time>2026-05-03T14:59:37Z</time></trkpt><trkpt lat="41.122614574784826" lon="9.474377945984672"><ele>7.333333333333333</ele><time>2026-05-03T14:59:38Z</time></trkpt><trkpt lat="41.122786746224094" lon="9.474471011328964"><ele>6.666666666666666</ele><time>2026-05-03T14:59:39Z</time></trkpt><trkpt lat="41.122960478344964" lon="9.474561060232068"><ele>6.0</ele><time>2026-05-03T14:59:40Z</time></trkpt><trkpt lat="41.12313190570654" lon="9.474650822383593"><ele>9.333333333333332</ele><time>2026-05-03T14:59:41Z</time></trkpt><trkpt lat="41.12330119809304" lon="9.47474165144614"><ele>12.666666666666666</ele><time>2026-05-03T14:59:42Z</time></trkpt><trkpt lat="41.12347084632365" lon="9.474831097107828"><ele>16.0</ele><time>2026-05-03T14:59:43Z</time></trkpt><trkpt lat="41.1236424450531" lon="9.474922222838192"><ele>16.0</ele><time>2026-05-03T14:59:44Z</time></trkpt><trkpt lat="41.123819109467405" lon="9.47501964533041"><ele>16.0</ele><time>2026-05-03T14:59:45Z</time></trkpt><trkpt lat="41.12399624732877" lon="9.475114417224834"><ele>16.0</ele><time>2026-05-03T14:59:46Z</time></trkpt><trkpt lat="41.124176089303944" lon="9.475205794628929"><ele>14.333333333333332</ele><time>2026-05-03T14:59:47Z</time></trkpt><trkpt lat="41.12435851833709" lon="9.475289561120768"><ele>12.666666666666666</ele><time>2026-05-03T14:59:48Z</time></trkpt><trkpt lat="41.124548889659856" lon="9.475361344442923"><ele>11.0</ele><time>2026-05-03T14:59:49Z</time></trkpt><trkpt lat="41.12474925174019" lon="9.475405685879121"><ele>11.666666666666666</ele><time>2026-05-03T14:59:50Z</time></trkpt><trkpt lat="41.12497417710229" lon="9.475436874129139"><ele>12.333333333333332</ele><time>2026-05-03T14:59:51Z</time></trkpt><trkpt lat="41.12518368724109" lon="9.475503807049064"><ele>13.0</ele><time>2026-05-03T14:59:52Z</time></trkpt><trkpt lat="41.12540922861074" lon="9.475556012121391"><ele>13.0</ele><time>2026-05-03T14:59:53Z</time></trkpt><trkpt lat="41.12565565657116" lon="9.475613056993875"><ele>13.0</ele><time>2026-05-03T14:59:54Z</time></trkpt><trkpt lat="41.12586434869421" lon="9.475661369810386"><ele>13.666666666666666</ele><time>2026-05-03T14:59:55Z</time></trkpt><trkpt lat="41.12605281464536" lon="9.475695151074966"><ele>14.333333333333332</ele><time>2026-05-03T14:59:56Z</time></trkpt><trkpt lat="41.126228573461155" lon="9.475741007399465"><ele>15.0</ele><time>2026-05-03T14:59:57Z</time></trkpt><trkpt lat="41.12639110976618" lon="9.47577598508115"><ele>15.0</ele><time>2026-05-03T14:59:58Z</time></trkpt><trkpt lat="41.126537703578514" lon="9.475804823021567"><ele>15.0</ele><time>2026-05-03T14:59:59Z</time></trkpt><trkpt lat="41.126677443786264" lon="9.475832444183704"><ele>15.0</ele><time>2026-05-03T15:00:00Z</time></trkpt><trkpt lat="41.126817481997406" lon="9.475865584717617"><ele>15.0</ele><time>2026-05-03T15:00:01Z</time></trkpt><trkpt lat="41.12696345464062" lon="9.475900652601423"><ele>15.0</ele><time>2026-05-03T15:00:02Z</time></trkpt><trkpt lat="41.127114440511036" lon="9.47593451238954"><ele>15.0</ele><time>2026-05-03T15:00:03Z</time></trkpt><trkpt lat="41.12726460887118" lon="9.475967654262076"><ele>15.0</ele><time>2026-05-03T15:00:04Z</time></trkpt><trkpt lat="41.12741147562138" lon="9.47602058022716"><ele>15.0</ele><time>2026-05-03T15:00:05Z</time></trkpt><trkpt lat="41.127578820591786" lon="9.476061764944264"><ele>15.0</ele><time>2026-05-03T15:00:06Z</time></trkpt><trkpt lat="41.127795920349186" lon="9.476110652236253"><ele>15.0</ele><time>2026-05-03T15:00:07Z</time></trkpt><trkpt lat="41.128031495922464" lon="9.476134885038375"><ele>15.5</ele><time>2026-05-03T15:00:08Z</time></trkpt><trkpt lat="41.128254172659624" lon="9.476212804685504"><ele>16.0</ele><time>2026-05-03T15:00:09Z</time></trkpt><trkpt lat="41.12847771279301" lon="9.476276443333374"><ele>17.5</ele><time>2026-05-03T15:00:10Z</time></trkpt><trkpt lat="41.12870734212884" lon="9.476326741758392"><ele>19.0</ele><time>2026-05-03T15:00:11Z</time></trkpt><trkpt lat="41.128939067566705" lon="9.476377690104648"><ele>18.0</ele><time>2026-05-03T15:00:12Z</time></trkpt><trkpt lat="41.12917177806605" lon="9.476431535175925"><ele>17.0</ele><time>2026-05-03T15:00:13Z</time></trkpt><trkpt lat="41.129402761601916" lon="9.476486005905686"><ele>17.0</ele><time>2026-05-03T15:00:14Z</time></trkpt><trkpt lat="41.129635120199055" lon="9.476540925228967"><ele>17.0</ele><time>2026-05-03T15:00:15Z</time></trkpt><trkpt lat="41.129866489022056" lon="9.47659636433422"><ele>15.5</ele><time>2026-05-03T15:00:16Z</time></trkpt><trkpt lat="41.13009509525609" lon="9.476644584582091"><ele>14.0</ele><time>2026-05-03T15:00:17Z</time></trkpt><trkpt lat="41.130320710299586" lon="9.476678069720933"><ele>14.0</ele><time>2026-05-03T15:00:18Z</time></trkpt><trkpt lat="41.13054431785047" lon="9.47669579416914"><ele>14.0</ele><time>2026-05-03T15:00:19Z</time></trkpt><trkpt lat="41.13076546714991" lon="9.476704150767214"><ele>14.0</ele><time>2026-05-03T15:00:20Z</time></trkpt><trkpt lat="41.13098375930677" lon="9.476708499526064"><ele>14.0</ele><time>2026-05-03T15:00:21Z</time></trkpt><trkpt lat="41.13119862218037" lon="9.476717631896628"><ele>14.0</ele><time>2026-05-03T15:00:22Z</time></trkpt><trkpt lat="41.131409293753954" lon="9.47672874942394"><ele>14.0</ele><time>2026-05-03T15:00:23Z</time></trkpt><trkpt lat="41.131615532751" lon="9.476737719398551"><ele>13.0</ele><time>2026-05-03T15:00:24Z</time></trkpt><trkpt lat="41.13181974015055" lon="9.47674705173894"><ele>12.0</ele><time>2026-05-03T15:00:25Z</time></trkpt><trkpt lat="41.13201974067058" lon="9.47675742260444"><ele>11.0</ele><time>2026-05-03T15:00:26Z</time></trkpt><trkpt lat="41.13221463202376" lon="9.47676155633265"><ele>12.333333333333332</ele><time>2026-05-03T15:00:27Z</time></trkpt><trkpt lat="41.132406061329654" lon="9.476774057911161"><ele>13.666666666666666</ele><time>2026-05-03T15:00:28Z</time></trkpt><trkpt lat="41.13259285361501" lon="9.476778631280702"><ele>15.0</ele><time>2026-05-03T15:00:29Z</time></trkpt><trkpt lat="41.13277366071947" lon="9.476781799585405"><ele>15.0</ele><time>2026-05-03T15:00:30Z</time></trkpt><trkpt lat="41.13294191336658" lon="9.476788513039363"><ele>15.0</ele><time>2026-05-03T15:00:31Z</time></trkpt><trkpt lat="41.13309490516964" lon="9.476800412348958"><ele>15.0</ele><time>2026-05-03T15:00:32Z</time></trkpt><trkpt lat="41.13323162557612" lon="9.476829954453397"><ele>16.0</ele><time>2026-05-03T15:00:33Z</time></trkpt><trkpt lat="41.13334874946484" lon="9.476886865779598"><ele>17.0</ele><time>2026-05-03T15:00:34Z</time></trkpt><trkpt lat="41.13344135634429" lon="9.476987512851291"><ele>18.0</ele><time>2026-05-03T15:00:35Z</time></trkpt><trkpt lat="41.13351183181752" lon="9.477129388376731"><ele>19.0</ele><time>2026-05-03T15:00:36Z</time></trkpt><trkpt lat="41.13355569220765" lon="9.477303256441248"><ele>19.666666666666664</ele><time>2026-05-03T15:00:37Z</time></trkpt><trkpt lat="41.1335554367614" lon="9.477498337439624"><ele>20.333333333333332</ele><time>2026-05-03T15:00:38Z</time></trkpt><trkpt lat="41.13352166453341" lon="9.477697366019845"><ele>21.0</ele><time>2026-05-03T15:00:39Z</time></trkpt><trkpt lat="41.13347329271097" lon="9.477908581986897"><ele>22.333333333333336</ele><time>2026-05-03T15:00:40Z</time></trkpt><trkpt lat="41.13342480010476" lon="9.478134308151157"><ele>23.666666666666668</ele><time>2026-05-03T15:00:41Z</time></trkpt><trkpt lat="41.13337867704325" lon="9.478365937466464"><ele>25.0</ele><time>2026-05-03T15:00:42Z</time></trkpt><trkpt lat="41.133337141091545" lon="9.478599335188976"><ele>25.0</ele><time>2026-05-03T15:00:43Z</time></trkpt><trkpt lat="41.13329925891862" lon="9.478833601206365"><ele>25.0</ele><time>2026-05-03T15:00:44Z</time></trkpt><trkpt lat="41.13326008865188" lon="9.479068157615165"><ele>25.0</ele><time>2026-05-03T15:00:45Z</time></trkpt><trkpt lat="41.133218458494255" lon="9.479306609094186"><ele>22.666666666666668</ele><time>2026-05-03T15:00:46Z</time></trkpt><trkpt lat="41.13317917719966" lon="9.479547473558183"><ele>20.333333333333336</ele><time>2026-05-03T15:00:47Z</time></trkpt><trkpt lat="41.13314135837451" lon="9.479791616195966"><ele>18.0</ele><time>2026-05-03T15:00:48Z</time></trkpt><trkpt lat="41.13310442032589" lon="9.480037851645772"><ele>18.0</ele><time>2026-05-03T15:00:49Z</time></trkpt><trkpt lat="41.13307167684413" lon="9.480286060190018"><ele>18.0</ele><time>2026-05-03T15:00:50Z</time></trkpt><trkpt lat="41.13304259762254" lon="9.480536709246227"><ele>18.0</ele><time>2026-05-03T15:00:51Z</time></trkpt><trkpt lat="41.13301485449782" lon="9.480787534501893"><ele>18.333333333333332</ele><time>2026-05-03T15:00:52Z</time></trkpt><trkpt lat="41.1329847152204" lon="9.481038933535787"><ele>18.666666666666664</ele><time>2026-05-03T15:00:53Z</time></trkpt><trkpt lat="41.13295861033446" lon="9.481291478414136"><ele>19.0</ele><time>2026-05-03T15:00:54Z</time></trkpt><trkpt lat="41.132931587857804" lon="9.481546469964389"><ele>19.666666666666664</ele><time>2026-05-03T15:00:55Z</time></trkpt><trkpt lat="41.13290454939462" lon="9.48180690440479"><ele>20.333333333333332</ele><time>2026-05-03T15:00:56Z</time></trkpt><trkpt lat="41.13287585105799" lon="9.482064530600278"><ele>21.0</ele><time>2026-05-03T15:00:57Z</time></trkpt><trkpt lat="41.13284564583826" lon="9.482326878445374"><ele>22.0</ele><time>2026-05-03T15:00:58Z</time></trkpt><trkpt lat="41.132816378023406" lon="9.482587268129642"><ele>23.0</ele><time>2026-05-03T15:00:59Z</time></trkpt><trkpt lat="41.13278855299776" lon="9.48285897115376"><ele>24.0</ele><time>2026-05-03T15:01:00Z</time></trkpt><trkpt lat="41.132754189108375" lon="9.483144267636728"><ele>25.5</ele><time>2026-05-03T15:01:01Z</time></trkpt><trkpt lat="41.13272174098696" lon="9.483437995663826"><ele>27.0</ele><time>2026-05-03T15:01:02Z</time></trkpt><trkpt lat="41.13268191831192" lon="9.483742827069698"><ele>28.5</ele><time>2026-05-03T15:01:03Z</time></trkpt><trkpt lat="41.132664763755415" lon="9.48406970065648"><ele>30.0</ele><time>2026-05-03T15:01:04Z</time></trkpt><trkpt lat="41.132657910076205" lon="9.484417778863028"><ele>31.0</ele><time>2026-05-03T15:01:05Z</time></trkpt><trkpt lat="41.1326506095206" lon="9.484786986596964"><ele>32.0</ele><time>2026-05-03T15:01:06Z</time></trkpt><trkpt lat="41.1326441345275" lon="9.485123686951589"><ele>32.0</ele><time>2026-05-03T15:01:07Z</time></trkpt><trkpt lat="41.13264979552846" lon="9.4854229274864"><ele>32.0</ele><time>2026-05-03T15:01:08Z</time></trkpt><trkpt lat="41.13263861163596" lon="9.48569476253554"><ele>32.0</ele><time>2026-05-03T15:01:09Z</time></trkpt><trkpt lat="41.13264250401854" lon="9.485948702518872"><ele>32.666666666666664</ele><time>2026-05-03T15:01:10Z</time></trkpt><trkpt lat="41.13267065422688" lon="9.486191911300523"><ele>33.333333333333336</ele><time>2026-05-03T15:01:11Z</time></trkpt><trkpt lat="41.1327365871676" lon="9.486430637895612"><ele>34.0</ele><time>2026-05-03T15:01:12Z</time></trkpt><trkpt lat="41.132832666585784" lon="9.486664063543806"><ele>36.0</ele><time>2026-05-03T15:01:13Z</time></trkpt><trkpt lat="41.13294743553919" lon="9.486893985361446"><ele>38.0</ele><time>2026-05-03T15:01:14Z</time></trkpt><trkpt lat="41.13306927781197" lon="9.48711720004481"><ele>40.0</ele><time>2026-05-03T15:01:15Z</time></trkpt><trkpt lat="41.13316945191957" lon="9.487322995124956"><ele>42.333333333333336</ele><time>2026-05-03T15:01:16Z</time></trkpt><trkpt lat="41.13325796067612" lon="9.487530175624208"><ele>44.666666666666664</ele><time>2026-05-03T15:01:17Z</time></trkpt><trkpt lat="41.133339867812744" lon="9.487754282994969"><ele>47.0</ele><time>2026-05-03T15:01:18Z</time></trkpt><trkpt lat="41.13341570713374" lon="9.48799368428723"><ele>49.33333333333333</ele><time>2026-05-03T15:01:19Z</time></trkpt><trkpt lat="41.13347763298272" lon="9.488241660454499"><ele>51.666666666666664</ele><time>2026-05-03T15:01:20Z</time></trkpt><trkpt lat="41.133522065704355" lon="9.488498981316818"><ele>54.0</ele><time>2026-05-03T15:01:21Z</time></trkpt><trkpt lat="41.133543344819515" lon="9.488756216621931"><ele>56.0</ele><time>2026-05-03T15:01:22Z</time></trkpt><trkpt lat="41.13350285140272" lon="9.489002568831076"><ele>58.0</ele><time>2026-05-03T15:01:23Z</time></trkpt><trkpt lat="41.133462613815915" lon="9.489258375090923"><ele>60.0</ele><time>2026-05-03T15:01:24Z</time></trkpt><trkpt lat="41.13340827109979" lon="9.48951242735678"><ele>60.0</ele><time>2026-05-03T15:01:25Z</time></trkpt><trkpt lat="41.133334796140026" lon="9.48973490807343"><ele>60.0</ele><time>2026-05-03T15:01:26Z</time></trkpt><trkpt lat="41.133237811451664" lon="9.489935812194052"><ele>60.0</ele><time>2026-05-03T15:01:27Z</time></trkpt><trkpt lat="41.13311993195775" lon="9.49013723383732"><ele>60.66666666666667</ele><time>2026-05-03T15:01:28Z</time></trkpt><trkpt lat="41.13298444316262" lon="9.490339614713358"><ele>61.333333333333336</ele><time>2026-05-03T15:01:29Z</time></trkpt><trkpt lat="41.13287008122799" lon="9.490541745877639"><ele>62.0</ele><time>2026-05-03T15:01:30Z</time></trkpt><trkpt lat="41.13275618932554" lon="9.490718445776404"><ele>62.0</ele><time>2026-05-03T15:01:31Z</time></trkpt><trkpt lat="41.13266728091497" lon="9.490905276450597"><ele>62.0</ele><time>2026-05-03T15:01:32Z</time></trkpt><trkpt lat="41.13261242818935" lon="9.491117023801804"><ele>62.0</ele><time>2026-05-03T15:01:33Z</time></trkpt><trkpt lat="41.132587895998334" lon="9.49135067009376"><ele>60.333333333333336</ele><time>2026-05-03T15:01:34Z</time></trkpt><trkpt lat="41.13259812862617" lon="9.49157535325348"><ele>58.66666666666667</ele><time>2026-05-03T15:01:35Z</time></trkpt><trkpt lat="41.13264455101415" lon="9.491794472051575"><ele>57.0</ele><time>2026-05-03T15:01:36Z</time></trkpt><trkpt lat="41.13273075914199" lon="9.491998997939818"><ele>60.33333333333333</ele><time>2026-05-03T15:01:37Z</time></trkpt><trkpt lat="41.13285582084415" lon="9.49219058968942"><ele>63.666666666666664</ele><time>2026-05-03T15:01:38Z</time></trkpt><trkpt lat="41.1329983707549" lon="9.492375492688433"><ele>67.0</ele><time>2026-05-03T15:01:39Z</time></trkpt><trkpt lat="41.1331473420916" lon="9.492564209952835"><ele>62.666666666666664</ele><time>2026-05-03T15:01:40Z</time></trkpt><trkpt lat="41.13330056417405" lon="9.492764075952824"><ele>58.33333333333333</ele><time>2026-05-03T15:01:41Z</time></trkpt><trkpt lat="41.13345231886853" lon="9.492976589722534"><ele>54.0</ele><time>2026-05-03T15:01:42Z</time></trkpt><trkpt lat="41.1335953591969" lon="9.493197832459025"><ele>54.0</ele><time>2026-05-03T15:01:43Z</time></trkpt><trkpt lat="41.13372255364279" lon="9.493447025432705"><ele>54.0</ele><time>2026-05-03T15:01:44Z</time></trkpt><trkpt lat="41.13382322724218" lon="9.493719460852477"><ele>59.33333333333333</ele><time>2026-05-03T15:01:45Z</time></trkpt><trkpt lat="41.13390229737785" lon="9.493993813574846"><ele>64.66666666666666</ele><time>2026-05-03T15:01:46Z</time></trkpt><trkpt lat="41.133974733897276" lon="9.494262507534627"><ele>70.0</ele><time>2026-05-03T15:01:47Z</time></trkpt><trkpt lat="41.13404017669211" lon="9.494537425651442"><ele>67.66666666666666</ele><time>2026-05-03T15:01:48Z</time></trkpt><trkpt lat="41.13408043331192" lon="9.494804996198601"><ele>65.33333333333333</ele><time>2026-05-03T15:01:49Z</time></trkpt><trkpt lat="41.134084124106735" lon="9.495075947416927"><ele>63.0</ele><time>2026-05-03T15:01:50Z</time></trkpt><trkpt lat="41.13404381860708" lon="9.495335115503542"><ele>58.33333333333333</ele><time>2026-05-03T15:01:51Z</time></trkpt><trkpt lat="41.13396896645783" lon="9.495589292186612"><ele>53.666666666666664</ele><time>2026-05-03T15:01:52Z</time></trkpt><trkpt lat="41.13388402266274" lon="9.495825929403166"><ele>49.0</ele><time>2026-05-03T15:01:53Z</time></trkpt><trkpt lat="41.13381492167968" lon="9.496052650428537"><ele>42.0</ele><time>2026-05-03T15:01:54Z</time></trkpt><trkpt lat="41.13378244604253" lon="9.496282835066888"><ele>35.0</ele><time>2026-05-03T15:01:55Z</time></trkpt><trkpt lat="41.13378974206301" lon="9.496524600192558"><ele>28.0</ele><time>2026-05-03T15:01:56Z</time></trkpt><trkpt lat="41.13382908741671" lon="9.496768642421305"><ele>28.0</ele><time>2026-05-03T15:01:57Z</time></trkpt><trkpt lat="41.133897279467924" lon="9.496995775940878"><ele>28.0</ele><time>2026-05-03T15:01:58Z</time></trkpt><trkpt lat="41.13399282535509" lon="9.497214992100691"><ele>28.0</ele><time>2026-05-03T15:01:59Z</time></trkpt><trkpt lat="41.1341219672744" lon="9.497408257264093"><ele>26.666666666666668</ele><time>2026-05-03T15:02:00Z</time></trkpt><trkpt lat="41.13427201788698" lon="9.497549392751653"><ele>25.333333333333336</ele><time>2026-05-03T15:02:01Z</time></trkpt><trkpt lat="41.134443109717054" lon="9.49765231925505"><ele>24.0</ele><time>2026-05-03T15:02:02Z</time></trkpt><trkpt lat="41.13460969694125" lon="9.497762585796501"><ele>24.0</ele><time>2026-05-03T15:02:03Z</time></trkpt><trkpt lat="41.13475831776139" lon="9.49787204212"><ele>24.0</ele><time>2026-05-03T15:02:04Z</time></trkpt><trkpt lat="41.13489848109903" lon="9.497975572270919"><ele>24.0</ele><time>2026-05-03T15:02:05Z</time></trkpt><trkpt lat="41.13502301543266" lon="9.498067719055278"><ele>25.5</ele><time>2026-05-03T15:02:06Z</time></trkpt><trkpt lat="41.13513917492312" lon="9.498169929057331"><ele>27.0</ele><time>2026-05-03T15:02:07Z</time></trkpt><trkpt lat="41.135244351501825" lon="9.498296060968652"><ele>28.5</ele><time>2026-05-03T15:02:08Z</time></trkpt><trkpt lat="41.135340549061" lon="9.498449138230582"><ele>30.0</ele><time>2026-05-03T15:02:09Z</time></trkpt><trkpt lat="41.13542688605714" lon="9.498593327124123"><ele>30.0</ele><time>2026-05-03T15:02:10Z</time></trkpt><trkpt lat="41.13550397945171" lon="9.498749536039202"><ele>30.0</ele><time>2026-05-03T15:02:11Z</time></trkpt><trkpt lat="41.135571618346354" lon="9.498908201213068"><ele>30.0</ele><time>2026-05-03T15:02:12Z</time></trkpt><trkpt lat="41.1356343463371" lon="9.499064039296496"><ele>30.0</ele><time>2026-05-03T15:02:13Z</time></trkpt><trkpt lat="41.13569606165465" lon="9.499227182888898"><ele>31.4</ele><time>2026-05-03T15:02:14Z</time></trkpt><trkpt lat="41.13575394065114" lon="9.499384977598794"><ele>32.8</ele><time>2026-05-03T15:02:15Z</time></trkpt><trkpt lat="41.13580186507271" lon="9.499531269110776"><ele>34.2</ele><time>2026-05-03T15:02:16Z</time></trkpt><trkpt lat="41.13584222945415" lon="9.499644053825087"><ele>35.6</ele><time>2026-05-03T15:02:17Z</time></trkpt><trkpt lat="41.135885233464585" lon="9.49973619391441"><ele>37.0</ele><time>2026-05-03T15:02:18Z</time></trkpt><trkpt lat="41.135939554119155" lon="9.499828606981202"><ele>37.0</ele><time>2026-05-03T15:02:19Z</time></trkpt><trkpt lat="41.13601518725153" lon="9.499934955519667"><ele>37.0</ele><time>2026-05-03T15:02:20Z</time></trkpt><trkpt lat="41.13611448876969" lon="9.500054690957837"><ele>37.0</ele><time>2026-05-03T15:02:21Z</time></trkpt><trkpt lat="41.13623806976601" lon="9.500178944997945"><ele>37.0</ele><time>2026-05-03T15:02:22Z</time></trkpt><trkpt lat="41.136367587681164" lon="9.500311719785932"><ele>36.25</ele><time>2026-05-03T15:02:23Z</time></trkpt><trkpt lat="41.13648204005271" lon="9.500444472390637"><ele>35.5</ele><time>2026-05-03T15:02:24Z</time></trkpt><trkpt lat="41.13658337905846" lon="9.500567108090998"><ele>34.75</ele><time>2026-05-03T15:02:25Z</time></trkpt><trkpt lat="41.13669062074333" lon="9.50067457229156"><ele>34.0</ele><time>2026-05-03T15:02:26Z</time></trkpt><trkpt lat="41.13681357894083" lon="9.500808809672858"><ele>34.0</ele><time>2026-05-03T15:02:27Z</time></trkpt><trkpt lat="41.13691867792407" lon="9.500973468929837"><ele>34.0</ele><time>2026-05-03T15:02:28Z</time></trkpt><trkpt lat="41.13700942256751" lon="9.50115740086235"><ele>34.0</ele><time>2026-05-03T15:02:29Z</time></trkpt><trkpt lat="41.13706192365102" lon="9.501372547196402"><ele>35.333333333333336</ele><time>2026-05-03T15:02:30Z</time></trkpt><trkpt lat="41.13708210409352" lon="9.501586464451835"><ele>36.666666666666664</ele><time>2026-05-03T15:02:31Z</time></trkpt><trkpt lat="41.1370596574042" lon="9.501829685996661"><ele>38.0</ele><time>2026-05-03T15:02:32Z</time></trkpt><trkpt lat="41.13703074710872" lon="9.502077129221114"><ele>34.666666666666664</ele><time>2026-05-03T15:02:33Z</time></trkpt><trkpt lat="41.136983474039084" lon="9.502329734930598"><ele>31.333333333333336</ele><time>2026-05-03T15:02:34Z</time></trkpt><trkpt lat="41.136935909353255" lon="9.502589514313346"><ele>28.0</ele><time>2026-05-03T15:02:35Z</time></trkpt><trkpt lat="41.136912132943465" lon="9.502815378704195"><ele>27.0</ele><time>2026-05-03T15:02:36Z</time></trkpt><trkpt lat="41.13687082382119" lon="9.503041282974248"><ele>26.0</ele><time>2026-05-03T15:02:37Z</time></trkpt><trkpt lat="41.13683356035225" lon="9.503270707866617"><ele>25.0</ele><time>2026-05-03T15:02:38Z</time></trkpt><trkpt lat="41.136810545389864" lon="9.503505293167882"><ele>25.0</ele><time>2026-05-03T15:02:39Z</time></trkpt><trkpt lat="41.13681283759001" lon="9.503742946631984"><ele>25.0</ele><time>2026-05-03T15:02:40Z</time></trkpt><trkpt lat="41.13682826219832" lon="9.50397896795046"><ele>25.0</ele><time>2026-05-03T15:02:41Z</time></trkpt><trkpt lat="41.13687453894082" lon="9.504202890387033"><ele>26.666666666666668</ele><time>2026-05-03T15:02:42Z</time></trkpt><trkpt lat="41.13693385555096" lon="9.504425893807378"><ele>28.333333333333336</ele><time>2026-05-03T15:02:43Z</time></trkpt><trkpt lat="41.137000825202655" lon="9.504654540651744"><ele>30.0</ele><time>2026-05-03T15:02:44Z</time></trkpt><trkpt lat="41.137070076336876" lon="9.504890245715705"><ele>31.333333333333336</ele><time>2026-05-03T15:02:45Z</time></trkpt><trkpt lat="41.13713585446068" lon="9.505132835580433"><ele>32.66666666666667</ele><time>2026-05-03T15:02:46Z</time></trkpt><trkpt lat="41.13719899138584" lon="9.505367377158745"><ele>34.0</ele><time>2026-05-03T15:02:47Z</time></trkpt><trkpt lat="41.13726042356855" lon="9.505592536525183"><ele>36.0</ele><time>2026-05-03T15:02:48Z</time></trkpt><trkpt lat="41.13729496323746" lon="9.505820656853569"><ele>38.0</ele><time>2026-05-03T15:02:49Z</time></trkpt><trkpt lat="41.13730543546486" lon="9.506053803322326"><ele>40.0</ele><time>2026-05-03T15:02:50Z</time></trkpt><trkpt lat="41.13727401353" lon="9.506286111594523"><ele>41.0</ele><time>2026-05-03T15:02:51Z</time></trkpt><trkpt lat="41.13721996405112" lon="9.506517012915424"><ele>42.0</ele><time>2026-05-03T15:02:52Z</time></trkpt><trkpt lat="41.137157221407755" lon="9.506734945249692"><ele>43.0</ele><time>2026-05-03T15:02:53Z</time></trkpt><trkpt lat="41.13709656644811" lon="9.50693736395499"><ele>40.333333333333336</ele><time>2026-05-03T15:02:54Z</time></trkpt><trkpt lat="41.13703718783184" lon="9.507135523239626"><ele>37.666666666666664</ele><time>2026-05-03T15:02:55Z</time></trkpt><trkpt lat="41.1369781071623" lon="9.507331054888434"><ele>35.0</ele><time>2026-05-03T15:02:56Z</time></trkpt><trkpt lat="41.136916758287605" lon="9.507531157458377"><ele>35.0</ele><time>2026-05-03T15:02:57Z</time></trkpt><trkpt lat="41.13685497824565" lon="9.507736642502168"><ele>35.0</ele><time>2026-05-03T15:02:58Z</time></trkpt><trkpt lat="41.13678628938614" lon="9.507943952015312"><ele>35.0</ele><time>2026-05-03T15:02:59Z</time></trkpt><trkpt lat="41.13670291626329" lon="9.508148022183414"><ele>33.0</ele><time>2026-05-03T15:03:00Z</time></trkpt><trkpt lat="41.13659379038206" lon="9.50831562715989"><ele>31.0</ele><time>2026-05-03T15:03:01Z</time></trkpt><trkpt lat="41.136466895043206" lon="9.508467781416682"><ele>29.0</ele><time>2026-05-03T15:03:02Z</time></trkpt><trkpt lat="41.13633301144507" lon="9.508611905150085"><ele>27.25</ele><time>2026-05-03T15:03:03Z</time></trkpt><trkpt lat="41.13620615579528" lon="9.508743239651595"><ele>25.5</ele><time>2026-05-03T15:03:04Z</time></trkpt><trkpt lat="41.136093412082104" lon="9.508859963930366"><ele>23.75</ele><time>2026-05-03T15:03:05Z</time></trkpt><trkpt lat="41.1359848166691" lon="9.508971213342761"><ele>22.0</ele><time>2026-05-03T15:03:06Z</time></trkpt><trkpt lat="41.135868780975215" lon="9.509089823219508"><ele>22.0</ele><time>2026-05-03T15:03:07Z</time></trkpt><trkpt lat="41.13575261999104" lon="9.50921396716059"><ele>22.0</ele><time>2026-05-03T15:03:08Z</time></trkpt><trkpt lat="41.135634260392145" lon="9.50933716350235"><ele>22.0</ele><time>2026-05-03T15:03:09Z</time></trkpt><trkpt lat="41.13551476500942" lon="9.509460390303692"><ele>23.5</ele><time>2026-05-03T15:03:10Z</time></trkpt><trkpt lat="41.135411636561855" lon="9.509603105864022"><ele>25.0</ele><time>2026-05-03T15:03:11Z</time></trkpt><trkpt lat="41.135303680059415" lon="9.50974134196796"><ele>26.5</ele><time>2026-05-03T15:03:12Z</time></trkpt><trkpt lat="41.1352128068224" lon="9.509899676564407"><ele>28.0</ele><time>2026-05-03T15:03:13Z</time></trkpt><trkpt lat="41.135134236492846" lon="9.510076214177023"><ele>28.0</ele><time>2026-05-03T15:03:14Z</time></trkpt><trkpt lat="41.135059307367875" lon="9.510264255388671"><ele>28.0</ele><time>2026-05-03T15:03:15Z</time></trkpt><trkpt lat="41.13498314334566" lon="9.510455302517716"><ele>28.0</ele><time>2026-05-03T15:03:16Z</time></trkpt><trkpt lat="41.134904793784955" lon="9.510650155411815"><ele>31.0</ele><time>2026-05-03T15:03:17Z</time></trkpt><trkpt lat="41.13482498997105" lon="9.510845257326917"><ele>34.0</ele><time>2026-05-03T15:03:18Z</time></trkpt><trkpt lat="41.13474063087369" lon="9.511045095961183"><ele>37.0</ele><time>2026-05-03T15:03:19Z</time></trkpt><trkpt lat="41.134654480803235" lon="9.511246223315116"><ele>40.0</ele><time>2026-05-03T15:03:20Z</time></trkpt><trkpt lat="41.13457396710236" lon="9.51145100208462"><ele>43.0</ele><time>2026-05-03T15:03:21Z</time></trkpt><trkpt lat="41.13450250202132" lon="9.511654313601408"><ele>46.0</ele><time>2026-05-03T15:03:22Z</time></trkpt><trkpt lat="41.13444234379517" lon="9.511866138982057"><ele>46.66666666666667</ele><time>2026-05-03T15:03:23Z</time></trkpt><trkpt lat="41.13438982320723" lon="9.512073795787543"><ele>47.333333333333336</ele><time>2026-05-03T15:03:24Z</time></trkpt><trkpt lat="41.134340493993314" lon="9.512275438386245"><ele>48.0</ele><time>2026-05-03T15:03:25Z</time></trkpt><trkpt lat="41.134292615890836" lon="9.51246971116561"><ele>48.0</ele><time>2026-05-03T15:03:26Z</time></trkpt><trkpt lat="41.1342518218189" lon="9.5126556857665"><ele>48.0</ele><time>2026-05-03T15:03:27Z</time></trkpt><trkpt lat="41.13421048562698" lon="9.512842946263998"><ele>48.0</ele><time>2026-05-03T15:03:28Z</time></trkpt><trkpt lat="41.13418593500222" lon="9.513029603541169"><ele>48.0</ele><time>2026-05-03T15:03:29Z</time></trkpt><trkpt lat="41.13418344068253" lon="9.51321122143592"><ele>48.5</ele><time>2026-05-03T15:03:30Z</time></trkpt><trkpt lat="41.13420152255302" lon="9.513393982532156"><ele>49.0</ele><time>2026-05-03T15:03:31Z</time></trkpt><trkpt lat="41.13423736771535" lon="9.51358558751209"><ele>49.5</ele><time>2026-05-03T15:03:32Z</time></trkpt><trkpt lat="41.134287281488646" lon="9.513782783513866"><ele>50.0</ele><time>2026-05-03T15:03:33Z</time></trkpt><trkpt lat="41.13434809344569" lon="9.513978854738351"><ele>51.25</ele><time>2026-05-03T15:03:34Z</time></trkpt><trkpt lat="41.13441173234773" lon="9.514159934248216"><ele>52.5</ele><time>2026-05-03T15:03:35Z</time></trkpt><trkpt lat="41.134471524360656" lon="9.51430821088249"><ele>53.75</ele><time>2026-05-03T15:03:36Z</time></trkpt><trkpt lat="41.13452786379606" lon="9.514432649855898"><ele>55.0</ele><time>2026-05-03T15:03:37Z</time></trkpt><trkpt lat="41.13458815101673" lon="9.514547986710006"><ele>55.75</ele><time>2026-05-03T15:03:38Z</time></trkpt><trkpt lat="41.1346594372681" lon="9.514673094943392"><ele>56.5</ele><time>2026-05-03T15:03:39Z</time></trkpt><trkpt lat="41.134741065620624" lon="9.514802093029102"><ele>57.25</ele><time>2026-05-03T15:03:40Z</time></trkpt><trkpt lat="41.13482924462879" lon="9.514935810068787"><ele>58.0</ele><time>2026-05-03T15:03:41Z</time></trkpt><trkpt lat="41.13491612024396" lon="9.515082692125388"><ele>58.0</ele><time>2026-05-03T15:03:42Z</time></trkpt><trkpt lat="41.135006174548465" lon="9.515236014261001"><ele>58.0</ele><time>2026-05-03T15:03:43Z</time></trkpt><trkpt lat="41.135099802792155" lon="9.515386421699487"><ele>58.0</ele><time>2026-05-03T15:03:44Z</time></trkpt><trkpt lat="41.13518388841035" lon="9.515520358443172"><ele>58.0</ele><time>2026-05-03T15:03:45Z</time></trkpt><trkpt lat="41.135266006269816" lon="9.515648492586402"><ele>59.2</ele><time>2026-05-03T15:03:46Z</time></trkpt><trkpt lat="41.13534636015532" lon="9.515777239110962"><ele>60.4</ele><time>2026-05-03T15:03:47Z</time></trkpt><trkpt lat="41.135414691637166" lon="9.515894340586744"><ele>61.60000000000001</ele><time>2026-05-03T15:03:48Z</time></trkpt><trkpt lat="41.13547124308293" lon="9.515999350648936"><ele>62.800000000000004</ele><time>2026-05-03T15:03:49Z</time></trkpt><trkpt lat="41.13551795940904" lon="9.516097828288718"><ele>64.0</ele><time>2026-05-03T15:03:50Z</time></trkpt><trkpt lat="41.1355515944224" lon="9.516195568760354"><ele>64.83333333333333</ele><time>2026-05-03T15:03:51Z</time></trkpt><trkpt lat="41.135571036852305" lon="9.516295909016598"><ele>65.66666666666666</ele><time>2026-05-03T15:03:52Z</time></trkpt><trkpt lat="41.13558279526849" lon="9.516393208045006"><ele>66.5</ele><time>2026-05-03T15:03:53Z</time></trkpt><trkpt lat="41.135586446670985" lon="9.516482606427443"><ele>67.33333333333333</ele><time>2026-05-03T15:03:54Z</time></trkpt><trkpt lat="41.135578447623416" lon="9.516578360426063"><ele>68.16666666666667</ele><time>2026-05-03T15:03:55Z</time></trkpt><trkpt lat="41.135563449090576" lon="9.51668258000828"><ele>69.0</ele><time>2026-05-03T15:03:56Z</time></trkpt><trkpt lat="41.135556274212945" lon="9.516798598616495"><ele>69.0</ele><time>2026-05-03T15:03:57Z</time></trkpt><trkpt lat="41.13549599186859" lon="9.516907968988471"><ele>69.0</ele><time>2026-05-03T15:03:58Z</time></trkpt><trkpt lat="41.1354546321677" lon="9.517016039555543"><ele>69.0</ele><time>2026-05-03T15:03:59Z</time></trkpt><trkpt lat="41.13539584218494" lon="9.517112375073074"><ele>69.0</ele><time>2026-05-03T15:04:00Z</time></trkpt><trkpt lat="41.13534077359495" lon="9.517194572842127"><ele>69.0</ele><time>2026-05-03T15:04:01Z</time></trkpt><trkpt lat="41.1352849724482" lon="9.517278770113858"><ele>69.16666666666667</ele><time>2026-05-03T15:04:02Z</time></trkpt><trkpt lat="41.13522787283124" lon="9.51736833909254"><ele>69.33333333333333</ele><time>2026-05-03T15:04:03Z</time></trkpt><trkpt lat="41.135175723234546" lon="9.517462909105292"><ele>69.5</ele><time>2026-05-03T15:04:04Z</time></trkpt><trkpt lat="41.1351300066509" lon="9.51756254189397"><ele>69.66666666666666</ele><time>2026-05-03T15:04:05Z</time></trkpt><trkpt lat="41.13509646003463" lon="9.517661198708154"><ele>69.83333333333333</ele><time>2026-05-03T15:04:06Z</time></trkpt><trkpt lat="41.13508064445716" lon="9.517752436357954"><ele>70.0</ele><time>2026-05-03T15:04:07Z</time></trkpt><trkpt lat="41.13508226844839" lon="9.517846805052601"><ele>69.33333333333333</ele><time>2026-05-03T15:04:08Z</time></trkpt><trkpt lat="41.135105177617945" lon="9.517945332379549"><ele>68.66666666666666</ele><time>2026-05-03T15:04:09Z</time></trkpt><trkpt lat="41.135140997651106" lon="9.51804831318393"><ele>68.0</ele><time>2026-05-03T15:04:10Z</time></trkpt><trkpt lat="41.135184083055904" lon="9.51815342736828"><ele>67.33333333333333</ele><time>2026-05-03T15:04:11Z</time></trkpt><trkpt lat="41.135226302519676" lon="9.518262040620224"><ele>66.66666666666667</ele><time>2026-05-03T15:04:12Z</time></trkpt><trkpt lat="41.135267846442225" lon="9.518371664662798"><ele>66.0</ele><time>2026-05-03T15:04:13Z</time></trkpt><trkpt lat="41.135306829118136" lon="9.518475072463715"><ele>66.0</ele><time>2026-05-03T15:04:14Z</time></trkpt><trkpt lat="41.135332796493934" lon="9.51855334260753"><ele>66.0</ele><time>2026-05-03T15:04:14.999Z</time></trkpt><trkpt lat="41.135359532671636" lon="9.518668821013023"><ele>66.0</ele><time>2026-05-03T15:04:16.999Z</time></trkpt><trkpt lat="41.13536481704631" lon="9.518780140507104"><ele>66.0</ele><time>2026-05-03T15:04:19.999Z</time></trkpt><trkpt lat="41.13540288805659" lon="9.518868743856789"><ele>66.0</ele><time>2026-05-03T15:04:22.999Z</time></trkpt><trkpt lat="41.135487088087466" lon="9.518917198784271"><ele>66.0</ele><time>2026-05-03T15:04:50Z</time></trkpt><trkpt lat="41.135559832836364" lon="9.519085594976426"><ele>67.0</ele><time>2026-05-03T15:04:52Z</time></trkpt><trkpt lat="41.13560539562603" lon="9.519212183048541"><ele>68.0</ele><time>2026-05-03T15:04:53Z</time></trkpt><trkpt lat="41.135662742344024" lon="9.519333509798745"><ele>69.0</ele><time>2026-05-03T15:04:54Z</time></trkpt><trkpt lat="41.13573462588449" lon="9.519455041086633"><ele>70.0</ele><time>2026-05-03T15:04:55Z</time></trkpt><trkpt lat="41.13581401171131" lon="9.51957486388181"><ele>67.5</ele><time>2026-05-03T15:04:56Z</time></trkpt><trkpt lat="41.13590115866887" lon="9.519693941658707"><ele>65.0</ele><time>2026-05-03T15:04:57Z</time></trkpt><trkpt lat="41.13598790940467" lon="9.519818141381032"><ele>62.5</ele><time>2026-05-03T15:04:58Z</time></trkpt><trkpt lat="41.13607674433655" lon="9.519947419980086"><ele>60.0</ele><time>2026-05-03T15:04:59Z</time></trkpt><trkpt lat="41.13616536976782" lon="9.520079380218359"><ele>60.0</ele><time>2026-05-03T15:05:00Z</time></trkpt><trkpt lat="41.13625075418499" lon="9.520210735099568"><ele>60.0</ele><time>2026-05-03T15:05:01Z</time></trkpt><trkpt lat="41.136329692319194" lon="9.520332930078771"><ele>60.0</ele><time>2026-05-03T15:05:02Z</time></trkpt><trkpt lat="41.13640672521733" lon="9.520448506512128"><ele>60.0</ele><time>2026-05-03T15:05:03Z</time></trkpt><trkpt lat="41.13648663474084" lon="9.520559289704533"><ele>57.5</ele><time>2026-05-03T15:05:04Z</time></trkpt><trkpt lat="41.13656680554692" lon="9.52067157167222"><ele>55.0</ele><time>2026-05-03T15:05:05Z</time></trkpt><trkpt lat="41.13664524004107" lon="9.520791916207383"><ele>52.5</ele><time>2026-05-03T15:05:06Z</time></trkpt><trkpt lat="41.13671071070908" lon="9.520921969386174"><ele>50.0</ele><time>2026-05-03T15:05:07Z</time></trkpt><trkpt lat="41.13675386393175" lon="9.521059997669274"><ele>50.0</ele><time>2026-05-03T15:05:08Z</time></trkpt><trkpt lat="41.136770763602634" lon="9.521207152426655"><ele>50.0</ele><time>2026-05-03T15:05:09Z</time></trkpt><trkpt lat="41.136762753225085" lon="9.521363198049537"><ele>50.0</ele><time>2026-05-03T15:05:10Z</time></trkpt><trkpt lat="41.13673456983362" lon="9.521515741571832"><ele>50.0</ele><time>2026-05-03T15:05:11Z</time></trkpt><trkpt lat="41.13668645997619" lon="9.521658923265187"><ele>51.5</ele><time>2026-05-03T15:05:12Z</time></trkpt><trkpt lat="41.13661605840346" lon="9.5217837385822"><ele>53.0</ele><time>2026-05-03T15:05:13Z</time></trkpt><trkpt lat="41.136536854795786" lon="9.521898093960047"><ele>54.5</ele><time>2026-05-03T15:05:14Z</time></trkpt><trkpt lat="41.136452777510385" lon="9.522004169482349"><ele>56.0</ele><time>2026-05-03T15:05:15Z</time></trkpt><trkpt lat="41.13637477644996" lon="9.522104305472364"><ele>53.199999999999996</ele><time>2026-05-03T15:05:16Z</time></trkpt><trkpt lat="41.136298605066166" lon="9.522205453403739"><ele>50.39999999999999</ele><time>2026-05-03T15:05:17Z</time></trkpt><trkpt lat="41.13622679380122" lon="9.522305335527001"><ele>47.6</ele><time>2026-05-03T15:05:18Z</time></trkpt><trkpt lat="41.136156869498066" lon="9.522400738084984"><ele>44.8</ele><time>2026-05-03T15:05:19Z</time></trkpt><trkpt lat="41.13608514735032" lon="9.522499740039173"><ele>42.0</ele><time>2026-05-03T15:05:20Z</time></trkpt><trkpt lat="41.13600590398302" lon="9.522608336947847"><ele>42.0</ele><time>2026-05-03T15:05:21Z</time></trkpt><trkpt lat="41.13591719262347" lon="9.522731711083336"><ele>42.0</ele><time>2026-05-03T15:05:22Z</time></trkpt><trkpt lat="41.13582084089471" lon="9.522863084827456"><ele>42.0</ele><time>2026-05-03T15:05:23Z</time></trkpt><trkpt lat="41.13571479227573" lon="9.523001105996165"><ele>42.0</ele><time>2026-05-03T15:05:24Z</time></trkpt><trkpt lat="41.13560375441454" lon="9.523125018986464"><ele>39.5</ele><time>2026-05-03T15:05:25Z</time></trkpt><trkpt lat="41.13548860647025" lon="9.523206711278993"><ele>37.0</ele><time>2026-05-03T15:05:26Z</time></trkpt><trkpt lat="41.135353268191956" lon="9.523243478908652"><ele>34.5</ele><time>2026-05-03T15:05:27Z</time></trkpt><trkpt lat="41.135197611029994" lon="9.523230579085576"><ele>32.0</ele><time>2026-05-03T15:05:28Z</time></trkpt><trkpt lat="41.135047218818876" lon="9.523189740996125"><ele>32.0</ele><time>2026-05-03T15:05:29Z</time></trkpt><trkpt lat="41.134911846097765" lon="9.52310277044987"><ele>32.0</ele><time>2026-05-03T15:05:30Z</time></trkpt><trkpt lat="41.134796085344306" lon="9.522964212877321"><ele>32.0</ele><time>2026-05-03T15:05:31Z</time></trkpt><trkpt lat="41.13469419347318" lon="9.522796079965703"><ele>28.666666666666664</ele><time>2026-05-03T15:05:32Z</time></trkpt><trkpt lat="41.13459218182792" lon="9.522619296055195"><ele>25.333333333333332</ele><time>2026-05-03T15:05:33Z</time></trkpt><trkpt lat="41.13448758224175" lon="9.522450327761053"><ele>22.0</ele><time>2026-05-03T15:05:34Z</time></trkpt><trkpt lat="41.134388829742626" lon="9.522296624610865"><ele>22.0</ele><time>2026-05-03T15:05:35Z</time></trkpt><trkpt lat="41.13429397422907" lon="9.52214805361435"><ele>22.0</ele><time>2026-05-03T15:05:36Z</time></trkpt><trkpt lat="41.13420152489137" lon="9.522003129890448"><ele>22.0</ele><time>2026-05-03T15:05:37Z</time></trkpt><trkpt lat="41.13411267435044" lon="9.521862932451452"><ele>22.0</ele><time>2026-05-03T15:05:38Z</time></trkpt><trkpt lat="41.13404015116969" lon="9.521719315039462"><ele>21.0</ele><time>2026-05-03T15:05:39Z</time></trkpt><trkpt lat="41.13400102611092" lon="9.521573143367247"><ele>20.0</ele><time>2026-05-03T15:05:40Z</time></trkpt><trkpt lat="41.13395910587271" lon="9.521470486643237"><ele>19.0</ele><time>2026-05-03T15:05:40.999Z</time></trkpt><trkpt lat="41.133878401062944" lon="9.521412885311479"><ele>18.0</ele><time>2026-05-03T15:05:41.999Z</time></trkpt><trkpt lat="41.13379409575768" lon="9.521428080698955"><ele>17.0</ele><time>2026-05-03T15:05:42.999Z</time></trkpt><trkpt lat="41.1337314161626" lon="9.52151664426342"><ele>17.0</ele><time>2026-05-03T15:05:43.999Z</time></trkpt><trkpt lat="41.13372026065755" lon="9.521638389453958"><ele>17.0</ele><time>2026-05-03T15:05:44.999Z</time></trkpt><trkpt lat="41.133758218171536" lon="9.521765438962268"><ele>17.0</ele><time>2026-05-03T15:05:45.999Z</time></trkpt><trkpt lat="41.13383096169891" lon="9.521874207457046"><ele>17.0</ele><time>2026-05-03T15:05:46.999Z</time></trkpt><trkpt lat="41.13389780792463" lon="9.521992649979438"><ele>17.0</ele><time>2026-05-03T15:05:47.999Z</time></trkpt><trkpt lat="41.133919577497565" lon="9.52214262775443"><ele>17.0</ele><time>2026-05-03T15:05:48.999Z</time></trkpt><trkpt lat="41.133914323476105" lon="9.522331138801295"><ele>17.0</ele><time>2026-05-03T15:05:49.999Z</time></trkpt><trkpt lat="41.133911237560476" lon="9.522520231446395"><ele>17.0</ele><time>2026-05-03T15:05:50.999Z</time></trkpt><trkpt lat="41.13391459379036" lon="9.522682598573894"><ele>17.0</ele><time>2026-05-03T15:05:51.999Z</time></trkpt><trkpt lat="41.133927680158465" lon="9.52285340587811"><ele>17.25</ele><time>2026-05-03T15:05:52.999Z</time></trkpt><trkpt lat="41.13395411203114" lon="9.523032401765478"><ele>17.5</ele><time>2026-05-03T15:05:53.999Z</time></trkpt><trkpt lat="41.133998223539976" lon="9.523215078821051"><ele>17.75</ele><time>2026-05-03T15:05:54.999Z</time></trkpt><trkpt lat="41.134054884059296" lon="9.52339309062005"><ele>18.0</ele><time>2026-05-03T15:05:55.999Z</time></trkpt><trkpt lat="41.13411436319281" lon="9.523574755914556"><ele>15.5</ele><time>2026-05-03T15:05:56.999Z</time></trkpt><trkpt lat="41.13417612946163" lon="9.523742463616372"><ele>13.0</ele><time>2026-05-03T15:05:57.999Z</time></trkpt><trkpt lat="41.13423396800335" lon="9.523904435295613"><ele>10.5</ele><time>2026-05-03T15:05:58.999Z</time></trkpt><trkpt lat="41.13427778732714" lon="9.524067305508234"><ele>8.0</ele><time>2026-05-03T15:05:59.999Z</time></trkpt><trkpt lat="41.13430632654375" lon="9.524227180953869"><ele>8.0</ele><time>2026-05-03T15:06:00.999Z</time></trkpt><trkpt lat="41.13431717640476" lon="9.524380302106804"><ele>8.0</ele><time>2026-05-03T15:06:01.999Z</time></trkpt><trkpt lat="41.13431240071824" lon="9.524519078185117"><ele>8.0</ele><time>2026-05-03T15:06:02.999Z</time></trkpt><trkpt lat="41.134281726932436" lon="9.524615586538125"><ele>8.0</ele><time>2026-05-03T15:06:03.999Z</time></trkpt><trkpt lat="41.13423214908921" lon="9.524742613288721"><ele>8.0</ele><time>2026-05-03T15:06:05.999Z</time></trkpt><trkpt lat="41.13439326089038" lon="9.524910623603983"><ele>8.200000000000001</ele><time>2026-05-03T15:06:08.999Z</time></trkpt><trkpt lat="41.1344695973833" lon="9.524926066465"><ele>8.4</ele><time>2026-05-03T15:06:09.999Z</time></trkpt><trkpt lat="41.13455392682276" lon="9.524956588495739"><ele>8.600000000000001</ele><time>2026-05-03T15:06:10.999Z</time></trkpt><trkpt lat="41.134643089666184" lon="9.525001858989144"><ele>8.8</ele><time>2026-05-03T15:06:11.999Z</time></trkpt><trkpt lat="41.13473424382236" lon="9.525065514495688"><ele>9.0</ele><time>2026-05-03T15:06:12.999Z</time></trkpt><trkpt lat="41.1348200517276" lon="9.525148028879347"><ele>9.4</ele><time>2026-05-03T15:06:13.999Z</time></trkpt><trkpt lat="41.13489986285867" lon="9.525252115985685"><ele>9.8</ele><time>2026-05-03T15:06:14.999Z</time></trkpt><trkpt lat="41.13498004430204" lon="9.525333829092448"><ele>10.200000000000001</ele><time>2026-05-03T15:06:15.999Z</time></trkpt><trkpt lat="41.1350611849189" lon="9.525350496512647"><ele>10.600000000000001</ele><time>2026-05-03T15:06:16.999Z</time></trkpt><trkpt lat="41.13515081482003" lon="9.525311666568069"><ele>11.0</ele><time>2026-05-03T15:06:17.999Z</time></trkpt><trkpt lat="41.13522538407256" lon="9.525234643837468"><ele>11.0</ele><time>2026-05-03T15:06:18.999Z</time></trkpt><trkpt lat="41.13529037323326" lon="9.525164891598276"><ele>11.0</ele><time>2026-05-03T15:06:19.999Z</time></trkpt><trkpt lat="41.13538194712192" lon="9.525092486720226"><ele>11.0</ele><time>2026-05-03T15:06:20.999Z</time></trkpt><trkpt lat="41.13548259977345" lon="9.525011446707767"><ele>11.0</ele><time>2026-05-03T15:06:21.999Z</time></trkpt><trkpt lat="41.13560444440964" lon="9.524970613265644"><ele>11.0</ele><time>2026-05-03T15:06:22.999Z</time></trkpt><trkpt lat="41.13573127072317" lon="9.524925191487672"><ele>10.75</ele><time>2026-05-03T15:06:23.999Z</time></trkpt><trkpt lat="41.135843225749724" lon="9.524838024975304"><ele>10.5</ele><time>2026-05-03T15:06:24.999Z</time></trkpt><trkpt lat="41.13595228440136" lon="9.524721461494805"><ele>10.25</ele><time>2026-05-03T15:06:25.999Z</time></trkpt><trkpt lat="41.13604584476526" lon="9.524620105834861"><ele>10.0</ele><time>2026-05-03T15:06:26.999Z</time></trkpt><trkpt lat="41.136136274505645" lon="9.524531536615198"><ele>11.0</ele><time>2026-05-03T15:06:27.999Z</time></trkpt><trkpt lat="41.13624067091961" lon="9.524485945050142"><ele>12.0</ele><time>2026-05-03T15:06:28.999Z</time></trkpt><trkpt lat="41.136329116501145" lon="9.524453345240392"><ele>13.0</ele><time>2026-05-03T15:06:29.999Z</time></trkpt><trkpt lat="41.13642113763572" lon="9.524403774664261"><ele>14.0</ele><time>2026-05-03T15:06:30.999Z</time></trkpt><trkpt lat="41.13650587734194" lon="9.524392550253548"><ele>15.0</ele><time>2026-05-03T15:06:31.999Z</time></trkpt><trkpt lat="41.1365776269759" lon="9.5244108857066"><ele>15.0</ele><time>2026-05-03T15:06:32.999Z</time></trkpt><trkpt lat="41.13664047480346" lon="9.524464102363275"><ele>15.0</ele><time>2026-05-03T15:06:33.999Z</time></trkpt><trkpt lat="41.13669242598845" lon="9.524538964777905"><ele>15.0</ele><time>2026-05-03T15:06:34.999Z</time></trkpt><trkpt lat="41.13673721151092" lon="9.5246375116286"><ele>15.0</ele><time>2026-05-03T15:06:35.999Z</time></trkpt><trkpt lat="41.136792510801705" lon="9.524728485040484"><ele>15.0</ele><time>2026-05-03T15:06:36.999Z</time></trkpt><trkpt lat="41.13685360035787" lon="9.52480019655539"><ele>15.0</ele><time>2026-05-03T15:06:37.999Z</time></trkpt><trkpt lat="41.13692635046792" lon="9.524857912081078"><ele>13.4</ele><time>2026-05-03T15:06:38.999Z</time></trkpt><trkpt lat="41.13700982773263" lon="9.5249004822356"><ele>11.8</ele><time>2026-05-03T15:06:39.999Z</time></trkpt><trkpt lat="41.137103289135496" lon="9.524931585536573"><ele>10.2</ele><time>2026-05-03T15:06:40.999Z</time></trkpt><trkpt lat="41.137204845117495" lon="9.524947692727391"><ele>8.6</ele><time>2026-05-03T15:06:41.999Z</time></trkpt><trkpt lat="41.1373020773708" lon="9.52491797463006"><ele>7.0</ele><time>2026-05-03T15:06:42.999Z</time></trkpt><trkpt lat="41.13738244097182" lon="9.524854848481729"><ele>7.199999999999999</ele><time>2026-05-03T15:06:43.999Z</time></trkpt><trkpt lat="41.13745536709471" lon="9.524753746515294"><ele>7.3999999999999995</ele><time>2026-05-03T15:06:44.999Z</time></trkpt><trkpt lat="41.13751232597375" lon="9.524653342081743"><ele>7.6000000000000005</ele><time>2026-05-03T15:06:45.999Z</time></trkpt><trkpt lat="41.137578609878865" lon="9.524568890513612"><ele>7.800000000000001</ele><time>2026-05-03T15:06:46.999Z</time></trkpt><trkpt lat="41.13765352606818" lon="9.524506951145103"><ele>8.0</ele><time>2026-05-03T15:06:47.999Z</time></trkpt><trkpt lat="41.13774174571788" lon="9.524480108795599"><ele>8.200000000000001</ele><time>2026-05-03T15:06:49Z</time></trkpt><trkpt lat="41.13783676475535" lon="9.524510031432573"><ele>8.4</ele><time>2026-05-03T15:06:50Z</time></trkpt><trkpt lat="41.13792894135117" lon="9.524521086303805"><ele>8.600000000000001</ele><time>2026-05-03T15:06:51Z</time></trkpt><trkpt lat="41.1379984925639" lon="9.524547288288778"><ele>8.8</ele><time>2026-05-03T15:06:52Z</time></trkpt><trkpt lat="41.13810994390925" lon="9.524525429156833"><ele>9.0</ele><time>2026-05-03T15:06:54Z</time></trkpt><trkpt lat="41.13822068890253" lon="9.524525887541923"><ele>9.2</ele><time>2026-05-03T15:06:56Z</time></trkpt><trkpt lat="41.138287243055935" lon="9.524680095079699"><ele>9.4</ele><time>2026-05-03T15:06:58Z</time></trkpt><trkpt lat="41.13829833224476" lon="9.524764210484644"><ele>9.6</ele><time>2026-05-03T15:06:59Z</time></trkpt><trkpt lat="41.13823484056236" lon="9.524884293760449"><ele>9.8</ele><time>2026-05-03T15:07:00Z</time></trkpt><trkpt lat="41.13819584140881" lon="9.524994864637861"><ele>10.0</ele><time>2026-05-03T15:07:01Z</time></trkpt><trkpt lat="41.13816650418827" lon="9.525110330355243"><ele>9.666666666666668</ele><time>2026-05-03T15:07:02Z</time></trkpt><trkpt lat="41.138142509765196" lon="9.525221618557453"><ele>9.333333333333334</ele><time>2026-05-03T15:07:03Z</time></trkpt><trkpt lat="41.13812106799015" lon="9.525330258109115"><ele>9.0</ele><time>2026-05-03T15:07:04Z</time></trkpt><trkpt lat="41.13809791557074" lon="9.525431567326086"><ele>8.666666666666666</ele><time>2026-05-03T15:07:05Z</time></trkpt><trkpt lat="41.13807482363637" lon="9.525530372112737"><ele>8.333333333333332</ele><time>2026-05-03T15:07:06Z</time></trkpt><trkpt lat="41.13805059236819" lon="9.525628780615248"><ele>8.0</ele><time>2026-05-03T15:07:07Z</time></trkpt><trkpt lat="41.13802179581373" lon="9.525731422186775"><ele>8.0</ele><time>2026-05-03T15:07:08Z</time></trkpt><trkpt lat="41.13797037486549" lon="9.5258276249867"><ele>8.0</ele><time>2026-05-03T15:07:09Z</time></trkpt><trkpt lat="41.137891946216044" lon="9.525899952847062"><ele>8.0</ele><time>2026-05-03T15:07:10Z</time></trkpt><trkpt lat="41.137816334648605" lon="9.525964817112582"><ele>8.0</ele><time>2026-05-03T15:07:11Z</time></trkpt><trkpt lat="41.13772938545237" lon="9.526001935710577"><ele>8.0</ele><time>2026-05-03T15:07:12Z</time></trkpt><trkpt lat="41.13765269327707" lon="9.526058670907087"><ele>8.0</ele><time>2026-05-03T15:07:13Z</time></trkpt><trkpt lat="41.137564917946776" lon="9.52611316439023"><ele>8.0</ele><time>2026-05-03T15:07:14Z</time></trkpt><trkpt lat="41.13747128845656" lon="9.526165191559564"><ele>8.0</ele><time>2026-05-03T15:07:15Z</time></trkpt><trkpt lat="41.13738452618637" lon="9.526228389616165"><ele>8.0</ele><time>2026-05-03T15:07:16Z</time></trkpt><trkpt lat="41.13730150753556" lon="9.526275634913294"><ele>8.0</ele><time>2026-05-03T15:07:17Z</time></trkpt><trkpt lat="41.13723539543173" lon="9.526321644000559"><ele>7.666666666666666</ele><time>2026-05-03T15:07:18Z</time></trkpt><trkpt lat="41.13717552824864" lon="9.526357335860848"><ele>7.333333333333333</ele><time>2026-05-03T15:07:19Z</time></trkpt><trkpt lat="41.13710749295247" lon="9.52639024376088"><ele>7.0</ele><time>2026-05-03T15:07:20Z</time></trkpt><trkpt lat="41.13703172791774" lon="9.526407505973122"><ele>6.666666666666666</ele><time>2026-05-03T15:07:21Z</time></trkpt><trkpt lat="41.13694812112727" lon="9.526406426473033"><ele>6.333333333333333</ele><time>2026-05-03T15:07:22Z</time></trkpt><trkpt lat="41.13686062750213" lon="9.526381688401294"><ele>6.0</ele><time>2026-05-03T15:07:23Z</time></trkpt><trkpt lat="41.13678650092271" lon="9.52636088257102"><ele>5.999999999999999</ele><time>2026-05-03T15:07:24Z</time></trkpt><trkpt lat="41.13672125645421" lon="9.526380013102917"><ele>6.0</ele><time>2026-05-03T15:07:25Z</time></trkpt><trkpt lat="41.13666669143241" lon="9.526429475432955"><ele>6.0</ele><time>2026-05-03T15:07:26Z</time></trkpt><trkpt lat="41.136606162345984" lon="9.52647034600624"><ele>6.0</ele><time>2026-05-03T15:07:27Z</time></trkpt><trkpt lat="41.13653995812046" lon="9.526523472199143"><ele>6.0</ele><time>2026-05-03T15:07:28Z</time></trkpt><trkpt lat="41.13647027235569" lon="9.526587213698422"><ele>5.999999999999999</ele><time>2026-05-03T15:07:29Z</time></trkpt><trkpt lat="41.13641239555124" lon="9.526661900935677"><ele>6.0</ele><time>2026-05-03T15:07:30Z</time></trkpt><trkpt lat="41.13635699212717" lon="9.526726424943094"><ele>5.3999999999999995</ele><time>2026-05-03T15:07:31Z</time></trkpt><trkpt lat="41.136273387354336" lon="9.526837101268184"><ele>4.8</ele><time>2026-05-03T15:07:33Z</time></trkpt><trkpt lat="41.136182927970275" lon="9.526917337032117"><ele>4.199999999999999</ele><time>2026-05-03T15:07:35Z</time></trkpt><trkpt lat="41.136090812827504" lon="9.526941917266962"><ele>3.5999999999999996</ele><time>2026-05-03T15:07:37Z</time></trkpt><trkpt lat="41.13598469154392" lon="9.52695986936265"><ele>3.0</ele><time>2026-05-03T15:07:39Z</time></trkpt><trkpt lat="41.13592005267522" lon="9.526954633607813"><ele>3.0</ele><time>2026-05-03T15:07:40Z</time></trkpt><trkpt lat="41.135856584093" lon="9.526949105051767"><ele>3.0</ele><time>2026-05-03T15:07:41Z</time></trkpt><trkpt lat="41.13575138928234" lon="9.526978463595615"><ele>3.0</ele><time>2026-05-03T15:07:43Z</time></trkpt><trkpt lat="41.13567182588835" lon="9.527089029504024"><ele>3.0</ele><time>2026-05-03T15:07:44.999Z</time></trkpt><trkpt lat="41.13563412598043" lon="9.527243778756946"><ele>3.0</ele><time>2026-05-03T15:07:46.999Z</time></trkpt><trkpt lat="41.135587686366534" lon="9.527382377083146"><ele>2.6</ele><time>2026-05-03T15:07:48.999Z</time></trkpt><trkpt lat="41.13556382543523" lon="9.527464002642041"><ele>2.1999999999999997</ele><time>2026-05-03T15:07:49.999Z</time></trkpt><trkpt lat="41.13553438723167" lon="9.52757696596848"><ele>1.8</ele><time>2026-05-03T15:07:51.999Z</time></trkpt><trkpt lat="41.13551522035126" lon="9.527673399025698"><ele>1.4</ele><time>2026-05-03T15:07:55.999Z</time></trkpt><trkpt lat="41.135494645477635" lon="9.527776880642946"><ele>1.0</ele><time>2026-05-03T15:08:03.999Z</time></trkpt><trkpt lat="41.135637973427364" lon="9.527853379144746"><ele>1.0</ele><time>2026-05-03T15:10:40.999Z</time></trkpt><trkpt lat="41.13556978363384" lon="9.527836904419942"><ele>0.9999999999999999</ele><time>2026-05-03T15:14:26.999Z</time></trkpt><trkpt lat="41.13563318864741" lon="9.527858194830461"><ele>1.0</ele><time>2026-05-03T15:15:00.999Z</time></trkpt><trkpt lat="41.13561191621842" lon="9.52794488577149"><ele>1.0</ele><time>2026-05-03T15:30:50Z</time></trkpt><trkpt lat="41.13565568365157" lon="9.527855097122659"><ele>0.9999999999999999</ele><time>2026-05-03T15:33:03.999Z</time></trkpt><trkpt lat="41.13567330914785" lon="9.527727698236692"><ele>1.0</ele><time>2026-05-03T15:33:53Z</time></trkpt><trkpt lat="41.135660531571695" lon="9.52781424578597"><ele>1.0</ele><time>2026-05-03T15:37:23Z</time></trkpt><trkpt lat="41.13564070658013" lon="9.52789448442039"><ele>0.9999999999999999</ele><time>2026-05-03T15:37:35Z</time></trkpt><trkpt lat="41.13558271236177" lon="9.527853895276435"><ele>1.0</ele><time>2026-05-03T15:37:45Z</time></trkpt><trkpt lat="41.13551864181" lon="9.527871190702152"><ele>1.0</ele><time>2026-05-03T15:43:57Z</time></trkpt><trkpt lat="41.13545626159683" lon="9.527941530274544"><ele>1.0</ele><time>2026-05-03T15:44:00Z</time></trkpt><trkpt lat="41.13543843585183" lon="9.52808722429873"><ele>0.9999999999999999</ele><time>2026-05-03T15:44:02Z</time></trkpt><trkpt lat="41.13543580406775" lon="9.52823875010499"><ele>1.0</ele><time>2026-05-03T15:44:04Z</time></trkpt><trkpt lat="41.135437199312896" lon="9.528386070272274"><ele>0.9999999999999999</ele><time>2026-05-03T15:44:06Z</time></trkpt><trkpt lat="41.13543997565519" lon="9.528527068165756"><ele>1.0</ele><time>2026-05-03T15:44:08Z</time></trkpt><trkpt lat="41.13544826342736" lon="9.5286284914781"><ele>1.0</ele><time>2026-05-03T15:44:10Z</time></trkpt><trkpt lat="41.135454155910395" lon="9.528735214361548"><ele>1.0</ele><time>2026-05-03T15:44:13Z</time></trkpt><trkpt lat="41.13546003651273" lon="9.528841791752992"><ele>0.9999999999999999</ele><time>2026-05-03T15:44:15Z</time></trkpt><trkpt lat="41.13546074026873" lon="9.528947514829403"><ele>1.0</ele><time>2026-05-03T15:44:17Z</time></trkpt><trkpt lat="41.13546266178671" lon="9.52904143583403"><ele>1.0</ele><time>2026-05-03T15:44:19Z</time></trkpt><trkpt lat="41.135477385872015" lon="9.529135575036982"><ele>0.9999999999999999</ele><time>2026-05-03T15:44:21Z</time></trkpt><trkpt lat="41.13550605031566" lon="9.529227501688927"><ele>1.0</ele><time>2026-05-03T15:44:23Z</time></trkpt><trkpt lat="41.13552654250928" lon="9.52931858012858"><ele>1.0</ele><time>2026-05-03T15:44:25Z</time></trkpt><trkpt lat="41.135545274407285" lon="9.529408066568527"><ele>0.9999999999999999</ele><time>2026-05-03T15:44:27Z</time></trkpt><trkpt lat="41.135575046145505" lon="9.529494091568218"><ele>1.0</ele><time>2026-05-03T15:44:29Z</time></trkpt><trkpt lat="41.135599984933016" lon="9.529584138697734"><ele>1.0</ele><time>2026-05-03T15:44:31Z</time></trkpt><trkpt lat="41.13561696205925" lon="9.529673236228604"><ele>0.8333333333333333</ele><time>2026-05-03T15:44:33Z</time></trkpt><trkpt lat="41.13563874791553" lon="9.529761115644876"><ele>0.6666666666666666</ele><time>2026-05-03T15:44:35Z</time></trkpt><trkpt lat="41.13566049977153" lon="9.529847969530394"><ele>0.5</ele><time>2026-05-03T15:44:37Z</time></trkpt><trkpt lat="41.13569905531165" lon="9.529937140592466"><ele>0.3333333333333333</ele><time>2026-05-03T15:44:40Z</time></trkpt><trkpt lat="41.13576727733536" lon="9.529980292981193"><ele>0.16666666666666666</ele><time>2026-05-03T15:44:45Z</time></trkpt><trkpt lat="41.1358462393281" lon="9.529996894901798"><ele>0.0</ele><time>2026-05-03T15:44:47Z</time></trkpt><trkpt lat="41.13594417736563" lon="9.530041219343083"><ele>0.5</ele><time>2026-05-03T15:44:49Z</time></trkpt><trkpt lat="41.13605027925111" lon="9.530076031396407"><ele>1.0</ele><time>2026-05-03T15:44:51Z</time></trkpt><trkpt lat="41.136144668353765" lon="9.53009786947666"><ele>1.5</ele><time>2026-05-03T15:44:53Z</time></trkpt><trkpt lat="41.13622383126115" lon="9.530131515498402"><ele>2.0</ele><time>2026-05-03T15:44:55Z</time></trkpt><trkpt lat="41.136284284859855" lon="9.530102509004523"><ele>2.5</ele><time>2026-05-03T15:44:57Z</time></trkpt><trkpt lat="41.13627633976074" lon="9.529993927763616"><ele>3.0</ele><time>2026-05-03T15:44:58Z</time></trkpt><trkpt lat="41.136183660953634" lon="9.529903563313656"><ele>3.0</ele><time>2026-05-03T15:45:00Z</time></trkpt><trkpt lat="41.136201014570446" lon="9.529788029403761"><ele>3.0</ele><time>2026-05-03T15:45:01Z</time></trkpt><trkpt lat="41.13618681562985" lon="9.529628947014439"><ele>3.0</ele><time>2026-05-03T15:45:03Z</time></trkpt><trkpt lat="41.136244371171145" lon="9.5294769532941"><ele>3.0</ele><time>2026-05-03T15:45:05Z</time></trkpt><trkpt lat="41.136336109451165" lon="9.52936889894616"><ele>3.5999999999999996</ele><time>2026-05-03T15:45:07Z</time></trkpt><trkpt lat="41.13639613200487" lon="9.529332358607581"><ele>4.199999999999999</ele><time>2026-05-03T15:45:08Z</time></trkpt><trkpt lat="41.13650257929257" lon="9.529245890365447"><ele>4.8</ele><time>2026-05-03T15:45:10Z</time></trkpt><trkpt lat="41.136562663676315" lon="9.529108201108626"><ele>5.3999999999999995</ele><time>2026-05-03T15:45:12Z</time></trkpt><trkpt lat="41.13658220172813" lon="9.52895471949046"><ele>6.0</ele><time>2026-05-03T15:45:14Z</time></trkpt><trkpt lat="41.13662893934767" lon="9.528813650830042"><ele>5.999999999999999</ele><time>2026-05-03T15:45:16Z</time></trkpt><trkpt lat="41.13666281501674" lon="9.528739579888496"><ele>6.0</ele><time>2026-05-03T15:45:17Z</time></trkpt><trkpt lat="41.13670481727335" lon="9.528671531245632"><ele>6.0</ele><time>2026-05-03T15:45:17.999Z</time></trkpt><trkpt lat="41.13675798076442" lon="9.528609407067158"><ele>6.0</ele><time>2026-05-03T15:45:18.999Z</time></trkpt><trkpt lat="41.13681450206033" lon="9.528545199480314"><ele>6.0</ele><time>2026-05-03T15:45:19.999Z</time></trkpt><trkpt lat="41.13687612610912" lon="9.528481186785642"><ele>5.999999999999999</ele><time>2026-05-03T15:45:20.999Z</time></trkpt><trkpt lat="41.13694405415455" lon="9.528431022290434"><ele>6.0</ele><time>2026-05-03T15:45:21.999Z</time></trkpt><trkpt lat="41.13701078117235" lon="9.528395394603555"><ele>6.5</ele><time>2026-05-03T15:45:22.999Z</time></trkpt><trkpt lat="41.13707421207851" lon="9.52836319295949"><ele>7.0</ele><time>2026-05-03T15:45:23.999Z</time></trkpt><trkpt lat="41.13717109641192" lon="9.528343228714698"><ele>7.5</ele><time>2026-05-03T15:45:25.999Z</time></trkpt><trkpt lat="41.137207429364175" lon="9.52817456332322"><ele>8.0</ele><time>2026-05-03T15:45:27.999Z</time></trkpt><trkpt lat="41.137220883317326" lon="9.52808228909811"><ele>8.5</ele><time>2026-05-03T15:45:28.999Z</time></trkpt><trkpt lat="41.13723703966239" lon="9.527989295132386"><ele>9.0</ele><time>2026-05-03T15:45:29.999Z</time></trkpt><trkpt lat="41.13724977736881" lon="9.527892431006263"><ele>9.0</ele><time>2026-05-03T15:45:30.999Z</time></trkpt><trkpt lat="41.13725626107464" lon="9.527798814702587"><ele>9.0</ele><time>2026-05-03T15:45:31.999Z</time></trkpt><trkpt lat="41.137251219707835" lon="9.527710116997284"><ele>9.0</ele><time>2026-05-03T15:45:32.999Z</time></trkpt><trkpt lat="41.13718361273967" lon="9.527535938018174"><ele>9.0</ele><time>2026-05-03T15:45:34.999Z</time></trkpt><trkpt lat="41.13715404449166" lon="9.527456911201652"><ele>9.0</ele><time>2026-05-03T15:45:35.999Z</time></trkpt><trkpt lat="41.13712555216754" lon="9.527376908055919"><ele>9.0</ele><time>2026-05-03T15:45:36.999Z</time></trkpt><trkpt lat="41.137102357222425" lon="9.527293194398844"><ele>9.0</ele><time>2026-05-03T15:45:37.999Z</time></trkpt><trkpt lat="41.13708607067786" lon="9.527203835407734"><ele>9.0</ele><time>2026-05-03T15:45:38.999Z</time></trkpt><trkpt lat="41.137080655479494" lon="9.52710593612538"><ele>9.0</ele><time>2026-05-03T15:45:39.999Z</time></trkpt><trkpt lat="41.137080180675035" lon="9.527002824793213"><ele>9.0</ele><time>2026-05-03T15:45:40.999Z</time></trkpt><trkpt lat="41.13709298822331" lon="9.526895873831895"><ele>9.0</ele><time>2026-05-03T15:45:42Z</time></trkpt><trkpt lat="41.137106158422355" lon="9.526787968668732"><ele>9.0</ele><time>2026-05-03T15:45:43Z</time></trkpt><trkpt lat="41.13712356856876" lon="9.526679787622255"><ele>8.833333333333334</ele><time>2026-05-03T15:45:44Z</time></trkpt><trkpt lat="41.137136881610516" lon="9.526589536108252"><ele>8.666666666666666</ele><time>2026-05-03T15:45:45Z</time></trkpt><trkpt lat="41.13716065694932" lon="9.526463215117333"><ele>8.5</ele><time>2026-05-03T15:45:47Z</time></trkpt><trkpt lat="41.13722785446178" lon="9.526349963827798"><ele>8.333333333333332</ele><time>2026-05-03T15:45:49Z</time></trkpt><trkpt lat="41.13729002247175" lon="9.526303532449125"><ele>8.166666666666666</ele><time>2026-05-03T15:45:50Z</time></trkpt><trkpt lat="41.137359795356865" lon="9.526261407853847"><ele>8.0</ele><time>2026-05-03T15:45:51Z</time></trkpt><trkpt lat="41.13743604130993" lon="9.526222210909397"><ele>8.0</ele><time>2026-05-03T15:45:52Z</time></trkpt><trkpt lat="41.13752025320678" lon="9.526179953624522"><ele>8.0</ele><time>2026-05-03T15:45:53Z</time></trkpt><trkpt lat="41.13761248775264" lon="9.526126921400598"><ele>8.0</ele><time>2026-05-03T15:45:54Z</time></trkpt><trkpt lat="41.13770818525395" lon="9.526070101600997"><ele>8.0</ele><time>2026-05-03T15:45:55Z</time></trkpt><trkpt lat="41.13781076433115" lon="9.526003660143644"><ele>8.0</ele><time>2026-05-03T15:45:56Z</time></trkpt><trkpt lat="41.13791242477855" lon="9.525926339497966"><ele>8.0</ele><time>2026-05-03T15:45:57Z</time></trkpt><trkpt lat="41.13800269996511" lon="9.525833556795005"><ele>8.0</ele><time>2026-05-03T15:45:58Z</time></trkpt><trkpt lat="41.13807096243668" lon="9.525699239000781"><ele>8.0</ele><time>2026-05-03T15:45:59Z</time></trkpt><trkpt lat="41.1381012174387" lon="9.525551353313878"><ele>8.0</ele><time>2026-05-03T15:46:00Z</time></trkpt><trkpt lat="41.13812745203109" lon="9.525394202087382"><ele>8.0</ele><time>2026-05-03T15:46:01Z</time></trkpt><trkpt lat="41.13816354954367" lon="9.525240150365333"><ele>8.0</ele><time>2026-05-03T15:46:02Z</time></trkpt><trkpt lat="41.13819938337857" lon="9.525090509098662"><ele>8.0</ele><time>2026-05-03T15:46:03Z</time></trkpt><trkpt lat="41.138236192002" lon="9.524953725911146"><ele>8.0</ele><time>2026-05-03T15:46:04Z</time></trkpt><trkpt lat="41.1382774587369" lon="9.524836966953709"><ele>8.0</ele><time>2026-05-03T15:46:05Z</time></trkpt><trkpt lat="41.13830747379227" lon="9.52473771719925"><ele>8.142857142857142</ele><time>2026-05-03T15:46:06Z</time></trkpt><trkpt lat="41.13830822876552" lon="9.52464390690113"><ele>8.285714285714285</ele><time>2026-05-03T15:46:07Z</time></trkpt><trkpt lat="41.1382776378618" lon="9.524562250293904"><ele>8.428571428571429</ele><time>2026-05-03T15:46:08Z</time></trkpt><trkpt lat="41.1382148842418" lon="9.524504415235958"><ele>8.571428571428571</ele><time>2026-05-03T15:46:09Z</time></trkpt><trkpt lat="41.13814326525211" lon="9.52448899412861"><ele>8.714285714285715</ele><time>2026-05-03T15:46:10Z</time></trkpt><trkpt lat="41.138068481522886" lon="9.524499631036438"><ele>8.857142857142858</ele><time>2026-05-03T15:46:11Z</time></trkpt><trkpt lat="41.13798469330194" lon="9.524512724953833"><ele>9.0</ele><time>2026-05-03T15:46:12Z</time></trkpt><trkpt lat="41.13789419530091" lon="9.52449905702881"><ele>8.8</ele><time>2026-05-03T15:46:13Z</time></trkpt><trkpt lat="41.137811278129924" lon="9.52447221034808"><ele>8.600000000000001</ele><time>2026-05-03T15:46:14Z</time></trkpt><trkpt lat="41.13772581940282" lon="9.524463996857042"><ele>8.4</ele><time>2026-05-03T15:46:15Z</time></trkpt><trkpt lat="41.13764178867797" lon="9.524490502427016"><ele>8.200000000000001</ele><time>2026-05-03T15:46:16Z</time></trkpt><trkpt lat="41.13755327226481" lon="9.524542239833993"><ele>8.0</ele><time>2026-05-03T15:46:17Z</time></trkpt><trkpt lat="41.137482483810714" lon="9.52464446401493"><ele>8.0</ele><time>2026-05-03T15:46:18Z</time></trkpt><trkpt lat="41.137445555721754" lon="9.524763904652572"><ele>8.0</ele><time>2026-05-03T15:46:19Z</time></trkpt><trkpt lat="41.13737931426545" lon="9.52484839206526"><ele>8.0</ele><time>2026-05-03T15:46:20Z</time></trkpt><trkpt lat="41.137291083257495" lon="9.524915427509015"><ele>8.0</ele><time>2026-05-03T15:46:21Z</time></trkpt><trkpt lat="41.13719283755596" lon="9.524941721141118"><ele>8.0</ele><time>2026-05-03T15:46:22Z</time></trkpt><trkpt lat="41.13709020204513" lon="9.52492461124763"><ele>7.800000000000001</ele><time>2026-05-03T15:46:23Z</time></trkpt><trkpt lat="41.136993993109456" lon="9.524881819827373"><ele>7.6000000000000005</ele><time>2026-05-03T15:46:24Z</time></trkpt><trkpt lat="41.13690636188711" lon="9.524819220947721"><ele>7.3999999999999995</ele><time>2026-05-03T15:46:25Z</time></trkpt><trkpt lat="41.13682933237863" lon="9.524743415900684"><ele>7.199999999999999</ele><time>2026-05-03T15:46:26Z</time></trkpt><trkpt lat="41.136768502429845" lon="9.524658256633224"><ele>7.0</ele><time>2026-05-03T15:46:27Z</time></trkpt><trkpt lat="41.136721728299605" lon="9.524559676450297"><ele>8.333333333333334</ele><time>2026-05-03T15:46:28Z</time></trkpt><trkpt lat="41.136677338155096" lon="9.52447277672663"><ele>9.666666666666668</ele><time>2026-05-03T15:46:29Z</time></trkpt><trkpt lat="41.13662108306242" lon="9.524405767050027"><ele>11.0</ele><time>2026-05-03T15:46:30Z</time></trkpt><trkpt lat="41.13654979805657" lon="9.524376655073254"><ele>12.333333333333334</ele><time>2026-05-03T15:46:31Z</time></trkpt><trkpt lat="41.13646507020395" lon="9.524378360738414"><ele>13.666666666666666</ele><time>2026-05-03T15:46:32Z</time></trkpt><trkpt lat="41.13637009586126" lon="9.524391889817592"><ele>15.0</ele><time>2026-05-03T15:46:33Z</time></trkpt><trkpt lat="41.13627950336814" lon="9.524426374763745"><ele>14.0</ele><time>2026-05-03T15:46:34Z</time></trkpt><trkpt lat="41.136184141983684" lon="9.524471482111354"><ele>13.0</ele><time>2026-05-03T15:46:35Z</time></trkpt><trkpt lat="41.136097237759316" lon="9.524558438251168"><ele>12.0</ele><time>2026-05-03T15:46:36Z</time></trkpt><trkpt lat="41.136008570276026" lon="9.524647145440907"><ele>11.0</ele><time>2026-05-03T15:46:37Z</time></trkpt><trkpt lat="41.13590964009354" lon="9.52472600871867"><ele>10.0</ele><time>2026-05-03T15:46:38Z</time></trkpt><trkpt lat="41.13582626352848" lon="9.524834528746034"><ele>10.0</ele><time>2026-05-03T15:46:39Z</time></trkpt><trkpt lat="41.13572301035293" lon="9.524903694819669"><ele>10.0</ele><time>2026-05-03T15:46:40Z</time></trkpt><trkpt lat="41.13560617490708" lon="9.524922860873831"><ele>10.0</ele><time>2026-05-03T15:46:41Z</time></trkpt><trkpt lat="41.1354929095585" lon="9.524963015607502"><ele>10.0</ele><time>2026-05-03T15:46:42Z</time></trkpt><trkpt lat="41.13539647914978" lon="9.525053557148416"><ele>10.2</ele><time>2026-05-03T15:46:43Z</time></trkpt><trkpt lat="41.1353074377067" lon="9.525130940114778"><ele>10.4</ele><time>2026-05-03T15:46:44Z</time></trkpt><trkpt lat="41.13522806795732" lon="9.525207628702523"><ele>10.600000000000001</ele><time>2026-05-03T15:46:45Z</time></trkpt><trkpt lat="41.135143487906475" lon="9.52526166716891"><ele>10.8</ele><time>2026-05-03T15:46:46Z</time></trkpt><trkpt lat="41.135078716034705" lon="9.525326585695765"><ele>11.0</ele><time>2026-05-03T15:46:47Z</time></trkpt><trkpt lat="41.13500615064923" lon="9.52531888851295"><ele>11.0</ele><time>2026-05-03T15:46:48Z</time></trkpt><trkpt lat="41.13494286726799" lon="9.525261217868023"><ele>11.0</ele><time>2026-05-03T15:46:49Z</time></trkpt><trkpt lat="41.13487722992638" lon="9.525176343573753"><ele>11.0</ele><time>2026-05-03T15:46:50Z</time></trkpt><trkpt lat="41.13480059127004" lon="9.525094380012778"><ele>11.0</ele><time>2026-05-03T15:46:51Z</time></trkpt><trkpt lat="41.134711686133706" lon="9.525018891054067"><ele>11.0</ele><time>2026-05-03T15:46:52Z</time></trkpt><trkpt lat="41.13462176187904" lon="9.524962692804229"><ele>10.600000000000001</ele><time>2026-05-03T15:46:53Z</time></trkpt><trkpt lat="41.134538792577416" lon="9.524920709893882"><ele>10.200000000000001</ele><time>2026-05-03T15:46:54Z</time></trkpt><trkpt lat="41.13446530526755" lon="9.524879713295114"><ele>9.8</ele><time>2026-05-03T15:46:55Z</time></trkpt><trkpt lat="41.134399622777856" lon="9.524845116449141"><ele>9.4</ele><time>2026-05-03T15:46:56Z</time></trkpt><trkpt lat="41.13430528043725" lon="9.524809584098302"><ele>9.0</ele><time>2026-05-03T15:46:58Z</time></trkpt><trkpt lat="41.134187028275" lon="9.524856903680444"><ele>9.0</ele><time>2026-05-03T15:47:00Z</time></trkpt><trkpt lat="41.13411880988238" lon="9.524923553515997"><ele>9.0</ele><time>2026-05-03T15:47:01Z</time></trkpt><trkpt lat="41.13403854490799" lon="9.52499440922347"><ele>9.0</ele><time>2026-05-03T15:47:02Z</time></trkpt><trkpt lat="41.133943134520486" lon="9.525065426277264"><ele>9.0</ele><time>2026-05-03T15:47:03Z</time></trkpt><trkpt lat="41.133828579157175" lon="9.525138746033676"><ele>9.0</ele><time>2026-05-03T15:47:04Z</time></trkpt><trkpt lat="41.13370384872831" lon="9.52521465694115"><ele>9.5</ele><time>2026-05-03T15:47:05Z</time></trkpt><trkpt lat="41.133579651390555" lon="9.525300149896239"><ele>10.0</ele><time>2026-05-03T15:47:06Z</time></trkpt><trkpt lat="41.133475246340595" lon="9.525428986077342"><ele>10.5</ele><time>2026-05-03T15:47:07Z</time></trkpt><trkpt lat="41.13337413285289" lon="9.525547309277377"><ele>11.0</ele><time>2026-05-03T15:47:08Z</time></trkpt><trkpt lat="41.13327531646819" lon="9.52564896865319"><ele>10.25</ele><time>2026-05-03T15:47:09Z</time></trkpt><trkpt lat="41.13318464759915" lon="9.525800610838548"><ele>9.5</ele><time>2026-05-03T15:47:10Z</time></trkpt><trkpt lat="41.13311050210108" lon="9.525979045779406"><ele>8.75</ele><time>2026-05-03T15:47:11Z</time></trkpt><trkpt lat="41.13301139488086" lon="9.526128154175833"><ele>8.0</ele><time>2026-05-03T15:47:12Z</time></trkpt><trkpt lat="41.1329142827009" lon="9.526274606017457"><ele>8.0</ele><time>2026-05-03T15:47:13Z</time></trkpt><trkpt lat="41.13281275073804" lon="9.526416168285406"><ele>8.0</ele><time>2026-05-03T15:47:14Z</time></trkpt><trkpt lat="41.13271200455424" lon="9.526556298784952"><ele>8.0</ele><time>2026-05-03T15:47:15Z</time></trkpt><trkpt lat="41.13261245411978" lon="9.526696223702515"><ele>8.0</ele><time>2026-05-03T15:47:16Z</time></trkpt><trkpt lat="41.13251182585757" lon="9.526838945856856"><ele>8.0</ele><time>2026-05-03T15:47:17Z</time></trkpt><trkpt lat="41.132411810682704" lon="9.52698443508677"><ele>8.0</ele><time>2026-05-03T15:47:18Z</time></trkpt><trkpt lat="41.13231176126092" lon="9.527129795952998"><ele>8.0</ele><time>2026-05-03T15:47:19Z</time></trkpt><trkpt lat="41.13221077815918" lon="9.527272460637777"><ele>8.0</ele><time>2026-05-03T15:47:20Z</time></trkpt><trkpt lat="41.13210930018576" lon="9.527408344306323"><ele>9.25</ele><time>2026-05-03T15:47:21Z</time></trkpt><trkpt lat="41.13200549230818" lon="9.52754080500859"><ele>10.5</ele><time>2026-05-03T15:47:22Z</time></trkpt><trkpt lat="41.131897398873676" lon="9.527669694408846"><ele>11.75</ele><time>2026-05-03T15:47:23Z</time></trkpt><trkpt lat="41.13178642713502" lon="9.527791582600752"><ele>13.0</ele><time>2026-05-03T15:47:24Z</time></trkpt><trkpt lat="41.13167088259245" lon="9.527910483011569"><ele>17.0</ele><time>2026-05-03T15:47:25Z</time></trkpt><trkpt lat="41.13155242303608" lon="9.528024202311395"><ele>21.0</ele><time>2026-05-03T15:47:26Z</time></trkpt><trkpt lat="41.13143304773419" lon="9.528136537064489"><ele>25.0</ele><time>2026-05-03T15:47:27Z</time></trkpt><trkpt lat="41.13131234659089" lon="9.528248802448992"><ele>29.0</ele><time>2026-05-03T15:47:28Z</time></trkpt><trkpt lat="41.13119171168347" lon="9.528361464851217"><ele>29.0</ele><time>2026-05-03T15:47:29Z</time></trkpt><trkpt lat="41.13107100273033" lon="9.528477386942257"><ele>29.0</ele><time>2026-05-03T15:47:30Z</time></trkpt><trkpt lat="41.13095029029475" lon="9.52859460070779"><ele>29.0</ele><time>2026-05-03T15:47:31Z</time></trkpt><trkpt lat="41.13082709850181" lon="9.528709226869394"><ele>29.0</ele><time>2026-05-03T15:47:32Z</time></trkpt><trkpt lat="41.13070538697087" lon="9.528829005587173"><ele>29.666666666666664</ele><time>2026-05-03T15:47:33Z</time></trkpt><trkpt lat="41.13058134259461" lon="9.528943564285452"><ele>30.333333333333336</ele><time>2026-05-03T15:47:34Z</time></trkpt><trkpt lat="41.130456261340925" lon="9.529055673189221"><ele>31.0</ele><time>2026-05-03T15:47:35Z</time></trkpt><trkpt lat="41.13032950804823" lon="9.52916676440209"><ele>31.0</ele><time>2026-05-03T15:47:36Z</time></trkpt><trkpt lat="41.13020099208518" lon="9.529271653517368"><ele>31.0</ele><time>2026-05-03T15:47:37Z</time></trkpt><trkpt lat="41.13007008251875" lon="9.529375168479946"><ele>31.0</ele><time>2026-05-03T15:47:38Z</time></trkpt><trkpt lat="41.12993899513091" lon="9.529475655138759"><ele>31.25</ele><time>2026-05-03T15:47:39Z</time></trkpt><trkpt lat="41.12980790408093" lon="9.52957500304935"><ele>31.5</ele><time>2026-05-03T15:47:40Z</time></trkpt><trkpt lat="41.12967949767525" lon="9.529672014368074"><ele>31.75</ele><time>2026-05-03T15:47:41Z</time></trkpt><trkpt lat="41.12954974551037" lon="9.529769458503072"><ele>32.0</ele><time>2026-05-03T15:47:42Z</time></trkpt><trkpt lat="41.12942195994764" lon="9.529868896789365"><ele>32.0</ele><time>2026-05-03T15:47:43Z</time></trkpt><trkpt lat="41.12929422428806" lon="9.52996604204313"><ele>32.0</ele><time>2026-05-03T15:47:44Z</time></trkpt><trkpt lat="41.12916666071913" lon="9.530063244220317"><ele>32.0</ele><time>2026-05-03T15:47:45Z</time></trkpt><trkpt lat="41.12903689378298" lon="9.530159478989821"><ele>32.0</ele><time>2026-05-03T15:47:46Z</time></trkpt><trkpt lat="41.12890775025728" lon="9.530260849669506"><ele>34.0</ele><time>2026-05-03T15:47:47Z</time></trkpt><trkpt lat="41.12877614567807" lon="9.530366733373985"><ele>36.0</ele><time>2026-05-03T15:47:48Z</time></trkpt><trkpt lat="41.12864341232652" lon="9.530479291431858"><ele>38.0</ele><time>2026-05-03T15:47:49Z</time></trkpt><trkpt lat="41.128513343167064" lon="9.530599539263621"><ele>38.0</ele><time>2026-05-03T15:47:50Z</time></trkpt><trkpt lat="41.128381112570956" lon="9.530722788862185"><ele>38.0</ele><time>2026-05-03T15:47:51Z</time></trkpt><trkpt lat="41.128247738389646" lon="9.530846931056775"><ele>38.0</ele><time>2026-05-03T15:47:52Z</time></trkpt><trkpt lat="41.12811394137869" lon="9.530970715829707"><ele>41.33333333333333</ele><time>2026-05-03T15:47:53Z</time></trkpt><trkpt lat="41.12798174947507" lon="9.531094266981889"><ele>44.666666666666664</ele><time>2026-05-03T15:47:54Z</time></trkpt><trkpt lat="41.12785225693698" lon="9.531219877238712"><ele>48.0</ele><time>2026-05-03T15:47:55Z</time></trkpt><trkpt lat="41.127723703993425" lon="9.53134149563888"><ele>48.0</ele><time>2026-05-03T15:47:56Z</time></trkpt><trkpt lat="41.12759669765774" lon="9.531466351153732"><ele>48.0</ele><time>2026-05-03T15:47:57Z</time></trkpt><trkpt lat="41.12747096197665" lon="9.531588004120009"><ele>48.0</ele><time>2026-05-03T15:47:58Z</time></trkpt><trkpt lat="41.12734663816745" lon="9.531708225671727"><ele>47.0</ele><time>2026-05-03T15:47:59Z</time></trkpt><trkpt lat="41.12722007118926" lon="9.53182800255378"><ele>46.0</ele><time>2026-05-03T15:48:00Z</time></trkpt><trkpt lat="41.127092747206795" lon="9.531948052935078"><ele>45.0</ele><time>2026-05-03T15:48:01Z</time></trkpt><trkpt lat="41.12696212083991" lon="9.53206969950955"><ele>42.666666666666664</ele><time>2026-05-03T15:48:02Z</time></trkpt><trkpt lat="41.12683153917898" lon="9.532195643000632"><ele>40.33333333333333</ele><time>2026-05-03T15:48:03Z</time></trkpt><trkpt lat="41.12669826849581" lon="9.532325133995881"><ele>38.0</ele><time>2026-05-03T15:48:04Z</time></trkpt><trkpt lat="41.126565516661955" lon="9.532460870055058"><ele>38.0</ele><time>2026-05-03T15:48:05Z</time></trkpt><trkpt lat="41.12643353948961" lon="9.532596925212307"><ele>38.0</ele><time>2026-05-03T15:48:06Z</time></trkpt><trkpt lat="41.12630102233231" lon="9.53273815469009"><ele>38.0</ele><time>2026-05-03T15:48:07Z</time></trkpt><trkpt lat="41.12616589708126" lon="9.532885526563378"><ele>34.33333333333333</ele><time>2026-05-03T15:48:08Z</time></trkpt><trkpt lat="41.12603442864946" lon="9.533039004334722"><ele>30.666666666666664</ele><time>2026-05-03T15:48:09Z</time></trkpt><trkpt lat="41.12590089818068" lon="9.53319293533571"><ele>27.0</ele><time>2026-05-03T15:48:10Z</time></trkpt><trkpt lat="41.12576437686787" lon="9.533347360467426"><ele>28.333333333333336</ele><time>2026-05-03T15:48:11Z</time></trkpt><trkpt lat="41.125626515395375" lon="9.53350991630775"><ele>29.666666666666668</ele><time>2026-05-03T15:48:12Z</time></trkpt><trkpt lat="41.12548544430256" lon="9.53367097415545"><ele>31.0</ele><time>2026-05-03T15:48:13Z</time></trkpt><trkpt lat="41.12534377829082" lon="9.53383544804367"><ele>32.333333333333336</ele><time>2026-05-03T15:48:14Z</time></trkpt><trkpt lat="41.12519895976794" lon="9.534002841055361"><ele>33.666666666666664</ele><time>2026-05-03T15:48:15Z</time></trkpt><trkpt lat="41.12505047347785" lon="9.534167963518229"><ele>35.0</ele><time>2026-05-03T15:48:16Z</time></trkpt><trkpt lat="41.12489598021932" lon="9.534325920630243"><ele>35.0</ele><time>2026-05-03T15:48:17Z</time></trkpt><trkpt lat="41.12473373072013" lon="9.534465730101934"><ele>35.0</ele><time>2026-05-03T15:48:18Z</time></trkpt><trkpt lat="41.12456854856532" lon="9.534595064844753"><ele>35.0</ele><time>2026-05-03T15:48:19Z</time></trkpt><trkpt lat="41.124403352152534" lon="9.534715335632317"><ele>29.666666666666664</ele><time>2026-05-03T15:48:20Z</time></trkpt><trkpt lat="41.12423568627489" lon="9.53482726026511"><ele>24.333333333333332</ele><time>2026-05-03T15:48:21Z</time></trkpt><trkpt lat="41.12407189910137" lon="9.534938694881783"><ele>19.0</ele><time>2026-05-03T15:48:22Z</time></trkpt><trkpt lat="41.123907148251085" lon="9.535045114620418"><ele>19.0</ele><time>2026-05-03T15:48:23Z</time></trkpt><trkpt lat="41.12374456099938" lon="9.535152814325352"><ele>19.0</ele><time>2026-05-03T15:48:24Z</time></trkpt><trkpt lat="41.12358785411709" lon="9.53526362870057"><ele>19.0</ele><time>2026-05-03T15:48:25Z</time></trkpt><trkpt lat="41.12343711649579" lon="9.535368534776916"><ele>16.666666666666664</ele><time>2026-05-03T15:48:26Z</time></trkpt><trkpt lat="41.12329191529167" lon="9.535468560072696"><ele>14.333333333333332</ele><time>2026-05-03T15:48:27Z</time></trkpt><trkpt lat="41.123145225724734" lon="9.535565378564453"><ele>12.0</ele><time>2026-05-03T15:48:28Z</time></trkpt><trkpt lat="41.12300566624309" lon="9.53565863949834"><ele>12.0</ele><time>2026-05-03T15:48:29Z</time></trkpt><trkpt lat="41.122864092781384" lon="9.535749891733003"><ele>12.0</ele><time>2026-05-03T15:48:30Z</time></trkpt><trkpt lat="41.12271969440819" lon="9.53582699473222"><ele>12.0</ele><time>2026-05-03T15:48:31Z</time></trkpt><trkpt lat="41.12257391579197" lon="9.535895281235781"><ele>12.0</ele><time>2026-05-03T15:48:32Z</time></trkpt><trkpt lat="41.12242013072753" lon="9.535938723332253"><ele>12.0</ele><time>2026-05-03T15:48:33Z</time></trkpt><trkpt lat="41.122262246013484" lon="9.535954744116724"><ele>12.0</ele><time>2026-05-03T15:48:34Z</time></trkpt><trkpt lat="41.12210490958065" lon="9.53594206492336"><ele>12.0</ele><time>2026-05-03T15:48:35Z</time></trkpt><trkpt lat="41.12194727541564" lon="9.53590412258252"><ele>12.0</ele><time>2026-05-03T15:48:36Z</time></trkpt><trkpt lat="41.1217907834038" lon="9.535843794661794"><ele>12.0</ele><time>2026-05-03T15:48:37Z</time></trkpt><trkpt lat="41.12163431337771" lon="9.535773427592286"><ele>10.333333333333334</ele><time>2026-05-03T15:48:38Z</time></trkpt><trkpt lat="41.12147688182529" lon="9.535697763947862"><ele>8.666666666666668</ele><time>2026-05-03T15:48:39Z</time></trkpt><trkpt lat="41.12131874047152" lon="9.535623298674496"><ele>7.0</ele><time>2026-05-03T15:48:40Z</time></trkpt><trkpt lat="41.12116128365839" lon="9.535548470607386"><ele>7.0</ele><time>2026-05-03T15:48:41Z</time></trkpt><trkpt lat="41.12100660107808" lon="9.535476019578915"><ele>7.0</ele><time>2026-05-03T15:48:42Z</time></trkpt><trkpt lat="41.12086167735737" lon="9.535406436552963"><ele>7.0</ele><time>2026-05-03T15:48:43Z</time></trkpt><trkpt lat="41.12072692757208" lon="9.535340889873476"><ele>8.75</ele><time>2026-05-03T15:48:44Z</time></trkpt><trkpt lat="41.120599108558785" lon="9.535278672289865"><ele>10.5</ele><time>2026-05-03T15:48:45Z</time></trkpt><trkpt lat="41.120480487112665" lon="9.535221302391813"><ele>12.25</ele><time>2026-05-03T15:48:46Z</time></trkpt><trkpt lat="41.120366184572774" lon="9.535166434901017"><ele>14.0</ele><time>2026-05-03T15:48:47Z</time></trkpt><trkpt lat="41.12025532690363" lon="9.535113810150207"><ele>14.0</ele><time>2026-05-03T15:48:48Z</time></trkpt><trkpt lat="41.1201528540666" lon="9.535064653245813"><ele>14.0</ele><time>2026-05-03T15:48:49Z</time></trkpt><trkpt lat="41.12004756440764" lon="9.535014460447883"><ele>14.0</ele><time>2026-05-03T15:48:50Z</time></trkpt><trkpt lat="41.119939003135016" lon="9.534961460808812"><ele>14.0</ele><time>2026-05-03T15:48:51Z</time></trkpt><trkpt lat="41.11982821520624" lon="9.534907456556196"><ele>17.5</ele><time>2026-05-03T15:48:52Z</time></trkpt><trkpt lat="41.11971404055291" lon="9.534853230663918"><ele>21.0</ele><time>2026-05-03T15:48:53Z</time></trkpt><trkpt lat="41.119601495769835" lon="9.534800708547653"><ele>24.5</ele><time>2026-05-03T15:48:54Z</time></trkpt><trkpt lat="41.119489721530314" lon="9.53474821491432"><ele>28.0</ele><time>2026-05-03T15:48:55Z</time></trkpt><trkpt lat="41.119380291789334" lon="9.534699206201982"><ele>28.0</ele><time>2026-05-03T15:48:56Z</time></trkpt><trkpt lat="41.11927358781659" lon="9.534653144799979"><ele>28.0</ele><time>2026-05-03T15:48:57Z</time></trkpt><trkpt lat="41.119163996079095" lon="9.53462381186189"><ele>28.0</ele><time>2026-05-03T15:48:58Z</time></trkpt><trkpt lat="41.11904864720867" lon="9.534617624617468"><ele>28.0</ele><time>2026-05-03T15:48:59Z</time></trkpt><trkpt lat="41.118930797463655" lon="9.534634054293766"><ele>28.5</ele><time>2026-05-03T15:49:00Z</time></trkpt><trkpt lat="41.118808162349936" lon="9.534676296146932"><ele>29.0</ele><time>2026-05-03T15:49:01Z</time></trkpt><trkpt lat="41.11868447505039" lon="9.534743281972005"><ele>29.5</ele><time>2026-05-03T15:49:02Z</time></trkpt><trkpt lat="41.118563529785504" lon="9.534828389146346"><ele>30.0</ele><time>2026-05-03T15:49:03Z</time></trkpt><trkpt lat="41.118442283027136" lon="9.534915956903761"><ele>30.0</ele><time>2026-05-03T15:49:04Z</time></trkpt><trkpt lat="41.11832165705466" lon="9.535011941704026"><ele>30.0</ele><time>2026-05-03T15:49:05Z</time></trkpt><trkpt lat="41.118200117986106" lon="9.535107168304608"><ele>30.0</ele><time>2026-05-03T15:49:06Z</time></trkpt><trkpt lat="41.11808545519499" lon="9.535196966870469"><ele>30.0</ele><time>2026-05-03T15:49:07Z</time></trkpt><trkpt lat="41.117980888108725" lon="9.535277242211931"><ele>31.0</ele><time>2026-05-03T15:49:08Z</time></trkpt><trkpt lat="41.117884016241106" lon="9.53534921600763"><ele>32.0</ele><time>2026-05-03T15:49:09Z</time></trkpt><trkpt lat="41.117790131879055" lon="9.535417666434538"><ele>33.0</ele><time>2026-05-03T15:49:10Z</time></trkpt><trkpt lat="41.11769509140808" lon="9.535484268152803"><ele>34.0</ele><time>2026-05-03T15:49:11Z</time></trkpt><trkpt lat="41.11760010508889" lon="9.535541040637062"><ele>35.0</ele><time>2026-05-03T15:49:12Z</time></trkpt><trkpt lat="41.117499538605976" lon="9.535588292091061"><ele>31.5</ele><time>2026-05-03T15:49:13Z</time></trkpt><trkpt lat="41.11739326229032" lon="9.53562676237369"><ele>28.0</ele><time>2026-05-03T15:49:14Z</time></trkpt><trkpt lat="41.11728696017753" lon="9.535646219981178"><ele>24.5</ele><time>2026-05-03T15:49:15Z</time></trkpt><trkpt lat="41.11716974527309" lon="9.535658986358344"><ele>21.0</ele><time>2026-05-03T15:49:16Z</time></trkpt><trkpt lat="41.11704621490639" lon="9.53564512601771"><ele>21.0</ele><time>2026-05-03T15:49:17Z</time></trkpt><trkpt lat="41.11692675009323" lon="9.535609246046711"><ele>21.0</ele><time>2026-05-03T15:49:18Z</time></trkpt><trkpt lat="41.116796472249504" lon="9.535570529307444"><ele>21.0</ele><time>2026-05-03T15:49:19Z</time></trkpt><trkpt lat="41.11666104461168" lon="9.535532414473634"><ele>21.0</ele><time>2026-05-03T15:49:20Z</time></trkpt><trkpt lat="41.116519578594755" lon="9.535514081545317"><ele>22.333333333333336</ele><time>2026-05-03T15:49:21Z</time></trkpt><trkpt lat="41.11635056120547" lon="9.535504312491717"><ele>23.666666666666668</ele><time>2026-05-03T15:49:22Z</time></trkpt><trkpt lat="41.11624123815519" lon="9.53556225026579"><ele>25.0</ele><time>2026-05-03T15:49:23Z</time></trkpt><trkpt lat="41.11604723966912" lon="9.535540128076152"><ele>25.0</ele><time>2026-05-03T15:49:24Z</time></trkpt><trkpt lat="41.11585205023691" lon="9.535503684616316"><ele>25.0</ele><time>2026-05-03T15:49:25Z</time></trkpt><trkpt lat="41.11565194148537" lon="9.535474737460145"><ele>25.0</ele><time>2026-05-03T15:49:26Z</time></trkpt><trkpt lat="41.11544762728097" lon="9.53545154108517"><ele>28.666666666666668</ele><time>2026-05-03T15:49:27Z</time></trkpt><trkpt lat="41.11524387524686" lon="9.535427034957408"><ele>32.333333333333336</ele><time>2026-05-03T15:49:28Z</time></trkpt><trkpt lat="41.11504368670057" lon="9.535401902374327"><ele>36.0</ele><time>2026-05-03T15:49:29Z</time></trkpt><trkpt lat="41.11485236354921" lon="9.535382726655007"><ele>38.333333333333336</ele><time>2026-05-03T15:49:30Z</time></trkpt><trkpt lat="41.11466779415379" lon="9.53535541779679"><ele>40.66666666666667</ele><time>2026-05-03T15:49:31Z</time></trkpt><trkpt lat="41.114490331961676" lon="9.535325648308294"><ele>43.0</ele><time>2026-05-03T15:49:32Z</time></trkpt><trkpt lat="41.11431964737548" lon="9.535281654672705"><ele>43.0</ele><time>2026-05-03T15:49:33Z</time></trkpt><trkpt lat="41.114163798822105" lon="9.535192703120174"><ele>43.0</ele><time>2026-05-03T15:49:34Z</time></trkpt><trkpt lat="41.11400274059135" lon="9.535106956945176"><ele>43.0</ele><time>2026-05-03T15:49:35Z</time></trkpt><trkpt lat="41.113837891155576" lon="9.5350165343225"><ele>39.0</ele><time>2026-05-03T15:49:36Z</time></trkpt><trkpt lat="41.11367124005575" lon="9.534925210915882"><ele>35.0</ele><time>2026-05-03T15:49:37Z</time></trkpt><trkpt lat="41.11350137930854" lon="9.534832335507229"><ele>31.0</ele><time>2026-05-03T15:49:38Z</time></trkpt><trkpt lat="41.11333128391235" lon="9.534738942756709"><ele>31.666666666666668</ele><time>2026-05-03T15:49:39Z</time></trkpt><trkpt lat="41.11315449564734" lon="9.534663639308173"><ele>32.333333333333336</ele><time>2026-05-03T15:49:40Z</time></trkpt><trkpt lat="41.11298989293458" lon="9.534550951992047"><ele>33.0</ele><time>2026-05-03T15:49:41Z</time></trkpt><trkpt lat="41.11281414592853" lon="9.53447510086864"><ele>33.0</ele><time>2026-05-03T15:49:42Z</time></trkpt><trkpt lat="41.11265113981607" lon="9.534369871658539"><ele>33.0</ele><time>2026-05-03T15:49:43Z</time></trkpt><trkpt lat="41.112491475974736" lon="9.534285290913424"><ele>33.0</ele><time>2026-05-03T15:49:44Z</time></trkpt><trkpt lat="41.11233515834628" lon="9.534194952479302"><ele>31.333333333333336</ele><time>2026-05-03T15:49:45Z</time></trkpt><trkpt lat="41.11217983317336" lon="9.53411606644338"><ele>29.666666666666668</ele><time>2026-05-03T15:49:45.999Z</time></trkpt><trkpt lat="41.11202839785908" lon="9.53404791535394"><ele>28.0</ele><time>2026-05-03T15:49:46.999Z</time></trkpt><trkpt lat="41.11188193391754" lon="9.534007259742287"><ele>28.0</ele><time>2026-05-03T15:49:47.999Z</time></trkpt><trkpt lat="41.11172994967406" lon="9.53400372216882"><ele>28.0</ele><time>2026-05-03T15:49:48.999Z</time></trkpt><trkpt lat="41.111585142875164" lon="9.534031703002734"><ele>28.0</ele><time>2026-05-03T15:49:49.999Z</time></trkpt><trkpt lat="41.11144646475166" lon="9.53409010844965"><ele>28.0</ele><time>2026-05-03T15:49:50.999Z</time></trkpt><trkpt lat="41.111309953503316" lon="9.534157282114698"><ele>26.0</ele><time>2026-05-03T15:49:51.999Z</time></trkpt><trkpt lat="41.111171350069526" lon="9.534222761896034"><ele>24.0</ele><time>2026-05-03T15:49:52.999Z</time></trkpt><trkpt lat="41.1110272696441" lon="9.534278214005987"><ele>22.0</ele><time>2026-05-03T15:49:54Z</time></trkpt><trkpt lat="41.11087475080985" lon="9.534315515561092"><ele>20.333333333333332</ele><time>2026-05-03T15:49:55Z</time></trkpt><trkpt lat="41.11071607752345" lon="9.534322835957754"><ele>18.666666666666668</ele><time>2026-05-03T15:49:56Z</time></trkpt><trkpt lat="41.110555086746224" lon="9.534311924953336"><ele>17.0</ele><time>2026-05-03T15:49:57Z</time></trkpt><trkpt lat="41.1103883539527" lon="9.534295681310256"><ele>17.0</ele><time>2026-05-03T15:49:58Z</time></trkpt><trkpt lat="41.11022063424598" lon="9.534272994249717"><ele>17.0</ele><time>2026-05-03T15:49:59Z</time></trkpt><trkpt lat="41.11005706134471" lon="9.534208619691103"><ele>17.0</ele><time>2026-05-03T15:50:00Z</time></trkpt><trkpt lat="41.10990119964521" lon="9.534126683427983"><ele>18.666666666666668</ele><time>2026-05-03T15:50:01Z</time></trkpt><trkpt lat="41.10975360472729" lon="9.53402091524869"><ele>20.333333333333332</ele><time>2026-05-03T15:50:02Z</time></trkpt><trkpt lat="41.10960008192274" lon="9.533930022096985"><ele>22.0</ele><time>2026-05-03T15:50:03Z</time></trkpt><trkpt lat="41.10945365253075" lon="9.533822609091015"><ele>22.0</ele><time>2026-05-03T15:50:04Z</time></trkpt><trkpt lat="41.10930694096439" lon="9.533721059669766"><ele>22.0</ele><time>2026-05-03T15:50:05Z</time></trkpt><trkpt lat="41.10916137824281" lon="9.533622431296653"><ele>22.0</ele><time>2026-05-03T15:50:06Z</time></trkpt><trkpt lat="41.10901729836411" lon="9.533525543629144"><ele>22.333333333333332</ele><time>2026-05-03T15:50:07Z</time></trkpt><trkpt lat="41.108885953067926" lon="9.533407131595906"><ele>22.666666666666668</ele><time>2026-05-03T15:50:08Z</time></trkpt><trkpt lat="41.108756032534835" lon="9.533308700199097"><ele>23.0</ele><time>2026-05-03T15:50:09Z</time></trkpt><trkpt lat="41.10863977980337" lon="9.533197368566471"><ele>23.0</ele><time>2026-05-03T15:50:10Z</time></trkpt><trkpt lat="41.108524544995355" lon="9.53308487171582"><ele>23.0</ele><time>2026-05-03T15:50:11Z</time></trkpt><trkpt lat="41.108409044951316" lon="9.532968442514903"><ele>23.0</ele><time>2026-05-03T15:50:12Z</time></trkpt><trkpt lat="41.10828241728147" lon="9.53283798092103"><ele>23.0</ele><time>2026-05-03T15:50:13Z</time></trkpt><trkpt lat="41.10814310070145" lon="9.53269696630092"><ele>25.333333333333336</ele><time>2026-05-03T15:50:14Z</time></trkpt><trkpt lat="41.10799210219219" lon="9.532578920903072"><ele>27.666666666666668</ele><time>2026-05-03T15:50:15Z</time></trkpt><trkpt lat="41.10785383809954" lon="9.532446884818711"><ele>30.0</ele><time>2026-05-03T15:50:16Z</time></trkpt><trkpt lat="41.10771732123531" lon="9.532324680454513"><ele>30.0</ele><time>2026-05-03T15:50:17Z</time></trkpt><trkpt lat="41.107582463841325" lon="9.532209525785843"><ele>30.0</ele><time>2026-05-03T15:50:18Z</time></trkpt><trkpt lat="41.10745228564504" lon="9.53210055172643"><ele>30.0</ele><time>2026-05-03T15:50:19Z</time></trkpt><trkpt lat="41.10732764946283" lon="9.53199349961486"><ele>31.666666666666664</ele><time>2026-05-03T15:50:20Z</time></trkpt><trkpt lat="41.10720257182467" lon="9.531881540078139"><ele>33.33333333333333</ele><time>2026-05-03T15:50:21Z</time></trkpt><trkpt lat="41.10707782389628" lon="9.531764434135834"><ele>35.0</ele><time>2026-05-03T15:50:22Z</time></trkpt><trkpt lat="41.10695448520309" lon="9.5316451908639"><ele>35.0</ele><time>2026-05-03T15:50:23Z</time></trkpt><trkpt lat="41.10683398972808" lon="9.531518538787196"><ele>35.0</ele><time>2026-05-03T15:50:24Z</time></trkpt><trkpt lat="41.10671448224838" lon="9.531389506313758"><ele>35.0</ele><time>2026-05-03T15:50:25Z</time></trkpt><trkpt lat="41.10659788927256" lon="9.53126022195693"><ele>36.0</ele><time>2026-05-03T15:50:26Z</time></trkpt><trkpt lat="41.10647948937727" lon="9.53113410666793"><ele>37.0</ele><time>2026-05-03T15:50:27Z</time></trkpt><trkpt lat="41.106352737955014" lon="9.53100178891089"><ele>38.0</ele><time>2026-05-03T15:50:28Z</time></trkpt><trkpt lat="41.10624170471352" lon="9.530851265901704"><ele>38.0</ele><time>2026-05-03T15:50:29Z</time></trkpt><trkpt lat="41.106122138001936" lon="9.530719413536856"><ele>38.0</ele><time>2026-05-03T15:50:30Z</time></trkpt><trkpt lat="41.1059993158693" lon="9.530583594624426"><ele>38.0</ele><time>2026-05-03T15:50:31Z</time></trkpt><trkpt lat="41.10587626122445" lon="9.530442462705016"><ele>40.0</ele><time>2026-05-03T15:50:32Z</time></trkpt><trkpt lat="41.105749367173445" lon="9.530284894667075"><ele>42.0</ele><time>2026-05-03T15:50:33Z</time></trkpt><trkpt lat="41.105628287153294" lon="9.530110420244844"><ele>44.0</ele><time>2026-05-03T15:50:34Z</time></trkpt><trkpt lat="41.10551138453248" lon="9.5299229039985"><ele>44.0</ele><time>2026-05-03T15:50:35Z</time></trkpt><trkpt lat="41.105392749343665" lon="9.529738964186143"><ele>44.0</ele><time>2026-05-03T15:50:36Z</time></trkpt><trkpt lat="41.10527886459571" lon="9.529558389509477"><ele>44.0</ele><time>2026-05-03T15:50:37Z</time></trkpt><trkpt lat="41.10516953569985" lon="9.529382930215084"><ele>45.666666666666664</ele><time>2026-05-03T15:50:38Z</time></trkpt><trkpt lat="41.105061377509195" lon="9.529210873233477"><ele>47.33333333333333</ele><time>2026-05-03T15:50:39Z</time></trkpt><trkpt lat="41.104957699760284" lon="9.52904417203175"><ele>49.0</ele><time>2026-05-03T15:50:40Z</time></trkpt><trkpt lat="41.10485770865804" lon="9.528880357414739"><ele>51.666666666666664</ele><time>2026-05-03T15:50:41Z</time></trkpt><trkpt lat="41.104758899463754" lon="9.528720630130998"><ele>54.33333333333333</ele><time>2026-05-03T15:50:42Z</time></trkpt><trkpt lat="41.10466614328207" lon="9.528561158907882"><ele>57.0</ele><time>2026-05-03T15:50:43Z</time></trkpt><trkpt lat="41.104573287707986" lon="9.528404398806344"><ele>57.0</ele><time>2026-05-03T15:50:44Z</time></trkpt><trkpt lat="41.10447789582258" lon="9.528249384767308"><ele>57.0</ele><time>2026-05-03T15:50:45Z</time></trkpt><trkpt lat="41.104372376323354" lon="9.528096374966747"><ele>57.0</ele><time>2026-05-03T15:50:46Z</time></trkpt><trkpt lat="41.104253165206046" lon="9.527950347106387"><ele>62.0</ele><time>2026-05-03T15:50:47Z</time></trkpt><trkpt lat="41.104135170902865" lon="9.527819332871488"><ele>67.0</ele><time>2026-05-03T15:50:48Z</time></trkpt><trkpt lat="41.10400373898603" lon="9.527703790906548"><ele>72.0</ele><time>2026-05-03T15:50:49Z</time></trkpt><trkpt lat="41.103864465989275" lon="9.527596241774674"><ele>72.0</ele><time>2026-05-03T15:50:50Z</time></trkpt><trkpt lat="41.10373616354353" lon="9.527469634884618"><ele>72.0</ele><time>2026-05-03T15:50:51Z</time></trkpt><trkpt lat="41.103598639448975" lon="9.527354742556899"><ele>72.0</ele><time>2026-05-03T15:50:52Z</time></trkpt><trkpt lat="41.103453557242034" lon="9.527257671885076"><ele>72.0</ele><time>2026-05-03T15:50:53Z</time></trkpt><trkpt lat="41.103331820171825" lon="9.527138525881528"><ele>72.0</ele><time>2026-05-03T15:50:54Z</time></trkpt><trkpt lat="41.103201360120224" lon="9.5270289954618"><ele>72.0</ele><time>2026-05-03T15:50:55Z</time></trkpt><trkpt lat="41.10306950314724" lon="9.526922017938077"><ele>76.0</ele><time>2026-05-03T15:50:56Z</time></trkpt><trkpt lat="41.102930948538074" lon="9.526802474419455"><ele>80.0</ele><time>2026-05-03T15:50:57Z</time></trkpt><trkpt lat="41.10279903257449" lon="9.526672898663776"><ele>84.0</ele><time>2026-05-03T15:50:58Z</time></trkpt><trkpt lat="41.10268147225715" lon="9.52651793660452"><ele>84.0</ele><time>2026-05-03T15:50:59Z</time></trkpt><trkpt lat="41.10257579276505" lon="9.526352577463038"><ele>84.0</ele><time>2026-05-03T15:51:00Z</time></trkpt><trkpt lat="41.102474645200715" lon="9.526185933820168"><ele>84.0</ele><time>2026-05-03T15:51:01Z</time></trkpt><trkpt lat="41.102377539897425" lon="9.52602972921802"><ele>89.33333333333334</ele><time>2026-05-03T15:51:02Z</time></trkpt><trkpt lat="41.10227334996358" lon="9.525860819054726"><ele>94.66666666666667</ele><time>2026-05-03T15:51:03Z</time></trkpt><trkpt lat="41.10217059975232" lon="9.525702105166106"><ele>100.0</ele><time>2026-05-03T15:51:04Z</time></trkpt><trkpt lat="41.10206802530367" lon="9.525544507402573"><ele>100.0</ele><time>2026-05-03T15:51:05Z</time></trkpt><trkpt lat="41.10197015935326" lon="9.525389364608076"><ele>100.0</ele><time>2026-05-03T15:51:06Z</time></trkpt><trkpt lat="41.10187250324304" lon="9.525232491366607"><ele>100.0</ele><time>2026-05-03T15:51:07Z</time></trkpt><trkpt lat="41.101768943696506" lon="9.525069858577629"><ele>100.0</ele><time>2026-05-03T15:51:08Z</time></trkpt><trkpt lat="41.10167466804155" lon="9.524924192187154"><ele>100.0</ele><time>2026-05-03T15:51:09Z</time></trkpt><trkpt lat="41.10157888591324" lon="9.524770606149284"><ele>100.0</ele><time>2026-05-03T15:51:10Z</time></trkpt><trkpt lat="41.10148478293575" lon="9.524620636822114"><ele>100.0</ele><time>2026-05-03T15:51:11Z</time></trkpt><trkpt lat="41.101392213510124" lon="9.524474726385959"><ele>101.5</ele><time>2026-05-03T15:51:12Z</time></trkpt><trkpt lat="41.10130305724105" lon="9.52433521660639"><ele>103.0</ele><time>2026-05-03T15:51:13Z</time></trkpt><trkpt lat="41.101218767779095" lon="9.524202053858332"><ele>104.5</ele><time>2026-05-03T15:51:14Z</time></trkpt><trkpt lat="41.10113740029236" lon="9.524072270418566"><ele>106.0</ele><time>2026-05-03T15:51:15Z</time></trkpt><trkpt lat="41.101060292920096" lon="9.523939878442011"><ele>106.0</ele><time>2026-05-03T15:51:16Z</time></trkpt><trkpt lat="41.10098180149672" lon="9.523797743328329"><ele>106.0</ele><time>2026-05-03T15:51:17Z</time></trkpt><trkpt lat="41.10090144824599" lon="9.523650526389943"><ele>106.0</ele><time>2026-05-03T15:51:18Z</time></trkpt><trkpt lat="41.10081827071492" lon="9.52349151057324"><ele>106.0</ele><time>2026-05-03T15:51:19Z</time></trkpt><trkpt lat="41.1007322084785" lon="9.523325266992995"><ele>106.66666666666667</ele><time>2026-05-03T15:51:19.999Z</time></trkpt><trkpt lat="41.10064583808939" lon="9.52315052722708"><ele>107.33333333333334</ele><time>2026-05-03T15:51:20.999Z</time></trkpt><trkpt lat="41.10056060818446" lon="9.522971213223315"><ele>108.0</ele><time>2026-05-03T15:51:21.999Z</time></trkpt><trkpt lat="41.10048523476855" lon="9.52279844031134"><ele>108.0</ele><time>2026-05-03T15:51:22.999Z</time></trkpt><trkpt lat="41.10044284368088" lon="9.522639519457824"><ele>108.0</ele><time>2026-05-03T15:51:23.999Z</time></trkpt><trkpt lat="41.10042569777897" lon="9.522482374392554"><ele>108.0</ele><time>2026-05-03T15:51:24.999Z</time></trkpt><trkpt lat="41.100428779775" lon="9.522324354590916"><ele>108.0</ele><time>2026-05-03T15:51:25.999Z</time></trkpt><trkpt lat="41.10043264368827" lon="9.522166770604544"><ele>108.2</ele><time>2026-05-03T15:51:26.999Z</time></trkpt><trkpt lat="41.1004210870027" lon="9.52202487442599"><ele>108.4</ele><time>2026-05-03T15:51:27.999Z</time></trkpt><trkpt lat="41.10038502104209" lon="9.521899146552652"><ele>108.60000000000001</ele><time>2026-05-03T15:51:28.999Z</time></trkpt><trkpt lat="41.100322226802305" lon="9.521792083942946"><ele>108.80000000000001</ele><time>2026-05-03T15:51:29.999Z</time></trkpt><trkpt lat="41.10024736700917" lon="9.521710072676836"><ele>109.0</ele><time>2026-05-03T15:51:30.999Z</time></trkpt><trkpt lat="41.100170067325635" lon="9.521668017977468"><ele>109.00000000000001</ele><time>2026-05-03T15:51:31.999Z</time></trkpt><trkpt lat="41.1000988167177" lon="9.521643105589968"><ele>109.0</ele><time>2026-05-03T15:51:32.999Z</time></trkpt><trkpt lat="41.10001862288285" lon="9.521713771122096"><ele>109.0</ele><time>2026-05-03T15:51:33.999Z</time></trkpt><trkpt lat="41.09996772472958" lon="9.521789713636103"><ele>109.0</ele><time>2026-05-03T15:51:34.999Z</time></trkpt><trkpt lat="41.0999268427106" lon="9.521889613414382"><ele>109.00000000000001</ele><time>2026-05-03T15:51:35.999Z</time></trkpt><trkpt lat="41.09991521059678" lon="9.522019480022829"><ele>109.0</ele><time>2026-05-03T15:51:36.999Z</time></trkpt><trkpt lat="41.099871231196914" lon="9.522164365768345"><ele>108.5</ele><time>2026-05-03T15:51:37.999Z</time></trkpt><trkpt lat="41.09983132170728" lon="9.522320241268035"><ele>108.0</ele><time>2026-05-03T15:51:38.999Z</time></trkpt><trkpt lat="41.09975168046137" lon="9.522452574452531"><ele>107.5</ele><time>2026-05-03T15:51:39.999Z</time></trkpt><trkpt lat="41.09964648217232" lon="9.522568433246567"><ele>107.0</ele><time>2026-05-03T15:51:40.999Z</time></trkpt><trkpt lat="41.09954051413566" lon="9.522694075332735"><ele>107.0</ele><time>2026-05-03T15:51:41.999Z</time></trkpt><trkpt lat="41.09943927713095" lon="9.522830314763636"><ele>107.0</ele><time>2026-05-03T15:51:42.999Z</time></trkpt><trkpt lat="41.099343589762114" lon="9.522971935596962"><ele>107.0</ele><time>2026-05-03T15:51:43.999Z</time></trkpt><trkpt lat="41.09925353147568" lon="9.523119281477737"><ele>107.0</ele><time>2026-05-03T15:51:44.999Z</time></trkpt><trkpt lat="41.099166539004834" lon="9.523270432827555"><ele>106.5</ele><time>2026-05-03T15:51:45.999Z</time></trkpt><trkpt lat="41.09908372447335" lon="9.523422084105224"><ele>106.0</ele><time>2026-05-03T15:51:46.999Z</time></trkpt><trkpt lat="41.09900061336655" lon="9.523576458013947"><ele>105.5</ele><time>2026-05-03T15:51:47.999Z</time></trkpt><trkpt lat="41.09892082961309" lon="9.523730279074343"><ele>105.0</ele><time>2026-05-03T15:51:48.999Z</time></trkpt><trkpt lat="41.098839518240915" lon="9.523881528171174"><ele>108.0</ele><time>2026-05-03T15:51:49.999Z</time></trkpt><trkpt lat="41.09874938634068" lon="9.524033476745448"><ele>111.0</ele><time>2026-05-03T15:51:50.999Z</time></trkpt><trkpt lat="41.09865347725823" lon="9.524194891229968"><ele>114.0</ele><time>2026-05-03T15:51:51.999Z</time></trkpt><trkpt lat="41.09855711402839" lon="9.524362395648975"><ele>114.0</ele><time>2026-05-03T15:51:52.999Z</time></trkpt><trkpt lat="41.09846853523355" lon="9.524523543876834"><ele>114.0</ele><time>2026-05-03T15:51:53.999Z</time></trkpt><trkpt lat="41.098387515158585" lon="9.524667067132516"><ele>114.0</ele><time>2026-05-03T15:51:54.999Z</time></trkpt><trkpt lat="41.09831704287791" lon="9.524812142121997"><ele>114.0</ele><time>2026-05-03T15:51:55.999Z</time></trkpt><trkpt lat="41.098258349327615" lon="9.524962819042639"><ele>115.0</ele><time>2026-05-03T15:51:56.999Z</time></trkpt><trkpt lat="41.098205293502716" lon="9.525121641544727"><ele>116.0</ele><time>2026-05-03T15:51:57.999Z</time></trkpt><trkpt lat="41.09815310316943" lon="9.525283132453973"><ele>117.0</ele><time>2026-05-03T15:51:58.999Z</time></trkpt><trkpt lat="41.098098028425646" lon="9.5254475742463"><ele>118.0</ele><time>2026-05-03T15:52:00Z</time></trkpt><trkpt lat="41.098040114007716" lon="9.525615745641186"><ele>118.25</ele><time>2026-05-03T15:52:01Z</time></trkpt><trkpt lat="41.0979568437747" lon="9.525770678728984"><ele>118.5</ele><time>2026-05-03T15:52:02Z</time></trkpt><trkpt lat="41.09788870139874" lon="9.525944297234208"><ele>118.75</ele><time>2026-05-03T15:52:03Z</time></trkpt><trkpt lat="41.09779268599046" lon="9.526101515143813"><ele>119.0</ele><time>2026-05-03T15:52:04Z</time></trkpt><trkpt lat="41.09768603620014" lon="9.526249062200144"><ele>119.66666666666666</ele><time>2026-05-03T15:52:05Z</time></trkpt><trkpt lat="41.09756002799354" lon="9.526382426242249"><ele>120.33333333333334</ele><time>2026-05-03T15:52:06Z</time></trkpt><trkpt lat="41.09741818924784" lon="9.526486722962842"><ele>121.0</ele><time>2026-05-03T15:52:07Z</time></trkpt><trkpt lat="41.097278650626215" lon="9.526570166159738"><ele>118.5</ele><time>2026-05-03T15:52:08Z</time></trkpt><trkpt lat="41.09714422863449" lon="9.526656859631043"><ele>116.0</ele><time>2026-05-03T15:52:09Z</time></trkpt><trkpt lat="41.097015739416754" lon="9.52673453676342"><ele>113.5</ele><time>2026-05-03T15:52:10Z</time></trkpt><trkpt lat="41.09688738849407" lon="9.526808451689611"><ele>111.0</ele><time>2026-05-03T15:52:11Z</time></trkpt><trkpt lat="41.09675950694912" lon="9.526884816195968"><ele>111.0</ele><time>2026-05-03T15:52:12Z</time></trkpt><trkpt lat="41.096637052131996" lon="9.52697524751332"><ele>111.0</ele><time>2026-05-03T15:52:13Z</time></trkpt><trkpt lat="41.09652712849866" lon="9.527097941005689"><ele>111.0</ele><time>2026-05-03T15:52:14Z</time></trkpt><trkpt lat="41.09643809531211" lon="9.527251213404405"><ele>111.0</ele><time>2026-05-03T15:52:15Z</time></trkpt><trkpt lat="41.09636976158533" lon="9.527424841376524"><ele>109.0</ele><time>2026-05-03T15:52:16Z</time></trkpt><trkpt lat="41.0963082366681" lon="9.527607301358193"><ele>107.0</ele><time>2026-05-03T15:52:17Z</time></trkpt><trkpt lat="41.09624395208008" lon="9.52778171464541"><ele>105.0</ele><time>2026-05-03T15:52:18Z</time></trkpt><trkpt lat="41.096182173508325" lon="9.52794805825443"><ele>103.0</ele><time>2026-05-03T15:52:19Z</time></trkpt><trkpt lat="41.0961234854751" lon="9.528108002498852"><ele>101.60000000000001</ele><time>2026-05-03T15:52:20Z</time></trkpt><trkpt lat="41.09606788662208" lon="9.528257189538476"><ele>100.2</ele><time>2026-05-03T15:52:21Z</time></trkpt><trkpt lat="41.09601249342184" lon="9.528394272033642"><ele>98.8</ele><time>2026-05-03T15:52:22Z</time></trkpt><trkpt lat="41.095953357342594" lon="9.528503630638228"><ele>97.4</ele><time>2026-05-03T15:52:23Z</time></trkpt><trkpt lat="41.095884828618125" lon="9.528574860599322"><ele>96.0</ele><time>2026-05-03T15:52:24Z</time></trkpt><trkpt lat="41.095810376869515" lon="9.528619866949171"><ele>94.0</ele><time>2026-05-03T15:52:25Z</time></trkpt><trkpt lat="41.095722623721755" lon="9.528651766862412"><ele>92.0</ele><time>2026-05-03T15:52:26Z</time></trkpt><trkpt lat="41.09561881260467" lon="9.528662607718056"><ele>90.0</ele><time>2026-05-03T15:52:27Z</time></trkpt><trkpt lat="41.09550041934663" lon="9.528654429874214"><ele>88.0</ele><time>2026-05-03T15:52:28Z</time></trkpt><trkpt lat="41.09538797336259" lon="9.52864485809125"><ele>86.0</ele><time>2026-05-03T15:52:29Z</time></trkpt><trkpt lat="41.09528267074224" lon="9.528664302865426"><ele>86.0</ele><time>2026-05-03T15:52:30Z</time></trkpt><trkpt lat="41.09517747697215" lon="9.528709125689783"><ele>86.0</ele><time>2026-05-03T15:52:31Z</time></trkpt><trkpt lat="41.09508936353655" lon="9.528767444222437"><ele>86.0</ele><time>2026-05-03T15:52:32Z</time></trkpt><trkpt lat="41.09501506561193" lon="9.528840121820526"><ele>86.0</ele><time>2026-05-03T15:52:33Z</time></trkpt><trkpt lat="41.094952257961815" lon="9.528919878951287"><ele>86.0</ele><time>2026-05-03T15:52:34Z</time></trkpt><trkpt lat="41.09488256876308" lon="9.528993473879193"><ele>84.0</ele><time>2026-05-03T15:52:35Z</time></trkpt><trkpt lat="41.094808141643135" lon="9.529046675031559"><ele>82.0</ele><time>2026-05-03T15:52:36Z</time></trkpt><trkpt lat="41.09472785824015" lon="9.529061244009592"><ele>80.0</ele><time>2026-05-03T15:52:37Z</time></trkpt><trkpt lat="41.09464941296002" lon="9.529022037778365"><ele>78.0</ele><time>2026-05-03T15:52:38Z</time></trkpt><trkpt lat="41.09459184682493" lon="9.528929299702963"><ele>76.0</ele><time>2026-05-03T15:52:39Z</time></trkpt><trkpt lat="41.09451215759578" lon="9.528701689046985"><ele>76.0</ele><time>2026-05-03T15:52:41Z</time></trkpt><trkpt lat="41.09443683902519" lon="9.528648952444483"><ele>76.0</ele><time>2026-05-03T15:52:42Z</time></trkpt><trkpt lat="41.094361965584135" lon="9.528618054420921"><ele>76.0</ele><time>2026-05-03T15:52:43Z</time></trkpt><trkpt lat="41.094280958998496" lon="9.528652423742507"><ele>76.0</ele><time>2026-05-03T15:52:44Z</time></trkpt><trkpt lat="41.09423050760097" lon="9.528728014884175"><ele>76.0</ele><time>2026-05-03T15:52:45Z</time></trkpt><trkpt lat="41.09418423756242" lon="9.52879347617725"><ele>76.0</ele><time>2026-05-03T15:52:46Z</time></trkpt><trkpt lat="41.09419435198178" lon="9.52890415314922"><ele>75.2</ele><time>2026-05-03T15:52:47Z</time></trkpt><trkpt lat="41.094222351556425" lon="9.529004906774707"><ele>74.39999999999999</ele><time>2026-05-03T15:52:48Z</time></trkpt><trkpt lat="41.094271776626876" lon="9.529082523403384"><ele>73.6</ele><time>2026-05-03T15:52:49Z</time></trkpt><trkpt lat="41.09438166052066" lon="9.529167007044421"><ele>72.8</ele><time>2026-05-03T15:52:51Z</time></trkpt><trkpt lat="41.09448249515091" lon="9.529252769790151"><ele>72.0</ele><time>2026-05-03T15:52:53Z</time></trkpt><trkpt lat="41.09450866948094" lon="9.529405209426876"><ele>72.0</ele><time>2026-05-03T15:52:55Z</time></trkpt><trkpt lat="41.09448821629941" lon="9.529509260033452"><ele>72.0</ele><time>2026-05-03T15:52:56Z</time></trkpt><trkpt lat="41.09444057456856" lon="9.529611389109121"><ele>72.0</ele><time>2026-05-03T15:52:57Z</time></trkpt><trkpt lat="41.09439480764262" lon="9.529686860435396"><ele>72.0</ele><time>2026-05-03T15:52:58Z</time></trkpt><trkpt lat="41.094344583245594" lon="9.529763659947294"><ele>72.0</ele><time>2026-05-03T15:52:59Z</time></trkpt><trkpt lat="41.094267083039746" lon="9.529834604658332"><ele>72.0</ele><time>2026-05-03T15:53:00Z</time></trkpt><trkpt lat="41.09417254425045" lon="9.5298758682151"><ele>68.8</ele><time>2026-05-03T15:53:01Z</time></trkpt><trkpt lat="41.09408345962393" lon="9.529872330442217"><ele>65.6</ele><time>2026-05-03T15:53:02Z</time></trkpt><trkpt lat="41.09399895330918" lon="9.529868776732666"><ele>62.39999999999999</ele><time>2026-05-03T15:53:03Z</time></trkpt><trkpt lat="41.09391674335726" lon="9.529866223468172"><ele>59.199999999999996</ele><time>2026-05-03T15:53:04Z</time></trkpt><trkpt lat="41.093824293529764" lon="9.529852919777214"><ele>56.0</ele><time>2026-05-03T15:53:05Z</time></trkpt><trkpt lat="41.09372475060506" lon="9.529814498849419"><ele>56.0</ele><time>2026-05-03T15:53:06Z</time></trkpt><trkpt lat="41.093629050607746" lon="9.52972819106157"><ele>55.99999999999999</ele><time>2026-05-03T15:53:07Z</time></trkpt><trkpt lat="41.093551226415755" lon="9.529623796933748"><ele>55.99999999999999</ele><time>2026-05-03T15:53:08Z</time></trkpt><trkpt lat="41.09348992365841" lon="9.529520476336875"><ele>56.0</ele><time>2026-05-03T15:53:09Z</time></trkpt><trkpt lat="41.09343392648777" lon="9.529423493126275"><ele>56.0</ele><time>2026-05-03T15:53:10Z</time></trkpt><trkpt lat="41.09339056964742" lon="9.529322534762464"><ele>56.599999999999994</ele><time>2026-05-03T15:53:11Z</time></trkpt><trkpt lat="41.093362477684636" lon="9.529222767451367"><ele>57.199999999999996</ele><time>2026-05-03T15:53:12Z</time></trkpt><trkpt lat="41.09333607497417" lon="9.529136929012903"><ele>57.800000000000004</ele><time>2026-05-03T15:53:13Z</time></trkpt><trkpt lat="41.09325127433749" lon="9.529024661067638"><ele>58.400000000000006</ele><time>2026-05-03T15:53:15Z</time></trkpt><trkpt lat="41.09312297179929" lon="9.529010778142334"><ele>59.0</ele><time>2026-05-03T15:53:17Z</time></trkpt><trkpt lat="41.093057590126584" lon="9.529046609836184"><ele>56.833333333333336</ele><time>2026-05-03T15:53:18Z</time></trkpt><trkpt lat="41.09300955943452" lon="9.52912425627281"><ele>54.66666666666667</ele><time>2026-05-03T15:53:19Z</time></trkpt><trkpt lat="41.09296834834043" lon="9.529215207687184"><ele>52.5</ele><time>2026-05-03T15:53:20Z</time></trkpt><trkpt lat="41.09299467639314" lon="9.529329523343492"><ele>50.333333333333336</ele><time>2026-05-03T15:53:21Z</time></trkpt><trkpt lat="41.09303752775488" lon="9.529430872629394"><ele>48.16666666666667</ele><time>2026-05-03T15:53:22Z</time></trkpt><trkpt lat="41.09307743131699" lon="9.52950847142917"><ele>46.0</ele><time>2026-05-03T15:53:23Z</time></trkpt><trkpt lat="41.09310479036319" lon="9.529596174928106"><ele>45.8</ele><time>2026-05-03T15:53:24Z</time></trkpt><trkpt lat="41.09310116702323" lon="9.529704964889566"><ele>45.599999999999994</ele><time>2026-05-03T15:53:25Z</time></trkpt><trkpt lat="41.09306162668215" lon="9.529815447184067"><ele>45.4</ele><time>2026-05-03T15:53:26Z</time></trkpt><trkpt lat="41.09298396096878" lon="9.529895786353181"><ele>45.2</ele><time>2026-05-03T15:53:27Z</time></trkpt><trkpt lat="41.09292310791862" lon="9.530004606228406"><ele>45.0</ele><time>2026-05-03T15:53:28Z</time></trkpt><trkpt lat="41.09283923250317" lon="9.530094609862397"><ele>45.0</ele><time>2026-05-03T15:53:29Z</time></trkpt><trkpt lat="41.09274643036021" lon="9.530176731588728"><ele>45.0</ele><time>2026-05-03T15:53:30Z</time></trkpt><trkpt lat="41.09263660074944" lon="9.530218745722161"><ele>45.0</ele><time>2026-05-03T15:53:30.999Z</time></trkpt><trkpt lat="41.09253023901031" lon="9.530278203059094"><ele>45.0</ele><time>2026-05-03T15:53:31.999Z</time></trkpt><trkpt lat="41.092418210249186" lon="9.530338920420279"><ele>45.25</ele><time>2026-05-03T15:53:32.999Z</time></trkpt><trkpt lat="41.09231948720042" lon="9.530414347354215"><ele>45.5</ele><time>2026-05-03T15:53:33.999Z</time></trkpt><trkpt lat="41.09221523735472" lon="9.530466269821275"><ele>45.75</ele><time>2026-05-03T15:53:34.999Z</time></trkpt><trkpt lat="41.0921115109052" lon="9.530522176197948"><ele>46.0</ele><time>2026-05-03T15:53:35.999Z</time></trkpt><trkpt lat="41.09200387848058" lon="9.530578719272922"><ele>46.0</ele><time>2026-05-03T15:53:36.999Z</time></trkpt><trkpt lat="41.091891114260385" lon="9.530624483290367"><ele>46.0</ele><time>2026-05-03T15:53:37.999Z</time></trkpt><trkpt lat="41.09177349912334" lon="9.530657927159771"><ele>46.0</ele><time>2026-05-03T15:53:38.999Z</time></trkpt><trkpt lat="41.091654439863454" lon="9.530676638089286"><ele>46.0</ele><time>2026-05-03T15:53:39.999Z</time></trkpt><trkpt lat="41.09153059255224" lon="9.530680049873963"><ele>46.0</ele><time>2026-05-03T15:53:40.999Z</time></trkpt><trkpt lat="41.091401750728785" lon="9.530670876688596"><ele>46.0</ele><time>2026-05-03T15:53:41.999Z</time></trkpt><trkpt lat="41.091268758515774" lon="9.530644160974672"><ele>46.0</ele><time>2026-05-03T15:53:42.999Z</time></trkpt><trkpt lat="41.091131054641096" lon="9.530600652464924"><ele>46.0</ele><time>2026-05-03T15:53:43.999Z</time></trkpt><trkpt lat="41.09098734383276" lon="9.53054605656868"><ele>46.0</ele><time>2026-05-03T15:53:44.999Z</time></trkpt><trkpt lat="41.09083488442619" lon="9.530490047475563"><ele>46.0</ele><time>2026-05-03T15:53:45.999Z</time></trkpt><trkpt lat="41.09067569612184" lon="9.530434657943566"><ele>46.0</ele><time>2026-05-03T15:53:46.999Z</time></trkpt><trkpt lat="41.0905103649249" lon="9.530381310377319"><ele>43.0</ele><time>2026-05-03T15:53:47.999Z</time></trkpt><trkpt lat="41.09034062805587" lon="9.53032330225606"><ele>40.0</ele><time>2026-05-03T15:53:48.999Z</time></trkpt><trkpt lat="41.09016801907045" lon="9.530263334271647"><ele>37.0</ele><time>2026-05-03T15:53:49.999Z</time></trkpt><trkpt lat="41.08999351205399" lon="9.530199732302915"><ele>37.333333333333336</ele><time>2026-05-03T15:53:50.999Z</time></trkpt><trkpt lat="41.08981964566208" lon="9.530130623235234"><ele>37.666666666666664</ele><time>2026-05-03T15:53:51.999Z</time></trkpt><trkpt lat="41.089645107281335" lon="9.53007251403443"><ele>38.0</ele><time>2026-05-03T15:53:52.999Z</time></trkpt><trkpt lat="41.089476003852994" lon="9.530012215550768"><ele>38.0</ele><time>2026-05-03T15:53:53.999Z</time></trkpt><trkpt lat="41.08931125406017" lon="9.529951967920658"><ele>38.0</ele><time>2026-05-03T15:53:54.999Z</time></trkpt><trkpt lat="41.089153051980155" lon="9.529895208299548"><ele>38.0</ele><time>2026-05-03T15:53:55.999Z</time></trkpt><trkpt lat="41.08899148799432" lon="9.529836438914636"><ele>37.0</ele><time>2026-05-03T15:53:56.999Z</time></trkpt><trkpt lat="41.08882192949774" lon="9.52977470220477"><ele>36.0</ele><time>2026-05-03T15:53:57.999Z</time></trkpt><trkpt lat="41.08865650027276" lon="9.529716455469314"><ele>35.0</ele><time>2026-05-03T15:53:58.999Z</time></trkpt><trkpt lat="41.08851014629402" lon="9.529661172719134"><ele>35.0</ele><time>2026-05-03T15:53:59.999Z</time></trkpt><trkpt lat="41.08837592015062" lon="9.529611013416496"><ele>35.0</ele><time>2026-05-03T15:54:00.999Z</time></trkpt><trkpt lat="41.088247176677854" lon="9.529562276456623"><ele>35.0</ele><time>2026-05-03T15:54:01.999Z</time></trkpt><trkpt lat="41.088118352765946" lon="9.529502289244038"><ele>35.0</ele><time>2026-05-03T15:54:02.999Z</time></trkpt><trkpt lat="41.08798960142953" lon="9.529438095559074"><ele>38.5</ele><time>2026-05-03T15:54:03.999Z</time></trkpt><trkpt lat="41.08786213835431" lon="9.52935813419372"><ele>42.0</ele><time>2026-05-03T15:54:04.999Z</time></trkpt><trkpt lat="41.08774003045906" lon="9.529268437826829"><ele>45.5</ele><time>2026-05-03T15:54:06Z</time></trkpt><trkpt lat="41.087616166837236" lon="9.529172146402363"><ele>49.0</ele><time>2026-05-03T15:54:07Z</time></trkpt><trkpt lat="41.0874921986513" lon="9.52906955008333"><ele>50.0</ele><time>2026-05-03T15:54:08Z</time></trkpt><trkpt lat="41.08736421129579" lon="9.528964639814298"><ele>51.0</ele><time>2026-05-03T15:54:09Z</time></trkpt><trkpt lat="41.08724095200606" lon="9.52885049977133"><ele>52.0</ele><time>2026-05-03T15:54:10Z</time></trkpt><trkpt lat="41.08712604631047" lon="9.52871624442423"><ele>52.0</ele><time>2026-05-03T15:54:11Z</time></trkpt><trkpt lat="41.08702491769258" lon="9.528556558688644"><ele>52.0</ele><time>2026-05-03T15:54:12Z</time></trkpt><trkpt lat="41.08693433283722" lon="9.528379430958614"><ele>52.0</ele><time>2026-05-03T15:54:13Z</time></trkpt><trkpt lat="41.0868632900692" lon="9.528188608212242"><ele>52.0</ele><time>2026-05-03T15:54:14Z</time></trkpt><trkpt lat="41.086803094319855" lon="9.527989235075914"><ele>52.0</ele><time>2026-05-03T15:54:15Z</time></trkpt><trkpt lat="41.08673792904529" lon="9.527789618330248"><ele>52.0</ele><time>2026-05-03T15:54:16Z</time></trkpt><trkpt lat="41.08666736387095" lon="9.527594046591064"><ele>52.0</ele><time>2026-05-03T15:54:17Z</time></trkpt><trkpt lat="41.08659361831681" lon="9.527397401491923"><ele>52.0</ele><time>2026-05-03T15:54:18Z</time></trkpt><trkpt lat="41.08652121893008" lon="9.527197365152205"><ele>52.0</ele><time>2026-05-03T15:54:19Z</time></trkpt><trkpt lat="41.086448608642" lon="9.52699546722355"><ele>53.666666666666664</ele><time>2026-05-03T15:54:20Z</time></trkpt><trkpt lat="41.08637767759299" lon="9.52679455192044"><ele>55.33333333333333</ele><time>2026-05-03T15:54:21Z</time></trkpt><trkpt lat="41.08630885499157" lon="9.526594078024235"><ele>57.0</ele><time>2026-05-03T15:54:22Z</time></trkpt><trkpt lat="41.08624108618351" lon="9.526396368956219"><ele>59.33333333333333</ele><time>2026-05-03T15:54:23Z</time></trkpt><trkpt lat="41.08616965801923" lon="9.526211366171827"><ele>61.666666666666664</ele><time>2026-05-03T15:54:24Z</time></trkpt><trkpt lat="41.0860889816863" lon="9.526044076932001"><ele>64.0</ele><time>2026-05-03T15:54:25Z</time></trkpt><trkpt lat="41.08598873408208" lon="9.525902018036092"><ele>64.0</ele><time>2026-05-03T15:54:26Z</time></trkpt><trkpt lat="41.08587161712004" lon="9.525786838610012"><ele>64.0</ele><time>2026-05-03T15:54:27Z</time></trkpt><trkpt lat="41.08574361847094" lon="9.525696564021576"><ele>64.0</ele><time>2026-05-03T15:54:28Z</time></trkpt><trkpt lat="41.085609071297455" lon="9.525628386321014"><ele>64.0</ele><time>2026-05-03T15:54:29Z</time></trkpt><trkpt lat="41.0854736279311" lon="9.525582102501065"><ele>65.33333333333333</ele><time>2026-05-03T15:54:30Z</time></trkpt><trkpt lat="41.085328748633195" lon="9.52554371138909"><ele>66.66666666666667</ele><time>2026-05-03T15:54:31Z</time></trkpt><trkpt lat="41.08518503778083" lon="9.525479104925793"><ele>68.0</ele><time>2026-05-03T15:54:32Z</time></trkpt><trkpt lat="41.085033985667735" lon="9.525434909972098"><ele>70.0</ele><time>2026-05-03T15:54:33Z</time></trkpt><trkpt lat="41.08487647797092" lon="9.525408805334457"><ele>72.0</ele><time>2026-05-03T15:54:34Z</time></trkpt><trkpt lat="41.08471668464326" lon="9.525358939738556"><ele>74.0</ele><time>2026-05-03T15:54:35Z</time></trkpt><trkpt lat="41.084544156261444" lon="9.5253064165074"><ele>74.0</ele><time>2026-05-03T15:54:36Z</time></trkpt><trkpt lat="41.08436592562931" lon="9.525256045152435"><ele>74.0</ele><time>2026-05-03T15:54:37Z</time></trkpt><trkpt lat="41.08419828372387" lon="9.525198570710181"><ele>74.0</ele><time>2026-05-03T15:54:38Z</time></trkpt><trkpt lat="41.08404584009314" lon="9.52510804763243"><ele>74.33333333333334</ele><time>2026-05-03T15:54:39Z</time></trkpt><trkpt lat="41.0839032237977" lon="9.52497522821489"><ele>74.66666666666667</ele><time>2026-05-03T15:54:40Z</time></trkpt><trkpt lat="41.08377377983832" lon="9.52482137264804"><ele>75.0</ele><time>2026-05-03T15:54:41Z</time></trkpt><trkpt lat="41.08365091082343" lon="9.524656728975835"><ele>78.0</ele><time>2026-05-03T15:54:42Z</time></trkpt><trkpt lat="41.08353426022779" lon="9.524491383982609"><ele>81.0</ele><time>2026-05-03T15:54:43Z</time></trkpt><trkpt lat="41.08342134123336" lon="9.524323786486027"><ele>84.0</ele><time>2026-05-03T15:54:44Z</time></trkpt><trkpt lat="41.08331053207895" lon="9.524152675816476"><ele>84.0</ele><time>2026-05-03T15:54:45Z</time></trkpt><trkpt lat="41.083209437973146" lon="9.523971354172517"><ele>84.0</ele><time>2026-05-03T15:54:46Z</time></trkpt><trkpt lat="41.08311879645253" lon="9.523782576891245"><ele>84.0</ele><time>2026-05-03T15:54:47Z</time></trkpt><trkpt lat="41.083034483892305" lon="9.523591690785526"><ele>84.0</ele><time>2026-05-03T15:54:48Z</time></trkpt><trkpt lat="41.082946905869605" lon="9.523402227858142"><ele>84.0</ele><time>2026-05-03T15:54:49Z</time></trkpt><trkpt lat="41.08285724813665" lon="9.523221387933708"><ele>84.0</ele><time>2026-05-03T15:54:50Z</time></trkpt><trkpt lat="41.08277317574178" lon="9.523045320382428"><ele>84.0</ele><time>2026-05-03T15:54:51Z</time></trkpt><trkpt lat="41.082660950709894" lon="9.522901299625815"><ele>84.0</ele><time>2026-05-03T15:54:52Z</time></trkpt><trkpt lat="41.08253355605645" lon="9.522779984034546"><ele>84.0</ele><time>2026-05-03T15:54:53Z</time></trkpt><trkpt lat="41.082396854762834" lon="9.522685049426817"><ele>85.0</ele><time>2026-05-03T15:54:54Z</time></trkpt><trkpt lat="41.082266828919735" lon="9.522597793911105"><ele>86.0</ele><time>2026-05-03T15:54:55Z</time></trkpt><trkpt lat="41.08213222873466" lon="9.522507468736496"><ele>87.0</ele><time>2026-05-03T15:54:56Z</time></trkpt><trkpt lat="41.08199700074369" lon="9.522418720172464"><ele>88.0</ele><time>2026-05-03T15:54:57Z</time></trkpt><trkpt lat="41.08185196188869" lon="9.522323464736557"><ele>88.0</ele><time>2026-05-03T15:54:58Z</time></trkpt><trkpt lat="41.0816991262433" lon="9.522237215760857"><ele>88.0</ele><time>2026-05-03T15:54:59Z</time></trkpt><trkpt lat="41.08153939177818" lon="9.522155366698367"><ele>88.0</ele><time>2026-05-03T15:55:00Z</time></trkpt><trkpt lat="41.08136839098224" lon="9.52209957919043"><ele>91.66666666666666</ele><time>2026-05-03T15:55:01Z</time></trkpt><trkpt lat="41.081193717337655" lon="9.522056210923553"><ele>95.33333333333333</ele><time>2026-05-03T15:55:02Z</time></trkpt><trkpt lat="41.081021482848534" lon="9.522003372945909"><ele>99.0</ele><time>2026-05-03T15:55:03Z</time></trkpt><trkpt lat="41.080855311675194" lon="9.521937692191276"><ele>97.33333333333333</ele><time>2026-05-03T15:55:04Z</time></trkpt><trkpt lat="41.08071150600236" lon="9.521818750048393"><ele>95.66666666666666</ele><time>2026-05-03T15:55:05Z</time></trkpt><trkpt lat="41.08057793276199" lon="9.521684027502642"><ele>94.0</ele><time>2026-05-03T15:55:06Z</time></trkpt><trkpt lat="41.08046667692735" lon="9.521524654511921"><ele>94.0</ele><time>2026-05-03T15:55:07Z</time></trkpt><trkpt lat="41.080365888431785" lon="9.521343885739414"><ele>94.0</ele><time>2026-05-03T15:55:08Z</time></trkpt><trkpt lat="41.0802718072665" lon="9.521159299225287"><ele>94.0</ele><time>2026-05-03T15:55:09Z</time></trkpt><trkpt lat="41.08018112885334" lon="9.520979685413906"><ele>97.0</ele><time>2026-05-03T15:55:10Z</time></trkpt><trkpt lat="41.080090748427544" lon="9.520805965832889"><ele>100.0</ele><time>2026-05-03T15:55:11Z</time></trkpt><trkpt lat="41.079987322527195" lon="9.520657298930155"><ele>103.0</ele><time>2026-05-03T15:55:12Z</time></trkpt><trkpt lat="41.07989197547096" lon="9.520506233330376"><ele>104.75</ele><time>2026-05-03T15:55:13Z</time></trkpt><trkpt lat="41.07978137508665" lon="9.520375524855744"><ele>106.5</ele><time>2026-05-03T15:55:14Z</time></trkpt><trkpt lat="41.07965984756153" lon="9.520267421733793"><ele>108.25</ele><time>2026-05-03T15:55:15Z</time></trkpt><trkpt lat="41.079526276874965" lon="9.520181113393438"><ele>110.0</ele><time>2026-05-03T15:55:16Z</time></trkpt><trkpt lat="41.07938616499736" lon="9.520099812676444"><ele>110.0</ele><time>2026-05-03T15:55:17Z</time></trkpt><trkpt lat="41.079240640522464" lon="9.520017201406308"><ele>110.0</ele><time>2026-05-03T15:55:18Z</time></trkpt><trkpt lat="41.07907936128191" lon="9.519934958924141"><ele>110.0</ele><time>2026-05-03T15:55:19Z</time></trkpt><trkpt lat="41.078924417633985" lon="9.519842393608625"><ele>108.66666666666666</ele><time>2026-05-03T15:55:20Z</time></trkpt><trkpt lat="41.07876771866952" lon="9.519748994677492"><ele>107.33333333333334</ele><time>2026-05-03T15:55:21Z</time></trkpt><trkpt lat="41.07860954317677" lon="9.51965317618377"><ele>106.0</ele><time>2026-05-03T15:55:22Z</time></trkpt><trkpt lat="41.078449492579914" lon="9.51955552343041"><ele>105.66666666666667</ele><time>2026-05-03T15:55:23Z</time></trkpt><trkpt lat="41.07828664801027" lon="9.519460890136179"><ele>105.33333333333334</ele><time>2026-05-03T15:55:24Z</time></trkpt><trkpt lat="41.07812235937132" lon="9.519366214682822"><ele>105.0</ele><time>2026-05-03T15:55:25Z</time></trkpt><trkpt lat="41.07795852073918" lon="9.519269483509028"><ele>105.0</ele><time>2026-05-03T15:55:26Z</time></trkpt><trkpt lat="41.07779328807615" lon="9.51916918829634"><ele>105.0</ele><time>2026-05-03T15:55:27Z</time></trkpt><trkpt lat="41.077632404866534" lon="9.51907399529804"><ele>105.0</ele><time>2026-05-03T15:55:28Z</time></trkpt><trkpt lat="41.07747497473039" lon="9.518978009634573"><ele>101.33333333333333</ele><time>2026-05-03T15:55:28.999Z</time></trkpt><trkpt lat="41.07732340940983" lon="9.51888895543527"><ele>97.66666666666666</ele><time>2026-05-03T15:55:29.999Z</time></trkpt><trkpt lat="41.077177821125794" lon="9.518801463034752"><ele>94.0</ele><time>2026-05-03T15:55:30.999Z</time></trkpt><trkpt lat="41.07703656318443" lon="9.518715190586066"><ele>95.5</ele><time>2026-05-03T15:55:31.999Z</time></trkpt><trkpt lat="41.076898006138805" lon="9.518634770948475"><ele>97.0</ele><time>2026-05-03T15:55:32.999Z</time></trkpt><trkpt lat="41.07676383678279" lon="9.51855204935922"><ele>98.5</ele><time>2026-05-03T15:55:33.999Z</time></trkpt><trkpt lat="41.07663301227392" lon="9.518466323843766"><ele>100.0</ele><time>2026-05-03T15:55:34.999Z</time></trkpt><trkpt lat="41.07650269395642" lon="9.518374278901934"><ele>100.0</ele><time>2026-05-03T15:55:35.999Z</time></trkpt><trkpt lat="41.0763763367456" lon="9.518277412252111"><ele>100.0</ele><time>2026-05-03T15:55:36.999Z</time></trkpt><trkpt lat="41.076262013579054" lon="9.51816618338584"><ele>100.0</ele><time>2026-05-03T15:55:37.999Z</time></trkpt><trkpt lat="41.07617311838562" lon="9.518026190157952"><ele>100.0</ele><time>2026-05-03T15:55:38.999Z</time></trkpt><trkpt lat="41.076100681954685" lon="9.5178688142343"><ele>105.0</ele><time>2026-05-03T15:55:39.999Z</time></trkpt><trkpt lat="41.076050309905945" lon="9.517686099761443"><ele>110.0</ele><time>2026-05-03T15:55:40.999Z</time></trkpt><trkpt lat="41.076007064999736" lon="9.517495931121173"><ele>115.0</ele><time>2026-05-03T15:55:41.999Z</time></trkpt><trkpt lat="41.07596960888711" lon="9.51729486124648"><ele>115.0</ele><time>2026-05-03T15:55:42.999Z</time></trkpt><trkpt lat="41.07592580101185" lon="9.517088617207559"><ele>115.0</ele><time>2026-05-03T15:55:43.999Z</time></trkpt><trkpt lat="41.075876400764685" lon="9.516878382558277"><ele>115.0</ele><time>2026-05-03T15:55:44.999Z</time></trkpt><trkpt lat="41.07582531468241" lon="9.516666869414083"><ele>117.0</ele><time>2026-05-03T15:55:45.999Z</time></trkpt><trkpt lat="41.07577906191688" lon="9.516453480796246"><ele>119.0</ele><time>2026-05-03T15:55:46.999Z</time></trkpt><trkpt lat="41.07573951742435" lon="9.516253927838209"><ele>121.0</ele><time>2026-05-03T15:55:47.999Z</time></trkpt><trkpt lat="41.07570920913505" lon="9.516060532399022"><ele>112.33333333333334</ele><time>2026-05-03T15:55:48.999Z</time></trkpt><trkpt lat="41.075684497678935" lon="9.515856273592654"><ele>103.66666666666667</ele><time>2026-05-03T15:55:49.999Z</time></trkpt><trkpt lat="41.07566540560645" lon="9.515647625824602"><ele>95.0</ele><time>2026-05-03T15:55:50.999Z</time></trkpt><trkpt lat="41.07564806180483" lon="9.515442489499742"><ele>95.33333333333334</ele><time>2026-05-03T15:55:51.999Z</time></trkpt><trkpt lat="41.07562729734401" lon="9.515230356841515"><ele>95.66666666666667</ele><time>2026-05-03T15:55:52.999Z</time></trkpt><trkpt lat="41.07560369716608" lon="9.515014667460662"><ele>96.0</ele><time>2026-05-03T15:55:53.999Z</time></trkpt><trkpt lat="41.075582483473895" lon="9.514796917841517"><ele>96.0</ele><time>2026-05-03T15:55:54.999Z</time></trkpt><trkpt lat="41.07558007507521" lon="9.514577296789662"><ele>96.0</ele><time>2026-05-03T15:55:55.999Z</time></trkpt><trkpt lat="41.07560252805206" lon="9.514357256651621"><ele>96.0</ele><time>2026-05-03T15:55:56.999Z</time></trkpt><trkpt lat="41.075637098452425" lon="9.514138442296016"><ele>95.0</ele><time>2026-05-03T15:55:57.999Z</time></trkpt><trkpt lat="41.07566754045915" lon="9.513917753688013"><ele>94.0</ele><time>2026-05-03T15:55:58.999Z</time></trkpt><trkpt lat="41.07569313659104" lon="9.513694875485125"><ele>93.0</ele><time>2026-05-03T15:55:59.999Z</time></trkpt><trkpt lat="41.07571756229687" lon="9.513470817831049"><ele>93.0</ele><time>2026-05-03T15:56:00.999Z</time></trkpt><trkpt lat="41.075743681301034" lon="9.513253385159562"><ele>93.0</ele><time>2026-05-03T15:56:01.999Z</time></trkpt><trkpt lat="41.07576915972358" lon="9.513032582375065"><ele>93.0</ele><time>2026-05-03T15:56:02.999Z</time></trkpt><trkpt lat="41.075792357976475" lon="9.512812460406874"><ele>98.66666666666666</ele><time>2026-05-03T15:56:03.999Z</time></trkpt><trkpt lat="41.075815286438996" lon="9.512593826572017"><ele>104.33333333333333</ele><time>2026-05-03T15:56:04.999Z</time></trkpt><trkpt lat="41.07583226242176" lon="9.512377151071043"><ele>110.0</ele><time>2026-05-03T15:56:05.999Z</time></trkpt><trkpt lat="41.07584408908044" lon="9.51216155997425"><ele>109.0</ele><time>2026-05-03T15:56:06.999Z</time></trkpt><trkpt lat="41.07585733513108" lon="9.51194434084796"><ele>108.0</ele><time>2026-05-03T15:56:07.999Z</time></trkpt><trkpt lat="41.07587046852812" lon="9.511728016185632"><ele>107.0</ele><time>2026-05-03T15:56:08.999Z</time></trkpt><trkpt lat="41.075882978818726" lon="9.511512708880241"><ele>107.0</ele><time>2026-05-03T15:56:09.999Z</time></trkpt><trkpt lat="41.07589480625165" lon="9.511298665480002"><ele>107.0</ele><time>2026-05-03T15:56:10.999Z</time></trkpt><trkpt lat="41.07590775397777" lon="9.511087939498715"><ele>107.0</ele><time>2026-05-03T15:56:12Z</time></trkpt><trkpt lat="41.0759180909129" lon="9.510886730421763"><ele>106.0</ele><time>2026-05-03T15:56:13Z</time></trkpt><trkpt lat="41.075928447242546" lon="9.510687324408476"><ele>105.0</ele><time>2026-05-03T15:56:14Z</time></trkpt><trkpt lat="41.075932707197104" lon="9.510489759321185"><ele>104.0</ele><time>2026-05-03T15:56:15Z</time></trkpt><trkpt lat="41.07592389455001" lon="9.510301399612084"><ele>103.0</ele><time>2026-05-03T15:56:16Z</time></trkpt><trkpt lat="41.07589194066557" lon="9.510109664896675"><ele>102.75</ele><time>2026-05-03T15:56:17Z</time></trkpt><trkpt lat="41.075841407645974" lon="9.509924500809015"><ele>102.5</ele><time>2026-05-03T15:56:18Z</time></trkpt><trkpt lat="41.075768946132435" lon="9.509757326992094"><ele>102.25</ele><time>2026-05-03T15:56:19Z</time></trkpt><trkpt lat="41.07567576264601" lon="9.509606261275634"><ele>102.0</ele><time>2026-05-03T15:56:20Z</time></trkpt><trkpt lat="41.07555379851546" lon="9.50948207835793"><ele>102.0</ele><time>2026-05-03T15:56:21Z</time></trkpt><trkpt lat="41.07541770814024" lon="9.509378378031974"><ele>102.0</ele><time>2026-05-03T15:56:22Z</time></trkpt><trkpt lat="41.075262097486075" lon="9.509308137017806"><ele>102.0</ele><time>2026-05-03T15:56:23Z</time></trkpt><trkpt lat="41.07509713387663" lon="9.509270722890427"><ele>102.0</ele><time>2026-05-03T15:56:24Z</time></trkpt><trkpt lat="41.07492703853059" lon="9.509266150102274"><ele>102.0</ele><time>2026-05-03T15:56:25Z</time></trkpt><trkpt lat="41.07475823159781" lon="9.509288612780033"><ele>102.0</ele><time>2026-05-03T15:56:26Z</time></trkpt><trkpt lat="41.074588615965766" lon="9.509329222669422"><ele>102.0</ele><time>2026-05-03T15:56:27Z</time></trkpt><trkpt lat="41.074421334859174" lon="9.50937191897108"><ele>102.0</ele><time>2026-05-03T15:56:28Z</time></trkpt><trkpt lat="41.07425439323491" lon="9.509412431665607"><ele>102.0</ele><time>2026-05-03T15:56:29Z</time></trkpt><trkpt lat="41.074091370012596" lon="9.509447215963789"><ele>101.5</ele><time>2026-05-03T15:56:30Z</time></trkpt><trkpt lat="41.073940030786936" lon="9.509482036427622"><ele>101.0</ele><time>2026-05-03T15:56:31Z</time></trkpt><trkpt lat="41.07379838478097" lon="9.509516867116185"><ele>100.5</ele><time>2026-05-03T15:56:32Z</time></trkpt><trkpt lat="41.07366473365181" lon="9.509549773664911"><ele>100.0</ele><time>2026-05-03T15:56:33Z</time></trkpt><trkpt lat="41.07353115622216" lon="9.50958252260344"><ele>97.5</ele><time>2026-05-03T15:56:34Z</time></trkpt><trkpt lat="41.073389814982136" lon="9.509606790755743"><ele>95.0</ele><time>2026-05-03T15:56:35Z</time></trkpt><trkpt lat="41.07324494987548" lon="9.50961180306916"><ele>92.5</ele><time>2026-05-03T15:56:36Z</time></trkpt><trkpt lat="41.073098032243216" lon="9.509563686689852"><ele>90.0</ele><time>2026-05-03T15:56:37Z</time></trkpt><trkpt lat="41.07295716818071" lon="9.509491628002186"><ele>90.0</ele><time>2026-05-03T15:56:38Z</time></trkpt><trkpt lat="41.072817952912175" lon="9.5093930622874"><ele>90.0</ele><time>2026-05-03T15:56:39Z</time></trkpt><trkpt lat="41.07270122239557" lon="9.509260269855012"><ele>90.0</ele><time>2026-05-03T15:56:40Z</time></trkpt><trkpt lat="41.07259929068888" lon="9.509098858858044"><ele>90.0</ele><time>2026-05-03T15:56:41Z</time></trkpt><trkpt lat="41.0724982138416" lon="9.508929327978674"><ele>90.0</ele><time>2026-05-03T15:56:42Z</time></trkpt><trkpt lat="41.07238679393785" lon="9.508764242329296"><ele>90.0</ele><time>2026-05-03T15:56:43Z</time></trkpt><trkpt lat="41.07228516029701" lon="9.508587254652136"><ele>90.66666666666667</ele><time>2026-05-03T15:56:44Z</time></trkpt><trkpt lat="41.07217930347635" lon="9.508401345157468"><ele>91.33333333333334</ele><time>2026-05-03T15:56:45Z</time></trkpt><trkpt lat="41.0720694468736" lon="9.508214581621475"><ele>92.0</ele><time>2026-05-03T15:56:46Z</time></trkpt><trkpt lat="41.07196184123118" lon="9.508029398472905"><ele>89.33333333333334</ele><time>2026-05-03T15:56:47Z</time></trkpt><trkpt lat="41.07185847930657" lon="9.507852924698424"><ele>86.66666666666667</ele><time>2026-05-03T15:56:48Z</time></trkpt><trkpt lat="41.07175705805821" lon="9.50767610634586"><ele>84.0</ele><time>2026-05-03T15:56:49Z</time></trkpt><trkpt lat="41.07166083704869" lon="9.507508115846997"><ele>84.75</ele><time>2026-05-03T15:56:50Z</time></trkpt><trkpt lat="41.071566814281375" lon="9.507348358662194"><ele>85.5</ele><time>2026-05-03T15:56:51Z</time></trkpt><trkpt lat="41.07146977415924" lon="9.507200179887082"><ele>86.25</ele><time>2026-05-03T15:56:52Z</time></trkpt><trkpt lat="41.0713654152907" lon="9.50706835325933"><ele>87.0</ele><time>2026-05-03T15:56:53Z</time></trkpt><trkpt lat="41.07124539997575" lon="9.50695641621373"><ele>87.0</ele><time>2026-05-03T15:56:54Z</time></trkpt><trkpt lat="41.0711107079253" lon="9.506859967835737"><ele>87.0</ele><time>2026-05-03T15:56:55Z</time></trkpt><trkpt lat="41.070960923242566" lon="9.506785650146009"><ele>87.0</ele><time>2026-05-03T15:56:56Z</time></trkpt><trkpt lat="41.070799964257596" lon="9.50674150407043"><ele>87.0</ele><time>2026-05-03T15:56:57Z</time></trkpt><trkpt lat="41.07063242355278" lon="9.5067320126483"><ele>87.0</ele><time>2026-05-03T15:56:58Z</time></trkpt><trkpt lat="41.07046415409726" lon="9.506763045460985"><ele>87.0</ele><time>2026-05-03T15:56:59Z</time></trkpt><trkpt lat="41.07029610475801" lon="9.50682973715508"><ele>87.0</ele><time>2026-05-03T15:57:00Z</time></trkpt><trkpt lat="41.07012578232282" lon="9.506906103901896"><ele>87.0</ele><time>2026-05-03T15:57:01Z</time></trkpt><trkpt lat="41.069944131649414" lon="9.506954459064405"><ele>87.0</ele><time>2026-05-03T15:57:02Z</time></trkpt><trkpt lat="41.06976338697219" lon="9.507021270209865"><ele>90.0</ele><time>2026-05-03T15:57:03Z</time></trkpt><trkpt lat="41.06958570678548" lon="9.50709815379475"><ele>93.0</ele><time>2026-05-03T15:57:04Z</time></trkpt><trkpt lat="41.069409723434255" lon="9.507167955907002"><ele>96.0</ele><time>2026-05-03T15:57:05Z</time></trkpt><trkpt lat="41.06923577218032" lon="9.507233613999208"><ele>95.0</ele><time>2026-05-03T15:57:06Z</time></trkpt><trkpt lat="41.06906466526966" lon="9.507296287998912"><ele>94.0</ele><time>2026-05-03T15:57:07Z</time></trkpt><trkpt lat="41.068893261674624" lon="9.507359267219941"><ele>93.0</ele><time>2026-05-03T15:57:08Z</time></trkpt><trkpt lat="41.06871717832648" lon="9.507425179701622"><ele>93.0</ele><time>2026-05-03T15:57:09Z</time></trkpt><trkpt lat="41.068539512559184" lon="9.507490924547644"><ele>93.0</ele><time>2026-05-03T15:57:10Z</time></trkpt><trkpt lat="41.0683613266714" lon="9.50755715032681"><ele>93.0</ele><time>2026-05-03T15:57:11Z</time></trkpt><trkpt lat="41.06818247532059" lon="9.507624220882859"><ele>92.0</ele><time>2026-05-03T15:57:12Z</time></trkpt><trkpt lat="41.06800204780771" lon="9.507689834799022"><ele>91.0</ele><time>2026-05-03T15:57:13Z</time></trkpt><trkpt lat="41.06782254674186" lon="9.507754328905904"><ele>90.0</ele><time>2026-05-03T15:57:14Z</time></trkpt><trkpt lat="41.0676431006483" lon="9.507818716352443"><ele>90.0</ele><time>2026-05-03T15:57:15Z</time></trkpt><trkpt lat="41.06746473759531" lon="9.507883572486024"><ele>90.0</ele><time>2026-05-03T15:57:16Z</time></trkpt><trkpt lat="41.067292098470105" lon="9.507963244128772"><ele>90.0</ele><time>2026-05-03T15:57:17Z</time></trkpt><trkpt lat="41.06713126134883" lon="9.508076209565328"><ele>89.33333333333333</ele><time>2026-05-03T15:57:18Z</time></trkpt><trkpt lat="41.06699095080947" lon="9.508229579200197"><ele>88.66666666666666</ele><time>2026-05-03T15:57:19Z</time></trkpt><trkpt lat="41.06687866682407" lon="9.50841728900682"><ele>88.0</ele><time>2026-05-03T15:57:20Z</time></trkpt><trkpt lat="41.06680338165764" lon="9.508621490217413"><ele>87.33333333333333</ele><time>2026-05-03T15:57:21Z</time></trkpt><trkpt lat="41.06676018088636" lon="9.508846165403076"><ele>86.66666666666667</ele><time>2026-05-03T15:57:22Z</time></trkpt><trkpt lat="41.06674374475154" lon="9.509078024360646"><ele>86.0</ele><time>2026-05-03T15:57:23Z</time></trkpt><trkpt lat="41.066761303022595" lon="9.509311328730599"><ele>86.0</ele><time>2026-05-03T15:57:24Z</time></trkpt><trkpt lat="41.066786122706375" lon="9.509528808869359"><ele>86.0</ele><time>2026-05-03T15:57:25Z</time></trkpt><trkpt lat="41.06680422332362" lon="9.509737773298966"><ele>86.0</ele><time>2026-05-03T15:57:26Z</time></trkpt><trkpt lat="41.066807720151104" lon="9.509958120130998"><ele>83.66666666666667</ele><time>2026-05-03T15:57:27Z</time></trkpt><trkpt lat="41.066809142096034" lon="9.510181327813354"><ele>81.33333333333333</ele><time>2026-05-03T15:57:28Z</time></trkpt><trkpt lat="41.066797398653875" lon="9.51040864276972"><ele>79.0</ele><time>2026-05-03T15:57:29Z</time></trkpt><trkpt lat="41.066748946130254" lon="9.510627859283606"><ele>78.0</ele><time>2026-05-03T15:57:30Z</time></trkpt><trkpt lat="41.06666626420912" lon="9.510832717749048"><ele>77.0</ele><time>2026-05-03T15:57:31Z</time></trkpt><trkpt lat="41.06655932913228" lon="9.511019448144818"><ele>76.0</ele><time>2026-05-03T15:57:32Z</time></trkpt><trkpt lat="41.06642663567675" lon="9.511194287544027"><ele>75.0</ele><time>2026-05-03T15:57:33Z</time></trkpt><trkpt lat="41.06628379626099" lon="9.51134575425212"><ele>74.0</ele><time>2026-05-03T15:57:34Z</time></trkpt><trkpt lat="41.0661579760573" lon="9.511499809860515"><ele>73.0</ele><time>2026-05-03T15:57:35Z</time></trkpt><trkpt lat="41.06602974264178" lon="9.51163195922217"><ele>73.0</ele><time>2026-05-03T15:57:36Z</time></trkpt><trkpt lat="41.06590446092779" lon="9.511779231531579"><ele>73.0</ele><time>2026-05-03T15:57:37Z</time></trkpt><trkpt lat="41.065797832018404" lon="9.511955555155074"><ele>73.0</ele><time>2026-05-03T15:57:38Z</time></trkpt><trkpt lat="41.06569497509187" lon="9.512139244996161"><ele>72.66666666666666</ele><time>2026-05-03T15:57:39Z</time></trkpt><trkpt lat="41.06563175014953" lon="9.512349155492513"><ele>72.33333333333333</ele><time>2026-05-03T15:57:40Z</time></trkpt><trkpt lat="41.065543075260514" lon="9.512535731775172"><ele>72.0</ele><time>2026-05-03T15:57:41Z</time></trkpt><trkpt lat="41.0654327335591" lon="9.512679496038537"><ele>72.0</ele><time>2026-05-03T15:57:42Z</time></trkpt><trkpt lat="41.06530884006188" lon="9.512793767564368"><ele>72.0</ele><time>2026-05-03T15:57:43Z</time></trkpt><trkpt lat="41.065177776645044" lon="9.512884574379406"><ele>72.0</ele><time>2026-05-03T15:57:44Z</time></trkpt><trkpt lat="41.06503796253571" lon="9.512950388588699"><ele>72.0</ele><time>2026-05-03T15:57:45Z</time></trkpt><trkpt lat="41.06488298010609" lon="9.512962642493564"><ele>67.0</ele><time>2026-05-03T15:57:46Z</time></trkpt><trkpt lat="41.06473148677432" lon="9.51300981995057"><ele>62.0</ele><time>2026-05-03T15:57:47Z</time></trkpt><trkpt lat="41.06457340184956" lon="9.513034208997034"><ele>57.0</ele><time>2026-05-03T15:57:48Z</time></trkpt><trkpt lat="41.06441469953582" lon="9.5130656906166"><ele>57.0</ele><time>2026-05-03T15:57:48.999Z</time></trkpt><trkpt lat="41.0642555910603" lon="9.513100051154185"><ele>57.0</ele><time>2026-05-03T15:57:49.999Z</time></trkpt><trkpt lat="41.06409594678778" lon="9.513132954747453"><ele>57.0</ele><time>2026-05-03T15:57:50.999Z</time></trkpt><trkpt lat="41.06393353124153" lon="9.513159684312441"><ele>56.0</ele><time>2026-05-03T15:57:51.999Z</time></trkpt><trkpt lat="41.06376940499188" lon="9.513176624021549"><ele>55.0</ele><time>2026-05-03T15:57:52.999Z</time></trkpt><trkpt lat="41.06360846134416" lon="9.513187988070214"><ele>54.0</ele><time>2026-05-03T15:57:53.999Z</time></trkpt><trkpt lat="41.06345053729471" lon="9.513198490921278"><ele>54.0</ele><time>2026-05-03T15:57:54.999Z</time></trkpt><trkpt lat="41.06329474528695" lon="9.513209158574984"><ele>54.0</ele><time>2026-05-03T15:57:55.999Z</time></trkpt><trkpt lat="41.063140220273254" lon="9.513221891558405"><ele>54.0</ele><time>2026-05-03T15:57:56.999Z</time></trkpt><trkpt lat="41.06298526554085" lon="9.513237680443257"><ele>50.333333333333336</ele><time>2026-05-03T15:57:57.999Z</time></trkpt><trkpt lat="41.062827411370804" lon="9.513253031369155"><ele>46.66666666666667</ele><time>2026-05-03T15:57:58.999Z</time></trkpt><trkpt lat="41.062667586211944" lon="9.513266831830794"><ele>43.0</ele><time>2026-05-03T15:57:59.999Z</time></trkpt><trkpt lat="41.062507136566936" lon="9.513280043452152"><ele>44.0</ele><time>2026-05-03T15:58:00.999Z</time></trkpt><trkpt lat="41.06235385490731" lon="9.513300573022859"><ele>45.0</ele><time>2026-05-03T15:58:01.999Z</time></trkpt><trkpt lat="41.06220747173197" lon="9.513341151817762"><ele>46.0</ele><time>2026-05-03T15:58:02.999Z</time></trkpt><trkpt lat="41.062071502409076" lon="9.513409201596621"><ele>47.0</ele><time>2026-05-03T15:58:03.999Z</time></trkpt><trkpt lat="41.061948767913385" lon="9.513498460301545"><ele>47.0</ele><time>2026-05-03T15:58:04.999Z</time></trkpt><trkpt lat="41.06183502169963" lon="9.513608324489006"><ele>47.0</ele><time>2026-05-03T15:58:05.999Z</time></trkpt><trkpt lat="41.061734097632595" lon="9.513739627156294"><ele>47.0</ele><time>2026-05-03T15:58:06.999Z</time></trkpt><trkpt lat="41.061647263412695" lon="9.513887027630464"><ele>47.0</ele><time>2026-05-03T15:58:07.999Z</time></trkpt><trkpt lat="41.061573231023075" lon="9.514041433959902"><ele>46.75</ele><time>2026-05-03T15:58:08.999Z</time></trkpt><trkpt lat="41.061505497847584" lon="9.51420933272715"><ele>46.5</ele><time>2026-05-03T15:58:09.999Z</time></trkpt><trkpt lat="41.061439211897365" lon="9.514373563131166"><ele>46.25</ele><time>2026-05-03T15:58:10.999Z</time></trkpt><trkpt lat="41.061374806716074" lon="9.514530155263168"><ele>46.0</ele><time>2026-05-03T15:58:11.999Z</time></trkpt><trkpt lat="41.06131037785398" lon="9.514677572344617"><ele>43.75</ele><time>2026-05-03T15:58:12.999Z</time></trkpt><trkpt lat="41.06124291054717" lon="9.514811567313302"><ele>41.5</ele><time>2026-05-03T15:58:13.999Z</time></trkpt><trkpt lat="41.06116645880995" lon="9.514940473671851"><ele>39.25</ele><time>2026-05-03T15:58:14.999Z</time></trkpt><trkpt lat="41.061081261023354" lon="9.515066971840504"><ele>37.0</ele><time>2026-05-03T15:58:15.999Z</time></trkpt><trkpt lat="41.060984185142786" lon="9.51518832553518"><ele>37.0</ele><time>2026-05-03T15:58:16.999Z</time></trkpt><trkpt lat="41.0608700160419" lon="9.515287226828185"><ele>37.0</ele><time>2026-05-03T15:58:18Z</time></trkpt><trkpt lat="41.06074815533011" lon="9.515402408891616"><ele>37.0</ele><time>2026-05-03T15:58:19Z</time></trkpt><trkpt lat="41.06061579447256" lon="9.515501561383026"><ele>37.0</ele><time>2026-05-03T15:58:20Z</time></trkpt><trkpt lat="41.06048029398524" lon="9.515598081777643"><ele>36.0</ele><time>2026-05-03T15:58:21Z</time></trkpt><trkpt lat="41.060341554766474" lon="9.515701704124933"><ele>35.0</ele><time>2026-05-03T15:58:22Z</time></trkpt><trkpt lat="41.060200813157365" lon="9.515808977836553"><ele>34.0</ele><time>2026-05-03T15:58:23Z</time></trkpt><trkpt lat="41.06005683967364" lon="9.51591678054589"><ele>33.0</ele><time>2026-05-03T15:58:24Z</time></trkpt><trkpt lat="41.05991202928831" lon="9.5160226628639"><ele>32.0</ele><time>2026-05-03T15:58:25Z</time></trkpt><trkpt lat="41.05976483382063" lon="9.516132874628704"><ele>31.0</ele><time>2026-05-03T15:58:26Z</time></trkpt><trkpt lat="41.05961782269674" lon="9.51624372949744"><ele>31.0</ele><time>2026-05-03T15:58:27Z</time></trkpt><trkpt lat="41.05946824338766" lon="9.516355796969917"><ele>31.0</ele><time>2026-05-03T15:58:28Z</time></trkpt><trkpt lat="41.059318772210034" lon="9.516466655669337"><ele>31.0</ele><time>2026-05-03T15:58:29Z</time></trkpt><trkpt lat="41.05916881273988" lon="9.516577523409422"><ele>32.0</ele><time>2026-05-03T15:58:30Z</time></trkpt><trkpt lat="41.05901898697287" lon="9.516684474893548"><ele>33.0</ele><time>2026-05-03T15:58:31Z</time></trkpt><trkpt lat="41.05887579105327" lon="9.516787776032881"><ele>34.0</ele><time>2026-05-03T15:58:32Z</time></trkpt><trkpt lat="41.05873390289988" lon="9.516891029661096"><ele>34.0</ele><time>2026-05-03T15:58:33Z</time></trkpt><trkpt lat="41.058597518250956" lon="9.51699465199394"><ele>34.0</ele><time>2026-05-03T15:58:34Z</time></trkpt><trkpt lat="41.058464102011364" lon="9.517108160632079"><ele>34.0</ele><time>2026-05-03T15:58:35Z</time></trkpt><trkpt lat="41.05834128187152" lon="9.517235087270086"><ele>32.0</ele><time>2026-05-03T15:58:36Z</time></trkpt><trkpt lat="41.058225108134565" lon="9.517377659260957"><ele>30.0</ele><time>2026-05-03T15:58:37Z</time></trkpt><trkpt lat="41.058110720476016" lon="9.51753113063281"><ele>28.0</ele><time>2026-05-03T15:58:38Z</time></trkpt><trkpt lat="41.05799494947867" lon="9.517690667730506"><ele>28.0</ele><time>2026-05-03T15:58:39Z</time></trkpt><trkpt lat="41.05787735944975" lon="9.517849836155328"><ele>28.0</ele><time>2026-05-03T15:58:40Z</time></trkpt><trkpt lat="41.057759032770214" lon="9.518006300144954"><ele>28.0</ele><time>2026-05-03T15:58:41Z</time></trkpt><trkpt lat="41.057642084028615" lon="9.51816264327484"><ele>26.666666666666668</ele><time>2026-05-03T15:58:42Z</time></trkpt><trkpt lat="41.057520050221825" lon="9.5183108205364"><ele>25.333333333333336</ele><time>2026-05-03T15:58:43Z</time></trkpt><trkpt lat="41.05738957317367" lon="9.518443268208635"><ele>24.0</ele><time>2026-05-03T15:58:44Z</time></trkpt><trkpt lat="41.057247819103466" lon="9.51855385205268"><ele>23.0</ele><time>2026-05-03T15:58:45Z</time></trkpt><trkpt lat="41.057099398813904" lon="9.518635744062326"><ele>22.0</ele><time>2026-05-03T15:58:46Z</time></trkpt><trkpt lat="41.05695144336939" lon="9.518693299438066"><ele>21.0</ele><time>2026-05-03T15:58:47Z</time></trkpt><trkpt lat="41.05680091966909" lon="9.518701616875905"><ele>21.0</ele><time>2026-05-03T15:58:48Z</time></trkpt><trkpt lat="41.05664307721421" lon="9.518679025197677"><ele>21.0</ele><time>2026-05-03T15:58:49Z</time></trkpt><trkpt lat="41.05648001921112" lon="9.518649106750326"><ele>21.0</ele><time>2026-05-03T15:58:50Z</time></trkpt><trkpt lat="41.05630876852966" lon="9.5186171096704"><ele>18.666666666666668</ele><time>2026-05-03T15:58:51Z</time></trkpt><trkpt lat="41.05613344570052" lon="9.518580661063075"><ele>16.333333333333336</ele><time>2026-05-03T15:58:52Z</time></trkpt><trkpt lat="41.055958499430105" lon="9.518545131490999"><ele>14.0</ele><time>2026-05-03T15:58:53Z</time></trkpt><trkpt lat="41.05579151242234" lon="9.518514546967065"><ele>13.666666666666668</ele><time>2026-05-03T15:58:54Z</time></trkpt><trkpt lat="41.05563167351648" lon="9.518481220907901"><ele>13.333333333333332</ele><time>2026-05-03T15:58:55Z</time></trkpt><trkpt lat="41.05547090589839" lon="9.518430940804748"><ele>13.0</ele><time>2026-05-03T15:58:56Z</time></trkpt><trkpt lat="41.05531732897416" lon="9.518354721561614"><ele>13.0</ele><time>2026-05-03T15:58:57Z</time></trkpt><trkpt lat="41.05517135090201" lon="9.5182549776827"><ele>13.0</ele><time>2026-05-03T15:58:58Z</time></trkpt><trkpt lat="41.0550366901171" lon="9.518131120936026"><ele>13.0</ele><time>2026-05-03T15:58:59Z</time></trkpt><trkpt lat="41.05491146197382" lon="9.517989406673818"><ele>13.333333333333332</ele><time>2026-05-03T15:59:00Z</time></trkpt><trkpt lat="41.05479548222294" lon="9.517839453943846"><ele>13.666666666666668</ele><time>2026-05-03T15:59:01Z</time></trkpt><trkpt lat="41.05468160113841" lon="9.517686251771304"><ele>14.0</ele><time>2026-05-03T15:59:02Z</time></trkpt><trkpt lat="41.054565886121374" lon="9.51753420743329"><ele>14.0</ele><time>2026-05-03T15:59:03Z</time></trkpt><trkpt lat="41.05444760491188" lon="9.517384599670581"><ele>14.0</ele><time>2026-05-03T15:59:04Z</time></trkpt><trkpt lat="41.05433117164477" lon="9.517234616482352"><ele>14.0</ele><time>2026-05-03T15:59:05Z</time></trkpt><trkpt lat="41.05421735397453" lon="9.517079888846233"><ele>16.0</ele><time>2026-05-03T15:59:06Z</time></trkpt><trkpt lat="41.05410003791735" lon="9.516933447050025"><ele>18.0</ele><time>2026-05-03T15:59:07Z</time></trkpt><trkpt lat="41.053977354098194" lon="9.516796179015794"><ele>20.0</ele><time>2026-05-03T15:59:08Z</time></trkpt><trkpt lat="41.05384687992313" lon="9.516670021990139"><ele>20.0</ele><time>2026-05-03T15:59:09Z</time></trkpt><trkpt lat="41.053707707070615" lon="9.51655929216623"><ele>20.0</ele><time>2026-05-03T15:59:10Z</time></trkpt><trkpt lat="41.05356134823831" lon="9.516466077983598"><ele>20.0</ele><time>2026-05-03T15:59:11Z</time></trkpt><trkpt lat="41.053410386670706" lon="9.516386608436887"><ele>21.666666666666668</ele><time>2026-05-03T15:59:12Z</time></trkpt><trkpt lat="41.05325850454792" lon="9.516317120826155"><ele>23.333333333333336</ele><time>2026-05-03T15:59:13Z</time></trkpt><trkpt lat="41.053103217677304" lon="9.516248974677117"><ele>25.0</ele><time>2026-05-03T15:59:14Z</time></trkpt><trkpt lat="41.052949304288326" lon="9.516178903025548"><ele>25.333333333333336</ele><time>2026-05-03T15:59:15Z</time></trkpt><trkpt lat="41.0527902530951" lon="9.516118509476623"><ele>25.666666666666664</ele><time>2026-05-03T15:59:16Z</time></trkpt><trkpt lat="41.05262198961105" lon="9.516075379863754"><ele>26.0</ele><time>2026-05-03T15:59:17Z</time></trkpt><trkpt lat="41.05244902673838" lon="9.516050429203444"><ele>26.0</ele><time>2026-05-03T15:59:18Z</time></trkpt><trkpt lat="41.05226916099003" lon="9.516052448235019"><ele>26.0</ele><time>2026-05-03T15:59:19Z</time></trkpt><trkpt lat="41.05208623639003" lon="9.516083714091685"><ele>26.0</ele><time>2026-05-03T15:59:20Z</time></trkpt><trkpt lat="41.051903614217096" lon="9.516135399505954"><ele>26.0</ele><time>2026-05-03T15:59:21Z</time></trkpt><trkpt lat="41.05171755909164" lon="9.516195754896136"><ele>26.0</ele><time>2026-05-03T15:59:22Z</time></trkpt><trkpt lat="41.051526506170724" lon="9.516240412744171"><ele>26.0</ele><time>2026-05-03T15:59:23Z</time></trkpt><trkpt lat="41.05133624761193" lon="9.516305073735005"><ele>23.666666666666664</ele><time>2026-05-03T15:59:24Z</time></trkpt><trkpt lat="41.05114494218835" lon="9.516370090512288"><ele>21.333333333333332</ele><time>2026-05-03T15:59:25Z</time></trkpt><trkpt lat="41.050950676903625" lon="9.516436135227229"><ele>19.0</ele><time>2026-05-03T15:59:26Z</time></trkpt><trkpt lat="41.050758643085516" lon="9.516501451161318"><ele>19.0</ele><time>2026-05-03T15:59:27Z</time></trkpt><trkpt lat="41.05057307901044" lon="9.516564566569162"><ele>19.0</ele><time>2026-05-03T15:59:28Z</time></trkpt><trkpt lat="41.0503972237039" lon="9.516624379751214"><ele>19.0</ele><time>2026-05-03T15:59:29Z</time></trkpt><trkpt lat="41.05022223553833" lon="9.516683897992822"><ele>19.0</ele><time>2026-05-03T15:59:30Z</time></trkpt><trkpt lat="41.05004171578486" lon="9.516745297685794"><ele>19.0</ele><time>2026-05-03T15:59:31Z</time></trkpt><trkpt lat="41.04989762160443" lon="9.516800965207956"><ele>19.0</ele><time>2026-05-03T15:59:32Z</time></trkpt><trkpt lat="41.049724501901906" lon="9.516860645512786"><ele>17.333333333333332</ele><time>2026-05-03T15:59:32.999Z</time></trkpt><trkpt lat="41.049555557888624" lon="9.516921152847276"><ele>15.666666666666668</ele><time>2026-05-03T15:59:33.999Z</time></trkpt><trkpt lat="41.04938655395266" lon="9.51697896585943"><ele>14.0</ele><time>2026-05-03T15:59:34.999Z</time></trkpt><trkpt lat="41.04921818647375" lon="9.517037553096907"><ele>14.666666666666668</ele><time>2026-05-03T15:59:35.999Z</time></trkpt><trkpt lat="41.049052972428086" lon="9.517097557668668"><ele>15.333333333333332</ele><time>2026-05-03T15:59:36.999Z</time></trkpt><trkpt lat="41.048890010747556" lon="9.517152923741126"><ele>16.0</ele><time>2026-05-03T15:59:37.999Z</time></trkpt><trkpt lat="41.04873105354414" lon="9.517210131278036"><ele>16.0</ele><time>2026-05-03T15:59:38.999Z</time></trkpt><trkpt lat="41.04857501594353" lon="9.517280649207372"><ele>16.0</ele><time>2026-05-03T15:59:39.999Z</time></trkpt><trkpt lat="41.048424016868104" lon="9.517353715178393"><ele>16.0</ele><time>2026-05-03T15:59:40.999Z</time></trkpt><trkpt lat="41.04827468730673" lon="9.517435114238324"><ele>16.666666666666664</ele><time>2026-05-03T15:59:41.999Z</time></trkpt><trkpt lat="41.04811995676947" lon="9.517509355160772"><ele>17.333333333333332</ele><time>2026-05-03T15:59:42.999Z</time></trkpt><trkpt lat="41.04796448653381" lon="9.517586880659527"><ele>18.0</ele><time>2026-05-03T15:59:43.999Z</time></trkpt><trkpt lat="41.04780762865847" lon="9.517677481969985"><ele>18.0</ele><time>2026-05-03T15:59:44.999Z</time></trkpt><trkpt lat="41.04764501027049" lon="9.517773626917437"><ele>18.0</ele><time>2026-05-03T15:59:45.999Z</time></trkpt><trkpt lat="41.047478959423714" lon="9.517872083704852"><ele>18.0</ele><time>2026-05-03T15:59:46.999Z</time></trkpt><trkpt lat="41.04730737653673" lon="9.51796450330026"><ele>16.0</ele><time>2026-05-03T15:59:47.999Z</time></trkpt><trkpt lat="41.04713300645992" lon="9.518056267139473"><ele>14.0</ele><time>2026-05-03T15:59:48.999Z</time></trkpt><trkpt lat="41.04695610772731" lon="9.518141200932233"><ele>12.0</ele><time>2026-05-03T15:59:49.999Z</time></trkpt><trkpt lat="41.04677251387395" lon="9.518218558766897"><ele>13.333333333333332</ele><time>2026-05-03T15:59:50.999Z</time></trkpt><trkpt lat="41.04658483574077" lon="9.518281525775118"><ele>14.666666666666666</ele><time>2026-05-03T15:59:51.999Z</time></trkpt><trkpt lat="41.046397954491056" lon="9.51834038167072"><ele>16.0</ele><time>2026-05-03T15:59:52.999Z</time></trkpt><trkpt lat="41.04620669818006" lon="9.51839953386976"><ele>16.0</ele><time>2026-05-03T15:59:53.999Z</time></trkpt><trkpt lat="41.04602111292372" lon="9.518459137686994"><ele>16.0</ele><time>2026-05-03T15:59:54.999Z</time></trkpt><trkpt lat="41.045841971301925" lon="9.51852173997364"><ele>16.0</ele><time>2026-05-03T15:59:55.999Z</time></trkpt><trkpt lat="41.04566446081225" lon="9.5185838473172"><ele>18.333333333333332</ele><time>2026-05-03T15:59:56.999Z</time></trkpt><trkpt lat="41.0454888916329" lon="9.518638982768323"><ele>20.666666666666668</ele><time>2026-05-03T15:59:57.999Z</time></trkpt><trkpt lat="41.045315461680836" lon="9.518684520531632"><ele>23.0</ele><time>2026-05-03T15:59:58.999Z</time></trkpt><trkpt lat="41.04514302326352" lon="9.518686601796498"><ele>23.0</ele><time>2026-05-03T15:59:59.999Z</time></trkpt><trkpt lat="41.0449757915378" lon="9.518686122630822"><ele>23.0</ele><time>2026-05-03T16:00:00.999Z</time></trkpt><trkpt lat="41.04480608086267" lon="9.518668722579159"><ele>23.0</ele><time>2026-05-03T16:00:01.999Z</time></trkpt><trkpt lat="41.04463194988277" lon="9.518637822004989"><ele>24.333333333333336</ele><time>2026-05-03T16:00:02.999Z</time></trkpt><trkpt lat="41.04446974325775" lon="9.518601952674363"><ele>25.666666666666668</ele><time>2026-05-03T16:00:03.999Z</time></trkpt><trkpt lat="41.04429864327059" lon="9.518572928823387"><ele>27.0</ele><time>2026-05-03T16:00:04.999Z</time></trkpt><trkpt lat="41.04413343744159" lon="9.51855006795959"><ele>28.333333333333336</ele><time>2026-05-03T16:00:05.999Z</time></trkpt><trkpt lat="41.04397170056388" lon="9.518528428090866"><ele>29.666666666666668</ele><time>2026-05-03T16:00:06.999Z</time></trkpt><trkpt lat="41.0438109229202" lon="9.518503066922106"><ele>31.0</ele><time>2026-05-03T16:00:07.999Z</time></trkpt><trkpt lat="41.04365826582971" lon="9.518468399486016"><ele>31.0</ele><time>2026-05-03T16:00:08.999Z</time></trkpt><trkpt lat="41.043495153810255" lon="9.518437700292175"><ele>31.0</ele><time>2026-05-03T16:00:09.999Z</time></trkpt><trkpt lat="41.04333268499422" lon="9.518408192383523"><ele>31.0</ele><time>2026-05-03T16:00:10.999Z</time></trkpt><trkpt lat="41.04317762580709" lon="9.5183712342691"><ele>30.666666666666668</ele><time>2026-05-03T16:00:11.999Z</time></trkpt><trkpt lat="41.04301717321953" lon="9.518337876182319"><ele>30.333333333333336</ele><time>2026-05-03T16:00:12.999Z</time></trkpt><trkpt lat="41.042854313430595" lon="9.518305110605638"><ele>30.0</ele><time>2026-05-03T16:00:13.999Z</time></trkpt><trkpt lat="41.04268636748788" lon="9.518279545262345"><ele>30.0</ele><time>2026-05-03T16:00:14.999Z</time></trkpt><trkpt lat="41.04252018563898" lon="9.518252501448563"><ele>30.0</ele><time>2026-05-03T16:00:15.999Z</time></trkpt><trkpt lat="41.042355923129904" lon="9.51821948320034"><ele>30.0</ele><time>2026-05-03T16:00:16.999Z</time></trkpt><trkpt lat="41.04218556867198" lon="9.518182923806545"><ele>30.666666666666664</ele><time>2026-05-03T16:00:17.999Z</time></trkpt><trkpt lat="41.04201648802925" lon="9.518150272802684"><ele>31.333333333333332</ele><time>2026-05-03T16:00:18.999Z</time></trkpt><trkpt lat="41.04184065071667" lon="9.518123402717437"><ele>32.0</ele><time>2026-05-03T16:00:19.999Z</time></trkpt><trkpt lat="41.0416849300695" lon="9.518058460870105"><ele>30.666666666666664</ele><time>2026-05-03T16:00:20.999Z</time></trkpt><trkpt lat="41.0415225966248" lon="9.517972657492773"><ele>29.333333333333336</ele><time>2026-05-03T16:00:21.999Z</time></trkpt><trkpt lat="41.0413626075141" lon="9.517854863819245"><ele>28.0</ele><time>2026-05-03T16:00:22.999Z</time></trkpt><trkpt lat="41.04119927673346" lon="9.517726401515771"><ele>31.0</ele><time>2026-05-03T16:00:24Z</time></trkpt><trkpt lat="41.041025228050714" lon="9.51761086122165"><ele>34.0</ele><time>2026-05-03T16:00:25Z</time></trkpt><trkpt lat="41.0408614544186" lon="9.517470861411024"><ele>37.0</ele><time>2026-05-03T16:00:26Z</time></trkpt><trkpt lat="41.04069611745624" lon="9.51733851053751"><ele>37.333333333333336</ele><time>2026-05-03T16:00:27Z</time></trkpt><trkpt lat="41.04053644244608" lon="9.51721092351768"><ele>37.666666666666664</ele><time>2026-05-03T16:00:28Z</time></trkpt><trkpt lat="41.04037863139157" lon="9.517088486518611"><ele>38.0</ele><time>2026-05-03T16:00:29Z</time></trkpt><trkpt lat="41.040219948889586" lon="9.516974205772035"><ele>41.0</ele><time>2026-05-03T16:00:30Z</time></trkpt><trkpt lat="41.04005973934328" lon="9.516877134458383"><ele>44.0</ele><time>2026-05-03T16:00:31Z</time></trkpt><trkpt lat="41.03989594303819" lon="9.516810751987219"><ele>47.0</ele><time>2026-05-03T16:00:32Z</time></trkpt><trkpt lat="41.03972341731174" lon="9.51679003011319"><ele>47.0</ele><time>2026-05-03T16:00:33Z</time></trkpt><trkpt lat="41.03954507421684" lon="9.516811044792565"><ele>47.0</ele><time>2026-05-03T16:00:34Z</time></trkpt><trkpt lat="41.039369455536665" lon="9.516852249832711"><ele>47.0</ele><time>2026-05-03T16:00:35Z</time></trkpt><trkpt lat="41.03920477981109" lon="9.516885704056662"><ele>49.0</ele><time>2026-05-03T16:00:36Z</time></trkpt><trkpt lat="41.03906288548462" lon="9.516910369231812"><ele>51.0</ele><time>2026-05-03T16:00:37Z</time></trkpt><trkpt lat="41.038930693988014" lon="9.516929336344633"><ele>53.0</ele><time>2026-05-03T16:00:38Z</time></trkpt><trkpt lat="41.03879896078387" lon="9.51694275079492"><ele>55.0</ele><time>2026-05-03T16:00:39Z</time></trkpt><trkpt lat="41.038668438323505" lon="9.516948454805256"><ele>55.0</ele><time>2026-05-03T16:00:40Z</time></trkpt><trkpt lat="41.03854037573954" lon="9.516937943833053"><ele>55.0</ele><time>2026-05-03T16:00:41Z</time></trkpt><trkpt lat="41.03841350366048" lon="9.516884870293328"><ele>55.0</ele><time>2026-05-03T16:00:42Z</time></trkpt><trkpt lat="41.038284807354465" lon="9.516831311681694"><ele>55.0</ele><time>2026-05-03T16:00:43Z</time></trkpt><trkpt lat="41.03816155729551" lon="9.51676174145113"><ele>54.75</ele><time>2026-05-03T16:00:44Z</time></trkpt><trkpt lat="41.038032939507026" lon="9.516703267129662"><ele>54.5</ele><time>2026-05-03T16:00:45Z</time></trkpt><trkpt lat="41.037914934367855" lon="9.516621530032099"><ele>54.25</ele><time>2026-05-03T16:00:46Z</time></trkpt><trkpt lat="41.037798718978465" lon="9.516549975755309"><ele>54.0</ele><time>2026-05-03T16:00:47Z</time></trkpt><trkpt lat="41.03768453173268" lon="9.516487079614604"><ele>54.0</ele><time>2026-05-03T16:00:48Z</time></trkpt><trkpt lat="41.03757367018586" lon="9.516441974879124"><ele>54.0</ele><time>2026-05-03T16:00:49Z</time></trkpt><trkpt lat="41.03745929922722" lon="9.516430431920256"><ele>54.0</ele><time>2026-05-03T16:00:50Z</time></trkpt><trkpt lat="41.03734203212457" lon="9.516462743866205"><ele>54.0</ele><time>2026-05-03T16:00:51Z</time></trkpt><trkpt lat="41.03722916897518" lon="9.516539177902914"><ele>57.5</ele><time>2026-05-03T16:00:52Z</time></trkpt><trkpt lat="41.03712608479074" lon="9.516651806378546"><ele>61.0</ele><time>2026-05-03T16:00:53Z</time></trkpt><trkpt lat="41.037030365223444" lon="9.51678122495483"><ele>64.5</ele><time>2026-05-03T16:00:54Z</time></trkpt><trkpt lat="41.036935612461335" lon="9.516907780630268"><ele>68.0</ele><time>2026-05-03T16:00:55Z</time></trkpt><trkpt lat="41.03684497253326" lon="9.516993509170188"><ele>68.0</ele><time>2026-05-03T16:00:56Z</time></trkpt><trkpt lat="41.03674726772237" lon="9.517010256351497"><ele>68.0</ele><time>2026-05-03T16:00:57Z</time></trkpt><trkpt lat="41.03664864192798" lon="9.51703375925436"><ele>68.0</ele><time>2026-05-03T16:00:58Z</time></trkpt><trkpt lat="41.036548732215856" lon="9.517017213764932"><ele>68.0</ele><time>2026-05-03T16:00:59Z</time></trkpt><trkpt lat="41.03645256385288" lon="9.516979512235276"><ele>68.0</ele><time>2026-05-03T16:01:00Z</time></trkpt><trkpt lat="41.036355196323434" lon="9.516931692138634"><ele>68.0</ele><time>2026-05-03T16:01:01Z</time></trkpt><trkpt lat="41.0362600519571" lon="9.516896819601781"><ele>68.0</ele><time>2026-05-03T16:01:02Z</time></trkpt><trkpt lat="41.0361746262732" lon="9.516844422024757"><ele>68.0</ele><time>2026-05-03T16:01:03Z</time></trkpt><trkpt lat="41.03610899978106" lon="9.516807547736363"><ele>68.0</ele><time>2026-05-03T16:01:04Z</time></trkpt><trkpt lat="41.036020849724224" lon="9.516755530221229"><ele>68.0</ele><time>2026-05-03T16:01:06Z</time></trkpt><trkpt lat="41.035956257675785" lon="9.516718890302"><ele>68.0</ele><time>2026-05-03T16:01:08Z</time></trkpt><trkpt lat="41.03587740484295" lon="9.516649621258406"><ele>68.0</ele><time>2026-05-03T16:01:10Z</time></trkpt><trkpt lat="41.03582923810015" lon="9.516582461686902"><ele>68.0</ele><time>2026-05-03T16:01:11Z</time></trkpt><trkpt lat="41.03577635980714" lon="9.516509448887271"><ele>68.0</ele><time>2026-05-03T16:01:12Z</time></trkpt><trkpt lat="41.03572606627266" lon="9.516444312682724"><ele>68.0</ele><time>2026-05-03T16:01:13Z</time></trkpt><trkpt lat="41.035665679491565" lon="9.516412458966713"><ele>68.0</ele><time>2026-05-03T16:01:22Z</time></trkpt><trkpt lat="41.03559834606905" lon="9.51638850776282"><ele>68.0</ele><time>2026-05-03T16:01:27Z</time></trkpt><trkpt lat="41.03547564332249" lon="9.516485199988761"><ele>70.0</ele><time>2026-05-03T16:01:29Z</time></trkpt><trkpt lat="41.03541670253488" lon="9.516631069318139"><ele>72.0</ele><time>2026-05-03T16:01:30Z</time></trkpt><trkpt lat="41.03533381301536" lon="9.516823160848258"><ele>74.0</ele><time>2026-05-03T16:01:31Z</time></trkpt><trkpt lat="41.03526319816476" lon="9.51705392878577"><ele>70.0</ele><time>2026-05-03T16:01:32Z</time></trkpt><trkpt lat="41.03517848662073" lon="9.517254028478085"><ele>66.0</ele><time>2026-05-03T16:01:33Z</time></trkpt><trkpt lat="41.0350935598502" lon="9.517418148247529"><ele>62.0</ele><time>2026-05-03T16:01:34Z</time></trkpt><trkpt lat="41.034992667144714" lon="9.517547002756906"><ele>63.25</ele><time>2026-05-03T16:01:35Z</time></trkpt><trkpt lat="41.034883478058596" lon="9.51764734747432"><ele>64.5</ele><time>2026-05-03T16:01:36Z</time></trkpt><trkpt lat="41.03478144513775" lon="9.51774925670537"><ele>65.75</ele><time>2026-05-03T16:01:37Z</time></trkpt><trkpt lat="41.03468174018875" lon="9.51785100183229"><ele>67.0</ele><time>2026-05-03T16:01:38Z</time></trkpt><trkpt lat="41.03456854516116" lon="9.517948430737091"><ele>65.25</ele><time>2026-05-03T16:01:39Z</time></trkpt><trkpt lat="41.034434635349015" lon="9.518013136846886"><ele>63.5</ele><time>2026-05-03T16:01:40Z</time></trkpt><trkpt lat="41.03430879296479" lon="9.518106274201807"><ele>61.75</ele><time>2026-05-03T16:01:41Z</time></trkpt><trkpt lat="41.03418402519219" lon="9.518166577910135"><ele>60.0</ele><time>2026-05-03T16:01:42Z</time></trkpt><trkpt lat="41.034070597747586" lon="9.518233975126064"><ele>60.0</ele><time>2026-05-03T16:01:43Z</time></trkpt><trkpt lat="41.03396994209979" lon="9.518314562311675"><ele>60.0</ele><time>2026-05-03T16:01:44Z</time></trkpt><trkpt lat="41.03387846942682" lon="9.518416773156275"><ele>60.0</ele><time>2026-05-03T16:01:45Z</time></trkpt><trkpt lat="41.03378945679061" lon="9.5185473646635"><ele>60.0</ele><time>2026-05-03T16:01:46Z</time></trkpt><trkpt lat="41.033703680299496" lon="9.518690331936213"><ele>56.0</ele><time>2026-05-03T16:01:47Z</time></trkpt><trkpt lat="41.03361946974953" lon="9.518830160370305"><ele>52.0</ele><time>2026-05-03T16:01:48Z</time></trkpt><trkpt lat="41.03352713358198" lon="9.518926579456002"><ele>48.0</ele><time>2026-05-03T16:01:49Z</time></trkpt><trkpt lat="41.03341913870173" lon="9.518976147758147"><ele>44.0</ele><time>2026-05-03T16:01:50Z</time></trkpt><trkpt lat="41.03330059362193" lon="9.518944723984612"><ele>43.0</ele><time>2026-05-03T16:01:51Z</time></trkpt><trkpt lat="41.03318099234747" lon="9.518927097125049"><ele>42.0</ele><time>2026-05-03T16:01:52Z</time></trkpt><trkpt lat="41.03306406439342" lon="9.51889297958277"><ele>41.0</ele><time>2026-05-03T16:01:52.999Z</time></trkpt><trkpt lat="41.03295518190236" lon="9.518893485387716"><ele>40.0</ele><time>2026-05-03T16:01:53.999Z</time></trkpt><trkpt lat="41.032851576267234" lon="9.518912020453786"><ele>40.0</ele><time>2026-05-03T16:01:54.999Z</time></trkpt><trkpt lat="41.032738361344066" lon="9.518947926140646"><ele>40.0</ele><time>2026-05-03T16:01:55.999Z</time></trkpt><trkpt lat="41.032615149304306" lon="9.51900532735408"><ele>40.0</ele><time>2026-05-03T16:01:56.999Z</time></trkpt><trkpt lat="41.03249570479711" lon="9.519079784377714"><ele>40.0</ele><time>2026-05-03T16:01:57.999Z</time></trkpt><trkpt lat="41.032378080576926" lon="9.51915064509727"><ele>39.75</ele><time>2026-05-03T16:01:58.999Z</time></trkpt><trkpt lat="41.032249574873944" lon="9.519202121313445"><ele>39.5</ele><time>2026-05-03T16:01:59.999Z</time></trkpt><trkpt lat="41.03211234135521" lon="9.519224517248253"><ele>39.25</ele><time>2026-05-03T16:02:00.999Z</time></trkpt><trkpt lat="41.03196951645346" lon="9.519231726034459"><ele>39.0</ele><time>2026-05-03T16:02:01.999Z</time></trkpt><trkpt lat="41.03182840553173" lon="9.519234370420365"><ele>39.0</ele><time>2026-05-03T16:02:02.999Z</time></trkpt><trkpt lat="41.03169414536415" lon="9.51925409984515"><ele>39.0</ele><time>2026-05-03T16:02:03.999Z</time></trkpt><trkpt lat="41.03156681365721" lon="9.519293085344207"><ele>39.0</ele><time>2026-05-03T16:02:04.999Z</time></trkpt><trkpt lat="41.03144378235425" lon="9.519346824806844"><ele>39.0</ele><time>2026-05-03T16:02:05.999Z</time></trkpt><trkpt lat="41.031319329229554" lon="9.519404886373414"><ele>38.25</ele><time>2026-05-03T16:02:06.999Z</time></trkpt><trkpt lat="41.031194393236575" lon="9.51946408748755"><ele>37.5</ele><time>2026-05-03T16:02:07.999Z</time></trkpt><trkpt lat="41.03107528152351" lon="9.519529196192453"><ele>36.75</ele><time>2026-05-03T16:02:08.999Z</time></trkpt><trkpt lat="41.03095770227714" lon="9.51958762270563"><ele>36.0</ele><time>2026-05-03T16:02:09.999Z</time></trkpt><trkpt lat="41.03084046057859" lon="9.519636136214553"><ele>31.0</ele><time>2026-05-03T16:02:10.999Z</time></trkpt><trkpt lat="41.030722450795075" lon="9.519665091079561"><ele>26.0</ele><time>2026-05-03T16:02:11.999Z</time></trkpt><trkpt lat="41.03060797238441" lon="9.51966555355374"><ele>21.0</ele><time>2026-05-03T16:02:12.999Z</time></trkpt><trkpt lat="41.0304911327193" lon="9.519660446887983"><ele>16.0</ele><time>2026-05-03T16:02:13.999Z</time></trkpt><trkpt lat="41.03037421739367" lon="9.51965110556812"><ele>16.0</ele><time>2026-05-03T16:02:14.999Z</time></trkpt><trkpt lat="41.03025662497087" lon="9.519624962532744"><ele>16.0</ele><time>2026-05-03T16:02:15.999Z</time></trkpt><trkpt lat="41.030138845459476" lon="9.5195738217823"><ele>16.0</ele><time>2026-05-03T16:02:16.999Z</time></trkpt><trkpt lat="41.03003959641015" lon="9.519455990720997"><ele>16.0</ele><time>2026-05-03T16:02:17.999Z</time></trkpt><trkpt lat="41.02996562784036" lon="9.519308044520942"><ele>15.75</ele><time>2026-05-03T16:02:18.999Z</time></trkpt><trkpt lat="41.02991682352813" lon="9.519139029304915"><ele>15.5</ele><time>2026-05-03T16:02:19.999Z</time></trkpt><trkpt lat="41.02986074389079" lon="9.51897554664254"><ele>15.25</ele><time>2026-05-03T16:02:20.999Z</time></trkpt><trkpt lat="41.029804467527484" lon="9.518822347984985"><ele>15.0</ele><time>2026-05-03T16:02:21.999Z</time></trkpt><trkpt lat="41.02973435179744" lon="9.51868766767472"><ele>15.0</ele><time>2026-05-03T16:02:22.999Z</time></trkpt><trkpt lat="41.02966620081633" lon="9.518560334335836"><ele>15.0</ele><time>2026-05-03T16:02:23.999Z</time></trkpt><trkpt lat="41.02957471247917" lon="9.518473966345196"><ele>15.0</ele><time>2026-05-03T16:02:24.999Z</time></trkpt><trkpt lat="41.02949358196093" lon="9.518393292597924"><ele>15.0</ele><time>2026-05-03T16:02:25.999Z</time></trkpt><trkpt lat="41.0294169582055" lon="9.518318935933642"><ele>15.0</ele><time>2026-05-03T16:02:26.999Z</time></trkpt><trkpt lat="41.029340449162895" lon="9.518257428650017"><ele>15.0</ele><time>2026-05-03T16:02:27.999Z</time></trkpt><trkpt lat="41.02925972052075" lon="9.518195838444731"><ele>15.0</ele><time>2026-05-03T16:02:28.999Z</time></trkpt><trkpt lat="41.02916419591848" lon="9.518115831269116"><ele>15.0</ele><time>2026-05-03T16:02:30Z</time></trkpt><trkpt lat="41.02906407295043" lon="9.51804718130097"><ele>15.0</ele><time>2026-05-03T16:02:31Z</time></trkpt><trkpt lat="41.02896116070594" lon="9.518014433541214"><ele>15.0</ele><time>2026-05-03T16:02:32Z</time></trkpt><trkpt lat="41.02886358628629" lon="9.518010073768039"><ele>13.833333333333334</ele><time>2026-05-03T16:02:33Z</time></trkpt><trkpt lat="41.02877382697757" lon="9.518013800684104"><ele>12.666666666666666</ele><time>2026-05-03T16:02:34Z</time></trkpt><trkpt lat="41.028704530440045" lon="9.517999209352949"><ele>11.5</ele><time>2026-05-03T16:02:35Z</time></trkpt><trkpt lat="41.02861445811367" lon="9.517972205013246"><ele>10.333333333333332</ele><time>2026-05-03T16:02:37Z</time></trkpt><trkpt lat="41.028540846552865" lon="9.51798197987581"><ele>9.166666666666666</ele><time>2026-05-03T16:02:40Z</time></trkpt><trkpt lat="41.0284740509259" lon="9.517999565124043"><ele>8.0</ele><time>2026-05-03T16:03:29Z</time></trkpt><trkpt lat="41.028345240198654" lon="9.518034490802334"><ele>7.4</ele><time>2026-05-03T16:03:31Z</time></trkpt><trkpt lat="41.028266477818924" lon="9.518049259677062"><ele>6.800000000000001</ele><time>2026-05-03T16:03:32Z</time></trkpt><trkpt lat="41.0281807296007" lon="9.518053918874035"><ele>6.2</ele><time>2026-05-03T16:03:33Z</time></trkpt><trkpt lat="41.02808668789854" lon="9.518058953852728"><ele>5.6</ele><time>2026-05-03T16:03:34Z</time></trkpt><trkpt lat="41.02798596284513" lon="9.518057732963948"><ele>5.0</ele><time>2026-05-03T16:03:35Z</time></trkpt><trkpt lat="41.02788212573953" lon="9.518039801329598"><ele>5.0</ele><time>2026-05-03T16:03:36Z</time></trkpt><trkpt lat="41.027775214357874" lon="9.518008503411938"><ele>5.0</ele><time>2026-05-03T16:03:37Z</time></trkpt><trkpt lat="41.0276637356584" lon="9.51796820107479"><ele>5.0</ele><time>2026-05-03T16:03:38Z</time></trkpt><trkpt lat="41.02754673704008" lon="9.517926774791063"><ele>5.0</ele><time>2026-05-03T16:03:39Z</time></trkpt><trkpt lat="41.02742300741781" lon="9.517886100104432"><ele>4.75</ele><time>2026-05-03T16:03:40Z</time></trkpt><trkpt lat="41.0272926853029" lon="9.517855764763024"><ele>4.5</ele><time>2026-05-03T16:03:41Z</time></trkpt><trkpt lat="41.02715615177904" lon="9.517848357058941"><ele>4.25</ele><time>2026-05-03T16:03:42Z</time></trkpt><trkpt lat="41.0270204936712" lon="9.517868819611392"><ele>4.0</ele><time>2026-05-03T16:03:43Z</time></trkpt><trkpt lat="41.026883274726316" lon="9.517909945799536"><ele>4.0</ele><time>2026-05-03T16:03:44Z</time></trkpt><trkpt lat="41.02675314742946" lon="9.517959150032043"><ele>4.0</ele><time>2026-05-03T16:03:45Z</time></trkpt><trkpt lat="41.02663063141182" lon="9.518003514437908"><ele>4.0</ele><time>2026-05-03T16:03:46Z</time></trkpt><trkpt lat="41.02651309522717" lon="9.518044659818218"><ele>4.0</ele><time>2026-05-03T16:03:47Z</time></trkpt><trkpt lat="41.02639318624128" lon="9.5180802200175"><ele>3.5</ele><time>2026-05-03T16:03:48Z</time></trkpt><trkpt lat="41.02626836997253" lon="9.518103910000951"><ele>3.0</ele><time>2026-05-03T16:03:49Z</time></trkpt><trkpt lat="41.02613930411139" lon="9.518111145351341"><ele>2.5</ele><time>2026-05-03T16:03:50Z</time></trkpt><trkpt lat="41.02600494151388" lon="9.518085495431723"><ele>2.0</ele><time>2026-05-03T16:03:51Z</time></trkpt><trkpt lat="41.02587219265342" lon="9.51803551330502"><ele>1.75</ele><time>2026-05-03T16:03:52Z</time></trkpt><trkpt lat="41.02574170671374" lon="9.51795818965048"><ele>1.5</ele><time>2026-05-03T16:03:53Z</time></trkpt><trkpt lat="41.025614888168604" lon="9.517869662132902"><ele>1.25</ele><time>2026-05-03T16:03:54Z</time></trkpt><trkpt lat="41.02548621071107" lon="9.517780719057091"><ele>1.0</ele><time>2026-05-03T16:03:54.999Z</time></trkpt><trkpt lat="41.02535415445068" lon="9.517692550951924"><ele>0.75</ele><time>2026-05-03T16:03:55.999Z</time></trkpt><trkpt lat="41.0252191933501" lon="9.517608736074003"><ele>0.5</ele><time>2026-05-03T16:03:56.999Z</time></trkpt><trkpt lat="41.02508816618681" lon="9.51752400479391"><ele>0.25</ele><time>2026-05-03T16:03:57.999Z</time></trkpt><trkpt lat="41.02495569438061" lon="9.517437992461096"><ele>0.0</ele><time>2026-05-03T16:03:58.999Z</time></trkpt><trkpt lat="41.02482352771659" lon="9.51735079680455"><ele>0.0</ele><time>2026-05-03T16:03:59.999Z</time></trkpt><trkpt lat="41.02468968821684" lon="9.517265237230506"><ele>0.0</ele><time>2026-05-03T16:04:00.999Z</time></trkpt><trkpt lat="41.02455524985486" lon="9.517175668063343"><ele>0.0</ele><time>2026-05-03T16:04:01.999Z</time></trkpt><trkpt lat="41.024416970353045" lon="9.517086486393163"><ele>1.0</ele><time>2026-05-03T16:04:02.999Z</time></trkpt><trkpt lat="41.02427312504618" lon="9.516999063620396"><ele>2.0</ele><time>2026-05-03T16:04:03.999Z</time></trkpt><trkpt lat="41.024125737619386" lon="9.51691774432885"><ele>3.0</ele><time>2026-05-03T16:04:04.999Z</time></trkpt><trkpt lat="41.023974707278384" lon="9.516843819467583"><ele>4.0</ele><time>2026-05-03T16:04:05.999Z</time></trkpt><trkpt lat="41.023821528910446" lon="9.516776960541845"><ele>5.0</ele><time>2026-05-03T16:04:06.999Z</time></trkpt><trkpt lat="41.02366843242533" lon="9.516713583192477"><ele>6.0</ele><time>2026-05-03T16:04:07.999Z</time></trkpt><trkpt lat="41.02352029467657" lon="9.516652889476937"><ele>6.0</ele><time>2026-05-03T16:04:08.999Z</time></trkpt><trkpt lat="41.023374902916295" lon="9.516592086057548"><ele>6.0</ele><time>2026-05-03T16:04:09.999Z</time></trkpt><trkpt lat="41.02323101676307" lon="9.516533950736298"><ele>6.0</ele><time>2026-05-03T16:04:10.999Z</time></trkpt><trkpt lat="41.02309110094735" lon="9.516478904002339"><ele>6.0</ele><time>2026-05-03T16:04:11.999Z</time></trkpt><trkpt lat="41.022950846729316" lon="9.51641619789758"><ele>4.666666666666667</ele><time>2026-05-03T16:04:12.999Z</time></trkpt><trkpt lat="41.02281474153553" lon="9.51633286744187"><ele>3.333333333333333</ele><time>2026-05-03T16:04:13.999Z</time></trkpt><trkpt lat="41.02268467168049" lon="9.516231363442857"><ele>2.0</ele><time>2026-05-03T16:04:14.999Z</time></trkpt><trkpt lat="41.02255758196973" lon="9.516122461989362"><ele>2.0</ele><time>2026-05-03T16:04:15.999Z</time></trkpt><trkpt lat="41.02243230646347" lon="9.516007439102589"><ele>2.0</ele><time>2026-05-03T16:04:16.999Z</time></trkpt><trkpt lat="41.02230454635989" lon="9.515893751480183"><ele>2.0</ele><time>2026-05-03T16:04:17.999Z</time></trkpt><trkpt lat="41.02217463762677" lon="9.515781829894667"><ele>2.0</ele><time>2026-05-03T16:04:18.999Z</time></trkpt><trkpt lat="41.02204180129147" lon="9.515669777179207"><ele>2.0</ele><time>2026-05-03T16:04:19.999Z</time></trkpt><trkpt lat="41.02190828222243" lon="9.515555045505947"><ele>2.0</ele><time>2026-05-03T16:04:20.999Z</time></trkpt><trkpt lat="41.021769843324506" lon="9.515438077220226"><ele>2.6666666666666665</ele><time>2026-05-03T16:04:21.999Z</time></trkpt><trkpt lat="41.02163027048023" lon="9.515317207160056"><ele>3.333333333333333</ele><time>2026-05-03T16:04:22.999Z</time></trkpt><trkpt lat="41.021488438487324" lon="9.515194452728018"><ele>4.0</ele><time>2026-05-03T16:04:23.999Z</time></trkpt><trkpt lat="41.021345937303884" lon="9.515071591454168"><ele>4.0</ele><time>2026-05-03T16:04:24.999Z</time></trkpt><trkpt lat="41.021201116149285" lon="9.51494860760754"><ele>4.0</ele><time>2026-05-03T16:04:25.999Z</time></trkpt><trkpt lat="41.021056929536854" lon="9.514825358531763"><ele>4.0</ele><time>2026-05-03T16:04:26.999Z</time></trkpt><trkpt lat="41.02091284601818" lon="9.514697955826051"><ele>4.333333333333333</ele><time>2026-05-03T16:04:27.999Z</time></trkpt><trkpt lat="41.02077340485954" lon="9.514567704299505"><ele>4.666666666666667</ele><time>2026-05-03T16:04:28.999Z</time></trkpt><trkpt lat="41.02063714077182" lon="9.514433217404932"><ele>5.0</ele><time>2026-05-03T16:04:29.999Z</time></trkpt><trkpt lat="41.020505651758526" lon="9.51429583692959"><ele>5.0</ele><time>2026-05-03T16:04:30.999Z</time></trkpt><trkpt lat="41.020379275577156" lon="9.514156428589132"><ele>5.0</ele><time>2026-05-03T16:04:31.999Z</time></trkpt><trkpt lat="41.020253403646834" lon="9.514019411246833"><ele>5.0</ele><time>2026-05-03T16:04:32.999Z</time></trkpt><trkpt lat="41.02012765803825" lon="9.513888332417274"><ele>5.0</ele><time>2026-05-03T16:04:33.999Z</time></trkpt><trkpt lat="41.02000482282322" lon="9.513759293909404"><ele>5.0</ele><time>2026-05-03T16:04:34.999Z</time></trkpt><trkpt lat="41.019885174755665" lon="9.51363100058129"><ele>5.0</ele><time>2026-05-03T16:04:36Z</time></trkpt><trkpt lat="41.01976652845456" lon="9.513503755742848"><ele>4.333333333333334</ele><time>2026-05-03T16:04:37Z</time></trkpt><trkpt lat="41.019652531492625" lon="9.513372087545434"><ele>3.666666666666667</ele><time>2026-05-03T16:04:38Z</time></trkpt><trkpt lat="41.01955092904024" lon="9.513221656890288"><ele>3.0</ele><time>2026-05-03T16:04:39Z</time></trkpt><trkpt lat="41.01946479278365" lon="9.513050860752305"><ele>3.666666666666667</ele><time>2026-05-03T16:04:40Z</time></trkpt><trkpt lat="41.01938156010656" lon="9.512866713744176"><ele>4.333333333333334</ele><time>2026-05-03T16:04:41Z</time></trkpt><trkpt lat="41.01929581979234" lon="9.512679720246172"><ele>5.0</ele><time>2026-05-03T16:04:42Z</time></trkpt><trkpt lat="41.01920729041005" lon="9.512490017590219"><ele>5.0</ele><time>2026-05-03T16:04:43Z</time></trkpt><trkpt lat="41.01911636890249" lon="9.512297977977695"><ele>5.0</ele><time>2026-05-03T16:04:44Z</time></trkpt><trkpt lat="41.01902472802498" lon="9.512102941356842"><ele>5.0</ele><time>2026-05-03T16:04:45Z</time></trkpt><trkpt lat="41.01892886279079" lon="9.511909718721881"><ele>5.0</ele><time>2026-05-03T16:04:46Z</time></trkpt><trkpt lat="41.018827366986315" lon="9.51171763837971"><ele>5.0</ele><time>2026-05-03T16:04:47Z</time></trkpt><trkpt lat="41.018718151091754" lon="9.511529734285824"><ele>5.0</ele><time>2026-05-03T16:04:48Z</time></trkpt><trkpt lat="41.018602395824374" lon="9.511344795398612"><ele>5.666666666666667</ele><time>2026-05-03T16:04:49Z</time></trkpt><trkpt lat="41.018488597770606" lon="9.511166612565782"><ele>6.333333333333334</ele><time>2026-05-03T16:04:50Z</time></trkpt><trkpt lat="41.0183829418017" lon="9.510997881411164"><ele>7.0</ele><time>2026-05-03T16:04:51Z</time></trkpt><trkpt lat="41.01827648239376" lon="9.51082713290824"><ele>6.0</ele><time>2026-05-03T16:04:52Z</time></trkpt><trkpt lat="41.018167772705986" lon="9.510658410434234"><ele>5.0</ele><time>2026-05-03T16:04:53Z</time></trkpt><trkpt lat="41.01805733053812" lon="9.510490039326433"><ele>4.0</ele><time>2026-05-03T16:04:54Z</time></trkpt><trkpt lat="41.01794619410523" lon="9.510318863150571"><ele>4.0</ele><time>2026-05-03T16:04:55Z</time></trkpt><trkpt lat="41.01783557916676" lon="9.510145193730203"><ele>4.0</ele><time>2026-05-03T16:04:56Z</time></trkpt><trkpt lat="41.01772373112068" lon="9.509969774290576"><ele>4.0</ele><time>2026-05-03T16:04:57Z</time></trkpt><trkpt lat="41.017609066526845" lon="9.509796212451377"><ele>4.0</ele><time>2026-05-03T16:04:58Z</time></trkpt><trkpt lat="41.017490001867415" lon="9.509619856008776"><ele>4.0</ele><time>2026-05-03T16:04:59Z</time></trkpt><trkpt lat="41.01736670511925" lon="9.509442170951331"><ele>4.0</ele><time>2026-05-03T16:05:00Z</time></trkpt><trkpt lat="41.01724330992933" lon="9.50926227826393"><ele>4.0</ele><time>2026-05-03T16:05:01Z</time></trkpt><trkpt lat="41.01712115554148" lon="9.509077549281642"><ele>4.0</ele><time>2026-05-03T16:05:02Z</time></trkpt><trkpt lat="41.01699841519292" lon="9.50889300430401"><ele>4.0</ele><time>2026-05-03T16:05:03Z</time></trkpt><trkpt lat="41.01687470985163" lon="9.508712604293693"><ele>4.0</ele><time>2026-05-03T16:05:04Z</time></trkpt><trkpt lat="41.016746023203666" lon="9.50853873551261"><ele>4.0</ele><time>2026-05-03T16:05:05Z</time></trkpt><trkpt lat="41.01661332604767" lon="9.508371977389846"><ele>4.0</ele><time>2026-05-03T16:05:06Z</time></trkpt><trkpt lat="41.01647773611112" lon="9.508210663045578"><ele>3.6666666666666665</ele><time>2026-05-03T16:05:07Z</time></trkpt><trkpt lat="41.01634033363167" lon="9.508049083741392"><ele>3.333333333333333</ele><time>2026-05-03T16:05:08Z</time></trkpt><trkpt lat="41.01620139820314" lon="9.507887679761808"><ele>3.0</ele><time>2026-05-03T16:05:09Z</time></trkpt><trkpt lat="41.016059006417684" lon="9.507725065360814"><ele>3.0</ele><time>2026-05-03T16:05:10Z</time></trkpt><trkpt lat="41.01591439035024" lon="9.507560145242323"><ele>3.0</ele><time>2026-05-03T16:05:11Z</time></trkpt><trkpt lat="41.01576823680295" lon="9.507403088737707"><ele>3.0</ele><time>2026-05-03T16:05:12Z</time></trkpt><trkpt lat="41.015632839122134" lon="9.507231348476324"><ele>2.6666666666666665</ele><time>2026-05-03T16:05:13Z</time></trkpt><trkpt lat="41.015482594257804" lon="9.507080248957438"><ele>2.333333333333333</ele><time>2026-05-03T16:05:14Z</time></trkpt><trkpt lat="41.015340304827504" lon="9.506910945065705"><ele>2.0</ele><time>2026-05-03T16:05:15Z</time></trkpt><trkpt lat="41.0151956956761" lon="9.506753911074316"><ele>2.0</ele><time>2026-05-03T16:05:16Z</time></trkpt><trkpt lat="41.01505625444193" lon="9.50659777878274"><ele>2.0</ele><time>2026-05-03T16:05:17Z</time></trkpt><trkpt lat="41.01491864407846" lon="9.50643726398593"><ele>2.0</ele><time>2026-05-03T16:05:18Z</time></trkpt><trkpt lat="41.01478333097199" lon="9.50627713573019"><ele>2.6666666666666665</ele><time>2026-05-03T16:05:19Z</time></trkpt><trkpt lat="41.01464885813344" lon="9.506118350782254"><ele>3.333333333333333</ele><time>2026-05-03T16:05:20Z</time></trkpt><trkpt lat="41.01451316463645" lon="9.505963282310917"><ele>4.0</ele><time>2026-05-03T16:05:21Z</time></trkpt><trkpt lat="41.014378514408065" lon="9.505812944708167"><ele>4.0</ele><time>2026-05-03T16:05:22Z</time></trkpt><trkpt lat="41.014246069746406" lon="9.505661548342117"><ele>4.0</ele><time>2026-05-03T16:05:23Z</time></trkpt><trkpt lat="41.0141168551744" lon="9.505509210026366"><ele>4.0</ele><time>2026-05-03T16:05:24Z</time></trkpt><trkpt lat="41.01398678524106" lon="9.505362625856774"><ele>4.333333333333333</ele><time>2026-05-03T16:05:25Z</time></trkpt><trkpt lat="41.01385291069763" lon="9.50522308336324"><ele>4.666666666666667</ele><time>2026-05-03T16:05:26Z</time></trkpt><trkpt lat="41.01371317374675" lon="9.50509193929963"><ele>5.0</ele><time>2026-05-03T16:05:27Z</time></trkpt><trkpt lat="41.013568745164285" lon="9.504963543439777"><ele>5.0</ele><time>2026-05-03T16:05:28Z</time></trkpt><trkpt lat="41.013422515392115" lon="9.50483589273049"><ele>5.0</ele><time>2026-05-03T16:05:29Z</time></trkpt><trkpt lat="41.0132742534316" lon="9.504707958864199"><ele>5.0</ele><time>2026-05-03T16:05:30Z</time></trkpt><trkpt lat="41.013123829041334" lon="9.504577773893473"><ele>4.666666666666667</ele><time>2026-05-03T16:05:31Z</time></trkpt><trkpt lat="41.01297260471431" lon="9.504447451604356"><ele>4.333333333333333</ele><time>2026-05-03T16:05:32Z</time></trkpt><trkpt lat="41.01282165716428" lon="9.504312846789116"><ele>4.0</ele><time>2026-05-03T16:05:33Z</time></trkpt><trkpt lat="41.012674177982035" lon="9.504168668748655"><ele>4.0</ele><time>2026-05-03T16:05:34Z</time></trkpt><trkpt lat="41.012532815342695" lon="9.504012292679066"><ele>4.0</ele><time>2026-05-03T16:05:35Z</time></trkpt><trkpt lat="41.01239515639747" lon="9.50385243660034"><ele>4.0</ele><time>2026-05-03T16:05:36Z</time></trkpt><trkpt lat="41.012256367323026" lon="9.503693525796251"><ele>3.333333333333333</ele><time>2026-05-03T16:05:37Z</time></trkpt><trkpt lat="41.012116878275016" lon="9.503536777483102"><ele>2.6666666666666665</ele><time>2026-05-03T16:05:38Z</time></trkpt><trkpt lat="41.01197690315465" lon="9.503381164109285"><ele>2.0</ele><time>2026-05-03T16:05:39Z</time></trkpt><trkpt lat="41.01183885446109" lon="9.503227688347655"><ele>2.0</ele><time>2026-05-03T16:05:40Z</time></trkpt><trkpt lat="41.011703372946904" lon="9.503075816625188"><ele>2.0</ele><time>2026-05-03T16:05:41Z</time></trkpt><trkpt lat="41.01157353882027" lon="9.502923661173536"><ele>2.0</ele><time>2026-05-03T16:05:42Z</time></trkpt><trkpt lat="41.011451259795116" lon="9.5027683825079"><ele>1.3333333333333333</ele><time>2026-05-03T16:05:43Z</time></trkpt><trkpt lat="41.011341579088636" lon="9.502601653212935"><ele>0.6666666666666666</ele><time>2026-05-03T16:05:44Z</time></trkpt><trkpt lat="41.011254781929495" lon="9.50241034249217"><ele>0.0</ele><time>2026-05-03T16:05:45Z</time></trkpt><trkpt lat="41.01118405069793" lon="9.502205139865197"><ele>0.3333333333333333</ele><time>2026-05-03T16:05:46Z</time></trkpt><trkpt lat="41.01111782111242" lon="9.50199859638703"><ele>0.6666666666666666</ele><time>2026-05-03T16:05:47Z</time></trkpt><trkpt lat="41.01104941972751" lon="9.501793317961397"><ele>1.0</ele><time>2026-05-03T16:05:48Z</time></trkpt><trkpt lat="41.01096854375072" lon="9.501598316389472"><ele>1.0</ele><time>2026-05-03T16:05:49Z</time></trkpt><trkpt lat="41.010869259526174" lon="9.501421915388452"><ele>1.0</ele><time>2026-05-03T16:05:50Z</time></trkpt><trkpt lat="41.01074257791414" lon="9.501287375454533"><ele>1.0</ele><time>2026-05-03T16:05:51Z</time></trkpt><trkpt lat="41.010585469386406" lon="9.501212428797434"><ele>1.0</ele><time>2026-05-03T16:05:52Z</time></trkpt><trkpt lat="41.01041213651171" lon="9.501170000485802"><ele>1.0</ele><time>2026-05-03T16:05:53Z</time></trkpt><trkpt lat="41.01024385905531" lon="9.501225478478686"><ele>1.0</ele><time>2026-05-03T16:05:54Z</time></trkpt><trkpt lat="41.010090170093385" lon="9.501308829933883"><ele>2.3333333333333335</ele><time>2026-05-03T16:05:55Z</time></trkpt><trkpt lat="41.00994808673396" lon="9.501435588585979"><ele>3.666666666666667</ele><time>2026-05-03T16:05:56Z</time></trkpt><trkpt lat="41.00980450945442" lon="9.501572176680991"><ele>5.0</ele><time>2026-05-03T16:05:57Z</time></trkpt><trkpt lat="41.0096628893831" lon="9.501696390608462"><ele>5.0</ele><time>2026-05-03T16:05:58Z</time></trkpt><trkpt lat="41.00951968437446" lon="9.501826726593091"><ele>5.0</ele><time>2026-05-03T16:05:59Z</time></trkpt><trkpt lat="41.00937619089975" lon="9.501957999136529"><ele>5.0</ele><time>2026-05-03T16:06:00Z</time></trkpt><trkpt lat="41.00923123833837" lon="9.502089636517075"><ele>4.333333333333334</ele><time>2026-05-03T16:06:01Z</time></trkpt><trkpt lat="41.00908549991329" lon="9.502223334791086"><ele>3.666666666666667</ele><time>2026-05-03T16:06:02Z</time></trkpt><trkpt lat="41.008938866452574" lon="9.502357569753114"><ele>3.0</ele><time>2026-05-03T16:06:02.999Z</time></trkpt><trkpt lat="41.008792730382865" lon="9.502492034818285"><ele>3.0</ele><time>2026-05-03T16:06:03.999Z</time></trkpt><trkpt lat="41.00864463859283" lon="9.502629077386844"><ele>3.0</ele><time>2026-05-03T16:06:04.999Z</time></trkpt><trkpt lat="41.00849513624044" lon="9.50276531107686"><ele>3.0</ele><time>2026-05-03T16:06:05.999Z</time></trkpt><trkpt lat="41.00834711419356" lon="9.50290065000612"><ele>2.6666666666666665</ele><time>2026-05-03T16:06:06.999Z</time></trkpt><trkpt lat="41.008200986310115" lon="9.503037841280175"><ele>2.333333333333333</ele><time>2026-05-03T16:06:07.999Z</time></trkpt><trkpt lat="41.008057399362805" lon="9.503175567412102"><ele>2.0</ele><time>2026-05-03T16:06:08.999Z</time></trkpt><trkpt lat="41.00791246150774" lon="9.503306555529207"><ele>2.0</ele><time>2026-05-03T16:06:09.999Z</time></trkpt><trkpt lat="41.00776061868415" lon="9.503428215499735"><ele>2.0</ele><time>2026-05-03T16:06:10.999Z</time></trkpt><trkpt lat="41.007599474611474" lon="9.503529333680099"><ele>2.0</ele><time>2026-05-03T16:06:11.999Z</time></trkpt><trkpt lat="41.00743272886887" lon="9.503615213392207"><ele>2.0</ele><time>2026-05-03T16:06:12.999Z</time></trkpt><trkpt lat="41.007267025716025" lon="9.503695470665514"><ele>2.0</ele><time>2026-05-03T16:06:13.999Z</time></trkpt><trkpt lat="41.00709989432203" lon="9.503772165198644"><ele>2.0</ele><time>2026-05-03T16:06:14.999Z</time></trkpt><trkpt lat="41.00693056768766" lon="9.503825550807361"><ele>2.0</ele><time>2026-05-03T16:06:15.999Z</time></trkpt><trkpt lat="41.006769356179525" lon="9.503897685120267"><ele>2.0</ele><time>2026-05-03T16:06:16.999Z</time></trkpt><trkpt lat="41.00661461784813" lon="9.503988750821067"><ele>2.0</ele><time>2026-05-03T16:06:17.999Z</time></trkpt><trkpt lat="41.00645781498383" lon="9.504055470019505"><ele>2.333333333333333</ele><time>2026-05-03T16:06:18.999Z</time></trkpt><trkpt lat="41.00630458060548" lon="9.504121627551356"><ele>2.6666666666666665</ele><time>2026-05-03T16:06:19.999Z</time></trkpt><trkpt lat="41.00615391423971" lon="9.50418599827712"><ele>3.0</ele><time>2026-05-03T16:06:20.999Z</time></trkpt><trkpt lat="41.006005509676" lon="9.504251780803505"><ele>3.0</ele><time>2026-05-03T16:06:21.999Z</time></trkpt><trkpt lat="41.00585829119127" lon="9.504319956683508"><ele>3.0</ele><time>2026-05-03T16:06:22.999Z</time></trkpt><trkpt lat="41.00571243523605" lon="9.504387436421762"><ele>3.0</ele><time>2026-05-03T16:06:23.999Z</time></trkpt><trkpt lat="41.0055668765046" lon="9.504452108869515"><ele>3.0</ele><time>2026-05-03T16:06:24.999Z</time></trkpt><trkpt lat="41.00541860326966" lon="9.504508558973441"><ele>3.0</ele><time>2026-05-03T16:06:25.999Z</time></trkpt><trkpt lat="41.00526552785167" lon="9.50454636153263"><ele>3.0</ele><time>2026-05-03T16:06:26.999Z</time></trkpt><trkpt lat="41.00510910522428" lon="9.504563490520033"><ele>3.666666666666667</ele><time>2026-05-03T16:06:27.999Z</time></trkpt><trkpt lat="41.00494790524401" lon="9.504563409951134"><ele>4.333333333333334</ele><time>2026-05-03T16:06:28.999Z</time></trkpt><trkpt lat="41.00478310475057" lon="9.504559634013637"><ele>5.0</ele><time>2026-05-03T16:06:29.999Z</time></trkpt><trkpt lat="41.00461947048878" lon="9.504563523141965"><ele>5.0</ele><time>2026-05-03T16:06:30.999Z</time></trkpt><trkpt lat="41.00445200844255" lon="9.504565686034047"><ele>5.0</ele><time>2026-05-03T16:06:31.999Z</time></trkpt><trkpt lat="41.004282469343615" lon="9.504567223570534"><ele>5.0</ele><time>2026-05-03T16:06:32.999Z</time></trkpt><trkpt lat="41.00410953327713" lon="9.504567134350275"><ele>5.0</ele><time>2026-05-03T16:06:33.999Z</time></trkpt><trkpt lat="41.00393505612413" lon="9.504570446121427"><ele>5.0</ele><time>2026-05-03T16:06:34.999Z</time></trkpt><trkpt lat="41.003757756351455" lon="9.504572411463933"><ele>5.0</ele><time>2026-05-03T16:06:35.999Z</time></trkpt><trkpt lat="41.00357916489803" lon="9.504573546177692"><ele>5.0</ele><time>2026-05-03T16:06:36.999Z</time></trkpt><trkpt lat="41.00340021421385" lon="9.504575679235602"><ele>5.0</ele><time>2026-05-03T16:06:37.999Z</time></trkpt><trkpt lat="41.00321992848777" lon="9.50458136571645"><ele>5.0</ele><time>2026-05-03T16:06:38.999Z</time></trkpt><trkpt lat="41.00303859641614" lon="9.504591662984202"><ele>4.666666666666667</ele><time>2026-05-03T16:06:39.999Z</time></trkpt><trkpt lat="41.0028557641806" lon="9.504607238562961"><ele>4.333333333333333</ele><time>2026-05-03T16:06:40.999Z</time></trkpt><trkpt lat="41.00267184018196" lon="9.504627513379939"><ele>4.0</ele><time>2026-05-03T16:06:42Z</time></trkpt><trkpt lat="41.002487957206725" lon="9.50465227725682"><ele>4.0</ele><time>2026-05-03T16:06:43Z</time></trkpt><trkpt lat="41.00230370542756" lon="9.504678448718119"><ele>4.0</ele><time>2026-05-03T16:06:44Z</time></trkpt><trkpt lat="41.00211763945307" lon="9.50470496328696"><ele>4.0</ele><time>2026-05-03T16:06:45Z</time></trkpt><trkpt lat="41.00193203149873" lon="9.504733445767636"><ele>4.0</ele><time>2026-05-03T16:06:46Z</time></trkpt><trkpt lat="41.001746712679065" lon="9.504762998595377"><ele>4.0</ele><time>2026-05-03T16:06:47Z</time></trkpt><trkpt lat="41.00156131198922" lon="9.504795526476117"><ele>4.0</ele><time>2026-05-03T16:06:48Z</time></trkpt><trkpt lat="41.001374200716974" lon="9.504830352514949"><ele>4.0</ele><time>2026-05-03T16:06:49Z</time></trkpt><trkpt lat="41.00118442097427" lon="9.504864969852578"><ele>4.0</ele><time>2026-05-03T16:06:50Z</time></trkpt><trkpt lat="41.00099604744073" lon="9.504895723076679"><ele>4.0</ele><time>2026-05-03T16:06:51Z</time></trkpt><trkpt lat="41.00080777222923" lon="9.504927043535565"><ele>3.6666666666666665</ele><time>2026-05-03T16:06:52Z</time></trkpt><trkpt lat="41.00062025951272" lon="9.504957387999823"><ele>3.333333333333333</ele><time>2026-05-03T16:06:53Z</time></trkpt><trkpt lat="41.00043404071525" lon="9.504987210198705"><ele>3.0</ele><time>2026-05-03T16:06:54Z</time></trkpt><trkpt lat="41.00024863379972" lon="9.505018029178176"><ele>3.0</ele><time>2026-05-03T16:06:55Z</time></trkpt><trkpt lat="41.00006613879567" lon="9.5050475147841"><ele>3.0</ele><time>2026-05-03T16:06:56Z</time></trkpt><trkpt lat="40.99988630182985" lon="9.50507798309742"><ele>3.0</ele><time>2026-05-03T16:06:57Z</time></trkpt><trkpt lat="40.999711160330214" lon="9.505108572805119"><ele>3.0</ele><time>2026-05-03T16:06:58Z</time></trkpt><trkpt lat="40.999539407731014" lon="9.505139376162038"><ele>3.0</ele><time>2026-05-03T16:06:59Z</time></trkpt><trkpt lat="40.99937097920634" lon="9.505168539561323"><ele>3.0</ele><time>2026-05-03T16:07:00Z</time></trkpt><trkpt lat="40.999205502265546" lon="9.505197560649165"><ele>4.666666666666666</ele><time>2026-05-03T16:07:01Z</time></trkpt><trkpt lat="40.999041498520086" lon="9.505224342144922"><ele>6.333333333333333</ele><time>2026-05-03T16:07:02Z</time></trkpt><trkpt lat="40.99888807809796" lon="9.505242662785976"><ele>8.0</ele><time>2026-05-03T16:07:03Z</time></trkpt><trkpt lat="40.99873261420212" lon="9.505246472717452"><ele>8.0</ele><time>2026-05-03T16:07:04Z</time></trkpt><trkpt lat="40.99857823224828" lon="9.505211263986432"><ele>8.0</ele><time>2026-05-03T16:07:05Z</time></trkpt><trkpt lat="40.99842743716234" lon="9.505144362952638"><ele>8.0</ele><time>2026-05-03T16:07:06Z</time></trkpt><trkpt lat="40.998282383961815" lon="9.505049035368812"><ele>8.0</ele><time>2026-05-03T16:07:07Z</time></trkpt><trkpt lat="40.99814033830505" lon="9.504935350118924"><ele>8.0</ele><time>2026-05-03T16:07:08Z</time></trkpt><trkpt lat="40.99799813067281" lon="9.504817429023712"><ele>8.0</ele><time>2026-05-03T16:07:09Z</time></trkpt><trkpt lat="40.997852410030156" lon="9.5047014615791"><ele>8.0</ele><time>2026-05-03T16:07:10Z</time></trkpt><trkpt lat="40.99770335224611" lon="9.5045834339255"><ele>8.0</ele><time>2026-05-03T16:07:11Z</time></trkpt><trkpt lat="40.99755398410334" lon="9.504465217071079"><ele>8.0</ele><time>2026-05-03T16:07:12Z</time></trkpt><trkpt lat="40.997402583602764" lon="9.504348698002339"><ele>8.0</ele><time>2026-05-03T16:07:13Z</time></trkpt><trkpt lat="40.99724862676425" lon="9.504234373412034"><ele>8.0</ele><time>2026-05-03T16:07:14Z</time></trkpt><trkpt lat="40.997091679154025" lon="9.504124080062162"><ele>8.0</ele><time>2026-05-03T16:07:15Z</time></trkpt><trkpt lat="40.99693121774615" lon="9.50401841618521"><ele>8.0</ele><time>2026-05-03T16:07:16Z</time></trkpt><trkpt lat="40.996769027994084" lon="9.503915686223932"><ele>8.0</ele><time>2026-05-03T16:07:17Z</time></trkpt><trkpt lat="40.99660662451629" lon="9.503814977856615"><ele>8.0</ele><time>2026-05-03T16:07:18Z</time></trkpt><trkpt lat="40.996443657335526" lon="9.50371426286561"><ele>8.333333333333332</ele><time>2026-05-03T16:07:19Z</time></trkpt><trkpt lat="40.996282122190095" lon="9.503608437511469"><ele>8.666666666666666</ele><time>2026-05-03T16:07:20Z</time></trkpt><trkpt lat="40.996120585547665" lon="9.503504920960523"><ele>9.0</ele><time>2026-05-03T16:07:21Z</time></trkpt><trkpt lat="40.99596064646524" lon="9.503404279338547"><ele>9.666666666666666</ele><time>2026-05-03T16:07:22Z</time></trkpt><trkpt lat="40.99580217626196" lon="9.503304250980522"><ele>10.333333333333332</ele><time>2026-05-03T16:07:23Z</time></trkpt><trkpt lat="40.995646034152784" lon="9.503208589715507"><ele>11.0</ele><time>2026-05-03T16:07:24Z</time></trkpt><trkpt lat="40.995491586074955" lon="9.503114731895906"><ele>11.0</ele><time>2026-05-03T16:07:25Z</time></trkpt><trkpt lat="40.99533992324646" lon="9.503022255132729"><ele>11.0</ele><time>2026-05-03T16:07:26Z</time></trkpt><trkpt lat="40.99518750031224" lon="9.50293004412964"><ele>11.0</ele><time>2026-05-03T16:07:27Z</time></trkpt><trkpt lat="40.99503672408991" lon="9.502834973306806"><ele>11.333333333333332</ele><time>2026-05-03T16:07:28Z</time></trkpt><trkpt lat="40.99488744339317" lon="9.50273697436541"><ele>11.666666666666666</ele><time>2026-05-03T16:07:29Z</time></trkpt><trkpt lat="40.9947413794237" lon="9.50262919011223"><ele>12.0</ele><time>2026-05-03T16:07:30Z</time></trkpt><trkpt lat="40.99459873881057" lon="9.502509680209013"><ele>12.0</ele><time>2026-05-03T16:07:31Z</time></trkpt><trkpt lat="40.99446510490161" lon="9.502375217765996"><ele>12.0</ele><time>2026-05-03T16:07:32Z</time></trkpt><trkpt lat="40.994340206806285" lon="9.5022263392043"><ele>12.0</ele><time>2026-05-03T16:07:33Z</time></trkpt><trkpt lat="40.9942187373325" lon="9.502074821758084"><ele>12.0</ele><time>2026-05-03T16:07:34Z</time></trkpt><trkpt lat="40.99409672981442" lon="9.501923032731792"><ele>12.0</ele><time>2026-05-03T16:07:35Z</time></trkpt><trkpt lat="40.99397617182675" lon="9.501775267714477"><ele>12.0</ele><time>2026-05-03T16:07:36Z</time></trkpt><trkpt lat="40.99385961860192" lon="9.501624293924834"><ele>12.0</ele><time>2026-05-03T16:07:37Z</time></trkpt><trkpt lat="40.99375619806985" lon="9.501460819631204"><ele>12.0</ele><time>2026-05-03T16:07:38Z</time></trkpt><trkpt lat="40.99366293470125" lon="9.501291751436277"><ele>12.0</ele><time>2026-05-03T16:07:39Z</time></trkpt><trkpt lat="40.993576184002485" lon="9.501123987299762"><ele>12.666666666666668</ele><time>2026-05-03T16:07:40Z</time></trkpt><trkpt lat="40.9934877731025" lon="9.500957622672109"><ele>13.333333333333334</ele><time>2026-05-03T16:07:41Z</time></trkpt><trkpt lat="40.99339447195938" lon="9.500802136440411"><ele>14.0</ele><time>2026-05-03T16:07:42Z</time></trkpt><trkpt lat="40.99329100406747" lon="9.50066153322273"><ele>14.0</ele><time>2026-05-03T16:07:43Z</time></trkpt><trkpt lat="40.99317299208705" lon="9.500540241861827"><ele>14.0</ele><time>2026-05-03T16:07:44Z</time></trkpt><trkpt lat="40.993038312608164" lon="9.500451629259663"><ele>14.0</ele><time>2026-05-03T16:07:45Z</time></trkpt><trkpt lat="40.99289831093643" lon="9.500382945238078"><ele>14.0</ele><time>2026-05-03T16:07:46Z</time></trkpt><trkpt lat="40.992750390859825" lon="9.500352656071184"><ele>14.333333333333334</ele><time>2026-05-03T16:07:47Z</time></trkpt><trkpt lat="40.99260080099232" lon="9.50034867181278"><ele>14.666666666666668</ele><time>2026-05-03T16:07:48Z</time></trkpt><trkpt lat="40.99244764935287" lon="9.500373366540769"><ele>15.0</ele><time>2026-05-03T16:07:49Z</time></trkpt><trkpt lat="40.992295059111136" lon="9.500391076667672"><ele>15.25</ele><time>2026-05-03T16:07:50Z</time></trkpt><trkpt lat="40.99214199066752" lon="9.500406551490224"><ele>15.5</ele><time>2026-05-03T16:07:51Z</time></trkpt><trkpt lat="40.99199230589467" lon="9.500422421348471"><ele>15.75</ele><time>2026-05-03T16:07:52Z</time></trkpt><trkpt lat="40.99185570085934" lon="9.500436346495903"><ele>16.0</ele><time>2026-05-03T16:07:53Z</time></trkpt><trkpt lat="40.99172988185041" lon="9.500417013883007"><ele>16.0</ele><time>2026-05-03T16:07:54Z</time></trkpt><trkpt lat="40.991613463918156" lon="9.500414479000263"><ele>16.0</ele><time>2026-05-03T16:07:55Z</time></trkpt><trkpt lat="40.991497366088055" lon="9.50042943063641"><ele>16.0</ele><time>2026-05-03T16:07:56Z</time></trkpt><trkpt lat="40.99138777922065" lon="9.500393830186091"><ele>16.0</ele><time>2026-05-03T16:07:57Z</time></trkpt><trkpt lat="40.99129440363832" lon="9.500374120094664"><ele>16.0</ele><time>2026-05-03T16:07:58Z</time></trkpt><trkpt lat="40.99122044980355" lon="9.500357953743721"><ele>15.25</ele><time>2026-05-03T16:07:59Z</time></trkpt><trkpt lat="40.9911703462898" lon="9.500581895261936"><ele>14.5</ele><time>2026-05-03T16:08:00Z</time></trkpt><trkpt lat="40.99115790462815" lon="9.500702591936307"><ele>13.75</ele><time>2026-05-03T16:08:01Z</time></trkpt><trkpt lat="40.99114331398559" lon="9.50082890296493"><ele>13.0</ele><time>2026-05-03T16:08:02Z</time></trkpt><trkpt lat="40.99114249195202" lon="9.500970571471276"><ele>13.0</ele><time>2026-05-03T16:08:03Z</time></trkpt><trkpt lat="40.99116637296847" lon="9.501138520207046"><ele>13.0</ele><time>2026-05-03T16:08:04Z</time></trkpt><trkpt lat="40.99116656427794" lon="9.501322670239286"><ele>13.0</ele><time>2026-05-03T16:08:05Z</time></trkpt><trkpt lat="40.991163702228555" lon="9.501527395380316"><ele>13.0</ele><time>2026-05-03T16:08:06Z</time></trkpt><trkpt lat="40.99115678662396" lon="9.501744210931411"><ele>13.0</ele><time>2026-05-03T16:08:07Z</time></trkpt><trkpt lat="40.991148260715" lon="9.501973731125222"><ele>13.0</ele><time>2026-05-03T16:08:08Z</time></trkpt><trkpt lat="40.991142859175994" lon="9.502211479233257"><ele>13.0</ele><time>2026-05-03T16:08:09Z</time></trkpt><trkpt lat="40.99113908264105" lon="9.502458024628016"><ele>13.666666666666666</ele><time>2026-05-03T16:08:09.999Z</time></trkpt><trkpt lat="40.991136461097824" lon="9.502710720711443"><ele>14.333333333333332</ele><time>2026-05-03T16:08:10.999Z</time></trkpt><trkpt lat="40.991133101772064" lon="9.502970313896324"><ele>15.0</ele><time>2026-05-03T16:08:11.999Z</time></trkpt><trkpt lat="40.991126344800165" lon="9.503232329364648"><ele>15.666666666666668</ele><time>2026-05-03T16:08:12.999Z</time></trkpt><trkpt lat="40.99111977204631" lon="9.50349369839835"><ele>16.333333333333336</ele><time>2026-05-03T16:08:13.999Z</time></trkpt><trkpt lat="40.99111318443334" lon="9.503747632655537"><ele>17.0</ele><time>2026-05-03T16:08:14.999Z</time></trkpt><trkpt lat="40.99110789934282" lon="9.503998522067889"><ele>18.333333333333336</ele><time>2026-05-03T16:08:15.999Z</time></trkpt><trkpt lat="40.991105516261314" lon="9.504242826222436"><ele>19.666666666666668</ele><time>2026-05-03T16:08:16.999Z</time></trkpt><trkpt lat="40.99110288308524" lon="9.504483044554021"><ele>21.0</ele><time>2026-05-03T16:08:17.999Z</time></trkpt><trkpt lat="40.99109968139116" lon="9.504716026039713"><ele>22.333333333333336</ele><time>2026-05-03T16:08:18.999Z</time></trkpt><trkpt lat="40.99109669129688" lon="9.504945386974054"><ele>23.666666666666668</ele><time>2026-05-03T16:08:19.999Z</time></trkpt><trkpt lat="40.99109181648569" lon="9.505168880330492"><ele>25.0</ele><time>2026-05-03T16:08:20.999Z</time></trkpt><trkpt lat="40.991087479953755" lon="9.505385996419726"><ele>25.666666666666668</ele><time>2026-05-03T16:08:21.999Z</time></trkpt><trkpt lat="40.991083169029054" lon="9.505600979795199"><ele>26.333333333333336</ele><time>2026-05-03T16:08:22.999Z</time></trkpt><trkpt lat="40.991076883783485" lon="9.505811859784348"><ele>27.0</ele><time>2026-05-03T16:08:23.999Z</time></trkpt><trkpt lat="40.991073158109685" lon="9.506020263716064"><ele>27.0</ele><time>2026-05-03T16:08:24.999Z</time></trkpt><trkpt lat="40.99107561970698" lon="9.506231203403761"><ele>27.0</ele><time>2026-05-03T16:08:25.999Z</time></trkpt><trkpt lat="40.99108478455207" lon="9.506449145817164"><ele>27.0</ele><time>2026-05-03T16:08:26.999Z</time></trkpt><trkpt lat="40.99110104404028" lon="9.506667902380725"><ele>27.333333333333336</ele><time>2026-05-03T16:08:27.999Z</time></trkpt><trkpt lat="40.99112884134837" lon="9.506886666615394"><ele>27.666666666666668</ele><time>2026-05-03T16:08:28.999Z</time></trkpt><trkpt lat="40.991171686813075" lon="9.507102683461348"><ele>28.0</ele><time>2026-05-03T16:08:29.999Z</time></trkpt><trkpt lat="40.9912288568553" lon="9.507315565808161"><ele>29.0</ele><time>2026-05-03T16:08:30.999Z</time></trkpt><trkpt lat="40.99129473746191" lon="9.507526194128427"><ele>30.0</ele><time>2026-05-03T16:08:31.999Z</time></trkpt><trkpt lat="40.9913671911954" lon="9.507735627154121"><ele>31.0</ele><time>2026-05-03T16:08:32.999Z</time></trkpt><trkpt lat="40.99145105324665" lon="9.507937672207543"><ele>31.666666666666668</ele><time>2026-05-03T16:08:33.999Z</time></trkpt><trkpt lat="40.99154726206545" lon="9.508133490991199"><ele>32.333333333333336</ele><time>2026-05-03T16:08:34.999Z</time></trkpt><trkpt lat="40.991655756385235" lon="9.50831786023795"><ele>33.0</ele><time>2026-05-03T16:08:35.999Z</time></trkpt><trkpt lat="40.99177326687651" lon="9.508495525055194"><ele>33.0</ele><time>2026-05-03T16:08:36.999Z</time></trkpt><trkpt lat="40.99189749030783" lon="9.50866442684678"><ele>33.0</ele><time>2026-05-03T16:08:37.999Z</time></trkpt><trkpt lat="40.99202426740779" lon="9.508833370111137"><ele>33.0</ele><time>2026-05-03T16:08:38.999Z</time></trkpt><trkpt lat="40.992149199630305" lon="9.509004318959184"><ele>35.333333333333336</ele><time>2026-05-03T16:08:39.999Z</time></trkpt><trkpt lat="40.99227187172106" lon="9.509176113525045"><ele>37.66666666666667</ele><time>2026-05-03T16:08:40.999Z</time></trkpt><trkpt lat="40.99239428868598" lon="9.509346861366375"><ele>40.0</ele><time>2026-05-03T16:08:41.999Z</time></trkpt><trkpt lat="40.99251556160312" lon="9.509515693892249"><ele>43.0</ele><time>2026-05-03T16:08:42.999Z</time></trkpt><trkpt lat="40.99263624871093" lon="9.509682572792236"><ele>46.0</ele><time>2026-05-03T16:08:43.999Z</time></trkpt><trkpt lat="40.99275588208976" lon="9.509846398918375"><ele>49.0</ele><time>2026-05-03T16:08:44.999Z</time></trkpt><trkpt lat="40.99287478039569" lon="9.510006887937978"><ele>49.0</ele><time>2026-05-03T16:08:45.999Z</time></trkpt><trkpt lat="40.992992987468725" lon="9.510165293118988"><ele>49.0</ele><time>2026-05-03T16:08:46.999Z</time></trkpt><trkpt lat="40.9931114513914" lon="9.510326229280315"><ele>49.0</ele><time>2026-05-03T16:08:48Z</time></trkpt><trkpt lat="40.99322701561764" lon="9.510492073768093"><ele>49.666666666666664</ele><time>2026-05-03T16:08:49Z</time></trkpt><trkpt lat="40.99333863980081" lon="9.510666776143143"><ele>50.33333333333333</ele><time>2026-05-03T16:08:50Z</time></trkpt><trkpt lat="40.99344412280277" lon="9.51084739679907"><ele>51.0</ele><time>2026-05-03T16:08:51Z</time></trkpt><trkpt lat="40.99354283688704" lon="9.511037680618243"><ele>51.33333333333333</ele><time>2026-05-03T16:08:52Z</time></trkpt><trkpt lat="40.99363059501914" lon="9.511240190179441"><ele>51.666666666666664</ele><time>2026-05-03T16:08:53Z</time></trkpt><trkpt lat="40.99371059853879" lon="9.511449240453796"><ele>52.0</ele><time>2026-05-03T16:08:54Z</time></trkpt><trkpt lat="40.9937835572066" lon="9.511665836372993"><ele>53.33333333333333</ele><time>2026-05-03T16:08:55Z</time></trkpt><trkpt lat="40.99385519320427" lon="9.511884412399834"><ele>54.66666666666667</ele><time>2026-05-03T16:08:56Z</time></trkpt><trkpt lat="40.993926419003486" lon="9.512101553946971"><ele>56.0</ele><time>2026-05-03T16:08:57Z</time></trkpt><trkpt lat="40.99399898053705" lon="9.512320039065346"><ele>57.0</ele><time>2026-05-03T16:08:58Z</time></trkpt><trkpt lat="40.9940720732807" lon="9.51253799945775"><ele>58.0</ele><time>2026-05-03T16:08:59Z</time></trkpt><trkpt lat="40.99414446489369" lon="9.51275407542234"><ele>59.0</ele><time>2026-05-03T16:09:00Z</time></trkpt><trkpt lat="40.994218363841874" lon="9.512969674864651"><ele>63.333333333333336</ele><time>2026-05-03T16:09:01Z</time></trkpt><trkpt lat="40.99429132712212" lon="9.513182934909542"><ele>67.66666666666667</ele><time>2026-05-03T16:09:02Z</time></trkpt><trkpt lat="40.99436209814078" lon="9.513398317084876"><ele>72.0</ele><time>2026-05-03T16:09:03Z</time></trkpt><trkpt lat="40.99443079610094" lon="9.513612121336314"><ele>71.33333333333333</ele><time>2026-05-03T16:09:04Z</time></trkpt><trkpt lat="40.99450032064853" lon="9.51382213683317"><ele>70.66666666666666</ele><time>2026-05-03T16:09:05Z</time></trkpt><trkpt lat="40.994571016530585" lon="9.51403312807449"><ele>70.0</ele><time>2026-05-03T16:09:06Z</time></trkpt><trkpt lat="40.99463919919831" lon="9.514244524391923"><ele>70.0</ele><time>2026-05-03T16:09:07Z</time></trkpt><trkpt lat="40.99470883329464" lon="9.51445390998714"><ele>70.0</ele><time>2026-05-03T16:09:08Z</time></trkpt><trkpt lat="40.99477973021415" lon="9.514662664082564"><ele>70.0</ele><time>2026-05-03T16:09:09Z</time></trkpt><trkpt lat="40.99485014261462" lon="9.514872682335865"><ele>70.66666666666666</ele><time>2026-05-03T16:09:10Z</time></trkpt><trkpt lat="40.99492034037039" lon="9.515084472978005"><ele>71.33333333333333</ele><time>2026-05-03T16:09:11Z</time></trkpt><trkpt lat="40.99499125358107" lon="9.515296603973143"><ele>72.0</ele><time>2026-05-03T16:09:12Z</time></trkpt><trkpt lat="40.99506209577109" lon="9.515510163919103"><ele>72.0</ele><time>2026-05-03T16:09:13Z</time></trkpt><trkpt lat="40.99513289901038" lon="9.515725392180965"><ele>72.0</ele><time>2026-05-03T16:09:14Z</time></trkpt><trkpt lat="40.995205737492185" lon="9.515940956164446"><ele>72.0</ele><time>2026-05-03T16:09:15Z</time></trkpt><trkpt lat="40.99527959143545" lon="9.516157565536847"><ele>73.0</ele><time>2026-05-03T16:09:16Z</time></trkpt><trkpt lat="40.995354252149205" lon="9.51637850165718"><ele>74.0</ele><time>2026-05-03T16:09:17Z</time></trkpt><trkpt lat="40.995429175416845" lon="9.516598967012872"><ele>75.0</ele><time>2026-05-03T16:09:18Z</time></trkpt><trkpt lat="40.9955045183166" lon="9.516822024360623"><ele>75.0</ele><time>2026-05-03T16:09:19Z</time></trkpt><trkpt lat="40.99557930178198" lon="9.517047983849672"><ele>75.0</ele><time>2026-05-03T16:09:20Z</time></trkpt><trkpt lat="40.995654323096865" lon="9.517277427865535"><ele>75.0</ele><time>2026-05-03T16:09:21Z</time></trkpt><trkpt lat="40.995727295229194" lon="9.517510837332008"><ele>76.0</ele><time>2026-05-03T16:09:22Z</time></trkpt><trkpt lat="40.995795917823905" lon="9.517749558518835"><ele>77.0</ele><time>2026-05-03T16:09:23Z</time></trkpt><trkpt lat="40.99585964772954" lon="9.517994165124165"><ele>78.0</ele><time>2026-05-03T16:09:24Z</time></trkpt><trkpt lat="40.99592134450013" lon="9.518242527396954"><ele>79.0</ele><time>2026-05-03T16:09:25Z</time></trkpt><trkpt lat="40.99598083035526" lon="9.51849335491403"><ele>80.0</ele><time>2026-05-03T16:09:26Z</time></trkpt><trkpt lat="40.99603896816493" lon="9.518744540463501"><ele>81.0</ele><time>2026-05-03T16:09:27Z</time></trkpt><trkpt lat="40.99609749160453" lon="9.518993576913713"><ele>81.0</ele><time>2026-05-03T16:09:28Z</time></trkpt><trkpt lat="40.99615615892348" lon="9.519241738556431"><ele>81.0</ele><time>2026-05-03T16:09:29Z</time></trkpt><trkpt lat="40.99621236580647" lon="9.519487478999242"><ele>81.0</ele><time>2026-05-03T16:09:30Z</time></trkpt><trkpt lat="40.99626873757882" lon="9.519733340712582"><ele>80.0</ele><time>2026-05-03T16:09:31Z</time></trkpt><trkpt lat="40.99632400002978" lon="9.519978673034954"><ele>79.0</ele><time>2026-05-03T16:09:32Z</time></trkpt><trkpt lat="40.996380883250936" lon="9.520223636396526"><ele>78.0</ele><time>2026-05-03T16:09:33Z</time></trkpt><trkpt lat="40.99643816952529" lon="9.52046912588961"><ele>78.0</ele><time>2026-05-03T16:09:34Z</time></trkpt><trkpt lat="40.99649340758394" lon="9.520715311108406"><ele>78.0</ele><time>2026-05-03T16:09:35Z</time></trkpt><trkpt lat="40.99654895524003" lon="9.520961436835655"><ele>78.0</ele><time>2026-05-03T16:09:36Z</time></trkpt><trkpt lat="40.99660485712091" lon="9.521206759549637"><ele>77.66666666666667</ele><time>2026-05-03T16:09:37Z</time></trkpt><trkpt lat="40.99666235606689" lon="9.521451632860222"><ele>77.33333333333334</ele><time>2026-05-03T16:09:38Z</time></trkpt><trkpt lat="40.996719055376296" lon="9.521695422640773"><ele>77.0</ele><time>2026-05-03T16:09:39Z</time></trkpt><trkpt lat="40.99677741041056" lon="9.521936912829158"><ele>76.33333333333334</ele><time>2026-05-03T16:09:40Z</time></trkpt><trkpt lat="40.99683872420853" lon="9.522172079781202"><ele>75.66666666666667</ele><time>2026-05-03T16:09:41Z</time></trkpt><trkpt lat="40.99690843102297" lon="9.52240363823136"><ele>75.0</ele><time>2026-05-03T16:09:42Z</time></trkpt><trkpt lat="40.996986602729926" lon="9.522628673066412"><ele>75.0</ele><time>2026-05-03T16:09:43Z</time></trkpt><trkpt lat="40.99706792422723" lon="9.522845688186155"><ele>75.0</ele><time>2026-05-03T16:09:44Z</time></trkpt><trkpt lat="40.99715191702986" lon="9.523063661248505"><ele>75.0</ele><time>2026-05-03T16:09:45Z</time></trkpt><trkpt lat="40.99723989654017" lon="9.523279867706417"><ele>74.0</ele><time>2026-05-03T16:09:46Z</time></trkpt><trkpt lat="40.997328082313274" lon="9.523496934284102"><ele>73.0</ele><time>2026-05-03T16:09:47Z</time></trkpt><trkpt lat="40.99741677820646" lon="9.523716451571756"><ele>72.0</ele><time>2026-05-03T16:09:48Z</time></trkpt><trkpt lat="40.997505624181144" lon="9.523937448268882"><ele>71.33333333333333</ele><time>2026-05-03T16:09:49Z</time></trkpt><trkpt lat="40.99759332832059" lon="9.524160381436674"><ele>70.66666666666666</ele><time>2026-05-03T16:09:50Z</time></trkpt><trkpt lat="40.997681004914035" lon="9.524384213181676"><ele>70.0</ele><time>2026-05-03T16:09:51Z</time></trkpt><trkpt lat="40.99777029977561" lon="9.52460959383349"><ele>67.66666666666666</ele><time>2026-05-03T16:09:52Z</time></trkpt><trkpt lat="40.99785478751497" lon="9.524825860963357"><ele>65.33333333333333</ele><time>2026-05-03T16:09:53Z</time></trkpt><trkpt lat="40.99793487476183" lon="9.525033649409957"><ele>63.0</ele><time>2026-05-03T16:09:54Z</time></trkpt><trkpt lat="40.998016219112415" lon="9.52523355736786"><ele>62.66666666666667</ele><time>2026-05-03T16:09:55Z</time></trkpt><trkpt lat="40.99809798865222" lon="9.525434958456264"><ele>62.333333333333336</ele><time>2026-05-03T16:09:56Z</time></trkpt><trkpt lat="40.99817686112891" lon="9.525642049423976"><ele>62.0</ele><time>2026-05-03T16:09:57Z</time></trkpt><trkpt lat="40.998257686667124" lon="9.525848401947135"><ele>62.0</ele><time>2026-05-03T16:09:58Z</time></trkpt><trkpt lat="40.99833447761055" lon="9.526061534155824"><ele>62.0</ele><time>2026-05-03T16:09:59Z</time></trkpt><trkpt lat="40.99840349084857" lon="9.526290878150167"><ele>62.0</ele><time>2026-05-03T16:10:00Z</time></trkpt><trkpt lat="40.998463003341506" lon="9.526533646125804"><ele>61.0</ele><time>2026-05-03T16:10:01Z</time></trkpt><trkpt lat="40.99851591396103" lon="9.526785654387641"><ele>60.0</ele><time>2026-05-03T16:10:02Z</time></trkpt><trkpt lat="40.99856697458511" lon="9.52703969733818"><ele>59.0</ele><time>2026-05-03T16:10:03Z</time></trkpt><trkpt lat="40.998612799309996" lon="9.527302645517274"><ele>56.333333333333336</ele><time>2026-05-03T16:10:04Z</time></trkpt><trkpt lat="40.998659137100226" lon="9.527571954958999"><ele>53.66666666666667</ele><time>2026-05-03T16:10:05Z</time></trkpt><trkpt lat="40.99870684064603" lon="9.527846193838606"><ele>51.0</ele><time>2026-05-03T16:10:06Z</time></trkpt><trkpt lat="40.9987539644608" lon="9.528120347218513"><ele>50.33333333333333</ele><time>2026-05-03T16:10:07Z</time></trkpt><trkpt lat="40.99880200997074" lon="9.528391606939417"><ele>49.666666666666664</ele><time>2026-05-03T16:10:08Z</time></trkpt><trkpt lat="40.998848306437615" lon="9.528659043085897"><ele>49.0</ele><time>2026-05-03T16:10:09Z</time></trkpt><trkpt lat="40.99889313314914" lon="9.528921510261823"><ele>49.0</ele><time>2026-05-03T16:10:10Z</time></trkpt><trkpt lat="40.99893469163763" lon="9.52917829914309"><ele>49.0</ele><time>2026-05-03T16:10:11Z</time></trkpt><trkpt lat="40.99897675000348" lon="9.529426777771937"><ele>49.0</ele><time>2026-05-03T16:10:12Z</time></trkpt><trkpt lat="40.99901908114328" lon="9.529669032721358"><ele>48.666666666666664</ele><time>2026-05-03T16:10:13Z</time></trkpt><trkpt lat="40.99906100621275" lon="9.529905373923151"><ele>48.33333333333333</ele><time>2026-05-03T16:10:14Z</time></trkpt><trkpt lat="40.999098482147424" lon="9.530136470495716"><ele>48.0</ele><time>2026-05-03T16:10:15Z</time></trkpt><trkpt lat="40.99913097339702" lon="9.530372968330136"><ele>48.0</ele><time>2026-05-03T16:10:16Z</time></trkpt><trkpt lat="40.99915517358117" lon="9.530613674642119"><ele>48.0</ele><time>2026-05-03T16:10:17Z</time></trkpt><trkpt lat="40.999166538630064" lon="9.530854132998956"><ele>48.0</ele><time>2026-05-03T16:10:18Z</time></trkpt><trkpt lat="40.99916422882395" lon="9.531091386349852"><ele>49.0</ele><time>2026-05-03T16:10:19Z</time></trkpt><trkpt lat="40.99914857425122" lon="9.531310574080543"><ele>50.0</ele><time>2026-05-03T16:10:20Z</time></trkpt><trkpt lat="40.99912350685048" lon="9.531513565384166"><ele>51.0</ele><time>2026-05-03T16:10:21Z</time></trkpt><trkpt lat="40.99909109225529" lon="9.531698640073973"><ele>51.0</ele><time>2026-05-03T16:10:22Z</time></trkpt><trkpt lat="40.99905727771976" lon="9.531854470846149"><ele>51.0</ele><time>2026-05-03T16:10:23Z</time></trkpt><trkpt lat="40.99902112575243" lon="9.531989980644587"><ele>51.0</ele><time>2026-05-03T16:10:24Z</time></trkpt><trkpt lat="40.998980124613986" lon="9.532111859634655"><ele>51.0</ele><time>2026-05-03T16:10:25Z</time></trkpt><trkpt lat="40.99892772147407" lon="9.532217235914619"><ele>51.0</ele><time>2026-05-03T16:10:26Z</time></trkpt><trkpt lat="40.99884940654348" lon="9.532299211318465"><ele>51.199999999999996</ele><time>2026-05-03T16:10:27Z</time></trkpt><trkpt lat="40.998789185903085" lon="9.53238878549757"><ele>51.4</ele><time>2026-05-03T16:10:28Z</time></trkpt><trkpt lat="40.998759421002006" lon="9.532515167041488"><ele>51.6</ele><time>2026-05-03T16:10:29Z</time></trkpt><trkpt lat="40.99876364897374" lon="9.532648310186548"><ele>51.8</ele><time>2026-05-03T16:10:30Z</time></trkpt><trkpt lat="40.998775685295385" lon="9.532786840120629"><ele>52.0</ele><time>2026-05-03T16:10:31Z</time></trkpt><trkpt lat="40.99876747126581" lon="9.532936429658662"><ele>52.0</ele><time>2026-05-03T16:10:32Z</time></trkpt><trkpt lat="40.998715879270456" lon="9.533088256560175"><ele>52.0</ele><time>2026-05-03T16:10:33Z</time></trkpt><trkpt lat="40.998683720448405" lon="9.533256502006726"><ele>52.0</ele><time>2026-05-03T16:10:34Z</time></trkpt><trkpt lat="40.99863361249155" lon="9.533428733928416"><ele>52.0</ele><time>2026-05-03T16:10:35Z</time></trkpt><trkpt lat="40.99858288225564" lon="9.533607967979314"><ele>51.75</ele><time>2026-05-03T16:10:36Z</time></trkpt><trkpt lat="40.9985350607454" lon="9.533778948454282"><ele>51.5</ele><time>2026-05-03T16:10:37Z</time></trkpt><trkpt lat="40.99849318752707" lon="9.533933264229153"><ele>51.25</ele><time>2026-05-03T16:10:37.999Z</time></trkpt><trkpt lat="40.998449062716254" lon="9.534098379950738"><ele>51.0</ele><time>2026-05-03T16:10:38.999Z</time></trkpt><trkpt lat="40.99840175102219" lon="9.534276324678865"><ele>51.0</ele><time>2026-05-03T16:10:39.999Z</time></trkpt><trkpt lat="40.99835010381139" lon="9.534460400061864"><ele>51.0</ele><time>2026-05-03T16:10:40.999Z</time></trkpt><trkpt lat="40.99829352730283" lon="9.534654669873944"><ele>51.0</ele><time>2026-05-03T16:10:41.999Z</time></trkpt><trkpt lat="40.99823346805942" lon="9.534861797716879"><ele>52.0</ele><time>2026-05-03T16:10:42.999Z</time></trkpt><trkpt lat="40.99817158419651" lon="9.535078709174675"><ele>53.0</ele><time>2026-05-03T16:10:43.999Z</time></trkpt><trkpt lat="40.9981087794158" lon="9.535304001713838"><ele>54.0</ele><time>2026-05-03T16:10:44.999Z</time></trkpt><trkpt lat="40.99804513677903" lon="9.535530968611393"><ele>54.33333333333333</ele><time>2026-05-03T16:10:45.999Z</time></trkpt><trkpt lat="40.997981051330626" lon="9.535757866017528"><ele>54.666666666666664</ele><time>2026-05-03T16:10:46.999Z</time></trkpt><trkpt lat="40.99791588213926" lon="9.535987378193134"><ele>55.0</ele><time>2026-05-03T16:10:47.999Z</time></trkpt><trkpt lat="40.9978507397596" lon="9.536215294745816"><ele>54.666666666666664</ele><time>2026-05-03T16:10:48.999Z</time></trkpt><trkpt lat="40.99778455535205" lon="9.536442883107116"><ele>54.33333333333333</ele><time>2026-05-03T16:10:49.999Z</time></trkpt><trkpt lat="40.99771699767098" lon="9.536672381497514"><ele>54.0</ele><time>2026-05-03T16:10:50.999Z</time></trkpt><trkpt lat="40.997648246169106" lon="9.536901818780427"><ele>54.0</ele><time>2026-05-03T16:10:51.999Z</time></trkpt><trkpt lat="40.99758047782393" lon="9.537132529307746"><ele>54.0</ele><time>2026-05-03T16:10:52.999Z</time></trkpt><trkpt lat="40.99752155408338" lon="9.537367993426468"><ele>54.0</ele><time>2026-05-03T16:10:54Z</time></trkpt><trkpt lat="40.997441987160336" lon="9.537593580590713"><ele>53.66666666666667</ele><time>2026-05-03T16:10:55Z</time></trkpt><trkpt lat="40.99737479961093" lon="9.537821566777321"><ele>53.333333333333336</ele><time>2026-05-03T16:10:56Z</time></trkpt><trkpt lat="40.9973079698902" lon="9.538053586072396"><ele>53.0</ele><time>2026-05-03T16:10:57Z</time></trkpt><trkpt lat="40.99724268750892" lon="9.538280771502876"><ele>52.66666666666667</ele><time>2026-05-03T16:10:58Z</time></trkpt><trkpt lat="40.99717579252175" lon="9.538546901061205"><ele>52.33333333333333</ele><time>2026-05-03T16:10:59Z</time></trkpt><trkpt lat="40.997111346712316" lon="9.538772835670384"><ele>52.0</ele><time>2026-05-03T16:11:00Z</time></trkpt><trkpt lat="40.99706161503073" lon="9.539003132908306"><ele>52.0</ele><time>2026-05-03T16:11:01Z</time></trkpt><trkpt lat="40.99702478444475" lon="9.539237038244593"><ele>52.0</ele><time>2026-05-03T16:11:02Z</time></trkpt><trkpt lat="40.99700415719165" lon="9.539476308130434"><ele>52.0</ele><time>2026-05-03T16:11:03Z</time></trkpt><trkpt lat="40.996999764868605" lon="9.539718119503375"><ele>52.0</ele><time>2026-05-03T16:11:04Z</time></trkpt><trkpt lat="40.997011071092714" lon="9.539961131241759"><ele>52.0</ele><time>2026-05-03T16:11:05Z</time></trkpt><trkpt lat="40.99703304586648" lon="9.540205363272507"><ele>52.0</ele><time>2026-05-03T16:11:06Z</time></trkpt><trkpt lat="40.997067909606336" lon="9.540448937258892"><ele>51.0</ele><time>2026-05-03T16:11:07Z</time></trkpt><trkpt lat="40.99711773849905" lon="9.540688604414695"><ele>50.0</ele><time>2026-05-03T16:11:08Z</time></trkpt><trkpt lat="40.997177059587756" lon="9.54092998127156"><ele>49.0</ele><time>2026-05-03T16:11:09Z</time></trkpt><trkpt lat="40.99724046032145" lon="9.54117404963642"><ele>47.33333333333333</ele><time>2026-05-03T16:11:10Z</time></trkpt><trkpt lat="40.99730276459031" lon="9.541415652087275"><ele>45.666666666666664</ele><time>2026-05-03T16:11:11Z</time></trkpt><trkpt lat="40.99736021684163" lon="9.541641910763836"><ele>44.0</ele><time>2026-05-03T16:11:12Z</time></trkpt><trkpt lat="40.99741180202707" lon="9.541850165339016"><ele>44.0</ele><time>2026-05-03T16:11:13Z</time></trkpt><trkpt lat="40.99746442747623" lon="9.542046468234822"><ele>44.0</ele><time>2026-05-03T16:11:14Z</time></trkpt><trkpt lat="40.99751380752355" lon="9.542242474836272"><ele>44.0</ele><time>2026-05-03T16:11:15Z</time></trkpt><trkpt lat="40.99755919619644" lon="9.54243766266682"><ele>42.33333333333333</ele><time>2026-05-03T16:11:16Z</time></trkpt><trkpt lat="40.99760568262866" lon="9.542638255545628"><ele>40.666666666666664</ele><time>2026-05-03T16:11:17Z</time></trkpt><trkpt lat="40.99763190834692" lon="9.54285440426027"><ele>39.0</ele><time>2026-05-03T16:11:18Z</time></trkpt><trkpt lat="40.99765630719958" lon="9.543078263171603"><ele>37.666666666666664</ele><time>2026-05-03T16:11:19Z</time></trkpt><trkpt lat="40.9976707665005" lon="9.543307751769118"><ele>36.33333333333333</ele><time>2026-05-03T16:11:20Z</time></trkpt><trkpt lat="40.99767184233753" lon="9.543553513066145"><ele>35.0</ele><time>2026-05-03T16:11:21Z</time></trkpt><trkpt lat="40.99765873945192" lon="9.543793704543871"><ele>33.666666666666664</ele><time>2026-05-03T16:11:22Z</time></trkpt><trkpt lat="40.9976477507082" lon="9.544041804095125"><ele>32.333333333333336</ele><time>2026-05-03T16:11:23Z</time></trkpt><trkpt lat="40.997589712024244" lon="9.544276690977004"><ele>31.0</ele><time>2026-05-03T16:11:24Z</time></trkpt><trkpt lat="40.99753331120074" lon="9.544512052652367"><ele>29.666666666666668</ele><time>2026-05-03T16:11:25Z</time></trkpt><trkpt lat="40.997466041718646" lon="9.544742926954575"><ele>28.333333333333336</ele><time>2026-05-03T16:11:26Z</time></trkpt><trkpt lat="40.99738420335995" lon="9.544963575583749"><ele>27.0</ele><time>2026-05-03T16:11:27Z</time></trkpt><trkpt lat="40.997295212428725" lon="9.545167637789197"><ele>27.0</ele><time>2026-05-03T16:11:28Z</time></trkpt><trkpt lat="40.997204753294035" lon="9.545351488630825"><ele>27.0</ele><time>2026-05-03T16:11:29Z</time></trkpt><trkpt lat="40.99711542617352" lon="9.545527283096336"><ele>27.0</ele><time>2026-05-03T16:11:30Z</time></trkpt><trkpt lat="40.99704313440592" lon="9.545708828378624"><ele>26.0</ele><time>2026-05-03T16:11:31Z</time></trkpt><trkpt lat="40.99696520614026" lon="9.54586311037875"><ele>25.0</ele><time>2026-05-03T16:11:32Z</time></trkpt><trkpt lat="40.996893619530276" lon="9.545991890928846"><ele>24.0</ele><time>2026-05-03T16:11:33Z</time></trkpt><trkpt lat="40.996816223889724" lon="9.546105553888268"><ele>23.0</ele><time>2026-05-03T16:11:34Z</time></trkpt><trkpt lat="40.99673020068406" lon="9.546201101473656"><ele>22.5</ele><time>2026-05-03T16:11:35Z</time></trkpt><trkpt lat="40.996653875237136" lon="9.546279221398084"><ele>22.0</ele><time>2026-05-03T16:11:36Z</time></trkpt><trkpt lat="40.99660587348865" lon="9.546373545144434"><ele>21.5</ele><time>2026-05-03T16:11:38Z</time></trkpt><trkpt lat="40.99660105612096" lon="9.54648545220522"><ele>21.0</ele><time>2026-05-03T16:11:40Z</time></trkpt><trkpt lat="40.996589892630716" lon="9.546567920160532"><ele>20.5</ele><time>2026-05-03T16:11:41Z</time></trkpt><trkpt lat="40.99667633209488" lon="9.54667638966269"><ele>20.0</ele><time>2026-05-03T16:11:42Z</time></trkpt><trkpt lat="40.99675251958081" lon="9.546786145541347"><ele>20.0</ele><time>2026-05-03T16:11:43Z</time></trkpt><trkpt lat="40.99693515174004" lon="9.547038408574338"><ele>20.0</ele><time>2026-05-03T16:11:45Z</time></trkpt><trkpt lat="40.99702793976209" lon="9.547194956196314"><ele>20.0</ele><time>2026-05-03T16:11:46Z</time></trkpt><trkpt lat="40.9971092010461" lon="9.547374204424036"><ele>19.5</ele><time>2026-05-03T16:11:47Z</time></trkpt><trkpt lat="40.99717470922093" lon="9.54755247822629"><ele>19.0</ele><time>2026-05-03T16:11:48Z</time></trkpt><trkpt lat="40.99723091900255" lon="9.547730431987661"><ele>18.5</ele><time>2026-05-03T16:11:49Z</time></trkpt><trkpt lat="40.99728101857284" lon="9.547914289259403"><ele>18.0</ele><time>2026-05-03T16:11:50Z</time></trkpt><trkpt lat="40.997322174273975" lon="9.548103414059513"><ele>18.0</ele><time>2026-05-03T16:11:51Z</time></trkpt><trkpt lat="40.99736103455965" lon="9.548300157742142"><ele>18.0</ele><time>2026-05-03T16:11:52Z</time></trkpt><trkpt lat="40.997400986809744" lon="9.548500091122675"><ele>18.0</ele><time>2026-05-03T16:11:53Z</time></trkpt><trkpt lat="40.99744730812723" lon="9.548703197305699"><ele>17.666666666666668</ele><time>2026-05-03T16:11:54Z</time></trkpt><trkpt lat="40.9974875634469" lon="9.54891086748587"><ele>17.333333333333336</ele><time>2026-05-03T16:11:55Z</time></trkpt><trkpt lat="40.99752827400063" lon="9.549109619157342"><ele>17.0</ele><time>2026-05-03T16:11:56Z</time></trkpt><trkpt lat="40.99756478632932" lon="9.54929618028281"><ele>16.25</ele><time>2026-05-03T16:11:57Z</time></trkpt><trkpt lat="40.99760433994963" lon="9.549471998961021"><ele>15.5</ele><time>2026-05-03T16:11:58Z</time></trkpt><trkpt lat="40.99764489593514" lon="9.549638312987016"><ele>14.75</ele><time>2026-05-03T16:11:59Z</time></trkpt><trkpt lat="40.997670402191964" lon="9.549816628370785"><ele>14.0</ele><time>2026-05-03T16:12:00Z</time></trkpt><trkpt lat="40.99771752710938" lon="9.549986441556024"><ele>13.75</ele><time>2026-05-03T16:12:01Z</time></trkpt><trkpt lat="40.99775164414206" lon="9.550157916963988"><ele>13.5</ele><time>2026-05-03T16:12:02Z</time></trkpt><trkpt lat="40.99779292849473" lon="9.550330522344264"><ele>13.25</ele><time>2026-05-03T16:12:03Z</time></trkpt><trkpt lat="40.997842787015486" lon="9.550511739078859"><ele>13.0</ele><time>2026-05-03T16:12:04Z</time></trkpt><trkpt lat="40.99790759357508" lon="9.55069424984308"><ele>13.0</ele><time>2026-05-03T16:12:05Z</time></trkpt><trkpt lat="40.99799111197465" lon="9.550875391409956"><ele>13.0</ele><time>2026-05-03T16:12:06Z</time></trkpt><trkpt lat="40.99808109948704" lon="9.551057218434845"><ele>13.0</ele><time>2026-05-03T16:12:07Z</time></trkpt><trkpt lat="40.99817269144554" lon="9.551234455387187"><ele>12.0</ele><time>2026-05-03T16:12:08Z</time></trkpt><trkpt lat="40.99826314564097" lon="9.551406624126225"><ele>11.0</ele><time>2026-05-03T16:12:09Z</time></trkpt><trkpt lat="40.99834872556339" lon="9.551575495208711"><ele>10.0</ele><time>2026-05-03T16:12:10Z</time></trkpt><trkpt lat="40.998431703479255" lon="9.551734009763429"><ele>10.0</ele><time>2026-05-03T16:12:11Z</time></trkpt><trkpt lat="40.9985082897622" lon="9.551880654475587"><ele>10.0</ele><time>2026-05-03T16:12:12Z</time></trkpt><trkpt lat="40.99858013256572" lon="9.552022297843298"><ele>10.0</ele><time>2026-05-03T16:12:13Z</time></trkpt><trkpt lat="40.99865491751803" lon="9.552161137034743"><ele>10.0</ele><time>2026-05-03T16:12:14Z</time></trkpt><trkpt lat="40.9987255465575" lon="9.552305949585442"><ele>10.666666666666668</ele><time>2026-05-03T16:12:15Z</time></trkpt><trkpt lat="40.99879296085314" lon="9.55246681269712"><ele>11.333333333333334</ele><time>2026-05-03T16:12:16Z</time></trkpt><trkpt lat="40.99881773009506" lon="9.552663990632665"><ele>12.0</ele><time>2026-05-03T16:12:17Z</time></trkpt><trkpt lat="40.99883718740763" lon="9.552877380002865"><ele>12.0</ele><time>2026-05-03T16:12:18Z</time></trkpt><trkpt lat="40.99883272971525" lon="9.553078348522606"><ele>12.0</ele><time>2026-05-03T16:12:19Z</time></trkpt><trkpt lat="40.99884037918393" lon="9.553274397079653"><ele>12.0</ele><time>2026-05-03T16:12:20Z</time></trkpt><trkpt lat="40.998831656554266" lon="9.553463770740754"><ele>12.0</ele><time>2026-05-03T16:12:20.999Z</time></trkpt><trkpt lat="40.99882337849759" lon="9.553655538700761"><ele>12.0</ele><time>2026-05-03T16:12:21.999Z</time></trkpt><trkpt lat="40.99881455391991" lon="9.553850705531222"><ele>12.0</ele><time>2026-05-03T16:12:22.999Z</time></trkpt><trkpt lat="40.99880503355123" lon="9.554048725647013"><ele>12.0</ele><time>2026-05-03T16:12:23.999Z</time></trkpt><trkpt lat="40.99879744331468" lon="9.554249650796207"><ele>12.0</ele><time>2026-05-03T16:12:24.999Z</time></trkpt><trkpt lat="40.99879179817714" lon="9.55445130884484"><ele>12.666666666666668</ele><time>2026-05-03T16:12:25.999Z</time></trkpt><trkpt lat="40.99878451469074" lon="9.554657157445597"><ele>13.333333333333334</ele><time>2026-05-03T16:12:26.999Z</time></trkpt><trkpt lat="40.99874960451465" lon="9.55486085149723"><ele>14.0</ele><time>2026-05-03T16:12:27.999Z</time></trkpt><trkpt lat="40.998721416570746" lon="9.555068882547133"><ele>14.0</ele><time>2026-05-03T16:12:28.999Z</time></trkpt><trkpt lat="40.998699542913016" lon="9.555276542483146"><ele>14.0</ele><time>2026-05-03T16:12:29.999Z</time></trkpt><trkpt lat="40.99866116567089" lon="9.555473826353738"><ele>14.0</ele><time>2026-05-03T16:12:30.999Z</time></trkpt><trkpt lat="40.998633222165196" lon="9.555668137748938"><ele>14.0</ele><time>2026-05-03T16:12:31.999Z</time></trkpt><trkpt lat="40.99862178993468" lon="9.555856162592859"><ele>14.0</ele><time>2026-05-03T16:12:32.999Z</time></trkpt><trkpt lat="40.99863188363858" lon="9.55604279413254"><ele>14.0</ele><time>2026-05-03T16:12:33.999Z</time></trkpt><trkpt lat="40.998661426736824" lon="9.556228252251199"><ele>14.0</ele><time>2026-05-03T16:12:34.999Z</time></trkpt><trkpt lat="40.998684488028125" lon="9.556417507324403"><ele>14.0</ele><time>2026-05-03T16:12:35.999Z</time></trkpt><trkpt lat="40.99870384019248" lon="9.556609935977042"><ele>14.0</ele><time>2026-05-03T16:12:36.999Z</time></trkpt><trkpt lat="40.998721808603904" lon="9.556811509057598"><ele>14.0</ele><time>2026-05-03T16:12:37.999Z</time></trkpt><trkpt lat="40.9987253462353" lon="9.557021995088146"><ele>13.333333333333334</ele><time>2026-05-03T16:12:38.999Z</time></trkpt><trkpt lat="40.99869087020179" lon="9.557234071220975"><ele>12.666666666666668</ele><time>2026-05-03T16:12:39.999Z</time></trkpt><trkpt lat="40.99868556751462" lon="9.557451499118743"><ele>12.0</ele><time>2026-05-03T16:12:40.999Z</time></trkpt><trkpt lat="40.99866049296875" lon="9.557664304452675"><ele>11.666666666666666</ele><time>2026-05-03T16:12:41.999Z</time></trkpt><trkpt lat="40.998643141170966" lon="9.55787410544169"><ele>11.333333333333332</ele><time>2026-05-03T16:12:42.999Z</time></trkpt><trkpt lat="40.99863972537596" lon="9.558088651391255"><ele>11.0</ele><time>2026-05-03T16:12:43.999Z</time></trkpt><trkpt lat="40.99866124530618" lon="9.558304476749237"><ele>11.0</ele><time>2026-05-03T16:12:44.999Z</time></trkpt><trkpt lat="40.9987225814855" lon="9.558510802450677"><ele>11.0</ele><time>2026-05-03T16:12:45.999Z</time></trkpt><trkpt lat="40.99880229047966" lon="9.558711947183658"><ele>11.0</ele><time>2026-05-03T16:12:46.999Z</time></trkpt><trkpt lat="40.99888103308612" lon="9.558910868593957"><ele>12.333333333333332</ele><time>2026-05-03T16:12:47.999Z</time></trkpt><trkpt lat="40.998948023566015" lon="9.55910868411267"><ele>13.666666666666666</ele><time>2026-05-03T16:12:48.999Z</time></trkpt><trkpt lat="40.998974168714575" lon="9.559310098068014"><ele>15.0</ele><time>2026-05-03T16:12:49.999Z</time></trkpt><trkpt lat="40.99896181823379" lon="9.559514756191938"><ele>15.666666666666668</ele><time>2026-05-03T16:12:50.999Z</time></trkpt><trkpt lat="40.99896235577232" lon="9.559715571634037"><ele>16.333333333333336</ele><time>2026-05-03T16:12:51.999Z</time></trkpt><trkpt lat="40.99893989008672" lon="9.559912939751113"><ele>17.0</ele><time>2026-05-03T16:12:52.999Z</time></trkpt><trkpt lat="40.99892688349341" lon="9.56012117702311"><ele>17.0</ele><time>2026-05-03T16:12:53.999Z</time></trkpt><trkpt lat="40.99891437253844" lon="9.560333987897279"><ele>17.0</ele><time>2026-05-03T16:12:54.999Z</time></trkpt><trkpt lat="40.998886719583666" lon="9.560550211194437"><ele>17.0</ele><time>2026-05-03T16:12:55.999Z</time></trkpt><trkpt lat="40.99887693215434" lon="9.560770805940344"><ele>16.666666666666668</ele><time>2026-05-03T16:12:56.999Z</time></trkpt><trkpt lat="40.998875641475806" lon="9.560996019227787"><ele>16.333333333333332</ele><time>2026-05-03T16:12:57.999Z</time></trkpt><trkpt lat="40.99889502788998" lon="9.56122041139732"><ele>16.0</ele><time>2026-05-03T16:12:58.999Z</time></trkpt><trkpt lat="40.99890176780163" lon="9.561445397716193"><ele>16.0</ele><time>2026-05-03T16:13:00Z</time></trkpt><trkpt lat="40.99890961760051" lon="9.561667496323059"><ele>16.0</ele><time>2026-05-03T16:13:01Z</time></trkpt><trkpt lat="40.998915666275494" lon="9.561888163202656"><ele>16.0</ele><time>2026-05-03T16:13:02Z</time></trkpt><trkpt lat="40.99891845383778" lon="9.562105501295122"><ele>16.666666666666664</ele><time>2026-05-03T16:13:03Z</time></trkpt><trkpt lat="40.99891372196531" lon="9.562327928811154"><ele>17.333333333333332</ele><time>2026-05-03T16:13:04Z</time></trkpt><trkpt lat="40.99890226450371" lon="9.56255521575518"><ele>18.0</ele><time>2026-05-03T16:13:05Z</time></trkpt><trkpt lat="40.99888549677033" lon="9.56278610322755"><ele>18.0</ele><time>2026-05-03T16:13:06Z</time></trkpt><trkpt lat="40.99886202758405" lon="9.56302161514343"><ele>18.0</ele><time>2026-05-03T16:13:07Z</time></trkpt><trkpt lat="40.998822100333534" lon="9.563259635624966"><ele>18.0</ele><time>2026-05-03T16:13:08Z</time></trkpt><trkpt lat="40.99881232115775" lon="9.563508516500242"><ele>18.666666666666668</ele><time>2026-05-03T16:13:09Z</time></trkpt><trkpt lat="40.99878539004251" lon="9.563755971130396"><ele>19.333333333333336</ele><time>2026-05-03T16:13:10Z</time></trkpt><trkpt lat="40.99875451163679" lon="9.564004064605609"><ele>20.0</ele><time>2026-05-03T16:13:11Z</time></trkpt><trkpt lat="40.99872926537047" lon="9.564243152480218"><ele>20.0</ele><time>2026-05-03T16:13:12Z</time></trkpt><trkpt lat="40.99870621520759" lon="9.564458906159564"><ele>20.0</ele><time>2026-05-03T16:13:13Z</time></trkpt><trkpt lat="40.998690292038596" lon="9.564654761434147"><ele>20.0</ele><time>2026-05-03T16:13:14Z</time></trkpt><trkpt lat="40.99867797297747" lon="9.564858117971923"><ele>20.333333333333336</ele><time>2026-05-03T16:13:15Z</time></trkpt><trkpt lat="40.99867185156912" lon="9.565068796977268"><ele>20.666666666666668</ele><time>2026-05-03T16:13:16Z</time></trkpt><trkpt lat="40.99867616862447" lon="9.565282346455835"><ele>21.0</ele><time>2026-05-03T16:13:17Z</time></trkpt><trkpt lat="40.99868830012894" lon="9.56549713646013"><ele>22.333333333333336</ele><time>2026-05-03T16:13:18Z</time></trkpt><trkpt lat="40.99870350559758" lon="9.56571223880005"><ele>23.666666666666668</ele><time>2026-05-03T16:13:19Z</time></trkpt><trkpt lat="40.99872051601462" lon="9.565930174850328"><ele>25.0</ele><time>2026-05-03T16:13:20Z</time></trkpt><trkpt lat="40.99873548799999" lon="9.56615034568579"><ele>26.333333333333336</ele><time>2026-05-03T16:13:21Z</time></trkpt><trkpt lat="40.998750939440846" lon="9.56637015882979"><ele>27.666666666666664</ele><time>2026-05-03T16:13:22Z</time></trkpt><trkpt lat="40.99876600244411" lon="9.5665895052043"><ele>29.0</ele><time>2026-05-03T16:13:23Z</time></trkpt><trkpt lat="40.99878177885058" lon="9.566808433131747"><ele>29.0</ele><time>2026-05-03T16:13:24Z</time></trkpt><trkpt lat="40.99879921514177" lon="9.567023785536886"><ele>29.0</ele><time>2026-05-03T16:13:25Z</time></trkpt><trkpt lat="40.9988137495035" lon="9.567239476572839"><ele>29.0</ele><time>2026-05-03T16:13:26Z</time></trkpt><trkpt lat="40.99881848028569" lon="9.567453358008786"><ele>29.0</ele><time>2026-05-03T16:13:27Z</time></trkpt><trkpt lat="40.99880989543873" lon="9.567665979429675"><ele>29.0</ele><time>2026-05-03T16:13:28Z</time></trkpt><trkpt lat="40.99879407363263" lon="9.56787984084387"><ele>29.0</ele><time>2026-05-03T16:13:29Z</time></trkpt><trkpt lat="40.998778656446035" lon="9.568095839670502"><ele>28.0</ele><time>2026-05-03T16:13:30Z</time></trkpt><trkpt lat="40.998762710324556" lon="9.568308213283009"><ele>27.0</ele><time>2026-05-03T16:13:31Z</time></trkpt><trkpt lat="40.998740505539" lon="9.56851804202271"><ele>26.0</ele><time>2026-05-03T16:13:32Z</time></trkpt><trkpt lat="40.99869323276929" lon="9.568726052707426"><ele>24.666666666666664</ele><time>2026-05-03T16:13:33Z</time></trkpt><trkpt lat="40.998653109734875" lon="9.568935043718913"><ele>23.333333333333332</ele><time>2026-05-03T16:13:34Z</time></trkpt><trkpt lat="40.99861169732124" lon="9.569147466478535"><ele>22.0</ele><time>2026-05-03T16:13:35Z</time></trkpt><trkpt lat="40.99856951343954" lon="9.56935600141799"><ele>21.25</ele><time>2026-05-03T16:13:36Z</time></trkpt><trkpt lat="40.998545168806466" lon="9.569558910917241"><ele>20.5</ele><time>2026-05-03T16:13:37Z</time></trkpt><trkpt lat="40.998504960509045" lon="9.569747790860129"><ele>19.75</ele><time>2026-05-03T16:13:38Z</time></trkpt><trkpt lat="40.99846712264981" lon="9.569930070284254"><ele>19.0</ele><time>2026-05-03T16:13:39Z</time></trkpt><trkpt lat="40.99842966156639" lon="9.57011734347676"><ele>19.0</ele><time>2026-05-03T16:13:40Z</time></trkpt><trkpt lat="40.998387245242306" lon="9.57030917843378"><ele>19.0</ele><time>2026-05-03T16:13:41Z</time></trkpt><trkpt lat="40.99833082104096" lon="9.57049844695213"><ele>19.0</ele><time>2026-05-03T16:13:42Z</time></trkpt><trkpt lat="40.99826467918708" lon="9.570681631947364"><ele>20.0</ele><time>2026-05-03T16:13:43Z</time></trkpt><trkpt lat="40.99819455884551" lon="9.570865032356796"><ele>21.0</ele><time>2026-05-03T16:13:44Z</time></trkpt><trkpt lat="40.99812455448819" lon="9.571051432919104"><ele>22.0</ele><time>2026-05-03T16:13:45Z</time></trkpt><trkpt lat="40.9980551366182" lon="9.571239936350265"><ele>22.0</ele><time>2026-05-03T16:13:46Z</time></trkpt><trkpt lat="40.99797180273275" lon="9.571419672382264"><ele>22.0</ele><time>2026-05-03T16:13:47Z</time></trkpt><trkpt lat="40.99790330381898" lon="9.571610605560005"><ele>22.0</ele><time>2026-05-03T16:13:48Z</time></trkpt><trkpt lat="40.997849739466695" lon="9.571809578454667"><ele>22.0</ele><time>2026-05-03T16:13:49Z</time></trkpt><trkpt lat="40.997820015278236" lon="9.572013007615261"><ele>22.0</ele><time>2026-05-03T16:13:50Z</time></trkpt><trkpt lat="40.99777776890266" lon="9.572197628559987"><ele>22.0</ele><time>2026-05-03T16:13:51Z</time></trkpt><trkpt lat="40.997736940415635" lon="9.572371942811795"><ele>22.0</ele><time>2026-05-03T16:13:52Z</time></trkpt><trkpt lat="40.997697249975104" lon="9.572536995259508"><ele>20.75</ele><time>2026-05-03T16:13:53Z</time></trkpt><trkpt lat="40.997659361420375" lon="9.572696110427646"><ele>19.5</ele><time>2026-05-03T16:13:54Z</time></trkpt><trkpt lat="40.99761945761814" lon="9.5728557121488"><ele>18.25</ele><time>2026-05-03T16:13:55Z</time></trkpt><trkpt lat="40.997571030730185" lon="9.573015752716733"><ele>17.0</ele><time>2026-05-03T16:13:56Z</time></trkpt><trkpt lat="40.997507205432065" lon="9.573170959462724"><ele>17.25</ele><time>2026-05-03T16:13:57Z</time></trkpt><trkpt lat="40.99742769444785" lon="9.573324960606634"><ele>17.5</ele><time>2026-05-03T16:13:58Z</time></trkpt><trkpt lat="40.99734288340714" lon="9.573481514573935"><ele>17.75</ele><time>2026-05-03T16:13:59Z</time></trkpt><trkpt lat="40.99726492776437" lon="9.573641021355158"><ele>18.0</ele><time>2026-05-03T16:14:00Z</time></trkpt><trkpt lat="40.99719957925368" lon="9.573807427874884"><ele>17.25</ele><time>2026-05-03T16:14:01Z</time></trkpt><trkpt lat="40.9971657927558" lon="9.57398382070843"><ele>16.5</ele><time>2026-05-03T16:14:02Z</time></trkpt><trkpt lat="40.99716620476554" lon="9.574167160497224"><ele>15.75</ele><time>2026-05-03T16:14:03Z</time></trkpt><trkpt lat="40.99720526946731" lon="9.57436443146659"><ele>15.0</ele><time>2026-05-03T16:14:04Z</time></trkpt><trkpt lat="40.99725558063272" lon="9.574549253240377"><ele>14.75</ele><time>2026-05-03T16:14:05Z</time></trkpt><trkpt lat="40.997301845542154" lon="9.574716213669676"><ele>14.5</ele><time>2026-05-03T16:14:06Z</time></trkpt><trkpt lat="40.997341589340124" lon="9.574875299682075"><ele>14.25</ele><time>2026-05-03T16:14:07Z</time></trkpt><trkpt lat="40.99738619043132" lon="9.575039807842732"><ele>14.0</ele><time>2026-05-03T16:14:08Z</time></trkpt><trkpt lat="40.99741662362763" lon="9.575217610252809"><ele>14.25</ele><time>2026-05-03T16:14:09Z</time></trkpt><trkpt lat="40.9974741301932" lon="9.575384673608605"><ele>14.5</ele><time>2026-05-03T16:14:10Z</time></trkpt><trkpt lat="40.99751699665606" lon="9.575562573922697"><ele>14.75</ele><time>2026-05-03T16:14:11Z</time></trkpt><trkpt lat="40.99756308881504" lon="9.575736396090681"><ele>15.0</ele><time>2026-05-03T16:14:12Z</time></trkpt><trkpt lat="40.997610865791785" lon="9.575909852519224"><ele>14.75</ele><time>2026-05-03T16:14:13Z</time></trkpt><trkpt lat="40.997657488407086" lon="9.576085149771648"><ele>14.5</ele><time>2026-05-03T16:14:14Z</time></trkpt><trkpt lat="40.99770178767027" lon="9.576260868645642"><ele>14.25</ele><time>2026-05-03T16:14:15Z</time></trkpt><trkpt lat="40.99774732282986" lon="9.576435027652941"><ele>14.0</ele><time>2026-05-03T16:14:16Z</time></trkpt><trkpt lat="40.99780290824598" lon="9.576596849356138"><ele>14.0</ele><time>2026-05-03T16:14:17Z</time></trkpt><trkpt lat="40.99787968440433" lon="9.576746516946757"><ele>14.0</ele><time>2026-05-03T16:14:18Z</time></trkpt><trkpt lat="40.99797990159954" lon="9.576890217636432"><ele>14.0</ele><time>2026-05-03T16:14:19Z</time></trkpt><trkpt lat="40.9980867857783" lon="9.577037087394768"><ele>14.0</ele><time>2026-05-03T16:14:20Z</time></trkpt><trkpt lat="40.99818905125813" lon="9.577172701719853"><ele>14.0</ele><time>2026-05-03T16:14:21Z</time></trkpt><trkpt lat="40.99828156850667" lon="9.577295973944487"><ele>14.0</ele><time>2026-05-03T16:14:22Z</time></trkpt><trkpt lat="40.99837477934325" lon="9.57741957538501"><ele>14.0</ele><time>2026-05-03T16:14:23Z</time></trkpt><trkpt lat="40.998470795258534" lon="9.577545814399922"><ele>14.0</ele><time>2026-05-03T16:14:24Z</time></trkpt><trkpt lat="40.99856800762073" lon="9.57767206078435"><ele>14.0</ele><time>2026-05-03T16:14:25Z</time></trkpt><trkpt lat="40.998666807238806" lon="9.577800856245602"><ele>14.0</ele><time>2026-05-03T16:14:26Z</time></trkpt><trkpt lat="40.99876380156557" lon="9.57793446981431"><ele>14.0</ele><time>2026-05-03T16:14:27Z</time></trkpt><trkpt lat="40.99886433904228" lon="9.578067441717819"><ele>14.0</ele><time>2026-05-03T16:14:28Z</time></trkpt><trkpt lat="40.99896813962732" lon="9.578197529904886"><ele>14.0</ele><time>2026-05-03T16:14:29Z</time></trkpt><trkpt lat="40.99905982133521" lon="9.578347700142233"><ele>14.0</ele><time>2026-05-03T16:14:30Z</time></trkpt><trkpt lat="40.99916814701095" lon="9.578479890223198"><ele>14.0</ele><time>2026-05-03T16:14:31Z</time></trkpt><trkpt lat="40.999291590065475" lon="9.578588978062198"><ele>14.0</ele><time>2026-05-03T16:14:32Z</time></trkpt><trkpt lat="40.99940311620019" lon="9.578714744239388"><ele>15.5</ele><time>2026-05-03T16:14:33Z</time></trkpt><trkpt lat="40.99951757170865" lon="9.578835649020954"><ele>17.0</ele><time>2026-05-03T16:14:34Z</time></trkpt><trkpt lat="40.99963176323723" lon="9.578952846525317"><ele>18.5</ele><time>2026-05-03T16:14:35Z</time></trkpt><trkpt lat="40.999731882718805" lon="9.579087201367566"><ele>20.0</ele><time>2026-05-03T16:14:36Z</time></trkpt><trkpt lat="40.999848816990955" lon="9.57918956609738"><ele>20.0</ele><time>2026-05-03T16:14:37Z</time></trkpt><trkpt lat="40.999945594567926" lon="9.579312751195094"><ele>20.0</ele><time>2026-05-03T16:14:38Z</time></trkpt><trkpt lat="41.000043184245406" lon="9.579428136575412"><ele>20.0</ele><time>2026-05-03T16:14:39Z</time></trkpt><trkpt lat="41.0001283674877" lon="9.579553204368983"><ele>20.0</ele><time>2026-05-03T16:14:40Z</time></trkpt><trkpt lat="41.00018969047902" lon="9.579706932426875"><ele>21.75</ele><time>2026-05-03T16:14:41Z</time></trkpt><trkpt lat="41.00022551933064" lon="9.579874816980109"><ele>23.5</ele><time>2026-05-03T16:14:42Z</time></trkpt><trkpt lat="41.00024286332715" lon="9.58002473443396"><ele>25.25</ele><time>2026-05-03T16:14:43Z</time></trkpt><trkpt lat="41.000266086466794" lon="9.580169099959498"><ele>27.0</ele><time>2026-05-03T16:14:44Z</time></trkpt><trkpt lat="41.00029374299153" lon="9.580314637859875"><ele>28.75</ele><time>2026-05-03T16:14:45Z</time></trkpt><trkpt lat="41.00031592030773" lon="9.58046798290299"><ele>30.5</ele><time>2026-05-03T16:14:46Z</time></trkpt><trkpt lat="41.000373757643196" lon="9.580617692427163"><ele>32.25</ele><time>2026-05-03T16:14:47Z</time></trkpt><trkpt lat="41.000466413784224" lon="9.580735632491635"><ele>34.0</ele><time>2026-05-03T16:14:47.999Z</time></trkpt><trkpt lat="41.000564033118124" lon="9.580841851432588"><ele>34.0</ele><time>2026-05-03T16:14:48.999Z</time></trkpt><trkpt lat="41.000676853906114" lon="9.580929071425704"><ele>34.0</ele><time>2026-05-03T16:14:49.999Z</time></trkpt><trkpt lat="41.00078803687789" lon="9.580971140359852"><ele>34.0</ele><time>2026-05-03T16:14:50.999Z</time></trkpt><trkpt lat="41.000901386334526" lon="9.581031429948625"><ele>34.0</ele><time>2026-05-03T16:14:51.999Z</time></trkpt><trkpt lat="41.0010164934914" lon="9.581091671651787"><ele>33.2</ele><time>2026-05-03T16:14:52.999Z</time></trkpt><trkpt lat="41.00112204757842" lon="9.581146983507933"><ele>32.4</ele><time>2026-05-03T16:14:53.999Z</time></trkpt><trkpt lat="41.001216466539404" lon="9.581196589899946"><ele>31.6</ele><time>2026-05-03T16:14:54.999Z</time></trkpt><trkpt lat="41.001300432090474" lon="9.581243174309655"><ele>30.8</ele><time>2026-05-03T16:14:55.999Z</time></trkpt><trkpt lat="41.00137788950414" lon="9.581305032864845"><ele>30.0</ele><time>2026-05-03T16:14:56.999Z</time></trkpt><trkpt lat="41.00145341048385" lon="9.58139300857343"><ele>30.25</ele><time>2026-05-03T16:14:57.999Z</time></trkpt><trkpt lat="41.001532401838006" lon="9.581498355476848"><ele>30.5</ele><time>2026-05-03T16:14:58.999Z</time></trkpt><trkpt lat="41.00161266912435" lon="9.58161399928858"><ele>30.75</ele><time>2026-05-03T16:14:59.999Z</time></trkpt><trkpt lat="41.001696018037784" lon="9.58173685601893"><ele>31.0</ele><time>2026-05-03T16:15:00.999Z</time></trkpt><trkpt lat="41.00178343031427" lon="9.581863981437882"><ele>31.0</ele><time>2026-05-03T16:15:01.999Z</time></trkpt><trkpt lat="41.00187478366726" lon="9.581993841821232"><ele>31.0</ele><time>2026-05-03T16:15:02.999Z</time></trkpt><trkpt lat="41.001961844318785" lon="9.582124237252128"><ele>31.0</ele><time>2026-05-03T16:15:03.999Z</time></trkpt><trkpt lat="41.00204021868987" lon="9.582248837925976"><ele>31.0</ele><time>2026-05-03T16:15:04.999Z</time></trkpt><trkpt lat="41.002120454753545" lon="9.582386657091824"><ele>31.5</ele><time>2026-05-03T16:15:06Z</time></trkpt><trkpt lat="41.002179368094396" lon="9.582542487673733"><ele>32.0</ele><time>2026-05-03T16:15:07Z</time></trkpt><trkpt lat="41.00220793397104" lon="9.582710753619162"><ele>32.5</ele><time>2026-05-03T16:15:08Z</time></trkpt><trkpt lat="41.00220361928934" lon="9.582886636187967"><ele>33.0</ele><time>2026-05-03T16:15:09Z</time></trkpt><trkpt lat="41.00216292197527" lon="9.583057016106096"><ele>33.0</ele><time>2026-05-03T16:15:10Z</time></trkpt><trkpt lat="41.0020951763845" lon="9.583216591818465"><ele>33.0</ele><time>2026-05-03T16:15:11Z</time></trkpt><trkpt lat="41.00204322893933" lon="9.583364916433261"><ele>33.0</ele><time>2026-05-03T16:15:12Z</time></trkpt><trkpt lat="41.001979470706644" lon="9.583524903160708"><ele>33.0</ele><time>2026-05-03T16:15:13Z</time></trkpt><trkpt lat="41.00191864088846" lon="9.583687298235105"><ele>31.75</ele><time>2026-05-03T16:15:14Z</time></trkpt><trkpt lat="41.00185669729556" lon="9.583853428263318"><ele>30.5</ele><time>2026-05-03T16:15:15Z</time></trkpt><trkpt lat="41.001792843428" lon="9.58402213877104"><ele>29.25</ele><time>2026-05-03T16:15:16Z</time></trkpt><trkpt lat="41.001729088673684" lon="9.584189609544572"><ele>28.0</ele><time>2026-05-03T16:15:17Z</time></trkpt><trkpt lat="41.001673622985955" lon="9.584360020749484"><ele>28.25</ele><time>2026-05-03T16:15:18Z</time></trkpt><trkpt lat="41.001640898118886" lon="9.584536329254753"><ele>28.5</ele><time>2026-05-03T16:15:19Z</time></trkpt><trkpt lat="41.00164155412328" lon="9.584700212708118"><ele>28.75</ele><time>2026-05-03T16:15:20Z</time></trkpt><trkpt lat="41.00167924537481" lon="9.58485044858187"><ele>29.0</ele><time>2026-05-03T16:15:21Z</time></trkpt><trkpt lat="41.00173815431254" lon="9.584995562478294"><ele>29.0</ele><time>2026-05-03T16:15:22Z</time></trkpt><trkpt lat="41.00180987841891" lon="9.585126529857888"><ele>29.0</ele><time>2026-05-03T16:15:23Z</time></trkpt><trkpt lat="41.001885140195284" lon="9.585262240918524"><ele>29.0</ele><time>2026-05-03T16:15:24Z</time></trkpt><trkpt lat="41.0019565949158" lon="9.585401019197826"><ele>29.0</ele><time>2026-05-03T16:15:25Z</time></trkpt><trkpt lat="41.00202531769944" lon="9.585544043169588"><ele>31.0</ele><time>2026-05-03T16:15:26Z</time></trkpt><trkpt lat="41.00209498890867" lon="9.585686564130821"><ele>33.0</ele><time>2026-05-03T16:15:27Z</time></trkpt><trkpt lat="41.0021612183948" lon="9.585831507925624"><ele>35.0</ele><time>2026-05-03T16:15:28Z</time></trkpt><trkpt lat="41.00222041394153" lon="9.585980774524261"><ele>37.0</ele><time>2026-05-03T16:15:29Z</time></trkpt><trkpt lat="41.00226541506957" lon="9.586130644177347"><ele>38.25</ele><time>2026-05-03T16:15:30Z</time></trkpt><trkpt lat="41.00229504449049" lon="9.586283357007748"><ele>39.5</ele><time>2026-05-03T16:15:31Z</time></trkpt><trkpt lat="41.0023157051195" lon="9.586437700118307"><ele>40.75</ele><time>2026-05-03T16:15:32Z</time></trkpt><trkpt lat="41.002335954289116" lon="9.586594116762752"><ele>42.0</ele><time>2026-05-03T16:15:33Z</time></trkpt><trkpt lat="41.00235958866223" lon="9.586751548382994"><ele>42.0</ele><time>2026-05-03T16:15:34Z</time></trkpt><trkpt lat="41.00238587996748" lon="9.586918882658109"><ele>42.0</ele><time>2026-05-03T16:15:35Z</time></trkpt><trkpt lat="41.002410431504316" lon="9.58709578924736"><ele>42.0</ele><time>2026-05-03T16:15:36Z</time></trkpt><trkpt lat="41.002435760144024" lon="9.587280012433276"><ele>42.0</ele><time>2026-05-03T16:15:37Z</time></trkpt><trkpt lat="41.00246381999252" lon="9.587469640005079"><ele>43.25</ele><time>2026-05-03T16:15:38Z</time></trkpt><trkpt lat="41.00249067686156" lon="9.58766650774308"><ele>44.5</ele><time>2026-05-03T16:15:39Z</time></trkpt><trkpt lat="41.00251377255326" lon="9.587863459170244"><ele>45.75</ele><time>2026-05-03T16:15:40Z</time></trkpt><trkpt lat="41.00254133042529" lon="9.588052587202412"><ele>47.0</ele><time>2026-05-03T16:15:41Z</time></trkpt><trkpt lat="41.00258598911684" lon="9.588231692789904"><ele>46.75</ele><time>2026-05-03T16:15:42Z</time></trkpt><trkpt lat="41.00265034576965" lon="9.588394279691896"><ele>46.5</ele><time>2026-05-03T16:15:43Z</time></trkpt><trkpt lat="41.002720943109594" lon="9.588543652152627"><ele>46.25</ele><time>2026-05-03T16:15:44Z</time></trkpt><trkpt lat="41.00278757079289" lon="9.5886895936709"><ele>46.0</ele><time>2026-05-03T16:15:45Z</time></trkpt><trkpt lat="41.002851501801615" lon="9.58882962481119"><ele>46.0</ele><time>2026-05-03T16:15:46Z</time></trkpt><trkpt lat="41.00291388577541" lon="9.588964743653895"><ele>46.0</ele><time>2026-05-03T16:15:47Z</time></trkpt><trkpt lat="41.00297011552854" lon="9.589096974307877"><ele>46.0</ele><time>2026-05-03T16:15:48Z</time></trkpt><trkpt lat="41.00301703956012" lon="9.589236995818839"><ele>46.0</ele><time>2026-05-03T16:15:49Z</time></trkpt><trkpt lat="41.00306015940832" lon="9.589383516876419"><ele>47.0</ele><time>2026-05-03T16:15:50Z</time></trkpt><trkpt lat="41.003099296461066" lon="9.589533649486432"><ele>48.0</ele><time>2026-05-03T16:15:51Z</time></trkpt><trkpt lat="41.003131358815146" lon="9.589686489738225"><ele>49.0</ele><time>2026-05-03T16:15:52Z</time></trkpt><trkpt lat="41.00316450322158" lon="9.58984124087555"><ele>50.0</ele><time>2026-05-03T16:15:53Z</time></trkpt><trkpt lat="41.00318795546363" lon="9.59000452800528"><ele>50.0</ele><time>2026-05-03T16:15:54Z</time></trkpt><trkpt lat="41.00319086337595" lon="9.590176234170292"><ele>50.0</ele><time>2026-05-03T16:15:55Z</time></trkpt><trkpt lat="41.003183592031135" lon="9.590353429707138"><ele>50.0</ele><time>2026-05-03T16:15:56Z</time></trkpt><trkpt lat="41.00316299817836" lon="9.59053408831295"><ele>50.0</ele><time>2026-05-03T16:15:57Z</time></trkpt><trkpt lat="41.00314252534652" lon="9.590718585415702"><ele>49.5</ele><time>2026-05-03T16:15:58Z</time></trkpt><trkpt lat="41.00311775375886" lon="9.590902919007242"><ele>49.0</ele><time>2026-05-03T16:15:59Z</time></trkpt><trkpt lat="41.003096261970065" lon="9.591078398834334"><ele>48.5</ele><time>2026-05-03T16:16:00Z</time></trkpt><trkpt lat="41.00307907135016" lon="9.591242125168206"><ele>48.0</ele><time>2026-05-03T16:16:01Z</time></trkpt><trkpt lat="41.00306181509026" lon="9.591394921632673"><ele>49.0</ele><time>2026-05-03T16:16:02Z</time></trkpt><trkpt lat="41.00305580012521" lon="9.591537704514934"><ele>50.0</ele><time>2026-05-03T16:16:03Z</time></trkpt><trkpt lat="41.00306986533858" lon="9.591678837784109"><ele>51.0</ele><time>2026-05-03T16:16:04Z</time></trkpt><trkpt lat="41.003114712476886" lon="9.591809779603516"><ele>52.0</ele><time>2026-05-03T16:16:05Z</time></trkpt><trkpt lat="41.00317491562838" lon="9.591928728181063"><ele>53.0</ele><time>2026-05-03T16:16:06Z</time></trkpt><trkpt lat="41.00323817433938" lon="9.592033820938047"><ele>51.4</ele><time>2026-05-03T16:16:07Z</time></trkpt><trkpt lat="41.00329441853388" lon="9.592138137386467"><ele>49.8</ele><time>2026-05-03T16:16:08Z</time></trkpt><trkpt lat="41.00334817881938" lon="9.592260601180026"><ele>48.2</ele><time>2026-05-03T16:16:09Z</time></trkpt><trkpt lat="41.00338609675637" lon="9.592407337884332"><ele>46.6</ele><time>2026-05-03T16:16:10Z</time></trkpt><trkpt lat="41.003398064710204" lon="9.592576977650888"><ele>45.0</ele><time>2026-05-03T16:16:11Z</time></trkpt><trkpt lat="41.003399877207094" lon="9.592742186024264"><ele>45.75</ele><time>2026-05-03T16:16:12Z</time></trkpt><trkpt lat="41.003392785970945" lon="9.592898747618804"><ele>46.5</ele><time>2026-05-03T16:16:13Z</time></trkpt><trkpt lat="41.00339108724831" lon="9.593045881009694"><ele>47.25</ele><time>2026-05-03T16:16:14Z</time></trkpt><trkpt lat="41.003378612760656" lon="9.593192293884286"><ele>48.0</ele><time>2026-05-03T16:16:15Z</time></trkpt><trkpt lat="41.00336288157546" lon="9.593336211628383"><ele>48.0</ele><time>2026-05-03T16:16:16Z</time></trkpt><trkpt lat="41.003343541688196" lon="9.593474343289312"><ele>48.0</ele><time>2026-05-03T16:16:17Z</time></trkpt><trkpt lat="41.00332396215577" lon="9.593592568507681"><ele>48.0</ele><time>2026-05-03T16:16:18Z</time></trkpt><trkpt lat="41.0033098462031" lon="9.59371117613856"><ele>48.0</ele><time>2026-05-03T16:16:19Z</time></trkpt><trkpt lat="41.003290023666914" lon="9.593831710769415"><ele>48.0</ele><time>2026-05-03T16:16:20Z</time></trkpt><trkpt lat="41.00324923375301" lon="9.593971873601415"><ele>49.5</ele><time>2026-05-03T16:16:21Z</time></trkpt><trkpt lat="41.003184546533525" lon="9.594093828920808"><ele>51.0</ele><time>2026-05-03T16:16:22Z</time></trkpt><trkpt lat="41.00311067706813" lon="9.594177699081895"><ele>52.5</ele><time>2026-05-03T16:16:23Z</time></trkpt><trkpt lat="41.00304012131281" lon="9.594230465587872"><ele>54.0</ele><time>2026-05-03T16:16:24Z</time></trkpt><trkpt lat="41.00297500802348" lon="9.594252055688914"><ele>55.5</ele><time>2026-05-03T16:16:25Z</time></trkpt><trkpt lat="41.00291594661741" lon="9.594304386328567"><ele>57.0</ele><time>2026-05-03T16:16:26Z</time></trkpt><trkpt lat="41.00284117855652" lon="9.594330131159555"><ele>57.0</ele><time>2026-05-03T16:16:27Z</time></trkpt><trkpt lat="41.00275088307877" lon="9.594380555138127"><ele>57.0</ele><time>2026-05-03T16:16:28Z</time></trkpt><trkpt lat="41.002662322842" lon="9.594452944407331"><ele>57.0</ele><time>2026-05-03T16:16:29Z</time></trkpt><trkpt lat="41.00258807270182" lon="9.59454510054348"><ele>57.0</ele><time>2026-05-03T16:16:30Z</time></trkpt><trkpt lat="41.00253005251435" lon="9.594646614906463"><ele>57.0</ele><time>2026-05-03T16:16:31Z</time></trkpt><trkpt lat="41.00248653287454" lon="9.594764810168508"><ele>55.6</ele><time>2026-05-03T16:16:32Z</time></trkpt><trkpt lat="41.002463574209465" lon="9.594891555965512"><ele>54.2</ele><time>2026-05-03T16:16:33Z</time></trkpt><trkpt lat="41.0024611621701" lon="9.595025090205821"><ele>52.8</ele><time>2026-05-03T16:16:34Z</time></trkpt><trkpt lat="41.002492112095226" lon="9.595157893601739"><ele>51.4</ele><time>2026-05-03T16:16:35Z</time></trkpt><trkpt lat="41.00254704313123" lon="9.595292467295229"><ele>50.0</ele><time>2026-05-03T16:16:36Z</time></trkpt><trkpt lat="41.00261236382831" lon="9.595416034108261"><ele>49.2</ele><time>2026-05-03T16:16:37Z</time></trkpt><trkpt lat="41.0026468586815" lon="9.595560699073552"><ele>48.4</ele><time>2026-05-03T16:16:38Z</time></trkpt><trkpt lat="41.00269916039055" lon="9.595695279867401"><ele>47.599999999999994</ele><time>2026-05-03T16:16:39Z</time></trkpt><trkpt lat="41.00272147453998" lon="9.595798046463234"><ele>46.8</ele><time>2026-05-03T16:16:40Z</time></trkpt><trkpt lat="41.00276271777201" lon="9.595928442643833"><ele>46.0</ele><time>2026-05-03T16:16:41Z</time></trkpt><trkpt lat="41.00277018832323" lon="9.5960735916462"><ele>46.5</ele><time>2026-05-03T16:16:42Z</time></trkpt><trkpt lat="41.002780434519735" lon="9.596225259922557"><ele>47.0</ele><time>2026-05-03T16:16:43Z</time></trkpt><trkpt lat="41.00279078014267" lon="9.596378400070988"><ele>47.5</ele><time>2026-05-03T16:16:44Z</time></trkpt><trkpt lat="41.0028014348495" lon="9.596536115397253"><ele>48.0</ele><time>2026-05-03T16:16:45Z</time></trkpt><trkpt lat="41.00281210754387" lon="9.5966940969464"><ele>48.0</ele><time>2026-05-03T16:16:46Z</time></trkpt><trkpt lat="41.002841879708896" lon="9.596848381591855"><ele>48.0</ele><time>2026-05-03T16:16:47Z</time></trkpt><trkpt lat="41.00285647883232" lon="9.597011748950337"><ele>48.0</ele><time>2026-05-03T16:16:48Z</time></trkpt><trkpt lat="41.002884165331785" lon="9.597174296073549"><ele>48.0</ele><time>2026-05-03T16:16:49Z</time></trkpt><trkpt lat="41.00293323913681" lon="9.597328019256583"><ele>47.75</ele><time>2026-05-03T16:16:50Z</time></trkpt><trkpt lat="41.00300684298361" lon="9.597470821404297"><ele>47.5</ele><time>2026-05-03T16:16:51Z</time></trkpt><trkpt lat="41.00310762254927" lon="9.597591720991451"><ele>47.25</ele><time>2026-05-03T16:16:52Z</time></trkpt><trkpt lat="41.00322687998596" lon="9.597696742168448"><ele>47.0</ele><time>2026-05-03T16:16:53Z</time></trkpt><trkpt lat="41.00334805343181" lon="9.597801293220476"><ele>45.5</ele><time>2026-05-03T16:16:54Z</time></trkpt><trkpt lat="41.00346111937617" lon="9.597900976971962"><ele>44.0</ele><time>2026-05-03T16:16:55Z</time></trkpt><trkpt lat="41.00356911850798" lon="9.597991037731022"><ele>42.5</ele><time>2026-05-03T16:16:56Z</time></trkpt><trkpt lat="41.003668125479265" lon="9.598095147189676"><ele>41.0</ele><time>2026-05-03T16:16:57Z</time></trkpt><trkpt lat="41.00371331784697" lon="9.598248177192977"><ele>41.0</ele><time>2026-05-03T16:16:57.999Z</time></trkpt><trkpt lat="41.00369194153068" lon="9.59839837701469"><ele>41.0</ele><time>2026-05-03T16:16:58.999Z</time></trkpt><trkpt lat="41.0036350986808" lon="9.598543862474866"><ele>41.0</ele><time>2026-05-03T16:16:59.999Z</time></trkpt><trkpt lat="41.00357258385369" lon="9.598723289096242"><ele>41.0</ele><time>2026-05-03T16:17:00.999Z</time></trkpt><trkpt lat="41.00352025598303" lon="9.59891642880868"><ele>39.5</ele><time>2026-05-03T16:17:01.999Z</time></trkpt><trkpt lat="41.0034734080515" lon="9.599057771887319"><ele>38.0</ele><time>2026-05-03T16:17:02.999Z</time></trkpt><trkpt lat="41.003429482056326" lon="9.599195980944078"><ele>36.5</ele><time>2026-05-03T16:17:03.999Z</time></trkpt><trkpt lat="41.00339450299451" lon="9.599331178926962"><ele>35.0</ele><time>2026-05-03T16:17:04.999Z</time></trkpt><trkpt lat="41.0033809040825" lon="9.59947964355275"><ele>34.25</ele><time>2026-05-03T16:17:05.999Z</time></trkpt><trkpt lat="41.00339985222683" lon="9.599640754101006"><ele>33.5</ele><time>2026-05-03T16:17:07Z</time></trkpt><trkpt lat="41.00343855024451" lon="9.599805121444025"><ele>32.75</ele><time>2026-05-03T16:17:07.999Z</time></trkpt><trkpt lat="41.00347285737803" lon="9.599975783342959"><ele>32.0</ele><time>2026-05-03T16:17:08.999Z</time></trkpt><trkpt lat="41.003498911700675" lon="9.600156178628117"><ele>30.0</ele><time>2026-05-03T16:17:09.999Z</time></trkpt><trkpt lat="41.003535244765764" lon="9.600340472839003"><ele>28.0</ele><time>2026-05-03T16:17:10.999Z</time></trkpt><trkpt lat="41.00359755299284" lon="9.600522085621128"><ele>26.0</ele><time>2026-05-03T16:17:12Z</time></trkpt><trkpt lat="41.00369724532567" lon="9.600684747287717"><ele>26.0</ele><time>2026-05-03T16:17:13Z</time></trkpt><trkpt lat="41.00381907066623" lon="9.600836701407749"><ele>26.0</ele><time>2026-05-03T16:17:14Z</time></trkpt><trkpt lat="41.00394309553366" lon="9.600988061260026"><ele>26.0</ele><time>2026-05-03T16:17:15Z</time></trkpt><trkpt lat="41.00406144651253" lon="9.60113074346541"><ele>24.25</ele><time>2026-05-03T16:17:16Z</time></trkpt><trkpt lat="41.00416707560719" lon="9.601265571968074"><ele>22.5</ele><time>2026-05-03T16:17:17Z</time></trkpt><trkpt lat="41.004262867861996" lon="9.601395410606496"><ele>20.75</ele><time>2026-05-03T16:17:18Z</time></trkpt><trkpt lat="41.0043527115889" lon="9.601513693883645"><ele>19.0</ele><time>2026-05-03T16:17:19Z</time></trkpt><trkpt lat="41.00443542602353" lon="9.601620226666121"><ele>19.0</ele><time>2026-05-03T16:17:20Z</time></trkpt><trkpt lat="41.00451035620905" lon="9.601727129830982"><ele>19.0</ele><time>2026-05-03T16:17:21Z</time></trkpt><trkpt lat="41.00455215598593" lon="9.601869088487275"><ele>19.0</ele><time>2026-05-03T16:17:22Z</time></trkpt><trkpt lat="41.004571540329394" lon="9.60202529688473"><ele>19.0</ele><time>2026-05-03T16:17:23Z</time></trkpt><trkpt lat="41.00455777776517" lon="9.602194093997873"><ele>18.5</ele><time>2026-05-03T16:17:24Z</time></trkpt><trkpt lat="41.004509580295675" lon="9.60235423017574"><ele>18.0</ele><time>2026-05-03T16:17:25Z</time></trkpt><trkpt lat="41.004433937263926" lon="9.602485338753167"><ele>17.5</ele><time>2026-05-03T16:17:26Z</time></trkpt><trkpt lat="41.00432621035366" lon="9.602581064149721"><ele>17.0</ele><time>2026-05-03T16:17:27Z</time></trkpt><trkpt lat="41.00419844019903" lon="9.60263829479404"><ele>16.0</ele><time>2026-05-03T16:17:28Z</time></trkpt><trkpt lat="41.00405869469897" lon="9.602690101967793"><ele>15.0</ele><time>2026-05-03T16:17:29Z</time></trkpt><trkpt lat="41.00392782388324" lon="9.60275431840574"><ele>14.0</ele><time>2026-05-03T16:17:30Z</time></trkpt><trkpt lat="41.00379577629778" lon="9.602797050622009"><ele>13.0</ele><time>2026-05-03T16:17:31Z</time></trkpt><trkpt lat="41.00367589276218" lon="9.60284243761563"><ele>13.0</ele><time>2026-05-03T16:17:32Z</time></trkpt><trkpt lat="41.00356113025056" lon="9.60288766293769"><ele>13.0</ele><time>2026-05-03T16:17:33Z</time></trkpt><trkpt lat="41.003449556567865" lon="9.602932439707413"><ele>13.0</ele><time>2026-05-03T16:17:34Z</time></trkpt><trkpt lat="41.003334645454196" lon="9.602984207555929"><ele>13.0</ele><time>2026-05-03T16:17:35Z</time></trkpt><trkpt lat="41.00321890998062" lon="9.603052539814886"><ele>12.0</ele><time>2026-05-03T16:17:36Z</time></trkpt><trkpt lat="41.003113994520646" lon="9.603156802958845"><ele>11.0</ele><time>2026-05-03T16:17:37Z</time></trkpt><trkpt lat="41.00302219706226" lon="9.603294134841693"><ele>10.0</ele><time>2026-05-03T16:17:38Z</time></trkpt><trkpt lat="41.002938282255656" lon="9.603448265205202"><ele>9.0</ele><time>2026-05-03T16:17:39Z</time></trkpt><trkpt lat="41.0028538880797" lon="9.603598171666548"><ele>8.75</ele><time>2026-05-03T16:17:40Z</time></trkpt><trkpt lat="41.002775123604415" lon="9.603735280766887"><ele>8.5</ele><time>2026-05-03T16:17:41Z</time></trkpt><trkpt lat="41.00270007985757" lon="9.603859666067004"><ele>8.25</ele><time>2026-05-03T16:17:42Z</time></trkpt><trkpt lat="41.002630847073625" lon="9.603978511369263"><ele>8.0</ele><time>2026-05-03T16:17:43Z</time></trkpt><trkpt lat="41.00256660040721" lon="9.604102775318626"><ele>8.0</ele><time>2026-05-03T16:17:44Z</time></trkpt><trkpt lat="41.00251422835154" lon="9.604235106286726"><ele>8.0</ele><time>2026-05-03T16:17:45Z</time></trkpt><trkpt lat="41.0024840088315" lon="9.604380810395325"><ele>8.0</ele><time>2026-05-03T16:17:46Z</time></trkpt><trkpt lat="41.00248017574311" lon="9.604537934607569"><ele>8.0</ele><time>2026-05-03T16:17:47Z</time></trkpt><trkpt lat="41.002498454776905" lon="9.604698828977531"><ele>8.0</ele><time>2026-05-03T16:17:48Z</time></trkpt><trkpt lat="41.002529243057175" lon="9.604859779068546"><ele>8.0</ele><time>2026-05-03T16:17:49Z</time></trkpt><trkpt lat="41.002568160058736" lon="9.60501914789496"><ele>8.0</ele><time>2026-05-03T16:17:50Z</time></trkpt><trkpt lat="41.00260302793771" lon="9.605176253929576"><ele>8.0</ele><time>2026-05-03T16:17:51Z</time></trkpt><trkpt lat="41.00263309468783" lon="9.605333794792816"><ele>8.0</ele><time>2026-05-03T16:17:52Z</time></trkpt><trkpt lat="41.00266362612894" lon="9.605487701813983"><ele>8.0</ele><time>2026-05-03T16:17:53Z</time></trkpt><trkpt lat="41.00270573457621" lon="9.605638844922655"><ele>8.0</ele><time>2026-05-03T16:17:54Z</time></trkpt><trkpt lat="41.00276932409721" lon="9.605779098001497"><ele>8.0</ele><time>2026-05-03T16:17:55Z</time></trkpt><trkpt lat="41.00285964636679" lon="9.605897721381362"><ele>8.0</ele><time>2026-05-03T16:17:56Z</time></trkpt><trkpt lat="41.00296231498312" lon="9.606000166159786"><ele>8.0</ele><time>2026-05-03T16:17:57Z</time></trkpt><trkpt lat="41.00304708371614" lon="9.606125649839313"><ele>8.0</ele><time>2026-05-03T16:17:58Z</time></trkpt><trkpt lat="41.00311378267335" lon="9.606257401499002"><ele>8.0</ele><time>2026-05-03T16:17:59Z</time></trkpt><trkpt lat="41.003148493782895" lon="9.606405514636773"><ele>8.25</ele><time>2026-05-03T16:18:00Z</time></trkpt><trkpt lat="41.003128473057885" lon="9.60656052577214"><ele>8.5</ele><time>2026-05-03T16:18:01Z</time></trkpt><trkpt lat="41.00312004754569" lon="9.606708583842185"><ele>8.75</ele><time>2026-05-03T16:18:02Z</time></trkpt><trkpt lat="41.00309258720211" lon="9.606861255919155"><ele>9.0</ele><time>2026-05-03T16:18:03Z</time></trkpt><trkpt lat="41.003069062414156" lon="9.607016602666695"><ele>9.0</ele><time>2026-05-03T16:18:04Z</time></trkpt><trkpt lat="41.00304731771241" lon="9.607175612410714"><ele>9.0</ele><time>2026-05-03T16:18:05Z</time></trkpt><trkpt lat="41.003035599776894" lon="9.607338519113494"><ele>9.0</ele><time>2026-05-03T16:18:06Z</time></trkpt><trkpt lat="41.00305066168763" lon="9.607502634132118"><ele>9.0</ele><time>2026-05-03T16:18:07Z</time></trkpt><trkpt lat="41.00309607526975" lon="9.607657314860194"><ele>9.0</ele><time>2026-05-03T16:18:08Z</time></trkpt><trkpt lat="41.00316952687866" lon="9.60778510613955"><ele>9.0</ele><time>2026-05-03T16:18:09Z</time></trkpt><trkpt lat="41.00326572941382" lon="9.60788908946509"><ele>9.0</ele><time>2026-05-03T16:18:10Z</time></trkpt><trkpt lat="41.0033734802167" lon="9.6079715551064"><ele>9.0</ele><time>2026-05-03T16:18:11Z</time></trkpt><trkpt lat="41.00348169568207" lon="9.608056452640778"><ele>8.75</ele><time>2026-05-03T16:18:12Z</time></trkpt><trkpt lat="41.003586868044124" lon="9.608152434196068"><ele>8.5</ele><time>2026-05-03T16:18:13Z</time></trkpt><trkpt lat="41.00369660649587" lon="9.6082505930921"><ele>8.25</ele><time>2026-05-03T16:18:14Z</time></trkpt><trkpt lat="41.00380699779094" lon="9.60835226523797"><ele>8.0</ele><time>2026-05-03T16:18:15Z</time></trkpt><trkpt lat="41.00391634419351" lon="9.608454257846446"><ele>8.0</ele><time>2026-05-03T16:18:16Z</time></trkpt><trkpt lat="41.004027574633646" lon="9.608555251096305"><ele>8.0</ele><time>2026-05-03T16:18:17Z</time></trkpt><trkpt lat="41.0041407883109" lon="9.608655934391976"><ele>8.0</ele><time>2026-05-03T16:18:18Z</time></trkpt><trkpt lat="41.004256294436615" lon="9.608753693938512"><ele>8.0</ele><time>2026-05-03T16:18:19Z</time></trkpt><trkpt lat="41.00437601109929" lon="9.608843776792977"><ele>7.5</ele><time>2026-05-03T16:18:20Z</time></trkpt><trkpt lat="41.004499264175486" lon="9.608922059020498"><ele>7.0</ele><time>2026-05-03T16:18:21Z</time></trkpt><trkpt lat="41.0046296647093" lon="9.60898485291373"><ele>6.5</ele><time>2026-05-03T16:18:22Z</time></trkpt><trkpt lat="41.00476388255577" lon="9.609038191763151"><ele>6.0</ele><time>2026-05-03T16:18:23Z</time></trkpt><trkpt lat="41.00489692130028" lon="9.60910441251149"><ele>5.75</ele><time>2026-05-03T16:18:24Z</time></trkpt><trkpt lat="41.00501432455156" lon="9.60919112176229"><ele>5.5</ele><time>2026-05-03T16:18:25Z</time></trkpt><trkpt lat="41.0051063095333" lon="9.609296162245856"><ele>5.25</ele><time>2026-05-03T16:18:26Z</time></trkpt><trkpt lat="41.00516970378109" lon="9.609417145566542"><ele>5.0</ele><time>2026-05-03T16:18:27Z</time></trkpt><trkpt lat="41.00520093200022" lon="9.609553731403413"><ele>5.0</ele><time>2026-05-03T16:18:28Z</time></trkpt><trkpt lat="41.005205891002085" lon="9.609701175733393"><ele>5.0</ele><time>2026-05-03T16:18:29Z</time></trkpt><trkpt lat="41.005195120994905" lon="9.609845683776387"><ele>5.0</ele><time>2026-05-03T16:18:30Z</time></trkpt><trkpt lat="41.00516416146417" lon="9.609990016867837"><ele>5.0</ele><time>2026-05-03T16:18:31Z</time></trkpt><trkpt lat="41.00509130765815" lon="9.610114088507846"><ele>5.0</ele><time>2026-05-03T16:18:32Z</time></trkpt><trkpt lat="41.00501787450925" lon="9.610239884722265"><ele>5.0</ele><time>2026-05-03T16:18:33Z</time></trkpt><trkpt lat="41.00493709502492" lon="9.610355992076164"><ele>5.0</ele><time>2026-05-03T16:18:34Z</time></trkpt><trkpt lat="41.00486654183167" lon="9.610481157561145"><ele>5.0</ele><time>2026-05-03T16:18:35Z</time></trkpt><trkpt lat="41.004790678201246" lon="9.610583414511641"><ele>5.0</ele><time>2026-05-03T16:18:36Z</time></trkpt><trkpt lat="41.004717601748446" lon="9.610683981719582"><ele>5.0</ele><time>2026-05-03T16:18:37Z</time></trkpt><trkpt lat="41.004645512416516" lon="9.610786117495232"><ele>5.0</ele><time>2026-05-03T16:18:38Z</time></trkpt><trkpt lat="41.00457617269834" lon="9.610890953002457"><ele>5.0</ele><time>2026-05-03T16:18:39Z</time></trkpt><trkpt lat="41.004510605771024" lon="9.610998898656836"><ele>5.0</ele><time>2026-05-03T16:18:40Z</time></trkpt><trkpt lat="41.00445289121678" lon="9.61111572054334"><ele>5.0</ele><time>2026-05-03T16:18:41Z</time></trkpt><trkpt lat="41.0044118210398" lon="9.611249155869512"><ele>5.0</ele><time>2026-05-03T16:18:42Z</time></trkpt><trkpt lat="41.00437484472088" lon="9.611391276462468"><ele>5.0</ele><time>2026-05-03T16:18:43Z</time></trkpt><trkpt lat="41.00439522868184" lon="9.611552291475379"><ele>5.0</ele><time>2026-05-03T16:18:44Z</time></trkpt><trkpt lat="41.004420950652865" lon="9.611705082262782"><ele>5.0</ele><time>2026-05-03T16:18:45Z</time></trkpt><trkpt lat="41.004457714976404" lon="9.611850522107277"><ele>5.0</ele><time>2026-05-03T16:18:46Z</time></trkpt><trkpt lat="41.00449363742836" lon="9.611995204717799"><ele>5.0</ele><time>2026-05-03T16:18:47Z</time></trkpt><trkpt lat="41.004528769627356" lon="9.612139882853427"><ele>5.0</ele><time>2026-05-03T16:18:48Z</time></trkpt><trkpt lat="41.0045642499661" lon="9.612285879091592"><ele>4.75</ele><time>2026-05-03T16:18:49Z</time></trkpt><trkpt lat="41.004597435562346" lon="9.61243236812204"><ele>4.5</ele><time>2026-05-03T16:18:50Z</time></trkpt><trkpt lat="41.00462882473761" lon="9.612578062870375"><ele>4.25</ele><time>2026-05-03T16:18:51Z</time></trkpt><trkpt lat="41.0046625652584" lon="9.612724826032423"><ele>4.0</ele><time>2026-05-03T16:18:52Z</time></trkpt><trkpt lat="41.00469536091073" lon="9.61286980360397"><ele>4.0</ele><time>2026-05-03T16:18:53Z</time></trkpt><trkpt lat="41.004727242796434" lon="9.61301414260395"><ele>4.0</ele><time>2026-05-03T16:18:54Z</time></trkpt><trkpt lat="41.00475786298903" lon="9.613156699459275"><ele>4.0</ele><time>2026-05-03T16:18:55Z</time></trkpt><trkpt lat="41.004788658385344" lon="9.613294945047995"><ele>4.0</ele><time>2026-05-03T16:18:56Z</time></trkpt><trkpt lat="41.00481795633065" lon="9.613425245999636"><ele>4.0</ele><time>2026-05-03T16:18:57Z</time></trkpt><trkpt lat="41.00483882472608" lon="9.613548475593761"><ele>4.6</ele><time>2026-05-03T16:18:58Z</time></trkpt><trkpt lat="41.004849651829716" lon="9.61367470921475"><ele>5.2</ele><time>2026-05-03T16:18:58.999Z</time></trkpt><trkpt lat="41.004842170051596" lon="9.613806494119126"><ele>5.799999999999999</ele><time>2026-05-03T16:18:59.999Z</time></trkpt><trkpt lat="41.00479126377409" lon="9.613926106597555"><ele>6.3999999999999995</ele><time>2026-05-03T16:19:00.999Z</time></trkpt><trkpt lat="41.004747088899855" lon="9.614046799271126"><ele>7.0</ele><time>2026-05-03T16:19:01.999Z</time></trkpt><trkpt lat="41.00470868248487" lon="9.614172143228105"><ele>7.0</ele><time>2026-05-03T16:19:02.999Z</time></trkpt><trkpt lat="41.004661918483194" lon="9.61427149982432"><ele>6.999999999999999</ele><time>2026-05-03T16:19:03.999Z</time></trkpt><trkpt lat="41.00462469539308" lon="9.614354409622994"><ele>6.999999999999999</ele><time>2026-05-03T16:19:04.999Z</time></trkpt><trkpt lat="41.004564012043524" lon="9.614486895493364"><ele>7.0</ele><time>2026-05-03T16:19:06.999Z</time></trkpt><trkpt lat="41.00449844819629" lon="9.614602507960887"><ele>7.0</ele><time>2026-05-03T16:19:08.999Z</time></trkpt><trkpt lat="41.004448825018464" lon="9.614753857746491"><ele>7.199999999999999</ele><time>2026-05-03T16:19:10.999Z</time></trkpt><trkpt lat="41.00438864010349" lon="9.614899493863742"><ele>7.3999999999999995</ele><time>2026-05-03T16:19:12.999Z</time></trkpt><trkpt lat="41.00435064386806" lon="9.614967576057248"><ele>7.6000000000000005</ele><time>2026-05-03T16:19:13.999Z</time></trkpt><trkpt lat="41.00427753587634" lon="9.615091774417689"><ele>7.800000000000001</ele><time>2026-05-03T16:19:15.999Z</time></trkpt><trkpt lat="41.00422371198191" lon="9.615235598479545"><ele>8.0</ele><time>2026-05-03T16:19:18Z</time></trkpt><trkpt lat="41.00417565298868" lon="9.615345194604158"><ele>7.4</ele><time>2026-05-03T16:19:20Z</time></trkpt><trkpt lat="41.00415679738311" lon="9.615436048892395"><ele>6.800000000000001</ele><time>2026-05-03T16:26:53Z</time></trkpt><trkpt lat="41.00407916769483" lon="9.615655906561116"><ele>6.2</ele><time>2026-05-03T16:26:55Z</time></trkpt><trkpt lat="41.00404463496438" lon="9.615761308572434"><ele>5.6</ele><time>2026-05-03T16:26:56Z</time></trkpt><trkpt lat="41.004007963414445" lon="9.615872870140995"><ele>5.0</ele><time>2026-05-03T16:26:57Z</time></trkpt><trkpt lat="41.00397862829314" lon="9.615962154255346"><ele>5.0</ele><time>2026-05-03T16:26:58Z</time></trkpt><trkpt lat="41.00394776263799" lon="9.616066700025776"><ele>5.0</ele><time>2026-05-03T16:26:59Z</time></trkpt><trkpt lat="41.00392288239658" lon="9.616169534872364"><ele>5.0</ele><time>2026-05-03T16:27:00Z</time></trkpt><trkpt lat="41.003908989527666" lon="9.616269449710257"><ele>5.0</ele><time>2026-05-03T16:27:01Z</time></trkpt><trkpt lat="41.003921628280175" lon="9.616368685029446"><ele>5.0</ele><time>2026-05-03T16:27:02Z</time></trkpt><trkpt lat="41.00393501754035" lon="9.616474253109235"><ele>5.0</ele><time>2026-05-03T16:27:03Z</time></trkpt><trkpt lat="41.00396279565199" lon="9.616587389351752"><ele>5.0</ele><time>2026-05-03T16:27:04Z</time></trkpt><trkpt lat="41.00400033308262" lon="9.616706142482565"><ele>5.0</ele><time>2026-05-03T16:27:05Z</time></trkpt><trkpt lat="41.00403290017185" lon="9.616818074281401"><ele>5.0</ele><time>2026-05-03T16:27:06Z</time></trkpt><trkpt lat="41.00406178844628" lon="9.616906488185904"><ele>5.0</ele><time>2026-05-03T16:27:07Z</time></trkpt><trkpt lat="41.00409451530159" lon="9.617008557361961"><ele>5.0</ele><time>2026-05-03T16:27:08Z</time></trkpt><trkpt lat="41.00413692136389" lon="9.61712608635501"><ele>5.0</ele><time>2026-05-03T16:27:09Z</time></trkpt><trkpt lat="41.004164309005326" lon="9.617264304506008"><ele>5.4</ele><time>2026-05-03T16:27:10Z</time></trkpt><trkpt lat="41.004204671204434" lon="9.61739272435171"><ele>5.8</ele><time>2026-05-03T16:27:11Z</time></trkpt><trkpt lat="41.004254386016584" lon="9.617494806330741"><ele>6.199999999999999</ele><time>2026-05-03T16:27:12Z</time></trkpt><trkpt lat="41.004288162072136" lon="9.617616027222597"><ele>6.6</ele><time>2026-05-03T16:27:13Z</time></trkpt><trkpt lat="41.0043253966973" lon="9.617739345338395"><ele>7.0</ele><time>2026-05-03T16:27:14Z</time></trkpt><trkpt lat="41.004364687836464" lon="9.61786066230975"><ele>6.199999999999999</ele><time>2026-05-03T16:27:15Z</time></trkpt><trkpt lat="41.00440107652342" lon="9.617986195477531"><ele>5.3999999999999995</ele><time>2026-05-03T16:27:16Z</time></trkpt><trkpt lat="41.00443168256594" lon="9.618125958021727"><ele>4.6</ele><time>2026-05-03T16:27:17Z</time></trkpt><trkpt lat="41.00448836000513" lon="9.618249601298125"><ele>3.8</ele><time>2026-05-03T16:27:18Z</time></trkpt><trkpt lat="41.00452522312357" lon="9.618384041545646"><ele>3.0</ele><time>2026-05-03T16:27:19Z</time></trkpt><trkpt lat="41.00456351953412" lon="9.618519325137353"><ele>3.0</ele><time>2026-05-03T16:27:20Z</time></trkpt><trkpt lat="41.00457456591457" lon="9.618660793120668"><ele>3.0</ele><time>2026-05-03T16:27:21Z</time></trkpt><trkpt lat="41.00457354145169" lon="9.618797255845918"><ele>3.0</ele><time>2026-05-03T16:27:22Z</time></trkpt><trkpt lat="41.00455374852445" lon="9.618926576032516"><ele>3.0</ele><time>2026-05-03T16:27:23Z</time></trkpt><trkpt lat="41.00451827606137" lon="9.619049275525349"><ele>3.0</ele><time>2026-05-03T16:27:24Z</time></trkpt><trkpt lat="41.00446805578439" lon="9.619145634991083"><ele>3.0</ele><time>2026-05-03T16:27:25Z</time></trkpt><trkpt lat="41.00441797408971" lon="9.619242111481757"><ele>3.0</ele><time>2026-05-03T16:27:26Z</time></trkpt><trkpt lat="41.00438215930469" lon="9.619331794903959"><ele>3.0</ele><time>2026-05-03T16:27:26.999Z</time></trkpt><trkpt lat="41.00432868871651" lon="9.619408503896503"><ele>3.0</ele><time>2026-05-03T16:27:27.999Z</time></trkpt><trkpt lat="41.00428269328301" lon="9.619482400666438"><ele>3.0</ele><time>2026-05-03T16:27:28.999Z</time></trkpt><trkpt lat="41.00424321048356" lon="9.619555955014114"><ele>3.0</ele><time>2026-05-03T16:27:29.999Z</time></trkpt><trkpt lat="41.004205009848306" lon="9.619628578443699"><ele>3.1666666666666665</ele><time>2026-05-03T16:27:30.999Z</time></trkpt><trkpt lat="41.00416443806338" lon="9.61969684087092"><ele>3.333333333333333</ele><time>2026-05-03T16:27:31.999Z</time></trkpt><trkpt lat="41.00412020499664" lon="9.619767738584493"><ele>3.5</ele><time>2026-05-03T16:27:32.999Z</time></trkpt><trkpt lat="41.00407445066114" lon="9.619845657705387"><ele>3.6666666666666665</ele><time>2026-05-03T16:27:33.999Z</time></trkpt><trkpt lat="41.004024379639105" lon="9.619929781297733"><ele>3.833333333333333</ele><time>2026-05-03T16:27:34.999Z</time></trkpt><trkpt lat="41.003977243600296" lon="9.620021324311308"><ele>4.0</ele><time>2026-05-03T16:27:35.999Z</time></trkpt><trkpt lat="41.003919606461025" lon="9.620112563569625"><ele>4.0</ele><time>2026-05-03T16:27:36.999Z</time></trkpt><trkpt lat="41.00386167691992" lon="9.620203238475657"><ele>4.0</ele><time>2026-05-03T16:27:37.999Z</time></trkpt><trkpt lat="41.003802654269805" lon="9.620298099951036"><ele>4.0</ele><time>2026-05-03T16:27:38.999Z</time></trkpt><trkpt lat="41.00373179155738" lon="9.620415506640414"><ele>4.0</ele><time>2026-05-03T16:27:39.999Z</time></trkpt><trkpt lat="41.00363173755487" lon="9.620560337060494"><ele>4.0</ele><time>2026-05-03T16:27:40.999Z</time></trkpt><trkpt lat="41.00355303659999" lon="9.620693885934294"><ele>4.0</ele><time>2026-05-03T16:27:42Z</time></trkpt><trkpt lat="41.003497959300425" lon="9.62082035936296"><ele>4.0</ele><time>2026-05-03T16:27:43Z</time></trkpt><trkpt lat="41.00340368917182" lon="9.620940823323147"><ele>4.0</ele><time>2026-05-03T16:27:44Z</time></trkpt><trkpt lat="41.00331392996681" lon="9.621086936347425"><ele>4.0</ele><time>2026-05-03T16:27:45Z</time></trkpt><trkpt lat="41.00323579058222" lon="9.621207082257923"><ele>4.800000000000001</ele><time>2026-05-03T16:27:46Z</time></trkpt><trkpt lat="41.00314483000494" lon="9.621285311492112"><ele>5.6000000000000005</ele><time>2026-05-03T16:27:47Z</time></trkpt><trkpt lat="41.00304638552025" lon="9.621341428345444"><ele>6.4</ele><time>2026-05-03T16:27:48Z</time></trkpt><trkpt lat="41.002942461475975" lon="9.621376917444298"><ele>7.2</ele><time>2026-05-03T16:27:49Z</time></trkpt><trkpt lat="41.00284121689383" lon="9.6214020798305"><ele>8.0</ele><time>2026-05-03T16:27:50Z</time></trkpt><trkpt lat="41.00274379029313" lon="9.62141976505128"><ele>7.999999999999999</ele><time>2026-05-03T16:27:51Z</time></trkpt><trkpt lat="41.00265519371263" lon="9.621431827985527"><ele>8.0</ele><time>2026-05-03T16:27:52Z</time></trkpt><trkpt lat="41.00257426791418" lon="9.621446494755343"><ele>8.0</ele><time>2026-05-03T16:27:53Z</time></trkpt><trkpt lat="41.00249061437392" lon="9.621466187149434"><ele>8.0</ele><time>2026-05-03T16:27:54Z</time></trkpt><trkpt lat="41.00240035504068" lon="9.621493037633067"><ele>7.999999999999999</ele><time>2026-05-03T16:27:55Z</time></trkpt><trkpt lat="41.002307209412294" lon="9.621529969379614"><ele>8.0</ele><time>2026-05-03T16:27:56Z</time></trkpt><trkpt lat="41.002214242957784" lon="9.621577970374492"><ele>7.0</ele><time>2026-05-03T16:27:57Z</time></trkpt><trkpt lat="41.002123910868534" lon="9.621634646934055"><ele>6.000000000000001</ele><time>2026-05-03T16:27:58Z</time></trkpt><trkpt lat="41.00203315144551" lon="9.621697981454604"><ele>5.0</ele><time>2026-05-03T16:27:59Z</time></trkpt><trkpt lat="41.00194053915353" lon="9.621764607099802"><ele>4.0</ele><time>2026-05-03T16:28:00Z</time></trkpt><trkpt lat="41.001856577595845" lon="9.621824697626653"><ele>3.0</ele><time>2026-05-03T16:28:01Z</time></trkpt><trkpt lat="41.00178101727546" lon="9.621876603420292"><ele>3.0</ele><time>2026-05-03T16:28:02Z</time></trkpt><trkpt lat="41.00170442269156" lon="9.621929182460844"><ele>3.0</ele><time>2026-05-03T16:28:03Z</time></trkpt><trkpt lat="41.001610914168424" lon="9.62199346863525"><ele>3.0</ele><time>2026-05-03T16:28:04Z</time></trkpt><trkpt lat="41.001515827854156" lon="9.6220620451981"><ele>3.0</ele><time>2026-05-03T16:28:05Z</time></trkpt><trkpt lat="41.001433645806856" lon="9.622122440290036"><ele>3.0</ele><time>2026-05-03T16:28:06Z</time></trkpt><trkpt lat="41.001354882354555" lon="9.622183747608986"><ele>3.3333333333333335</ele><time>2026-05-03T16:28:07Z</time></trkpt><trkpt lat="41.00127502022242" lon="9.622239656843687"><ele>3.666666666666667</ele><time>2026-05-03T16:28:08Z</time></trkpt><trkpt lat="41.00120815702296" lon="9.622301496209413"><ele>4.0</ele><time>2026-05-03T16:28:09Z</time></trkpt><trkpt lat="41.0011473859422" lon="9.622360320482906"><ele>4.333333333333334</ele><time>2026-05-03T16:28:10Z</time></trkpt><trkpt lat="41.001072572160055" lon="9.622390930006816"><ele>4.666666666666667</ele><time>2026-05-03T16:28:11Z</time></trkpt><trkpt lat="41.00099703720083" lon="9.622429459911714"><ele>5.0</ele><time>2026-05-03T16:28:12Z</time></trkpt><trkpt lat="41.00092938208144" lon="9.622457194699933"><ele>5.0</ele><time>2026-05-03T16:28:13Z</time></trkpt><trkpt lat="41.000861619440606" lon="9.622495477494803"><ele>5.0</ele><time>2026-05-03T16:28:14Z</time></trkpt><trkpt lat="41.000789802595094" lon="9.62251851303705"><ele>5.0</ele><time>2026-05-03T16:28:15Z</time></trkpt><trkpt lat="41.000717817728074" lon="9.62254320148443"><ele>5.0</ele><time>2026-05-03T16:28:16Z</time></trkpt><trkpt lat="41.00063886162349" lon="9.62256978087406"><ele>5.0</ele><time>2026-05-03T16:28:17Z</time></trkpt><trkpt lat="41.000550204770896" lon="9.622603761462726"><ele>5.0</ele><time>2026-05-03T16:28:18Z</time></trkpt><trkpt lat="41.000453959187055" lon="9.622639673990948"><ele>4.8</ele><time>2026-05-03T16:28:19Z</time></trkpt><trkpt lat="41.000351454559286" lon="9.62268164342482"><ele>4.6</ele><time>2026-05-03T16:28:20Z</time></trkpt><trkpt lat="41.00024483274195" lon="9.622721277647816"><ele>4.4</ele><time>2026-05-03T16:28:21Z</time></trkpt><trkpt lat="41.00014050057439" lon="9.622757687633172"><ele>4.2</ele><time>2026-05-03T16:28:22Z</time></trkpt><trkpt lat="41.000043243517254" lon="9.62279639508197"><ele>4.0</ele><time>2026-05-03T16:28:23Z</time></trkpt><trkpt lat="40.99994705651344" lon="9.622830896317444"><ele>4.333333333333333</ele><time>2026-05-03T16:28:24Z</time></trkpt><trkpt lat="40.999856725445035" lon="9.622859656470453"><ele>4.666666666666666</ele><time>2026-05-03T16:28:25Z</time></trkpt><trkpt lat="40.99977256602511" lon="9.622879380257777"><ele>5.0</ele><time>2026-05-03T16:28:26Z</time></trkpt><trkpt lat="40.99969149338455" lon="9.622903152423046"><ele>5.333333333333333</ele><time>2026-05-03T16:28:27Z</time></trkpt><trkpt lat="40.99960706946225" lon="9.622931151685929"><ele>5.666666666666667</ele><time>2026-05-03T16:28:28Z</time></trkpt><trkpt lat="40.999520162343444" lon="9.622945965835644"><ele>6.0</ele><time>2026-05-03T16:28:29Z</time></trkpt><trkpt lat="40.999427708818544" lon="9.622957862138444"><ele>6.0</ele><time>2026-05-03T16:28:30Z</time></trkpt><trkpt lat="40.9993415032075" lon="9.622976967859161"><ele>6.0</ele><time>2026-05-03T16:28:31Z</time></trkpt><trkpt lat="40.99927327396965" lon="9.622993889571251"><ele>6.0</ele><time>2026-05-03T16:28:32Z</time></trkpt><trkpt lat="40.99920412086321" lon="9.62300772986203"><ele>6.0</ele><time>2026-05-03T16:28:34Z</time></trkpt><trkpt lat="40.99914109699229" lon="9.623027182108856"><ele>6.0</ele><time>2026-05-03T16:28:36Z</time></trkpt><trkpt lat="40.999040021007616" lon="9.62303565827293"><ele>6.0</ele><time>2026-05-03T16:28:38Z</time></trkpt><trkpt lat="40.99890053793323" lon="9.623035876900973"><ele>6.0</ele><time>2026-05-03T16:28:40Z</time></trkpt><trkpt lat="40.99881353303013" lon="9.623072967556205"><ele>6.0</ele><time>2026-05-03T16:28:41Z</time></trkpt><trkpt lat="40.998735995542155" lon="9.623090311506235"><ele>6.0</ele><time>2026-05-03T16:28:42Z</time></trkpt><trkpt lat="40.998665887818284" lon="9.62310877912404"><ele>6.0</ele><time>2026-05-03T16:28:43Z</time></trkpt><trkpt lat="40.998564225646625" lon="9.623142858646933"><ele>6.0</ele><time>2026-05-03T16:28:45Z</time></trkpt><trkpt lat="40.99848035431079" lon="9.623166284710557"><ele>6.0</ele><time>2026-05-03T16:28:47Z</time></trkpt><trkpt lat="40.99838965192762" lon="9.623201055771494"><ele>5.833333333333333</ele><time>2026-05-03T16:28:49Z</time></trkpt><trkpt lat="40.99830420327676" lon="9.623276025240404"><ele>5.666666666666667</ele><time>2026-05-03T16:28:51Z</time></trkpt><trkpt lat="40.998257984200066" lon="9.623350127165203"><ele>5.5</ele><time>2026-05-03T16:28:52Z</time></trkpt><trkpt lat="40.99822880479624" lon="9.623452482848812"><ele>5.333333333333334</ele><time>2026-05-03T16:28:53Z</time></trkpt><trkpt lat="40.998231076747565" lon="9.623562649741297"><ele>5.166666666666667</ele><time>2026-05-03T16:28:54Z</time></trkpt><trkpt lat="40.99825754579557" lon="9.623643500286047"><ele>5.0</ele><time>2026-05-03T16:28:55Z</time></trkpt><trkpt lat="40.99829458023738" lon="9.62372563621555"><ele>5.333333333333334</ele><time>2026-05-03T16:28:56Z</time></trkpt><trkpt lat="40.998327973053875" lon="9.62381799960293"><ele>5.666666666666667</ele><time>2026-05-03T16:28:57Z</time></trkpt><trkpt lat="40.99836423628496" lon="9.623910162987904"><ele>6.0</ele><time>2026-05-03T16:28:58Z</time></trkpt><trkpt lat="40.998393399836324" lon="9.623993051612757"><ele>6.333333333333334</ele><time>2026-05-03T16:28:59Z</time></trkpt><trkpt lat="40.99844558948822" lon="9.624148151750093"><ele>6.666666666666667</ele><time>2026-05-03T16:29:01Z</time></trkpt><trkpt lat="40.99846954651894" lon="9.624232067994182"><ele>7.0</ele><time>2026-05-03T16:29:02Z</time></trkpt><trkpt lat="40.99849945700993" lon="9.62430714935298"><ele>7.3999999999999995</ele><time>2026-05-03T16:29:03Z</time></trkpt><trkpt lat="40.99852881645075" lon="9.62443431901152"><ele>7.799999999999999</ele><time>2026-05-03T16:29:05Z</time></trkpt><trkpt lat="40.99855408949321" lon="9.624516579683851"><ele>8.2</ele><time>2026-05-03T16:29:07Z</time></trkpt><trkpt lat="40.998589566018296" lon="9.624629970745353"><ele>8.6</ele><time>2026-05-03T16:29:09Z</time></trkpt><trkpt lat="40.998564930229115" lon="9.624715310361452"><ele>9.0</ele><time>2026-05-03T16:29:11Z</time></trkpt><trkpt lat="40.9984421493013" lon="9.62474553866772"><ele>9.0</ele><time>2026-05-03T16:29:12Z</time></trkpt><trkpt lat="40.99835004046742" lon="9.624797846733843"><ele>9.0</ele><time>2026-05-03T16:29:13Z</time></trkpt><trkpt lat="40.99825902352123" lon="9.624869390829323"><ele>9.0</ele><time>2026-05-03T16:29:14Z</time></trkpt><trkpt lat="40.9981587723264" lon="9.624925736415737"><ele>9.0</ele><time>2026-05-03T16:29:15Z</time></trkpt><trkpt lat="40.99806085984616" lon="9.624984189754686"><ele>9.0</ele><time>2026-05-03T16:29:16Z</time></trkpt><trkpt lat="40.99796093883717" lon="9.625041010680295"><ele>9.0</ele><time>2026-05-03T16:29:17Z</time></trkpt><trkpt lat="40.997861511188766" lon="9.625098740766166"><ele>9.0</ele><time>2026-05-03T16:29:17.999Z</time></trkpt><trkpt lat="40.99775940603304" lon="9.62515551524956"><ele>9.0</ele><time>2026-05-03T16:29:18.999Z</time></trkpt><trkpt lat="40.99765883943282" lon="9.625214471032175"><ele>9.0</ele><time>2026-05-03T16:29:19.999Z</time></trkpt><trkpt lat="40.997563763938665" lon="9.625277089411679"><ele>9.0</ele><time>2026-05-03T16:29:20.999Z</time></trkpt><trkpt lat="40.997475338788384" lon="9.62533658873872"><ele>9.6</ele><time>2026-05-03T16:29:21.999Z</time></trkpt><trkpt lat="40.99739712649116" lon="9.625400201201973"><ele>10.2</ele><time>2026-05-03T16:29:22.999Z</time></trkpt><trkpt lat="40.997316309751156" lon="9.625475416784049"><ele>10.799999999999999</ele><time>2026-05-03T16:29:23.999Z</time></trkpt><trkpt lat="40.99722712820704" lon="9.625570175365164"><ele>11.4</ele><time>2026-05-03T16:29:24.999Z</time></trkpt><trkpt lat="40.997141506168404" lon="9.62566631719827"><ele>12.0</ele><time>2026-05-03T16:29:25.999Z</time></trkpt><trkpt lat="40.99705525627373" lon="9.625756427788051"><ele>12.0</ele><time>2026-05-03T16:29:26.999Z</time></trkpt><trkpt lat="40.99697101125181" lon="9.625849680526699"><ele>12.0</ele><time>2026-05-03T16:29:27.999Z</time></trkpt><trkpt lat="40.99689052298404" lon="9.625939856700107"><ele>12.0</ele><time>2026-05-03T16:29:28.999Z</time></trkpt><trkpt lat="40.996814253016026" lon="9.626027717547315"><ele>12.0</ele><time>2026-05-03T16:29:29.999Z</time></trkpt><trkpt lat="40.99673936004756" lon="9.626112314529978"><ele>12.0</ele><time>2026-05-03T16:29:30.999Z</time></trkpt><trkpt lat="40.99666419093626" lon="9.626198674378196"><ele>12.5</ele><time>2026-05-03T16:29:31.999Z</time></trkpt><trkpt lat="40.99658860625401" lon="9.626280177633582"><ele>13.0</ele><time>2026-05-03T16:29:32.999Z</time></trkpt><trkpt lat="40.99650716793269" lon="9.62636220984446"><ele>13.5</ele><time>2026-05-03T16:29:33.999Z</time></trkpt><trkpt lat="40.99642562466912" lon="9.626439928101549"><ele>14.0</ele><time>2026-05-03T16:29:34.999Z</time></trkpt><trkpt lat="40.99635965984463" lon="9.626504012930674"><ele>14.5</ele><time>2026-05-03T16:29:35.999Z</time></trkpt><trkpt lat="40.996303130782245" lon="9.626550583752168"><ele>15.0</ele><time>2026-05-03T16:29:37.999Z</time></trkpt><trkpt lat="40.99624262810861" lon="9.626613953148446"><ele>15.0</ele><time>2026-05-03T16:29:41.999Z</time></trkpt><trkpt lat="40.99623653558712" lon="9.626701339212547"><ele>15.0</ele><time>2026-05-03T16:29:46.999Z</time></trkpt><trkpt lat="40.99630970340137" lon="9.626657121558608"><ele>15.0</ele><time>2026-05-03T16:29:49Z</time></trkpt><trkpt lat="40.99639084541045" lon="9.62660231649123"><ele>15.0</ele><time>2026-05-03T16:29:50Z</time></trkpt><trkpt lat="40.996405430187664" lon="9.626492087532894"><ele>15.0</ele><time>2026-05-03T16:29:51Z</time></trkpt><trkpt lat="40.996463949685506" lon="9.626395041686644"><ele>15.0</ele><time>2026-05-03T16:29:52Z</time></trkpt><trkpt lat="40.996529421737215" lon="9.626296327562299"><ele>15.0</ele><time>2026-05-03T16:29:53Z</time></trkpt><trkpt lat="40.996600306125025" lon="9.62618659598542"><ele>15.0</ele><time>2026-05-03T16:29:54Z</time></trkpt><trkpt lat="40.99666932414443" lon="9.626079462289253"><ele>15.0</ele><time>2026-05-03T16:29:55Z</time></trkpt><trkpt lat="40.996749746842454" lon="9.62597390405197"><ele>15.0</ele><time>2026-05-03T16:29:56Z</time></trkpt><trkpt lat="40.99680890122441" lon="9.625844997912973"><ele>15.0</ele><time>2026-05-03T16:29:57Z</time></trkpt><trkpt lat="40.99700417139942" lon="9.62586772782956"><ele>14.25</ele><time>2026-05-03T16:29:58Z</time></trkpt><trkpt lat="40.997098195294875" lon="9.625766261401544"><ele>13.5</ele><time>2026-05-03T16:29:59Z</time></trkpt><trkpt lat="40.99719072003333" lon="9.625665110148969"><ele>12.75</ele><time>2026-05-03T16:30:00Z</time></trkpt><trkpt lat="40.99727836270912" lon="9.62557451687325"><ele>12.0</ele><time>2026-05-03T16:30:01Z</time></trkpt><trkpt lat="40.99735994333082" lon="9.6254914473261"><ele>12.0</ele><time>2026-05-03T16:30:02Z</time></trkpt><trkpt lat="40.99743891727367" lon="9.625404269968213"><ele>12.0</ele><time>2026-05-03T16:30:03Z</time></trkpt><trkpt lat="40.997526552415245" lon="9.62532931936589"><ele>12.0</ele><time>2026-05-03T16:30:04Z</time></trkpt><trkpt lat="40.99762522479839" lon="9.62526517334155"><ele>12.0</ele><time>2026-05-03T16:30:05Z</time></trkpt><trkpt lat="40.99772411357168" lon="9.625202251293945"><ele>12.0</ele><time>2026-05-03T16:30:06Z</time></trkpt><trkpt lat="40.99782547900691" lon="9.625142202377624"><ele>11.4</ele><time>2026-05-03T16:30:07Z</time></trkpt><trkpt lat="40.997930440609906" lon="9.625082108979251"><ele>10.799999999999999</ele><time>2026-05-03T16:30:08Z</time></trkpt><trkpt lat="40.998032302254984" lon="9.625025773304676"><ele>10.2</ele><time>2026-05-03T16:30:09Z</time></trkpt><trkpt lat="40.998134746875735" lon="9.624968684664225"><ele>9.6</ele><time>2026-05-03T16:30:10Z</time></trkpt><trkpt lat="40.99823627578365" lon="9.624915545514954"><ele>9.0</ele><time>2026-05-03T16:30:11Z</time></trkpt><trkpt lat="40.99832677935347" lon="9.624863753674646"><ele>9.666666666666666</ele><time>2026-05-03T16:30:12Z</time></trkpt><trkpt lat="40.9984053609343" lon="9.62481694300143"><ele>10.333333333333332</ele><time>2026-05-03T16:30:13Z</time></trkpt><trkpt lat="40.99847285028317" lon="9.62477796442567"><ele>11.0</ele><time>2026-05-03T16:30:14Z</time></trkpt><trkpt lat="40.99855409373641" lon="9.62474032845293"><ele>11.666666666666666</ele><time>2026-05-03T16:30:16Z</time></trkpt><trkpt lat="40.998629836656285" lon="9.624680751135356"><ele>12.333333333333332</ele><time>2026-05-03T16:30:19Z</time></trkpt><trkpt lat="40.9986160056025" lon="9.624594154129175"><ele>13.0</ele><time>2026-05-03T16:30:21Z</time></trkpt><trkpt lat="40.998575253862" lon="9.624486832390653"><ele>12.333333333333332</ele><time>2026-05-03T16:30:23Z</time></trkpt><trkpt lat="40.99852750022485" lon="9.624369406060369"><ele>11.666666666666666</ele><time>2026-05-03T16:30:25Z</time></trkpt><trkpt lat="40.99848666835214" lon="9.624245679323229"><ele>11.0</ele><time>2026-05-03T16:30:27Z</time></trkpt><trkpt lat="40.99847319897184" lon="9.624159791021421"><ele>10.333333333333332</ele><time>2026-05-03T16:30:28Z</time></trkpt><trkpt lat="40.99842604380451" lon="9.62407836183295"><ele>9.666666666666666</ele><time>2026-05-03T16:30:29Z</time></trkpt><trkpt lat="40.998398056884696" lon="9.623976047996976"><ele>9.0</ele><time>2026-05-03T16:30:30Z</time></trkpt><trkpt lat="40.99837090923685" lon="9.623893149878233"><ele>9.0</ele><time>2026-05-03T16:30:31Z</time></trkpt><trkpt lat="40.99833839062075" lon="9.62377291094528"><ele>9.0</ele><time>2026-05-03T16:30:33Z</time></trkpt><trkpt lat="40.99822708009469" lon="9.623827658136115"><ele>9.0</ele><time>2026-05-03T16:30:35Z</time></trkpt><trkpt lat="40.9981358657767" lon="9.62386872369323"><ele>9.0</ele><time>2026-05-03T16:30:39Z</time></trkpt><trkpt lat="40.99803343564242" lon="9.623937690594225"><ele>9.0</ele><time>2026-05-03T16:30:41Z</time></trkpt><trkpt lat="40.99793031013078" lon="9.624007083681263"><ele>8.666666666666666</ele><time>2026-05-03T16:30:43Z</time></trkpt><trkpt lat="40.99782507675144" lon="9.62407704615974"><ele>8.333333333333334</ele><time>2026-05-03T16:30:45Z</time></trkpt><trkpt lat="40.99775191908133" lon="9.624125683691508"><ele>8.0</ele><time>2026-05-03T16:30:46Z</time></trkpt><trkpt lat="40.99768176183001" lon="9.624172326445784"><ele>7.666666666666667</ele><time>2026-05-03T16:30:47Z</time></trkpt><trkpt lat="40.997611823943735" lon="9.624218823328183"><ele>7.333333333333334</ele><time>2026-05-03T16:30:48Z</time></trkpt><trkpt lat="40.997548480193096" lon="9.624284861592498"><ele>7.0</ele><time>2026-05-03T16:30:49Z</time></trkpt><trkpt lat="40.997480047719115" lon="9.624329901294026"><ele>7.285714285714286</ele><time>2026-05-03T16:30:50Z</time></trkpt><trkpt lat="40.99741481845683" lon="9.62437415856517"><ele>7.571428571428571</ele><time>2026-05-03T16:30:51Z</time></trkpt><trkpt lat="40.99734972116191" lon="9.624417000330645"><ele>7.857142857142858</ele><time>2026-05-03T16:30:52Z</time></trkpt><trkpt lat="40.99728340320175" lon="9.624438407934"><ele>8.142857142857142</ele><time>2026-05-03T16:30:53Z</time></trkpt><trkpt lat="40.99722208520007" lon="9.62447981331262"><ele>8.428571428571429</ele><time>2026-05-03T16:30:54Z</time></trkpt><trkpt lat="40.997155399366086" lon="9.624524843354353"><ele>8.714285714285715</ele><time>2026-05-03T16:30:55Z</time></trkpt><trkpt lat="40.9970805993665" lon="9.62457535253605"><ele>9.0</ele><time>2026-05-03T16:30:56Z</time></trkpt><trkpt lat="40.9970031282078" lon="9.624627665450257"><ele>9.0</ele><time>2026-05-03T16:30:57Z</time></trkpt><trkpt lat="40.996924752659105" lon="9.62468058904287"><ele>9.0</ele><time>2026-05-03T16:30:58Z</time></trkpt><trkpt lat="40.99684576573604" lon="9.624733559585025"><ele>9.0</ele><time>2026-05-03T16:30:59Z</time></trkpt><trkpt lat="40.996767449003464" lon="9.62478605659038"><ele>9.0</ele><time>2026-05-03T16:31:00Z</time></trkpt><trkpt lat="40.99669078180547" lon="9.62483744788863"><ele>9.0</ele><time>2026-05-03T16:31:01Z</time></trkpt><trkpt lat="40.9966103370374" lon="9.624891371348166"><ele>9.0</ele><time>2026-05-03T16:31:02Z</time></trkpt><trkpt lat="40.99652775223852" lon="9.624972922653834"><ele>9.0</ele><time>2026-05-03T16:31:03Z</time></trkpt><trkpt lat="40.99642858600079" lon="9.625030676957948"><ele>9.0</ele><time>2026-05-03T16:31:04Z</time></trkpt><trkpt lat="40.996325321610925" lon="9.625100260359885"><ele>9.0</ele><time>2026-05-03T16:31:05Z</time></trkpt><trkpt lat="40.9962224669158" lon="9.625177364917672"><ele>9.0</ele><time>2026-05-03T16:31:06Z</time></trkpt><trkpt lat="40.996140725159314" lon="9.625255492878631"><ele>9.0</ele><time>2026-05-03T16:31:07Z</time></trkpt><trkpt lat="40.99606644157574" lon="9.625330213871917"><ele>9.2</ele><time>2026-05-03T16:31:08Z</time></trkpt><trkpt lat="40.9959872156276" lon="9.625409997503064"><ele>9.4</ele><time>2026-05-03T16:31:09Z</time></trkpt><trkpt lat="40.995904384321506" lon="9.625492051653197"><ele>9.6</ele><time>2026-05-03T16:31:10Z</time></trkpt><trkpt lat="40.99582054076017" lon="9.625580200348548"><ele>9.8</ele><time>2026-05-03T16:31:11Z</time></trkpt><trkpt lat="40.99574152439541" lon="9.625662400445172"><ele>10.0</ele><time>2026-05-03T16:31:12Z</time></trkpt><trkpt lat="40.995671632741875" lon="9.625734294826257"><ele>9.333333333333334</ele><time>2026-05-03T16:31:13Z</time></trkpt><trkpt lat="40.99560902732067" lon="9.625788853427602"><ele>8.666666666666668</ele><time>2026-05-03T16:31:14Z</time></trkpt><trkpt lat="40.99555442628825" lon="9.625847658183236"><ele>8.0</ele><time>2026-05-03T16:31:15Z</time></trkpt><trkpt lat="40.99549333845081" lon="9.625898644046366"><ele>7.333333333333334</ele><time>2026-05-03T16:31:16Z</time></trkpt><trkpt lat="40.99543893154768" lon="9.625954947576513"><ele>6.666666666666667</ele><time>2026-05-03T16:31:17Z</time></trkpt><trkpt lat="40.995342992639586" lon="9.626060273550575"><ele>6.0</ele><time>2026-05-03T16:31:19Z</time></trkpt><trkpt lat="40.995244207497805" lon="9.626102004520627"><ele>6.0</ele><time>2026-05-03T16:31:21Z</time></trkpt><trkpt lat="40.995148397712654" lon="9.62605328191142"><ele>6.0</ele><time>2026-05-03T16:31:23Z</time></trkpt><trkpt lat="40.99510115443963" lon="9.625960772664094"><ele>6.0</ele><time>2026-05-03T16:31:25Z</time></trkpt><trkpt lat="40.995059675094296" lon="9.625870169879605"><ele>6.0</ele><time>2026-05-03T16:31:27Z</time></trkpt><trkpt lat="40.99503079258897" lon="9.625772737157154"><ele>6.0</ele><time>2026-05-03T16:31:29Z</time></trkpt><trkpt lat="40.9950256140384" lon="9.625673670552336"><ele>6.0</ele><time>2026-05-03T16:31:30.999Z</time></trkpt><trkpt lat="40.995075612518946" lon="9.625601336078693"><ele>6.0</ele><time>2026-05-03T16:31:32.999Z</time></trkpt><trkpt lat="40.995140478817014" lon="9.62550622381697"><ele>6.0</ele><time>2026-05-03T16:32:20Z</time></trkpt><trkpt lat="40.99512967342303" lon="9.625402430527314"><ele>6.0</ele><time>2026-05-03T16:32:22Z</time></trkpt><trkpt lat="40.99515649239386" lon="9.625206694385744"><ele>6.0</ele><time>2026-05-03T16:32:24Z</time></trkpt><trkpt lat="40.99516718777839" lon="9.625078587442706"><ele>6.0</ele><time>2026-05-03T16:32:25Z</time></trkpt><trkpt lat="40.995171522071075" lon="9.624968685891416"><ele>5.2</ele><time>2026-05-03T16:32:26Z</time></trkpt><trkpt lat="40.995174610536296" lon="9.624845813008939"><ele>4.3999999999999995</ele><time>2026-05-03T16:32:28Z</time></trkpt><trkpt lat="40.995152651262266" lon="9.624737855640728"><ele>3.6</ele><time>2026-05-03T16:32:56Z</time></trkpt><trkpt lat="40.99513971321803" lon="9.62455380621111"><ele>2.8</ele><time>2026-05-03T16:32:58Z</time></trkpt><trkpt lat="40.99512463123156" lon="9.624458938709294"><ele>2.0</ele><time>2026-05-03T16:32:59Z</time></trkpt><trkpt lat="40.995107032217796" lon="9.624358015416957"><ele>2.0</ele><time>2026-05-03T16:33:00Z</time></trkpt><trkpt lat="40.99508634871386" lon="9.624272424169336"><ele>2.0</ele><time>2026-05-03T16:33:01Z</time></trkpt><trkpt lat="40.9950608052022" lon="9.624177974960917"><ele>2.0</ele><time>2026-05-03T16:33:02Z</time></trkpt><trkpt lat="40.99501909245978" lon="9.624036828653505"><ele>2.0</ele><time>2026-05-03T16:33:04Z</time></trkpt><trkpt lat="40.99498089162464" lon="9.623915635827965"><ele>2.0</ele><time>2026-05-03T16:33:06Z</time></trkpt><trkpt lat="40.994933575836306" lon="9.623803873848477"><ele>3.0</ele><time>2026-05-03T16:33:08Z</time></trkpt><trkpt lat="40.994889099273294" lon="9.623707775566666"><ele>3.0</ele><time>2026-05-03T16:33:09Z</time></trkpt><trkpt lat="40.9948269111398" lon="9.62362131995723"><ele>1.0</ele><time>2026-05-03T16:33:11Z</time></trkpt></trkseg></trk></gpx>